<?xml version="1.0" encoding="UTF-8" standalone="no" ?>
<gpx xmlns="http://www.topografix.com/GPX/1/1" xmlns:xsi="http://www.w3.org/2001/XMLSchema-instance" xsi:schemaLocation="http://www.topografix.com/GPX/1/1 http://www.topografix.com/GPX/1/1/gpx.xsd" version="1.1" creator="VisuGPX - https://www.visugpx.com">
  <metadata>
    <name>SO-NE-St Léger St Pazanne Machecoul St Philbert La Chevrolière Pont St Martin</name>
    <desc><![CDATA[SO-NE-St Léger St Pazanne Machecoul St Philbert La Chevrolière Pont St Martin]]></desc>
  </metadata>
  <trk>
    <name><![CDATA[2021-02-20 11:33 +01:00]]></name>
    <trkseg>
      <trkpt lat="47.16777" lon="-1.62653">
        <ele>68</ele>
        <time>2021-02-20T10:33:52.000Z</time>
      </trkpt>
      <trkpt lat="47.16768" lon="-1.62657">
        <ele>70</ele>
        <time>2021-02-20T10:35:08.000Z</time>
      </trkpt>
      <trkpt lat="47.16778" lon="-1.62666">
        <ele>70</ele>
        <time>2021-02-20T10:37:18.000Z</time>
      </trkpt>
      <trkpt lat="47.16773" lon="-1.62679">
        <ele>70</ele>
        <time>2021-02-20T10:37:20.000Z</time>
      </trkpt>
      <trkpt lat="47.16764" lon="-1.62679">
        <ele>70</ele>
        <time>2021-02-20T10:37:22.000Z</time>
      </trkpt>
      <trkpt lat="47.16754" lon="-1.62674">
        <ele>71</ele>
        <time>2021-02-20T10:37:24.000Z</time>
      </trkpt>
      <trkpt lat="47.16744" lon="-1.62677">
        <ele>71</ele>
        <time>2021-02-20T10:37:26.000Z</time>
      </trkpt>
      <trkpt lat="47.16733" lon="-1.62684">
        <ele>71</ele>
        <time>2021-02-20T10:37:28.000Z</time>
      </trkpt>
      <trkpt lat="47.16723" lon="-1.62693">
        <ele>71</ele>
        <time>2021-02-20T10:37:30.000Z</time>
      </trkpt>
      <trkpt lat="47.16718" lon="-1.62707">
        <ele>71</ele>
        <time>2021-02-20T10:37:32.000Z</time>
      </trkpt>
      <trkpt lat="47.16726" lon="-1.62722">
        <ele>71</ele>
        <time>2021-02-20T10:37:34.000Z</time>
      </trkpt>
      <trkpt lat="47.16735" lon="-1.62737">
        <ele>70</ele>
        <time>2021-02-20T10:37:36.000Z</time>
      </trkpt>
      <trkpt lat="47.16744" lon="-1.62751">
        <ele>70</ele>
        <time>2021-02-20T10:37:38.000Z</time>
      </trkpt>
      <trkpt lat="47.16755" lon="-1.62764">
        <ele>70</ele>
        <time>2021-02-20T10:37:40.000Z</time>
      </trkpt>
      <trkpt lat="47.16767" lon="-1.62776">
        <ele>70</ele>
        <time>2021-02-20T10:37:42.000Z</time>
      </trkpt>
      <trkpt lat="47.16779" lon="-1.62787">
        <ele>70</ele>
        <time>2021-02-20T10:37:44.000Z</time>
      </trkpt>
      <trkpt lat="47.16792" lon="-1.62799">
        <ele>70</ele>
        <time>2021-02-20T10:37:46.000Z</time>
      </trkpt>
      <trkpt lat="47.16804" lon="-1.6281">
        <ele>70</ele>
        <time>2021-02-20T10:37:48.000Z</time>
      </trkpt>
      <trkpt lat="47.16816" lon="-1.62821">
        <ele>71</ele>
        <time>2021-02-20T10:37:50.000Z</time>
      </trkpt>
      <trkpt lat="47.16828" lon="-1.62833">
        <ele>71</ele>
        <time>2021-02-20T10:37:52.000Z</time>
      </trkpt>
      <trkpt lat="47.16839" lon="-1.62845">
        <ele>71</ele>
        <time>2021-02-20T10:37:54.000Z</time>
      </trkpt>
      <trkpt lat="47.16851" lon="-1.62856">
        <ele>72</ele>
        <time>2021-02-20T10:37:56.000Z</time>
      </trkpt>
      <trkpt lat="47.16861" lon="-1.62865">
        <ele>72</ele>
        <time>2021-02-20T10:37:58.000Z</time>
      </trkpt>
      <trkpt lat="47.16871" lon="-1.62877">
        <ele>73</ele>
        <time>2021-02-20T10:38:00.000Z</time>
      </trkpt>
      <trkpt lat="47.16879" lon="-1.62892">
        <ele>73</ele>
        <time>2021-02-20T10:38:02.000Z</time>
      </trkpt>
      <trkpt lat="47.16885" lon="-1.62909">
        <ele>73</ele>
        <time>2021-02-20T10:38:04.000Z</time>
      </trkpt>
      <trkpt lat="47.16889" lon="-1.62927">
        <ele>74</ele>
        <time>2021-02-20T10:38:06.000Z</time>
      </trkpt>
      <trkpt lat="47.16891" lon="-1.62945">
        <ele>74</ele>
        <time>2021-02-20T10:38:08.000Z</time>
      </trkpt>
      <trkpt lat="47.16892" lon="-1.62965">
        <ele>74</ele>
        <time>2021-02-20T10:38:10.000Z</time>
      </trkpt>
      <trkpt lat="47.16891" lon="-1.62983">
        <ele>74</ele>
        <time>2021-02-20T10:38:12.000Z</time>
      </trkpt>
      <trkpt lat="47.16889" lon="-1.63002">
        <ele>75</ele>
        <time>2021-02-20T10:38:14.000Z</time>
      </trkpt>
      <trkpt lat="47.16887" lon="-1.63021">
        <ele>75</ele>
        <time>2021-02-20T10:38:16.000Z</time>
      </trkpt>
      <trkpt lat="47.16886" lon="-1.6304">
        <ele>75</ele>
        <time>2021-02-20T10:38:18.000Z</time>
      </trkpt>
      <trkpt lat="47.16888" lon="-1.6306">
        <ele>76</ele>
        <time>2021-02-20T10:38:20.000Z</time>
      </trkpt>
      <trkpt lat="47.1689" lon="-1.63079">
        <ele>76</ele>
        <time>2021-02-20T10:38:22.000Z</time>
      </trkpt>
      <trkpt lat="47.16893" lon="-1.63097">
        <ele>76</ele>
        <time>2021-02-20T10:38:24.000Z</time>
      </trkpt>
      <trkpt lat="47.16898" lon="-1.63116">
        <ele>77</ele>
        <time>2021-02-20T10:38:26.000Z</time>
      </trkpt>
      <trkpt lat="47.16903" lon="-1.63134">
        <ele>77</ele>
        <time>2021-02-20T10:38:28.000Z</time>
      </trkpt>
      <trkpt lat="47.16908" lon="-1.6315">
        <ele>77</ele>
        <time>2021-02-20T10:38:30.000Z</time>
      </trkpt>
      <trkpt lat="47.16915" lon="-1.63166">
        <ele>77</ele>
        <time>2021-02-20T10:38:32.000Z</time>
      </trkpt>
      <trkpt lat="47.16922" lon="-1.63181">
        <ele>77</ele>
        <time>2021-02-20T10:38:34.000Z</time>
      </trkpt>
      <trkpt lat="47.1693" lon="-1.63195">
        <ele>78</ele>
        <time>2021-02-20T10:38:36.000Z</time>
      </trkpt>
      <trkpt lat="47.16938" lon="-1.63209">
        <ele>78</ele>
        <time>2021-02-20T10:38:38.000Z</time>
      </trkpt>
      <trkpt lat="47.16946" lon="-1.63221">
        <ele>78</ele>
        <time>2021-02-20T10:38:40.000Z</time>
      </trkpt>
      <trkpt lat="47.16954" lon="-1.63233">
        <ele>78</ele>
        <time>2021-02-20T10:38:42.000Z</time>
      </trkpt>
      <trkpt lat="47.16963" lon="-1.63243">
        <ele>78</ele>
        <time>2021-02-20T10:38:44.000Z</time>
      </trkpt>
      <trkpt lat="47.16968" lon="-1.63257">
        <ele>79</ele>
        <time>2021-02-20T10:38:47.000Z</time>
      </trkpt>
      <trkpt lat="47.16961" lon="-1.63272">
        <ele>79</ele>
        <time>2021-02-20T10:38:49.000Z</time>
      </trkpt>
      <trkpt lat="47.16953" lon="-1.63285">
        <ele>79</ele>
        <time>2021-02-20T10:38:51.000Z</time>
      </trkpt>
      <trkpt lat="47.16945" lon="-1.63299">
        <ele>79</ele>
        <time>2021-02-20T10:38:53.000Z</time>
      </trkpt>
      <trkpt lat="47.16936" lon="-1.63314">
        <ele>79</ele>
        <time>2021-02-20T10:38:55.000Z</time>
      </trkpt>
      <trkpt lat="47.16926" lon="-1.63327">
        <ele>79</ele>
        <time>2021-02-20T10:38:57.000Z</time>
      </trkpt>
      <trkpt lat="47.16917" lon="-1.63341">
        <ele>79</ele>
        <time>2021-02-20T10:38:59.000Z</time>
      </trkpt>
      <trkpt lat="47.16908" lon="-1.63353">
        <ele>79</ele>
        <time>2021-02-20T10:39:01.000Z</time>
      </trkpt>
      <trkpt lat="47.16899" lon="-1.63366">
        <ele>79</ele>
        <time>2021-02-20T10:39:03.000Z</time>
      </trkpt>
      <trkpt lat="47.1689" lon="-1.63379">
        <ele>78</ele>
        <time>2021-02-20T10:39:05.000Z</time>
      </trkpt>
      <trkpt lat="47.16881" lon="-1.63392">
        <ele>78</ele>
        <time>2021-02-20T10:39:07.000Z</time>
      </trkpt>
      <trkpt lat="47.16872" lon="-1.63408">
        <ele>78</ele>
        <time>2021-02-20T10:39:09.000Z</time>
      </trkpt>
      <trkpt lat="47.16864" lon="-1.63424">
        <ele>79</ele>
        <time>2021-02-20T10:39:11.000Z</time>
      </trkpt>
      <trkpt lat="47.16856" lon="-1.63438">
        <ele>79</ele>
        <time>2021-02-20T10:39:13.000Z</time>
      </trkpt>
      <trkpt lat="47.16848" lon="-1.63453">
        <ele>79</ele>
        <time>2021-02-20T10:39:15.000Z</time>
      </trkpt>
      <trkpt lat="47.16839" lon="-1.63467">
        <ele>79</ele>
        <time>2021-02-20T10:39:17.000Z</time>
      </trkpt>
      <trkpt lat="47.1683" lon="-1.63482">
        <ele>79</ele>
        <time>2021-02-20T10:39:19.000Z</time>
      </trkpt>
      <trkpt lat="47.16821" lon="-1.63496">
        <ele>78</ele>
        <time>2021-02-20T10:39:21.000Z</time>
      </trkpt>
      <trkpt lat="47.16813" lon="-1.63511">
        <ele>78</ele>
        <time>2021-02-20T10:39:23.000Z</time>
      </trkpt>
      <trkpt lat="47.16804" lon="-1.63526">
        <ele>78</ele>
        <time>2021-02-20T10:39:25.000Z</time>
      </trkpt>
      <trkpt lat="47.16796" lon="-1.6354">
        <ele>78</ele>
        <time>2021-02-20T10:39:27.000Z</time>
      </trkpt>
      <trkpt lat="47.16787" lon="-1.63555">
        <ele>78</ele>
        <time>2021-02-20T10:39:29.000Z</time>
      </trkpt>
      <trkpt lat="47.16779" lon="-1.63569">
        <ele>78</ele>
        <time>2021-02-20T10:39:31.000Z</time>
      </trkpt>
      <trkpt lat="47.16771" lon="-1.63584">
        <ele>78</ele>
        <time>2021-02-20T10:39:33.000Z</time>
      </trkpt>
      <trkpt lat="47.16762" lon="-1.63598">
        <ele>78</ele>
        <time>2021-02-20T10:39:35.000Z</time>
      </trkpt>
      <trkpt lat="47.16754" lon="-1.63613">
        <ele>78</ele>
        <time>2021-02-20T10:39:37.000Z</time>
      </trkpt>
      <trkpt lat="47.16747" lon="-1.63627">
        <ele>78</ele>
        <time>2021-02-20T10:39:39.000Z</time>
      </trkpt>
      <trkpt lat="47.16746" lon="-1.63642">
        <ele>78</ele>
        <time>2021-02-20T10:39:41.000Z</time>
      </trkpt>
      <trkpt lat="47.16759" lon="-1.63649">
        <ele>78</ele>
        <time>2021-02-20T10:39:43.000Z</time>
      </trkpt>
      <trkpt lat="47.16771" lon="-1.63652">
        <ele>78</ele>
        <time>2021-02-20T10:39:45.000Z</time>
      </trkpt>
      <trkpt lat="47.16785" lon="-1.63656">
        <ele>79</ele>
        <time>2021-02-20T10:39:47.000Z</time>
      </trkpt>
      <trkpt lat="47.16799" lon="-1.63662">
        <ele>79</ele>
        <time>2021-02-20T10:39:49.000Z</time>
      </trkpt>
      <trkpt lat="47.16812" lon="-1.63668">
        <ele>78</ele>
        <time>2021-02-20T10:39:51.000Z</time>
      </trkpt>
      <trkpt lat="47.16826" lon="-1.63672">
        <ele>78</ele>
        <time>2021-02-20T10:39:53.000Z</time>
      </trkpt>
      <trkpt lat="47.1684" lon="-1.63677">
        <ele>78</ele>
        <time>2021-02-20T10:39:55.000Z</time>
      </trkpt>
      <trkpt lat="47.16854" lon="-1.63683">
        <ele>78</ele>
        <time>2021-02-20T10:39:57.000Z</time>
      </trkpt>
      <trkpt lat="47.16868" lon="-1.63689">
        <ele>77</ele>
        <time>2021-02-20T10:39:59.000Z</time>
      </trkpt>
      <trkpt lat="47.16882" lon="-1.63694">
        <ele>77</ele>
        <time>2021-02-20T10:40:01.000Z</time>
      </trkpt>
      <trkpt lat="47.16897" lon="-1.63698">
        <ele>77</ele>
        <time>2021-02-20T10:40:03.000Z</time>
      </trkpt>
      <trkpt lat="47.1691" lon="-1.63704">
        <ele>77</ele>
        <time>2021-02-20T10:40:05.000Z</time>
      </trkpt>
      <trkpt lat="47.16925" lon="-1.63709">
        <ele>77</ele>
        <time>2021-02-20T10:40:07.000Z</time>
      </trkpt>
      <trkpt lat="47.1694" lon="-1.63715">
        <ele>77</ele>
        <time>2021-02-20T10:40:09.000Z</time>
      </trkpt>
      <trkpt lat="47.16954" lon="-1.63721">
        <ele>77</ele>
        <time>2021-02-20T10:40:11.000Z</time>
      </trkpt>
      <trkpt lat="47.16969" lon="-1.63727">
        <ele>78</ele>
        <time>2021-02-20T10:40:13.000Z</time>
      </trkpt>
      <trkpt lat="47.16984" lon="-1.63732">
        <ele>78</ele>
        <time>2021-02-20T10:40:15.000Z</time>
      </trkpt>
      <trkpt lat="47.16999" lon="-1.63737">
        <ele>78</ele>
        <time>2021-02-20T10:40:17.000Z</time>
      </trkpt>
      <trkpt lat="47.17014" lon="-1.63743">
        <ele>79</ele>
        <time>2021-02-20T10:40:19.000Z</time>
      </trkpt>
      <trkpt lat="47.17029" lon="-1.63748">
        <ele>79</ele>
        <time>2021-02-20T10:40:21.000Z</time>
      </trkpt>
      <trkpt lat="47.17043" lon="-1.63754">
        <ele>79</ele>
        <time>2021-02-20T10:40:23.000Z</time>
      </trkpt>
      <trkpt lat="47.17057" lon="-1.63765">
        <ele>79</ele>
        <time>2021-02-20T10:40:25.000Z</time>
      </trkpt>
      <trkpt lat="47.17066" lon="-1.63782">
        <ele>79</ele>
        <time>2021-02-20T10:40:27.000Z</time>
      </trkpt>
      <trkpt lat="47.17073" lon="-1.63802">
        <ele>79</ele>
        <time>2021-02-20T10:40:29.000Z</time>
      </trkpt>
      <trkpt lat="47.17079" lon="-1.63822">
        <ele>79</ele>
        <time>2021-02-20T10:40:31.000Z</time>
      </trkpt>
      <trkpt lat="47.17085" lon="-1.63842">
        <ele>79</ele>
        <time>2021-02-20T10:40:33.000Z</time>
      </trkpt>
      <trkpt lat="47.17092" lon="-1.63861">
        <ele>79</ele>
        <time>2021-02-20T10:40:35.000Z</time>
      </trkpt>
      <trkpt lat="47.17099" lon="-1.6388">
        <ele>79</ele>
        <time>2021-02-20T10:40:37.000Z</time>
      </trkpt>
      <trkpt lat="47.17106" lon="-1.63899">
        <ele>79</ele>
        <time>2021-02-20T10:40:39.000Z</time>
      </trkpt>
      <trkpt lat="47.17112" lon="-1.63916">
        <ele>79</ele>
        <time>2021-02-20T10:40:41.000Z</time>
      </trkpt>
      <trkpt lat="47.17119" lon="-1.63932">
        <ele>79</ele>
        <time>2021-02-20T10:40:43.000Z</time>
      </trkpt>
      <trkpt lat="47.17128" lon="-1.6394">
        <ele>78</ele>
        <time>2021-02-20T10:40:45.000Z</time>
      </trkpt>
      <trkpt lat="47.17137" lon="-1.63953">
        <ele>79</ele>
        <time>2021-02-20T10:40:48.000Z</time>
      </trkpt>
      <trkpt lat="47.17139" lon="-1.6397">
        <ele>79</ele>
        <time>2021-02-20T10:40:50.000Z</time>
      </trkpt>
      <trkpt lat="47.17138" lon="-1.63989">
        <ele>79</ele>
        <time>2021-02-20T10:40:52.000Z</time>
      </trkpt>
      <trkpt lat="47.17137" lon="-1.64008">
        <ele>79</ele>
        <time>2021-02-20T10:40:54.000Z</time>
      </trkpt>
      <trkpt lat="47.17135" lon="-1.64026">
        <ele>79</ele>
        <time>2021-02-20T10:40:56.000Z</time>
      </trkpt>
      <trkpt lat="47.17132" lon="-1.64046">
        <ele>79</ele>
        <time>2021-02-20T10:40:58.000Z</time>
      </trkpt>
      <trkpt lat="47.1713" lon="-1.64066">
        <ele>79</ele>
        <time>2021-02-20T10:41:00.000Z</time>
      </trkpt>
      <trkpt lat="47.17129" lon="-1.64086">
        <ele>79</ele>
        <time>2021-02-20T10:41:02.000Z</time>
      </trkpt>
      <trkpt lat="47.17127" lon="-1.64106">
        <ele>80</ele>
        <time>2021-02-20T10:41:04.000Z</time>
      </trkpt>
      <trkpt lat="47.17125" lon="-1.64126">
        <ele>80</ele>
        <time>2021-02-20T10:41:06.000Z</time>
      </trkpt>
      <trkpt lat="47.17123" lon="-1.64145">
        <ele>81</ele>
        <time>2021-02-20T10:41:08.000Z</time>
      </trkpt>
      <trkpt lat="47.17121" lon="-1.64164">
        <ele>80</ele>
        <time>2021-02-20T10:41:10.000Z</time>
      </trkpt>
      <trkpt lat="47.17119" lon="-1.64184">
        <ele>80</ele>
        <time>2021-02-20T10:41:12.000Z</time>
      </trkpt>
      <trkpt lat="47.17117" lon="-1.64204">
        <ele>81</ele>
        <time>2021-02-20T10:41:14.000Z</time>
      </trkpt>
      <trkpt lat="47.17115" lon="-1.64223">
        <ele>80</ele>
        <time>2021-02-20T10:41:16.000Z</time>
      </trkpt>
      <trkpt lat="47.17113" lon="-1.64243">
        <ele>80</ele>
        <time>2021-02-20T10:41:18.000Z</time>
      </trkpt>
      <trkpt lat="47.1711" lon="-1.64264">
        <ele>80</ele>
        <time>2021-02-20T10:41:20.000Z</time>
      </trkpt>
      <trkpt lat="47.17108" lon="-1.64285">
        <ele>80</ele>
        <time>2021-02-20T10:41:22.000Z</time>
      </trkpt>
      <trkpt lat="47.17105" lon="-1.64305">
        <ele>80</ele>
        <time>2021-02-20T10:41:24.000Z</time>
      </trkpt>
      <trkpt lat="47.17103" lon="-1.64326">
        <ele>79</ele>
        <time>2021-02-20T10:41:26.000Z</time>
      </trkpt>
      <trkpt lat="47.17102" lon="-1.64346">
        <ele>79</ele>
        <time>2021-02-20T10:41:28.000Z</time>
      </trkpt>
      <trkpt lat="47.171" lon="-1.64366">
        <ele>80</ele>
        <time>2021-02-20T10:41:30.000Z</time>
      </trkpt>
      <trkpt lat="47.17098" lon="-1.64386">
        <ele>80</ele>
        <time>2021-02-20T10:41:32.000Z</time>
      </trkpt>
      <trkpt lat="47.17096" lon="-1.64407">
        <ele>79</ele>
        <time>2021-02-20T10:41:34.000Z</time>
      </trkpt>
      <trkpt lat="47.17094" lon="-1.64428">
        <ele>79</ele>
        <time>2021-02-20T10:41:36.000Z</time>
      </trkpt>
      <trkpt lat="47.17093" lon="-1.6445">
        <ele>80</ele>
        <time>2021-02-20T10:41:38.000Z</time>
      </trkpt>
      <trkpt lat="47.17092" lon="-1.64471">
        <ele>79</ele>
        <time>2021-02-20T10:41:40.000Z</time>
      </trkpt>
      <trkpt lat="47.17091" lon="-1.64492">
        <ele>79</ele>
        <time>2021-02-20T10:41:42.000Z</time>
      </trkpt>
      <trkpt lat="47.1709" lon="-1.64513">
        <ele>79</ele>
        <time>2021-02-20T10:41:44.000Z</time>
      </trkpt>
      <trkpt lat="47.17089" lon="-1.64533">
        <ele>79</ele>
        <time>2021-02-20T10:41:46.000Z</time>
      </trkpt>
      <trkpt lat="47.17089" lon="-1.64553">
        <ele>79</ele>
        <time>2021-02-20T10:41:48.000Z</time>
      </trkpt>
      <trkpt lat="47.17088" lon="-1.64574">
        <ele>78</ele>
        <time>2021-02-20T10:41:50.000Z</time>
      </trkpt>
      <trkpt lat="47.17088" lon="-1.64595">
        <ele>79</ele>
        <time>2021-02-20T10:41:52.000Z</time>
      </trkpt>
      <trkpt lat="47.17088" lon="-1.64616">
        <ele>79</ele>
        <time>2021-02-20T10:41:54.000Z</time>
      </trkpt>
      <trkpt lat="47.17088" lon="-1.64637">
        <ele>79</ele>
        <time>2021-02-20T10:41:56.000Z</time>
      </trkpt>
      <trkpt lat="47.17088" lon="-1.64657">
        <ele>78</ele>
        <time>2021-02-20T10:41:58.000Z</time>
      </trkpt>
      <trkpt lat="47.17089" lon="-1.64679">
        <ele>78</ele>
        <time>2021-02-20T10:42:00.000Z</time>
      </trkpt>
      <trkpt lat="47.1709" lon="-1.64699">
        <ele>79</ele>
        <time>2021-02-20T10:42:02.000Z</time>
      </trkpt>
      <trkpt lat="47.1709" lon="-1.64721">
        <ele>79</ele>
        <time>2021-02-20T10:42:04.000Z</time>
      </trkpt>
      <trkpt lat="47.17092" lon="-1.64742">
        <ele>79</ele>
        <time>2021-02-20T10:42:06.000Z</time>
      </trkpt>
      <trkpt lat="47.17093" lon="-1.64762">
        <ele>79</ele>
        <time>2021-02-20T10:42:08.000Z</time>
      </trkpt>
      <trkpt lat="47.17094" lon="-1.64784">
        <ele>79</ele>
        <time>2021-02-20T10:42:10.000Z</time>
      </trkpt>
      <trkpt lat="47.17095" lon="-1.64804">
        <ele>79</ele>
        <time>2021-02-20T10:42:12.000Z</time>
      </trkpt>
      <trkpt lat="47.17096" lon="-1.64827">
        <ele>80</ele>
        <time>2021-02-20T10:42:14.000Z</time>
      </trkpt>
      <trkpt lat="47.17098" lon="-1.64847">
        <ele>80</ele>
        <time>2021-02-20T10:42:16.000Z</time>
      </trkpt>
      <trkpt lat="47.17099" lon="-1.64868">
        <ele>79</ele>
        <time>2021-02-20T10:42:18.000Z</time>
      </trkpt>
      <trkpt lat="47.171" lon="-1.64888">
        <ele>79</ele>
        <time>2021-02-20T10:42:20.000Z</time>
      </trkpt>
      <trkpt lat="47.17101" lon="-1.64908">
        <ele>79</ele>
        <time>2021-02-20T10:42:22.000Z</time>
      </trkpt>
      <trkpt lat="47.17103" lon="-1.64928">
        <ele>78</ele>
        <time>2021-02-20T10:42:24.000Z</time>
      </trkpt>
      <trkpt lat="47.17104" lon="-1.64949">
        <ele>78</ele>
        <time>2021-02-20T10:42:26.000Z</time>
      </trkpt>
      <trkpt lat="47.17106" lon="-1.6497">
        <ele>78</ele>
        <time>2021-02-20T10:42:28.000Z</time>
      </trkpt>
      <trkpt lat="47.17107" lon="-1.64991">
        <ele>78</ele>
        <time>2021-02-20T10:42:30.000Z</time>
      </trkpt>
      <trkpt lat="47.17109" lon="-1.65012">
        <ele>78</ele>
        <time>2021-02-20T10:42:32.000Z</time>
      </trkpt>
      <trkpt lat="47.1711" lon="-1.65033">
        <ele>78</ele>
        <time>2021-02-20T10:42:34.000Z</time>
      </trkpt>
      <trkpt lat="47.17112" lon="-1.65054">
        <ele>78</ele>
        <time>2021-02-20T10:42:36.000Z</time>
      </trkpt>
      <trkpt lat="47.17114" lon="-1.65076">
        <ele>78</ele>
        <time>2021-02-20T10:42:38.000Z</time>
      </trkpt>
      <trkpt lat="47.17115" lon="-1.65096">
        <ele>78</ele>
        <time>2021-02-20T10:42:40.000Z</time>
      </trkpt>
      <trkpt lat="47.17116" lon="-1.65118">
        <ele>79</ele>
        <time>2021-02-20T10:42:42.000Z</time>
      </trkpt>
      <trkpt lat="47.17117" lon="-1.65138">
        <ele>78</ele>
        <time>2021-02-20T10:42:44.000Z</time>
      </trkpt>
      <trkpt lat="47.17118" lon="-1.65159">
        <ele>78</ele>
        <time>2021-02-20T10:42:46.000Z</time>
      </trkpt>
      <trkpt lat="47.1712" lon="-1.65179">
        <ele>78</ele>
        <time>2021-02-20T10:42:48.000Z</time>
      </trkpt>
      <trkpt lat="47.17122" lon="-1.65199">
        <ele>79</ele>
        <time>2021-02-20T10:42:50.000Z</time>
      </trkpt>
      <trkpt lat="47.17123" lon="-1.65218">
        <ele>79</ele>
        <time>2021-02-20T10:42:52.000Z</time>
      </trkpt>
      <trkpt lat="47.17124" lon="-1.65237">
        <ele>80</ele>
        <time>2021-02-20T10:42:54.000Z</time>
      </trkpt>
      <trkpt lat="47.17126" lon="-1.65255">
        <ele>80</ele>
        <time>2021-02-20T10:42:56.000Z</time>
      </trkpt>
      <trkpt lat="47.17131" lon="-1.65272">
        <ele>80</ele>
        <time>2021-02-20T10:42:58.000Z</time>
      </trkpt>
      <trkpt lat="47.17136" lon="-1.6529">
        <ele>80</ele>
        <time>2021-02-20T10:43:00.000Z</time>
      </trkpt>
      <trkpt lat="47.17137" lon="-1.6531">
        <ele>81</ele>
        <time>2021-02-20T10:43:02.000Z</time>
      </trkpt>
      <trkpt lat="47.17132" lon="-1.65329">
        <ele>81</ele>
        <time>2021-02-20T10:43:04.000Z</time>
      </trkpt>
      <trkpt lat="47.17123" lon="-1.65343">
        <ele>81</ele>
        <time>2021-02-20T10:43:06.000Z</time>
      </trkpt>
      <trkpt lat="47.17118" lon="-1.65361">
        <ele>81</ele>
        <time>2021-02-20T10:43:08.000Z</time>
      </trkpt>
      <trkpt lat="47.17119" lon="-1.6538">
        <ele>81</ele>
        <time>2021-02-20T10:43:10.000Z</time>
      </trkpt>
      <trkpt lat="47.1712" lon="-1.65399">
        <ele>82</ele>
        <time>2021-02-20T10:43:12.000Z</time>
      </trkpt>
      <trkpt lat="47.1712" lon="-1.65418">
        <ele>82</ele>
        <time>2021-02-20T10:43:14.000Z</time>
      </trkpt>
      <trkpt lat="47.17121" lon="-1.65436">
        <ele>83</ele>
        <time>2021-02-20T10:43:16.000Z</time>
      </trkpt>
      <trkpt lat="47.1712" lon="-1.65455">
        <ele>83</ele>
        <time>2021-02-20T10:43:18.000Z</time>
      </trkpt>
      <trkpt lat="47.17118" lon="-1.65472">
        <ele>84</ele>
        <time>2021-02-20T10:43:20.000Z</time>
      </trkpt>
      <trkpt lat="47.17115" lon="-1.65489">
        <ele>84</ele>
        <time>2021-02-20T10:43:22.000Z</time>
      </trkpt>
      <trkpt lat="47.17111" lon="-1.65506">
        <ele>85</ele>
        <time>2021-02-20T10:43:24.000Z</time>
      </trkpt>
      <trkpt lat="47.17106" lon="-1.65522">
        <ele>85</ele>
        <time>2021-02-20T10:43:26.000Z</time>
      </trkpt>
      <trkpt lat="47.17099" lon="-1.65538">
        <ele>86</ele>
        <time>2021-02-20T10:43:28.000Z</time>
      </trkpt>
      <trkpt lat="47.17092" lon="-1.65553">
        <ele>86</ele>
        <time>2021-02-20T10:43:30.000Z</time>
      </trkpt>
      <trkpt lat="47.17083" lon="-1.65568">
        <ele>86</ele>
        <time>2021-02-20T10:43:32.000Z</time>
      </trkpt>
      <trkpt lat="47.17076" lon="-1.65582">
        <ele>86</ele>
        <time>2021-02-20T10:43:34.000Z</time>
      </trkpt>
      <trkpt lat="47.17068" lon="-1.65596">
        <ele>86</ele>
        <time>2021-02-20T10:43:36.000Z</time>
      </trkpt>
      <trkpt lat="47.1706" lon="-1.6561">
        <ele>86</ele>
        <time>2021-02-20T10:43:38.000Z</time>
      </trkpt>
      <trkpt lat="47.17052" lon="-1.65625">
        <ele>85</ele>
        <time>2021-02-20T10:43:40.000Z</time>
      </trkpt>
      <trkpt lat="47.17043" lon="-1.6564">
        <ele>85</ele>
        <time>2021-02-20T10:43:42.000Z</time>
      </trkpt>
      <trkpt lat="47.17034" lon="-1.65656">
        <ele>84</ele>
        <time>2021-02-20T10:43:44.000Z</time>
      </trkpt>
      <trkpt lat="47.17026" lon="-1.65673">
        <ele>84</ele>
        <time>2021-02-20T10:43:46.000Z</time>
      </trkpt>
      <trkpt lat="47.17018" lon="-1.6569">
        <ele>83</ele>
        <time>2021-02-20T10:43:48.000Z</time>
      </trkpt>
      <trkpt lat="47.1701" lon="-1.65708">
        <ele>83</ele>
        <time>2021-02-20T10:43:50.000Z</time>
      </trkpt>
      <trkpt lat="47.17006" lon="-1.65727">
        <ele>83</ele>
        <time>2021-02-20T10:43:52.000Z</time>
      </trkpt>
      <trkpt lat="47.17003" lon="-1.65747">
        <ele>83</ele>
        <time>2021-02-20T10:43:54.000Z</time>
      </trkpt>
      <trkpt lat="47.16994" lon="-1.65764">
        <ele>83</ele>
        <time>2021-02-20T10:43:56.000Z</time>
      </trkpt>
      <trkpt lat="47.16982" lon="-1.65774">
        <ele>83</ele>
        <time>2021-02-20T10:43:58.000Z</time>
      </trkpt>
      <trkpt lat="47.16969" lon="-1.65782">
        <ele>83</ele>
        <time>2021-02-20T10:44:00.000Z</time>
      </trkpt>
      <trkpt lat="47.16958" lon="-1.65796">
        <ele>82</ele>
        <time>2021-02-20T10:44:02.000Z</time>
      </trkpt>
      <trkpt lat="47.16949" lon="-1.65813">
        <ele>82</ele>
        <time>2021-02-20T10:44:04.000Z</time>
      </trkpt>
      <trkpt lat="47.16942" lon="-1.6583">
        <ele>82</ele>
        <time>2021-02-20T10:44:06.000Z</time>
      </trkpt>
      <trkpt lat="47.16933" lon="-1.65847">
        <ele>81</ele>
        <time>2021-02-20T10:44:08.000Z</time>
      </trkpt>
      <trkpt lat="47.16925" lon="-1.65864">
        <ele>81</ele>
        <time>2021-02-20T10:44:10.000Z</time>
      </trkpt>
      <trkpt lat="47.16916" lon="-1.6588">
        <ele>81</ele>
        <time>2021-02-20T10:44:12.000Z</time>
      </trkpt>
      <trkpt lat="47.16907" lon="-1.65898">
        <ele>80</ele>
        <time>2021-02-20T10:44:14.000Z</time>
      </trkpt>
      <trkpt lat="47.16899" lon="-1.65916">
        <ele>80</ele>
        <time>2021-02-20T10:44:16.000Z</time>
      </trkpt>
      <trkpt lat="47.16891" lon="-1.65933">
        <ele>79</ele>
        <time>2021-02-20T10:44:18.000Z</time>
      </trkpt>
      <trkpt lat="47.16883" lon="-1.65951">
        <ele>80</ele>
        <time>2021-02-20T10:44:20.000Z</time>
      </trkpt>
      <trkpt lat="47.16875" lon="-1.65969">
        <ele>79</ele>
        <time>2021-02-20T10:44:22.000Z</time>
      </trkpt>
      <trkpt lat="47.16869" lon="-1.65989">
        <ele>79</ele>
        <time>2021-02-20T10:44:24.000Z</time>
      </trkpt>
      <trkpt lat="47.16864" lon="-1.66008">
        <ele>79</ele>
        <time>2021-02-20T10:44:26.000Z</time>
      </trkpt>
      <trkpt lat="47.16859" lon="-1.66029">
        <ele>79</ele>
        <time>2021-02-20T10:44:28.000Z</time>
      </trkpt>
      <trkpt lat="47.16855" lon="-1.66049">
        <ele>79</ele>
        <time>2021-02-20T10:44:30.000Z</time>
      </trkpt>
      <trkpt lat="47.16852" lon="-1.66068">
        <ele>79</ele>
        <time>2021-02-20T10:44:32.000Z</time>
      </trkpt>
      <trkpt lat="47.16849" lon="-1.66089">
        <ele>79</ele>
        <time>2021-02-20T10:44:34.000Z</time>
      </trkpt>
      <trkpt lat="47.16847" lon="-1.66109">
        <ele>79</ele>
        <time>2021-02-20T10:44:36.000Z</time>
      </trkpt>
      <trkpt lat="47.16847" lon="-1.6613">
        <ele>80</ele>
        <time>2021-02-20T10:44:38.000Z</time>
      </trkpt>
      <trkpt lat="47.16847" lon="-1.66151">
        <ele>80</ele>
        <time>2021-02-20T10:44:40.000Z</time>
      </trkpt>
      <trkpt lat="47.16847" lon="-1.66171">
        <ele>80</ele>
        <time>2021-02-20T10:44:42.000Z</time>
      </trkpt>
      <trkpt lat="47.16849" lon="-1.66192">
        <ele>80</ele>
        <time>2021-02-20T10:44:44.000Z</time>
      </trkpt>
      <trkpt lat="47.1685" lon="-1.66213">
        <ele>80</ele>
        <time>2021-02-20T10:44:46.000Z</time>
      </trkpt>
      <trkpt lat="47.16851" lon="-1.66232">
        <ele>80</ele>
        <time>2021-02-20T10:44:48.000Z</time>
      </trkpt>
      <trkpt lat="47.16852" lon="-1.66252">
        <ele>80</ele>
        <time>2021-02-20T10:44:50.000Z</time>
      </trkpt>
      <trkpt lat="47.16854" lon="-1.66273">
        <ele>80</ele>
        <time>2021-02-20T10:44:52.000Z</time>
      </trkpt>
      <trkpt lat="47.16855" lon="-1.66293">
        <ele>80</ele>
        <time>2021-02-20T10:44:54.000Z</time>
      </trkpt>
      <trkpt lat="47.16857" lon="-1.66313">
        <ele>80</ele>
        <time>2021-02-20T10:44:56.000Z</time>
      </trkpt>
      <trkpt lat="47.16859" lon="-1.66332">
        <ele>80</ele>
        <time>2021-02-20T10:44:58.000Z</time>
      </trkpt>
      <trkpt lat="47.16861" lon="-1.66352">
        <ele>81</ele>
        <time>2021-02-20T10:45:00.000Z</time>
      </trkpt>
      <trkpt lat="47.16862" lon="-1.66372">
        <ele>81</ele>
        <time>2021-02-20T10:45:02.000Z</time>
      </trkpt>
      <trkpt lat="47.16865" lon="-1.66393">
        <ele>81</ele>
        <time>2021-02-20T10:45:04.000Z</time>
      </trkpt>
      <trkpt lat="47.16867" lon="-1.66413">
        <ele>81</ele>
        <time>2021-02-20T10:45:06.000Z</time>
      </trkpt>
      <trkpt lat="47.1687" lon="-1.66433">
        <ele>80</ele>
        <time>2021-02-20T10:45:08.000Z</time>
      </trkpt>
      <trkpt lat="47.16872" lon="-1.66454">
        <ele>80</ele>
        <time>2021-02-20T10:45:10.000Z</time>
      </trkpt>
      <trkpt lat="47.16874" lon="-1.66474">
        <ele>80</ele>
        <time>2021-02-20T10:45:12.000Z</time>
      </trkpt>
      <trkpt lat="47.16876" lon="-1.66494">
        <ele>80</ele>
        <time>2021-02-20T10:45:14.000Z</time>
      </trkpt>
      <trkpt lat="47.16879" lon="-1.66514">
        <ele>81</ele>
        <time>2021-02-20T10:45:16.000Z</time>
      </trkpt>
      <trkpt lat="47.16881" lon="-1.66535">
        <ele>81</ele>
        <time>2021-02-20T10:45:18.000Z</time>
      </trkpt>
      <trkpt lat="47.16883" lon="-1.66555">
        <ele>81</ele>
        <time>2021-02-20T10:45:20.000Z</time>
      </trkpt>
      <trkpt lat="47.16885" lon="-1.66574">
        <ele>81</ele>
        <time>2021-02-20T10:45:22.000Z</time>
      </trkpt>
      <trkpt lat="47.16887" lon="-1.66594">
        <ele>81</ele>
        <time>2021-02-20T10:45:24.000Z</time>
      </trkpt>
      <trkpt lat="47.1689" lon="-1.66615">
        <ele>80</ele>
        <time>2021-02-20T10:45:26.000Z</time>
      </trkpt>
      <trkpt lat="47.16892" lon="-1.66635">
        <ele>81</ele>
        <time>2021-02-20T10:45:28.000Z</time>
      </trkpt>
      <trkpt lat="47.16893" lon="-1.66655">
        <ele>81</ele>
        <time>2021-02-20T10:45:30.000Z</time>
      </trkpt>
      <trkpt lat="47.16893" lon="-1.66676">
        <ele>80</ele>
        <time>2021-02-20T10:45:32.000Z</time>
      </trkpt>
      <trkpt lat="47.1689" lon="-1.66696">
        <ele>80</ele>
        <time>2021-02-20T10:45:34.000Z</time>
      </trkpt>
      <trkpt lat="47.16885" lon="-1.66715">
        <ele>80</ele>
        <time>2021-02-20T10:45:36.000Z</time>
      </trkpt>
      <trkpt lat="47.16879" lon="-1.66734">
        <ele>81</ele>
        <time>2021-02-20T10:45:38.000Z</time>
      </trkpt>
      <trkpt lat="47.16871" lon="-1.66751">
        <ele>80</ele>
        <time>2021-02-20T10:45:40.000Z</time>
      </trkpt>
      <trkpt lat="47.16863" lon="-1.66767">
        <ele>80</ele>
        <time>2021-02-20T10:45:42.000Z</time>
      </trkpt>
      <trkpt lat="47.16854" lon="-1.66784">
        <ele>80</ele>
        <time>2021-02-20T10:45:44.000Z</time>
      </trkpt>
      <trkpt lat="47.16846" lon="-1.66801">
        <ele>80</ele>
        <time>2021-02-20T10:45:46.000Z</time>
      </trkpt>
      <trkpt lat="47.16838" lon="-1.66817">
        <ele>80</ele>
        <time>2021-02-20T10:45:48.000Z</time>
      </trkpt>
      <trkpt lat="47.1683" lon="-1.66833">
        <ele>80</ele>
        <time>2021-02-20T10:45:50.000Z</time>
      </trkpt>
      <trkpt lat="47.16821" lon="-1.66849">
        <ele>80</ele>
        <time>2021-02-20T10:45:52.000Z</time>
      </trkpt>
      <trkpt lat="47.16813" lon="-1.66865">
        <ele>80</ele>
        <time>2021-02-20T10:45:54.000Z</time>
      </trkpt>
      <trkpt lat="47.16803" lon="-1.66879">
        <ele>81</ele>
        <time>2021-02-20T10:45:56.000Z</time>
      </trkpt>
      <trkpt lat="47.16792" lon="-1.66893">
        <ele>81</ele>
        <time>2021-02-20T10:45:58.000Z</time>
      </trkpt>
      <trkpt lat="47.16781" lon="-1.66904">
        <ele>81</ele>
        <time>2021-02-20T10:46:00.000Z</time>
      </trkpt>
      <trkpt lat="47.16768" lon="-1.66911">
        <ele>81</ele>
        <time>2021-02-20T10:46:02.000Z</time>
      </trkpt>
      <trkpt lat="47.16756" lon="-1.66917">
        <ele>82</ele>
        <time>2021-02-20T10:46:04.000Z</time>
      </trkpt>
      <trkpt lat="47.16744" lon="-1.66922">
        <ele>82</ele>
        <time>2021-02-20T10:46:06.000Z</time>
      </trkpt>
      <trkpt lat="47.16732" lon="-1.66926">
        <ele>82</ele>
        <time>2021-02-20T10:46:08.000Z</time>
      </trkpt>
      <trkpt lat="47.1672" lon="-1.6693">
        <ele>82</ele>
        <time>2021-02-20T10:46:10.000Z</time>
      </trkpt>
      <trkpt lat="47.16708" lon="-1.66935">
        <ele>82</ele>
        <time>2021-02-20T10:46:12.000Z</time>
      </trkpt>
      <trkpt lat="47.16696" lon="-1.66941">
        <ele>82</ele>
        <time>2021-02-20T10:46:14.000Z</time>
      </trkpt>
      <trkpt lat="47.16685" lon="-1.6695">
        <ele>82</ele>
        <time>2021-02-20T10:46:16.000Z</time>
      </trkpt>
      <trkpt lat="47.16675" lon="-1.66964">
        <ele>81</ele>
        <time>2021-02-20T10:46:18.000Z</time>
      </trkpt>
      <trkpt lat="47.16667" lon="-1.66981">
        <ele>81</ele>
        <time>2021-02-20T10:46:20.000Z</time>
      </trkpt>
      <trkpt lat="47.16662" lon="-1.67001">
        <ele>81</ele>
        <time>2021-02-20T10:46:22.000Z</time>
      </trkpt>
      <trkpt lat="47.16658" lon="-1.6702">
        <ele>80</ele>
        <time>2021-02-20T10:46:24.000Z</time>
      </trkpt>
      <trkpt lat="47.16653" lon="-1.67041">
        <ele>80</ele>
        <time>2021-02-20T10:46:26.000Z</time>
      </trkpt>
      <trkpt lat="47.1665" lon="-1.67061">
        <ele>80</ele>
        <time>2021-02-20T10:46:28.000Z</time>
      </trkpt>
      <trkpt lat="47.16645" lon="-1.6708">
        <ele>79</ele>
        <time>2021-02-20T10:46:30.000Z</time>
      </trkpt>
      <trkpt lat="47.16642" lon="-1.671">
        <ele>78</ele>
        <time>2021-02-20T10:46:32.000Z</time>
      </trkpt>
      <trkpt lat="47.16638" lon="-1.67118">
        <ele>78</ele>
        <time>2021-02-20T10:46:34.000Z</time>
      </trkpt>
      <trkpt lat="47.16634" lon="-1.67137">
        <ele>78</ele>
        <time>2021-02-20T10:46:36.000Z</time>
      </trkpt>
      <trkpt lat="47.16631" lon="-1.67155">
        <ele>78</ele>
        <time>2021-02-20T10:46:38.000Z</time>
      </trkpt>
      <trkpt lat="47.16627" lon="-1.67172">
        <ele>78</ele>
        <time>2021-02-20T10:46:40.000Z</time>
      </trkpt>
      <trkpt lat="47.16623" lon="-1.67191">
        <ele>78</ele>
        <time>2021-02-20T10:46:42.000Z</time>
      </trkpt>
      <trkpt lat="47.1662" lon="-1.67209">
        <ele>78</ele>
        <time>2021-02-20T10:46:44.000Z</time>
      </trkpt>
      <trkpt lat="47.16616" lon="-1.67225">
        <ele>78</ele>
        <time>2021-02-20T10:46:46.000Z</time>
      </trkpt>
      <trkpt lat="47.16614" lon="-1.6724">
        <ele>78</ele>
        <time>2021-02-20T10:46:48.000Z</time>
      </trkpt>
      <trkpt lat="47.16611" lon="-1.67255">
        <ele>78</ele>
        <time>2021-02-20T10:46:51.000Z</time>
      </trkpt>
      <trkpt lat="47.16608" lon="-1.67268">
        <ele>78</ele>
        <time>2021-02-20T10:46:55.000Z</time>
      </trkpt>
      <trkpt lat="47.16602" lon="-1.67282">
        <ele>78</ele>
        <time>2021-02-20T10:46:57.000Z</time>
      </trkpt>
      <trkpt lat="47.16595" lon="-1.67298">
        <ele>78</ele>
        <time>2021-02-20T10:46:59.000Z</time>
      </trkpt>
      <trkpt lat="47.16588" lon="-1.67314">
        <ele>78</ele>
        <time>2021-02-20T10:47:01.000Z</time>
      </trkpt>
      <trkpt lat="47.1658" lon="-1.6733">
        <ele>78</ele>
        <time>2021-02-20T10:47:03.000Z</time>
      </trkpt>
      <trkpt lat="47.16573" lon="-1.67346">
        <ele>78</ele>
        <time>2021-02-20T10:47:05.000Z</time>
      </trkpt>
      <trkpt lat="47.16565" lon="-1.67362">
        <ele>78</ele>
        <time>2021-02-20T10:47:07.000Z</time>
      </trkpt>
      <trkpt lat="47.16556" lon="-1.67375">
        <ele>78</ele>
        <time>2021-02-20T10:47:09.000Z</time>
      </trkpt>
      <trkpt lat="47.16547" lon="-1.6739">
        <ele>78</ele>
        <time>2021-02-20T10:47:11.000Z</time>
      </trkpt>
      <trkpt lat="47.16538" lon="-1.67403">
        <ele>78</ele>
        <time>2021-02-20T10:47:13.000Z</time>
      </trkpt>
      <trkpt lat="47.16528" lon="-1.67416">
        <ele>78</ele>
        <time>2021-02-20T10:47:15.000Z</time>
      </trkpt>
      <trkpt lat="47.1652" lon="-1.67428">
        <ele>78</ele>
        <time>2021-02-20T10:47:17.000Z</time>
      </trkpt>
      <trkpt lat="47.16512" lon="-1.67441">
        <ele>78</ele>
        <time>2021-02-20T10:47:19.000Z</time>
      </trkpt>
      <trkpt lat="47.16505" lon="-1.67455">
        <ele>77</ele>
        <time>2021-02-20T10:47:21.000Z</time>
      </trkpt>
      <trkpt lat="47.16497" lon="-1.67469">
        <ele>77</ele>
        <time>2021-02-20T10:47:23.000Z</time>
      </trkpt>
      <trkpt lat="47.16489" lon="-1.67483">
        <ele>78</ele>
        <time>2021-02-20T10:47:25.000Z</time>
      </trkpt>
      <trkpt lat="47.16481" lon="-1.67497">
        <ele>78</ele>
        <time>2021-02-20T10:47:27.000Z</time>
      </trkpt>
      <trkpt lat="47.16474" lon="-1.6751">
        <ele>78</ele>
        <time>2021-02-20T10:47:29.000Z</time>
      </trkpt>
      <trkpt lat="47.16466" lon="-1.67524">
        <ele>78</ele>
        <time>2021-02-20T10:47:31.000Z</time>
      </trkpt>
      <trkpt lat="47.16459" lon="-1.67537">
        <ele>78</ele>
        <time>2021-02-20T10:47:33.000Z</time>
      </trkpt>
      <trkpt lat="47.16452" lon="-1.6755">
        <ele>78</ele>
        <time>2021-02-20T10:47:35.000Z</time>
      </trkpt>
      <trkpt lat="47.16444" lon="-1.67564">
        <ele>78</ele>
        <time>2021-02-20T10:47:37.000Z</time>
      </trkpt>
      <trkpt lat="47.16437" lon="-1.67578">
        <ele>78</ele>
        <time>2021-02-20T10:47:39.000Z</time>
      </trkpt>
      <trkpt lat="47.1643" lon="-1.67593">
        <ele>78</ele>
        <time>2021-02-20T10:47:41.000Z</time>
      </trkpt>
      <trkpt lat="47.16423" lon="-1.67607">
        <ele>78</ele>
        <time>2021-02-20T10:47:43.000Z</time>
      </trkpt>
      <trkpt lat="47.16416" lon="-1.67622">
        <ele>78</ele>
        <time>2021-02-20T10:47:45.000Z</time>
      </trkpt>
      <trkpt lat="47.16409" lon="-1.67637">
        <ele>78</ele>
        <time>2021-02-20T10:47:47.000Z</time>
      </trkpt>
      <trkpt lat="47.16402" lon="-1.67652">
        <ele>78</ele>
        <time>2021-02-20T10:47:49.000Z</time>
      </trkpt>
      <trkpt lat="47.16395" lon="-1.67667">
        <ele>78</ele>
        <time>2021-02-20T10:47:51.000Z</time>
      </trkpt>
      <trkpt lat="47.16387" lon="-1.67683">
        <ele>78</ele>
        <time>2021-02-20T10:47:53.000Z</time>
      </trkpt>
      <trkpt lat="47.1638" lon="-1.67696">
        <ele>78</ele>
        <time>2021-02-20T10:47:55.000Z</time>
      </trkpt>
      <trkpt lat="47.16372" lon="-1.6771">
        <ele>78</ele>
        <time>2021-02-20T10:47:57.000Z</time>
      </trkpt>
      <trkpt lat="47.16364" lon="-1.67724">
        <ele>78</ele>
        <time>2021-02-20T10:47:59.000Z</time>
      </trkpt>
      <trkpt lat="47.16356" lon="-1.67738">
        <ele>78</ele>
        <time>2021-02-20T10:48:01.000Z</time>
      </trkpt>
      <trkpt lat="47.16349" lon="-1.67752">
        <ele>78</ele>
        <time>2021-02-20T10:48:03.000Z</time>
      </trkpt>
      <trkpt lat="47.16342" lon="-1.67766">
        <ele>78</ele>
        <time>2021-02-20T10:48:05.000Z</time>
      </trkpt>
      <trkpt lat="47.16335" lon="-1.67779">
        <ele>79</ele>
        <time>2021-02-20T10:48:07.000Z</time>
      </trkpt>
      <trkpt lat="47.16327" lon="-1.67793">
        <ele>79</ele>
        <time>2021-02-20T10:48:09.000Z</time>
      </trkpt>
      <trkpt lat="47.1632" lon="-1.67806">
        <ele>79</ele>
        <time>2021-02-20T10:48:11.000Z</time>
      </trkpt>
      <trkpt lat="47.16312" lon="-1.67819">
        <ele>79</ele>
        <time>2021-02-20T10:48:13.000Z</time>
      </trkpt>
      <trkpt lat="47.16305" lon="-1.67833">
        <ele>79</ele>
        <time>2021-02-20T10:48:15.000Z</time>
      </trkpt>
      <trkpt lat="47.16297" lon="-1.67846">
        <ele>79</ele>
        <time>2021-02-20T10:48:17.000Z</time>
      </trkpt>
      <trkpt lat="47.16289" lon="-1.67859">
        <ele>79</ele>
        <time>2021-02-20T10:48:19.000Z</time>
      </trkpt>
      <trkpt lat="47.16281" lon="-1.67873">
        <ele>79</ele>
        <time>2021-02-20T10:48:21.000Z</time>
      </trkpt>
      <trkpt lat="47.16274" lon="-1.67886">
        <ele>79</ele>
        <time>2021-02-20T10:48:23.000Z</time>
      </trkpt>
      <trkpt lat="47.16267" lon="-1.67899">
        <ele>79</ele>
        <time>2021-02-20T10:48:25.000Z</time>
      </trkpt>
      <trkpt lat="47.1626" lon="-1.67912">
        <ele>80</ele>
        <time>2021-02-20T10:48:27.000Z</time>
      </trkpt>
      <trkpt lat="47.16252" lon="-1.67927">
        <ele>80</ele>
        <time>2021-02-20T10:48:29.000Z</time>
      </trkpt>
      <trkpt lat="47.16244" lon="-1.67939">
        <ele>80</ele>
        <time>2021-02-20T10:48:31.000Z</time>
      </trkpt>
      <trkpt lat="47.16236" lon="-1.67952">
        <ele>80</ele>
        <time>2021-02-20T10:48:33.000Z</time>
      </trkpt>
      <trkpt lat="47.16229" lon="-1.67965">
        <ele>80</ele>
        <time>2021-02-20T10:48:35.000Z</time>
      </trkpt>
      <trkpt lat="47.16224" lon="-1.6798">
        <ele>79</ele>
        <time>2021-02-20T10:48:37.000Z</time>
      </trkpt>
      <trkpt lat="47.16216" lon="-1.67993">
        <ele>78</ele>
        <time>2021-02-20T10:48:39.000Z</time>
      </trkpt>
      <trkpt lat="47.16205" lon="-1.67999">
        <ele>78</ele>
        <time>2021-02-20T10:48:41.000Z</time>
      </trkpt>
      <trkpt lat="47.16195" lon="-1.68007">
        <ele>77</ele>
        <time>2021-02-20T10:48:43.000Z</time>
      </trkpt>
      <trkpt lat="47.16187" lon="-1.6802">
        <ele>77</ele>
        <time>2021-02-20T10:48:45.000Z</time>
      </trkpt>
      <trkpt lat="47.16179" lon="-1.68032">
        <ele>77</ele>
        <time>2021-02-20T10:48:47.000Z</time>
      </trkpt>
      <trkpt lat="47.16172" lon="-1.68043">
        <ele>78</ele>
        <time>2021-02-20T10:48:49.000Z</time>
      </trkpt>
      <trkpt lat="47.16164" lon="-1.68055">
        <ele>78</ele>
        <time>2021-02-20T10:48:51.000Z</time>
      </trkpt>
      <trkpt lat="47.16156" lon="-1.68067">
        <ele>78</ele>
        <time>2021-02-20T10:48:53.000Z</time>
      </trkpt>
      <trkpt lat="47.16149" lon="-1.68081">
        <ele>78</ele>
        <time>2021-02-20T10:48:55.000Z</time>
      </trkpt>
      <trkpt lat="47.16144" lon="-1.68096">
        <ele>78</ele>
        <time>2021-02-20T10:48:57.000Z</time>
      </trkpt>
      <trkpt lat="47.1614" lon="-1.68113">
        <ele>78</ele>
        <time>2021-02-20T10:48:59.000Z</time>
      </trkpt>
      <trkpt lat="47.16136" lon="-1.6813">
        <ele>78</ele>
        <time>2021-02-20T10:49:01.000Z</time>
      </trkpt>
      <trkpt lat="47.16132" lon="-1.68147">
        <ele>78</ele>
        <time>2021-02-20T10:49:03.000Z</time>
      </trkpt>
      <trkpt lat="47.16129" lon="-1.68164">
        <ele>78</ele>
        <time>2021-02-20T10:49:05.000Z</time>
      </trkpt>
      <trkpt lat="47.16126" lon="-1.68181">
        <ele>79</ele>
        <time>2021-02-20T10:49:07.000Z</time>
      </trkpt>
      <trkpt lat="47.16123" lon="-1.68199">
        <ele>79</ele>
        <time>2021-02-20T10:49:09.000Z</time>
      </trkpt>
      <trkpt lat="47.16119" lon="-1.68217">
        <ele>80</ele>
        <time>2021-02-20T10:49:11.000Z</time>
      </trkpt>
      <trkpt lat="47.16115" lon="-1.68236">
        <ele>81</ele>
        <time>2021-02-20T10:49:13.000Z</time>
      </trkpt>
      <trkpt lat="47.16111" lon="-1.68255">
        <ele>81</ele>
        <time>2021-02-20T10:49:15.000Z</time>
      </trkpt>
      <trkpt lat="47.16108" lon="-1.68273">
        <ele>80</ele>
        <time>2021-02-20T10:49:17.000Z</time>
      </trkpt>
      <trkpt lat="47.16103" lon="-1.68295">
        <ele>79</ele>
        <time>2021-02-20T10:49:19.000Z</time>
      </trkpt>
      <trkpt lat="47.16098" lon="-1.68317">
        <ele>79</ele>
        <time>2021-02-20T10:49:21.000Z</time>
      </trkpt>
      <trkpt lat="47.16094" lon="-1.68338">
        <ele>79</ele>
        <time>2021-02-20T10:49:23.000Z</time>
      </trkpt>
      <trkpt lat="47.16091" lon="-1.68359">
        <ele>78</ele>
        <time>2021-02-20T10:49:25.000Z</time>
      </trkpt>
      <trkpt lat="47.16087" lon="-1.68378">
        <ele>78</ele>
        <time>2021-02-20T10:49:27.000Z</time>
      </trkpt>
      <trkpt lat="47.16083" lon="-1.68398">
        <ele>78</ele>
        <time>2021-02-20T10:49:29.000Z</time>
      </trkpt>
      <trkpt lat="47.16079" lon="-1.68417">
        <ele>78</ele>
        <time>2021-02-20T10:49:31.000Z</time>
      </trkpt>
      <trkpt lat="47.16075" lon="-1.68436">
        <ele>77</ele>
        <time>2021-02-20T10:49:33.000Z</time>
      </trkpt>
      <trkpt lat="47.1607" lon="-1.68456">
        <ele>77</ele>
        <time>2021-02-20T10:49:35.000Z</time>
      </trkpt>
      <trkpt lat="47.16066" lon="-1.68475">
        <ele>76</ele>
        <time>2021-02-20T10:49:37.000Z</time>
      </trkpt>
      <trkpt lat="47.16064" lon="-1.68494">
        <ele>76</ele>
        <time>2021-02-20T10:49:39.000Z</time>
      </trkpt>
      <trkpt lat="47.1606" lon="-1.68513">
        <ele>75</ele>
        <time>2021-02-20T10:49:41.000Z</time>
      </trkpt>
      <trkpt lat="47.16058" lon="-1.68533">
        <ele>75</ele>
        <time>2021-02-20T10:49:43.000Z</time>
      </trkpt>
      <trkpt lat="47.16055" lon="-1.68552">
        <ele>75</ele>
        <time>2021-02-20T10:49:45.000Z</time>
      </trkpt>
      <trkpt lat="47.16052" lon="-1.68571">
        <ele>75</ele>
        <time>2021-02-20T10:49:47.000Z</time>
      </trkpt>
      <trkpt lat="47.16049" lon="-1.68591">
        <ele>75</ele>
        <time>2021-02-20T10:49:49.000Z</time>
      </trkpt>
      <trkpt lat="47.16047" lon="-1.68611">
        <ele>74</ele>
        <time>2021-02-20T10:49:51.000Z</time>
      </trkpt>
      <trkpt lat="47.16046" lon="-1.68631">
        <ele>74</ele>
        <time>2021-02-20T10:49:53.000Z</time>
      </trkpt>
      <trkpt lat="47.16045" lon="-1.68651">
        <ele>74</ele>
        <time>2021-02-20T10:49:55.000Z</time>
      </trkpt>
      <trkpt lat="47.16044" lon="-1.68671">
        <ele>74</ele>
        <time>2021-02-20T10:49:57.000Z</time>
      </trkpt>
      <trkpt lat="47.16045" lon="-1.68691">
        <ele>74</ele>
        <time>2021-02-20T10:49:59.000Z</time>
      </trkpt>
      <trkpt lat="47.16047" lon="-1.6871">
        <ele>74</ele>
        <time>2021-02-20T10:50:01.000Z</time>
      </trkpt>
      <trkpt lat="47.16049" lon="-1.6873">
        <ele>74</ele>
        <time>2021-02-20T10:50:03.000Z</time>
      </trkpt>
      <trkpt lat="47.16052" lon="-1.68748">
        <ele>74</ele>
        <time>2021-02-20T10:50:05.000Z</time>
      </trkpt>
      <trkpt lat="47.16056" lon="-1.68767">
        <ele>75</ele>
        <time>2021-02-20T10:50:07.000Z</time>
      </trkpt>
      <trkpt lat="47.16061" lon="-1.68785">
        <ele>75</ele>
        <time>2021-02-20T10:50:09.000Z</time>
      </trkpt>
      <trkpt lat="47.16065" lon="-1.68802">
        <ele>75</ele>
        <time>2021-02-20T10:50:11.000Z</time>
      </trkpt>
      <trkpt lat="47.1607" lon="-1.6882">
        <ele>75</ele>
        <time>2021-02-20T10:50:13.000Z</time>
      </trkpt>
      <trkpt lat="47.16076" lon="-1.68836">
        <ele>76</ele>
        <time>2021-02-20T10:50:15.000Z</time>
      </trkpt>
      <trkpt lat="47.16081" lon="-1.68853">
        <ele>76</ele>
        <time>2021-02-20T10:50:17.000Z</time>
      </trkpt>
      <trkpt lat="47.16086" lon="-1.6887">
        <ele>76</ele>
        <time>2021-02-20T10:50:19.000Z</time>
      </trkpt>
      <trkpt lat="47.16091" lon="-1.68888">
        <ele>76</ele>
        <time>2021-02-20T10:50:21.000Z</time>
      </trkpt>
      <trkpt lat="47.16096" lon="-1.68906">
        <ele>76</ele>
        <time>2021-02-20T10:50:23.000Z</time>
      </trkpt>
      <trkpt lat="47.16101" lon="-1.68925">
        <ele>75</ele>
        <time>2021-02-20T10:50:25.000Z</time>
      </trkpt>
      <trkpt lat="47.16107" lon="-1.68945">
        <ele>75</ele>
        <time>2021-02-20T10:50:27.000Z</time>
      </trkpt>
      <trkpt lat="47.16113" lon="-1.68964">
        <ele>74</ele>
        <time>2021-02-20T10:50:29.000Z</time>
      </trkpt>
      <trkpt lat="47.16119" lon="-1.68985">
        <ele>74</ele>
        <time>2021-02-20T10:50:31.000Z</time>
      </trkpt>
      <trkpt lat="47.16125" lon="-1.69006">
        <ele>73</ele>
        <time>2021-02-20T10:50:33.000Z</time>
      </trkpt>
      <trkpt lat="47.16131" lon="-1.69028">
        <ele>73</ele>
        <time>2021-02-20T10:50:35.000Z</time>
      </trkpt>
      <trkpt lat="47.16135" lon="-1.69051">
        <ele>73</ele>
        <time>2021-02-20T10:50:37.000Z</time>
      </trkpt>
      <trkpt lat="47.16139" lon="-1.69075">
        <ele>72</ele>
        <time>2021-02-20T10:50:39.000Z</time>
      </trkpt>
      <trkpt lat="47.16142" lon="-1.69099">
        <ele>72</ele>
        <time>2021-02-20T10:50:41.000Z</time>
      </trkpt>
      <trkpt lat="47.16144" lon="-1.69123">
        <ele>71</ele>
        <time>2021-02-20T10:50:43.000Z</time>
      </trkpt>
      <trkpt lat="47.16145" lon="-1.69146">
        <ele>71</ele>
        <time>2021-02-20T10:50:45.000Z</time>
      </trkpt>
      <trkpt lat="47.16145" lon="-1.69169">
        <ele>72</ele>
        <time>2021-02-20T10:50:47.000Z</time>
      </trkpt>
      <trkpt lat="47.16144" lon="-1.69192">
        <ele>72</ele>
        <time>2021-02-20T10:50:49.000Z</time>
      </trkpt>
      <trkpt lat="47.16143" lon="-1.69215">
        <ele>71</ele>
        <time>2021-02-20T10:50:51.000Z</time>
      </trkpt>
      <trkpt lat="47.16141" lon="-1.69238">
        <ele>71</ele>
        <time>2021-02-20T10:50:53.000Z</time>
      </trkpt>
      <trkpt lat="47.16139" lon="-1.69261">
        <ele>71</ele>
        <time>2021-02-20T10:50:55.000Z</time>
      </trkpt>
      <trkpt lat="47.16137" lon="-1.69283">
        <ele>71</ele>
        <time>2021-02-20T10:50:57.000Z</time>
      </trkpt>
      <trkpt lat="47.16133" lon="-1.69305">
        <ele>71</ele>
        <time>2021-02-20T10:50:59.000Z</time>
      </trkpt>
      <trkpt lat="47.1613" lon="-1.69325">
        <ele>71</ele>
        <time>2021-02-20T10:51:01.000Z</time>
      </trkpt>
      <trkpt lat="47.16127" lon="-1.69345">
        <ele>72</ele>
        <time>2021-02-20T10:51:03.000Z</time>
      </trkpt>
      <trkpt lat="47.16124" lon="-1.69366">
        <ele>72</ele>
        <time>2021-02-20T10:51:05.000Z</time>
      </trkpt>
      <trkpt lat="47.16122" lon="-1.69386">
        <ele>72</ele>
        <time>2021-02-20T10:51:07.000Z</time>
      </trkpt>
      <trkpt lat="47.1612" lon="-1.69406">
        <ele>72</ele>
        <time>2021-02-20T10:51:09.000Z</time>
      </trkpt>
      <trkpt lat="47.16119" lon="-1.69427">
        <ele>72</ele>
        <time>2021-02-20T10:51:11.000Z</time>
      </trkpt>
      <trkpt lat="47.16117" lon="-1.69447">
        <ele>72</ele>
        <time>2021-02-20T10:51:13.000Z</time>
      </trkpt>
      <trkpt lat="47.16115" lon="-1.69467">
        <ele>73</ele>
        <time>2021-02-20T10:51:15.000Z</time>
      </trkpt>
      <trkpt lat="47.16114" lon="-1.69486">
        <ele>73</ele>
        <time>2021-02-20T10:51:17.000Z</time>
      </trkpt>
      <trkpt lat="47.16113" lon="-1.69506">
        <ele>73</ele>
        <time>2021-02-20T10:51:19.000Z</time>
      </trkpt>
      <trkpt lat="47.16111" lon="-1.69525">
        <ele>73</ele>
        <time>2021-02-20T10:51:21.000Z</time>
      </trkpt>
      <trkpt lat="47.1611" lon="-1.69545">
        <ele>74</ele>
        <time>2021-02-20T10:51:23.000Z</time>
      </trkpt>
      <trkpt lat="47.16109" lon="-1.69565">
        <ele>74</ele>
        <time>2021-02-20T10:51:25.000Z</time>
      </trkpt>
      <trkpt lat="47.16107" lon="-1.69584">
        <ele>74</ele>
        <time>2021-02-20T10:51:27.000Z</time>
      </trkpt>
      <trkpt lat="47.16106" lon="-1.69605">
        <ele>74</ele>
        <time>2021-02-20T10:51:29.000Z</time>
      </trkpt>
      <trkpt lat="47.16105" lon="-1.69625">
        <ele>74</ele>
        <time>2021-02-20T10:51:31.000Z</time>
      </trkpt>
      <trkpt lat="47.16104" lon="-1.69645">
        <ele>75</ele>
        <time>2021-02-20T10:51:33.000Z</time>
      </trkpt>
      <trkpt lat="47.16102" lon="-1.69665">
        <ele>75</ele>
        <time>2021-02-20T10:51:35.000Z</time>
      </trkpt>
      <trkpt lat="47.16101" lon="-1.69685">
        <ele>75</ele>
        <time>2021-02-20T10:51:37.000Z</time>
      </trkpt>
      <trkpt lat="47.16099" lon="-1.69705">
        <ele>75</ele>
        <time>2021-02-20T10:51:39.000Z</time>
      </trkpt>
      <trkpt lat="47.16098" lon="-1.69725">
        <ele>75</ele>
        <time>2021-02-20T10:51:41.000Z</time>
      </trkpt>
      <trkpt lat="47.16097" lon="-1.69745">
        <ele>76</ele>
        <time>2021-02-20T10:51:43.000Z</time>
      </trkpt>
      <trkpt lat="47.16095" lon="-1.69766">
        <ele>76</ele>
        <time>2021-02-20T10:51:45.000Z</time>
      </trkpt>
      <trkpt lat="47.16093" lon="-1.69786">
        <ele>76</ele>
        <time>2021-02-20T10:51:47.000Z</time>
      </trkpt>
      <trkpt lat="47.16092" lon="-1.69807">
        <ele>76</ele>
        <time>2021-02-20T10:51:49.000Z</time>
      </trkpt>
      <trkpt lat="47.16091" lon="-1.69828">
        <ele>76</ele>
        <time>2021-02-20T10:51:51.000Z</time>
      </trkpt>
      <trkpt lat="47.16089" lon="-1.69849">
        <ele>76</ele>
        <time>2021-02-20T10:51:53.000Z</time>
      </trkpt>
      <trkpt lat="47.16088" lon="-1.69869">
        <ele>77</ele>
        <time>2021-02-20T10:51:55.000Z</time>
      </trkpt>
      <trkpt lat="47.16086" lon="-1.6989">
        <ele>77</ele>
        <time>2021-02-20T10:51:57.000Z</time>
      </trkpt>
      <trkpt lat="47.16085" lon="-1.69911">
        <ele>76</ele>
        <time>2021-02-20T10:51:59.000Z</time>
      </trkpt>
      <trkpt lat="47.16084" lon="-1.69932">
        <ele>76</ele>
        <time>2021-02-20T10:52:01.000Z</time>
      </trkpt>
      <trkpt lat="47.16082" lon="-1.69952">
        <ele>77</ele>
        <time>2021-02-20T10:52:03.000Z</time>
      </trkpt>
      <trkpt lat="47.16082" lon="-1.69974">
        <ele>77</ele>
        <time>2021-02-20T10:52:05.000Z</time>
      </trkpt>
      <trkpt lat="47.1608" lon="-1.69995">
        <ele>77</ele>
        <time>2021-02-20T10:52:07.000Z</time>
      </trkpt>
      <trkpt lat="47.16079" lon="-1.70017">
        <ele>76</ele>
        <time>2021-02-20T10:52:09.000Z</time>
      </trkpt>
      <trkpt lat="47.16077" lon="-1.70038">
        <ele>76</ele>
        <time>2021-02-20T10:52:11.000Z</time>
      </trkpt>
      <trkpt lat="47.16076" lon="-1.70059">
        <ele>76</ele>
        <time>2021-02-20T10:52:13.000Z</time>
      </trkpt>
      <trkpt lat="47.16074" lon="-1.7008">
        <ele>77</ele>
        <time>2021-02-20T10:52:15.000Z</time>
      </trkpt>
      <trkpt lat="47.16071" lon="-1.70101">
        <ele>76</ele>
        <time>2021-02-20T10:52:17.000Z</time>
      </trkpt>
      <trkpt lat="47.16068" lon="-1.7012">
        <ele>76</ele>
        <time>2021-02-20T10:52:19.000Z</time>
      </trkpt>
      <trkpt lat="47.16064" lon="-1.70139">
        <ele>77</ele>
        <time>2021-02-20T10:52:21.000Z</time>
      </trkpt>
      <trkpt lat="47.16057" lon="-1.70156">
        <ele>77</ele>
        <time>2021-02-20T10:52:23.000Z</time>
      </trkpt>
      <trkpt lat="47.16051" lon="-1.70173">
        <ele>77</ele>
        <time>2021-02-20T10:52:25.000Z</time>
      </trkpt>
      <trkpt lat="47.16044" lon="-1.7019">
        <ele>78</ele>
        <time>2021-02-20T10:52:27.000Z</time>
      </trkpt>
      <trkpt lat="47.16037" lon="-1.70207">
        <ele>77</ele>
        <time>2021-02-20T10:52:29.000Z</time>
      </trkpt>
      <trkpt lat="47.16029" lon="-1.70223">
        <ele>77</ele>
        <time>2021-02-20T10:52:31.000Z</time>
      </trkpt>
      <trkpt lat="47.16021" lon="-1.70239">
        <ele>77</ele>
        <time>2021-02-20T10:52:33.000Z</time>
      </trkpt>
      <trkpt lat="47.16013" lon="-1.70256">
        <ele>77</ele>
        <time>2021-02-20T10:52:35.000Z</time>
      </trkpt>
      <trkpt lat="47.16005" lon="-1.70273">
        <ele>78</ele>
        <time>2021-02-20T10:52:37.000Z</time>
      </trkpt>
      <trkpt lat="47.15997" lon="-1.70289">
        <ele>78</ele>
        <time>2021-02-20T10:52:39.000Z</time>
      </trkpt>
      <trkpt lat="47.15991" lon="-1.70306">
        <ele>77</ele>
        <time>2021-02-20T10:52:41.000Z</time>
      </trkpt>
      <trkpt lat="47.15984" lon="-1.70324">
        <ele>77</ele>
        <time>2021-02-20T10:52:43.000Z</time>
      </trkpt>
      <trkpt lat="47.15976" lon="-1.70341">
        <ele>77</ele>
        <time>2021-02-20T10:52:45.000Z</time>
      </trkpt>
      <trkpt lat="47.15968" lon="-1.70359">
        <ele>76</ele>
        <time>2021-02-20T10:52:47.000Z</time>
      </trkpt>
      <trkpt lat="47.1596" lon="-1.70376">
        <ele>76</ele>
        <time>2021-02-20T10:52:49.000Z</time>
      </trkpt>
      <trkpt lat="47.15953" lon="-1.70395">
        <ele>76</ele>
        <time>2021-02-20T10:52:51.000Z</time>
      </trkpt>
      <trkpt lat="47.15945" lon="-1.70413">
        <ele>76</ele>
        <time>2021-02-20T10:52:53.000Z</time>
      </trkpt>
      <trkpt lat="47.15938" lon="-1.7043">
        <ele>76</ele>
        <time>2021-02-20T10:52:55.000Z</time>
      </trkpt>
      <trkpt lat="47.1593" lon="-1.70447">
        <ele>76</ele>
        <time>2021-02-20T10:52:57.000Z</time>
      </trkpt>
      <trkpt lat="47.15922" lon="-1.70464">
        <ele>76</ele>
        <time>2021-02-20T10:52:59.000Z</time>
      </trkpt>
      <trkpt lat="47.15913" lon="-1.70481">
        <ele>75</ele>
        <time>2021-02-20T10:53:01.000Z</time>
      </trkpt>
      <trkpt lat="47.15904" lon="-1.70498">
        <ele>75</ele>
        <time>2021-02-20T10:53:03.000Z</time>
      </trkpt>
      <trkpt lat="47.15896" lon="-1.70515">
        <ele>74</ele>
        <time>2021-02-20T10:53:05.000Z</time>
      </trkpt>
      <trkpt lat="47.1589" lon="-1.70534">
        <ele>74</ele>
        <time>2021-02-20T10:53:07.000Z</time>
      </trkpt>
      <trkpt lat="47.15885" lon="-1.70551">
        <ele>74</ele>
        <time>2021-02-20T10:53:09.000Z</time>
      </trkpt>
      <trkpt lat="47.1588" lon="-1.70569">
        <ele>74</ele>
        <time>2021-02-20T10:53:11.000Z</time>
      </trkpt>
      <trkpt lat="47.15875" lon="-1.70587">
        <ele>73</ele>
        <time>2021-02-20T10:53:13.000Z</time>
      </trkpt>
      <trkpt lat="47.1587" lon="-1.70605">
        <ele>73</ele>
        <time>2021-02-20T10:53:15.000Z</time>
      </trkpt>
      <trkpt lat="47.15865" lon="-1.70623">
        <ele>73</ele>
        <time>2021-02-20T10:53:17.000Z</time>
      </trkpt>
      <trkpt lat="47.1586" lon="-1.7064">
        <ele>74</ele>
        <time>2021-02-20T10:53:19.000Z</time>
      </trkpt>
      <trkpt lat="47.15853" lon="-1.70658">
        <ele>74</ele>
        <time>2021-02-20T10:53:21.000Z</time>
      </trkpt>
      <trkpt lat="47.15846" lon="-1.70675">
        <ele>74</ele>
        <time>2021-02-20T10:53:23.000Z</time>
      </trkpt>
      <trkpt lat="47.1584" lon="-1.70691">
        <ele>74</ele>
        <time>2021-02-20T10:53:25.000Z</time>
      </trkpt>
      <trkpt lat="47.15833" lon="-1.70707">
        <ele>75</ele>
        <time>2021-02-20T10:53:27.000Z</time>
      </trkpt>
      <trkpt lat="47.15825" lon="-1.70723">
        <ele>75</ele>
        <time>2021-02-20T10:53:29.000Z</time>
      </trkpt>
      <trkpt lat="47.15818" lon="-1.70738">
        <ele>75</ele>
        <time>2021-02-20T10:53:31.000Z</time>
      </trkpt>
      <trkpt lat="47.1581" lon="-1.70754">
        <ele>75</ele>
        <time>2021-02-20T10:53:33.000Z</time>
      </trkpt>
      <trkpt lat="47.15804" lon="-1.70769">
        <ele>75</ele>
        <time>2021-02-20T10:53:35.000Z</time>
      </trkpt>
      <trkpt lat="47.15797" lon="-1.70785">
        <ele>75</ele>
        <time>2021-02-20T10:53:37.000Z</time>
      </trkpt>
      <trkpt lat="47.1579" lon="-1.708">
        <ele>75</ele>
        <time>2021-02-20T10:53:39.000Z</time>
      </trkpt>
      <trkpt lat="47.15782" lon="-1.70815">
        <ele>75</ele>
        <time>2021-02-20T10:53:41.000Z</time>
      </trkpt>
      <trkpt lat="47.15774" lon="-1.70831">
        <ele>75</ele>
        <time>2021-02-20T10:53:43.000Z</time>
      </trkpt>
      <trkpt lat="47.15766" lon="-1.70846">
        <ele>75</ele>
        <time>2021-02-20T10:53:45.000Z</time>
      </trkpt>
      <trkpt lat="47.15758" lon="-1.70861">
        <ele>75</ele>
        <time>2021-02-20T10:53:47.000Z</time>
      </trkpt>
      <trkpt lat="47.1575" lon="-1.70876">
        <ele>75</ele>
        <time>2021-02-20T10:53:49.000Z</time>
      </trkpt>
      <trkpt lat="47.15742" lon="-1.7089">
        <ele>75</ele>
        <time>2021-02-20T10:53:51.000Z</time>
      </trkpt>
      <trkpt lat="47.15734" lon="-1.70905">
        <ele>75</ele>
        <time>2021-02-20T10:53:53.000Z</time>
      </trkpt>
      <trkpt lat="47.15726" lon="-1.70919">
        <ele>75</ele>
        <time>2021-02-20T10:53:55.000Z</time>
      </trkpt>
      <trkpt lat="47.15718" lon="-1.70933">
        <ele>75</ele>
        <time>2021-02-20T10:53:57.000Z</time>
      </trkpt>
      <trkpt lat="47.1571" lon="-1.70948">
        <ele>75</ele>
        <time>2021-02-20T10:53:59.000Z</time>
      </trkpt>
      <trkpt lat="47.15703" lon="-1.70963">
        <ele>75</ele>
        <time>2021-02-20T10:54:01.000Z</time>
      </trkpt>
      <trkpt lat="47.15696" lon="-1.70978">
        <ele>75</ele>
        <time>2021-02-20T10:54:03.000Z</time>
      </trkpt>
      <trkpt lat="47.15689" lon="-1.70994">
        <ele>75</ele>
        <time>2021-02-20T10:54:05.000Z</time>
      </trkpt>
      <trkpt lat="47.15682" lon="-1.71009">
        <ele>76</ele>
        <time>2021-02-20T10:54:07.000Z</time>
      </trkpt>
      <trkpt lat="47.15676" lon="-1.71023">
        <ele>75</ele>
        <time>2021-02-20T10:54:09.000Z</time>
      </trkpt>
      <trkpt lat="47.15669" lon="-1.71037">
        <ele>75</ele>
        <time>2021-02-20T10:54:11.000Z</time>
      </trkpt>
      <trkpt lat="47.15664" lon="-1.71049">
        <ele>75</ele>
        <time>2021-02-20T10:54:13.000Z</time>
      </trkpt>
      <trkpt lat="47.15657" lon="-1.71064">
        <ele>75</ele>
        <time>2021-02-20T10:54:16.000Z</time>
      </trkpt>
      <trkpt lat="47.15647" lon="-1.7107">
        <ele>75</ele>
        <time>2021-02-20T10:54:18.000Z</time>
      </trkpt>
      <trkpt lat="47.15636" lon="-1.71077">
        <ele>75</ele>
        <time>2021-02-20T10:54:20.000Z</time>
      </trkpt>
      <trkpt lat="47.15627" lon="-1.71091">
        <ele>75</ele>
        <time>2021-02-20T10:54:22.000Z</time>
      </trkpt>
      <trkpt lat="47.15619" lon="-1.71106">
        <ele>76</ele>
        <time>2021-02-20T10:54:24.000Z</time>
      </trkpt>
      <trkpt lat="47.15612" lon="-1.71121">
        <ele>76</ele>
        <time>2021-02-20T10:54:26.000Z</time>
      </trkpt>
      <trkpt lat="47.15603" lon="-1.71135">
        <ele>76</ele>
        <time>2021-02-20T10:54:28.000Z</time>
      </trkpt>
      <trkpt lat="47.15595" lon="-1.7115">
        <ele>76</ele>
        <time>2021-02-20T10:54:30.000Z</time>
      </trkpt>
      <trkpt lat="47.15587" lon="-1.71163">
        <ele>76</ele>
        <time>2021-02-20T10:54:32.000Z</time>
      </trkpt>
      <trkpt lat="47.15579" lon="-1.71177">
        <ele>76</ele>
        <time>2021-02-20T10:54:34.000Z</time>
      </trkpt>
      <trkpt lat="47.15571" lon="-1.71191">
        <ele>75</ele>
        <time>2021-02-20T10:54:36.000Z</time>
      </trkpt>
      <trkpt lat="47.15563" lon="-1.71205">
        <ele>75</ele>
        <time>2021-02-20T10:54:38.000Z</time>
      </trkpt>
      <trkpt lat="47.15556" lon="-1.71219">
        <ele>76</ele>
        <time>2021-02-20T10:54:40.000Z</time>
      </trkpt>
      <trkpt lat="47.15548" lon="-1.71235">
        <ele>75</ele>
        <time>2021-02-20T10:54:42.000Z</time>
      </trkpt>
      <trkpt lat="47.15542" lon="-1.7125">
        <ele>75</ele>
        <time>2021-02-20T10:54:44.000Z</time>
      </trkpt>
      <trkpt lat="47.15536" lon="-1.71265">
        <ele>75</ele>
        <time>2021-02-20T10:54:46.000Z</time>
      </trkpt>
      <trkpt lat="47.1553" lon="-1.71281">
        <ele>75</ele>
        <time>2021-02-20T10:54:48.000Z</time>
      </trkpt>
      <trkpt lat="47.15523" lon="-1.71296">
        <ele>75</ele>
        <time>2021-02-20T10:54:50.000Z</time>
      </trkpt>
      <trkpt lat="47.15515" lon="-1.71311">
        <ele>75</ele>
        <time>2021-02-20T10:54:52.000Z</time>
      </trkpt>
      <trkpt lat="47.15507" lon="-1.71326">
        <ele>75</ele>
        <time>2021-02-20T10:54:54.000Z</time>
      </trkpt>
      <trkpt lat="47.15499" lon="-1.71341">
        <ele>75</ele>
        <time>2021-02-20T10:54:56.000Z</time>
      </trkpt>
      <trkpt lat="47.1549" lon="-1.71355">
        <ele>75</ele>
        <time>2021-02-20T10:54:58.000Z</time>
      </trkpt>
      <trkpt lat="47.15481" lon="-1.71368">
        <ele>75</ele>
        <time>2021-02-20T10:55:00.000Z</time>
      </trkpt>
      <trkpt lat="47.15472" lon="-1.71381">
        <ele>75</ele>
        <time>2021-02-20T10:55:02.000Z</time>
      </trkpt>
      <trkpt lat="47.15462" lon="-1.71393">
        <ele>75</ele>
        <time>2021-02-20T10:55:04.000Z</time>
      </trkpt>
      <trkpt lat="47.15451" lon="-1.71402">
        <ele>75</ele>
        <time>2021-02-20T10:55:06.000Z</time>
      </trkpt>
      <trkpt lat="47.15442" lon="-1.71412">
        <ele>75</ele>
        <time>2021-02-20T10:55:08.000Z</time>
      </trkpt>
      <trkpt lat="47.15432" lon="-1.71422">
        <ele>74</ele>
        <time>2021-02-20T10:55:10.000Z</time>
      </trkpt>
      <trkpt lat="47.15423" lon="-1.71431">
        <ele>75</ele>
        <time>2021-02-20T10:55:12.000Z</time>
      </trkpt>
      <trkpt lat="47.15413" lon="-1.71441">
        <ele>74</ele>
        <time>2021-02-20T10:55:14.000Z</time>
      </trkpt>
      <trkpt lat="47.15402" lon="-1.7145">
        <ele>74</ele>
        <time>2021-02-20T10:55:16.000Z</time>
      </trkpt>
      <trkpt lat="47.15391" lon="-1.71459">
        <ele>74</ele>
        <time>2021-02-20T10:55:18.000Z</time>
      </trkpt>
      <trkpt lat="47.1538" lon="-1.71468">
        <ele>74</ele>
        <time>2021-02-20T10:55:20.000Z</time>
      </trkpt>
      <trkpt lat="47.15369" lon="-1.71478">
        <ele>74</ele>
        <time>2021-02-20T10:55:22.000Z</time>
      </trkpt>
      <trkpt lat="47.15359" lon="-1.71489">
        <ele>73</ele>
        <time>2021-02-20T10:55:24.000Z</time>
      </trkpt>
      <trkpt lat="47.15349" lon="-1.71499">
        <ele>73</ele>
        <time>2021-02-20T10:55:26.000Z</time>
      </trkpt>
      <trkpt lat="47.15339" lon="-1.7151">
        <ele>73</ele>
        <time>2021-02-20T10:55:28.000Z</time>
      </trkpt>
      <trkpt lat="47.15329" lon="-1.71521">
        <ele>73</ele>
        <time>2021-02-20T10:55:30.000Z</time>
      </trkpt>
      <trkpt lat="47.15318" lon="-1.71533">
        <ele>73</ele>
        <time>2021-02-20T10:55:32.000Z</time>
      </trkpt>
      <trkpt lat="47.15308" lon="-1.71544">
        <ele>73</ele>
        <time>2021-02-20T10:55:34.000Z</time>
      </trkpt>
      <trkpt lat="47.15298" lon="-1.71555">
        <ele>72</ele>
        <time>2021-02-20T10:55:36.000Z</time>
      </trkpt>
      <trkpt lat="47.15287" lon="-1.71566">
        <ele>73</ele>
        <time>2021-02-20T10:55:38.000Z</time>
      </trkpt>
      <trkpt lat="47.15277" lon="-1.71578">
        <ele>72</ele>
        <time>2021-02-20T10:55:40.000Z</time>
      </trkpt>
      <trkpt lat="47.15267" lon="-1.7159">
        <ele>72</ele>
        <time>2021-02-20T10:55:42.000Z</time>
      </trkpt>
      <trkpt lat="47.15257" lon="-1.71601">
        <ele>72</ele>
        <time>2021-02-20T10:55:44.000Z</time>
      </trkpt>
      <trkpt lat="47.15248" lon="-1.71614">
        <ele>71</ele>
        <time>2021-02-20T10:55:46.000Z</time>
      </trkpt>
      <trkpt lat="47.15238" lon="-1.71624">
        <ele>71</ele>
        <time>2021-02-20T10:55:48.000Z</time>
      </trkpt>
      <trkpt lat="47.15226" lon="-1.7162">
        <ele>72</ele>
        <time>2021-02-20T10:55:50.000Z</time>
      </trkpt>
      <trkpt lat="47.15215" lon="-1.71612">
        <ele>72</ele>
        <time>2021-02-20T10:55:52.000Z</time>
      </trkpt>
      <trkpt lat="47.15204" lon="-1.71605">
        <ele>72</ele>
        <time>2021-02-20T10:55:54.000Z</time>
      </trkpt>
      <trkpt lat="47.15193" lon="-1.71597">
        <ele>72</ele>
        <time>2021-02-20T10:55:56.000Z</time>
      </trkpt>
      <trkpt lat="47.15181" lon="-1.71589">
        <ele>72</ele>
        <time>2021-02-20T10:55:58.000Z</time>
      </trkpt>
      <trkpt lat="47.1517" lon="-1.7158">
        <ele>72</ele>
        <time>2021-02-20T10:56:00.000Z</time>
      </trkpt>
      <trkpt lat="47.15159" lon="-1.71571">
        <ele>72</ele>
        <time>2021-02-20T10:56:02.000Z</time>
      </trkpt>
      <trkpt lat="47.15147" lon="-1.71563">
        <ele>72</ele>
        <time>2021-02-20T10:56:04.000Z</time>
      </trkpt>
      <trkpt lat="47.15136" lon="-1.71554">
        <ele>72</ele>
        <time>2021-02-20T10:56:06.000Z</time>
      </trkpt>
      <trkpt lat="47.15124" lon="-1.71544">
        <ele>72</ele>
        <time>2021-02-20T10:56:08.000Z</time>
      </trkpt>
      <trkpt lat="47.15114" lon="-1.71535">
        <ele>72</ele>
        <time>2021-02-20T10:56:10.000Z</time>
      </trkpt>
      <trkpt lat="47.15103" lon="-1.71525">
        <ele>73</ele>
        <time>2021-02-20T10:56:12.000Z</time>
      </trkpt>
      <trkpt lat="47.15093" lon="-1.71515">
        <ele>73</ele>
        <time>2021-02-20T10:56:14.000Z</time>
      </trkpt>
      <trkpt lat="47.15082" lon="-1.71504">
        <ele>73</ele>
        <time>2021-02-20T10:56:16.000Z</time>
      </trkpt>
      <trkpt lat="47.15071" lon="-1.71494">
        <ele>73</ele>
        <time>2021-02-20T10:56:18.000Z</time>
      </trkpt>
      <trkpt lat="47.15061" lon="-1.71483">
        <ele>73</ele>
        <time>2021-02-20T10:56:20.000Z</time>
      </trkpt>
      <trkpt lat="47.15052" lon="-1.71473">
        <ele>73</ele>
        <time>2021-02-20T10:56:22.000Z</time>
      </trkpt>
      <trkpt lat="47.15041" lon="-1.71464">
        <ele>72</ele>
        <time>2021-02-20T10:56:24.000Z</time>
      </trkpt>
      <trkpt lat="47.15032" lon="-1.71454">
        <ele>72</ele>
        <time>2021-02-20T10:56:26.000Z</time>
      </trkpt>
      <trkpt lat="47.15022" lon="-1.71444">
        <ele>72</ele>
        <time>2021-02-20T10:56:28.000Z</time>
      </trkpt>
      <trkpt lat="47.15011" lon="-1.71434">
        <ele>72</ele>
        <time>2021-02-20T10:56:30.000Z</time>
      </trkpt>
      <trkpt lat="47.15001" lon="-1.71425">
        <ele>73</ele>
        <time>2021-02-20T10:56:32.000Z</time>
      </trkpt>
      <trkpt lat="47.14992" lon="-1.71416">
        <ele>73</ele>
        <time>2021-02-20T10:56:34.000Z</time>
      </trkpt>
      <trkpt lat="47.14983" lon="-1.71406">
        <ele>73</ele>
        <time>2021-02-20T10:56:36.000Z</time>
      </trkpt>
      <trkpt lat="47.14974" lon="-1.71397">
        <ele>73</ele>
        <time>2021-02-20T10:56:38.000Z</time>
      </trkpt>
      <trkpt lat="47.14965" lon="-1.71389">
        <ele>73</ele>
        <time>2021-02-20T10:56:40.000Z</time>
      </trkpt>
      <trkpt lat="47.14955" lon="-1.71379">
        <ele>73</ele>
        <time>2021-02-20T10:56:42.000Z</time>
      </trkpt>
      <trkpt lat="47.14946" lon="-1.71369">
        <ele>73</ele>
        <time>2021-02-20T10:56:44.000Z</time>
      </trkpt>
      <trkpt lat="47.14937" lon="-1.71358">
        <ele>74</ele>
        <time>2021-02-20T10:56:46.000Z</time>
      </trkpt>
      <trkpt lat="47.14928" lon="-1.71347">
        <ele>74</ele>
        <time>2021-02-20T10:56:48.000Z</time>
      </trkpt>
      <trkpt lat="47.14919" lon="-1.71336">
        <ele>74</ele>
        <time>2021-02-20T10:56:50.000Z</time>
      </trkpt>
      <trkpt lat="47.14911" lon="-1.71325">
        <ele>75</ele>
        <time>2021-02-20T10:56:52.000Z</time>
      </trkpt>
      <trkpt lat="47.14903" lon="-1.71315">
        <ele>75</ele>
        <time>2021-02-20T10:56:54.000Z</time>
      </trkpt>
      <trkpt lat="47.14894" lon="-1.71305">
        <ele>75</ele>
        <time>2021-02-20T10:56:56.000Z</time>
      </trkpt>
      <trkpt lat="47.14885" lon="-1.71294">
        <ele>75</ele>
        <time>2021-02-20T10:56:58.000Z</time>
      </trkpt>
      <trkpt lat="47.14875" lon="-1.71285">
        <ele>74</ele>
        <time>2021-02-20T10:57:00.000Z</time>
      </trkpt>
      <trkpt lat="47.14865" lon="-1.71277">
        <ele>75</ele>
        <time>2021-02-20T10:57:02.000Z</time>
      </trkpt>
      <trkpt lat="47.14856" lon="-1.71266">
        <ele>75</ele>
        <time>2021-02-20T10:57:04.000Z</time>
      </trkpt>
      <trkpt lat="47.14849" lon="-1.71253">
        <ele>75</ele>
        <time>2021-02-20T10:57:06.000Z</time>
      </trkpt>
      <trkpt lat="47.14843" lon="-1.71239">
        <ele>75</ele>
        <time>2021-02-20T10:57:08.000Z</time>
      </trkpt>
      <trkpt lat="47.14837" lon="-1.71224">
        <ele>75</ele>
        <time>2021-02-20T10:57:10.000Z</time>
      </trkpt>
      <trkpt lat="47.14832" lon="-1.71209">
        <ele>75</ele>
        <time>2021-02-20T10:57:12.000Z</time>
      </trkpt>
      <trkpt lat="47.14826" lon="-1.71195">
        <ele>75</ele>
        <time>2021-02-20T10:57:14.000Z</time>
      </trkpt>
      <trkpt lat="47.14821" lon="-1.71181">
        <ele>75</ele>
        <time>2021-02-20T10:57:16.000Z</time>
      </trkpt>
      <trkpt lat="47.14816" lon="-1.71165">
        <ele>75</ele>
        <time>2021-02-20T10:57:18.000Z</time>
      </trkpt>
      <trkpt lat="47.1481" lon="-1.71151">
        <ele>76</ele>
        <time>2021-02-20T10:57:20.000Z</time>
      </trkpt>
      <trkpt lat="47.14804" lon="-1.71136">
        <ele>76</ele>
        <time>2021-02-20T10:57:22.000Z</time>
      </trkpt>
      <trkpt lat="47.14798" lon="-1.71121">
        <ele>76</ele>
        <time>2021-02-20T10:57:24.000Z</time>
      </trkpt>
      <trkpt lat="47.14791" lon="-1.71107">
        <ele>76</ele>
        <time>2021-02-20T10:57:26.000Z</time>
      </trkpt>
      <trkpt lat="47.14784" lon="-1.71092">
        <ele>76</ele>
        <time>2021-02-20T10:57:28.000Z</time>
      </trkpt>
      <trkpt lat="47.14778" lon="-1.71076">
        <ele>76</ele>
        <time>2021-02-20T10:57:30.000Z</time>
      </trkpt>
      <trkpt lat="47.14773" lon="-1.7106">
        <ele>75</ele>
        <time>2021-02-20T10:57:32.000Z</time>
      </trkpt>
      <trkpt lat="47.14768" lon="-1.71044">
        <ele>75</ele>
        <time>2021-02-20T10:57:34.000Z</time>
      </trkpt>
      <trkpt lat="47.14763" lon="-1.71027">
        <ele>75</ele>
        <time>2021-02-20T10:57:36.000Z</time>
      </trkpt>
      <trkpt lat="47.14758" lon="-1.71011">
        <ele>75</ele>
        <time>2021-02-20T10:57:38.000Z</time>
      </trkpt>
      <trkpt lat="47.14754" lon="-1.70996">
        <ele>74</ele>
        <time>2021-02-20T10:57:40.000Z</time>
      </trkpt>
      <trkpt lat="47.14746" lon="-1.70982">
        <ele>74</ele>
        <time>2021-02-20T10:57:42.000Z</time>
      </trkpt>
      <trkpt lat="47.14735" lon="-1.70986">
        <ele>74</ele>
        <time>2021-02-20T10:57:44.000Z</time>
      </trkpt>
      <trkpt lat="47.14726" lon="-1.70997">
        <ele>75</ele>
        <time>2021-02-20T10:57:46.000Z</time>
      </trkpt>
      <trkpt lat="47.14719" lon="-1.71011">
        <ele>75</ele>
        <time>2021-02-20T10:57:48.000Z</time>
      </trkpt>
      <trkpt lat="47.14714" lon="-1.71026">
        <ele>75</ele>
        <time>2021-02-20T10:57:50.000Z</time>
      </trkpt>
      <trkpt lat="47.14713" lon="-1.71044">
        <ele>75</ele>
        <time>2021-02-20T10:57:52.000Z</time>
      </trkpt>
      <trkpt lat="47.14715" lon="-1.71063">
        <ele>75</ele>
        <time>2021-02-20T10:57:54.000Z</time>
      </trkpt>
      <trkpt lat="47.14718" lon="-1.71082">
        <ele>76</ele>
        <time>2021-02-20T10:57:56.000Z</time>
      </trkpt>
      <trkpt lat="47.14721" lon="-1.711">
        <ele>76</ele>
        <time>2021-02-20T10:57:58.000Z</time>
      </trkpt>
      <trkpt lat="47.14723" lon="-1.71119">
        <ele>76</ele>
        <time>2021-02-20T10:58:00.000Z</time>
      </trkpt>
      <trkpt lat="47.14726" lon="-1.71137">
        <ele>76</ele>
        <time>2021-02-20T10:58:02.000Z</time>
      </trkpt>
      <trkpt lat="47.14729" lon="-1.71156">
        <ele>76</ele>
        <time>2021-02-20T10:58:04.000Z</time>
      </trkpt>
      <trkpt lat="47.14732" lon="-1.71174">
        <ele>76</ele>
        <time>2021-02-20T10:58:06.000Z</time>
      </trkpt>
      <trkpt lat="47.14736" lon="-1.71192">
        <ele>76</ele>
        <time>2021-02-20T10:58:08.000Z</time>
      </trkpt>
      <trkpt lat="47.1474" lon="-1.71209">
        <ele>75</ele>
        <time>2021-02-20T10:58:10.000Z</time>
      </trkpt>
      <trkpt lat="47.14744" lon="-1.71226">
        <ele>76</ele>
        <time>2021-02-20T10:58:12.000Z</time>
      </trkpt>
      <trkpt lat="47.14748" lon="-1.71244">
        <ele>76</ele>
        <time>2021-02-20T10:58:14.000Z</time>
      </trkpt>
      <trkpt lat="47.14753" lon="-1.71261">
        <ele>76</ele>
        <time>2021-02-20T10:58:16.000Z</time>
      </trkpt>
      <trkpt lat="47.14758" lon="-1.71278">
        <ele>76</ele>
        <time>2021-02-20T10:58:18.000Z</time>
      </trkpt>
      <trkpt lat="47.14762" lon="-1.71295">
        <ele>76</ele>
        <time>2021-02-20T10:58:20.000Z</time>
      </trkpt>
      <trkpt lat="47.14765" lon="-1.71312">
        <ele>77</ele>
        <time>2021-02-20T10:58:22.000Z</time>
      </trkpt>
      <trkpt lat="47.14768" lon="-1.7133">
        <ele>77</ele>
        <time>2021-02-20T10:58:24.000Z</time>
      </trkpt>
      <trkpt lat="47.14771" lon="-1.71348">
        <ele>77</ele>
        <time>2021-02-20T10:58:26.000Z</time>
      </trkpt>
      <trkpt lat="47.14773" lon="-1.71366">
        <ele>77</ele>
        <time>2021-02-20T10:58:28.000Z</time>
      </trkpt>
      <trkpt lat="47.14776" lon="-1.71384">
        <ele>78</ele>
        <time>2021-02-20T10:58:30.000Z</time>
      </trkpt>
      <trkpt lat="47.14778" lon="-1.71402">
        <ele>77</ele>
        <time>2021-02-20T10:58:32.000Z</time>
      </trkpt>
      <trkpt lat="47.14781" lon="-1.7142">
        <ele>77</ele>
        <time>2021-02-20T10:58:34.000Z</time>
      </trkpt>
      <trkpt lat="47.14784" lon="-1.71439">
        <ele>77</ele>
        <time>2021-02-20T10:58:36.000Z</time>
      </trkpt>
      <trkpt lat="47.14787" lon="-1.71457">
        <ele>77</ele>
        <time>2021-02-20T10:58:38.000Z</time>
      </trkpt>
      <trkpt lat="47.1479" lon="-1.71476">
        <ele>76</ele>
        <time>2021-02-20T10:58:40.000Z</time>
      </trkpt>
      <trkpt lat="47.14792" lon="-1.71494">
        <ele>77</ele>
        <time>2021-02-20T10:58:42.000Z</time>
      </trkpt>
      <trkpt lat="47.14795" lon="-1.71513">
        <ele>77</ele>
        <time>2021-02-20T10:58:44.000Z</time>
      </trkpt>
      <trkpt lat="47.14796" lon="-1.71532">
        <ele>77</ele>
        <time>2021-02-20T10:58:46.000Z</time>
      </trkpt>
      <trkpt lat="47.14796" lon="-1.71551">
        <ele>77</ele>
        <time>2021-02-20T10:58:48.000Z</time>
      </trkpt>
      <trkpt lat="47.14794" lon="-1.71571">
        <ele>77</ele>
        <time>2021-02-20T10:58:50.000Z</time>
      </trkpt>
      <trkpt lat="47.14792" lon="-1.71589">
        <ele>77</ele>
        <time>2021-02-20T10:58:52.000Z</time>
      </trkpt>
      <trkpt lat="47.14788" lon="-1.71608">
        <ele>77</ele>
        <time>2021-02-20T10:58:54.000Z</time>
      </trkpt>
      <trkpt lat="47.14786" lon="-1.71625">
        <ele>77</ele>
        <time>2021-02-20T10:58:56.000Z</time>
      </trkpt>
      <trkpt lat="47.14783" lon="-1.71642">
        <ele>77</ele>
        <time>2021-02-20T10:58:58.000Z</time>
      </trkpt>
      <trkpt lat="47.1478" lon="-1.71659">
        <ele>77</ele>
        <time>2021-02-20T10:59:00.000Z</time>
      </trkpt>
      <trkpt lat="47.14777" lon="-1.71677">
        <ele>77</ele>
        <time>2021-02-20T10:59:02.000Z</time>
      </trkpt>
      <trkpt lat="47.14775" lon="-1.71694">
        <ele>77</ele>
        <time>2021-02-20T10:59:04.000Z</time>
      </trkpt>
      <trkpt lat="47.14772" lon="-1.71711">
        <ele>77</ele>
        <time>2021-02-20T10:59:06.000Z</time>
      </trkpt>
      <trkpt lat="47.14769" lon="-1.71728">
        <ele>77</ele>
        <time>2021-02-20T10:59:08.000Z</time>
      </trkpt>
      <trkpt lat="47.14766" lon="-1.71744">
        <ele>78</ele>
        <time>2021-02-20T10:59:10.000Z</time>
      </trkpt>
      <trkpt lat="47.14763" lon="-1.71761">
        <ele>78</ele>
        <time>2021-02-20T10:59:12.000Z</time>
      </trkpt>
      <trkpt lat="47.14758" lon="-1.71777">
        <ele>78</ele>
        <time>2021-02-20T10:59:14.000Z</time>
      </trkpt>
      <trkpt lat="47.14751" lon="-1.71792">
        <ele>78</ele>
        <time>2021-02-20T10:59:16.000Z</time>
      </trkpt>
      <trkpt lat="47.14742" lon="-1.71804">
        <ele>78</ele>
        <time>2021-02-20T10:59:18.000Z</time>
      </trkpt>
      <trkpt lat="47.14732" lon="-1.71814">
        <ele>78</ele>
        <time>2021-02-20T10:59:20.000Z</time>
      </trkpt>
      <trkpt lat="47.1472" lon="-1.71823">
        <ele>78</ele>
        <time>2021-02-20T10:59:22.000Z</time>
      </trkpt>
      <trkpt lat="47.14708" lon="-1.71829">
        <ele>78</ele>
        <time>2021-02-20T10:59:24.000Z</time>
      </trkpt>
      <trkpt lat="47.14697" lon="-1.71835">
        <ele>77</ele>
        <time>2021-02-20T10:59:26.000Z</time>
      </trkpt>
      <trkpt lat="47.14685" lon="-1.71841">
        <ele>77</ele>
        <time>2021-02-20T10:59:28.000Z</time>
      </trkpt>
      <trkpt lat="47.14673" lon="-1.71847">
        <ele>77</ele>
        <time>2021-02-20T10:59:30.000Z</time>
      </trkpt>
      <trkpt lat="47.14661" lon="-1.71852">
        <ele>77</ele>
        <time>2021-02-20T10:59:32.000Z</time>
      </trkpt>
      <trkpt lat="47.14649" lon="-1.71855">
        <ele>76</ele>
        <time>2021-02-20T10:59:34.000Z</time>
      </trkpt>
      <trkpt lat="47.14637" lon="-1.71856">
        <ele>76</ele>
        <time>2021-02-20T10:59:36.000Z</time>
      </trkpt>
      <trkpt lat="47.14624" lon="-1.71856">
        <ele>76</ele>
        <time>2021-02-20T10:59:38.000Z</time>
      </trkpt>
      <trkpt lat="47.14612" lon="-1.71854">
        <ele>76</ele>
        <time>2021-02-20T10:59:40.000Z</time>
      </trkpt>
      <trkpt lat="47.146" lon="-1.71851">
        <ele>76</ele>
        <time>2021-02-20T10:59:42.000Z</time>
      </trkpt>
      <trkpt lat="47.14588" lon="-1.71846">
        <ele>76</ele>
        <time>2021-02-20T10:59:44.000Z</time>
      </trkpt>
      <trkpt lat="47.14576" lon="-1.71841">
        <ele>75</ele>
        <time>2021-02-20T10:59:46.000Z</time>
      </trkpt>
      <trkpt lat="47.14564" lon="-1.71835">
        <ele>75</ele>
        <time>2021-02-20T10:59:48.000Z</time>
      </trkpt>
      <trkpt lat="47.14552" lon="-1.71829">
        <ele>75</ele>
        <time>2021-02-20T10:59:50.000Z</time>
      </trkpt>
      <trkpt lat="47.14541" lon="-1.71824">
        <ele>75</ele>
        <time>2021-02-20T10:59:52.000Z</time>
      </trkpt>
      <trkpt lat="47.1453" lon="-1.71819">
        <ele>74</ele>
        <time>2021-02-20T10:59:54.000Z</time>
      </trkpt>
      <trkpt lat="47.14519" lon="-1.71814">
        <ele>74</ele>
        <time>2021-02-20T10:59:56.000Z</time>
      </trkpt>
      <trkpt lat="47.14508" lon="-1.71808">
        <ele>74</ele>
        <time>2021-02-20T10:59:58.000Z</time>
      </trkpt>
      <trkpt lat="47.14497" lon="-1.71802">
        <ele>74</ele>
        <time>2021-02-20T11:00:00.000Z</time>
      </trkpt>
      <trkpt lat="47.14486" lon="-1.71797">
        <ele>74</ele>
        <time>2021-02-20T11:00:02.000Z</time>
      </trkpt>
      <trkpt lat="47.14475" lon="-1.71792">
        <ele>74</ele>
        <time>2021-02-20T11:00:04.000Z</time>
      </trkpt>
      <trkpt lat="47.14464" lon="-1.71787">
        <ele>74</ele>
        <time>2021-02-20T11:00:06.000Z</time>
      </trkpt>
      <trkpt lat="47.14452" lon="-1.71784">
        <ele>74</ele>
        <time>2021-02-20T11:00:08.000Z</time>
      </trkpt>
      <trkpt lat="47.14441" lon="-1.71782">
        <ele>73</ele>
        <time>2021-02-20T11:00:10.000Z</time>
      </trkpt>
      <trkpt lat="47.1443" lon="-1.7178">
        <ele>73</ele>
        <time>2021-02-20T11:00:12.000Z</time>
      </trkpt>
      <trkpt lat="47.14418" lon="-1.7178">
        <ele>73</ele>
        <time>2021-02-20T11:00:14.000Z</time>
      </trkpt>
      <trkpt lat="47.14406" lon="-1.71782">
        <ele>73</ele>
        <time>2021-02-20T11:00:16.000Z</time>
      </trkpt>
      <trkpt lat="47.14393" lon="-1.71785">
        <ele>72</ele>
        <time>2021-02-20T11:00:18.000Z</time>
      </trkpt>
      <trkpt lat="47.14381" lon="-1.71788">
        <ele>72</ele>
        <time>2021-02-20T11:00:20.000Z</time>
      </trkpt>
      <trkpt lat="47.14369" lon="-1.71792">
        <ele>72</ele>
        <time>2021-02-20T11:00:22.000Z</time>
      </trkpt>
      <trkpt lat="47.14357" lon="-1.71796">
        <ele>72</ele>
        <time>2021-02-20T11:00:24.000Z</time>
      </trkpt>
      <trkpt lat="47.14345" lon="-1.718">
        <ele>72</ele>
        <time>2021-02-20T11:00:26.000Z</time>
      </trkpt>
      <trkpt lat="47.14333" lon="-1.71804">
        <ele>72</ele>
        <time>2021-02-20T11:00:28.000Z</time>
      </trkpt>
      <trkpt lat="47.14321" lon="-1.71808">
        <ele>72</ele>
        <time>2021-02-20T11:00:30.000Z</time>
      </trkpt>
      <trkpt lat="47.14308" lon="-1.71812">
        <ele>72</ele>
        <time>2021-02-20T11:00:32.000Z</time>
      </trkpt>
      <trkpt lat="47.14295" lon="-1.71816">
        <ele>72</ele>
        <time>2021-02-20T11:00:34.000Z</time>
      </trkpt>
      <trkpt lat="47.14283" lon="-1.71821">
        <ele>72</ele>
        <time>2021-02-20T11:00:36.000Z</time>
      </trkpt>
      <trkpt lat="47.1427" lon="-1.71825">
        <ele>71</ele>
        <time>2021-02-20T11:00:38.000Z</time>
      </trkpt>
      <trkpt lat="47.14258" lon="-1.71829">
        <ele>71</ele>
        <time>2021-02-20T11:00:40.000Z</time>
      </trkpt>
      <trkpt lat="47.14245" lon="-1.71832">
        <ele>71</ele>
        <time>2021-02-20T11:00:42.000Z</time>
      </trkpt>
      <trkpt lat="47.14233" lon="-1.71837">
        <ele>71</ele>
        <time>2021-02-20T11:00:44.000Z</time>
      </trkpt>
      <trkpt lat="47.14221" lon="-1.71841">
        <ele>71</ele>
        <time>2021-02-20T11:00:46.000Z</time>
      </trkpt>
      <trkpt lat="47.14209" lon="-1.71844">
        <ele>70</ele>
        <time>2021-02-20T11:00:48.000Z</time>
      </trkpt>
      <trkpt lat="47.14197" lon="-1.71848">
        <ele>70</ele>
        <time>2021-02-20T11:00:50.000Z</time>
      </trkpt>
      <trkpt lat="47.14185" lon="-1.71853">
        <ele>70</ele>
        <time>2021-02-20T11:00:52.000Z</time>
      </trkpt>
      <trkpt lat="47.14173" lon="-1.71857">
        <ele>69</ele>
        <time>2021-02-20T11:00:54.000Z</time>
      </trkpt>
      <trkpt lat="47.1416" lon="-1.71861">
        <ele>68</ele>
        <time>2021-02-20T11:00:56.000Z</time>
      </trkpt>
      <trkpt lat="47.14148" lon="-1.71865">
        <ele>67</ele>
        <time>2021-02-20T11:00:58.000Z</time>
      </trkpt>
      <trkpt lat="47.14135" lon="-1.71869">
        <ele>66</ele>
        <time>2021-02-20T11:01:00.000Z</time>
      </trkpt>
      <trkpt lat="47.14122" lon="-1.71873">
        <ele>66</ele>
        <time>2021-02-20T11:01:02.000Z</time>
      </trkpt>
      <trkpt lat="47.14108" lon="-1.71879">
        <ele>65</ele>
        <time>2021-02-20T11:01:04.000Z</time>
      </trkpt>
      <trkpt lat="47.14095" lon="-1.71883">
        <ele>64</ele>
        <time>2021-02-20T11:01:06.000Z</time>
      </trkpt>
      <trkpt lat="47.14073" lon="-1.71889">
        <ele>63</ele>
        <time>2021-02-20T11:01:09.000Z</time>
      </trkpt>
      <trkpt lat="47.14059" lon="-1.71893">
        <ele>62</ele>
        <time>2021-02-20T11:01:11.000Z</time>
      </trkpt>
      <trkpt lat="47.14046" lon="-1.71899">
        <ele>62</ele>
        <time>2021-02-20T11:01:13.000Z</time>
      </trkpt>
      <trkpt lat="47.14032" lon="-1.71903">
        <ele>61</ele>
        <time>2021-02-20T11:01:15.000Z</time>
      </trkpt>
      <trkpt lat="47.14017" lon="-1.71905">
        <ele>60</ele>
        <time>2021-02-20T11:01:17.000Z</time>
      </trkpt>
      <trkpt lat="47.14002" lon="-1.71904">
        <ele>59</ele>
        <time>2021-02-20T11:01:19.000Z</time>
      </trkpt>
      <trkpt lat="47.13988" lon="-1.719">
        <ele>58</ele>
        <time>2021-02-20T11:01:21.000Z</time>
      </trkpt>
      <trkpt lat="47.13976" lon="-1.71902">
        <ele>58</ele>
        <time>2021-02-20T11:01:23.000Z</time>
      </trkpt>
      <trkpt lat="47.13969" lon="-1.71917">
        <ele>59</ele>
        <time>2021-02-20T11:01:25.000Z</time>
      </trkpt>
      <trkpt lat="47.1397" lon="-1.71936">
        <ele>59</ele>
        <time>2021-02-20T11:01:27.000Z</time>
      </trkpt>
      <trkpt lat="47.13966" lon="-1.71955">
        <ele>59</ele>
        <time>2021-02-20T11:01:29.000Z</time>
      </trkpt>
      <trkpt lat="47.13957" lon="-1.71968">
        <ele>59</ele>
        <time>2021-02-20T11:01:31.000Z</time>
      </trkpt>
      <trkpt lat="47.13945" lon="-1.71977">
        <ele>59</ele>
        <time>2021-02-20T11:01:33.000Z</time>
      </trkpt>
      <trkpt lat="47.13934" lon="-1.71983">
        <ele>60</ele>
        <time>2021-02-20T11:01:35.000Z</time>
      </trkpt>
      <trkpt lat="47.13922" lon="-1.71988">
        <ele>60</ele>
        <time>2021-02-20T11:01:37.000Z</time>
      </trkpt>
      <trkpt lat="47.13911" lon="-1.71994">
        <ele>61</ele>
        <time>2021-02-20T11:01:39.000Z</time>
      </trkpt>
      <trkpt lat="47.13899" lon="-1.72">
        <ele>61</ele>
        <time>2021-02-20T11:01:41.000Z</time>
      </trkpt>
      <trkpt lat="47.13888" lon="-1.72007">
        <ele>61</ele>
        <time>2021-02-20T11:01:43.000Z</time>
      </trkpt>
      <trkpt lat="47.13879" lon="-1.72017">
        <ele>61</ele>
        <time>2021-02-20T11:01:45.000Z</time>
      </trkpt>
      <trkpt lat="47.13869" lon="-1.72028">
        <ele>61</ele>
        <time>2021-02-20T11:01:47.000Z</time>
      </trkpt>
      <trkpt lat="47.1386" lon="-1.7204">
        <ele>62</ele>
        <time>2021-02-20T11:01:49.000Z</time>
      </trkpt>
      <trkpt lat="47.13852" lon="-1.72054">
        <ele>62</ele>
        <time>2021-02-20T11:01:51.000Z</time>
      </trkpt>
      <trkpt lat="47.13844" lon="-1.72067">
        <ele>63</ele>
        <time>2021-02-20T11:01:53.000Z</time>
      </trkpt>
      <trkpt lat="47.13837" lon="-1.72079">
        <ele>64</ele>
        <time>2021-02-20T11:01:55.000Z</time>
      </trkpt>
      <trkpt lat="47.1383" lon="-1.72092">
        <ele>64</ele>
        <time>2021-02-20T11:01:57.000Z</time>
      </trkpt>
      <trkpt lat="47.13822" lon="-1.72104">
        <ele>64</ele>
        <time>2021-02-20T11:01:59.000Z</time>
      </trkpt>
      <trkpt lat="47.13815" lon="-1.72116">
        <ele>65</ele>
        <time>2021-02-20T11:02:01.000Z</time>
      </trkpt>
      <trkpt lat="47.13807" lon="-1.72128">
        <ele>65</ele>
        <time>2021-02-20T11:02:03.000Z</time>
      </trkpt>
      <trkpt lat="47.13799" lon="-1.7214">
        <ele>65</ele>
        <time>2021-02-20T11:02:05.000Z</time>
      </trkpt>
      <trkpt lat="47.13792" lon="-1.72152">
        <ele>66</ele>
        <time>2021-02-20T11:02:07.000Z</time>
      </trkpt>
      <trkpt lat="47.13785" lon="-1.72165">
        <ele>66</ele>
        <time>2021-02-20T11:02:09.000Z</time>
      </trkpt>
      <trkpt lat="47.13778" lon="-1.72178">
        <ele>66</ele>
        <time>2021-02-20T11:02:11.000Z</time>
      </trkpt>
      <trkpt lat="47.13771" lon="-1.72189">
        <ele>67</ele>
        <time>2021-02-20T11:02:13.000Z</time>
      </trkpt>
      <trkpt lat="47.13764" lon="-1.72201">
        <ele>67</ele>
        <time>2021-02-20T11:02:15.000Z</time>
      </trkpt>
      <trkpt lat="47.13757" lon="-1.72214">
        <ele>68</ele>
        <time>2021-02-20T11:02:17.000Z</time>
      </trkpt>
      <trkpt lat="47.13751" lon="-1.72226">
        <ele>68</ele>
        <time>2021-02-20T11:02:19.000Z</time>
      </trkpt>
      <trkpt lat="47.13746" lon="-1.72241">
        <ele>68</ele>
        <time>2021-02-20T11:02:21.000Z</time>
      </trkpt>
      <trkpt lat="47.13741" lon="-1.72262">
        <ele>69</ele>
        <time>2021-02-20T11:02:24.000Z</time>
      </trkpt>
      <trkpt lat="47.13739" lon="-1.72279">
        <ele>69</ele>
        <time>2021-02-20T11:02:26.000Z</time>
      </trkpt>
      <trkpt lat="47.13735" lon="-1.72305">
        <ele>70</ele>
        <time>2021-02-20T11:02:29.000Z</time>
      </trkpt>
      <trkpt lat="47.13732" lon="-1.72329">
        <ele>70</ele>
        <time>2021-02-20T11:02:32.000Z</time>
      </trkpt>
      <trkpt lat="47.13728" lon="-1.72354">
        <ele>71</ele>
        <time>2021-02-20T11:02:35.000Z</time>
      </trkpt>
      <trkpt lat="47.13724" lon="-1.7237">
        <ele>72</ele>
        <time>2021-02-20T11:02:37.000Z</time>
      </trkpt>
      <trkpt lat="47.13718" lon="-1.72393">
        <ele>72</ele>
        <time>2021-02-20T11:02:40.000Z</time>
      </trkpt>
      <trkpt lat="47.13714" lon="-1.72409">
        <ele>72</ele>
        <time>2021-02-20T11:02:42.000Z</time>
      </trkpt>
      <trkpt lat="47.1371" lon="-1.72424">
        <ele>72</ele>
        <time>2021-02-20T11:02:44.000Z</time>
      </trkpt>
      <trkpt lat="47.13706" lon="-1.7244">
        <ele>73</ele>
        <time>2021-02-20T11:02:46.000Z</time>
      </trkpt>
      <trkpt lat="47.13701" lon="-1.72455">
        <ele>73</ele>
        <time>2021-02-20T11:02:48.000Z</time>
      </trkpt>
      <trkpt lat="47.13697" lon="-1.72471">
        <ele>73</ele>
        <time>2021-02-20T11:02:50.000Z</time>
      </trkpt>
      <trkpt lat="47.13692" lon="-1.72487">
        <ele>72</ele>
        <time>2021-02-20T11:02:52.000Z</time>
      </trkpt>
      <trkpt lat="47.13686" lon="-1.72513">
        <ele>72</ele>
        <time>2021-02-20T11:02:55.000Z</time>
      </trkpt>
      <trkpt lat="47.13684" lon="-1.72531">
        <ele>72</ele>
        <time>2021-02-20T11:02:57.000Z</time>
      </trkpt>
      <trkpt lat="47.13682" lon="-1.7255">
        <ele>72</ele>
        <time>2021-02-20T11:02:59.000Z</time>
      </trkpt>
      <trkpt lat="47.13681" lon="-1.72568">
        <ele>72</ele>
        <time>2021-02-20T11:03:01.000Z</time>
      </trkpt>
      <trkpt lat="47.1368" lon="-1.72584">
        <ele>72</ele>
        <time>2021-02-20T11:03:03.000Z</time>
      </trkpt>
      <trkpt lat="47.1368" lon="-1.72602">
        <ele>72</ele>
        <time>2021-02-20T11:03:05.000Z</time>
      </trkpt>
      <trkpt lat="47.13679" lon="-1.7262">
        <ele>72</ele>
        <time>2021-02-20T11:03:07.000Z</time>
      </trkpt>
      <trkpt lat="47.13675" lon="-1.72647">
        <ele>72</ele>
        <time>2021-02-20T11:03:10.000Z</time>
      </trkpt>
      <trkpt lat="47.13672" lon="-1.72664">
        <ele>73</ele>
        <time>2021-02-20T11:03:12.000Z</time>
      </trkpt>
      <trkpt lat="47.13669" lon="-1.72682">
        <ele>73</ele>
        <time>2021-02-20T11:03:14.000Z</time>
      </trkpt>
      <trkpt lat="47.13666" lon="-1.72699">
        <ele>73</ele>
        <time>2021-02-20T11:03:16.000Z</time>
      </trkpt>
      <trkpt lat="47.13664" lon="-1.72725">
        <ele>73</ele>
        <time>2021-02-20T11:03:19.000Z</time>
      </trkpt>
      <trkpt lat="47.13663" lon="-1.72742">
        <ele>73</ele>
        <time>2021-02-20T11:03:21.000Z</time>
      </trkpt>
      <trkpt lat="47.13662" lon="-1.72759">
        <ele>73</ele>
        <time>2021-02-20T11:03:23.000Z</time>
      </trkpt>
      <trkpt lat="47.1366" lon="-1.72775">
        <ele>72</ele>
        <time>2021-02-20T11:03:25.000Z</time>
      </trkpt>
      <trkpt lat="47.13658" lon="-1.72791">
        <ele>72</ele>
        <time>2021-02-20T11:03:27.000Z</time>
      </trkpt>
      <trkpt lat="47.13657" lon="-1.72808">
        <ele>72</ele>
        <time>2021-02-20T11:03:29.000Z</time>
      </trkpt>
      <trkpt lat="47.13656" lon="-1.72825">
        <ele>71</ele>
        <time>2021-02-20T11:03:31.000Z</time>
      </trkpt>
      <trkpt lat="47.13655" lon="-1.72844">
        <ele>71</ele>
        <time>2021-02-20T11:03:33.000Z</time>
      </trkpt>
      <trkpt lat="47.13653" lon="-1.72863">
        <ele>70</ele>
        <time>2021-02-20T11:03:35.000Z</time>
      </trkpt>
      <trkpt lat="47.13651" lon="-1.72882">
        <ele>69</ele>
        <time>2021-02-20T11:03:37.000Z</time>
      </trkpt>
      <trkpt lat="47.13649" lon="-1.72904">
        <ele>68</ele>
        <time>2021-02-20T11:03:39.000Z</time>
      </trkpt>
      <trkpt lat="47.13647" lon="-1.72928">
        <ele>67</ele>
        <time>2021-02-20T11:03:41.000Z</time>
      </trkpt>
      <trkpt lat="47.13645" lon="-1.72952">
        <ele>66</ele>
        <time>2021-02-20T11:03:43.000Z</time>
      </trkpt>
      <trkpt lat="47.13643" lon="-1.72978">
        <ele>65</ele>
        <time>2021-02-20T11:03:45.000Z</time>
      </trkpt>
      <trkpt lat="47.13641" lon="-1.73004">
        <ele>64</ele>
        <time>2021-02-20T11:03:47.000Z</time>
      </trkpt>
      <trkpt lat="47.13635" lon="-1.73029">
        <ele>63</ele>
        <time>2021-02-20T11:03:49.000Z</time>
      </trkpt>
      <trkpt lat="47.13624" lon="-1.73048">
        <ele>62</ele>
        <time>2021-02-20T11:03:51.000Z</time>
      </trkpt>
      <trkpt lat="47.1361" lon="-1.73061">
        <ele>62</ele>
        <time>2021-02-20T11:03:53.000Z</time>
      </trkpt>
      <trkpt lat="47.13597" lon="-1.73072">
        <ele>61</ele>
        <time>2021-02-20T11:03:55.000Z</time>
      </trkpt>
      <trkpt lat="47.13585" lon="-1.73082">
        <ele>62</ele>
        <time>2021-02-20T11:03:57.000Z</time>
      </trkpt>
      <trkpt lat="47.13574" lon="-1.73093">
        <ele>62</ele>
        <time>2021-02-20T11:03:59.000Z</time>
      </trkpt>
      <trkpt lat="47.13564" lon="-1.73103">
        <ele>62</ele>
        <time>2021-02-20T11:04:01.000Z</time>
      </trkpt>
      <trkpt lat="47.13553" lon="-1.73113">
        <ele>61</ele>
        <time>2021-02-20T11:04:03.000Z</time>
      </trkpt>
      <trkpt lat="47.13539" lon="-1.73127">
        <ele>61</ele>
        <time>2021-02-20T11:04:06.000Z</time>
      </trkpt>
      <trkpt lat="47.1353" lon="-1.73138">
        <ele>60</ele>
        <time>2021-02-20T11:04:08.000Z</time>
      </trkpt>
      <trkpt lat="47.13521" lon="-1.73152">
        <ele>59</ele>
        <time>2021-02-20T11:04:10.000Z</time>
      </trkpt>
      <trkpt lat="47.13515" lon="-1.7317">
        <ele>58</ele>
        <time>2021-02-20T11:04:12.000Z</time>
      </trkpt>
      <trkpt lat="47.13513" lon="-1.7319">
        <ele>58</ele>
        <time>2021-02-20T11:04:14.000Z</time>
      </trkpt>
      <trkpt lat="47.13511" lon="-1.73209">
        <ele>58</ele>
        <time>2021-02-20T11:04:16.000Z</time>
      </trkpt>
      <trkpt lat="47.13509" lon="-1.7323">
        <ele>58</ele>
        <time>2021-02-20T11:04:18.000Z</time>
      </trkpt>
      <trkpt lat="47.13506" lon="-1.73252">
        <ele>58</ele>
        <time>2021-02-20T11:04:20.000Z</time>
      </trkpt>
      <trkpt lat="47.13504" lon="-1.73285">
        <ele>57</ele>
        <time>2021-02-20T11:04:23.000Z</time>
      </trkpt>
      <trkpt lat="47.13506" lon="-1.73306">
        <ele>57</ele>
        <time>2021-02-20T11:04:25.000Z</time>
      </trkpt>
      <trkpt lat="47.13511" lon="-1.73325">
        <ele>57</ele>
        <time>2021-02-20T11:04:27.000Z</time>
      </trkpt>
      <trkpt lat="47.13517" lon="-1.73345">
        <ele>58</ele>
        <time>2021-02-20T11:04:29.000Z</time>
      </trkpt>
      <trkpt lat="47.13522" lon="-1.73364">
        <ele>59</ele>
        <time>2021-02-20T11:04:31.000Z</time>
      </trkpt>
      <trkpt lat="47.13532" lon="-1.73389">
        <ele>59</ele>
        <time>2021-02-20T11:04:34.000Z</time>
      </trkpt>
      <trkpt lat="47.13537" lon="-1.73406">
        <ele>59</ele>
        <time>2021-02-20T11:04:36.000Z</time>
      </trkpt>
      <trkpt lat="47.13543" lon="-1.73423">
        <ele>60</ele>
        <time>2021-02-20T11:04:38.000Z</time>
      </trkpt>
      <trkpt lat="47.13548" lon="-1.73439">
        <ele>60</ele>
        <time>2021-02-20T11:04:40.000Z</time>
      </trkpt>
      <trkpt lat="47.13552" lon="-1.73455">
        <ele>60</ele>
        <time>2021-02-20T11:04:42.000Z</time>
      </trkpt>
      <trkpt lat="47.13557" lon="-1.73472">
        <ele>61</ele>
        <time>2021-02-20T11:04:44.000Z</time>
      </trkpt>
      <trkpt lat="47.13562" lon="-1.73488">
        <ele>61</ele>
        <time>2021-02-20T11:04:46.000Z</time>
      </trkpt>
      <trkpt lat="47.13566" lon="-1.73502">
        <ele>61</ele>
        <time>2021-02-20T11:04:48.000Z</time>
      </trkpt>
      <trkpt lat="47.1357" lon="-1.73517">
        <ele>61</ele>
        <time>2021-02-20T11:04:50.000Z</time>
      </trkpt>
      <trkpt lat="47.13574" lon="-1.73532">
        <ele>61</ele>
        <time>2021-02-20T11:04:52.000Z</time>
      </trkpt>
      <trkpt lat="47.13578" lon="-1.73547">
        <ele>61</ele>
        <time>2021-02-20T11:04:54.000Z</time>
      </trkpt>
      <trkpt lat="47.13583" lon="-1.73563">
        <ele>60</ele>
        <time>2021-02-20T11:04:56.000Z</time>
      </trkpt>
      <trkpt lat="47.13588" lon="-1.73578">
        <ele>61</ele>
        <time>2021-02-20T11:04:58.000Z</time>
      </trkpt>
      <trkpt lat="47.13594" lon="-1.73592">
        <ele>61</ele>
        <time>2021-02-20T11:05:00.000Z</time>
      </trkpt>
      <trkpt lat="47.136" lon="-1.73607">
        <ele>61</ele>
        <time>2021-02-20T11:05:02.000Z</time>
      </trkpt>
      <trkpt lat="47.13606" lon="-1.73624">
        <ele>61</ele>
        <time>2021-02-20T11:05:04.000Z</time>
      </trkpt>
      <trkpt lat="47.13612" lon="-1.73644">
        <ele>60</ele>
        <time>2021-02-20T11:05:06.000Z</time>
      </trkpt>
      <trkpt lat="47.13618" lon="-1.73662">
        <ele>60</ele>
        <time>2021-02-20T11:05:08.000Z</time>
      </trkpt>
      <trkpt lat="47.13625" lon="-1.73682">
        <ele>60</ele>
        <time>2021-02-20T11:05:10.000Z</time>
      </trkpt>
      <trkpt lat="47.1363" lon="-1.73702">
        <ele>60</ele>
        <time>2021-02-20T11:05:12.000Z</time>
      </trkpt>
      <trkpt lat="47.13636" lon="-1.73734">
        <ele>60</ele>
        <time>2021-02-20T11:05:15.000Z</time>
      </trkpt>
      <trkpt lat="47.13638" lon="-1.73757">
        <ele>59</ele>
        <time>2021-02-20T11:05:17.000Z</time>
      </trkpt>
      <trkpt lat="47.1364" lon="-1.73782">
        <ele>57</ele>
        <time>2021-02-20T11:05:19.000Z</time>
      </trkpt>
      <trkpt lat="47.13641" lon="-1.73807">
        <ele>57</ele>
        <time>2021-02-20T11:05:21.000Z</time>
      </trkpt>
      <trkpt lat="47.13643" lon="-1.73831">
        <ele>57</ele>
        <time>2021-02-20T11:05:23.000Z</time>
      </trkpt>
      <trkpt lat="47.13644" lon="-1.73855">
        <ele>57</ele>
        <time>2021-02-20T11:05:25.000Z</time>
      </trkpt>
      <trkpt lat="47.13646" lon="-1.73879">
        <ele>57</ele>
        <time>2021-02-20T11:05:27.000Z</time>
      </trkpt>
      <trkpt lat="47.13648" lon="-1.73901">
        <ele>58</ele>
        <time>2021-02-20T11:05:29.000Z</time>
      </trkpt>
      <trkpt lat="47.13649" lon="-1.73922">
        <ele>59</ele>
        <time>2021-02-20T11:05:31.000Z</time>
      </trkpt>
      <trkpt lat="47.1365" lon="-1.73941">
        <ele>60</ele>
        <time>2021-02-20T11:05:33.000Z</time>
      </trkpt>
      <trkpt lat="47.1365" lon="-1.73959">
        <ele>60</ele>
        <time>2021-02-20T11:05:35.000Z</time>
      </trkpt>
      <trkpt lat="47.1365" lon="-1.73978">
        <ele>61</ele>
        <time>2021-02-20T11:05:37.000Z</time>
      </trkpt>
      <trkpt lat="47.13649" lon="-1.73996">
        <ele>62</ele>
        <time>2021-02-20T11:05:39.000Z</time>
      </trkpt>
      <trkpt lat="47.13647" lon="-1.74014">
        <ele>62</ele>
        <time>2021-02-20T11:05:41.000Z</time>
      </trkpt>
      <trkpt lat="47.13645" lon="-1.74032">
        <ele>63</ele>
        <time>2021-02-20T11:05:43.000Z</time>
      </trkpt>
      <trkpt lat="47.13644" lon="-1.74049">
        <ele>63</ele>
        <time>2021-02-20T11:05:45.000Z</time>
      </trkpt>
      <trkpt lat="47.13643" lon="-1.74066">
        <ele>64</ele>
        <time>2021-02-20T11:05:47.000Z</time>
      </trkpt>
      <trkpt lat="47.13642" lon="-1.74084">
        <ele>64</ele>
        <time>2021-02-20T11:05:49.000Z</time>
      </trkpt>
      <trkpt lat="47.13643" lon="-1.74102">
        <ele>64</ele>
        <time>2021-02-20T11:05:51.000Z</time>
      </trkpt>
      <trkpt lat="47.13644" lon="-1.7412">
        <ele>64</ele>
        <time>2021-02-20T11:05:53.000Z</time>
      </trkpt>
      <trkpt lat="47.13647" lon="-1.74138">
        <ele>63</ele>
        <time>2021-02-20T11:05:55.000Z</time>
      </trkpt>
      <trkpt lat="47.1365" lon="-1.74156">
        <ele>63</ele>
        <time>2021-02-20T11:05:57.000Z</time>
      </trkpt>
      <trkpt lat="47.13654" lon="-1.74176">
        <ele>63</ele>
        <time>2021-02-20T11:05:59.000Z</time>
      </trkpt>
      <trkpt lat="47.13659" lon="-1.74194">
        <ele>63</ele>
        <time>2021-02-20T11:06:01.000Z</time>
      </trkpt>
      <trkpt lat="47.13664" lon="-1.74214">
        <ele>63</ele>
        <time>2021-02-20T11:06:03.000Z</time>
      </trkpt>
      <trkpt lat="47.13668" lon="-1.74234">
        <ele>63</ele>
        <time>2021-02-20T11:06:05.000Z</time>
      </trkpt>
      <trkpt lat="47.13673" lon="-1.74254">
        <ele>63</ele>
        <time>2021-02-20T11:06:07.000Z</time>
      </trkpt>
      <trkpt lat="47.13679" lon="-1.74273">
        <ele>62</ele>
        <time>2021-02-20T11:06:09.000Z</time>
      </trkpt>
      <trkpt lat="47.13686" lon="-1.74292">
        <ele>62</ele>
        <time>2021-02-20T11:06:11.000Z</time>
      </trkpt>
      <trkpt lat="47.13694" lon="-1.74313">
        <ele>62</ele>
        <time>2021-02-20T11:06:13.000Z</time>
      </trkpt>
      <trkpt lat="47.13696" lon="-1.74337">
        <ele>61</ele>
        <time>2021-02-20T11:06:15.000Z</time>
      </trkpt>
      <trkpt lat="47.13697" lon="-1.74362">
        <ele>60</ele>
        <time>2021-02-20T11:06:17.000Z</time>
      </trkpt>
      <trkpt lat="47.13697" lon="-1.74376">
        <ele>59</ele>
        <time>2021-02-20T11:06:18.000Z</time>
      </trkpt>
      <trkpt lat="47.13697" lon="-1.74402">
        <ele>59</ele>
        <time>2021-02-20T11:06:20.000Z</time>
      </trkpt>
      <trkpt lat="47.13697" lon="-1.74416">
        <ele>58</ele>
        <time>2021-02-20T11:06:21.000Z</time>
      </trkpt>
      <trkpt lat="47.13697" lon="-1.74442">
        <ele>57</ele>
        <time>2021-02-20T11:06:23.000Z</time>
      </trkpt>
      <trkpt lat="47.13689" lon="-1.74465">
        <ele>56</ele>
        <time>2021-02-20T11:06:25.000Z</time>
      </trkpt>
      <trkpt lat="47.13675" lon="-1.74481">
        <ele>55</ele>
        <time>2021-02-20T11:06:27.000Z</time>
      </trkpt>
      <trkpt lat="47.13662" lon="-1.74495">
        <ele>54</ele>
        <time>2021-02-20T11:06:29.000Z</time>
      </trkpt>
      <trkpt lat="47.1365" lon="-1.74508">
        <ele>54</ele>
        <time>2021-02-20T11:06:31.000Z</time>
      </trkpt>
      <trkpt lat="47.13638" lon="-1.74518">
        <ele>55</ele>
        <time>2021-02-20T11:06:33.000Z</time>
      </trkpt>
      <trkpt lat="47.13627" lon="-1.74528">
        <ele>55</ele>
        <time>2021-02-20T11:06:35.000Z</time>
      </trkpt>
      <trkpt lat="47.13617" lon="-1.74539">
        <ele>55</ele>
        <time>2021-02-20T11:06:37.000Z</time>
      </trkpt>
      <trkpt lat="47.13606" lon="-1.7455">
        <ele>54</ele>
        <time>2021-02-20T11:06:39.000Z</time>
      </trkpt>
      <trkpt lat="47.13593" lon="-1.74563">
        <ele>53</ele>
        <time>2021-02-20T11:06:41.000Z</time>
      </trkpt>
      <trkpt lat="47.1358" lon="-1.74577">
        <ele>52</ele>
        <time>2021-02-20T11:06:43.000Z</time>
      </trkpt>
      <trkpt lat="47.13568" lon="-1.7459">
        <ele>52</ele>
        <time>2021-02-20T11:06:45.000Z</time>
      </trkpt>
      <trkpt lat="47.13555" lon="-1.74603">
        <ele>52</ele>
        <time>2021-02-20T11:06:47.000Z</time>
      </trkpt>
      <trkpt lat="47.13543" lon="-1.74615">
        <ele>52</ele>
        <time>2021-02-20T11:06:49.000Z</time>
      </trkpt>
      <trkpt lat="47.13531" lon="-1.74627">
        <ele>53</ele>
        <time>2021-02-20T11:06:51.000Z</time>
      </trkpt>
      <trkpt lat="47.1352" lon="-1.74637">
        <ele>54</ele>
        <time>2021-02-20T11:06:53.000Z</time>
      </trkpt>
      <trkpt lat="47.13511" lon="-1.74646">
        <ele>54</ele>
        <time>2021-02-20T11:06:55.000Z</time>
      </trkpt>
      <trkpt lat="47.13502" lon="-1.74657">
        <ele>55</ele>
        <time>2021-02-20T11:06:57.000Z</time>
      </trkpt>
      <trkpt lat="47.13496" lon="-1.74672">
        <ele>56</ele>
        <time>2021-02-20T11:06:59.000Z</time>
      </trkpt>
      <trkpt lat="47.13491" lon="-1.74687">
        <ele>57</ele>
        <time>2021-02-20T11:07:01.000Z</time>
      </trkpt>
      <trkpt lat="47.13486" lon="-1.74701">
        <ele>57</ele>
        <time>2021-02-20T11:07:03.000Z</time>
      </trkpt>
      <trkpt lat="47.13482" lon="-1.74714">
        <ele>58</ele>
        <time>2021-02-20T11:07:05.000Z</time>
      </trkpt>
      <trkpt lat="47.13475" lon="-1.74726">
        <ele>58</ele>
        <time>2021-02-20T11:07:07.000Z</time>
      </trkpt>
      <trkpt lat="47.13466" lon="-1.74737">
        <ele>59</ele>
        <time>2021-02-20T11:07:09.000Z</time>
      </trkpt>
      <trkpt lat="47.13457" lon="-1.74747">
        <ele>60</ele>
        <time>2021-02-20T11:07:11.000Z</time>
      </trkpt>
      <trkpt lat="47.13447" lon="-1.74755">
        <ele>61</ele>
        <time>2021-02-20T11:07:13.000Z</time>
      </trkpt>
      <trkpt lat="47.13436" lon="-1.74762">
        <ele>62</ele>
        <time>2021-02-20T11:07:15.000Z</time>
      </trkpt>
      <trkpt lat="47.13426" lon="-1.74769">
        <ele>61</ele>
        <time>2021-02-20T11:07:17.000Z</time>
      </trkpt>
      <trkpt lat="47.13416" lon="-1.74777">
        <ele>61</ele>
        <time>2021-02-20T11:07:19.000Z</time>
      </trkpt>
      <trkpt lat="47.13407" lon="-1.74787">
        <ele>61</ele>
        <time>2021-02-20T11:07:21.000Z</time>
      </trkpt>
      <trkpt lat="47.13398" lon="-1.74796">
        <ele>62</ele>
        <time>2021-02-20T11:07:23.000Z</time>
      </trkpt>
      <trkpt lat="47.13391" lon="-1.74809">
        <ele>63</ele>
        <time>2021-02-20T11:07:25.000Z</time>
      </trkpt>
      <trkpt lat="47.13385" lon="-1.74823">
        <ele>63</ele>
        <time>2021-02-20T11:07:27.000Z</time>
      </trkpt>
      <trkpt lat="47.1338" lon="-1.7484">
        <ele>63</ele>
        <time>2021-02-20T11:07:29.000Z</time>
      </trkpt>
      <trkpt lat="47.13376" lon="-1.74855">
        <ele>64</ele>
        <time>2021-02-20T11:07:31.000Z</time>
      </trkpt>
      <trkpt lat="47.13372" lon="-1.74871">
        <ele>63</ele>
        <time>2021-02-20T11:07:33.000Z</time>
      </trkpt>
      <trkpt lat="47.13368" lon="-1.74887">
        <ele>63</ele>
        <time>2021-02-20T11:07:35.000Z</time>
      </trkpt>
      <trkpt lat="47.13363" lon="-1.74902">
        <ele>63</ele>
        <time>2021-02-20T11:07:37.000Z</time>
      </trkpt>
      <trkpt lat="47.13359" lon="-1.74917">
        <ele>63</ele>
        <time>2021-02-20T11:07:39.000Z</time>
      </trkpt>
      <trkpt lat="47.13353" lon="-1.7493">
        <ele>64</ele>
        <time>2021-02-20T11:07:41.000Z</time>
      </trkpt>
      <trkpt lat="47.13347" lon="-1.74944">
        <ele>64</ele>
        <time>2021-02-20T11:07:43.000Z</time>
      </trkpt>
      <trkpt lat="47.13341" lon="-1.74956">
        <ele>64</ele>
        <time>2021-02-20T11:07:45.000Z</time>
      </trkpt>
      <trkpt lat="47.13335" lon="-1.74968">
        <ele>64</ele>
        <time>2021-02-20T11:07:47.000Z</time>
      </trkpt>
      <trkpt lat="47.13329" lon="-1.74981">
        <ele>64</ele>
        <time>2021-02-20T11:07:49.000Z</time>
      </trkpt>
      <trkpt lat="47.13322" lon="-1.74991">
        <ele>64</ele>
        <time>2021-02-20T11:07:51.000Z</time>
      </trkpt>
      <trkpt lat="47.13313" lon="-1.75001">
        <ele>64</ele>
        <time>2021-02-20T11:07:53.000Z</time>
      </trkpt>
      <trkpt lat="47.13303" lon="-1.75009">
        <ele>65</ele>
        <time>2021-02-20T11:07:55.000Z</time>
      </trkpt>
      <trkpt lat="47.13295" lon="-1.75017">
        <ele>65</ele>
        <time>2021-02-20T11:07:57.000Z</time>
      </trkpt>
      <trkpt lat="47.13286" lon="-1.75025">
        <ele>65</ele>
        <time>2021-02-20T11:07:59.000Z</time>
      </trkpt>
      <trkpt lat="47.13276" lon="-1.75033">
        <ele>65</ele>
        <time>2021-02-20T11:08:01.000Z</time>
      </trkpt>
      <trkpt lat="47.13267" lon="-1.7504">
        <ele>66</ele>
        <time>2021-02-20T11:08:03.000Z</time>
      </trkpt>
      <trkpt lat="47.13258" lon="-1.75046">
        <ele>66</ele>
        <time>2021-02-20T11:08:05.000Z</time>
      </trkpt>
      <trkpt lat="47.13249" lon="-1.75053">
        <ele>66</ele>
        <time>2021-02-20T11:08:07.000Z</time>
      </trkpt>
      <trkpt lat="47.13241" lon="-1.75061">
        <ele>67</ele>
        <time>2021-02-20T11:08:09.000Z</time>
      </trkpt>
      <trkpt lat="47.13233" lon="-1.75069">
        <ele>67</ele>
        <time>2021-02-20T11:08:11.000Z</time>
      </trkpt>
      <trkpt lat="47.13225" lon="-1.75078">
        <ele>68</ele>
        <time>2021-02-20T11:08:13.000Z</time>
      </trkpt>
      <trkpt lat="47.13217" lon="-1.75087">
        <ele>68</ele>
        <time>2021-02-20T11:08:15.000Z</time>
      </trkpt>
      <trkpt lat="47.13211" lon="-1.75098">
        <ele>68</ele>
        <time>2021-02-20T11:08:17.000Z</time>
      </trkpt>
      <trkpt lat="47.13204" lon="-1.75108">
        <ele>69</ele>
        <time>2021-02-20T11:08:19.000Z</time>
      </trkpt>
      <trkpt lat="47.13197" lon="-1.75119">
        <ele>69</ele>
        <time>2021-02-20T11:08:21.000Z</time>
      </trkpt>
      <trkpt lat="47.13191" lon="-1.7513">
        <ele>69</ele>
        <time>2021-02-20T11:08:23.000Z</time>
      </trkpt>
      <trkpt lat="47.13185" lon="-1.75143">
        <ele>69</ele>
        <time>2021-02-20T11:08:25.000Z</time>
      </trkpt>
      <trkpt lat="47.13179" lon="-1.75157">
        <ele>70</ele>
        <time>2021-02-20T11:08:27.000Z</time>
      </trkpt>
      <trkpt lat="47.13174" lon="-1.7517">
        <ele>70</ele>
        <time>2021-02-20T11:08:29.000Z</time>
      </trkpt>
      <trkpt lat="47.13168" lon="-1.75184">
        <ele>69</ele>
        <time>2021-02-20T11:08:31.000Z</time>
      </trkpt>
      <trkpt lat="47.13163" lon="-1.75198">
        <ele>69</ele>
        <time>2021-02-20T11:08:33.000Z</time>
      </trkpt>
      <trkpt lat="47.1316" lon="-1.75213">
        <ele>69</ele>
        <time>2021-02-20T11:08:35.000Z</time>
      </trkpt>
      <trkpt lat="47.13157" lon="-1.75229">
        <ele>69</ele>
        <time>2021-02-20T11:08:37.000Z</time>
      </trkpt>
      <trkpt lat="47.13154" lon="-1.75244">
        <ele>69</ele>
        <time>2021-02-20T11:08:39.000Z</time>
      </trkpt>
      <trkpt lat="47.13152" lon="-1.75259">
        <ele>69</ele>
        <time>2021-02-20T11:08:41.000Z</time>
      </trkpt>
      <trkpt lat="47.13151" lon="-1.75275">
        <ele>69</ele>
        <time>2021-02-20T11:08:43.000Z</time>
      </trkpt>
      <trkpt lat="47.1315" lon="-1.75291">
        <ele>70</ele>
        <time>2021-02-20T11:08:45.000Z</time>
      </trkpt>
      <trkpt lat="47.13146" lon="-1.75307">
        <ele>70</ele>
        <time>2021-02-20T11:08:47.000Z</time>
      </trkpt>
      <trkpt lat="47.13142" lon="-1.75321">
        <ele>70</ele>
        <time>2021-02-20T11:08:49.000Z</time>
      </trkpt>
      <trkpt lat="47.13137" lon="-1.75336">
        <ele>70</ele>
        <time>2021-02-20T11:08:51.000Z</time>
      </trkpt>
      <trkpt lat="47.13133" lon="-1.75351">
        <ele>71</ele>
        <time>2021-02-20T11:08:53.000Z</time>
      </trkpt>
      <trkpt lat="47.1313" lon="-1.75366">
        <ele>71</ele>
        <time>2021-02-20T11:08:55.000Z</time>
      </trkpt>
      <trkpt lat="47.13127" lon="-1.7538">
        <ele>71</ele>
        <time>2021-02-20T11:08:57.000Z</time>
      </trkpt>
      <trkpt lat="47.13124" lon="-1.75395">
        <ele>72</ele>
        <time>2021-02-20T11:08:59.000Z</time>
      </trkpt>
      <trkpt lat="47.1312" lon="-1.75409">
        <ele>73</ele>
        <time>2021-02-20T11:09:01.000Z</time>
      </trkpt>
      <trkpt lat="47.13117" lon="-1.75424">
        <ele>73</ele>
        <time>2021-02-20T11:09:03.000Z</time>
      </trkpt>
      <trkpt lat="47.13116" lon="-1.75441">
        <ele>74</ele>
        <time>2021-02-20T11:09:05.000Z</time>
      </trkpt>
      <trkpt lat="47.13112" lon="-1.75458">
        <ele>75</ele>
        <time>2021-02-20T11:09:07.000Z</time>
      </trkpt>
      <trkpt lat="47.13109" lon="-1.75474">
        <ele>75</ele>
        <time>2021-02-20T11:09:09.000Z</time>
      </trkpt>
      <trkpt lat="47.13108" lon="-1.75491">
        <ele>75</ele>
        <time>2021-02-20T11:09:11.000Z</time>
      </trkpt>
      <trkpt lat="47.13106" lon="-1.75508">
        <ele>75</ele>
        <time>2021-02-20T11:09:13.000Z</time>
      </trkpt>
      <trkpt lat="47.13103" lon="-1.75524">
        <ele>76</ele>
        <time>2021-02-20T11:09:15.000Z</time>
      </trkpt>
      <trkpt lat="47.13101" lon="-1.75541">
        <ele>76</ele>
        <time>2021-02-20T11:09:17.000Z</time>
      </trkpt>
      <trkpt lat="47.13098" lon="-1.75556">
        <ele>77</ele>
        <time>2021-02-20T11:09:19.000Z</time>
      </trkpt>
      <trkpt lat="47.13095" lon="-1.75571">
        <ele>77</ele>
        <time>2021-02-20T11:09:21.000Z</time>
      </trkpt>
      <trkpt lat="47.13093" lon="-1.75586">
        <ele>76</ele>
        <time>2021-02-20T11:09:23.000Z</time>
      </trkpt>
      <trkpt lat="47.1309" lon="-1.75602">
        <ele>76</ele>
        <time>2021-02-20T11:09:25.000Z</time>
      </trkpt>
      <trkpt lat="47.13087" lon="-1.75618">
        <ele>76</ele>
        <time>2021-02-20T11:09:27.000Z</time>
      </trkpt>
      <trkpt lat="47.13084" lon="-1.75634">
        <ele>76</ele>
        <time>2021-02-20T11:09:29.000Z</time>
      </trkpt>
      <trkpt lat="47.13081" lon="-1.75651">
        <ele>76</ele>
        <time>2021-02-20T11:09:31.000Z</time>
      </trkpt>
      <trkpt lat="47.13078" lon="-1.75668">
        <ele>76</ele>
        <time>2021-02-20T11:09:33.000Z</time>
      </trkpt>
      <trkpt lat="47.13075" lon="-1.75684">
        <ele>76</ele>
        <time>2021-02-20T11:09:35.000Z</time>
      </trkpt>
      <trkpt lat="47.13071" lon="-1.75699">
        <ele>77</ele>
        <time>2021-02-20T11:09:37.000Z</time>
      </trkpt>
      <trkpt lat="47.13068" lon="-1.75714">
        <ele>77</ele>
        <time>2021-02-20T11:09:39.000Z</time>
      </trkpt>
      <trkpt lat="47.13063" lon="-1.75727">
        <ele>77</ele>
        <time>2021-02-20T11:09:41.000Z</time>
      </trkpt>
      <trkpt lat="47.13057" lon="-1.75741">
        <ele>77</ele>
        <time>2021-02-20T11:09:43.000Z</time>
      </trkpt>
      <trkpt lat="47.1305" lon="-1.75754">
        <ele>77</ele>
        <time>2021-02-20T11:09:45.000Z</time>
      </trkpt>
      <trkpt lat="47.13042" lon="-1.75766">
        <ele>78</ele>
        <time>2021-02-20T11:09:47.000Z</time>
      </trkpt>
      <trkpt lat="47.13034" lon="-1.75778">
        <ele>77</ele>
        <time>2021-02-20T11:09:49.000Z</time>
      </trkpt>
      <trkpt lat="47.13026" lon="-1.7579">
        <ele>78</ele>
        <time>2021-02-20T11:09:51.000Z</time>
      </trkpt>
      <trkpt lat="47.13019" lon="-1.75803">
        <ele>78</ele>
        <time>2021-02-20T11:09:53.000Z</time>
      </trkpt>
      <trkpt lat="47.13012" lon="-1.75814">
        <ele>77</ele>
        <time>2021-02-20T11:09:55.000Z</time>
      </trkpt>
      <trkpt lat="47.13009" lon="-1.75829">
        <ele>78</ele>
        <time>2021-02-20T11:09:57.000Z</time>
      </trkpt>
      <trkpt lat="47.13009" lon="-1.75845">
        <ele>78</ele>
        <time>2021-02-20T11:09:59.000Z</time>
      </trkpt>
      <trkpt lat="47.13011" lon="-1.75862">
        <ele>78</ele>
        <time>2021-02-20T11:10:01.000Z</time>
      </trkpt>
      <trkpt lat="47.13011" lon="-1.75879">
        <ele>78</ele>
        <time>2021-02-20T11:10:03.000Z</time>
      </trkpt>
      <trkpt lat="47.13009" lon="-1.75896">
        <ele>78</ele>
        <time>2021-02-20T11:10:05.000Z</time>
      </trkpt>
      <trkpt lat="47.13005" lon="-1.75913">
        <ele>79</ele>
        <time>2021-02-20T11:10:07.000Z</time>
      </trkpt>
      <trkpt lat="47.13" lon="-1.7593">
        <ele>79</ele>
        <time>2021-02-20T11:10:09.000Z</time>
      </trkpt>
      <trkpt lat="47.12997" lon="-1.75947">
        <ele>79</ele>
        <time>2021-02-20T11:10:11.000Z</time>
      </trkpt>
      <trkpt lat="47.12994" lon="-1.75964">
        <ele>80</ele>
        <time>2021-02-20T11:10:13.000Z</time>
      </trkpt>
      <trkpt lat="47.12992" lon="-1.75981">
        <ele>80</ele>
        <time>2021-02-20T11:10:15.000Z</time>
      </trkpt>
      <trkpt lat="47.1299" lon="-1.75998">
        <ele>80</ele>
        <time>2021-02-20T11:10:17.000Z</time>
      </trkpt>
      <trkpt lat="47.12988" lon="-1.76015">
        <ele>80</ele>
        <time>2021-02-20T11:10:19.000Z</time>
      </trkpt>
      <trkpt lat="47.12987" lon="-1.76032">
        <ele>80</ele>
        <time>2021-02-20T11:10:21.000Z</time>
      </trkpt>
      <trkpt lat="47.12986" lon="-1.76049">
        <ele>80</ele>
        <time>2021-02-20T11:10:23.000Z</time>
      </trkpt>
      <trkpt lat="47.12986" lon="-1.76066">
        <ele>80</ele>
        <time>2021-02-20T11:10:25.000Z</time>
      </trkpt>
      <trkpt lat="47.12986" lon="-1.76083">
        <ele>80</ele>
        <time>2021-02-20T11:10:27.000Z</time>
      </trkpt>
      <trkpt lat="47.12988" lon="-1.76101">
        <ele>81</ele>
        <time>2021-02-20T11:10:29.000Z</time>
      </trkpt>
      <trkpt lat="47.12991" lon="-1.76118">
        <ele>81</ele>
        <time>2021-02-20T11:10:31.000Z</time>
      </trkpt>
      <trkpt lat="47.12994" lon="-1.76135">
        <ele>81</ele>
        <time>2021-02-20T11:10:33.000Z</time>
      </trkpt>
      <trkpt lat="47.12998" lon="-1.76152">
        <ele>80</ele>
        <time>2021-02-20T11:10:35.000Z</time>
      </trkpt>
      <trkpt lat="47.13003" lon="-1.7617">
        <ele>80</ele>
        <time>2021-02-20T11:10:37.000Z</time>
      </trkpt>
      <trkpt lat="47.13007" lon="-1.76188">
        <ele>80</ele>
        <time>2021-02-20T11:10:39.000Z</time>
      </trkpt>
      <trkpt lat="47.13012" lon="-1.76205">
        <ele>80</ele>
        <time>2021-02-20T11:10:41.000Z</time>
      </trkpt>
      <trkpt lat="47.13017" lon="-1.76224">
        <ele>80</ele>
        <time>2021-02-20T11:10:43.000Z</time>
      </trkpt>
      <trkpt lat="47.13022" lon="-1.76243">
        <ele>80</ele>
        <time>2021-02-20T11:10:45.000Z</time>
      </trkpt>
      <trkpt lat="47.13027" lon="-1.76261">
        <ele>80</ele>
        <time>2021-02-20T11:10:47.000Z</time>
      </trkpt>
      <trkpt lat="47.13031" lon="-1.7628">
        <ele>80</ele>
        <time>2021-02-20T11:10:49.000Z</time>
      </trkpt>
      <trkpt lat="47.13034" lon="-1.76299">
        <ele>80</ele>
        <time>2021-02-20T11:10:51.000Z</time>
      </trkpt>
      <trkpt lat="47.13038" lon="-1.76319">
        <ele>80</ele>
        <time>2021-02-20T11:10:53.000Z</time>
      </trkpt>
      <trkpt lat="47.13041" lon="-1.76339">
        <ele>81</ele>
        <time>2021-02-20T11:10:55.000Z</time>
      </trkpt>
      <trkpt lat="47.13045" lon="-1.76359">
        <ele>81</ele>
        <time>2021-02-20T11:10:57.000Z</time>
      </trkpt>
      <trkpt lat="47.13049" lon="-1.76379">
        <ele>80</ele>
        <time>2021-02-20T11:10:59.000Z</time>
      </trkpt>
      <trkpt lat="47.13051" lon="-1.76399">
        <ele>80</ele>
        <time>2021-02-20T11:11:01.000Z</time>
      </trkpt>
      <trkpt lat="47.13053" lon="-1.7642">
        <ele>80</ele>
        <time>2021-02-20T11:11:03.000Z</time>
      </trkpt>
      <trkpt lat="47.13055" lon="-1.76441">
        <ele>80</ele>
        <time>2021-02-20T11:11:05.000Z</time>
      </trkpt>
      <trkpt lat="47.13056" lon="-1.76461">
        <ele>79</ele>
        <time>2021-02-20T11:11:07.000Z</time>
      </trkpt>
      <trkpt lat="47.13057" lon="-1.76482">
        <ele>79</ele>
        <time>2021-02-20T11:11:09.000Z</time>
      </trkpt>
      <trkpt lat="47.13058" lon="-1.76502">
        <ele>79</ele>
        <time>2021-02-20T11:11:11.000Z</time>
      </trkpt>
      <trkpt lat="47.13059" lon="-1.76522">
        <ele>79</ele>
        <time>2021-02-20T11:11:13.000Z</time>
      </trkpt>
      <trkpt lat="47.1306" lon="-1.76543">
        <ele>79</ele>
        <time>2021-02-20T11:11:15.000Z</time>
      </trkpt>
      <trkpt lat="47.13061" lon="-1.76563">
        <ele>79</ele>
        <time>2021-02-20T11:11:17.000Z</time>
      </trkpt>
      <trkpt lat="47.13063" lon="-1.76584">
        <ele>79</ele>
        <time>2021-02-20T11:11:19.000Z</time>
      </trkpt>
      <trkpt lat="47.13065" lon="-1.76604">
        <ele>79</ele>
        <time>2021-02-20T11:11:21.000Z</time>
      </trkpt>
      <trkpt lat="47.13066" lon="-1.76625">
        <ele>79</ele>
        <time>2021-02-20T11:11:23.000Z</time>
      </trkpt>
      <trkpt lat="47.13068" lon="-1.76646">
        <ele>79</ele>
        <time>2021-02-20T11:11:25.000Z</time>
      </trkpt>
      <trkpt lat="47.13071" lon="-1.76666">
        <ele>79</ele>
        <time>2021-02-20T11:11:27.000Z</time>
      </trkpt>
      <trkpt lat="47.13071" lon="-1.76686">
        <ele>79</ele>
        <time>2021-02-20T11:11:29.000Z</time>
      </trkpt>
      <trkpt lat="47.1307" lon="-1.76706">
        <ele>79</ele>
        <time>2021-02-20T11:11:31.000Z</time>
      </trkpt>
      <trkpt lat="47.13068" lon="-1.76725">
        <ele>79</ele>
        <time>2021-02-20T11:11:33.000Z</time>
      </trkpt>
      <trkpt lat="47.13065" lon="-1.76744">
        <ele>79</ele>
        <time>2021-02-20T11:11:35.000Z</time>
      </trkpt>
      <trkpt lat="47.13063" lon="-1.76763">
        <ele>79</ele>
        <time>2021-02-20T11:11:37.000Z</time>
      </trkpt>
      <trkpt lat="47.1306" lon="-1.76783">
        <ele>79</ele>
        <time>2021-02-20T11:11:39.000Z</time>
      </trkpt>
      <trkpt lat="47.13058" lon="-1.76803">
        <ele>79</ele>
        <time>2021-02-20T11:11:41.000Z</time>
      </trkpt>
      <trkpt lat="47.13056" lon="-1.76821">
        <ele>79</ele>
        <time>2021-02-20T11:11:43.000Z</time>
      </trkpt>
      <trkpt lat="47.13053" lon="-1.7684">
        <ele>79</ele>
        <time>2021-02-20T11:11:45.000Z</time>
      </trkpt>
      <trkpt lat="47.13051" lon="-1.76859">
        <ele>79</ele>
        <time>2021-02-20T11:11:47.000Z</time>
      </trkpt>
      <trkpt lat="47.13049" lon="-1.76878">
        <ele>79</ele>
        <time>2021-02-20T11:11:49.000Z</time>
      </trkpt>
      <trkpt lat="47.13047" lon="-1.76897">
        <ele>80</ele>
        <time>2021-02-20T11:11:51.000Z</time>
      </trkpt>
      <trkpt lat="47.13046" lon="-1.76916">
        <ele>80</ele>
        <time>2021-02-20T11:11:53.000Z</time>
      </trkpt>
      <trkpt lat="47.13044" lon="-1.76934">
        <ele>80</ele>
        <time>2021-02-20T11:11:55.000Z</time>
      </trkpt>
      <trkpt lat="47.13043" lon="-1.76951">
        <ele>81</ele>
        <time>2021-02-20T11:11:57.000Z</time>
      </trkpt>
      <trkpt lat="47.13042" lon="-1.76968">
        <ele>81</ele>
        <time>2021-02-20T11:11:59.000Z</time>
      </trkpt>
      <trkpt lat="47.13041" lon="-1.76986">
        <ele>81</ele>
        <time>2021-02-20T11:12:01.000Z</time>
      </trkpt>
      <trkpt lat="47.1304" lon="-1.77004">
        <ele>81</ele>
        <time>2021-02-20T11:12:03.000Z</time>
      </trkpt>
      <trkpt lat="47.1304" lon="-1.77023">
        <ele>81</ele>
        <time>2021-02-20T11:12:05.000Z</time>
      </trkpt>
      <trkpt lat="47.13038" lon="-1.7704">
        <ele>81</ele>
        <time>2021-02-20T11:12:07.000Z</time>
      </trkpt>
      <trkpt lat="47.13037" lon="-1.77058">
        <ele>82</ele>
        <time>2021-02-20T11:12:09.000Z</time>
      </trkpt>
      <trkpt lat="47.13035" lon="-1.77075">
        <ele>82</ele>
        <time>2021-02-20T11:12:11.000Z</time>
      </trkpt>
      <trkpt lat="47.13033" lon="-1.77092">
        <ele>82</ele>
        <time>2021-02-20T11:12:13.000Z</time>
      </trkpt>
      <trkpt lat="47.13031" lon="-1.77108">
        <ele>81</ele>
        <time>2021-02-20T11:12:15.000Z</time>
      </trkpt>
      <trkpt lat="47.13029" lon="-1.77124">
        <ele>81</ele>
        <time>2021-02-20T11:12:17.000Z</time>
      </trkpt>
      <trkpt lat="47.13026" lon="-1.7714">
        <ele>82</ele>
        <time>2021-02-20T11:12:19.000Z</time>
      </trkpt>
      <trkpt lat="47.13024" lon="-1.77156">
        <ele>82</ele>
        <time>2021-02-20T11:12:21.000Z</time>
      </trkpt>
      <trkpt lat="47.13021" lon="-1.77171">
        <ele>82</ele>
        <time>2021-02-20T11:12:23.000Z</time>
      </trkpt>
      <trkpt lat="47.13018" lon="-1.77186">
        <ele>82</ele>
        <time>2021-02-20T11:12:25.000Z</time>
      </trkpt>
      <trkpt lat="47.13014" lon="-1.77202">
        <ele>82</ele>
        <time>2021-02-20T11:12:27.000Z</time>
      </trkpt>
      <trkpt lat="47.1301" lon="-1.77216">
        <ele>82</ele>
        <time>2021-02-20T11:12:29.000Z</time>
      </trkpt>
      <trkpt lat="47.13006" lon="-1.77232">
        <ele>82</ele>
        <time>2021-02-20T11:12:31.000Z</time>
      </trkpt>
      <trkpt lat="47.13002" lon="-1.77248">
        <ele>82</ele>
        <time>2021-02-20T11:12:33.000Z</time>
      </trkpt>
      <trkpt lat="47.12997" lon="-1.77264">
        <ele>83</ele>
        <time>2021-02-20T11:12:35.000Z</time>
      </trkpt>
      <trkpt lat="47.12992" lon="-1.7728">
        <ele>82</ele>
        <time>2021-02-20T11:12:37.000Z</time>
      </trkpt>
      <trkpt lat="47.12986" lon="-1.77296">
        <ele>82</ele>
        <time>2021-02-20T11:12:39.000Z</time>
      </trkpt>
      <trkpt lat="47.12981" lon="-1.77311">
        <ele>82</ele>
        <time>2021-02-20T11:12:41.000Z</time>
      </trkpt>
      <trkpt lat="47.12975" lon="-1.77327">
        <ele>82</ele>
        <time>2021-02-20T11:12:43.000Z</time>
      </trkpt>
      <trkpt lat="47.12969" lon="-1.77342">
        <ele>83</ele>
        <time>2021-02-20T11:12:45.000Z</time>
      </trkpt>
      <trkpt lat="47.12963" lon="-1.77357">
        <ele>83</ele>
        <time>2021-02-20T11:12:47.000Z</time>
      </trkpt>
      <trkpt lat="47.12957" lon="-1.77372">
        <ele>83</ele>
        <time>2021-02-20T11:12:49.000Z</time>
      </trkpt>
      <trkpt lat="47.12951" lon="-1.77387">
        <ele>83</ele>
        <time>2021-02-20T11:12:51.000Z</time>
      </trkpt>
      <trkpt lat="47.12945" lon="-1.77402">
        <ele>82</ele>
        <time>2021-02-20T11:12:53.000Z</time>
      </trkpt>
      <trkpt lat="47.12938" lon="-1.77418">
        <ele>83</ele>
        <time>2021-02-20T11:12:55.000Z</time>
      </trkpt>
      <trkpt lat="47.12933" lon="-1.77434">
        <ele>83</ele>
        <time>2021-02-20T11:12:57.000Z</time>
      </trkpt>
      <trkpt lat="47.12927" lon="-1.77449">
        <ele>83</ele>
        <time>2021-02-20T11:12:59.000Z</time>
      </trkpt>
      <trkpt lat="47.12922" lon="-1.77465">
        <ele>83</ele>
        <time>2021-02-20T11:13:01.000Z</time>
      </trkpt>
      <trkpt lat="47.12917" lon="-1.7748">
        <ele>83</ele>
        <time>2021-02-20T11:13:03.000Z</time>
      </trkpt>
      <trkpt lat="47.12913" lon="-1.77496">
        <ele>83</ele>
        <time>2021-02-20T11:13:05.000Z</time>
      </trkpt>
      <trkpt lat="47.12909" lon="-1.77512">
        <ele>83</ele>
        <time>2021-02-20T11:13:07.000Z</time>
      </trkpt>
      <trkpt lat="47.12905" lon="-1.77528">
        <ele>83</ele>
        <time>2021-02-20T11:13:09.000Z</time>
      </trkpt>
      <trkpt lat="47.12901" lon="-1.77543">
        <ele>83</ele>
        <time>2021-02-20T11:13:11.000Z</time>
      </trkpt>
      <trkpt lat="47.12898" lon="-1.7756">
        <ele>83</ele>
        <time>2021-02-20T11:13:13.000Z</time>
      </trkpt>
      <trkpt lat="47.12893" lon="-1.77576">
        <ele>83</ele>
        <time>2021-02-20T11:13:15.000Z</time>
      </trkpt>
      <trkpt lat="47.1289" lon="-1.77592">
        <ele>83</ele>
        <time>2021-02-20T11:13:17.000Z</time>
      </trkpt>
      <trkpt lat="47.12886" lon="-1.77609">
        <ele>83</ele>
        <time>2021-02-20T11:13:19.000Z</time>
      </trkpt>
      <trkpt lat="47.12882" lon="-1.77625">
        <ele>84</ele>
        <time>2021-02-20T11:13:21.000Z</time>
      </trkpt>
      <trkpt lat="47.12878" lon="-1.77642">
        <ele>84</ele>
        <time>2021-02-20T11:13:23.000Z</time>
      </trkpt>
      <trkpt lat="47.12874" lon="-1.77658">
        <ele>85</ele>
        <time>2021-02-20T11:13:25.000Z</time>
      </trkpt>
      <trkpt lat="47.1287" lon="-1.77675">
        <ele>85</ele>
        <time>2021-02-20T11:13:27.000Z</time>
      </trkpt>
      <trkpt lat="47.12866" lon="-1.77692">
        <ele>85</ele>
        <time>2021-02-20T11:13:29.000Z</time>
      </trkpt>
      <trkpt lat="47.12861" lon="-1.7771">
        <ele>85</ele>
        <time>2021-02-20T11:13:31.000Z</time>
      </trkpt>
      <trkpt lat="47.12856" lon="-1.77728">
        <ele>85</ele>
        <time>2021-02-20T11:13:33.000Z</time>
      </trkpt>
      <trkpt lat="47.12851" lon="-1.77746">
        <ele>85</ele>
        <time>2021-02-20T11:13:35.000Z</time>
      </trkpt>
      <trkpt lat="47.12846" lon="-1.77762">
        <ele>84</ele>
        <time>2021-02-20T11:13:37.000Z</time>
      </trkpt>
      <trkpt lat="47.1284" lon="-1.77778">
        <ele>85</ele>
        <time>2021-02-20T11:13:39.000Z</time>
      </trkpt>
      <trkpt lat="47.12834" lon="-1.77794">
        <ele>85</ele>
        <time>2021-02-20T11:13:41.000Z</time>
      </trkpt>
      <trkpt lat="47.12828" lon="-1.7781">
        <ele>84</ele>
        <time>2021-02-20T11:13:43.000Z</time>
      </trkpt>
      <trkpt lat="47.12821" lon="-1.77826">
        <ele>84</ele>
        <time>2021-02-20T11:13:45.000Z</time>
      </trkpt>
      <trkpt lat="47.12815" lon="-1.77843">
        <ele>84</ele>
        <time>2021-02-20T11:13:47.000Z</time>
      </trkpt>
      <trkpt lat="47.12809" lon="-1.77859">
        <ele>84</ele>
        <time>2021-02-20T11:13:49.000Z</time>
      </trkpt>
      <trkpt lat="47.12803" lon="-1.77876">
        <ele>84</ele>
        <time>2021-02-20T11:13:51.000Z</time>
      </trkpt>
      <trkpt lat="47.12798" lon="-1.77893">
        <ele>84</ele>
        <time>2021-02-20T11:13:53.000Z</time>
      </trkpt>
      <trkpt lat="47.12793" lon="-1.7791">
        <ele>83</ele>
        <time>2021-02-20T11:13:55.000Z</time>
      </trkpt>
      <trkpt lat="47.12787" lon="-1.77927">
        <ele>84</ele>
        <time>2021-02-20T11:13:57.000Z</time>
      </trkpt>
      <trkpt lat="47.12783" lon="-1.77944">
        <ele>84</ele>
        <time>2021-02-20T11:13:59.000Z</time>
      </trkpt>
      <trkpt lat="47.12778" lon="-1.77962">
        <ele>84</ele>
        <time>2021-02-20T11:14:01.000Z</time>
      </trkpt>
      <trkpt lat="47.12774" lon="-1.77978">
        <ele>83</ele>
        <time>2021-02-20T11:14:03.000Z</time>
      </trkpt>
      <trkpt lat="47.12769" lon="-1.77994">
        <ele>83</ele>
        <time>2021-02-20T11:14:05.000Z</time>
      </trkpt>
      <trkpt lat="47.12763" lon="-1.78011">
        <ele>83</ele>
        <time>2021-02-20T11:14:07.000Z</time>
      </trkpt>
      <trkpt lat="47.12758" lon="-1.78029">
        <ele>83</ele>
        <time>2021-02-20T11:14:09.000Z</time>
      </trkpt>
      <trkpt lat="47.12751" lon="-1.78045">
        <ele>83</ele>
        <time>2021-02-20T11:14:11.000Z</time>
      </trkpt>
      <trkpt lat="47.12744" lon="-1.7806">
        <ele>82</ele>
        <time>2021-02-20T11:14:13.000Z</time>
      </trkpt>
      <trkpt lat="47.12735" lon="-1.78074">
        <ele>83</ele>
        <time>2021-02-20T11:14:15.000Z</time>
      </trkpt>
      <trkpt lat="47.12726" lon="-1.78087">
        <ele>83</ele>
        <time>2021-02-20T11:14:17.000Z</time>
      </trkpt>
      <trkpt lat="47.12717" lon="-1.78099">
        <ele>83</ele>
        <time>2021-02-20T11:14:19.000Z</time>
      </trkpt>
      <trkpt lat="47.12708" lon="-1.78111">
        <ele>83</ele>
        <time>2021-02-20T11:14:21.000Z</time>
      </trkpt>
      <trkpt lat="47.12699" lon="-1.78124">
        <ele>83</ele>
        <time>2021-02-20T11:14:23.000Z</time>
      </trkpt>
      <trkpt lat="47.12691" lon="-1.78136">
        <ele>82</ele>
        <time>2021-02-20T11:14:25.000Z</time>
      </trkpt>
      <trkpt lat="47.12681" lon="-1.78149">
        <ele>82</ele>
        <time>2021-02-20T11:14:27.000Z</time>
      </trkpt>
      <trkpt lat="47.12672" lon="-1.78161">
        <ele>82</ele>
        <time>2021-02-20T11:14:29.000Z</time>
      </trkpt>
      <trkpt lat="47.12664" lon="-1.78173">
        <ele>82</ele>
        <time>2021-02-20T11:14:31.000Z</time>
      </trkpt>
      <trkpt lat="47.12655" lon="-1.78185">
        <ele>82</ele>
        <time>2021-02-20T11:14:33.000Z</time>
      </trkpt>
      <trkpt lat="47.12646" lon="-1.78198">
        <ele>82</ele>
        <time>2021-02-20T11:14:35.000Z</time>
      </trkpt>
      <trkpt lat="47.12638" lon="-1.78211">
        <ele>82</ele>
        <time>2021-02-20T11:14:37.000Z</time>
      </trkpt>
      <trkpt lat="47.1263" lon="-1.78226">
        <ele>82</ele>
        <time>2021-02-20T11:14:39.000Z</time>
      </trkpt>
      <trkpt lat="47.12625" lon="-1.78242">
        <ele>82</ele>
        <time>2021-02-20T11:14:41.000Z</time>
      </trkpt>
      <trkpt lat="47.1262" lon="-1.7826">
        <ele>82</ele>
        <time>2021-02-20T11:14:43.000Z</time>
      </trkpt>
      <trkpt lat="47.12616" lon="-1.78277">
        <ele>82</ele>
        <time>2021-02-20T11:14:45.000Z</time>
      </trkpt>
      <trkpt lat="47.12612" lon="-1.78295">
        <ele>81</ele>
        <time>2021-02-20T11:14:47.000Z</time>
      </trkpt>
      <trkpt lat="47.12608" lon="-1.78312">
        <ele>81</ele>
        <time>2021-02-20T11:14:49.000Z</time>
      </trkpt>
      <trkpt lat="47.12604" lon="-1.7833">
        <ele>81</ele>
        <time>2021-02-20T11:14:51.000Z</time>
      </trkpt>
      <trkpt lat="47.126" lon="-1.78347">
        <ele>80</ele>
        <time>2021-02-20T11:14:53.000Z</time>
      </trkpt>
      <trkpt lat="47.12596" lon="-1.78365">
        <ele>80</ele>
        <time>2021-02-20T11:14:55.000Z</time>
      </trkpt>
      <trkpt lat="47.12592" lon="-1.78382">
        <ele>79</ele>
        <time>2021-02-20T11:14:57.000Z</time>
      </trkpt>
      <trkpt lat="47.12588" lon="-1.78398">
        <ele>79</ele>
        <time>2021-02-20T11:14:59.000Z</time>
      </trkpt>
      <trkpt lat="47.12584" lon="-1.78415">
        <ele>79</ele>
        <time>2021-02-20T11:15:01.000Z</time>
      </trkpt>
      <trkpt lat="47.1258" lon="-1.78433">
        <ele>79</ele>
        <time>2021-02-20T11:15:03.000Z</time>
      </trkpt>
      <trkpt lat="47.12576" lon="-1.7845">
        <ele>79</ele>
        <time>2021-02-20T11:15:05.000Z</time>
      </trkpt>
      <trkpt lat="47.12572" lon="-1.78468">
        <ele>79</ele>
        <time>2021-02-20T11:15:07.000Z</time>
      </trkpt>
      <trkpt lat="47.12567" lon="-1.78486">
        <ele>79</ele>
        <time>2021-02-20T11:15:09.000Z</time>
      </trkpt>
      <trkpt lat="47.12563" lon="-1.78505">
        <ele>78</ele>
        <time>2021-02-20T11:15:11.000Z</time>
      </trkpt>
      <trkpt lat="47.12558" lon="-1.78523">
        <ele>78</ele>
        <time>2021-02-20T11:15:13.000Z</time>
      </trkpt>
      <trkpt lat="47.12554" lon="-1.78541">
        <ele>78</ele>
        <time>2021-02-20T11:15:15.000Z</time>
      </trkpt>
      <trkpt lat="47.1255" lon="-1.78559">
        <ele>78</ele>
        <time>2021-02-20T11:15:17.000Z</time>
      </trkpt>
      <trkpt lat="47.12546" lon="-1.78577">
        <ele>78</ele>
        <time>2021-02-20T11:15:19.000Z</time>
      </trkpt>
      <trkpt lat="47.12541" lon="-1.78594">
        <ele>78</ele>
        <time>2021-02-20T11:15:21.000Z</time>
      </trkpt>
      <trkpt lat="47.12537" lon="-1.78611">
        <ele>78</ele>
        <time>2021-02-20T11:15:23.000Z</time>
      </trkpt>
      <trkpt lat="47.12532" lon="-1.78628">
        <ele>78</ele>
        <time>2021-02-20T11:15:25.000Z</time>
      </trkpt>
      <trkpt lat="47.12527" lon="-1.78643">
        <ele>78</ele>
        <time>2021-02-20T11:15:27.000Z</time>
      </trkpt>
      <trkpt lat="47.12521" lon="-1.78659">
        <ele>78</ele>
        <time>2021-02-20T11:15:29.000Z</time>
      </trkpt>
      <trkpt lat="47.12516" lon="-1.78674">
        <ele>78</ele>
        <time>2021-02-20T11:15:31.000Z</time>
      </trkpt>
      <trkpt lat="47.1251" lon="-1.78689">
        <ele>78</ele>
        <time>2021-02-20T11:15:33.000Z</time>
      </trkpt>
      <trkpt lat="47.12505" lon="-1.78704">
        <ele>78</ele>
        <time>2021-02-20T11:15:35.000Z</time>
      </trkpt>
      <trkpt lat="47.12501" lon="-1.78719">
        <ele>78</ele>
        <time>2021-02-20T11:15:37.000Z</time>
      </trkpt>
      <trkpt lat="47.12497" lon="-1.78734">
        <ele>78</ele>
        <time>2021-02-20T11:15:39.000Z</time>
      </trkpt>
      <trkpt lat="47.12493" lon="-1.7875">
        <ele>78</ele>
        <time>2021-02-20T11:15:41.000Z</time>
      </trkpt>
      <trkpt lat="47.12489" lon="-1.78765">
        <ele>78</ele>
        <time>2021-02-20T11:15:43.000Z</time>
      </trkpt>
      <trkpt lat="47.12486" lon="-1.78781">
        <ele>78</ele>
        <time>2021-02-20T11:15:45.000Z</time>
      </trkpt>
      <trkpt lat="47.12482" lon="-1.78797">
        <ele>78</ele>
        <time>2021-02-20T11:15:47.000Z</time>
      </trkpt>
      <trkpt lat="47.12479" lon="-1.78813">
        <ele>78</ele>
        <time>2021-02-20T11:15:49.000Z</time>
      </trkpt>
      <trkpt lat="47.12476" lon="-1.7883">
        <ele>78</ele>
        <time>2021-02-20T11:15:51.000Z</time>
      </trkpt>
      <trkpt lat="47.12473" lon="-1.78847">
        <ele>77</ele>
        <time>2021-02-20T11:15:53.000Z</time>
      </trkpt>
      <trkpt lat="47.12471" lon="-1.78864">
        <ele>77</ele>
        <time>2021-02-20T11:15:55.000Z</time>
      </trkpt>
      <trkpt lat="47.1247" lon="-1.78883">
        <ele>77</ele>
        <time>2021-02-20T11:15:57.000Z</time>
      </trkpt>
      <trkpt lat="47.12469" lon="-1.789">
        <ele>77</ele>
        <time>2021-02-20T11:15:59.000Z</time>
      </trkpt>
      <trkpt lat="47.12466" lon="-1.78918">
        <ele>77</ele>
        <time>2021-02-20T11:16:01.000Z</time>
      </trkpt>
      <trkpt lat="47.12462" lon="-1.78935">
        <ele>77</ele>
        <time>2021-02-20T11:16:03.000Z</time>
      </trkpt>
      <trkpt lat="47.12458" lon="-1.78953">
        <ele>77</ele>
        <time>2021-02-20T11:16:05.000Z</time>
      </trkpt>
      <trkpt lat="47.12455" lon="-1.78969">
        <ele>76</ele>
        <time>2021-02-20T11:16:07.000Z</time>
      </trkpt>
      <trkpt lat="47.1245" lon="-1.78986">
        <ele>76</ele>
        <time>2021-02-20T11:16:09.000Z</time>
      </trkpt>
      <trkpt lat="47.12445" lon="-1.79003">
        <ele>77</ele>
        <time>2021-02-20T11:16:11.000Z</time>
      </trkpt>
      <trkpt lat="47.12441" lon="-1.79019">
        <ele>77</ele>
        <time>2021-02-20T11:16:13.000Z</time>
      </trkpt>
      <trkpt lat="47.12437" lon="-1.79037">
        <ele>77</ele>
        <time>2021-02-20T11:16:15.000Z</time>
      </trkpt>
      <trkpt lat="47.12433" lon="-1.79054">
        <ele>77</ele>
        <time>2021-02-20T11:16:17.000Z</time>
      </trkpt>
      <trkpt lat="47.1243" lon="-1.79072">
        <ele>77</ele>
        <time>2021-02-20T11:16:19.000Z</time>
      </trkpt>
      <trkpt lat="47.12426" lon="-1.79089">
        <ele>77</ele>
        <time>2021-02-20T11:16:21.000Z</time>
      </trkpt>
      <trkpt lat="47.12423" lon="-1.79106">
        <ele>77</ele>
        <time>2021-02-20T11:16:23.000Z</time>
      </trkpt>
      <trkpt lat="47.12421" lon="-1.79123">
        <ele>77</ele>
        <time>2021-02-20T11:16:25.000Z</time>
      </trkpt>
      <trkpt lat="47.1242" lon="-1.7914">
        <ele>77</ele>
        <time>2021-02-20T11:16:27.000Z</time>
      </trkpt>
      <trkpt lat="47.1242" lon="-1.79158">
        <ele>77</ele>
        <time>2021-02-20T11:16:29.000Z</time>
      </trkpt>
      <trkpt lat="47.12421" lon="-1.79175">
        <ele>77</ele>
        <time>2021-02-20T11:16:31.000Z</time>
      </trkpt>
      <trkpt lat="47.12423" lon="-1.79193">
        <ele>77</ele>
        <time>2021-02-20T11:16:33.000Z</time>
      </trkpt>
      <trkpt lat="47.12425" lon="-1.79212">
        <ele>77</ele>
        <time>2021-02-20T11:16:35.000Z</time>
      </trkpt>
      <trkpt lat="47.12426" lon="-1.7923">
        <ele>77</ele>
        <time>2021-02-20T11:16:37.000Z</time>
      </trkpt>
      <trkpt lat="47.12426" lon="-1.79249">
        <ele>77</ele>
        <time>2021-02-20T11:16:39.000Z</time>
      </trkpt>
      <trkpt lat="47.12424" lon="-1.79266">
        <ele>77</ele>
        <time>2021-02-20T11:16:41.000Z</time>
      </trkpt>
      <trkpt lat="47.12419" lon="-1.79281">
        <ele>77</ele>
        <time>2021-02-20T11:16:43.000Z</time>
      </trkpt>
      <trkpt lat="47.12413" lon="-1.79297">
        <ele>77</ele>
        <time>2021-02-20T11:16:45.000Z</time>
      </trkpt>
      <trkpt lat="47.12407" lon="-1.79311">
        <ele>77</ele>
        <time>2021-02-20T11:16:47.000Z</time>
      </trkpt>
      <trkpt lat="47.124" lon="-1.79325">
        <ele>77</ele>
        <time>2021-02-20T11:16:49.000Z</time>
      </trkpt>
      <trkpt lat="47.12393" lon="-1.79339">
        <ele>77</ele>
        <time>2021-02-20T11:16:51.000Z</time>
      </trkpt>
      <trkpt lat="47.12386" lon="-1.79353">
        <ele>77</ele>
        <time>2021-02-20T11:16:53.000Z</time>
      </trkpt>
      <trkpt lat="47.1238" lon="-1.79367">
        <ele>77</ele>
        <time>2021-02-20T11:16:55.000Z</time>
      </trkpt>
      <trkpt lat="47.12374" lon="-1.79382">
        <ele>78</ele>
        <time>2021-02-20T11:16:57.000Z</time>
      </trkpt>
      <trkpt lat="47.12368" lon="-1.79398">
        <ele>77</ele>
        <time>2021-02-20T11:16:59.000Z</time>
      </trkpt>
      <trkpt lat="47.12363" lon="-1.79413">
        <ele>77</ele>
        <time>2021-02-20T11:17:01.000Z</time>
      </trkpt>
      <trkpt lat="47.12357" lon="-1.7943">
        <ele>77</ele>
        <time>2021-02-20T11:17:03.000Z</time>
      </trkpt>
      <trkpt lat="47.12353" lon="-1.79447">
        <ele>76</ele>
        <time>2021-02-20T11:17:05.000Z</time>
      </trkpt>
      <trkpt lat="47.1235" lon="-1.79464">
        <ele>77</ele>
        <time>2021-02-20T11:17:07.000Z</time>
      </trkpt>
      <trkpt lat="47.12347" lon="-1.79482">
        <ele>76</ele>
        <time>2021-02-20T11:17:09.000Z</time>
      </trkpt>
      <trkpt lat="47.12345" lon="-1.795">
        <ele>76</ele>
        <time>2021-02-20T11:17:11.000Z</time>
      </trkpt>
      <trkpt lat="47.12343" lon="-1.79517">
        <ele>77</ele>
        <time>2021-02-20T11:17:13.000Z</time>
      </trkpt>
      <trkpt lat="47.12341" lon="-1.79535">
        <ele>77</ele>
        <time>2021-02-20T11:17:15.000Z</time>
      </trkpt>
      <trkpt lat="47.12338" lon="-1.79552">
        <ele>77</ele>
        <time>2021-02-20T11:17:17.000Z</time>
      </trkpt>
      <trkpt lat="47.12335" lon="-1.79568">
        <ele>78</ele>
        <time>2021-02-20T11:17:19.000Z</time>
      </trkpt>
      <trkpt lat="47.12328" lon="-1.79583">
        <ele>77</ele>
        <time>2021-02-20T11:17:21.000Z</time>
      </trkpt>
      <trkpt lat="47.12318" lon="-1.79593">
        <ele>78</ele>
        <time>2021-02-20T11:17:23.000Z</time>
      </trkpt>
      <trkpt lat="47.12308" lon="-1.79597">
        <ele>78</ele>
        <time>2021-02-20T11:17:25.000Z</time>
      </trkpt>
      <trkpt lat="47.12296" lon="-1.79597">
        <ele>78</ele>
        <time>2021-02-20T11:17:27.000Z</time>
      </trkpt>
      <trkpt lat="47.12284" lon="-1.79597">
        <ele>78</ele>
        <time>2021-02-20T11:17:29.000Z</time>
      </trkpt>
      <trkpt lat="47.12273" lon="-1.79596">
        <ele>78</ele>
        <time>2021-02-20T11:17:31.000Z</time>
      </trkpt>
      <trkpt lat="47.12261" lon="-1.79596">
        <ele>78</ele>
        <time>2021-02-20T11:17:33.000Z</time>
      </trkpt>
      <trkpt lat="47.12249" lon="-1.79596">
        <ele>78</ele>
        <time>2021-02-20T11:17:35.000Z</time>
      </trkpt>
      <trkpt lat="47.12238" lon="-1.79596">
        <ele>78</ele>
        <time>2021-02-20T11:17:37.000Z</time>
      </trkpt>
      <trkpt lat="47.12227" lon="-1.79595">
        <ele>78</ele>
        <time>2021-02-20T11:17:39.000Z</time>
      </trkpt>
      <trkpt lat="47.12216" lon="-1.79595">
        <ele>78</ele>
        <time>2021-02-20T11:17:41.000Z</time>
      </trkpt>
      <trkpt lat="47.12206" lon="-1.79595">
        <ele>78</ele>
        <time>2021-02-20T11:17:43.000Z</time>
      </trkpt>
      <trkpt lat="47.12195" lon="-1.79594">
        <ele>78</ele>
        <time>2021-02-20T11:17:45.000Z</time>
      </trkpt>
      <trkpt lat="47.12185" lon="-1.79594">
        <ele>78</ele>
        <time>2021-02-20T11:17:47.000Z</time>
      </trkpt>
      <trkpt lat="47.12176" lon="-1.79595">
        <ele>78</ele>
        <time>2021-02-20T11:17:49.000Z</time>
      </trkpt>
      <trkpt lat="47.12166" lon="-1.79594">
        <ele>78</ele>
        <time>2021-02-20T11:17:51.000Z</time>
      </trkpt>
      <trkpt lat="47.12156" lon="-1.79595">
        <ele>77</ele>
        <time>2021-02-20T11:17:53.000Z</time>
      </trkpt>
      <trkpt lat="47.12145" lon="-1.79595">
        <ele>77</ele>
        <time>2021-02-20T11:17:55.000Z</time>
      </trkpt>
      <trkpt lat="47.12134" lon="-1.79596">
        <ele>76</ele>
        <time>2021-02-20T11:17:57.000Z</time>
      </trkpt>
      <trkpt lat="47.12122" lon="-1.79597">
        <ele>76</ele>
        <time>2021-02-20T11:17:59.000Z</time>
      </trkpt>
      <trkpt lat="47.12111" lon="-1.79598">
        <ele>76</ele>
        <time>2021-02-20T11:18:01.000Z</time>
      </trkpt>
      <trkpt lat="47.12099" lon="-1.79602">
        <ele>76</ele>
        <time>2021-02-20T11:18:03.000Z</time>
      </trkpt>
      <trkpt lat="47.12089" lon="-1.79609">
        <ele>75</ele>
        <time>2021-02-20T11:18:05.000Z</time>
      </trkpt>
      <trkpt lat="47.12079" lon="-1.79618">
        <ele>75</ele>
        <time>2021-02-20T11:18:07.000Z</time>
      </trkpt>
      <trkpt lat="47.12069" lon="-1.79628">
        <ele>75</ele>
        <time>2021-02-20T11:18:09.000Z</time>
      </trkpt>
      <trkpt lat="47.12059" lon="-1.79638">
        <ele>75</ele>
        <time>2021-02-20T11:18:11.000Z</time>
      </trkpt>
      <trkpt lat="47.12049" lon="-1.79648">
        <ele>75</ele>
        <time>2021-02-20T11:18:13.000Z</time>
      </trkpt>
      <trkpt lat="47.12039" lon="-1.79658">
        <ele>74</ele>
        <time>2021-02-20T11:18:15.000Z</time>
      </trkpt>
      <trkpt lat="47.1203" lon="-1.79668">
        <ele>74</ele>
        <time>2021-02-20T11:18:17.000Z</time>
      </trkpt>
      <trkpt lat="47.1202" lon="-1.79677">
        <ele>74</ele>
        <time>2021-02-20T11:18:19.000Z</time>
      </trkpt>
      <trkpt lat="47.1201" lon="-1.79686">
        <ele>74</ele>
        <time>2021-02-20T11:18:21.000Z</time>
      </trkpt>
      <trkpt lat="47.12" lon="-1.79697">
        <ele>74</ele>
        <time>2021-02-20T11:18:23.000Z</time>
      </trkpt>
      <trkpt lat="47.11991" lon="-1.79707">
        <ele>73</ele>
        <time>2021-02-20T11:18:25.000Z</time>
      </trkpt>
      <trkpt lat="47.1198" lon="-1.79717">
        <ele>73</ele>
        <time>2021-02-20T11:18:27.000Z</time>
      </trkpt>
      <trkpt lat="47.11971" lon="-1.79728">
        <ele>73</ele>
        <time>2021-02-20T11:18:29.000Z</time>
      </trkpt>
      <trkpt lat="47.11962" lon="-1.7974">
        <ele>73</ele>
        <time>2021-02-20T11:18:31.000Z</time>
      </trkpt>
      <trkpt lat="47.11952" lon="-1.79751">
        <ele>73</ele>
        <time>2021-02-20T11:18:33.000Z</time>
      </trkpt>
      <trkpt lat="47.11943" lon="-1.79763">
        <ele>73</ele>
        <time>2021-02-20T11:18:35.000Z</time>
      </trkpt>
      <trkpt lat="47.11933" lon="-1.79774">
        <ele>72</ele>
        <time>2021-02-20T11:18:37.000Z</time>
      </trkpt>
      <trkpt lat="47.11925" lon="-1.79786">
        <ele>72</ele>
        <time>2021-02-20T11:18:39.000Z</time>
      </trkpt>
      <trkpt lat="47.11915" lon="-1.79797">
        <ele>72</ele>
        <time>2021-02-20T11:18:41.000Z</time>
      </trkpt>
      <trkpt lat="47.11906" lon="-1.79809">
        <ele>72</ele>
        <time>2021-02-20T11:18:43.000Z</time>
      </trkpt>
      <trkpt lat="47.11897" lon="-1.79819">
        <ele>72</ele>
        <time>2021-02-20T11:18:45.000Z</time>
      </trkpt>
      <trkpt lat="47.11888" lon="-1.7983">
        <ele>72</ele>
        <time>2021-02-20T11:18:47.000Z</time>
      </trkpt>
      <trkpt lat="47.11879" lon="-1.79841">
        <ele>72</ele>
        <time>2021-02-20T11:18:49.000Z</time>
      </trkpt>
      <trkpt lat="47.11869" lon="-1.79852">
        <ele>72</ele>
        <time>2021-02-20T11:18:51.000Z</time>
      </trkpt>
      <trkpt lat="47.1186" lon="-1.79862">
        <ele>72</ele>
        <time>2021-02-20T11:18:53.000Z</time>
      </trkpt>
      <trkpt lat="47.1185" lon="-1.79873">
        <ele>72</ele>
        <time>2021-02-20T11:18:55.000Z</time>
      </trkpt>
      <trkpt lat="47.1184" lon="-1.79884">
        <ele>72</ele>
        <time>2021-02-20T11:18:57.000Z</time>
      </trkpt>
      <trkpt lat="47.11831" lon="-1.79894">
        <ele>72</ele>
        <time>2021-02-20T11:18:59.000Z</time>
      </trkpt>
      <trkpt lat="47.11821" lon="-1.79905">
        <ele>72</ele>
        <time>2021-02-20T11:19:01.000Z</time>
      </trkpt>
      <trkpt lat="47.11812" lon="-1.79915">
        <ele>72</ele>
        <time>2021-02-20T11:19:03.000Z</time>
      </trkpt>
      <trkpt lat="47.11803" lon="-1.79925">
        <ele>72</ele>
        <time>2021-02-20T11:19:05.000Z</time>
      </trkpt>
      <trkpt lat="47.11794" lon="-1.79934">
        <ele>72</ele>
        <time>2021-02-20T11:19:07.000Z</time>
      </trkpt>
      <trkpt lat="47.11786" lon="-1.79944">
        <ele>72</ele>
        <time>2021-02-20T11:19:09.000Z</time>
      </trkpt>
      <trkpt lat="47.11778" lon="-1.79952">
        <ele>72</ele>
        <time>2021-02-20T11:19:11.000Z</time>
      </trkpt>
      <trkpt lat="47.1177" lon="-1.79962">
        <ele>72</ele>
        <time>2021-02-20T11:19:13.000Z</time>
      </trkpt>
      <trkpt lat="47.11761" lon="-1.79976">
        <ele>73</ele>
        <time>2021-02-20T11:19:16.000Z</time>
      </trkpt>
      <trkpt lat="47.1175" lon="-1.79978">
        <ele>73</ele>
        <time>2021-02-20T11:19:18.000Z</time>
      </trkpt>
      <trkpt lat="47.1174" lon="-1.79976">
        <ele>73</ele>
        <time>2021-02-20T11:19:20.000Z</time>
      </trkpt>
      <trkpt lat="47.11729" lon="-1.79974">
        <ele>74</ele>
        <time>2021-02-20T11:19:22.000Z</time>
      </trkpt>
      <trkpt lat="47.11718" lon="-1.79973">
        <ele>74</ele>
        <time>2021-02-20T11:19:24.000Z</time>
      </trkpt>
      <trkpt lat="47.11708" lon="-1.79972">
        <ele>73</ele>
        <time>2021-02-20T11:19:26.000Z</time>
      </trkpt>
      <trkpt lat="47.11697" lon="-1.79971">
        <ele>74</ele>
        <time>2021-02-20T11:19:28.000Z</time>
      </trkpt>
      <trkpt lat="47.11688" lon="-1.79969">
        <ele>74</ele>
        <time>2021-02-20T11:19:30.000Z</time>
      </trkpt>
      <trkpt lat="47.11678" lon="-1.79968">
        <ele>74</ele>
        <time>2021-02-20T11:19:32.000Z</time>
      </trkpt>
      <trkpt lat="47.11668" lon="-1.79966">
        <ele>74</ele>
        <time>2021-02-20T11:19:34.000Z</time>
      </trkpt>
      <trkpt lat="47.11657" lon="-1.79965">
        <ele>73</ele>
        <time>2021-02-20T11:19:36.000Z</time>
      </trkpt>
      <trkpt lat="47.11647" lon="-1.79963">
        <ele>73</ele>
        <time>2021-02-20T11:19:38.000Z</time>
      </trkpt>
      <trkpt lat="47.11637" lon="-1.79961">
        <ele>73</ele>
        <time>2021-02-20T11:19:40.000Z</time>
      </trkpt>
      <trkpt lat="47.11627" lon="-1.7996">
        <ele>73</ele>
        <time>2021-02-20T11:19:42.000Z</time>
      </trkpt>
      <trkpt lat="47.11617" lon="-1.79958">
        <ele>73</ele>
        <time>2021-02-20T11:19:44.000Z</time>
      </trkpt>
      <trkpt lat="47.11607" lon="-1.79956">
        <ele>73</ele>
        <time>2021-02-20T11:19:46.000Z</time>
      </trkpt>
      <trkpt lat="47.11597" lon="-1.79955">
        <ele>73</ele>
        <time>2021-02-20T11:19:48.000Z</time>
      </trkpt>
      <trkpt lat="47.11586" lon="-1.79954">
        <ele>73</ele>
        <time>2021-02-20T11:19:50.000Z</time>
      </trkpt>
      <trkpt lat="47.11575" lon="-1.79953">
        <ele>72</ele>
        <time>2021-02-20T11:19:52.000Z</time>
      </trkpt>
      <trkpt lat="47.11564" lon="-1.79955">
        <ele>72</ele>
        <time>2021-02-20T11:19:54.000Z</time>
      </trkpt>
      <trkpt lat="47.11554" lon="-1.7996">
        <ele>72</ele>
        <time>2021-02-20T11:19:56.000Z</time>
      </trkpt>
      <trkpt lat="47.11544" lon="-1.79966">
        <ele>72</ele>
        <time>2021-02-20T11:19:58.000Z</time>
      </trkpt>
      <trkpt lat="47.11534" lon="-1.79974">
        <ele>72</ele>
        <time>2021-02-20T11:20:00.000Z</time>
      </trkpt>
      <trkpt lat="47.11525" lon="-1.79983">
        <ele>72</ele>
        <time>2021-02-20T11:20:02.000Z</time>
      </trkpt>
      <trkpt lat="47.11517" lon="-1.79993">
        <ele>71</ele>
        <time>2021-02-20T11:20:04.000Z</time>
      </trkpt>
      <trkpt lat="47.11509" lon="-1.80004">
        <ele>71</ele>
        <time>2021-02-20T11:20:06.000Z</time>
      </trkpt>
      <trkpt lat="47.11501" lon="-1.80014">
        <ele>71</ele>
        <time>2021-02-20T11:20:08.000Z</time>
      </trkpt>
      <trkpt lat="47.11492" lon="-1.80024">
        <ele>70</ele>
        <time>2021-02-20T11:20:10.000Z</time>
      </trkpt>
      <trkpt lat="47.11484" lon="-1.80035">
        <ele>70</ele>
        <time>2021-02-20T11:20:12.000Z</time>
      </trkpt>
      <trkpt lat="47.11476" lon="-1.80046">
        <ele>70</ele>
        <time>2021-02-20T11:20:14.000Z</time>
      </trkpt>
      <trkpt lat="47.11468" lon="-1.80057">
        <ele>70</ele>
        <time>2021-02-20T11:20:16.000Z</time>
      </trkpt>
      <trkpt lat="47.11459" lon="-1.80068">
        <ele>69</ele>
        <time>2021-02-20T11:20:18.000Z</time>
      </trkpt>
      <trkpt lat="47.1145" lon="-1.8008">
        <ele>69</ele>
        <time>2021-02-20T11:20:20.000Z</time>
      </trkpt>
      <trkpt lat="47.11442" lon="-1.80091">
        <ele>69</ele>
        <time>2021-02-20T11:20:22.000Z</time>
      </trkpt>
      <trkpt lat="47.11434" lon="-1.80101">
        <ele>69</ele>
        <time>2021-02-20T11:20:24.000Z</time>
      </trkpt>
      <trkpt lat="47.11426" lon="-1.80113">
        <ele>69</ele>
        <time>2021-02-20T11:20:26.000Z</time>
      </trkpt>
      <trkpt lat="47.11417" lon="-1.80125">
        <ele>69</ele>
        <time>2021-02-20T11:20:28.000Z</time>
      </trkpt>
      <trkpt lat="47.11409" lon="-1.80136">
        <ele>69</ele>
        <time>2021-02-20T11:20:30.000Z</time>
      </trkpt>
      <trkpt lat="47.114" lon="-1.80147">
        <ele>69</ele>
        <time>2021-02-20T11:20:32.000Z</time>
      </trkpt>
      <trkpt lat="47.11392" lon="-1.80159">
        <ele>68</ele>
        <time>2021-02-20T11:20:34.000Z</time>
      </trkpt>
      <trkpt lat="47.11383" lon="-1.80171">
        <ele>68</ele>
        <time>2021-02-20T11:20:36.000Z</time>
      </trkpt>
      <trkpt lat="47.11374" lon="-1.80182">
        <ele>68</ele>
        <time>2021-02-20T11:20:38.000Z</time>
      </trkpt>
      <trkpt lat="47.11364" lon="-1.80194">
        <ele>68</ele>
        <time>2021-02-20T11:20:40.000Z</time>
      </trkpt>
      <trkpt lat="47.11355" lon="-1.80206">
        <ele>68</ele>
        <time>2021-02-20T11:20:42.000Z</time>
      </trkpt>
      <trkpt lat="47.11346" lon="-1.80219">
        <ele>67</ele>
        <time>2021-02-20T11:20:44.000Z</time>
      </trkpt>
      <trkpt lat="47.11337" lon="-1.80231">
        <ele>67</ele>
        <time>2021-02-20T11:20:46.000Z</time>
      </trkpt>
      <trkpt lat="47.11328" lon="-1.80244">
        <ele>67</ele>
        <time>2021-02-20T11:20:48.000Z</time>
      </trkpt>
      <trkpt lat="47.11318" lon="-1.80257">
        <ele>67</ele>
        <time>2021-02-20T11:20:50.000Z</time>
      </trkpt>
      <trkpt lat="47.11309" lon="-1.80269">
        <ele>67</ele>
        <time>2021-02-20T11:20:52.000Z</time>
      </trkpt>
      <trkpt lat="47.113" lon="-1.80281">
        <ele>67</ele>
        <time>2021-02-20T11:20:54.000Z</time>
      </trkpt>
      <trkpt lat="47.11291" lon="-1.80293">
        <ele>67</ele>
        <time>2021-02-20T11:20:56.000Z</time>
      </trkpt>
      <trkpt lat="47.11283" lon="-1.80305">
        <ele>67</ele>
        <time>2021-02-20T11:20:58.000Z</time>
      </trkpt>
      <trkpt lat="47.11275" lon="-1.80319">
        <ele>66</ele>
        <time>2021-02-20T11:21:00.000Z</time>
      </trkpt>
      <trkpt lat="47.11266" lon="-1.80331">
        <ele>66</ele>
        <time>2021-02-20T11:21:02.000Z</time>
      </trkpt>
      <trkpt lat="47.11257" lon="-1.80344">
        <ele>66</ele>
        <time>2021-02-20T11:21:04.000Z</time>
      </trkpt>
      <trkpt lat="47.11248" lon="-1.80355">
        <ele>66</ele>
        <time>2021-02-20T11:21:06.000Z</time>
      </trkpt>
      <trkpt lat="47.11239" lon="-1.80367">
        <ele>66</ele>
        <time>2021-02-20T11:21:08.000Z</time>
      </trkpt>
      <trkpt lat="47.11231" lon="-1.80378">
        <ele>66</ele>
        <time>2021-02-20T11:21:10.000Z</time>
      </trkpt>
      <trkpt lat="47.11222" lon="-1.80388">
        <ele>66</ele>
        <time>2021-02-20T11:21:12.000Z</time>
      </trkpt>
      <trkpt lat="47.11212" lon="-1.80399">
        <ele>66</ele>
        <time>2021-02-20T11:21:14.000Z</time>
      </trkpt>
      <trkpt lat="47.11204" lon="-1.80408">
        <ele>66</ele>
        <time>2021-02-20T11:21:16.000Z</time>
      </trkpt>
      <trkpt lat="47.11195" lon="-1.80418">
        <ele>66</ele>
        <time>2021-02-20T11:21:18.000Z</time>
      </trkpt>
      <trkpt lat="47.11186" lon="-1.80426">
        <ele>66</ele>
        <time>2021-02-20T11:21:20.000Z</time>
      </trkpt>
      <trkpt lat="47.11176" lon="-1.80434">
        <ele>66</ele>
        <time>2021-02-20T11:21:22.000Z</time>
      </trkpt>
      <trkpt lat="47.11166" lon="-1.8044">
        <ele>66</ele>
        <time>2021-02-20T11:21:24.000Z</time>
      </trkpt>
      <trkpt lat="47.11156" lon="-1.80447">
        <ele>66</ele>
        <time>2021-02-20T11:21:26.000Z</time>
      </trkpt>
      <trkpt lat="47.11147" lon="-1.80453">
        <ele>66</ele>
        <time>2021-02-20T11:21:28.000Z</time>
      </trkpt>
      <trkpt lat="47.11137" lon="-1.8046">
        <ele>66</ele>
        <time>2021-02-20T11:21:30.000Z</time>
      </trkpt>
      <trkpt lat="47.11128" lon="-1.80466">
        <ele>66</ele>
        <time>2021-02-20T11:21:32.000Z</time>
      </trkpt>
      <trkpt lat="47.11119" lon="-1.80473">
        <ele>66</ele>
        <time>2021-02-20T11:21:34.000Z</time>
      </trkpt>
      <trkpt lat="47.11109" lon="-1.80479">
        <ele>66</ele>
        <time>2021-02-20T11:21:36.000Z</time>
      </trkpt>
      <trkpt lat="47.11099" lon="-1.80486">
        <ele>66</ele>
        <time>2021-02-20T11:21:38.000Z</time>
      </trkpt>
      <trkpt lat="47.1109" lon="-1.80492">
        <ele>67</ele>
        <time>2021-02-20T11:21:40.000Z</time>
      </trkpt>
      <trkpt lat="47.1108" lon="-1.80498">
        <ele>67</ele>
        <time>2021-02-20T11:21:42.000Z</time>
      </trkpt>
      <trkpt lat="47.1107" lon="-1.80504">
        <ele>67</ele>
        <time>2021-02-20T11:21:44.000Z</time>
      </trkpt>
      <trkpt lat="47.1106" lon="-1.8051">
        <ele>67</ele>
        <time>2021-02-20T11:21:46.000Z</time>
      </trkpt>
      <trkpt lat="47.1105" lon="-1.80517">
        <ele>67</ele>
        <time>2021-02-20T11:21:48.000Z</time>
      </trkpt>
      <trkpt lat="47.11041" lon="-1.80523">
        <ele>66</ele>
        <time>2021-02-20T11:21:50.000Z</time>
      </trkpt>
      <trkpt lat="47.11031" lon="-1.8053">
        <ele>67</ele>
        <time>2021-02-20T11:21:52.000Z</time>
      </trkpt>
      <trkpt lat="47.11021" lon="-1.80536">
        <ele>67</ele>
        <time>2021-02-20T11:21:54.000Z</time>
      </trkpt>
      <trkpt lat="47.11012" lon="-1.80542">
        <ele>67</ele>
        <time>2021-02-20T11:21:56.000Z</time>
      </trkpt>
      <trkpt lat="47.11003" lon="-1.80548">
        <ele>67</ele>
        <time>2021-02-20T11:21:58.000Z</time>
      </trkpt>
      <trkpt lat="47.10993" lon="-1.80555">
        <ele>67</ele>
        <time>2021-02-20T11:22:00.000Z</time>
      </trkpt>
      <trkpt lat="47.10984" lon="-1.80562">
        <ele>67</ele>
        <time>2021-02-20T11:22:02.000Z</time>
      </trkpt>
      <trkpt lat="47.10974" lon="-1.80569">
        <ele>67</ele>
        <time>2021-02-20T11:22:04.000Z</time>
      </trkpt>
      <trkpt lat="47.10964" lon="-1.80576">
        <ele>66</ele>
        <time>2021-02-20T11:22:06.000Z</time>
      </trkpt>
      <trkpt lat="47.10954" lon="-1.80582">
        <ele>66</ele>
        <time>2021-02-20T11:22:08.000Z</time>
      </trkpt>
      <trkpt lat="47.10944" lon="-1.80589">
        <ele>66</ele>
        <time>2021-02-20T11:22:10.000Z</time>
      </trkpt>
      <trkpt lat="47.10933" lon="-1.80595">
        <ele>66</ele>
        <time>2021-02-20T11:22:12.000Z</time>
      </trkpt>
      <trkpt lat="47.10924" lon="-1.80601">
        <ele>66</ele>
        <time>2021-02-20T11:22:14.000Z</time>
      </trkpt>
      <trkpt lat="47.10914" lon="-1.80608">
        <ele>66</ele>
        <time>2021-02-20T11:22:16.000Z</time>
      </trkpt>
      <trkpt lat="47.10904" lon="-1.80615">
        <ele>66</ele>
        <time>2021-02-20T11:22:18.000Z</time>
      </trkpt>
      <trkpt lat="47.10895" lon="-1.80621">
        <ele>66</ele>
        <time>2021-02-20T11:22:20.000Z</time>
      </trkpt>
      <trkpt lat="47.10885" lon="-1.80627">
        <ele>66</ele>
        <time>2021-02-20T11:22:22.000Z</time>
      </trkpt>
      <trkpt lat="47.10875" lon="-1.80633">
        <ele>66</ele>
        <time>2021-02-20T11:22:24.000Z</time>
      </trkpt>
      <trkpt lat="47.10865" lon="-1.80638">
        <ele>66</ele>
        <time>2021-02-20T11:22:26.000Z</time>
      </trkpt>
      <trkpt lat="47.10854" lon="-1.80642">
        <ele>66</ele>
        <time>2021-02-20T11:22:28.000Z</time>
      </trkpt>
      <trkpt lat="47.10843" lon="-1.80646">
        <ele>66</ele>
        <time>2021-02-20T11:22:30.000Z</time>
      </trkpt>
      <trkpt lat="47.10831" lon="-1.8065">
        <ele>65</ele>
        <time>2021-02-20T11:22:32.000Z</time>
      </trkpt>
      <trkpt lat="47.10819" lon="-1.80655">
        <ele>65</ele>
        <time>2021-02-20T11:22:34.000Z</time>
      </trkpt>
      <trkpt lat="47.10807" lon="-1.8066">
        <ele>65</ele>
        <time>2021-02-20T11:22:36.000Z</time>
      </trkpt>
      <trkpt lat="47.10794" lon="-1.80665">
        <ele>65</ele>
        <time>2021-02-20T11:22:38.000Z</time>
      </trkpt>
      <trkpt lat="47.10782" lon="-1.80669">
        <ele>65</ele>
        <time>2021-02-20T11:22:40.000Z</time>
      </trkpt>
      <trkpt lat="47.10771" lon="-1.80673">
        <ele>64</ele>
        <time>2021-02-20T11:22:42.000Z</time>
      </trkpt>
      <trkpt lat="47.10759" lon="-1.80677">
        <ele>64</ele>
        <time>2021-02-20T11:22:44.000Z</time>
      </trkpt>
      <trkpt lat="47.10748" lon="-1.8068">
        <ele>64</ele>
        <time>2021-02-20T11:22:46.000Z</time>
      </trkpt>
      <trkpt lat="47.10737" lon="-1.80683">
        <ele>64</ele>
        <time>2021-02-20T11:22:48.000Z</time>
      </trkpt>
      <trkpt lat="47.10726" lon="-1.80685">
        <ele>65</ele>
        <time>2021-02-20T11:22:50.000Z</time>
      </trkpt>
      <trkpt lat="47.10714" lon="-1.80686">
        <ele>65</ele>
        <time>2021-02-20T11:22:52.000Z</time>
      </trkpt>
      <trkpt lat="47.10703" lon="-1.80687">
        <ele>65</ele>
        <time>2021-02-20T11:22:54.000Z</time>
      </trkpt>
      <trkpt lat="47.10691" lon="-1.80688">
        <ele>65</ele>
        <time>2021-02-20T11:22:56.000Z</time>
      </trkpt>
      <trkpt lat="47.10679" lon="-1.80689">
        <ele>65</ele>
        <time>2021-02-20T11:22:58.000Z</time>
      </trkpt>
      <trkpt lat="47.10668" lon="-1.80691">
        <ele>65</ele>
        <time>2021-02-20T11:23:00.000Z</time>
      </trkpt>
      <trkpt lat="47.10657" lon="-1.80692">
        <ele>65</ele>
        <time>2021-02-20T11:23:02.000Z</time>
      </trkpt>
      <trkpt lat="47.10646" lon="-1.80693">
        <ele>65</ele>
        <time>2021-02-20T11:23:04.000Z</time>
      </trkpt>
      <trkpt lat="47.10635" lon="-1.80696">
        <ele>65</ele>
        <time>2021-02-20T11:23:06.000Z</time>
      </trkpt>
      <trkpt lat="47.10624" lon="-1.80698">
        <ele>65</ele>
        <time>2021-02-20T11:23:08.000Z</time>
      </trkpt>
      <trkpt lat="47.10613" lon="-1.80702">
        <ele>65</ele>
        <time>2021-02-20T11:23:10.000Z</time>
      </trkpt>
      <trkpt lat="47.10603" lon="-1.80706">
        <ele>64</ele>
        <time>2021-02-20T11:23:12.000Z</time>
      </trkpt>
      <trkpt lat="47.10592" lon="-1.80712">
        <ele>64</ele>
        <time>2021-02-20T11:23:14.000Z</time>
      </trkpt>
      <trkpt lat="47.10582" lon="-1.80719">
        <ele>64</ele>
        <time>2021-02-20T11:23:16.000Z</time>
      </trkpt>
      <trkpt lat="47.10574" lon="-1.80728">
        <ele>64</ele>
        <time>2021-02-20T11:23:18.000Z</time>
      </trkpt>
      <trkpt lat="47.10566" lon="-1.80736">
        <ele>64</ele>
        <time>2021-02-20T11:23:20.000Z</time>
      </trkpt>
      <trkpt lat="47.10558" lon="-1.80747">
        <ele>64</ele>
        <time>2021-02-20T11:23:22.000Z</time>
      </trkpt>
      <trkpt lat="47.1055" lon="-1.80757">
        <ele>65</ele>
        <time>2021-02-20T11:23:24.000Z</time>
      </trkpt>
      <trkpt lat="47.10541" lon="-1.80768">
        <ele>64</ele>
        <time>2021-02-20T11:23:26.000Z</time>
      </trkpt>
      <trkpt lat="47.10532" lon="-1.80778">
        <ele>64</ele>
        <time>2021-02-20T11:23:28.000Z</time>
      </trkpt>
      <trkpt lat="47.10523" lon="-1.80789">
        <ele>64</ele>
        <time>2021-02-20T11:23:30.000Z</time>
      </trkpt>
      <trkpt lat="47.10514" lon="-1.80802">
        <ele>63</ele>
        <time>2021-02-20T11:23:32.000Z</time>
      </trkpt>
      <trkpt lat="47.10503" lon="-1.80811">
        <ele>63</ele>
        <time>2021-02-20T11:23:34.000Z</time>
      </trkpt>
      <trkpt lat="47.10492" lon="-1.80819">
        <ele>63</ele>
        <time>2021-02-20T11:23:36.000Z</time>
      </trkpt>
      <trkpt lat="47.10483" lon="-1.80829">
        <ele>62</ele>
        <time>2021-02-20T11:23:38.000Z</time>
      </trkpt>
      <trkpt lat="47.10475" lon="-1.80842">
        <ele>62</ele>
        <time>2021-02-20T11:23:40.000Z</time>
      </trkpt>
      <trkpt lat="47.10467" lon="-1.80854">
        <ele>62</ele>
        <time>2021-02-20T11:23:42.000Z</time>
      </trkpt>
      <trkpt lat="47.1046" lon="-1.80867">
        <ele>62</ele>
        <time>2021-02-20T11:23:44.000Z</time>
      </trkpt>
      <trkpt lat="47.10453" lon="-1.80879">
        <ele>62</ele>
        <time>2021-02-20T11:23:46.000Z</time>
      </trkpt>
      <trkpt lat="47.10445" lon="-1.80892">
        <ele>62</ele>
        <time>2021-02-20T11:23:48.000Z</time>
      </trkpt>
      <trkpt lat="47.10438" lon="-1.80904">
        <ele>63</ele>
        <time>2021-02-20T11:23:50.000Z</time>
      </trkpt>
      <trkpt lat="47.1043" lon="-1.80914">
        <ele>64</ele>
        <time>2021-02-20T11:23:52.000Z</time>
      </trkpt>
      <trkpt lat="47.10423" lon="-1.80925">
        <ele>65</ele>
        <time>2021-02-20T11:23:54.000Z</time>
      </trkpt>
      <trkpt lat="47.10416" lon="-1.80936">
        <ele>66</ele>
        <time>2021-02-20T11:23:56.000Z</time>
      </trkpt>
      <trkpt lat="47.10409" lon="-1.80947">
        <ele>66</ele>
        <time>2021-02-20T11:23:58.000Z</time>
      </trkpt>
      <trkpt lat="47.10403" lon="-1.80958">
        <ele>66</ele>
        <time>2021-02-20T11:24:00.000Z</time>
      </trkpt>
      <trkpt lat="47.10395" lon="-1.80972">
        <ele>66</ele>
        <time>2021-02-20T11:24:03.000Z</time>
      </trkpt>
      <trkpt lat="47.10389" lon="-1.80982">
        <ele>66</ele>
        <time>2021-02-20T11:24:06.000Z</time>
      </trkpt>
      <trkpt lat="47.10383" lon="-1.80992">
        <ele>66</ele>
        <time>2021-02-20T11:24:10.000Z</time>
      </trkpt>
      <trkpt lat="47.10377" lon="-1.81005">
        <ele>66</ele>
        <time>2021-02-20T11:24:13.000Z</time>
      </trkpt>
      <trkpt lat="47.10373" lon="-1.81018">
        <ele>66</ele>
        <time>2021-02-20T11:24:15.000Z</time>
      </trkpt>
      <trkpt lat="47.10367" lon="-1.8103">
        <ele>66</ele>
        <time>2021-02-20T11:24:17.000Z</time>
      </trkpt>
      <trkpt lat="47.10359" lon="-1.81042">
        <ele>66</ele>
        <time>2021-02-20T11:24:19.000Z</time>
      </trkpt>
      <trkpt lat="47.10349" lon="-1.81037">
        <ele>66</ele>
        <time>2021-02-20T11:24:21.000Z</time>
      </trkpt>
      <trkpt lat="47.10341" lon="-1.81022">
        <ele>66</ele>
        <time>2021-02-20T11:24:23.000Z</time>
      </trkpt>
      <trkpt lat="47.10331" lon="-1.81012">
        <ele>66</ele>
        <time>2021-02-20T11:24:25.000Z</time>
      </trkpt>
      <trkpt lat="47.10319" lon="-1.81011">
        <ele>65</ele>
        <time>2021-02-20T11:24:27.000Z</time>
      </trkpt>
      <trkpt lat="47.10307" lon="-1.81011">
        <ele>65</ele>
        <time>2021-02-20T11:24:29.000Z</time>
      </trkpt>
      <trkpt lat="47.10295" lon="-1.8101">
        <ele>64</ele>
        <time>2021-02-20T11:24:31.000Z</time>
      </trkpt>
      <trkpt lat="47.10283" lon="-1.81008">
        <ele>64</ele>
        <time>2021-02-20T11:24:33.000Z</time>
      </trkpt>
      <trkpt lat="47.10271" lon="-1.81009">
        <ele>64</ele>
        <time>2021-02-20T11:24:35.000Z</time>
      </trkpt>
      <trkpt lat="47.1026" lon="-1.8101">
        <ele>65</ele>
        <time>2021-02-20T11:24:37.000Z</time>
      </trkpt>
      <trkpt lat="47.10247" lon="-1.81011">
        <ele>64</ele>
        <time>2021-02-20T11:24:39.000Z</time>
      </trkpt>
      <trkpt lat="47.10234" lon="-1.81013">
        <ele>66</ele>
        <time>2021-02-20T11:24:41.000Z</time>
      </trkpt>
      <trkpt lat="47.10222" lon="-1.8101">
        <ele>65</ele>
        <time>2021-02-20T11:24:43.000Z</time>
      </trkpt>
      <trkpt lat="47.1021" lon="-1.81005">
        <ele>64</ele>
        <time>2021-02-20T11:24:45.000Z</time>
      </trkpt>
      <trkpt lat="47.10199" lon="-1.80999">
        <ele>64</ele>
        <time>2021-02-20T11:24:47.000Z</time>
      </trkpt>
      <trkpt lat="47.10187" lon="-1.80994">
        <ele>64</ele>
        <time>2021-02-20T11:24:49.000Z</time>
      </trkpt>
      <trkpt lat="47.10176" lon="-1.80989">
        <ele>64</ele>
        <time>2021-02-20T11:24:51.000Z</time>
      </trkpt>
      <trkpt lat="47.10166" lon="-1.80984">
        <ele>63</ele>
        <time>2021-02-20T11:24:53.000Z</time>
      </trkpt>
      <trkpt lat="47.10156" lon="-1.80979">
        <ele>62</ele>
        <time>2021-02-20T11:24:55.000Z</time>
      </trkpt>
      <trkpt lat="47.10147" lon="-1.80974">
        <ele>62</ele>
        <time>2021-02-20T11:24:57.000Z</time>
      </trkpt>
      <trkpt lat="47.10138" lon="-1.80972">
        <ele>62</ele>
        <time>2021-02-20T11:24:59.000Z</time>
      </trkpt>
      <trkpt lat="47.10126" lon="-1.80971">
        <ele>61</ele>
        <time>2021-02-20T11:25:01.000Z</time>
      </trkpt>
      <trkpt lat="47.10115" lon="-1.80971">
        <ele>61</ele>
        <time>2021-02-20T11:25:03.000Z</time>
      </trkpt>
      <trkpt lat="47.10104" lon="-1.80972">
        <ele>61</ele>
        <time>2021-02-20T11:25:05.000Z</time>
      </trkpt>
      <trkpt lat="47.10092" lon="-1.80972">
        <ele>60</ele>
        <time>2021-02-20T11:25:07.000Z</time>
      </trkpt>
      <trkpt lat="47.10082" lon="-1.80973">
        <ele>60</ele>
        <time>2021-02-20T11:25:09.000Z</time>
      </trkpt>
      <trkpt lat="47.10072" lon="-1.80973">
        <ele>61</ele>
        <time>2021-02-20T11:25:11.000Z</time>
      </trkpt>
      <trkpt lat="47.10062" lon="-1.80973">
        <ele>61</ele>
        <time>2021-02-20T11:25:13.000Z</time>
      </trkpt>
      <trkpt lat="47.10052" lon="-1.80973">
        <ele>62</ele>
        <time>2021-02-20T11:25:15.000Z</time>
      </trkpt>
      <trkpt lat="47.10042" lon="-1.80974">
        <ele>62</ele>
        <time>2021-02-20T11:25:17.000Z</time>
      </trkpt>
      <trkpt lat="47.10032" lon="-1.80975">
        <ele>61</ele>
        <time>2021-02-20T11:25:19.000Z</time>
      </trkpt>
      <trkpt lat="47.10021" lon="-1.80977">
        <ele>61</ele>
        <time>2021-02-20T11:25:21.000Z</time>
      </trkpt>
      <trkpt lat="47.10011" lon="-1.80978">
        <ele>62</ele>
        <time>2021-02-20T11:25:23.000Z</time>
      </trkpt>
      <trkpt lat="47.10001" lon="-1.80979">
        <ele>62</ele>
        <time>2021-02-20T11:25:25.000Z</time>
      </trkpt>
      <trkpt lat="47.0999" lon="-1.8098">
        <ele>62</ele>
        <time>2021-02-20T11:25:27.000Z</time>
      </trkpt>
      <trkpt lat="47.0998" lon="-1.80979">
        <ele>62</ele>
        <time>2021-02-20T11:25:29.000Z</time>
      </trkpt>
      <trkpt lat="47.0997" lon="-1.80979">
        <ele>63</ele>
        <time>2021-02-20T11:25:31.000Z</time>
      </trkpt>
      <trkpt lat="47.09959" lon="-1.80979">
        <ele>63</ele>
        <time>2021-02-20T11:25:33.000Z</time>
      </trkpt>
      <trkpt lat="47.09949" lon="-1.8098">
        <ele>63</ele>
        <time>2021-02-20T11:25:35.000Z</time>
      </trkpt>
      <trkpt lat="47.09939" lon="-1.80982">
        <ele>63</ele>
        <time>2021-02-20T11:25:37.000Z</time>
      </trkpt>
      <trkpt lat="47.09928" lon="-1.80982">
        <ele>63</ele>
        <time>2021-02-20T11:25:39.000Z</time>
      </trkpt>
      <trkpt lat="47.09918" lon="-1.80983">
        <ele>63</ele>
        <time>2021-02-20T11:25:41.000Z</time>
      </trkpt>
      <trkpt lat="47.09908" lon="-1.80985">
        <ele>64</ele>
        <time>2021-02-20T11:25:43.000Z</time>
      </trkpt>
      <trkpt lat="47.09899" lon="-1.80985">
        <ele>64</ele>
        <time>2021-02-20T11:25:45.000Z</time>
      </trkpt>
      <trkpt lat="47.09888" lon="-1.80984">
        <ele>65</ele>
        <time>2021-02-20T11:25:47.000Z</time>
      </trkpt>
      <trkpt lat="47.09878" lon="-1.80985">
        <ele>65</ele>
        <time>2021-02-20T11:25:49.000Z</time>
      </trkpt>
      <trkpt lat="47.09867" lon="-1.80986">
        <ele>65</ele>
        <time>2021-02-20T11:25:51.000Z</time>
      </trkpt>
      <trkpt lat="47.09857" lon="-1.80986">
        <ele>65</ele>
        <time>2021-02-20T11:25:53.000Z</time>
      </trkpt>
      <trkpt lat="47.09847" lon="-1.80987">
        <ele>65</ele>
        <time>2021-02-20T11:25:55.000Z</time>
      </trkpt>
      <trkpt lat="47.09837" lon="-1.80988">
        <ele>65</ele>
        <time>2021-02-20T11:25:57.000Z</time>
      </trkpt>
      <trkpt lat="47.09827" lon="-1.80989">
        <ele>65</ele>
        <time>2021-02-20T11:25:59.000Z</time>
      </trkpt>
      <trkpt lat="47.09817" lon="-1.80989">
        <ele>65</ele>
        <time>2021-02-20T11:26:01.000Z</time>
      </trkpt>
      <trkpt lat="47.09807" lon="-1.8099">
        <ele>66</ele>
        <time>2021-02-20T11:26:03.000Z</time>
      </trkpt>
      <trkpt lat="47.09797" lon="-1.80989">
        <ele>66</ele>
        <time>2021-02-20T11:26:05.000Z</time>
      </trkpt>
      <trkpt lat="47.09787" lon="-1.8099">
        <ele>66</ele>
        <time>2021-02-20T11:26:07.000Z</time>
      </trkpt>
      <trkpt lat="47.09777" lon="-1.80989">
        <ele>66</ele>
        <time>2021-02-20T11:26:09.000Z</time>
      </trkpt>
      <trkpt lat="47.09766" lon="-1.80987">
        <ele>66</ele>
        <time>2021-02-20T11:26:11.000Z</time>
      </trkpt>
      <trkpt lat="47.09755" lon="-1.80984">
        <ele>66</ele>
        <time>2021-02-20T11:26:13.000Z</time>
      </trkpt>
      <trkpt lat="47.09745" lon="-1.80982">
        <ele>66</ele>
        <time>2021-02-20T11:26:15.000Z</time>
      </trkpt>
      <trkpt lat="47.09734" lon="-1.80978">
        <ele>65</ele>
        <time>2021-02-20T11:26:17.000Z</time>
      </trkpt>
      <trkpt lat="47.09723" lon="-1.80976">
        <ele>64</ele>
        <time>2021-02-20T11:26:19.000Z</time>
      </trkpt>
      <trkpt lat="47.09712" lon="-1.80973">
        <ele>64</ele>
        <time>2021-02-20T11:26:21.000Z</time>
      </trkpt>
      <trkpt lat="47.09702" lon="-1.80971">
        <ele>63</ele>
        <time>2021-02-20T11:26:23.000Z</time>
      </trkpt>
      <trkpt lat="47.09691" lon="-1.80969">
        <ele>64</ele>
        <time>2021-02-20T11:26:25.000Z</time>
      </trkpt>
      <trkpt lat="47.09679" lon="-1.80967">
        <ele>63</ele>
        <time>2021-02-20T11:26:27.000Z</time>
      </trkpt>
      <trkpt lat="47.09668" lon="-1.80964">
        <ele>63</ele>
        <time>2021-02-20T11:26:29.000Z</time>
      </trkpt>
      <trkpt lat="47.09657" lon="-1.80962">
        <ele>63</ele>
        <time>2021-02-20T11:26:31.000Z</time>
      </trkpt>
      <trkpt lat="47.09646" lon="-1.80959">
        <ele>63</ele>
        <time>2021-02-20T11:26:33.000Z</time>
      </trkpt>
      <trkpt lat="47.09635" lon="-1.80957">
        <ele>63</ele>
        <time>2021-02-20T11:26:35.000Z</time>
      </trkpt>
      <trkpt lat="47.09624" lon="-1.80955">
        <ele>63</ele>
        <time>2021-02-20T11:26:37.000Z</time>
      </trkpt>
      <trkpt lat="47.09613" lon="-1.80953">
        <ele>62</ele>
        <time>2021-02-20T11:26:39.000Z</time>
      </trkpt>
      <trkpt lat="47.09602" lon="-1.80951">
        <ele>62</ele>
        <time>2021-02-20T11:26:41.000Z</time>
      </trkpt>
      <trkpt lat="47.09591" lon="-1.80946">
        <ele>62</ele>
        <time>2021-02-20T11:26:43.000Z</time>
      </trkpt>
      <trkpt lat="47.0958" lon="-1.80943">
        <ele>62</ele>
        <time>2021-02-20T11:26:45.000Z</time>
      </trkpt>
      <trkpt lat="47.09569" lon="-1.8094">
        <ele>61</ele>
        <time>2021-02-20T11:26:47.000Z</time>
      </trkpt>
      <trkpt lat="47.09558" lon="-1.80937">
        <ele>61</ele>
        <time>2021-02-20T11:26:49.000Z</time>
      </trkpt>
      <trkpt lat="47.09547" lon="-1.80935">
        <ele>61</ele>
        <time>2021-02-20T11:26:51.000Z</time>
      </trkpt>
      <trkpt lat="47.09536" lon="-1.80933">
        <ele>61</ele>
        <time>2021-02-20T11:26:53.000Z</time>
      </trkpt>
      <trkpt lat="47.09526" lon="-1.80931">
        <ele>61</ele>
        <time>2021-02-20T11:26:55.000Z</time>
      </trkpt>
      <trkpt lat="47.09515" lon="-1.80929">
        <ele>61</ele>
        <time>2021-02-20T11:26:57.000Z</time>
      </trkpt>
      <trkpt lat="47.09504" lon="-1.80927">
        <ele>61</ele>
        <time>2021-02-20T11:26:59.000Z</time>
      </trkpt>
      <trkpt lat="47.09493" lon="-1.80926">
        <ele>62</ele>
        <time>2021-02-20T11:27:01.000Z</time>
      </trkpt>
      <trkpt lat="47.09482" lon="-1.80929">
        <ele>62</ele>
        <time>2021-02-20T11:27:03.000Z</time>
      </trkpt>
      <trkpt lat="47.09471" lon="-1.80933">
        <ele>62</ele>
        <time>2021-02-20T11:27:05.000Z</time>
      </trkpt>
      <trkpt lat="47.09461" lon="-1.80939">
        <ele>62</ele>
        <time>2021-02-20T11:27:07.000Z</time>
      </trkpt>
      <trkpt lat="47.09452" lon="-1.80945">
        <ele>62</ele>
        <time>2021-02-20T11:27:09.000Z</time>
      </trkpt>
      <trkpt lat="47.09442" lon="-1.80951">
        <ele>62</ele>
        <time>2021-02-20T11:27:11.000Z</time>
      </trkpt>
      <trkpt lat="47.09433" lon="-1.80957">
        <ele>62</ele>
        <time>2021-02-20T11:27:13.000Z</time>
      </trkpt>
      <trkpt lat="47.09423" lon="-1.80963">
        <ele>62</ele>
        <time>2021-02-20T11:27:15.000Z</time>
      </trkpt>
      <trkpt lat="47.09413" lon="-1.80969">
        <ele>62</ele>
        <time>2021-02-20T11:27:17.000Z</time>
      </trkpt>
      <trkpt lat="47.09403" lon="-1.80974">
        <ele>62</ele>
        <time>2021-02-20T11:27:19.000Z</time>
      </trkpt>
      <trkpt lat="47.09392" lon="-1.80981">
        <ele>61</ele>
        <time>2021-02-20T11:27:21.000Z</time>
      </trkpt>
      <trkpt lat="47.0938" lon="-1.80988">
        <ele>61</ele>
        <time>2021-02-20T11:27:23.000Z</time>
      </trkpt>
      <trkpt lat="47.0937" lon="-1.80995">
        <ele>60</ele>
        <time>2021-02-20T11:27:25.000Z</time>
      </trkpt>
      <trkpt lat="47.09358" lon="-1.81001">
        <ele>60</ele>
        <time>2021-02-20T11:27:27.000Z</time>
      </trkpt>
      <trkpt lat="47.09347" lon="-1.81007">
        <ele>59</ele>
        <time>2021-02-20T11:27:29.000Z</time>
      </trkpt>
      <trkpt lat="47.09336" lon="-1.81014">
        <ele>58</ele>
        <time>2021-02-20T11:27:31.000Z</time>
      </trkpt>
      <trkpt lat="47.09324" lon="-1.81021">
        <ele>58</ele>
        <time>2021-02-20T11:27:33.000Z</time>
      </trkpt>
      <trkpt lat="47.09313" lon="-1.81028">
        <ele>57</ele>
        <time>2021-02-20T11:27:35.000Z</time>
      </trkpt>
      <trkpt lat="47.09302" lon="-1.81035">
        <ele>57</ele>
        <time>2021-02-20T11:27:37.000Z</time>
      </trkpt>
      <trkpt lat="47.0929" lon="-1.81042">
        <ele>57</ele>
        <time>2021-02-20T11:27:39.000Z</time>
      </trkpt>
      <trkpt lat="47.09279" lon="-1.81048">
        <ele>56</ele>
        <time>2021-02-20T11:27:41.000Z</time>
      </trkpt>
      <trkpt lat="47.09268" lon="-1.81055">
        <ele>56</ele>
        <time>2021-02-20T11:27:43.000Z</time>
      </trkpt>
      <trkpt lat="47.09257" lon="-1.81062">
        <ele>56</ele>
        <time>2021-02-20T11:27:45.000Z</time>
      </trkpt>
      <trkpt lat="47.09247" lon="-1.81068">
        <ele>56</ele>
        <time>2021-02-20T11:27:47.000Z</time>
      </trkpt>
      <trkpt lat="47.09239" lon="-1.81075">
        <ele>56</ele>
        <time>2021-02-20T11:27:49.000Z</time>
      </trkpt>
      <trkpt lat="47.0923" lon="-1.81086">
        <ele>56</ele>
        <time>2021-02-20T11:27:52.000Z</time>
      </trkpt>
      <trkpt lat="47.09218" lon="-1.81089">
        <ele>56</ele>
        <time>2021-02-20T11:27:56.000Z</time>
      </trkpt>
      <trkpt lat="47.09208" lon="-1.8108">
        <ele>56</ele>
        <time>2021-02-20T11:27:58.000Z</time>
      </trkpt>
      <trkpt lat="47.09198" lon="-1.81071">
        <ele>56</ele>
        <time>2021-02-20T11:28:00.000Z</time>
      </trkpt>
      <trkpt lat="47.09188" lon="-1.81062">
        <ele>57</ele>
        <time>2021-02-20T11:28:02.000Z</time>
      </trkpt>
      <trkpt lat="47.09178" lon="-1.81055">
        <ele>57</ele>
        <time>2021-02-20T11:28:04.000Z</time>
      </trkpt>
      <trkpt lat="47.09169" lon="-1.81055">
        <ele>57</ele>
        <time>2021-02-20T11:28:06.000Z</time>
      </trkpt>
      <trkpt lat="47.09162" lon="-1.8107">
        <ele>56</ele>
        <time>2021-02-20T11:28:08.000Z</time>
      </trkpt>
      <trkpt lat="47.09155" lon="-1.81085">
        <ele>56</ele>
        <time>2021-02-20T11:28:10.000Z</time>
      </trkpt>
      <trkpt lat="47.09147" lon="-1.81097">
        <ele>55</ele>
        <time>2021-02-20T11:28:12.000Z</time>
      </trkpt>
      <trkpt lat="47.09137" lon="-1.81108">
        <ele>56</ele>
        <time>2021-02-20T11:28:14.000Z</time>
      </trkpt>
      <trkpt lat="47.09125" lon="-1.81113">
        <ele>56</ele>
        <time>2021-02-20T11:28:16.000Z</time>
      </trkpt>
      <trkpt lat="47.09114" lon="-1.81115">
        <ele>56</ele>
        <time>2021-02-20T11:28:18.000Z</time>
      </trkpt>
      <trkpt lat="47.09102" lon="-1.81117">
        <ele>56</ele>
        <time>2021-02-20T11:28:20.000Z</time>
      </trkpt>
      <trkpt lat="47.0909" lon="-1.81119">
        <ele>56</ele>
        <time>2021-02-20T11:28:22.000Z</time>
      </trkpt>
      <trkpt lat="47.09078" lon="-1.81123">
        <ele>55</ele>
        <time>2021-02-20T11:28:24.000Z</time>
      </trkpt>
      <trkpt lat="47.09067" lon="-1.8113">
        <ele>55</ele>
        <time>2021-02-20T11:28:26.000Z</time>
      </trkpt>
      <trkpt lat="47.09058" lon="-1.81142">
        <ele>56</ele>
        <time>2021-02-20T11:28:28.000Z</time>
      </trkpt>
      <trkpt lat="47.09051" lon="-1.81156">
        <ele>56</ele>
        <time>2021-02-20T11:28:30.000Z</time>
      </trkpt>
      <trkpt lat="47.09047" lon="-1.81171">
        <ele>56</ele>
        <time>2021-02-20T11:28:32.000Z</time>
      </trkpt>
      <trkpt lat="47.09042" lon="-1.81187">
        <ele>56</ele>
        <time>2021-02-20T11:28:34.000Z</time>
      </trkpt>
      <trkpt lat="47.09038" lon="-1.81202">
        <ele>57</ele>
        <time>2021-02-20T11:28:36.000Z</time>
      </trkpt>
      <trkpt lat="47.09033" lon="-1.81217">
        <ele>57</ele>
        <time>2021-02-20T11:28:38.000Z</time>
      </trkpt>
      <trkpt lat="47.09027" lon="-1.81233">
        <ele>58</ele>
        <time>2021-02-20T11:28:40.000Z</time>
      </trkpt>
      <trkpt lat="47.0902" lon="-1.81247">
        <ele>58</ele>
        <time>2021-02-20T11:28:42.000Z</time>
      </trkpt>
      <trkpt lat="47.09014" lon="-1.8126">
        <ele>58</ele>
        <time>2021-02-20T11:28:44.000Z</time>
      </trkpt>
      <trkpt lat="47.09006" lon="-1.81272">
        <ele>59</ele>
        <time>2021-02-20T11:28:46.000Z</time>
      </trkpt>
      <trkpt lat="47.08998" lon="-1.81283">
        <ele>59</ele>
        <time>2021-02-20T11:28:48.000Z</time>
      </trkpt>
      <trkpt lat="47.08989" lon="-1.81294">
        <ele>59</ele>
        <time>2021-02-20T11:28:50.000Z</time>
      </trkpt>
      <trkpt lat="47.08981" lon="-1.81304">
        <ele>60</ele>
        <time>2021-02-20T11:28:52.000Z</time>
      </trkpt>
      <trkpt lat="47.08974" lon="-1.81315">
        <ele>60</ele>
        <time>2021-02-20T11:28:54.000Z</time>
      </trkpt>
      <trkpt lat="47.08966" lon="-1.81326">
        <ele>60</ele>
        <time>2021-02-20T11:28:56.000Z</time>
      </trkpt>
      <trkpt lat="47.08958" lon="-1.81338">
        <ele>60</ele>
        <time>2021-02-20T11:28:58.000Z</time>
      </trkpt>
      <trkpt lat="47.0895" lon="-1.81348">
        <ele>60</ele>
        <time>2021-02-20T11:29:00.000Z</time>
      </trkpt>
      <trkpt lat="47.08942" lon="-1.81357">
        <ele>61</ele>
        <time>2021-02-20T11:29:02.000Z</time>
      </trkpt>
      <trkpt lat="47.08933" lon="-1.81366">
        <ele>61</ele>
        <time>2021-02-20T11:29:04.000Z</time>
      </trkpt>
      <trkpt lat="47.08925" lon="-1.81375">
        <ele>60</ele>
        <time>2021-02-20T11:29:06.000Z</time>
      </trkpt>
      <trkpt lat="47.08915" lon="-1.81384">
        <ele>60</ele>
        <time>2021-02-20T11:29:08.000Z</time>
      </trkpt>
      <trkpt lat="47.08907" lon="-1.81393">
        <ele>60</ele>
        <time>2021-02-20T11:29:10.000Z</time>
      </trkpt>
      <trkpt lat="47.08899" lon="-1.81403">
        <ele>60</ele>
        <time>2021-02-20T11:29:12.000Z</time>
      </trkpt>
      <trkpt lat="47.0889" lon="-1.81413">
        <ele>61</ele>
        <time>2021-02-20T11:29:14.000Z</time>
      </trkpt>
      <trkpt lat="47.08882" lon="-1.81423">
        <ele>61</ele>
        <time>2021-02-20T11:29:16.000Z</time>
      </trkpt>
      <trkpt lat="47.08875" lon="-1.81434">
        <ele>61</ele>
        <time>2021-02-20T11:29:18.000Z</time>
      </trkpt>
      <trkpt lat="47.08866" lon="-1.81444">
        <ele>61</ele>
        <time>2021-02-20T11:29:20.000Z</time>
      </trkpt>
      <trkpt lat="47.08858" lon="-1.81453">
        <ele>61</ele>
        <time>2021-02-20T11:29:22.000Z</time>
      </trkpt>
      <trkpt lat="47.08849" lon="-1.81461">
        <ele>62</ele>
        <time>2021-02-20T11:29:24.000Z</time>
      </trkpt>
      <trkpt lat="47.08839" lon="-1.81469">
        <ele>62</ele>
        <time>2021-02-20T11:29:26.000Z</time>
      </trkpt>
      <trkpt lat="47.0883" lon="-1.81477">
        <ele>62</ele>
        <time>2021-02-20T11:29:28.000Z</time>
      </trkpt>
      <trkpt lat="47.08821" lon="-1.81484">
        <ele>63</ele>
        <time>2021-02-20T11:29:30.000Z</time>
      </trkpt>
      <trkpt lat="47.08813" lon="-1.81491">
        <ele>63</ele>
        <time>2021-02-20T11:29:32.000Z</time>
      </trkpt>
      <trkpt lat="47.08805" lon="-1.81497">
        <ele>63</ele>
        <time>2021-02-20T11:29:34.000Z</time>
      </trkpt>
      <trkpt lat="47.08796" lon="-1.81505">
        <ele>63</ele>
        <time>2021-02-20T11:29:36.000Z</time>
      </trkpt>
      <trkpt lat="47.08787" lon="-1.81513">
        <ele>64</ele>
        <time>2021-02-20T11:29:38.000Z</time>
      </trkpt>
      <trkpt lat="47.08779" lon="-1.8152">
        <ele>64</ele>
        <time>2021-02-20T11:29:40.000Z</time>
      </trkpt>
      <trkpt lat="47.0877" lon="-1.81527">
        <ele>64</ele>
        <time>2021-02-20T11:29:42.000Z</time>
      </trkpt>
      <trkpt lat="47.0876" lon="-1.81538">
        <ele>65</ele>
        <time>2021-02-20T11:29:45.000Z</time>
      </trkpt>
      <trkpt lat="47.08748" lon="-1.81549">
        <ele>65</ele>
        <time>2021-02-20T11:29:48.000Z</time>
      </trkpt>
      <trkpt lat="47.08741" lon="-1.81557">
        <ele>65</ele>
        <time>2021-02-20T11:29:50.000Z</time>
      </trkpt>
      <trkpt lat="47.08735" lon="-1.81568">
        <ele>66</ele>
        <time>2021-02-20T11:29:52.000Z</time>
      </trkpt>
      <trkpt lat="47.08729" lon="-1.8158">
        <ele>66</ele>
        <time>2021-02-20T11:29:54.000Z</time>
      </trkpt>
      <trkpt lat="47.08724" lon="-1.81592">
        <ele>67</ele>
        <time>2021-02-20T11:29:56.000Z</time>
      </trkpt>
      <trkpt lat="47.08719" lon="-1.81605">
        <ele>67</ele>
        <time>2021-02-20T11:29:58.000Z</time>
      </trkpt>
      <trkpt lat="47.08714" lon="-1.81618">
        <ele>67</ele>
        <time>2021-02-20T11:30:00.000Z</time>
      </trkpt>
      <trkpt lat="47.08709" lon="-1.8163">
        <ele>67</ele>
        <time>2021-02-20T11:30:02.000Z</time>
      </trkpt>
      <trkpt lat="47.08705" lon="-1.81643">
        <ele>68</ele>
        <time>2021-02-20T11:30:04.000Z</time>
      </trkpt>
      <trkpt lat="47.087" lon="-1.81656">
        <ele>67</ele>
        <time>2021-02-20T11:30:06.000Z</time>
      </trkpt>
      <trkpt lat="47.08695" lon="-1.81668">
        <ele>68</ele>
        <time>2021-02-20T11:30:08.000Z</time>
      </trkpt>
      <trkpt lat="47.08688" lon="-1.81678">
        <ele>68</ele>
        <time>2021-02-20T11:30:10.000Z</time>
      </trkpt>
      <trkpt lat="47.08679" lon="-1.81685">
        <ele>68</ele>
        <time>2021-02-20T11:30:12.000Z</time>
      </trkpt>
      <trkpt lat="47.0867" lon="-1.81691">
        <ele>68</ele>
        <time>2021-02-20T11:30:14.000Z</time>
      </trkpt>
      <trkpt lat="47.08661" lon="-1.81694">
        <ele>68</ele>
        <time>2021-02-20T11:30:16.000Z</time>
      </trkpt>
      <trkpt lat="47.08651" lon="-1.81695">
        <ele>68</ele>
        <time>2021-02-20T11:30:18.000Z</time>
      </trkpt>
      <trkpt lat="47.08642" lon="-1.81694">
        <ele>68</ele>
        <time>2021-02-20T11:30:20.000Z</time>
      </trkpt>
      <trkpt lat="47.08632" lon="-1.81691">
        <ele>69</ele>
        <time>2021-02-20T11:30:22.000Z</time>
      </trkpt>
      <trkpt lat="47.08622" lon="-1.81689">
        <ele>69</ele>
        <time>2021-02-20T11:30:24.000Z</time>
      </trkpt>
      <trkpt lat="47.08613" lon="-1.81687">
        <ele>70</ele>
        <time>2021-02-20T11:30:26.000Z</time>
      </trkpt>
      <trkpt lat="47.08603" lon="-1.81684">
        <ele>70</ele>
        <time>2021-02-20T11:30:28.000Z</time>
      </trkpt>
      <trkpt lat="47.08593" lon="-1.81681">
        <ele>70</ele>
        <time>2021-02-20T11:30:30.000Z</time>
      </trkpt>
      <trkpt lat="47.08584" lon="-1.81679">
        <ele>70</ele>
        <time>2021-02-20T11:30:32.000Z</time>
      </trkpt>
      <trkpt lat="47.08574" lon="-1.81677">
        <ele>70</ele>
        <time>2021-02-20T11:30:34.000Z</time>
      </trkpt>
      <trkpt lat="47.08565" lon="-1.81675">
        <ele>71</ele>
        <time>2021-02-20T11:30:36.000Z</time>
      </trkpt>
      <trkpt lat="47.08555" lon="-1.81672">
        <ele>71</ele>
        <time>2021-02-20T11:30:38.000Z</time>
      </trkpt>
      <trkpt lat="47.08546" lon="-1.8167">
        <ele>71</ele>
        <time>2021-02-20T11:30:40.000Z</time>
      </trkpt>
      <trkpt lat="47.08536" lon="-1.81668">
        <ele>71</ele>
        <time>2021-02-20T11:30:42.000Z</time>
      </trkpt>
      <trkpt lat="47.08526" lon="-1.81666">
        <ele>71</ele>
        <time>2021-02-20T11:30:44.000Z</time>
      </trkpt>
      <trkpt lat="47.08517" lon="-1.81665">
        <ele>71</ele>
        <time>2021-02-20T11:30:46.000Z</time>
      </trkpt>
      <trkpt lat="47.08507" lon="-1.81663">
        <ele>71</ele>
        <time>2021-02-20T11:30:48.000Z</time>
      </trkpt>
      <trkpt lat="47.08497" lon="-1.81661">
        <ele>71</ele>
        <time>2021-02-20T11:30:50.000Z</time>
      </trkpt>
      <trkpt lat="47.08487" lon="-1.8166">
        <ele>71</ele>
        <time>2021-02-20T11:30:52.000Z</time>
      </trkpt>
      <trkpt lat="47.08478" lon="-1.81659">
        <ele>71</ele>
        <time>2021-02-20T11:30:54.000Z</time>
      </trkpt>
      <trkpt lat="47.08469" lon="-1.81658">
        <ele>71</ele>
        <time>2021-02-20T11:30:56.000Z</time>
      </trkpt>
      <trkpt lat="47.08455" lon="-1.81656">
        <ele>72</ele>
        <time>2021-02-20T11:30:59.000Z</time>
      </trkpt>
      <trkpt lat="47.08446" lon="-1.81655">
        <ele>72</ele>
        <time>2021-02-20T11:31:01.000Z</time>
      </trkpt>
      <trkpt lat="47.08437" lon="-1.81653">
        <ele>71</ele>
        <time>2021-02-20T11:31:03.000Z</time>
      </trkpt>
      <trkpt lat="47.08427" lon="-1.81652">
        <ele>72</ele>
        <time>2021-02-20T11:31:05.000Z</time>
      </trkpt>
      <trkpt lat="47.08418" lon="-1.8165">
        <ele>72</ele>
        <time>2021-02-20T11:31:07.000Z</time>
      </trkpt>
      <trkpt lat="47.08408" lon="-1.81649">
        <ele>72</ele>
        <time>2021-02-20T11:31:09.000Z</time>
      </trkpt>
      <trkpt lat="47.08398" lon="-1.81647">
        <ele>72</ele>
        <time>2021-02-20T11:31:11.000Z</time>
      </trkpt>
      <trkpt lat="47.08389" lon="-1.81646">
        <ele>72</ele>
        <time>2021-02-20T11:31:13.000Z</time>
      </trkpt>
      <trkpt lat="47.0838" lon="-1.81645">
        <ele>72</ele>
        <time>2021-02-20T11:31:15.000Z</time>
      </trkpt>
      <trkpt lat="47.0837" lon="-1.81644">
        <ele>72</ele>
        <time>2021-02-20T11:31:17.000Z</time>
      </trkpt>
      <trkpt lat="47.08357" lon="-1.81642">
        <ele>71</ele>
        <time>2021-02-20T11:31:20.000Z</time>
      </trkpt>
      <trkpt lat="47.08344" lon="-1.81641">
        <ele>71</ele>
        <time>2021-02-20T11:31:23.000Z</time>
      </trkpt>
      <trkpt lat="47.0833" lon="-1.81639">
        <ele>72</ele>
        <time>2021-02-20T11:31:26.000Z</time>
      </trkpt>
      <trkpt lat="47.08317" lon="-1.81637">
        <ele>71</ele>
        <time>2021-02-20T11:31:29.000Z</time>
      </trkpt>
      <trkpt lat="47.08308" lon="-1.81636">
        <ele>71</ele>
        <time>2021-02-20T11:31:31.000Z</time>
      </trkpt>
      <trkpt lat="47.08298" lon="-1.81637">
        <ele>70</ele>
        <time>2021-02-20T11:31:33.000Z</time>
      </trkpt>
      <trkpt lat="47.08288" lon="-1.81636">
        <ele>71</ele>
        <time>2021-02-20T11:31:35.000Z</time>
      </trkpt>
      <trkpt lat="47.08275" lon="-1.81636">
        <ele>70</ele>
        <time>2021-02-20T11:31:38.000Z</time>
      </trkpt>
      <trkpt lat="47.08266" lon="-1.81635">
        <ele>70</ele>
        <time>2021-02-20T11:31:40.000Z</time>
      </trkpt>
      <trkpt lat="47.08257" lon="-1.81634">
        <ele>70</ele>
        <time>2021-02-20T11:31:42.000Z</time>
      </trkpt>
      <trkpt lat="47.08248" lon="-1.81633">
        <ele>70</ele>
        <time>2021-02-20T11:31:44.000Z</time>
      </trkpt>
      <trkpt lat="47.08238" lon="-1.81633">
        <ele>70</ele>
        <time>2021-02-20T11:31:46.000Z</time>
      </trkpt>
      <trkpt lat="47.08228" lon="-1.81632">
        <ele>70</ele>
        <time>2021-02-20T11:31:48.000Z</time>
      </trkpt>
      <trkpt lat="47.08218" lon="-1.81633">
        <ele>70</ele>
        <time>2021-02-20T11:31:50.000Z</time>
      </trkpt>
      <trkpt lat="47.08209" lon="-1.81632">
        <ele>70</ele>
        <time>2021-02-20T11:31:52.000Z</time>
      </trkpt>
      <trkpt lat="47.08196" lon="-1.81631">
        <ele>71</ele>
        <time>2021-02-20T11:31:55.000Z</time>
      </trkpt>
      <trkpt lat="47.08186" lon="-1.81631">
        <ele>71</ele>
        <time>2021-02-20T11:31:57.000Z</time>
      </trkpt>
      <trkpt lat="47.08177" lon="-1.8163">
        <ele>70</ele>
        <time>2021-02-20T11:31:59.000Z</time>
      </trkpt>
      <trkpt lat="47.08167" lon="-1.81629">
        <ele>70</ele>
        <time>2021-02-20T11:32:01.000Z</time>
      </trkpt>
      <trkpt lat="47.08157" lon="-1.81629">
        <ele>70</ele>
        <time>2021-02-20T11:32:03.000Z</time>
      </trkpt>
      <trkpt lat="47.08148" lon="-1.81628">
        <ele>71</ele>
        <time>2021-02-20T11:32:05.000Z</time>
      </trkpt>
      <trkpt lat="47.08137" lon="-1.81627">
        <ele>71</ele>
        <time>2021-02-20T11:32:07.000Z</time>
      </trkpt>
      <trkpt lat="47.08127" lon="-1.81626">
        <ele>71</ele>
        <time>2021-02-20T11:32:09.000Z</time>
      </trkpt>
      <trkpt lat="47.08117" lon="-1.81625">
        <ele>71</ele>
        <time>2021-02-20T11:32:11.000Z</time>
      </trkpt>
      <trkpt lat="47.08107" lon="-1.81623">
        <ele>71</ele>
        <time>2021-02-20T11:32:13.000Z</time>
      </trkpt>
      <trkpt lat="47.08097" lon="-1.8162">
        <ele>71</ele>
        <time>2021-02-20T11:32:15.000Z</time>
      </trkpt>
      <trkpt lat="47.08087" lon="-1.81617">
        <ele>71</ele>
        <time>2021-02-20T11:32:17.000Z</time>
      </trkpt>
      <trkpt lat="47.08076" lon="-1.81613">
        <ele>70</ele>
        <time>2021-02-20T11:32:19.000Z</time>
      </trkpt>
      <trkpt lat="47.08066" lon="-1.81607">
        <ele>70</ele>
        <time>2021-02-20T11:32:21.000Z</time>
      </trkpt>
      <trkpt lat="47.08055" lon="-1.81602">
        <ele>70</ele>
        <time>2021-02-20T11:32:23.000Z</time>
      </trkpt>
      <trkpt lat="47.08045" lon="-1.81597">
        <ele>70</ele>
        <time>2021-02-20T11:32:25.000Z</time>
      </trkpt>
      <trkpt lat="47.08035" lon="-1.8159">
        <ele>70</ele>
        <time>2021-02-20T11:32:27.000Z</time>
      </trkpt>
      <trkpt lat="47.08025" lon="-1.81585">
        <ele>70</ele>
        <time>2021-02-20T11:32:29.000Z</time>
      </trkpt>
      <trkpt lat="47.08014" lon="-1.81578">
        <ele>70</ele>
        <time>2021-02-20T11:32:31.000Z</time>
      </trkpt>
      <trkpt lat="47.08003" lon="-1.81573">
        <ele>70</ele>
        <time>2021-02-20T11:32:33.000Z</time>
      </trkpt>
      <trkpt lat="47.07993" lon="-1.81569">
        <ele>70</ele>
        <time>2021-02-20T11:32:35.000Z</time>
      </trkpt>
      <trkpt lat="47.07982" lon="-1.81565">
        <ele>71</ele>
        <time>2021-02-20T11:32:37.000Z</time>
      </trkpt>
      <trkpt lat="47.07971" lon="-1.81562">
        <ele>71</ele>
        <time>2021-02-20T11:32:39.000Z</time>
      </trkpt>
      <trkpt lat="47.0796" lon="-1.8156">
        <ele>71</ele>
        <time>2021-02-20T11:32:41.000Z</time>
      </trkpt>
      <trkpt lat="47.0795" lon="-1.81559">
        <ele>70</ele>
        <time>2021-02-20T11:32:43.000Z</time>
      </trkpt>
      <trkpt lat="47.07939" lon="-1.8156">
        <ele>69</ele>
        <time>2021-02-20T11:32:45.000Z</time>
      </trkpt>
      <trkpt lat="47.07928" lon="-1.8156">
        <ele>69</ele>
        <time>2021-02-20T11:32:47.000Z</time>
      </trkpt>
      <trkpt lat="47.07917" lon="-1.8156">
        <ele>69</ele>
        <time>2021-02-20T11:32:49.000Z</time>
      </trkpt>
      <trkpt lat="47.07907" lon="-1.81561">
        <ele>69</ele>
        <time>2021-02-20T11:32:51.000Z</time>
      </trkpt>
      <trkpt lat="47.07897" lon="-1.81562">
        <ele>69</ele>
        <time>2021-02-20T11:32:53.000Z</time>
      </trkpt>
      <trkpt lat="47.07887" lon="-1.81563">
        <ele>69</ele>
        <time>2021-02-20T11:32:55.000Z</time>
      </trkpt>
      <trkpt lat="47.07878" lon="-1.81563">
        <ele>69</ele>
        <time>2021-02-20T11:32:57.000Z</time>
      </trkpt>
      <trkpt lat="47.07868" lon="-1.81564">
        <ele>69</ele>
        <time>2021-02-20T11:32:59.000Z</time>
      </trkpt>
      <trkpt lat="47.07855" lon="-1.81563">
        <ele>69</ele>
        <time>2021-02-20T11:33:02.000Z</time>
      </trkpt>
      <trkpt lat="47.07842" lon="-1.81562">
        <ele>69</ele>
        <time>2021-02-20T11:33:05.000Z</time>
      </trkpt>
      <trkpt lat="47.07833" lon="-1.8156">
        <ele>69</ele>
        <time>2021-02-20T11:33:07.000Z</time>
      </trkpt>
      <trkpt lat="47.0782" lon="-1.81557">
        <ele>70</ele>
        <time>2021-02-20T11:33:10.000Z</time>
      </trkpt>
      <trkpt lat="47.07811" lon="-1.81555">
        <ele>69</ele>
        <time>2021-02-20T11:33:12.000Z</time>
      </trkpt>
      <trkpt lat="47.07801" lon="-1.81553">
        <ele>69</ele>
        <time>2021-02-20T11:33:14.000Z</time>
      </trkpt>
      <trkpt lat="47.07788" lon="-1.81551">
        <ele>69</ele>
        <time>2021-02-20T11:33:17.000Z</time>
      </trkpt>
      <trkpt lat="47.07775" lon="-1.81549">
        <ele>70</ele>
        <time>2021-02-20T11:33:20.000Z</time>
      </trkpt>
      <trkpt lat="47.07766" lon="-1.8155">
        <ele>70</ele>
        <time>2021-02-20T11:33:22.000Z</time>
      </trkpt>
      <trkpt lat="47.07757" lon="-1.81549">
        <ele>70</ele>
        <time>2021-02-20T11:33:24.000Z</time>
      </trkpt>
      <trkpt lat="47.07747" lon="-1.81549">
        <ele>71</ele>
        <time>2021-02-20T11:33:26.000Z</time>
      </trkpt>
      <trkpt lat="47.07737" lon="-1.81548">
        <ele>70</ele>
        <time>2021-02-20T11:33:28.000Z</time>
      </trkpt>
      <trkpt lat="47.07727" lon="-1.81548">
        <ele>70</ele>
        <time>2021-02-20T11:33:30.000Z</time>
      </trkpt>
      <trkpt lat="47.07718" lon="-1.81548">
        <ele>70</ele>
        <time>2021-02-20T11:33:32.000Z</time>
      </trkpt>
      <trkpt lat="47.07709" lon="-1.81547">
        <ele>70</ele>
        <time>2021-02-20T11:33:34.000Z</time>
      </trkpt>
      <trkpt lat="47.07699" lon="-1.81546">
        <ele>70</ele>
        <time>2021-02-20T11:33:36.000Z</time>
      </trkpt>
      <trkpt lat="47.0769" lon="-1.81546">
        <ele>70</ele>
        <time>2021-02-20T11:33:38.000Z</time>
      </trkpt>
      <trkpt lat="47.0768" lon="-1.81545">
        <ele>70</ele>
        <time>2021-02-20T11:33:40.000Z</time>
      </trkpt>
      <trkpt lat="47.0767" lon="-1.81544">
        <ele>70</ele>
        <time>2021-02-20T11:33:42.000Z</time>
      </trkpt>
      <trkpt lat="47.07661" lon="-1.81543">
        <ele>70</ele>
        <time>2021-02-20T11:33:44.000Z</time>
      </trkpt>
      <trkpt lat="47.07651" lon="-1.81541">
        <ele>70</ele>
        <time>2021-02-20T11:33:46.000Z</time>
      </trkpt>
      <trkpt lat="47.07642" lon="-1.81537">
        <ele>70</ele>
        <time>2021-02-20T11:33:48.000Z</time>
      </trkpt>
      <trkpt lat="47.07632" lon="-1.81532">
        <ele>70</ele>
        <time>2021-02-20T11:33:50.000Z</time>
      </trkpt>
      <trkpt lat="47.07624" lon="-1.81526">
        <ele>70</ele>
        <time>2021-02-20T11:33:52.000Z</time>
      </trkpt>
      <trkpt lat="47.07616" lon="-1.81518">
        <ele>70</ele>
        <time>2021-02-20T11:33:54.000Z</time>
      </trkpt>
      <trkpt lat="47.07608" lon="-1.8151">
        <ele>70</ele>
        <time>2021-02-20T11:33:56.000Z</time>
      </trkpt>
      <trkpt lat="47.07599" lon="-1.81501">
        <ele>70</ele>
        <time>2021-02-20T11:33:58.000Z</time>
      </trkpt>
      <trkpt lat="47.07591" lon="-1.81492">
        <ele>71</ele>
        <time>2021-02-20T11:34:00.000Z</time>
      </trkpt>
      <trkpt lat="47.07582" lon="-1.81483">
        <ele>71</ele>
        <time>2021-02-20T11:34:02.000Z</time>
      </trkpt>
      <trkpt lat="47.07573" lon="-1.81474">
        <ele>71</ele>
        <time>2021-02-20T11:34:04.000Z</time>
      </trkpt>
      <trkpt lat="47.07565" lon="-1.81466">
        <ele>71</ele>
        <time>2021-02-20T11:34:06.000Z</time>
      </trkpt>
      <trkpt lat="47.07556" lon="-1.81457">
        <ele>71</ele>
        <time>2021-02-20T11:34:08.000Z</time>
      </trkpt>
      <trkpt lat="47.07547" lon="-1.81449">
        <ele>71</ele>
        <time>2021-02-20T11:34:10.000Z</time>
      </trkpt>
      <trkpt lat="47.07537" lon="-1.81444">
        <ele>71</ele>
        <time>2021-02-20T11:34:12.000Z</time>
      </trkpt>
      <trkpt lat="47.07525" lon="-1.81443">
        <ele>72</ele>
        <time>2021-02-20T11:34:14.000Z</time>
      </trkpt>
      <trkpt lat="47.07514" lon="-1.81447">
        <ele>71</ele>
        <time>2021-02-20T11:34:16.000Z</time>
      </trkpt>
      <trkpt lat="47.07504" lon="-1.81452">
        <ele>71</ele>
        <time>2021-02-20T11:34:18.000Z</time>
      </trkpt>
      <trkpt lat="47.07495" lon="-1.81458">
        <ele>71</ele>
        <time>2021-02-20T11:34:20.000Z</time>
      </trkpt>
      <trkpt lat="47.07485" lon="-1.81464">
        <ele>71</ele>
        <time>2021-02-20T11:34:22.000Z</time>
      </trkpt>
      <trkpt lat="47.07474" lon="-1.8147">
        <ele>71</ele>
        <time>2021-02-20T11:34:24.000Z</time>
      </trkpt>
      <trkpt lat="47.07464" lon="-1.81475">
        <ele>71</ele>
        <time>2021-02-20T11:34:26.000Z</time>
      </trkpt>
      <trkpt lat="47.07453" lon="-1.8148">
        <ele>71</ele>
        <time>2021-02-20T11:34:28.000Z</time>
      </trkpt>
      <trkpt lat="47.07442" lon="-1.81483">
        <ele>71</ele>
        <time>2021-02-20T11:34:30.000Z</time>
      </trkpt>
      <trkpt lat="47.07431" lon="-1.81484">
        <ele>72</ele>
        <time>2021-02-20T11:34:32.000Z</time>
      </trkpt>
      <trkpt lat="47.0742" lon="-1.81485">
        <ele>72</ele>
        <time>2021-02-20T11:34:34.000Z</time>
      </trkpt>
      <trkpt lat="47.07409" lon="-1.81486">
        <ele>71</ele>
        <time>2021-02-20T11:34:36.000Z</time>
      </trkpt>
      <trkpt lat="47.07398" lon="-1.81487">
        <ele>72</ele>
        <time>2021-02-20T11:34:38.000Z</time>
      </trkpt>
      <trkpt lat="47.07388" lon="-1.81487">
        <ele>72</ele>
        <time>2021-02-20T11:34:40.000Z</time>
      </trkpt>
      <trkpt lat="47.07377" lon="-1.81486">
        <ele>73</ele>
        <time>2021-02-20T11:34:42.000Z</time>
      </trkpt>
      <trkpt lat="47.07367" lon="-1.81485">
        <ele>73</ele>
        <time>2021-02-20T11:34:44.000Z</time>
      </trkpt>
      <trkpt lat="47.07357" lon="-1.81482">
        <ele>73</ele>
        <time>2021-02-20T11:34:46.000Z</time>
      </trkpt>
      <trkpt lat="47.07346" lon="-1.81476">
        <ele>72</ele>
        <time>2021-02-20T11:34:48.000Z</time>
      </trkpt>
      <trkpt lat="47.07336" lon="-1.81471">
        <ele>72</ele>
        <time>2021-02-20T11:34:50.000Z</time>
      </trkpt>
      <trkpt lat="47.07326" lon="-1.81467">
        <ele>72</ele>
        <time>2021-02-20T11:34:52.000Z</time>
      </trkpt>
      <trkpt lat="47.07316" lon="-1.81461">
        <ele>72</ele>
        <time>2021-02-20T11:34:54.000Z</time>
      </trkpt>
      <trkpt lat="47.07306" lon="-1.81456">
        <ele>73</ele>
        <time>2021-02-20T11:34:56.000Z</time>
      </trkpt>
      <trkpt lat="47.07297" lon="-1.81449">
        <ele>73</ele>
        <time>2021-02-20T11:34:58.000Z</time>
      </trkpt>
      <trkpt lat="47.07288" lon="-1.81441">
        <ele>73</ele>
        <time>2021-02-20T11:35:00.000Z</time>
      </trkpt>
      <trkpt lat="47.07279" lon="-1.81434">
        <ele>73</ele>
        <time>2021-02-20T11:35:02.000Z</time>
      </trkpt>
      <trkpt lat="47.07271" lon="-1.81426">
        <ele>73</ele>
        <time>2021-02-20T11:35:04.000Z</time>
      </trkpt>
      <trkpt lat="47.07262" lon="-1.81418">
        <ele>73</ele>
        <time>2021-02-20T11:35:06.000Z</time>
      </trkpt>
      <trkpt lat="47.07253" lon="-1.81409">
        <ele>73</ele>
        <time>2021-02-20T11:35:08.000Z</time>
      </trkpt>
      <trkpt lat="47.07245" lon="-1.81401">
        <ele>73</ele>
        <time>2021-02-20T11:35:10.000Z</time>
      </trkpt>
      <trkpt lat="47.07237" lon="-1.81393">
        <ele>73</ele>
        <time>2021-02-20T11:35:12.000Z</time>
      </trkpt>
      <trkpt lat="47.07227" lon="-1.81384">
        <ele>73</ele>
        <time>2021-02-20T11:35:14.000Z</time>
      </trkpt>
      <trkpt lat="47.07219" lon="-1.81377">
        <ele>74</ele>
        <time>2021-02-20T11:35:16.000Z</time>
      </trkpt>
      <trkpt lat="47.0721" lon="-1.81368">
        <ele>74</ele>
        <time>2021-02-20T11:35:18.000Z</time>
      </trkpt>
      <trkpt lat="47.07201" lon="-1.8136">
        <ele>74</ele>
        <time>2021-02-20T11:35:20.000Z</time>
      </trkpt>
      <trkpt lat="47.07192" lon="-1.81352">
        <ele>74</ele>
        <time>2021-02-20T11:35:22.000Z</time>
      </trkpt>
      <trkpt lat="47.07182" lon="-1.81347">
        <ele>73</ele>
        <time>2021-02-20T11:35:24.000Z</time>
      </trkpt>
      <trkpt lat="47.07172" lon="-1.81346">
        <ele>73</ele>
        <time>2021-02-20T11:35:26.000Z</time>
      </trkpt>
      <trkpt lat="47.07163" lon="-1.81353">
        <ele>74</ele>
        <time>2021-02-20T11:35:28.000Z</time>
      </trkpt>
      <trkpt lat="47.07155" lon="-1.81362">
        <ele>74</ele>
        <time>2021-02-20T11:35:30.000Z</time>
      </trkpt>
      <trkpt lat="47.07147" lon="-1.8137">
        <ele>73</ele>
        <time>2021-02-20T11:35:32.000Z</time>
      </trkpt>
      <trkpt lat="47.07139" lon="-1.81379">
        <ele>74</ele>
        <time>2021-02-20T11:35:34.000Z</time>
      </trkpt>
      <trkpt lat="47.07131" lon="-1.81388">
        <ele>74</ele>
        <time>2021-02-20T11:35:36.000Z</time>
      </trkpt>
      <trkpt lat="47.07124" lon="-1.81397">
        <ele>74</ele>
        <time>2021-02-20T11:35:38.000Z</time>
      </trkpt>
      <trkpt lat="47.07116" lon="-1.81406">
        <ele>75</ele>
        <time>2021-02-20T11:35:40.000Z</time>
      </trkpt>
      <trkpt lat="47.07109" lon="-1.81416">
        <ele>75</ele>
        <time>2021-02-20T11:35:42.000Z</time>
      </trkpt>
      <trkpt lat="47.07101" lon="-1.81427">
        <ele>75</ele>
        <time>2021-02-20T11:35:44.000Z</time>
      </trkpt>
      <trkpt lat="47.07094" lon="-1.81437">
        <ele>76</ele>
        <time>2021-02-20T11:35:46.000Z</time>
      </trkpt>
      <trkpt lat="47.07087" lon="-1.81447">
        <ele>76</ele>
        <time>2021-02-20T11:35:48.000Z</time>
      </trkpt>
      <trkpt lat="47.07079" lon="-1.81458">
        <ele>76</ele>
        <time>2021-02-20T11:35:50.000Z</time>
      </trkpt>
      <trkpt lat="47.07073" lon="-1.81469">
        <ele>76</ele>
        <time>2021-02-20T11:35:52.000Z</time>
      </trkpt>
      <trkpt lat="47.07067" lon="-1.8148">
        <ele>76</ele>
        <time>2021-02-20T11:35:54.000Z</time>
      </trkpt>
      <trkpt lat="47.07061" lon="-1.81492">
        <ele>76</ele>
        <time>2021-02-20T11:35:56.000Z</time>
      </trkpt>
      <trkpt lat="47.07056" lon="-1.81504">
        <ele>76</ele>
        <time>2021-02-20T11:35:58.000Z</time>
      </trkpt>
      <trkpt lat="47.0705" lon="-1.81516">
        <ele>77</ele>
        <time>2021-02-20T11:36:00.000Z</time>
      </trkpt>
      <trkpt lat="47.07044" lon="-1.81529">
        <ele>77</ele>
        <time>2021-02-20T11:36:02.000Z</time>
      </trkpt>
      <trkpt lat="47.07038" lon="-1.8154">
        <ele>77</ele>
        <time>2021-02-20T11:36:04.000Z</time>
      </trkpt>
      <trkpt lat="47.07033" lon="-1.81554">
        <ele>77</ele>
        <time>2021-02-20T11:36:06.000Z</time>
      </trkpt>
      <trkpt lat="47.07028" lon="-1.81567">
        <ele>77</ele>
        <time>2021-02-20T11:36:08.000Z</time>
      </trkpt>
      <trkpt lat="47.07024" lon="-1.81581">
        <ele>77</ele>
        <time>2021-02-20T11:36:10.000Z</time>
      </trkpt>
      <trkpt lat="47.0702" lon="-1.81595">
        <ele>77</ele>
        <time>2021-02-20T11:36:12.000Z</time>
      </trkpt>
      <trkpt lat="47.07016" lon="-1.81609">
        <ele>77</ele>
        <time>2021-02-20T11:36:14.000Z</time>
      </trkpt>
      <trkpt lat="47.07012" lon="-1.81622">
        <ele>77</ele>
        <time>2021-02-20T11:36:16.000Z</time>
      </trkpt>
      <trkpt lat="47.07008" lon="-1.81636">
        <ele>78</ele>
        <time>2021-02-20T11:36:18.000Z</time>
      </trkpt>
      <trkpt lat="47.07004" lon="-1.8165">
        <ele>78</ele>
        <time>2021-02-20T11:36:20.000Z</time>
      </trkpt>
      <trkpt lat="47.07" lon="-1.81664">
        <ele>78</ele>
        <time>2021-02-20T11:36:22.000Z</time>
      </trkpt>
      <trkpt lat="47.06997" lon="-1.81678">
        <ele>78</ele>
        <time>2021-02-20T11:36:24.000Z</time>
      </trkpt>
      <trkpt lat="47.06993" lon="-1.81692">
        <ele>78</ele>
        <time>2021-02-20T11:36:26.000Z</time>
      </trkpt>
      <trkpt lat="47.06989" lon="-1.81704">
        <ele>78</ele>
        <time>2021-02-20T11:36:28.000Z</time>
      </trkpt>
      <trkpt lat="47.06984" lon="-1.81717">
        <ele>78</ele>
        <time>2021-02-20T11:36:30.000Z</time>
      </trkpt>
      <trkpt lat="47.06979" lon="-1.81729">
        <ele>78</ele>
        <time>2021-02-20T11:36:32.000Z</time>
      </trkpt>
      <trkpt lat="47.06974" lon="-1.81741">
        <ele>78</ele>
        <time>2021-02-20T11:36:34.000Z</time>
      </trkpt>
      <trkpt lat="47.06969" lon="-1.81754">
        <ele>78</ele>
        <time>2021-02-20T11:36:36.000Z</time>
      </trkpt>
      <trkpt lat="47.06964" lon="-1.81766">
        <ele>78</ele>
        <time>2021-02-20T11:36:38.000Z</time>
      </trkpt>
      <trkpt lat="47.06959" lon="-1.81778">
        <ele>79</ele>
        <time>2021-02-20T11:36:40.000Z</time>
      </trkpt>
      <trkpt lat="47.06953" lon="-1.81791">
        <ele>78</ele>
        <time>2021-02-20T11:36:42.000Z</time>
      </trkpt>
      <trkpt lat="47.06948" lon="-1.81803">
        <ele>79</ele>
        <time>2021-02-20T11:36:44.000Z</time>
      </trkpt>
      <trkpt lat="47.06943" lon="-1.81815">
        <ele>78</ele>
        <time>2021-02-20T11:36:46.000Z</time>
      </trkpt>
      <trkpt lat="47.06938" lon="-1.81827">
        <ele>79</ele>
        <time>2021-02-20T11:36:48.000Z</time>
      </trkpt>
      <trkpt lat="47.06933" lon="-1.81839">
        <ele>79</ele>
        <time>2021-02-20T11:36:50.000Z</time>
      </trkpt>
      <trkpt lat="47.06928" lon="-1.81851">
        <ele>79</ele>
        <time>2021-02-20T11:36:52.000Z</time>
      </trkpt>
      <trkpt lat="47.06923" lon="-1.81863">
        <ele>79</ele>
        <time>2021-02-20T11:36:54.000Z</time>
      </trkpt>
      <trkpt lat="47.06918" lon="-1.81875">
        <ele>80</ele>
        <time>2021-02-20T11:36:56.000Z</time>
      </trkpt>
      <trkpt lat="47.06913" lon="-1.81886">
        <ele>80</ele>
        <time>2021-02-20T11:36:58.000Z</time>
      </trkpt>
      <trkpt lat="47.06908" lon="-1.81899">
        <ele>80</ele>
        <time>2021-02-20T11:37:00.000Z</time>
      </trkpt>
      <trkpt lat="47.06903" lon="-1.81911">
        <ele>80</ele>
        <time>2021-02-20T11:37:02.000Z</time>
      </trkpt>
      <trkpt lat="47.06899" lon="-1.81923">
        <ele>80</ele>
        <time>2021-02-20T11:37:04.000Z</time>
      </trkpt>
      <trkpt lat="47.06896" lon="-1.81938">
        <ele>80</ele>
        <time>2021-02-20T11:37:06.000Z</time>
      </trkpt>
      <trkpt lat="47.06895" lon="-1.81952">
        <ele>80</ele>
        <time>2021-02-20T11:37:08.000Z</time>
      </trkpt>
      <trkpt lat="47.06894" lon="-1.81967">
        <ele>80</ele>
        <time>2021-02-20T11:37:10.000Z</time>
      </trkpt>
      <trkpt lat="47.06895" lon="-1.81982">
        <ele>80</ele>
        <time>2021-02-20T11:37:12.000Z</time>
      </trkpt>
      <trkpt lat="47.06896" lon="-1.81997">
        <ele>81</ele>
        <time>2021-02-20T11:37:14.000Z</time>
      </trkpt>
      <trkpt lat="47.06898" lon="-1.82011">
        <ele>81</ele>
        <time>2021-02-20T11:37:16.000Z</time>
      </trkpt>
      <trkpt lat="47.06899" lon="-1.82026">
        <ele>81</ele>
        <time>2021-02-20T11:37:18.000Z</time>
      </trkpt>
      <trkpt lat="47.069" lon="-1.8204">
        <ele>82</ele>
        <time>2021-02-20T11:37:20.000Z</time>
      </trkpt>
      <trkpt lat="47.06902" lon="-1.82055">
        <ele>82</ele>
        <time>2021-02-20T11:37:22.000Z</time>
      </trkpt>
      <trkpt lat="47.06903" lon="-1.82071">
        <ele>82</ele>
        <time>2021-02-20T11:37:24.000Z</time>
      </trkpt>
      <trkpt lat="47.06905" lon="-1.82086">
        <ele>83</ele>
        <time>2021-02-20T11:37:26.000Z</time>
      </trkpt>
      <trkpt lat="47.06905" lon="-1.82101">
        <ele>83</ele>
        <time>2021-02-20T11:37:28.000Z</time>
      </trkpt>
      <trkpt lat="47.06906" lon="-1.82116">
        <ele>83</ele>
        <time>2021-02-20T11:37:30.000Z</time>
      </trkpt>
      <trkpt lat="47.06906" lon="-1.82132">
        <ele>83</ele>
        <time>2021-02-20T11:37:32.000Z</time>
      </trkpt>
      <trkpt lat="47.06906" lon="-1.82149">
        <ele>83</ele>
        <time>2021-02-20T11:37:34.000Z</time>
      </trkpt>
      <trkpt lat="47.06906" lon="-1.82164">
        <ele>83</ele>
        <time>2021-02-20T11:37:36.000Z</time>
      </trkpt>
      <trkpt lat="47.06905" lon="-1.82179">
        <ele>83</ele>
        <time>2021-02-20T11:37:38.000Z</time>
      </trkpt>
      <trkpt lat="47.06905" lon="-1.82195">
        <ele>84</ele>
        <time>2021-02-20T11:37:40.000Z</time>
      </trkpt>
      <trkpt lat="47.06905" lon="-1.8221">
        <ele>84</ele>
        <time>2021-02-20T11:37:42.000Z</time>
      </trkpt>
      <trkpt lat="47.06905" lon="-1.82227">
        <ele>84</ele>
        <time>2021-02-20T11:37:44.000Z</time>
      </trkpt>
      <trkpt lat="47.06904" lon="-1.82241">
        <ele>84</ele>
        <time>2021-02-20T11:37:46.000Z</time>
      </trkpt>
      <trkpt lat="47.06904" lon="-1.82257">
        <ele>84</ele>
        <time>2021-02-20T11:37:48.000Z</time>
      </trkpt>
      <trkpt lat="47.06904" lon="-1.82273">
        <ele>84</ele>
        <time>2021-02-20T11:37:50.000Z</time>
      </trkpt>
      <trkpt lat="47.06903" lon="-1.82288">
        <ele>84</ele>
        <time>2021-02-20T11:37:52.000Z</time>
      </trkpt>
      <trkpt lat="47.06902" lon="-1.82304">
        <ele>84</ele>
        <time>2021-02-20T11:37:54.000Z</time>
      </trkpt>
      <trkpt lat="47.069" lon="-1.82321">
        <ele>84</ele>
        <time>2021-02-20T11:37:56.000Z</time>
      </trkpt>
      <trkpt lat="47.06898" lon="-1.82337">
        <ele>85</ele>
        <time>2021-02-20T11:37:58.000Z</time>
      </trkpt>
      <trkpt lat="47.06897" lon="-1.82352">
        <ele>85</ele>
        <time>2021-02-20T11:38:00.000Z</time>
      </trkpt>
      <trkpt lat="47.06895" lon="-1.82367">
        <ele>85</ele>
        <time>2021-02-20T11:38:02.000Z</time>
      </trkpt>
      <trkpt lat="47.06892" lon="-1.8239">
        <ele>85</ele>
        <time>2021-02-20T11:38:05.000Z</time>
      </trkpt>
      <trkpt lat="47.0689" lon="-1.82405">
        <ele>85</ele>
        <time>2021-02-20T11:38:07.000Z</time>
      </trkpt>
      <trkpt lat="47.06888" lon="-1.8242">
        <ele>86</ele>
        <time>2021-02-20T11:38:09.000Z</time>
      </trkpt>
      <trkpt lat="47.06886" lon="-1.82434">
        <ele>86</ele>
        <time>2021-02-20T11:38:11.000Z</time>
      </trkpt>
      <trkpt lat="47.06884" lon="-1.82451">
        <ele>86</ele>
        <time>2021-02-20T11:38:13.000Z</time>
      </trkpt>
      <trkpt lat="47.06882" lon="-1.82475">
        <ele>86</ele>
        <time>2021-02-20T11:38:16.000Z</time>
      </trkpt>
      <trkpt lat="47.06883" lon="-1.82499">
        <ele>86</ele>
        <time>2021-02-20T11:38:19.000Z</time>
      </trkpt>
      <trkpt lat="47.06884" lon="-1.82515">
        <ele>86</ele>
        <time>2021-02-20T11:38:21.000Z</time>
      </trkpt>
      <trkpt lat="47.06886" lon="-1.82531">
        <ele>86</ele>
        <time>2021-02-20T11:38:23.000Z</time>
      </trkpt>
      <trkpt lat="47.06887" lon="-1.82547">
        <ele>86</ele>
        <time>2021-02-20T11:38:25.000Z</time>
      </trkpt>
      <trkpt lat="47.06889" lon="-1.82563">
        <ele>86</ele>
        <time>2021-02-20T11:38:27.000Z</time>
      </trkpt>
      <trkpt lat="47.0689" lon="-1.82579">
        <ele>86</ele>
        <time>2021-02-20T11:38:29.000Z</time>
      </trkpt>
      <trkpt lat="47.06892" lon="-1.82596">
        <ele>86</ele>
        <time>2021-02-20T11:38:31.000Z</time>
      </trkpt>
      <trkpt lat="47.06893" lon="-1.82612">
        <ele>86</ele>
        <time>2021-02-20T11:38:33.000Z</time>
      </trkpt>
      <trkpt lat="47.06895" lon="-1.82628">
        <ele>86</ele>
        <time>2021-02-20T11:38:35.000Z</time>
      </trkpt>
      <trkpt lat="47.06896" lon="-1.82644">
        <ele>86</ele>
        <time>2021-02-20T11:38:37.000Z</time>
      </trkpt>
      <trkpt lat="47.06896" lon="-1.8266">
        <ele>86</ele>
        <time>2021-02-20T11:38:39.000Z</time>
      </trkpt>
      <trkpt lat="47.06897" lon="-1.82676">
        <ele>86</ele>
        <time>2021-02-20T11:38:41.000Z</time>
      </trkpt>
      <trkpt lat="47.06897" lon="-1.82693">
        <ele>86</ele>
        <time>2021-02-20T11:38:43.000Z</time>
      </trkpt>
      <trkpt lat="47.06896" lon="-1.82709">
        <ele>86</ele>
        <time>2021-02-20T11:38:45.000Z</time>
      </trkpt>
      <trkpt lat="47.06895" lon="-1.82726">
        <ele>86</ele>
        <time>2021-02-20T11:38:47.000Z</time>
      </trkpt>
      <trkpt lat="47.06895" lon="-1.82742">
        <ele>86</ele>
        <time>2021-02-20T11:38:49.000Z</time>
      </trkpt>
      <trkpt lat="47.06896" lon="-1.82758">
        <ele>86</ele>
        <time>2021-02-20T11:38:51.000Z</time>
      </trkpt>
      <trkpt lat="47.06896" lon="-1.82774">
        <ele>86</ele>
        <time>2021-02-20T11:38:53.000Z</time>
      </trkpt>
      <trkpt lat="47.06897" lon="-1.8279">
        <ele>86</ele>
        <time>2021-02-20T11:38:55.000Z</time>
      </trkpt>
      <trkpt lat="47.06898" lon="-1.82806">
        <ele>86</ele>
        <time>2021-02-20T11:38:57.000Z</time>
      </trkpt>
      <trkpt lat="47.06898" lon="-1.82821">
        <ele>86</ele>
        <time>2021-02-20T11:38:59.000Z</time>
      </trkpt>
      <trkpt lat="47.069" lon="-1.82837">
        <ele>86</ele>
        <time>2021-02-20T11:39:01.000Z</time>
      </trkpt>
      <trkpt lat="47.06901" lon="-1.82861">
        <ele>86</ele>
        <time>2021-02-20T11:39:04.000Z</time>
      </trkpt>
      <trkpt lat="47.06902" lon="-1.82878">
        <ele>86</ele>
        <time>2021-02-20T11:39:06.000Z</time>
      </trkpt>
      <trkpt lat="47.06903" lon="-1.82893">
        <ele>85</ele>
        <time>2021-02-20T11:39:08.000Z</time>
      </trkpt>
      <trkpt lat="47.06903" lon="-1.82909">
        <ele>85</ele>
        <time>2021-02-20T11:39:10.000Z</time>
      </trkpt>
      <trkpt lat="47.06904" lon="-1.82925">
        <ele>85</ele>
        <time>2021-02-20T11:39:12.000Z</time>
      </trkpt>
      <trkpt lat="47.06906" lon="-1.8295">
        <ele>85</ele>
        <time>2021-02-20T11:39:15.000Z</time>
      </trkpt>
      <trkpt lat="47.06907" lon="-1.82966">
        <ele>85</ele>
        <time>2021-02-20T11:39:17.000Z</time>
      </trkpt>
      <trkpt lat="47.06907" lon="-1.82982">
        <ele>85</ele>
        <time>2021-02-20T11:39:19.000Z</time>
      </trkpt>
      <trkpt lat="47.06909" lon="-1.82997">
        <ele>85</ele>
        <time>2021-02-20T11:39:21.000Z</time>
      </trkpt>
      <trkpt lat="47.06911" lon="-1.83012">
        <ele>85</ele>
        <time>2021-02-20T11:39:23.000Z</time>
      </trkpt>
      <trkpt lat="47.06916" lon="-1.83025">
        <ele>85</ele>
        <time>2021-02-20T11:39:25.000Z</time>
      </trkpt>
      <trkpt lat="47.06915" lon="-1.83039">
        <ele>85</ele>
        <time>2021-02-20T11:39:27.000Z</time>
      </trkpt>
      <trkpt lat="47.06905" lon="-1.83042">
        <ele>85</ele>
        <time>2021-02-20T11:39:29.000Z</time>
      </trkpt>
      <trkpt lat="47.06893" lon="-1.83041">
        <ele>85</ele>
        <time>2021-02-20T11:39:31.000Z</time>
      </trkpt>
      <trkpt lat="47.06883" lon="-1.8304">
        <ele>85</ele>
        <time>2021-02-20T11:39:33.000Z</time>
      </trkpt>
      <trkpt lat="47.06872" lon="-1.83038">
        <ele>84</ele>
        <time>2021-02-20T11:39:35.000Z</time>
      </trkpt>
      <trkpt lat="47.06862" lon="-1.83037">
        <ele>84</ele>
        <time>2021-02-20T11:39:37.000Z</time>
      </trkpt>
      <trkpt lat="47.0685" lon="-1.83036">
        <ele>84</ele>
        <time>2021-02-20T11:39:39.000Z</time>
      </trkpt>
      <trkpt lat="47.0684" lon="-1.83035">
        <ele>83</ele>
        <time>2021-02-20T11:39:41.000Z</time>
      </trkpt>
      <trkpt lat="47.06828" lon="-1.83034">
        <ele>83</ele>
        <time>2021-02-20T11:39:43.000Z</time>
      </trkpt>
      <trkpt lat="47.06817" lon="-1.83034">
        <ele>83</ele>
        <time>2021-02-20T11:39:45.000Z</time>
      </trkpt>
      <trkpt lat="47.06807" lon="-1.83035">
        <ele>83</ele>
        <time>2021-02-20T11:39:47.000Z</time>
      </trkpt>
      <trkpt lat="47.06796" lon="-1.83037">
        <ele>83</ele>
        <time>2021-02-20T11:39:49.000Z</time>
      </trkpt>
      <trkpt lat="47.06786" lon="-1.83039">
        <ele>83</ele>
        <time>2021-02-20T11:39:51.000Z</time>
      </trkpt>
      <trkpt lat="47.06775" lon="-1.8304">
        <ele>82</ele>
        <time>2021-02-20T11:39:53.000Z</time>
      </trkpt>
      <trkpt lat="47.06765" lon="-1.83042">
        <ele>83</ele>
        <time>2021-02-20T11:39:55.000Z</time>
      </trkpt>
      <trkpt lat="47.06754" lon="-1.83044">
        <ele>82</ele>
        <time>2021-02-20T11:39:57.000Z</time>
      </trkpt>
      <trkpt lat="47.06743" lon="-1.83045">
        <ele>82</ele>
        <time>2021-02-20T11:39:59.000Z</time>
      </trkpt>
      <trkpt lat="47.06731" lon="-1.83047">
        <ele>82</ele>
        <time>2021-02-20T11:40:01.000Z</time>
      </trkpt>
      <trkpt lat="47.0672" lon="-1.83049">
        <ele>82</ele>
        <time>2021-02-20T11:40:03.000Z</time>
      </trkpt>
      <trkpt lat="47.06703" lon="-1.83053">
        <ele>82</ele>
        <time>2021-02-20T11:40:06.000Z</time>
      </trkpt>
      <trkpt lat="47.06692" lon="-1.83055">
        <ele>81</ele>
        <time>2021-02-20T11:40:08.000Z</time>
      </trkpt>
      <trkpt lat="47.06681" lon="-1.83057">
        <ele>81</ele>
        <time>2021-02-20T11:40:10.000Z</time>
      </trkpt>
      <trkpt lat="47.0667" lon="-1.8306">
        <ele>81</ele>
        <time>2021-02-20T11:40:12.000Z</time>
      </trkpt>
      <trkpt lat="47.06659" lon="-1.83062">
        <ele>81</ele>
        <time>2021-02-20T11:40:14.000Z</time>
      </trkpt>
      <trkpt lat="47.06647" lon="-1.83065">
        <ele>81</ele>
        <time>2021-02-20T11:40:16.000Z</time>
      </trkpt>
      <trkpt lat="47.06636" lon="-1.83067">
        <ele>81</ele>
        <time>2021-02-20T11:40:18.000Z</time>
      </trkpt>
      <trkpt lat="47.06626" lon="-1.8307">
        <ele>81</ele>
        <time>2021-02-20T11:40:20.000Z</time>
      </trkpt>
      <trkpt lat="47.06615" lon="-1.83073">
        <ele>82</ele>
        <time>2021-02-20T11:40:22.000Z</time>
      </trkpt>
      <trkpt lat="47.06604" lon="-1.83075">
        <ele>82</ele>
        <time>2021-02-20T11:40:24.000Z</time>
      </trkpt>
      <trkpt lat="47.06593" lon="-1.83078">
        <ele>82</ele>
        <time>2021-02-20T11:40:26.000Z</time>
      </trkpt>
      <trkpt lat="47.06578" lon="-1.83082">
        <ele>82</ele>
        <time>2021-02-20T11:40:29.000Z</time>
      </trkpt>
      <trkpt lat="47.06567" lon="-1.83086">
        <ele>82</ele>
        <time>2021-02-20T11:40:31.000Z</time>
      </trkpt>
      <trkpt lat="47.06557" lon="-1.83089">
        <ele>82</ele>
        <time>2021-02-20T11:40:33.000Z</time>
      </trkpt>
      <trkpt lat="47.06547" lon="-1.83093">
        <ele>82</ele>
        <time>2021-02-20T11:40:35.000Z</time>
      </trkpt>
      <trkpt lat="47.06537" lon="-1.83098">
        <ele>82</ele>
        <time>2021-02-20T11:40:37.000Z</time>
      </trkpt>
      <trkpt lat="47.06527" lon="-1.83102">
        <ele>82</ele>
        <time>2021-02-20T11:40:39.000Z</time>
      </trkpt>
      <trkpt lat="47.06518" lon="-1.83106">
        <ele>82</ele>
        <time>2021-02-20T11:40:41.000Z</time>
      </trkpt>
      <trkpt lat="47.06508" lon="-1.8311">
        <ele>82</ele>
        <time>2021-02-20T11:40:43.000Z</time>
      </trkpt>
      <trkpt lat="47.06498" lon="-1.83114">
        <ele>82</ele>
        <time>2021-02-20T11:40:45.000Z</time>
      </trkpt>
      <trkpt lat="47.06488" lon="-1.83118">
        <ele>82</ele>
        <time>2021-02-20T11:40:47.000Z</time>
      </trkpt>
      <trkpt lat="47.06478" lon="-1.83123">
        <ele>82</ele>
        <time>2021-02-20T11:40:49.000Z</time>
      </trkpt>
      <trkpt lat="47.06467" lon="-1.83127">
        <ele>82</ele>
        <time>2021-02-20T11:40:51.000Z</time>
      </trkpt>
      <trkpt lat="47.06457" lon="-1.83131">
        <ele>82</ele>
        <time>2021-02-20T11:40:53.000Z</time>
      </trkpt>
      <trkpt lat="47.06447" lon="-1.83136">
        <ele>82</ele>
        <time>2021-02-20T11:40:55.000Z</time>
      </trkpt>
      <trkpt lat="47.06432" lon="-1.83142">
        <ele>82</ele>
        <time>2021-02-20T11:40:58.000Z</time>
      </trkpt>
      <trkpt lat="47.06422" lon="-1.83147">
        <ele>83</ele>
        <time>2021-02-20T11:41:00.000Z</time>
      </trkpt>
      <trkpt lat="47.06411" lon="-1.83151">
        <ele>83</ele>
        <time>2021-02-20T11:41:02.000Z</time>
      </trkpt>
      <trkpt lat="47.06402" lon="-1.83155">
        <ele>83</ele>
        <time>2021-02-20T11:41:04.000Z</time>
      </trkpt>
      <trkpt lat="47.06391" lon="-1.8316">
        <ele>83</ele>
        <time>2021-02-20T11:41:06.000Z</time>
      </trkpt>
      <trkpt lat="47.06382" lon="-1.83164">
        <ele>83</ele>
        <time>2021-02-20T11:41:08.000Z</time>
      </trkpt>
      <trkpt lat="47.06373" lon="-1.83168">
        <ele>83</ele>
        <time>2021-02-20T11:41:10.000Z</time>
      </trkpt>
      <trkpt lat="47.06364" lon="-1.83172">
        <ele>83</ele>
        <time>2021-02-20T11:41:12.000Z</time>
      </trkpt>
      <trkpt lat="47.06354" lon="-1.83176">
        <ele>83</ele>
        <time>2021-02-20T11:41:14.000Z</time>
      </trkpt>
      <trkpt lat="47.06344" lon="-1.8318">
        <ele>83</ele>
        <time>2021-02-20T11:41:16.000Z</time>
      </trkpt>
      <trkpt lat="47.06334" lon="-1.83184">
        <ele>83</ele>
        <time>2021-02-20T11:41:18.000Z</time>
      </trkpt>
      <trkpt lat="47.06324" lon="-1.83188">
        <ele>84</ele>
        <time>2021-02-20T11:41:20.000Z</time>
      </trkpt>
      <trkpt lat="47.06315" lon="-1.83192">
        <ele>84</ele>
        <time>2021-02-20T11:41:22.000Z</time>
      </trkpt>
      <trkpt lat="47.06305" lon="-1.83195">
        <ele>84</ele>
        <time>2021-02-20T11:41:24.000Z</time>
      </trkpt>
      <trkpt lat="47.06295" lon="-1.83198">
        <ele>84</ele>
        <time>2021-02-20T11:41:26.000Z</time>
      </trkpt>
      <trkpt lat="47.06286" lon="-1.832">
        <ele>84</ele>
        <time>2021-02-20T11:41:28.000Z</time>
      </trkpt>
      <trkpt lat="47.06275" lon="-1.83201">
        <ele>84</ele>
        <time>2021-02-20T11:41:30.000Z</time>
      </trkpt>
      <trkpt lat="47.06265" lon="-1.83203">
        <ele>84</ele>
        <time>2021-02-20T11:41:32.000Z</time>
      </trkpt>
      <trkpt lat="47.06255" lon="-1.83203">
        <ele>84</ele>
        <time>2021-02-20T11:41:34.000Z</time>
      </trkpt>
      <trkpt lat="47.06246" lon="-1.83204">
        <ele>84</ele>
        <time>2021-02-20T11:41:36.000Z</time>
      </trkpt>
      <trkpt lat="47.06236" lon="-1.83204">
        <ele>84</ele>
        <time>2021-02-20T11:41:38.000Z</time>
      </trkpt>
      <trkpt lat="47.06226" lon="-1.83205">
        <ele>84</ele>
        <time>2021-02-20T11:41:40.000Z</time>
      </trkpt>
      <trkpt lat="47.06216" lon="-1.83206">
        <ele>84</ele>
        <time>2021-02-20T11:41:42.000Z</time>
      </trkpt>
      <trkpt lat="47.06207" lon="-1.83206">
        <ele>85</ele>
        <time>2021-02-20T11:41:44.000Z</time>
      </trkpt>
      <trkpt lat="47.06197" lon="-1.83206">
        <ele>85</ele>
        <time>2021-02-20T11:41:46.000Z</time>
      </trkpt>
      <trkpt lat="47.06187" lon="-1.83207">
        <ele>85</ele>
        <time>2021-02-20T11:41:48.000Z</time>
      </trkpt>
      <trkpt lat="47.06178" lon="-1.83207">
        <ele>85</ele>
        <time>2021-02-20T11:41:50.000Z</time>
      </trkpt>
      <trkpt lat="47.06168" lon="-1.83208">
        <ele>85</ele>
        <time>2021-02-20T11:41:52.000Z</time>
      </trkpt>
      <trkpt lat="47.06158" lon="-1.83209">
        <ele>85</ele>
        <time>2021-02-20T11:41:54.000Z</time>
      </trkpt>
      <trkpt lat="47.06148" lon="-1.83209">
        <ele>85</ele>
        <time>2021-02-20T11:41:56.000Z</time>
      </trkpt>
      <trkpt lat="47.06138" lon="-1.8321">
        <ele>85</ele>
        <time>2021-02-20T11:41:58.000Z</time>
      </trkpt>
      <trkpt lat="47.06128" lon="-1.8321">
        <ele>85</ele>
        <time>2021-02-20T11:42:00.000Z</time>
      </trkpt>
      <trkpt lat="47.06118" lon="-1.8321">
        <ele>85</ele>
        <time>2021-02-20T11:42:02.000Z</time>
      </trkpt>
      <trkpt lat="47.06109" lon="-1.8321">
        <ele>85</ele>
        <time>2021-02-20T11:42:04.000Z</time>
      </trkpt>
      <trkpt lat="47.06099" lon="-1.83211">
        <ele>85</ele>
        <time>2021-02-20T11:42:06.000Z</time>
      </trkpt>
      <trkpt lat="47.0609" lon="-1.83212">
        <ele>85</ele>
        <time>2021-02-20T11:42:08.000Z</time>
      </trkpt>
      <trkpt lat="47.0608" lon="-1.83213">
        <ele>85</ele>
        <time>2021-02-20T11:42:10.000Z</time>
      </trkpt>
      <trkpt lat="47.06071" lon="-1.83213">
        <ele>85</ele>
        <time>2021-02-20T11:42:12.000Z</time>
      </trkpt>
      <trkpt lat="47.06061" lon="-1.83214">
        <ele>85</ele>
        <time>2021-02-20T11:42:14.000Z</time>
      </trkpt>
      <trkpt lat="47.06051" lon="-1.83214">
        <ele>85</ele>
        <time>2021-02-20T11:42:16.000Z</time>
      </trkpt>
      <trkpt lat="47.06041" lon="-1.83215">
        <ele>85</ele>
        <time>2021-02-20T11:42:18.000Z</time>
      </trkpt>
      <trkpt lat="47.06031" lon="-1.83215">
        <ele>85</ele>
        <time>2021-02-20T11:42:20.000Z</time>
      </trkpt>
      <trkpt lat="47.06021" lon="-1.83216">
        <ele>84</ele>
        <time>2021-02-20T11:42:22.000Z</time>
      </trkpt>
      <trkpt lat="47.06011" lon="-1.83217">
        <ele>84</ele>
        <time>2021-02-20T11:42:24.000Z</time>
      </trkpt>
      <trkpt lat="47.06002" lon="-1.83217">
        <ele>84</ele>
        <time>2021-02-20T11:42:26.000Z</time>
      </trkpt>
      <trkpt lat="47.05988" lon="-1.83218">
        <ele>84</ele>
        <time>2021-02-20T11:42:29.000Z</time>
      </trkpt>
      <trkpt lat="47.05979" lon="-1.83221">
        <ele>84</ele>
        <time>2021-02-20T11:42:31.000Z</time>
      </trkpt>
      <trkpt lat="47.0597" lon="-1.83228">
        <ele>84</ele>
        <time>2021-02-20T11:42:33.000Z</time>
      </trkpt>
      <trkpt lat="47.05962" lon="-1.83239">
        <ele>84</ele>
        <time>2021-02-20T11:42:35.000Z</time>
      </trkpt>
      <trkpt lat="47.05956" lon="-1.83249">
        <ele>84</ele>
        <time>2021-02-20T11:42:37.000Z</time>
      </trkpt>
      <trkpt lat="47.05949" lon="-1.8326">
        <ele>84</ele>
        <time>2021-02-20T11:42:39.000Z</time>
      </trkpt>
      <trkpt lat="47.05942" lon="-1.8327">
        <ele>84</ele>
        <time>2021-02-20T11:42:41.000Z</time>
      </trkpt>
      <trkpt lat="47.05935" lon="-1.83279">
        <ele>84</ele>
        <time>2021-02-20T11:42:43.000Z</time>
      </trkpt>
      <trkpt lat="47.05928" lon="-1.8329">
        <ele>84</ele>
        <time>2021-02-20T11:42:45.000Z</time>
      </trkpt>
      <trkpt lat="47.05922" lon="-1.833">
        <ele>84</ele>
        <time>2021-02-20T11:42:47.000Z</time>
      </trkpt>
      <trkpt lat="47.05915" lon="-1.8331">
        <ele>84</ele>
        <time>2021-02-20T11:42:49.000Z</time>
      </trkpt>
      <trkpt lat="47.05908" lon="-1.8332">
        <ele>84</ele>
        <time>2021-02-20T11:42:51.000Z</time>
      </trkpt>
      <trkpt lat="47.05901" lon="-1.83331">
        <ele>84</ele>
        <time>2021-02-20T11:42:53.000Z</time>
      </trkpt>
      <trkpt lat="47.05894" lon="-1.83341">
        <ele>84</ele>
        <time>2021-02-20T11:42:55.000Z</time>
      </trkpt>
      <trkpt lat="47.05887" lon="-1.83352">
        <ele>84</ele>
        <time>2021-02-20T11:42:57.000Z</time>
      </trkpt>
      <trkpt lat="47.0588" lon="-1.83362">
        <ele>84</ele>
        <time>2021-02-20T11:42:59.000Z</time>
      </trkpt>
      <trkpt lat="47.05873" lon="-1.83373">
        <ele>85</ele>
        <time>2021-02-20T11:43:01.000Z</time>
      </trkpt>
      <trkpt lat="47.05866" lon="-1.83383">
        <ele>85</ele>
        <time>2021-02-20T11:43:03.000Z</time>
      </trkpt>
      <trkpt lat="47.05859" lon="-1.83394">
        <ele>85</ele>
        <time>2021-02-20T11:43:05.000Z</time>
      </trkpt>
      <trkpt lat="47.05852" lon="-1.83405">
        <ele>85</ele>
        <time>2021-02-20T11:43:07.000Z</time>
      </trkpt>
      <trkpt lat="47.05845" lon="-1.83415">
        <ele>85</ele>
        <time>2021-02-20T11:43:09.000Z</time>
      </trkpt>
      <trkpt lat="47.05838" lon="-1.83426">
        <ele>85</ele>
        <time>2021-02-20T11:43:11.000Z</time>
      </trkpt>
      <trkpt lat="47.0583" lon="-1.83437">
        <ele>86</ele>
        <time>2021-02-20T11:43:13.000Z</time>
      </trkpt>
      <trkpt lat="47.05823" lon="-1.83447">
        <ele>86</ele>
        <time>2021-02-20T11:43:15.000Z</time>
      </trkpt>
      <trkpt lat="47.05816" lon="-1.83457">
        <ele>86</ele>
        <time>2021-02-20T11:43:17.000Z</time>
      </trkpt>
      <trkpt lat="47.05809" lon="-1.83467">
        <ele>86</ele>
        <time>2021-02-20T11:43:19.000Z</time>
      </trkpt>
      <trkpt lat="47.05802" lon="-1.83477">
        <ele>86</ele>
        <time>2021-02-20T11:43:21.000Z</time>
      </trkpt>
      <trkpt lat="47.05795" lon="-1.83485">
        <ele>86</ele>
        <time>2021-02-20T11:43:23.000Z</time>
      </trkpt>
      <trkpt lat="47.05788" lon="-1.83495">
        <ele>86</ele>
        <time>2021-02-20T11:43:25.000Z</time>
      </trkpt>
      <trkpt lat="47.0578" lon="-1.83503">
        <ele>86</ele>
        <time>2021-02-20T11:43:27.000Z</time>
      </trkpt>
      <trkpt lat="47.05772" lon="-1.83513">
        <ele>86</ele>
        <time>2021-02-20T11:43:29.000Z</time>
      </trkpt>
      <trkpt lat="47.05765" lon="-1.83522">
        <ele>86</ele>
        <time>2021-02-20T11:43:31.000Z</time>
      </trkpt>
      <trkpt lat="47.05757" lon="-1.83532">
        <ele>86</ele>
        <time>2021-02-20T11:43:33.000Z</time>
      </trkpt>
      <trkpt lat="47.05749" lon="-1.83541">
        <ele>87</ele>
        <time>2021-02-20T11:43:35.000Z</time>
      </trkpt>
      <trkpt lat="47.05741" lon="-1.83551">
        <ele>87</ele>
        <time>2021-02-20T11:43:37.000Z</time>
      </trkpt>
      <trkpt lat="47.05733" lon="-1.83561">
        <ele>86</ele>
        <time>2021-02-20T11:43:39.000Z</time>
      </trkpt>
      <trkpt lat="47.05725" lon="-1.83573">
        <ele>86</ele>
        <time>2021-02-20T11:43:41.000Z</time>
      </trkpt>
      <trkpt lat="47.05718" lon="-1.83585">
        <ele>86</ele>
        <time>2021-02-20T11:43:43.000Z</time>
      </trkpt>
      <trkpt lat="47.05712" lon="-1.83597">
        <ele>86</ele>
        <time>2021-02-20T11:43:45.000Z</time>
      </trkpt>
      <trkpt lat="47.05705" lon="-1.83609">
        <ele>86</ele>
        <time>2021-02-20T11:43:47.000Z</time>
      </trkpt>
      <trkpt lat="47.05698" lon="-1.8362">
        <ele>86</ele>
        <time>2021-02-20T11:43:49.000Z</time>
      </trkpt>
      <trkpt lat="47.05691" lon="-1.83633">
        <ele>86</ele>
        <time>2021-02-20T11:43:51.000Z</time>
      </trkpt>
      <trkpt lat="47.05684" lon="-1.83645">
        <ele>86</ele>
        <time>2021-02-20T11:43:53.000Z</time>
      </trkpt>
      <trkpt lat="47.05677" lon="-1.83658">
        <ele>86</ele>
        <time>2021-02-20T11:43:55.000Z</time>
      </trkpt>
      <trkpt lat="47.0567" lon="-1.83671">
        <ele>86</ele>
        <time>2021-02-20T11:43:57.000Z</time>
      </trkpt>
      <trkpt lat="47.05663" lon="-1.83683">
        <ele>86</ele>
        <time>2021-02-20T11:43:59.000Z</time>
      </trkpt>
      <trkpt lat="47.05656" lon="-1.83696">
        <ele>86</ele>
        <time>2021-02-20T11:44:01.000Z</time>
      </trkpt>
      <trkpt lat="47.05649" lon="-1.83709">
        <ele>86</ele>
        <time>2021-02-20T11:44:03.000Z</time>
      </trkpt>
      <trkpt lat="47.05642" lon="-1.83722">
        <ele>87</ele>
        <time>2021-02-20T11:44:05.000Z</time>
      </trkpt>
      <trkpt lat="47.05634" lon="-1.83735">
        <ele>87</ele>
        <time>2021-02-20T11:44:07.000Z</time>
      </trkpt>
      <trkpt lat="47.05627" lon="-1.83747">
        <ele>87</ele>
        <time>2021-02-20T11:44:09.000Z</time>
      </trkpt>
      <trkpt lat="47.0562" lon="-1.83759">
        <ele>86</ele>
        <time>2021-02-20T11:44:11.000Z</time>
      </trkpt>
      <trkpt lat="47.05613" lon="-1.83772">
        <ele>87</ele>
        <time>2021-02-20T11:44:13.000Z</time>
      </trkpt>
      <trkpt lat="47.05606" lon="-1.83785">
        <ele>87</ele>
        <time>2021-02-20T11:44:15.000Z</time>
      </trkpt>
      <trkpt lat="47.05599" lon="-1.83798">
        <ele>87</ele>
        <time>2021-02-20T11:44:17.000Z</time>
      </trkpt>
      <trkpt lat="47.05592" lon="-1.83809">
        <ele>87</ele>
        <time>2021-02-20T11:44:19.000Z</time>
      </trkpt>
      <trkpt lat="47.05585" lon="-1.83822">
        <ele>87</ele>
        <time>2021-02-20T11:44:21.000Z</time>
      </trkpt>
      <trkpt lat="47.05578" lon="-1.83834">
        <ele>86</ele>
        <time>2021-02-20T11:44:23.000Z</time>
      </trkpt>
      <trkpt lat="47.05571" lon="-1.83846">
        <ele>86</ele>
        <time>2021-02-20T11:44:25.000Z</time>
      </trkpt>
      <trkpt lat="47.05564" lon="-1.83859">
        <ele>86</ele>
        <time>2021-02-20T11:44:27.000Z</time>
      </trkpt>
      <trkpt lat="47.05557" lon="-1.83872">
        <ele>86</ele>
        <time>2021-02-20T11:44:29.000Z</time>
      </trkpt>
      <trkpt lat="47.05551" lon="-1.83884">
        <ele>86</ele>
        <time>2021-02-20T11:44:31.000Z</time>
      </trkpt>
      <trkpt lat="47.05544" lon="-1.83896">
        <ele>86</ele>
        <time>2021-02-20T11:44:33.000Z</time>
      </trkpt>
      <trkpt lat="47.05538" lon="-1.83908">
        <ele>86</ele>
        <time>2021-02-20T11:44:35.000Z</time>
      </trkpt>
      <trkpt lat="47.05531" lon="-1.8392">
        <ele>86</ele>
        <time>2021-02-20T11:44:37.000Z</time>
      </trkpt>
      <trkpt lat="47.05524" lon="-1.83932">
        <ele>86</ele>
        <time>2021-02-20T11:44:39.000Z</time>
      </trkpt>
      <trkpt lat="47.05517" lon="-1.83944">
        <ele>86</ele>
        <time>2021-02-20T11:44:41.000Z</time>
      </trkpt>
      <trkpt lat="47.0551" lon="-1.83956">
        <ele>86</ele>
        <time>2021-02-20T11:44:43.000Z</time>
      </trkpt>
      <trkpt lat="47.05504" lon="-1.83968">
        <ele>87</ele>
        <time>2021-02-20T11:44:45.000Z</time>
      </trkpt>
      <trkpt lat="47.05497" lon="-1.8398">
        <ele>87</ele>
        <time>2021-02-20T11:44:47.000Z</time>
      </trkpt>
      <trkpt lat="47.05491" lon="-1.83992">
        <ele>87</ele>
        <time>2021-02-20T11:44:49.000Z</time>
      </trkpt>
      <trkpt lat="47.05485" lon="-1.84005">
        <ele>87</ele>
        <time>2021-02-20T11:44:51.000Z</time>
      </trkpt>
      <trkpt lat="47.05479" lon="-1.84016">
        <ele>87</ele>
        <time>2021-02-20T11:44:53.000Z</time>
      </trkpt>
      <trkpt lat="47.05473" lon="-1.84028">
        <ele>87</ele>
        <time>2021-02-20T11:44:55.000Z</time>
      </trkpt>
      <trkpt lat="47.05467" lon="-1.8404">
        <ele>87</ele>
        <time>2021-02-20T11:44:57.000Z</time>
      </trkpt>
      <trkpt lat="47.05461" lon="-1.84052">
        <ele>88</ele>
        <time>2021-02-20T11:44:59.000Z</time>
      </trkpt>
      <trkpt lat="47.05456" lon="-1.84063">
        <ele>88</ele>
        <time>2021-02-20T11:45:01.000Z</time>
      </trkpt>
      <trkpt lat="47.0545" lon="-1.84075">
        <ele>88</ele>
        <time>2021-02-20T11:45:03.000Z</time>
      </trkpt>
      <trkpt lat="47.05444" lon="-1.84086">
        <ele>88</ele>
        <time>2021-02-20T11:45:05.000Z</time>
      </trkpt>
      <trkpt lat="47.05438" lon="-1.84098">
        <ele>87</ele>
        <time>2021-02-20T11:45:07.000Z</time>
      </trkpt>
      <trkpt lat="47.05432" lon="-1.84109">
        <ele>87</ele>
        <time>2021-02-20T11:45:09.000Z</time>
      </trkpt>
      <trkpt lat="47.05426" lon="-1.84121">
        <ele>87</ele>
        <time>2021-02-20T11:45:11.000Z</time>
      </trkpt>
      <trkpt lat="47.0542" lon="-1.84133">
        <ele>87</ele>
        <time>2021-02-20T11:45:13.000Z</time>
      </trkpt>
      <trkpt lat="47.05414" lon="-1.84146">
        <ele>87</ele>
        <time>2021-02-20T11:45:15.000Z</time>
      </trkpt>
      <trkpt lat="47.05408" lon="-1.84157">
        <ele>87</ele>
        <time>2021-02-20T11:45:17.000Z</time>
      </trkpt>
      <trkpt lat="47.05402" lon="-1.84168">
        <ele>87</ele>
        <time>2021-02-20T11:45:19.000Z</time>
      </trkpt>
      <trkpt lat="47.05396" lon="-1.8418">
        <ele>87</ele>
        <time>2021-02-20T11:45:21.000Z</time>
      </trkpt>
      <trkpt lat="47.0539" lon="-1.84192">
        <ele>88</ele>
        <time>2021-02-20T11:45:23.000Z</time>
      </trkpt>
      <trkpt lat="47.05384" lon="-1.84205">
        <ele>87</ele>
        <time>2021-02-20T11:45:25.000Z</time>
      </trkpt>
      <trkpt lat="47.05378" lon="-1.84217">
        <ele>87</ele>
        <time>2021-02-20T11:45:27.000Z</time>
      </trkpt>
      <trkpt lat="47.05371" lon="-1.84229">
        <ele>87</ele>
        <time>2021-02-20T11:45:29.000Z</time>
      </trkpt>
      <trkpt lat="47.05365" lon="-1.84242">
        <ele>88</ele>
        <time>2021-02-20T11:45:31.000Z</time>
      </trkpt>
      <trkpt lat="47.05359" lon="-1.84254">
        <ele>88</ele>
        <time>2021-02-20T11:45:33.000Z</time>
      </trkpt>
      <trkpt lat="47.05352" lon="-1.84266">
        <ele>88</ele>
        <time>2021-02-20T11:45:35.000Z</time>
      </trkpt>
      <trkpt lat="47.05346" lon="-1.84279">
        <ele>88</ele>
        <time>2021-02-20T11:45:37.000Z</time>
      </trkpt>
      <trkpt lat="47.0534" lon="-1.84291">
        <ele>88</ele>
        <time>2021-02-20T11:45:39.000Z</time>
      </trkpt>
      <trkpt lat="47.05334" lon="-1.84304">
        <ele>88</ele>
        <time>2021-02-20T11:45:41.000Z</time>
      </trkpt>
      <trkpt lat="47.05327" lon="-1.84318">
        <ele>87</ele>
        <time>2021-02-20T11:45:43.000Z</time>
      </trkpt>
      <trkpt lat="47.0532" lon="-1.8433">
        <ele>88</ele>
        <time>2021-02-20T11:45:45.000Z</time>
      </trkpt>
      <trkpt lat="47.05314" lon="-1.84343">
        <ele>88</ele>
        <time>2021-02-20T11:45:47.000Z</time>
      </trkpt>
      <trkpt lat="47.05308" lon="-1.84355">
        <ele>88</ele>
        <time>2021-02-20T11:45:49.000Z</time>
      </trkpt>
      <trkpt lat="47.05302" lon="-1.84368">
        <ele>88</ele>
        <time>2021-02-20T11:45:51.000Z</time>
      </trkpt>
      <trkpt lat="47.05295" lon="-1.84381">
        <ele>88</ele>
        <time>2021-02-20T11:45:53.000Z</time>
      </trkpt>
      <trkpt lat="47.05289" lon="-1.84394">
        <ele>88</ele>
        <time>2021-02-20T11:45:55.000Z</time>
      </trkpt>
      <trkpt lat="47.05282" lon="-1.84407">
        <ele>88</ele>
        <time>2021-02-20T11:45:57.000Z</time>
      </trkpt>
      <trkpt lat="47.05276" lon="-1.8442">
        <ele>88</ele>
        <time>2021-02-20T11:45:59.000Z</time>
      </trkpt>
      <trkpt lat="47.0527" lon="-1.84432">
        <ele>88</ele>
        <time>2021-02-20T11:46:01.000Z</time>
      </trkpt>
      <trkpt lat="47.05264" lon="-1.84445">
        <ele>88</ele>
        <time>2021-02-20T11:46:03.000Z</time>
      </trkpt>
      <trkpt lat="47.05258" lon="-1.84457">
        <ele>88</ele>
        <time>2021-02-20T11:46:05.000Z</time>
      </trkpt>
      <trkpt lat="47.05252" lon="-1.84469">
        <ele>88</ele>
        <time>2021-02-20T11:46:07.000Z</time>
      </trkpt>
      <trkpt lat="47.05245" lon="-1.84481">
        <ele>88</ele>
        <time>2021-02-20T11:46:09.000Z</time>
      </trkpt>
      <trkpt lat="47.05239" lon="-1.84493">
        <ele>88</ele>
        <time>2021-02-20T11:46:11.000Z</time>
      </trkpt>
      <trkpt lat="47.05233" lon="-1.84505">
        <ele>89</ele>
        <time>2021-02-20T11:46:13.000Z</time>
      </trkpt>
      <trkpt lat="47.05228" lon="-1.84516">
        <ele>89</ele>
        <time>2021-02-20T11:46:15.000Z</time>
      </trkpt>
      <trkpt lat="47.05222" lon="-1.84527">
        <ele>89</ele>
        <time>2021-02-20T11:46:17.000Z</time>
      </trkpt>
      <trkpt lat="47.05216" lon="-1.84537">
        <ele>89</ele>
        <time>2021-02-20T11:46:19.000Z</time>
      </trkpt>
      <trkpt lat="47.05204" lon="-1.84542">
        <ele>89</ele>
        <time>2021-02-20T11:46:22.000Z</time>
      </trkpt>
      <trkpt lat="47.05196" lon="-1.84534">
        <ele>89</ele>
        <time>2021-02-20T11:46:24.000Z</time>
      </trkpt>
      <trkpt lat="47.05188" lon="-1.84524">
        <ele>89</ele>
        <time>2021-02-20T11:46:26.000Z</time>
      </trkpt>
      <trkpt lat="47.0518" lon="-1.84514">
        <ele>89</ele>
        <time>2021-02-20T11:46:28.000Z</time>
      </trkpt>
      <trkpt lat="47.05172" lon="-1.84502">
        <ele>89</ele>
        <time>2021-02-20T11:46:30.000Z</time>
      </trkpt>
      <trkpt lat="47.05164" lon="-1.84491">
        <ele>89</ele>
        <time>2021-02-20T11:46:32.000Z</time>
      </trkpt>
      <trkpt lat="47.05156" lon="-1.8448">
        <ele>89</ele>
        <time>2021-02-20T11:46:34.000Z</time>
      </trkpt>
      <trkpt lat="47.05149" lon="-1.84469">
        <ele>89</ele>
        <time>2021-02-20T11:46:36.000Z</time>
      </trkpt>
      <trkpt lat="47.05141" lon="-1.84458">
        <ele>89</ele>
        <time>2021-02-20T11:46:38.000Z</time>
      </trkpt>
      <trkpt lat="47.05134" lon="-1.84446">
        <ele>90</ele>
        <time>2021-02-20T11:46:40.000Z</time>
      </trkpt>
      <trkpt lat="47.05126" lon="-1.84435">
        <ele>90</ele>
        <time>2021-02-20T11:46:42.000Z</time>
      </trkpt>
      <trkpt lat="47.05119" lon="-1.84424">
        <ele>90</ele>
        <time>2021-02-20T11:46:44.000Z</time>
      </trkpt>
      <trkpt lat="47.0511" lon="-1.84413">
        <ele>90</ele>
        <time>2021-02-20T11:46:46.000Z</time>
      </trkpt>
      <trkpt lat="47.05101" lon="-1.84402">
        <ele>90</ele>
        <time>2021-02-20T11:46:48.000Z</time>
      </trkpt>
      <trkpt lat="47.05092" lon="-1.84392">
        <ele>90</ele>
        <time>2021-02-20T11:46:50.000Z</time>
      </trkpt>
      <trkpt lat="47.05083" lon="-1.84381">
        <ele>89</ele>
        <time>2021-02-20T11:46:52.000Z</time>
      </trkpt>
      <trkpt lat="47.05074" lon="-1.84371">
        <ele>89</ele>
        <time>2021-02-20T11:46:54.000Z</time>
      </trkpt>
      <trkpt lat="47.05065" lon="-1.84361">
        <ele>89</ele>
        <time>2021-02-20T11:46:56.000Z</time>
      </trkpt>
      <trkpt lat="47.05056" lon="-1.84351">
        <ele>89</ele>
        <time>2021-02-20T11:46:58.000Z</time>
      </trkpt>
      <trkpt lat="47.05047" lon="-1.84342">
        <ele>89</ele>
        <time>2021-02-20T11:47:00.000Z</time>
      </trkpt>
      <trkpt lat="47.05038" lon="-1.84333">
        <ele>89</ele>
        <time>2021-02-20T11:47:02.000Z</time>
      </trkpt>
      <trkpt lat="47.0503" lon="-1.84324">
        <ele>89</ele>
        <time>2021-02-20T11:47:04.000Z</time>
      </trkpt>
      <trkpt lat="47.05021" lon="-1.84317">
        <ele>89</ele>
        <time>2021-02-20T11:47:06.000Z</time>
      </trkpt>
      <trkpt lat="47.05012" lon="-1.84309">
        <ele>89</ele>
        <time>2021-02-20T11:47:08.000Z</time>
      </trkpt>
      <trkpt lat="47.05003" lon="-1.84302">
        <ele>89</ele>
        <time>2021-02-20T11:47:10.000Z</time>
      </trkpt>
      <trkpt lat="47.04993" lon="-1.84295">
        <ele>89</ele>
        <time>2021-02-20T11:47:12.000Z</time>
      </trkpt>
      <trkpt lat="47.04984" lon="-1.84288">
        <ele>89</ele>
        <time>2021-02-20T11:47:14.000Z</time>
      </trkpt>
      <trkpt lat="47.04975" lon="-1.8428">
        <ele>89</ele>
        <time>2021-02-20T11:47:16.000Z</time>
      </trkpt>
      <trkpt lat="47.04967" lon="-1.84271">
        <ele>89</ele>
        <time>2021-02-20T11:47:18.000Z</time>
      </trkpt>
      <trkpt lat="47.04957" lon="-1.84263">
        <ele>89</ele>
        <time>2021-02-20T11:47:20.000Z</time>
      </trkpt>
      <trkpt lat="47.04949" lon="-1.84255">
        <ele>89</ele>
        <time>2021-02-20T11:47:22.000Z</time>
      </trkpt>
      <trkpt lat="47.04939" lon="-1.84246">
        <ele>89</ele>
        <time>2021-02-20T11:47:24.000Z</time>
      </trkpt>
      <trkpt lat="47.0493" lon="-1.84237">
        <ele>89</ele>
        <time>2021-02-20T11:47:26.000Z</time>
      </trkpt>
      <trkpt lat="47.04922" lon="-1.84229">
        <ele>89</ele>
        <time>2021-02-20T11:47:28.000Z</time>
      </trkpt>
      <trkpt lat="47.04913" lon="-1.8422">
        <ele>89</ele>
        <time>2021-02-20T11:47:30.000Z</time>
      </trkpt>
      <trkpt lat="47.04905" lon="-1.84211">
        <ele>89</ele>
        <time>2021-02-20T11:47:32.000Z</time>
      </trkpt>
      <trkpt lat="47.04896" lon="-1.84201">
        <ele>89</ele>
        <time>2021-02-20T11:47:34.000Z</time>
      </trkpt>
      <trkpt lat="47.04887" lon="-1.84192">
        <ele>89</ele>
        <time>2021-02-20T11:47:36.000Z</time>
      </trkpt>
      <trkpt lat="47.04879" lon="-1.84184">
        <ele>89</ele>
        <time>2021-02-20T11:47:38.000Z</time>
      </trkpt>
      <trkpt lat="47.0487" lon="-1.84175">
        <ele>89</ele>
        <time>2021-02-20T11:47:40.000Z</time>
      </trkpt>
      <trkpt lat="47.04861" lon="-1.84165">
        <ele>89</ele>
        <time>2021-02-20T11:47:42.000Z</time>
      </trkpt>
      <trkpt lat="47.04852" lon="-1.84155">
        <ele>89</ele>
        <time>2021-02-20T11:47:44.000Z</time>
      </trkpt>
      <trkpt lat="47.04843" lon="-1.84146">
        <ele>89</ele>
        <time>2021-02-20T11:47:46.000Z</time>
      </trkpt>
      <trkpt lat="47.04835" lon="-1.84136">
        <ele>89</ele>
        <time>2021-02-20T11:47:48.000Z</time>
      </trkpt>
      <trkpt lat="47.04826" lon="-1.84126">
        <ele>88</ele>
        <time>2021-02-20T11:47:50.000Z</time>
      </trkpt>
      <trkpt lat="47.04818" lon="-1.84115">
        <ele>88</ele>
        <time>2021-02-20T11:47:52.000Z</time>
      </trkpt>
      <trkpt lat="47.04809" lon="-1.84104">
        <ele>88</ele>
        <time>2021-02-20T11:47:54.000Z</time>
      </trkpt>
      <trkpt lat="47.048" lon="-1.84093">
        <ele>88</ele>
        <time>2021-02-20T11:47:56.000Z</time>
      </trkpt>
      <trkpt lat="47.04792" lon="-1.84082">
        <ele>88</ele>
        <time>2021-02-20T11:47:58.000Z</time>
      </trkpt>
      <trkpt lat="47.04784" lon="-1.84071">
        <ele>88</ele>
        <time>2021-02-20T11:48:00.000Z</time>
      </trkpt>
      <trkpt lat="47.04775" lon="-1.8406">
        <ele>87</ele>
        <time>2021-02-20T11:48:02.000Z</time>
      </trkpt>
      <trkpt lat="47.04767" lon="-1.84049">
        <ele>87</ele>
        <time>2021-02-20T11:48:04.000Z</time>
      </trkpt>
      <trkpt lat="47.04759" lon="-1.84038">
        <ele>87</ele>
        <time>2021-02-20T11:48:06.000Z</time>
      </trkpt>
      <trkpt lat="47.0475" lon="-1.84027">
        <ele>87</ele>
        <time>2021-02-20T11:48:08.000Z</time>
      </trkpt>
      <trkpt lat="47.04742" lon="-1.84016">
        <ele>87</ele>
        <time>2021-02-20T11:48:10.000Z</time>
      </trkpt>
      <trkpt lat="47.04732" lon="-1.84005">
        <ele>87</ele>
        <time>2021-02-20T11:48:12.000Z</time>
      </trkpt>
      <trkpt lat="47.04723" lon="-1.83994">
        <ele>87</ele>
        <time>2021-02-20T11:48:14.000Z</time>
      </trkpt>
      <trkpt lat="47.04713" lon="-1.83983">
        <ele>86</ele>
        <time>2021-02-20T11:48:16.000Z</time>
      </trkpt>
      <trkpt lat="47.04704" lon="-1.83972">
        <ele>86</ele>
        <time>2021-02-20T11:48:18.000Z</time>
      </trkpt>
      <trkpt lat="47.04694" lon="-1.83962">
        <ele>86</ele>
        <time>2021-02-20T11:48:20.000Z</time>
      </trkpt>
      <trkpt lat="47.04686" lon="-1.8395">
        <ele>86</ele>
        <time>2021-02-20T11:48:22.000Z</time>
      </trkpt>
      <trkpt lat="47.04676" lon="-1.83939">
        <ele>86</ele>
        <time>2021-02-20T11:48:24.000Z</time>
      </trkpt>
      <trkpt lat="47.04667" lon="-1.83928">
        <ele>86</ele>
        <time>2021-02-20T11:48:26.000Z</time>
      </trkpt>
      <trkpt lat="47.04659" lon="-1.83916">
        <ele>86</ele>
        <time>2021-02-20T11:48:28.000Z</time>
      </trkpt>
      <trkpt lat="47.04651" lon="-1.83905">
        <ele>86</ele>
        <time>2021-02-20T11:48:30.000Z</time>
      </trkpt>
      <trkpt lat="47.04642" lon="-1.83892">
        <ele>86</ele>
        <time>2021-02-20T11:48:32.000Z</time>
      </trkpt>
      <trkpt lat="47.04634" lon="-1.8388">
        <ele>86</ele>
        <time>2021-02-20T11:48:34.000Z</time>
      </trkpt>
      <trkpt lat="47.04626" lon="-1.83868">
        <ele>86</ele>
        <time>2021-02-20T11:48:36.000Z</time>
      </trkpt>
      <trkpt lat="47.04617" lon="-1.83856">
        <ele>85</ele>
        <time>2021-02-20T11:48:38.000Z</time>
      </trkpt>
      <trkpt lat="47.04607" lon="-1.83845">
        <ele>85</ele>
        <time>2021-02-20T11:48:40.000Z</time>
      </trkpt>
      <trkpt lat="47.04597" lon="-1.83835">
        <ele>85</ele>
        <time>2021-02-20T11:48:42.000Z</time>
      </trkpt>
      <trkpt lat="47.04587" lon="-1.83827">
        <ele>86</ele>
        <time>2021-02-20T11:48:44.000Z</time>
      </trkpt>
      <trkpt lat="47.04577" lon="-1.83819">
        <ele>86</ele>
        <time>2021-02-20T11:48:46.000Z</time>
      </trkpt>
      <trkpt lat="47.04566" lon="-1.83812">
        <ele>86</ele>
        <time>2021-02-20T11:48:48.000Z</time>
      </trkpt>
      <trkpt lat="47.04556" lon="-1.83805">
        <ele>86</ele>
        <time>2021-02-20T11:48:50.000Z</time>
      </trkpt>
      <trkpt lat="47.04545" lon="-1.83798">
        <ele>86</ele>
        <time>2021-02-20T11:48:52.000Z</time>
      </trkpt>
      <trkpt lat="47.04535" lon="-1.83791">
        <ele>86</ele>
        <time>2021-02-20T11:48:54.000Z</time>
      </trkpt>
      <trkpt lat="47.04525" lon="-1.83784">
        <ele>86</ele>
        <time>2021-02-20T11:48:56.000Z</time>
      </trkpt>
      <trkpt lat="47.04514" lon="-1.83775">
        <ele>86</ele>
        <time>2021-02-20T11:48:58.000Z</time>
      </trkpt>
      <trkpt lat="47.04504" lon="-1.83768">
        <ele>86</ele>
        <time>2021-02-20T11:49:00.000Z</time>
      </trkpt>
      <trkpt lat="47.04494" lon="-1.8376">
        <ele>86</ele>
        <time>2021-02-20T11:49:02.000Z</time>
      </trkpt>
      <trkpt lat="47.04484" lon="-1.83752">
        <ele>86</ele>
        <time>2021-02-20T11:49:04.000Z</time>
      </trkpt>
      <trkpt lat="47.04474" lon="-1.83745">
        <ele>86</ele>
        <time>2021-02-20T11:49:06.000Z</time>
      </trkpt>
      <trkpt lat="47.04464" lon="-1.83737">
        <ele>86</ele>
        <time>2021-02-20T11:49:08.000Z</time>
      </trkpt>
      <trkpt lat="47.04454" lon="-1.83728">
        <ele>87</ele>
        <time>2021-02-20T11:49:10.000Z</time>
      </trkpt>
      <trkpt lat="47.04445" lon="-1.8372">
        <ele>87</ele>
        <time>2021-02-20T11:49:12.000Z</time>
      </trkpt>
      <trkpt lat="47.04435" lon="-1.83712">
        <ele>87</ele>
        <time>2021-02-20T11:49:14.000Z</time>
      </trkpt>
      <trkpt lat="47.04425" lon="-1.83705">
        <ele>87</ele>
        <time>2021-02-20T11:49:16.000Z</time>
      </trkpt>
      <trkpt lat="47.04414" lon="-1.83697">
        <ele>87</ele>
        <time>2021-02-20T11:49:18.000Z</time>
      </trkpt>
      <trkpt lat="47.04404" lon="-1.8369">
        <ele>86</ele>
        <time>2021-02-20T11:49:20.000Z</time>
      </trkpt>
      <trkpt lat="47.04394" lon="-1.83683">
        <ele>86</ele>
        <time>2021-02-20T11:49:22.000Z</time>
      </trkpt>
      <trkpt lat="47.04384" lon="-1.83677">
        <ele>86</ele>
        <time>2021-02-20T11:49:24.000Z</time>
      </trkpt>
      <trkpt lat="47.04372" lon="-1.83672">
        <ele>86</ele>
        <time>2021-02-20T11:49:26.000Z</time>
      </trkpt>
      <trkpt lat="47.04361" lon="-1.83669">
        <ele>86</ele>
        <time>2021-02-20T11:49:28.000Z</time>
      </trkpt>
      <trkpt lat="47.0435" lon="-1.83665">
        <ele>86</ele>
        <time>2021-02-20T11:49:30.000Z</time>
      </trkpt>
      <trkpt lat="47.04338" lon="-1.83663">
        <ele>85</ele>
        <time>2021-02-20T11:49:32.000Z</time>
      </trkpt>
      <trkpt lat="47.04327" lon="-1.8366">
        <ele>85</ele>
        <time>2021-02-20T11:49:34.000Z</time>
      </trkpt>
      <trkpt lat="47.04316" lon="-1.83658">
        <ele>86</ele>
        <time>2021-02-20T11:49:36.000Z</time>
      </trkpt>
      <trkpt lat="47.04305" lon="-1.83655">
        <ele>86</ele>
        <time>2021-02-20T11:49:38.000Z</time>
      </trkpt>
      <trkpt lat="47.04294" lon="-1.83652">
        <ele>85</ele>
        <time>2021-02-20T11:49:40.000Z</time>
      </trkpt>
      <trkpt lat="47.04282" lon="-1.83649">
        <ele>86</ele>
        <time>2021-02-20T11:49:42.000Z</time>
      </trkpt>
      <trkpt lat="47.04271" lon="-1.83646">
        <ele>85</ele>
        <time>2021-02-20T11:49:44.000Z</time>
      </trkpt>
      <trkpt lat="47.04259" lon="-1.83642">
        <ele>84</ele>
        <time>2021-02-20T11:49:46.000Z</time>
      </trkpt>
      <trkpt lat="47.04248" lon="-1.83639">
        <ele>84</ele>
        <time>2021-02-20T11:49:48.000Z</time>
      </trkpt>
      <trkpt lat="47.04236" lon="-1.83635">
        <ele>83</ele>
        <time>2021-02-20T11:49:50.000Z</time>
      </trkpt>
      <trkpt lat="47.04226" lon="-1.8363">
        <ele>83</ele>
        <time>2021-02-20T11:49:52.000Z</time>
      </trkpt>
      <trkpt lat="47.04216" lon="-1.83622">
        <ele>83</ele>
        <time>2021-02-20T11:49:54.000Z</time>
      </trkpt>
      <trkpt lat="47.04206" lon="-1.83617">
        <ele>83</ele>
        <time>2021-02-20T11:49:56.000Z</time>
      </trkpt>
      <trkpt lat="47.04196" lon="-1.83616">
        <ele>84</ele>
        <time>2021-02-20T11:49:58.000Z</time>
      </trkpt>
      <trkpt lat="47.04185" lon="-1.83617">
        <ele>84</ele>
        <time>2021-02-20T11:50:00.000Z</time>
      </trkpt>
      <trkpt lat="47.04175" lon="-1.83613">
        <ele>84</ele>
        <time>2021-02-20T11:50:02.000Z</time>
      </trkpt>
      <trkpt lat="47.04164" lon="-1.83608">
        <ele>84</ele>
        <time>2021-02-20T11:50:04.000Z</time>
      </trkpt>
      <trkpt lat="47.04155" lon="-1.83603">
        <ele>84</ele>
        <time>2021-02-20T11:50:06.000Z</time>
      </trkpt>
      <trkpt lat="47.04145" lon="-1.83599">
        <ele>85</ele>
        <time>2021-02-20T11:50:08.000Z</time>
      </trkpt>
      <trkpt lat="47.04136" lon="-1.83594">
        <ele>85</ele>
        <time>2021-02-20T11:50:10.000Z</time>
      </trkpt>
      <trkpt lat="47.04127" lon="-1.83588">
        <ele>85</ele>
        <time>2021-02-20T11:50:12.000Z</time>
      </trkpt>
      <trkpt lat="47.04117" lon="-1.83585">
        <ele>84</ele>
        <time>2021-02-20T11:50:14.000Z</time>
      </trkpt>
      <trkpt lat="47.04107" lon="-1.83581">
        <ele>85</ele>
        <time>2021-02-20T11:50:16.000Z</time>
      </trkpt>
      <trkpt lat="47.04097" lon="-1.83578">
        <ele>85</ele>
        <time>2021-02-20T11:50:18.000Z</time>
      </trkpt>
      <trkpt lat="47.04087" lon="-1.83576">
        <ele>85</ele>
        <time>2021-02-20T11:50:20.000Z</time>
      </trkpt>
      <trkpt lat="47.04077" lon="-1.83573">
        <ele>85</ele>
        <time>2021-02-20T11:50:22.000Z</time>
      </trkpt>
      <trkpt lat="47.04067" lon="-1.83571">
        <ele>85</ele>
        <time>2021-02-20T11:50:24.000Z</time>
      </trkpt>
      <trkpt lat="47.04056" lon="-1.83569">
        <ele>85</ele>
        <time>2021-02-20T11:50:26.000Z</time>
      </trkpt>
      <trkpt lat="47.04045" lon="-1.83567">
        <ele>85</ele>
        <time>2021-02-20T11:50:28.000Z</time>
      </trkpt>
      <trkpt lat="47.04035" lon="-1.83566">
        <ele>85</ele>
        <time>2021-02-20T11:50:30.000Z</time>
      </trkpt>
      <trkpt lat="47.04025" lon="-1.83564">
        <ele>85</ele>
        <time>2021-02-20T11:50:32.000Z</time>
      </trkpt>
      <trkpt lat="47.04014" lon="-1.83563">
        <ele>85</ele>
        <time>2021-02-20T11:50:34.000Z</time>
      </trkpt>
      <trkpt lat="47.04003" lon="-1.83561">
        <ele>85</ele>
        <time>2021-02-20T11:50:36.000Z</time>
      </trkpt>
      <trkpt lat="47.03993" lon="-1.8356">
        <ele>85</ele>
        <time>2021-02-20T11:50:38.000Z</time>
      </trkpt>
      <trkpt lat="47.03982" lon="-1.83558">
        <ele>85</ele>
        <time>2021-02-20T11:50:40.000Z</time>
      </trkpt>
      <trkpt lat="47.03972" lon="-1.83557">
        <ele>85</ele>
        <time>2021-02-20T11:50:42.000Z</time>
      </trkpt>
      <trkpt lat="47.03961" lon="-1.83555">
        <ele>85</ele>
        <time>2021-02-20T11:50:44.000Z</time>
      </trkpt>
      <trkpt lat="47.0395" lon="-1.83554">
        <ele>85</ele>
        <time>2021-02-20T11:50:46.000Z</time>
      </trkpt>
      <trkpt lat="47.03938" lon="-1.83553">
        <ele>85</ele>
        <time>2021-02-20T11:50:48.000Z</time>
      </trkpt>
      <trkpt lat="47.03927" lon="-1.83551">
        <ele>85</ele>
        <time>2021-02-20T11:50:50.000Z</time>
      </trkpt>
      <trkpt lat="47.03916" lon="-1.8355">
        <ele>85</ele>
        <time>2021-02-20T11:50:52.000Z</time>
      </trkpt>
      <trkpt lat="47.03904" lon="-1.83548">
        <ele>84</ele>
        <time>2021-02-20T11:50:54.000Z</time>
      </trkpt>
      <trkpt lat="47.03893" lon="-1.83546">
        <ele>84</ele>
        <time>2021-02-20T11:50:56.000Z</time>
      </trkpt>
      <trkpt lat="47.03883" lon="-1.83545">
        <ele>84</ele>
        <time>2021-02-20T11:50:58.000Z</time>
      </trkpt>
      <trkpt lat="47.03872" lon="-1.83544">
        <ele>84</ele>
        <time>2021-02-20T11:51:00.000Z</time>
      </trkpt>
      <trkpt lat="47.03862" lon="-1.83543">
        <ele>85</ele>
        <time>2021-02-20T11:51:02.000Z</time>
      </trkpt>
      <trkpt lat="47.03852" lon="-1.83541">
        <ele>85</ele>
        <time>2021-02-20T11:51:04.000Z</time>
      </trkpt>
      <trkpt lat="47.03842" lon="-1.83539">
        <ele>85</ele>
        <time>2021-02-20T11:51:06.000Z</time>
      </trkpt>
      <trkpt lat="47.03832" lon="-1.83538">
        <ele>85</ele>
        <time>2021-02-20T11:51:08.000Z</time>
      </trkpt>
      <trkpt lat="47.03822" lon="-1.83537">
        <ele>85</ele>
        <time>2021-02-20T11:51:10.000Z</time>
      </trkpt>
      <trkpt lat="47.03811" lon="-1.83537">
        <ele>85</ele>
        <time>2021-02-20T11:51:12.000Z</time>
      </trkpt>
      <trkpt lat="47.03801" lon="-1.83536">
        <ele>85</ele>
        <time>2021-02-20T11:51:14.000Z</time>
      </trkpt>
      <trkpt lat="47.0379" lon="-1.83535">
        <ele>85</ele>
        <time>2021-02-20T11:51:16.000Z</time>
      </trkpt>
      <trkpt lat="47.03779" lon="-1.83535">
        <ele>85</ele>
        <time>2021-02-20T11:51:18.000Z</time>
      </trkpt>
      <trkpt lat="47.03768" lon="-1.83535">
        <ele>84</ele>
        <time>2021-02-20T11:51:20.000Z</time>
      </trkpt>
      <trkpt lat="47.03757" lon="-1.83535">
        <ele>84</ele>
        <time>2021-02-20T11:51:22.000Z</time>
      </trkpt>
      <trkpt lat="47.03746" lon="-1.83536">
        <ele>84</ele>
        <time>2021-02-20T11:51:24.000Z</time>
      </trkpt>
      <trkpt lat="47.03735" lon="-1.83536">
        <ele>84</ele>
        <time>2021-02-20T11:51:26.000Z</time>
      </trkpt>
      <trkpt lat="47.03724" lon="-1.83536">
        <ele>84</ele>
        <time>2021-02-20T11:51:28.000Z</time>
      </trkpt>
      <trkpt lat="47.03713" lon="-1.83536">
        <ele>84</ele>
        <time>2021-02-20T11:51:30.000Z</time>
      </trkpt>
      <trkpt lat="47.03702" lon="-1.83536">
        <ele>83</ele>
        <time>2021-02-20T11:51:32.000Z</time>
      </trkpt>
      <trkpt lat="47.0369" lon="-1.83536">
        <ele>83</ele>
        <time>2021-02-20T11:51:34.000Z</time>
      </trkpt>
      <trkpt lat="47.03679" lon="-1.83536">
        <ele>83</ele>
        <time>2021-02-20T11:51:36.000Z</time>
      </trkpt>
      <trkpt lat="47.03667" lon="-1.83536">
        <ele>83</ele>
        <time>2021-02-20T11:51:38.000Z</time>
      </trkpt>
      <trkpt lat="47.03656" lon="-1.83536">
        <ele>83</ele>
        <time>2021-02-20T11:51:40.000Z</time>
      </trkpt>
      <trkpt lat="47.03644" lon="-1.83536">
        <ele>83</ele>
        <time>2021-02-20T11:51:42.000Z</time>
      </trkpt>
      <trkpt lat="47.03632" lon="-1.83537">
        <ele>82</ele>
        <time>2021-02-20T11:51:44.000Z</time>
      </trkpt>
      <trkpt lat="47.03621" lon="-1.83537">
        <ele>82</ele>
        <time>2021-02-20T11:51:46.000Z</time>
      </trkpt>
      <trkpt lat="47.0361" lon="-1.83538">
        <ele>82</ele>
        <time>2021-02-20T11:51:48.000Z</time>
      </trkpt>
      <trkpt lat="47.036" lon="-1.83538">
        <ele>82</ele>
        <time>2021-02-20T11:51:50.000Z</time>
      </trkpt>
      <trkpt lat="47.03589" lon="-1.83538">
        <ele>82</ele>
        <time>2021-02-20T11:51:52.000Z</time>
      </trkpt>
      <trkpt lat="47.03578" lon="-1.83538">
        <ele>81</ele>
        <time>2021-02-20T11:51:54.000Z</time>
      </trkpt>
      <trkpt lat="47.03567" lon="-1.83538">
        <ele>81</ele>
        <time>2021-02-20T11:51:56.000Z</time>
      </trkpt>
      <trkpt lat="47.03556" lon="-1.83539">
        <ele>81</ele>
        <time>2021-02-20T11:51:58.000Z</time>
      </trkpt>
      <trkpt lat="47.03545" lon="-1.83539">
        <ele>81</ele>
        <time>2021-02-20T11:52:00.000Z</time>
      </trkpt>
      <trkpt lat="47.03535" lon="-1.83538">
        <ele>81</ele>
        <time>2021-02-20T11:52:02.000Z</time>
      </trkpt>
      <trkpt lat="47.03524" lon="-1.83538">
        <ele>81</ele>
        <time>2021-02-20T11:52:04.000Z</time>
      </trkpt>
      <trkpt lat="47.03513" lon="-1.83537">
        <ele>81</ele>
        <time>2021-02-20T11:52:06.000Z</time>
      </trkpt>
      <trkpt lat="47.03502" lon="-1.83537">
        <ele>81</ele>
        <time>2021-02-20T11:52:08.000Z</time>
      </trkpt>
      <trkpt lat="47.03491" lon="-1.83535">
        <ele>81</ele>
        <time>2021-02-20T11:52:10.000Z</time>
      </trkpt>
      <trkpt lat="47.03481" lon="-1.83533">
        <ele>81</ele>
        <time>2021-02-20T11:52:12.000Z</time>
      </trkpt>
      <trkpt lat="47.0347" lon="-1.8353">
        <ele>81</ele>
        <time>2021-02-20T11:52:14.000Z</time>
      </trkpt>
      <trkpt lat="47.0346" lon="-1.83527">
        <ele>81</ele>
        <time>2021-02-20T11:52:16.000Z</time>
      </trkpt>
      <trkpt lat="47.03449" lon="-1.83525">
        <ele>80</ele>
        <time>2021-02-20T11:52:18.000Z</time>
      </trkpt>
      <trkpt lat="47.03438" lon="-1.83521">
        <ele>81</ele>
        <time>2021-02-20T11:52:20.000Z</time>
      </trkpt>
      <trkpt lat="47.03427" lon="-1.83518">
        <ele>80</ele>
        <time>2021-02-20T11:52:22.000Z</time>
      </trkpt>
      <trkpt lat="47.03417" lon="-1.83515">
        <ele>80</ele>
        <time>2021-02-20T11:52:24.000Z</time>
      </trkpt>
      <trkpt lat="47.03405" lon="-1.83512">
        <ele>80</ele>
        <time>2021-02-20T11:52:26.000Z</time>
      </trkpt>
      <trkpt lat="47.03395" lon="-1.83509">
        <ele>80</ele>
        <time>2021-02-20T11:52:28.000Z</time>
      </trkpt>
      <trkpt lat="47.03384" lon="-1.83506">
        <ele>80</ele>
        <time>2021-02-20T11:52:30.000Z</time>
      </trkpt>
      <trkpt lat="47.03372" lon="-1.83503">
        <ele>80</ele>
        <time>2021-02-20T11:52:32.000Z</time>
      </trkpt>
      <trkpt lat="47.03362" lon="-1.835">
        <ele>80</ele>
        <time>2021-02-20T11:52:34.000Z</time>
      </trkpt>
      <trkpt lat="47.0335" lon="-1.83497">
        <ele>80</ele>
        <time>2021-02-20T11:52:36.000Z</time>
      </trkpt>
      <trkpt lat="47.0334" lon="-1.83494">
        <ele>80</ele>
        <time>2021-02-20T11:52:38.000Z</time>
      </trkpt>
      <trkpt lat="47.03329" lon="-1.83491">
        <ele>80</ele>
        <time>2021-02-20T11:52:40.000Z</time>
      </trkpt>
      <trkpt lat="47.03319" lon="-1.83488">
        <ele>80</ele>
        <time>2021-02-20T11:52:42.000Z</time>
      </trkpt>
      <trkpt lat="47.03309" lon="-1.83485">
        <ele>80</ele>
        <time>2021-02-20T11:52:44.000Z</time>
      </trkpt>
      <trkpt lat="47.033" lon="-1.83483">
        <ele>80</ele>
        <time>2021-02-20T11:52:46.000Z</time>
      </trkpt>
      <trkpt lat="47.0329" lon="-1.83481">
        <ele>80</ele>
        <time>2021-02-20T11:52:48.000Z</time>
      </trkpt>
      <trkpt lat="47.03281" lon="-1.83478">
        <ele>80</ele>
        <time>2021-02-20T11:52:50.000Z</time>
      </trkpt>
      <trkpt lat="47.03271" lon="-1.83476">
        <ele>80</ele>
        <time>2021-02-20T11:52:52.000Z</time>
      </trkpt>
      <trkpt lat="47.03262" lon="-1.83473">
        <ele>80</ele>
        <time>2021-02-20T11:52:54.000Z</time>
      </trkpt>
      <trkpt lat="47.03253" lon="-1.83471">
        <ele>80</ele>
        <time>2021-02-20T11:52:56.000Z</time>
      </trkpt>
      <trkpt lat="47.03244" lon="-1.83468">
        <ele>80</ele>
        <time>2021-02-20T11:52:58.000Z</time>
      </trkpt>
      <trkpt lat="47.03234" lon="-1.83466">
        <ele>80</ele>
        <time>2021-02-20T11:53:00.000Z</time>
      </trkpt>
      <trkpt lat="47.03224" lon="-1.83462">
        <ele>79</ele>
        <time>2021-02-20T11:53:02.000Z</time>
      </trkpt>
      <trkpt lat="47.03214" lon="-1.83459">
        <ele>79</ele>
        <time>2021-02-20T11:53:04.000Z</time>
      </trkpt>
      <trkpt lat="47.03204" lon="-1.83457">
        <ele>80</ele>
        <time>2021-02-20T11:53:06.000Z</time>
      </trkpt>
      <trkpt lat="47.03194" lon="-1.83454">
        <ele>80</ele>
        <time>2021-02-20T11:53:08.000Z</time>
      </trkpt>
      <trkpt lat="47.03185" lon="-1.83452">
        <ele>80</ele>
        <time>2021-02-20T11:53:10.000Z</time>
      </trkpt>
      <trkpt lat="47.03173" lon="-1.83454">
        <ele>80</ele>
        <time>2021-02-20T11:53:13.000Z</time>
      </trkpt>
      <trkpt lat="47.03165" lon="-1.83468">
        <ele>81</ele>
        <time>2021-02-20T11:53:16.000Z</time>
      </trkpt>
      <trkpt lat="47.0316" lon="-1.8348">
        <ele>81</ele>
        <time>2021-02-20T11:53:18.000Z</time>
      </trkpt>
      <trkpt lat="47.03151" lon="-1.83487">
        <ele>80</ele>
        <time>2021-02-20T11:53:20.000Z</time>
      </trkpt>
      <trkpt lat="47.03142" lon="-1.83488">
        <ele>79</ele>
        <time>2021-02-20T11:53:22.000Z</time>
      </trkpt>
      <trkpt lat="47.03131" lon="-1.83489">
        <ele>80</ele>
        <time>2021-02-20T11:53:24.000Z</time>
      </trkpt>
      <trkpt lat="47.03122" lon="-1.83491">
        <ele>80</ele>
        <time>2021-02-20T11:53:26.000Z</time>
      </trkpt>
      <trkpt lat="47.03111" lon="-1.83492">
        <ele>79</ele>
        <time>2021-02-20T11:53:28.000Z</time>
      </trkpt>
      <trkpt lat="47.03101" lon="-1.83494">
        <ele>79</ele>
        <time>2021-02-20T11:53:30.000Z</time>
      </trkpt>
      <trkpt lat="47.0309" lon="-1.83495">
        <ele>79</ele>
        <time>2021-02-20T11:53:32.000Z</time>
      </trkpt>
      <trkpt lat="47.03079" lon="-1.83496">
        <ele>79</ele>
        <time>2021-02-20T11:53:34.000Z</time>
      </trkpt>
      <trkpt lat="47.03068" lon="-1.83497">
        <ele>79</ele>
        <time>2021-02-20T11:53:36.000Z</time>
      </trkpt>
      <trkpt lat="47.03057" lon="-1.83498">
        <ele>78</ele>
        <time>2021-02-20T11:53:38.000Z</time>
      </trkpt>
      <trkpt lat="47.03046" lon="-1.83499">
        <ele>78</ele>
        <time>2021-02-20T11:53:40.000Z</time>
      </trkpt>
      <trkpt lat="47.03035" lon="-1.83501">
        <ele>77</ele>
        <time>2021-02-20T11:53:42.000Z</time>
      </trkpt>
      <trkpt lat="47.03024" lon="-1.83501">
        <ele>77</ele>
        <time>2021-02-20T11:53:44.000Z</time>
      </trkpt>
      <trkpt lat="47.03013" lon="-1.83503">
        <ele>77</ele>
        <time>2021-02-20T11:53:46.000Z</time>
      </trkpt>
      <trkpt lat="47.03002" lon="-1.83504">
        <ele>76</ele>
        <time>2021-02-20T11:53:48.000Z</time>
      </trkpt>
      <trkpt lat="47.0299" lon="-1.83505">
        <ele>76</ele>
        <time>2021-02-20T11:53:50.000Z</time>
      </trkpt>
      <trkpt lat="47.02979" lon="-1.83507">
        <ele>76</ele>
        <time>2021-02-20T11:53:52.000Z</time>
      </trkpt>
      <trkpt lat="47.02969" lon="-1.83508">
        <ele>75</ele>
        <time>2021-02-20T11:53:54.000Z</time>
      </trkpt>
      <trkpt lat="47.02958" lon="-1.83509">
        <ele>75</ele>
        <time>2021-02-20T11:53:56.000Z</time>
      </trkpt>
      <trkpt lat="47.02947" lon="-1.8351">
        <ele>75</ele>
        <time>2021-02-20T11:53:58.000Z</time>
      </trkpt>
      <trkpt lat="47.02936" lon="-1.83513">
        <ele>75</ele>
        <time>2021-02-20T11:54:00.000Z</time>
      </trkpt>
      <trkpt lat="47.02924" lon="-1.83515">
        <ele>75</ele>
        <time>2021-02-20T11:54:02.000Z</time>
      </trkpt>
      <trkpt lat="47.02913" lon="-1.83517">
        <ele>75</ele>
        <time>2021-02-20T11:54:04.000Z</time>
      </trkpt>
      <trkpt lat="47.02902" lon="-1.8352">
        <ele>75</ele>
        <time>2021-02-20T11:54:06.000Z</time>
      </trkpt>
      <trkpt lat="47.0289" lon="-1.83524">
        <ele>75</ele>
        <time>2021-02-20T11:54:08.000Z</time>
      </trkpt>
      <trkpt lat="47.02879" lon="-1.83527">
        <ele>76</ele>
        <time>2021-02-20T11:54:10.000Z</time>
      </trkpt>
      <trkpt lat="47.02868" lon="-1.8353">
        <ele>76</ele>
        <time>2021-02-20T11:54:12.000Z</time>
      </trkpt>
      <trkpt lat="47.02857" lon="-1.83534">
        <ele>76</ele>
        <time>2021-02-20T11:54:14.000Z</time>
      </trkpt>
      <trkpt lat="47.02847" lon="-1.8354">
        <ele>76</ele>
        <time>2021-02-20T11:54:16.000Z</time>
      </trkpt>
      <trkpt lat="47.02837" lon="-1.83546">
        <ele>77</ele>
        <time>2021-02-20T11:54:18.000Z</time>
      </trkpt>
      <trkpt lat="47.02829" lon="-1.83554">
        <ele>77</ele>
        <time>2021-02-20T11:54:20.000Z</time>
      </trkpt>
      <trkpt lat="47.02819" lon="-1.83562">
        <ele>77</ele>
        <time>2021-02-20T11:54:22.000Z</time>
      </trkpt>
      <trkpt lat="47.02811" lon="-1.83571">
        <ele>77</ele>
        <time>2021-02-20T11:54:24.000Z</time>
      </trkpt>
      <trkpt lat="47.02802" lon="-1.8358">
        <ele>77</ele>
        <time>2021-02-20T11:54:26.000Z</time>
      </trkpt>
      <trkpt lat="47.02793" lon="-1.83588">
        <ele>77</ele>
        <time>2021-02-20T11:54:28.000Z</time>
      </trkpt>
      <trkpt lat="47.02784" lon="-1.83596">
        <ele>77</ele>
        <time>2021-02-20T11:54:30.000Z</time>
      </trkpt>
      <trkpt lat="47.02774" lon="-1.83602">
        <ele>77</ele>
        <time>2021-02-20T11:54:32.000Z</time>
      </trkpt>
      <trkpt lat="47.02764" lon="-1.83608">
        <ele>77</ele>
        <time>2021-02-20T11:54:34.000Z</time>
      </trkpt>
      <trkpt lat="47.02753" lon="-1.83612">
        <ele>77</ele>
        <time>2021-02-20T11:54:36.000Z</time>
      </trkpt>
      <trkpt lat="47.02741" lon="-1.83615">
        <ele>77</ele>
        <time>2021-02-20T11:54:38.000Z</time>
      </trkpt>
      <trkpt lat="47.02729" lon="-1.83617">
        <ele>77</ele>
        <time>2021-02-20T11:54:40.000Z</time>
      </trkpt>
      <trkpt lat="47.02717" lon="-1.83618">
        <ele>76</ele>
        <time>2021-02-20T11:54:42.000Z</time>
      </trkpt>
      <trkpt lat="47.02705" lon="-1.83619">
        <ele>76</ele>
        <time>2021-02-20T11:54:44.000Z</time>
      </trkpt>
      <trkpt lat="47.02694" lon="-1.83619">
        <ele>76</ele>
        <time>2021-02-20T11:54:46.000Z</time>
      </trkpt>
      <trkpt lat="47.02681" lon="-1.8362">
        <ele>76</ele>
        <time>2021-02-20T11:54:48.000Z</time>
      </trkpt>
      <trkpt lat="47.02669" lon="-1.8362">
        <ele>76</ele>
        <time>2021-02-20T11:54:50.000Z</time>
      </trkpt>
      <trkpt lat="47.02657" lon="-1.83622">
        <ele>76</ele>
        <time>2021-02-20T11:54:52.000Z</time>
      </trkpt>
      <trkpt lat="47.02644" lon="-1.83622">
        <ele>76</ele>
        <time>2021-02-20T11:54:54.000Z</time>
      </trkpt>
      <trkpt lat="47.02631" lon="-1.83622">
        <ele>76</ele>
        <time>2021-02-20T11:54:56.000Z</time>
      </trkpt>
      <trkpt lat="47.02619" lon="-1.83624">
        <ele>76</ele>
        <time>2021-02-20T11:54:58.000Z</time>
      </trkpt>
      <trkpt lat="47.02606" lon="-1.83624">
        <ele>76</ele>
        <time>2021-02-20T11:55:00.000Z</time>
      </trkpt>
      <trkpt lat="47.02594" lon="-1.83625">
        <ele>76</ele>
        <time>2021-02-20T11:55:02.000Z</time>
      </trkpt>
      <trkpt lat="47.02582" lon="-1.83626">
        <ele>76</ele>
        <time>2021-02-20T11:55:04.000Z</time>
      </trkpt>
      <trkpt lat="47.0257" lon="-1.83627">
        <ele>76</ele>
        <time>2021-02-20T11:55:06.000Z</time>
      </trkpt>
      <trkpt lat="47.02557" lon="-1.83628">
        <ele>75</ele>
        <time>2021-02-20T11:55:08.000Z</time>
      </trkpt>
      <trkpt lat="47.02545" lon="-1.83629">
        <ele>75</ele>
        <time>2021-02-20T11:55:10.000Z</time>
      </trkpt>
      <trkpt lat="47.02533" lon="-1.83631">
        <ele>75</ele>
        <time>2021-02-20T11:55:12.000Z</time>
      </trkpt>
      <trkpt lat="47.02521" lon="-1.83634">
        <ele>75</ele>
        <time>2021-02-20T11:55:14.000Z</time>
      </trkpt>
      <trkpt lat="47.02509" lon="-1.83636">
        <ele>75</ele>
        <time>2021-02-20T11:55:16.000Z</time>
      </trkpt>
      <trkpt lat="47.02497" lon="-1.83638">
        <ele>75</ele>
        <time>2021-02-20T11:55:18.000Z</time>
      </trkpt>
      <trkpt lat="47.02485" lon="-1.83641">
        <ele>75</ele>
        <time>2021-02-20T11:55:20.000Z</time>
      </trkpt>
      <trkpt lat="47.02473" lon="-1.83644">
        <ele>75</ele>
        <time>2021-02-20T11:55:22.000Z</time>
      </trkpt>
      <trkpt lat="47.0246" lon="-1.83648">
        <ele>75</ele>
        <time>2021-02-20T11:55:24.000Z</time>
      </trkpt>
      <trkpt lat="47.02448" lon="-1.8365">
        <ele>74</ele>
        <time>2021-02-20T11:55:26.000Z</time>
      </trkpt>
      <trkpt lat="47.02436" lon="-1.83653">
        <ele>74</ele>
        <time>2021-02-20T11:55:28.000Z</time>
      </trkpt>
      <trkpt lat="47.02423" lon="-1.83656">
        <ele>74</ele>
        <time>2021-02-20T11:55:30.000Z</time>
      </trkpt>
      <trkpt lat="47.02411" lon="-1.83657">
        <ele>74</ele>
        <time>2021-02-20T11:55:32.000Z</time>
      </trkpt>
      <trkpt lat="47.02399" lon="-1.83659">
        <ele>74</ele>
        <time>2021-02-20T11:55:34.000Z</time>
      </trkpt>
      <trkpt lat="47.02387" lon="-1.83659">
        <ele>75</ele>
        <time>2021-02-20T11:55:36.000Z</time>
      </trkpt>
      <trkpt lat="47.02375" lon="-1.83659">
        <ele>74</ele>
        <time>2021-02-20T11:55:38.000Z</time>
      </trkpt>
      <trkpt lat="47.02363" lon="-1.83658">
        <ele>74</ele>
        <time>2021-02-20T11:55:40.000Z</time>
      </trkpt>
      <trkpt lat="47.02352" lon="-1.83657">
        <ele>74</ele>
        <time>2021-02-20T11:55:42.000Z</time>
      </trkpt>
      <trkpt lat="47.0234" lon="-1.83657">
        <ele>74</ele>
        <time>2021-02-20T11:55:44.000Z</time>
      </trkpt>
      <trkpt lat="47.02328" lon="-1.83656">
        <ele>74</ele>
        <time>2021-02-20T11:55:46.000Z</time>
      </trkpt>
      <trkpt lat="47.02316" lon="-1.83655">
        <ele>73</ele>
        <time>2021-02-20T11:55:48.000Z</time>
      </trkpt>
      <trkpt lat="47.02304" lon="-1.83655">
        <ele>74</ele>
        <time>2021-02-20T11:55:50.000Z</time>
      </trkpt>
      <trkpt lat="47.02292" lon="-1.83654">
        <ele>73</ele>
        <time>2021-02-20T11:55:52.000Z</time>
      </trkpt>
      <trkpt lat="47.0228" lon="-1.83652">
        <ele>73</ele>
        <time>2021-02-20T11:55:54.000Z</time>
      </trkpt>
      <trkpt lat="47.02268" lon="-1.83652">
        <ele>73</ele>
        <time>2021-02-20T11:55:56.000Z</time>
      </trkpt>
      <trkpt lat="47.02256" lon="-1.83651">
        <ele>73</ele>
        <time>2021-02-20T11:55:58.000Z</time>
      </trkpt>
      <trkpt lat="47.02244" lon="-1.8365">
        <ele>73</ele>
        <time>2021-02-20T11:56:00.000Z</time>
      </trkpt>
      <trkpt lat="47.02231" lon="-1.83649">
        <ele>73</ele>
        <time>2021-02-20T11:56:02.000Z</time>
      </trkpt>
      <trkpt lat="47.02219" lon="-1.83647">
        <ele>73</ele>
        <time>2021-02-20T11:56:04.000Z</time>
      </trkpt>
      <trkpt lat="47.02208" lon="-1.83645">
        <ele>72</ele>
        <time>2021-02-20T11:56:06.000Z</time>
      </trkpt>
      <trkpt lat="47.02197" lon="-1.83643">
        <ele>72</ele>
        <time>2021-02-20T11:56:08.000Z</time>
      </trkpt>
      <trkpt lat="47.02186" lon="-1.83639">
        <ele>72</ele>
        <time>2021-02-20T11:56:10.000Z</time>
      </trkpt>
      <trkpt lat="47.02176" lon="-1.83633">
        <ele>71</ele>
        <time>2021-02-20T11:56:12.000Z</time>
      </trkpt>
      <trkpt lat="47.02165" lon="-1.83626">
        <ele>71</ele>
        <time>2021-02-20T11:56:14.000Z</time>
      </trkpt>
      <trkpt lat="47.02154" lon="-1.8362">
        <ele>70</ele>
        <time>2021-02-20T11:56:16.000Z</time>
      </trkpt>
      <trkpt lat="47.02145" lon="-1.83614">
        <ele>70</ele>
        <time>2021-02-20T11:56:18.000Z</time>
      </trkpt>
      <trkpt lat="47.02135" lon="-1.83608">
        <ele>70</ele>
        <time>2021-02-20T11:56:20.000Z</time>
      </trkpt>
      <trkpt lat="47.02125" lon="-1.83602">
        <ele>71</ele>
        <time>2021-02-20T11:56:22.000Z</time>
      </trkpt>
      <trkpt lat="47.02114" lon="-1.83595">
        <ele>71</ele>
        <time>2021-02-20T11:56:24.000Z</time>
      </trkpt>
      <trkpt lat="47.02103" lon="-1.83588">
        <ele>71</ele>
        <time>2021-02-20T11:56:26.000Z</time>
      </trkpt>
      <trkpt lat="47.02092" lon="-1.83582">
        <ele>71</ele>
        <time>2021-02-20T11:56:28.000Z</time>
      </trkpt>
      <trkpt lat="47.02081" lon="-1.83575">
        <ele>71</ele>
        <time>2021-02-20T11:56:30.000Z</time>
      </trkpt>
      <trkpt lat="47.0207" lon="-1.8357">
        <ele>71</ele>
        <time>2021-02-20T11:56:32.000Z</time>
      </trkpt>
      <trkpt lat="47.0206" lon="-1.83563">
        <ele>70</ele>
        <time>2021-02-20T11:56:34.000Z</time>
      </trkpt>
      <trkpt lat="47.0205" lon="-1.83557">
        <ele>71</ele>
        <time>2021-02-20T11:56:36.000Z</time>
      </trkpt>
      <trkpt lat="47.0204" lon="-1.83551">
        <ele>71</ele>
        <time>2021-02-20T11:56:38.000Z</time>
      </trkpt>
      <trkpt lat="47.02029" lon="-1.83545">
        <ele>71</ele>
        <time>2021-02-20T11:56:40.000Z</time>
      </trkpt>
      <trkpt lat="47.02019" lon="-1.83538">
        <ele>70</ele>
        <time>2021-02-20T11:56:42.000Z</time>
      </trkpt>
      <trkpt lat="47.02009" lon="-1.83531">
        <ele>70</ele>
        <time>2021-02-20T11:56:44.000Z</time>
      </trkpt>
      <trkpt lat="47.01998" lon="-1.83525">
        <ele>70</ele>
        <time>2021-02-20T11:56:46.000Z</time>
      </trkpt>
      <trkpt lat="47.01987" lon="-1.83519">
        <ele>70</ele>
        <time>2021-02-20T11:56:48.000Z</time>
      </trkpt>
      <trkpt lat="47.01977" lon="-1.83513">
        <ele>70</ele>
        <time>2021-02-20T11:56:50.000Z</time>
      </trkpt>
      <trkpt lat="47.01966" lon="-1.83507">
        <ele>70</ele>
        <time>2021-02-20T11:56:52.000Z</time>
      </trkpt>
      <trkpt lat="47.01954" lon="-1.83502">
        <ele>69</ele>
        <time>2021-02-20T11:56:54.000Z</time>
      </trkpt>
      <trkpt lat="47.01943" lon="-1.83499">
        <ele>69</ele>
        <time>2021-02-20T11:56:56.000Z</time>
      </trkpt>
      <trkpt lat="47.0193" lon="-1.83497">
        <ele>69</ele>
        <time>2021-02-20T11:56:58.000Z</time>
      </trkpt>
      <trkpt lat="47.01918" lon="-1.83499">
        <ele>68</ele>
        <time>2021-02-20T11:57:00.000Z</time>
      </trkpt>
      <trkpt lat="47.01904" lon="-1.83501">
        <ele>67</ele>
        <time>2021-02-20T11:57:02.000Z</time>
      </trkpt>
      <trkpt lat="47.01891" lon="-1.83505">
        <ele>66</ele>
        <time>2021-02-20T11:57:04.000Z</time>
      </trkpt>
      <trkpt lat="47.01877" lon="-1.83509">
        <ele>66</ele>
        <time>2021-02-20T11:57:06.000Z</time>
      </trkpt>
      <trkpt lat="47.01862" lon="-1.83512">
        <ele>65</ele>
        <time>2021-02-20T11:57:08.000Z</time>
      </trkpt>
      <trkpt lat="47.01848" lon="-1.83515">
        <ele>65</ele>
        <time>2021-02-20T11:57:10.000Z</time>
      </trkpt>
      <trkpt lat="47.01834" lon="-1.83518">
        <ele>64</ele>
        <time>2021-02-20T11:57:12.000Z</time>
      </trkpt>
      <trkpt lat="47.01819" lon="-1.83521">
        <ele>64</ele>
        <time>2021-02-20T11:57:14.000Z</time>
      </trkpt>
      <trkpt lat="47.01804" lon="-1.83525">
        <ele>63</ele>
        <time>2021-02-20T11:57:16.000Z</time>
      </trkpt>
      <trkpt lat="47.01789" lon="-1.83528">
        <ele>63</ele>
        <time>2021-02-20T11:57:18.000Z</time>
      </trkpt>
      <trkpt lat="47.01775" lon="-1.83533">
        <ele>63</ele>
        <time>2021-02-20T11:57:20.000Z</time>
      </trkpt>
      <trkpt lat="47.01762" lon="-1.8354">
        <ele>62</ele>
        <time>2021-02-20T11:57:22.000Z</time>
      </trkpt>
      <trkpt lat="47.0175" lon="-1.83549">
        <ele>62</ele>
        <time>2021-02-20T11:57:24.000Z</time>
      </trkpt>
      <trkpt lat="47.0174" lon="-1.83562">
        <ele>62</ele>
        <time>2021-02-20T11:57:26.000Z</time>
      </trkpt>
      <trkpt lat="47.01732" lon="-1.83577">
        <ele>62</ele>
        <time>2021-02-20T11:57:28.000Z</time>
      </trkpt>
      <trkpt lat="47.01725" lon="-1.83591">
        <ele>62</ele>
        <time>2021-02-20T11:57:30.000Z</time>
      </trkpt>
      <trkpt lat="47.01718" lon="-1.83605">
        <ele>62</ele>
        <time>2021-02-20T11:57:32.000Z</time>
      </trkpt>
      <trkpt lat="47.01711" lon="-1.83618">
        <ele>62</ele>
        <time>2021-02-20T11:57:34.000Z</time>
      </trkpt>
      <trkpt lat="47.01704" lon="-1.83631">
        <ele>62</ele>
        <time>2021-02-20T11:57:36.000Z</time>
      </trkpt>
      <trkpt lat="47.01696" lon="-1.83645">
        <ele>62</ele>
        <time>2021-02-20T11:57:38.000Z</time>
      </trkpt>
      <trkpt lat="47.01688" lon="-1.83658">
        <ele>63</ele>
        <time>2021-02-20T11:57:40.000Z</time>
      </trkpt>
      <trkpt lat="47.0168" lon="-1.8367">
        <ele>63</ele>
        <time>2021-02-20T11:57:42.000Z</time>
      </trkpt>
      <trkpt lat="47.01671" lon="-1.83681">
        <ele>63</ele>
        <time>2021-02-20T11:57:44.000Z</time>
      </trkpt>
      <trkpt lat="47.01663" lon="-1.83693">
        <ele>63</ele>
        <time>2021-02-20T11:57:46.000Z</time>
      </trkpt>
      <trkpt lat="47.01654" lon="-1.83704">
        <ele>62</ele>
        <time>2021-02-20T11:57:48.000Z</time>
      </trkpt>
      <trkpt lat="47.01646" lon="-1.83714">
        <ele>62</ele>
        <time>2021-02-20T11:57:50.000Z</time>
      </trkpt>
      <trkpt lat="47.01637" lon="-1.83724">
        <ele>62</ele>
        <time>2021-02-20T11:57:52.000Z</time>
      </trkpt>
      <trkpt lat="47.01629" lon="-1.83734">
        <ele>63</ele>
        <time>2021-02-20T11:57:54.000Z</time>
      </trkpt>
      <trkpt lat="47.0162" lon="-1.83744">
        <ele>63</ele>
        <time>2021-02-20T11:57:56.000Z</time>
      </trkpt>
      <trkpt lat="47.01611" lon="-1.83753">
        <ele>62</ele>
        <time>2021-02-20T11:57:58.000Z</time>
      </trkpt>
      <trkpt lat="47.01602" lon="-1.83764">
        <ele>62</ele>
        <time>2021-02-20T11:58:00.000Z</time>
      </trkpt>
      <trkpt lat="47.01593" lon="-1.83775">
        <ele>62</ele>
        <time>2021-02-20T11:58:02.000Z</time>
      </trkpt>
      <trkpt lat="47.01583" lon="-1.83786">
        <ele>62</ele>
        <time>2021-02-20T11:58:04.000Z</time>
      </trkpt>
      <trkpt lat="47.01574" lon="-1.83798">
        <ele>62</ele>
        <time>2021-02-20T11:58:06.000Z</time>
      </trkpt>
      <trkpt lat="47.01564" lon="-1.8381">
        <ele>62</ele>
        <time>2021-02-20T11:58:08.000Z</time>
      </trkpt>
      <trkpt lat="47.01555" lon="-1.83822">
        <ele>62</ele>
        <time>2021-02-20T11:58:10.000Z</time>
      </trkpt>
      <trkpt lat="47.01546" lon="-1.83834">
        <ele>61</ele>
        <time>2021-02-20T11:58:12.000Z</time>
      </trkpt>
      <trkpt lat="47.01537" lon="-1.83846">
        <ele>61</ele>
        <time>2021-02-20T11:58:14.000Z</time>
      </trkpt>
      <trkpt lat="47.01528" lon="-1.83859">
        <ele>61</ele>
        <time>2021-02-20T11:58:16.000Z</time>
      </trkpt>
      <trkpt lat="47.01519" lon="-1.83872">
        <ele>60</ele>
        <time>2021-02-20T11:58:18.000Z</time>
      </trkpt>
      <trkpt lat="47.01511" lon="-1.83886">
        <ele>60</ele>
        <time>2021-02-20T11:58:20.000Z</time>
      </trkpt>
      <trkpt lat="47.01502" lon="-1.83899">
        <ele>60</ele>
        <time>2021-02-20T11:58:22.000Z</time>
      </trkpt>
      <trkpt lat="47.01494" lon="-1.83912">
        <ele>60</ele>
        <time>2021-02-20T11:58:24.000Z</time>
      </trkpt>
      <trkpt lat="47.01487" lon="-1.83923">
        <ele>60</ele>
        <time>2021-02-20T11:58:26.000Z</time>
      </trkpt>
      <trkpt lat="47.01479" lon="-1.83935">
        <ele>59</ele>
        <time>2021-02-20T11:58:28.000Z</time>
      </trkpt>
      <trkpt lat="47.01471" lon="-1.83947">
        <ele>59</ele>
        <time>2021-02-20T11:58:30.000Z</time>
      </trkpt>
      <trkpt lat="47.01462" lon="-1.83959">
        <ele>59</ele>
        <time>2021-02-20T11:58:32.000Z</time>
      </trkpt>
      <trkpt lat="47.01454" lon="-1.83972">
        <ele>59</ele>
        <time>2021-02-20T11:58:34.000Z</time>
      </trkpt>
      <trkpt lat="47.01444" lon="-1.83986">
        <ele>58</ele>
        <time>2021-02-20T11:58:36.000Z</time>
      </trkpt>
      <trkpt lat="47.01435" lon="-1.84">
        <ele>57</ele>
        <time>2021-02-20T11:58:38.000Z</time>
      </trkpt>
      <trkpt lat="47.01426" lon="-1.84014">
        <ele>57</ele>
        <time>2021-02-20T11:58:40.000Z</time>
      </trkpt>
      <trkpt lat="47.01417" lon="-1.84028">
        <ele>57</ele>
        <time>2021-02-20T11:58:42.000Z</time>
      </trkpt>
      <trkpt lat="47.01408" lon="-1.84041">
        <ele>57</ele>
        <time>2021-02-20T11:58:44.000Z</time>
      </trkpt>
      <trkpt lat="47.01399" lon="-1.84054">
        <ele>56</ele>
        <time>2021-02-20T11:58:46.000Z</time>
      </trkpt>
      <trkpt lat="47.0139" lon="-1.84067">
        <ele>56</ele>
        <time>2021-02-20T11:58:48.000Z</time>
      </trkpt>
      <trkpt lat="47.01381" lon="-1.84079">
        <ele>56</ele>
        <time>2021-02-20T11:58:50.000Z</time>
      </trkpt>
      <trkpt lat="47.01371" lon="-1.84091">
        <ele>56</ele>
        <time>2021-02-20T11:58:52.000Z</time>
      </trkpt>
      <trkpt lat="47.01362" lon="-1.84102">
        <ele>56</ele>
        <time>2021-02-20T11:58:54.000Z</time>
      </trkpt>
      <trkpt lat="47.01353" lon="-1.84112">
        <ele>56</ele>
        <time>2021-02-20T11:58:56.000Z</time>
      </trkpt>
      <trkpt lat="47.01344" lon="-1.84122">
        <ele>56</ele>
        <time>2021-02-20T11:58:58.000Z</time>
      </trkpt>
      <trkpt lat="47.01334" lon="-1.84132">
        <ele>56</ele>
        <time>2021-02-20T11:59:00.000Z</time>
      </trkpt>
      <trkpt lat="47.01325" lon="-1.84143">
        <ele>55</ele>
        <time>2021-02-20T11:59:02.000Z</time>
      </trkpt>
      <trkpt lat="47.01315" lon="-1.84153">
        <ele>56</ele>
        <time>2021-02-20T11:59:04.000Z</time>
      </trkpt>
      <trkpt lat="47.01306" lon="-1.84164">
        <ele>56</ele>
        <time>2021-02-20T11:59:06.000Z</time>
      </trkpt>
      <trkpt lat="47.01296" lon="-1.84174">
        <ele>56</ele>
        <time>2021-02-20T11:59:08.000Z</time>
      </trkpt>
      <trkpt lat="47.01287" lon="-1.84185">
        <ele>56</ele>
        <time>2021-02-20T11:59:10.000Z</time>
      </trkpt>
      <trkpt lat="47.01278" lon="-1.84196">
        <ele>56</ele>
        <time>2021-02-20T11:59:12.000Z</time>
      </trkpt>
      <trkpt lat="47.01268" lon="-1.84207">
        <ele>55</ele>
        <time>2021-02-20T11:59:14.000Z</time>
      </trkpt>
      <trkpt lat="47.01258" lon="-1.84218">
        <ele>56</ele>
        <time>2021-02-20T11:59:16.000Z</time>
      </trkpt>
      <trkpt lat="47.01248" lon="-1.84229">
        <ele>56</ele>
        <time>2021-02-20T11:59:18.000Z</time>
      </trkpt>
      <trkpt lat="47.01237" lon="-1.84239">
        <ele>55</ele>
        <time>2021-02-20T11:59:20.000Z</time>
      </trkpt>
      <trkpt lat="47.01227" lon="-1.8425">
        <ele>55</ele>
        <time>2021-02-20T11:59:22.000Z</time>
      </trkpt>
      <trkpt lat="47.01217" lon="-1.84262">
        <ele>55</ele>
        <time>2021-02-20T11:59:24.000Z</time>
      </trkpt>
      <trkpt lat="47.01207" lon="-1.84274">
        <ele>56</ele>
        <time>2021-02-20T11:59:26.000Z</time>
      </trkpt>
      <trkpt lat="47.01198" lon="-1.84286">
        <ele>55</ele>
        <time>2021-02-20T11:59:28.000Z</time>
      </trkpt>
      <trkpt lat="47.0119" lon="-1.843">
        <ele>55</ele>
        <time>2021-02-20T11:59:30.000Z</time>
      </trkpt>
      <trkpt lat="47.01184" lon="-1.84316">
        <ele>55</ele>
        <time>2021-02-20T11:59:32.000Z</time>
      </trkpt>
      <trkpt lat="47.01178" lon="-1.84333">
        <ele>55</ele>
        <time>2021-02-20T11:59:34.000Z</time>
      </trkpt>
      <trkpt lat="47.01173" lon="-1.84349">
        <ele>55</ele>
        <time>2021-02-20T11:59:36.000Z</time>
      </trkpt>
      <trkpt lat="47.01169" lon="-1.84365">
        <ele>55</ele>
        <time>2021-02-20T11:59:38.000Z</time>
      </trkpt>
      <trkpt lat="47.01164" lon="-1.8438">
        <ele>55</ele>
        <time>2021-02-20T11:59:40.000Z</time>
      </trkpt>
      <trkpt lat="47.0116" lon="-1.84397">
        <ele>55</ele>
        <time>2021-02-20T11:59:42.000Z</time>
      </trkpt>
      <trkpt lat="47.01156" lon="-1.84414">
        <ele>55</ele>
        <time>2021-02-20T11:59:44.000Z</time>
      </trkpt>
      <trkpt lat="47.01151" lon="-1.8443">
        <ele>54</ele>
        <time>2021-02-20T11:59:46.000Z</time>
      </trkpt>
      <trkpt lat="47.01147" lon="-1.84447">
        <ele>54</ele>
        <time>2021-02-20T11:59:48.000Z</time>
      </trkpt>
      <trkpt lat="47.01143" lon="-1.84465">
        <ele>54</ele>
        <time>2021-02-20T11:59:50.000Z</time>
      </trkpt>
      <trkpt lat="47.01138" lon="-1.84483">
        <ele>54</ele>
        <time>2021-02-20T11:59:52.000Z</time>
      </trkpt>
      <trkpt lat="47.01133" lon="-1.84501">
        <ele>54</ele>
        <time>2021-02-20T11:59:54.000Z</time>
      </trkpt>
      <trkpt lat="47.01128" lon="-1.84519">
        <ele>54</ele>
        <time>2021-02-20T11:59:56.000Z</time>
      </trkpt>
      <trkpt lat="47.01123" lon="-1.84535">
        <ele>54</ele>
        <time>2021-02-20T11:59:58.000Z</time>
      </trkpt>
      <trkpt lat="47.01115" lon="-1.84549">
        <ele>54</ele>
        <time>2021-02-20T12:00:00.000Z</time>
      </trkpt>
      <trkpt lat="47.01108" lon="-1.84561">
        <ele>55</ele>
        <time>2021-02-20T12:00:02.000Z</time>
      </trkpt>
      <trkpt lat="47.01099" lon="-1.84571">
        <ele>54</ele>
        <time>2021-02-20T12:00:04.000Z</time>
      </trkpt>
      <trkpt lat="47.01089" lon="-1.84581">
        <ele>54</ele>
        <time>2021-02-20T12:00:06.000Z</time>
      </trkpt>
      <trkpt lat="47.0108" lon="-1.84593">
        <ele>54</ele>
        <time>2021-02-20T12:00:08.000Z</time>
      </trkpt>
      <trkpt lat="47.01071" lon="-1.84605">
        <ele>54</ele>
        <time>2021-02-20T12:00:10.000Z</time>
      </trkpt>
      <trkpt lat="47.01061" lon="-1.84615">
        <ele>54</ele>
        <time>2021-02-20T12:00:12.000Z</time>
      </trkpt>
      <trkpt lat="47.01052" lon="-1.84626">
        <ele>55</ele>
        <time>2021-02-20T12:00:14.000Z</time>
      </trkpt>
      <trkpt lat="47.01043" lon="-1.84636">
        <ele>54</ele>
        <time>2021-02-20T12:00:16.000Z</time>
      </trkpt>
      <trkpt lat="47.01034" lon="-1.84646">
        <ele>54</ele>
        <time>2021-02-20T12:00:18.000Z</time>
      </trkpt>
      <trkpt lat="47.01024" lon="-1.84654">
        <ele>54</ele>
        <time>2021-02-20T12:00:20.000Z</time>
      </trkpt>
      <trkpt lat="47.01014" lon="-1.84662">
        <ele>54</ele>
        <time>2021-02-20T12:00:22.000Z</time>
      </trkpt>
      <trkpt lat="47.01003" lon="-1.84669">
        <ele>55</ele>
        <time>2021-02-20T12:00:24.000Z</time>
      </trkpt>
      <trkpt lat="47.00992" lon="-1.84676">
        <ele>55</ele>
        <time>2021-02-20T12:00:26.000Z</time>
      </trkpt>
      <trkpt lat="47.00981" lon="-1.84682">
        <ele>54</ele>
        <time>2021-02-20T12:00:28.000Z</time>
      </trkpt>
      <trkpt lat="47.0097" lon="-1.84688">
        <ele>55</ele>
        <time>2021-02-20T12:00:30.000Z</time>
      </trkpt>
      <trkpt lat="47.00959" lon="-1.84695">
        <ele>55</ele>
        <time>2021-02-20T12:00:32.000Z</time>
      </trkpt>
      <trkpt lat="47.00948" lon="-1.84701">
        <ele>54</ele>
        <time>2021-02-20T12:00:34.000Z</time>
      </trkpt>
      <trkpt lat="47.00937" lon="-1.84707">
        <ele>54</ele>
        <time>2021-02-20T12:00:36.000Z</time>
      </trkpt>
      <trkpt lat="47.00927" lon="-1.84712">
        <ele>54</ele>
        <time>2021-02-20T12:00:38.000Z</time>
      </trkpt>
      <trkpt lat="47.00918" lon="-1.84717">
        <ele>55</ele>
        <time>2021-02-20T12:00:40.000Z</time>
      </trkpt>
      <trkpt lat="47.00908" lon="-1.84722">
        <ele>54</ele>
        <time>2021-02-20T12:00:42.000Z</time>
      </trkpt>
      <trkpt lat="47.00897" lon="-1.84728">
        <ele>54</ele>
        <time>2021-02-20T12:00:45.000Z</time>
      </trkpt>
      <trkpt lat="47.00887" lon="-1.84738">
        <ele>55</ele>
        <time>2021-02-20T12:00:48.000Z</time>
      </trkpt>
      <trkpt lat="47.00878" lon="-1.84747">
        <ele>54</ele>
        <time>2021-02-20T12:00:50.000Z</time>
      </trkpt>
      <trkpt lat="47.00868" lon="-1.84755">
        <ele>54</ele>
        <time>2021-02-20T12:00:52.000Z</time>
      </trkpt>
      <trkpt lat="47.00857" lon="-1.84763">
        <ele>54</ele>
        <time>2021-02-20T12:00:54.000Z</time>
      </trkpt>
      <trkpt lat="47.00846" lon="-1.8477">
        <ele>54</ele>
        <time>2021-02-20T12:00:56.000Z</time>
      </trkpt>
      <trkpt lat="47.00836" lon="-1.84778">
        <ele>53</ele>
        <time>2021-02-20T12:00:58.000Z</time>
      </trkpt>
      <trkpt lat="47.00825" lon="-1.84784">
        <ele>54</ele>
        <time>2021-02-20T12:01:00.000Z</time>
      </trkpt>
      <trkpt lat="47.00815" lon="-1.8479">
        <ele>54</ele>
        <time>2021-02-20T12:01:02.000Z</time>
      </trkpt>
      <trkpt lat="47.00804" lon="-1.84797">
        <ele>54</ele>
        <time>2021-02-20T12:01:04.000Z</time>
      </trkpt>
      <trkpt lat="47.00793" lon="-1.84803">
        <ele>54</ele>
        <time>2021-02-20T12:01:06.000Z</time>
      </trkpt>
      <trkpt lat="47.00782" lon="-1.84809">
        <ele>54</ele>
        <time>2021-02-20T12:01:08.000Z</time>
      </trkpt>
      <trkpt lat="47.00771" lon="-1.84815">
        <ele>54</ele>
        <time>2021-02-20T12:01:10.000Z</time>
      </trkpt>
      <trkpt lat="47.0076" lon="-1.8482">
        <ele>54</ele>
        <time>2021-02-20T12:01:12.000Z</time>
      </trkpt>
      <trkpt lat="47.00749" lon="-1.84826">
        <ele>54</ele>
        <time>2021-02-20T12:01:14.000Z</time>
      </trkpt>
      <trkpt lat="47.00739" lon="-1.84831">
        <ele>55</ele>
        <time>2021-02-20T12:01:16.000Z</time>
      </trkpt>
      <trkpt lat="47.00728" lon="-1.84836">
        <ele>54</ele>
        <time>2021-02-20T12:01:18.000Z</time>
      </trkpt>
      <trkpt lat="47.00717" lon="-1.84842">
        <ele>55</ele>
        <time>2021-02-20T12:01:20.000Z</time>
      </trkpt>
      <trkpt lat="47.00706" lon="-1.84847">
        <ele>55</ele>
        <time>2021-02-20T12:01:22.000Z</time>
      </trkpt>
      <trkpt lat="47.00695" lon="-1.84854">
        <ele>55</ele>
        <time>2021-02-20T12:01:24.000Z</time>
      </trkpt>
      <trkpt lat="47.00684" lon="-1.84859">
        <ele>55</ele>
        <time>2021-02-20T12:01:26.000Z</time>
      </trkpt>
      <trkpt lat="47.00672" lon="-1.84866">
        <ele>55</ele>
        <time>2021-02-20T12:01:28.000Z</time>
      </trkpt>
      <trkpt lat="47.0066" lon="-1.84872">
        <ele>55</ele>
        <time>2021-02-20T12:01:30.000Z</time>
      </trkpt>
      <trkpt lat="47.00649" lon="-1.84878">
        <ele>55</ele>
        <time>2021-02-20T12:01:32.000Z</time>
      </trkpt>
      <trkpt lat="47.00638" lon="-1.84884">
        <ele>55</ele>
        <time>2021-02-20T12:01:34.000Z</time>
      </trkpt>
      <trkpt lat="47.00628" lon="-1.84892">
        <ele>54</ele>
        <time>2021-02-20T12:01:36.000Z</time>
      </trkpt>
      <trkpt lat="47.00618" lon="-1.849">
        <ele>54</ele>
        <time>2021-02-20T12:01:38.000Z</time>
      </trkpt>
      <trkpt lat="47.00608" lon="-1.84909">
        <ele>54</ele>
        <time>2021-02-20T12:01:40.000Z</time>
      </trkpt>
      <trkpt lat="47.00599" lon="-1.84919">
        <ele>54</ele>
        <time>2021-02-20T12:01:42.000Z</time>
      </trkpt>
      <trkpt lat="47.0059" lon="-1.8493">
        <ele>54</ele>
        <time>2021-02-20T12:01:44.000Z</time>
      </trkpt>
      <trkpt lat="47.00581" lon="-1.84941">
        <ele>54</ele>
        <time>2021-02-20T12:01:46.000Z</time>
      </trkpt>
      <trkpt lat="47.00572" lon="-1.84953">
        <ele>54</ele>
        <time>2021-02-20T12:01:48.000Z</time>
      </trkpt>
      <trkpt lat="47.00563" lon="-1.84965">
        <ele>54</ele>
        <time>2021-02-20T12:01:50.000Z</time>
      </trkpt>
      <trkpt lat="47.00556" lon="-1.84975">
        <ele>54</ele>
        <time>2021-02-20T12:01:52.000Z</time>
      </trkpt>
      <trkpt lat="47.00548" lon="-1.84986">
        <ele>53</ele>
        <time>2021-02-20T12:01:54.000Z</time>
      </trkpt>
      <trkpt lat="47.00539" lon="-1.84997">
        <ele>53</ele>
        <time>2021-02-20T12:01:56.000Z</time>
      </trkpt>
      <trkpt lat="47.00531" lon="-1.85007">
        <ele>53</ele>
        <time>2021-02-20T12:01:58.000Z</time>
      </trkpt>
      <trkpt lat="47.00522" lon="-1.85019">
        <ele>53</ele>
        <time>2021-02-20T12:02:00.000Z</time>
      </trkpt>
      <trkpt lat="47.00513" lon="-1.85029">
        <ele>53</ele>
        <time>2021-02-20T12:02:02.000Z</time>
      </trkpt>
      <trkpt lat="47.00504" lon="-1.85039">
        <ele>53</ele>
        <time>2021-02-20T12:02:04.000Z</time>
      </trkpt>
      <trkpt lat="47.00496" lon="-1.8505">
        <ele>53</ele>
        <time>2021-02-20T12:02:06.000Z</time>
      </trkpt>
      <trkpt lat="47.00487" lon="-1.85061">
        <ele>53</ele>
        <time>2021-02-20T12:02:08.000Z</time>
      </trkpt>
      <trkpt lat="47.00477" lon="-1.85069">
        <ele>53</ele>
        <time>2021-02-20T12:02:10.000Z</time>
      </trkpt>
      <trkpt lat="47.00468" lon="-1.85078">
        <ele>53</ele>
        <time>2021-02-20T12:02:12.000Z</time>
      </trkpt>
      <trkpt lat="47.00459" lon="-1.85085">
        <ele>53</ele>
        <time>2021-02-20T12:02:14.000Z</time>
      </trkpt>
      <trkpt lat="47.0045" lon="-1.85092">
        <ele>54</ele>
        <time>2021-02-20T12:02:16.000Z</time>
      </trkpt>
      <trkpt lat="47.00441" lon="-1.851">
        <ele>53</ele>
        <time>2021-02-20T12:02:18.000Z</time>
      </trkpt>
      <trkpt lat="47.00431" lon="-1.85108">
        <ele>54</ele>
        <time>2021-02-20T12:02:20.000Z</time>
      </trkpt>
      <trkpt lat="47.00422" lon="-1.85116">
        <ele>54</ele>
        <time>2021-02-20T12:02:22.000Z</time>
      </trkpt>
      <trkpt lat="47.00413" lon="-1.85123">
        <ele>54</ele>
        <time>2021-02-20T12:02:24.000Z</time>
      </trkpt>
      <trkpt lat="47.00405" lon="-1.8513">
        <ele>54</ele>
        <time>2021-02-20T12:02:26.000Z</time>
      </trkpt>
      <trkpt lat="47.00394" lon="-1.8514">
        <ele>54</ele>
        <time>2021-02-20T12:02:29.000Z</time>
      </trkpt>
      <trkpt lat="47.00386" lon="-1.85146">
        <ele>53</ele>
        <time>2021-02-20T12:02:31.000Z</time>
      </trkpt>
      <trkpt lat="47.00377" lon="-1.85153">
        <ele>54</ele>
        <time>2021-02-20T12:02:33.000Z</time>
      </trkpt>
      <trkpt lat="47.00369" lon="-1.8516">
        <ele>54</ele>
        <time>2021-02-20T12:02:35.000Z</time>
      </trkpt>
      <trkpt lat="47.00361" lon="-1.85166">
        <ele>54</ele>
        <time>2021-02-20T12:02:37.000Z</time>
      </trkpt>
      <trkpt lat="47.00353" lon="-1.85173">
        <ele>54</ele>
        <time>2021-02-20T12:02:39.000Z</time>
      </trkpt>
      <trkpt lat="47.00345" lon="-1.8518">
        <ele>54</ele>
        <time>2021-02-20T12:02:41.000Z</time>
      </trkpt>
      <trkpt lat="47.00336" lon="-1.85187">
        <ele>54</ele>
        <time>2021-02-20T12:02:43.000Z</time>
      </trkpt>
      <trkpt lat="47.00327" lon="-1.85195">
        <ele>54</ele>
        <time>2021-02-20T12:02:45.000Z</time>
      </trkpt>
      <trkpt lat="47.00318" lon="-1.85203">
        <ele>54</ele>
        <time>2021-02-20T12:02:47.000Z</time>
      </trkpt>
      <trkpt lat="47.00309" lon="-1.8521">
        <ele>54</ele>
        <time>2021-02-20T12:02:49.000Z</time>
      </trkpt>
      <trkpt lat="47.00301" lon="-1.85217">
        <ele>54</ele>
        <time>2021-02-20T12:02:51.000Z</time>
      </trkpt>
      <trkpt lat="47.00293" lon="-1.85224">
        <ele>54</ele>
        <time>2021-02-20T12:02:53.000Z</time>
      </trkpt>
      <trkpt lat="47.00284" lon="-1.85231">
        <ele>54</ele>
        <time>2021-02-20T12:02:55.000Z</time>
      </trkpt>
      <trkpt lat="47.00275" lon="-1.85238">
        <ele>53</ele>
        <time>2021-02-20T12:02:57.000Z</time>
      </trkpt>
      <trkpt lat="47.00267" lon="-1.85246">
        <ele>53</ele>
        <time>2021-02-20T12:02:59.000Z</time>
      </trkpt>
      <trkpt lat="47.00258" lon="-1.85254">
        <ele>53</ele>
        <time>2021-02-20T12:03:01.000Z</time>
      </trkpt>
      <trkpt lat="47.00249" lon="-1.85261">
        <ele>54</ele>
        <time>2021-02-20T12:03:03.000Z</time>
      </trkpt>
      <trkpt lat="47.0024" lon="-1.8527">
        <ele>54</ele>
        <time>2021-02-20T12:03:05.000Z</time>
      </trkpt>
      <trkpt lat="47.00232" lon="-1.85279">
        <ele>54</ele>
        <time>2021-02-20T12:03:07.000Z</time>
      </trkpt>
      <trkpt lat="47.00223" lon="-1.8529">
        <ele>54</ele>
        <time>2021-02-20T12:03:09.000Z</time>
      </trkpt>
      <trkpt lat="47.00216" lon="-1.85302">
        <ele>54</ele>
        <time>2021-02-20T12:03:11.000Z</time>
      </trkpt>
      <trkpt lat="47.00209" lon="-1.85313">
        <ele>54</ele>
        <time>2021-02-20T12:03:13.000Z</time>
      </trkpt>
      <trkpt lat="47.00203" lon="-1.85325">
        <ele>54</ele>
        <time>2021-02-20T12:03:15.000Z</time>
      </trkpt>
      <trkpt lat="47.00197" lon="-1.85337">
        <ele>54</ele>
        <time>2021-02-20T12:03:17.000Z</time>
      </trkpt>
      <trkpt lat="47.00191" lon="-1.8535">
        <ele>54</ele>
        <time>2021-02-20T12:03:19.000Z</time>
      </trkpt>
      <trkpt lat="47.00185" lon="-1.85363">
        <ele>54</ele>
        <time>2021-02-20T12:03:21.000Z</time>
      </trkpt>
      <trkpt lat="47.00179" lon="-1.85376">
        <ele>54</ele>
        <time>2021-02-20T12:03:23.000Z</time>
      </trkpt>
      <trkpt lat="47.00172" lon="-1.85389">
        <ele>54</ele>
        <time>2021-02-20T12:03:25.000Z</time>
      </trkpt>
      <trkpt lat="47.00166" lon="-1.85402">
        <ele>54</ele>
        <time>2021-02-20T12:03:27.000Z</time>
      </trkpt>
      <trkpt lat="47.00159" lon="-1.85414">
        <ele>54</ele>
        <time>2021-02-20T12:03:29.000Z</time>
      </trkpt>
      <trkpt lat="47.00151" lon="-1.85424">
        <ele>54</ele>
        <time>2021-02-20T12:03:31.000Z</time>
      </trkpt>
      <trkpt lat="47.00142" lon="-1.85435">
        <ele>54</ele>
        <time>2021-02-20T12:03:33.000Z</time>
      </trkpt>
      <trkpt lat="47.00133" lon="-1.85444">
        <ele>53</ele>
        <time>2021-02-20T12:03:35.000Z</time>
      </trkpt>
      <trkpt lat="47.00123" lon="-1.8545">
        <ele>53</ele>
        <time>2021-02-20T12:03:37.000Z</time>
      </trkpt>
      <trkpt lat="47.00113" lon="-1.85452">
        <ele>53</ele>
        <time>2021-02-20T12:03:39.000Z</time>
      </trkpt>
      <trkpt lat="47.00103" lon="-1.85449">
        <ele>53</ele>
        <time>2021-02-20T12:03:41.000Z</time>
      </trkpt>
      <trkpt lat="47.00094" lon="-1.85442">
        <ele>53</ele>
        <time>2021-02-20T12:03:43.000Z</time>
      </trkpt>
      <trkpt lat="47.00086" lon="-1.85432">
        <ele>53</ele>
        <time>2021-02-20T12:03:45.000Z</time>
      </trkpt>
      <trkpt lat="47.00079" lon="-1.85422">
        <ele>53</ele>
        <time>2021-02-20T12:03:47.000Z</time>
      </trkpt>
      <trkpt lat="47.00071" lon="-1.85411">
        <ele>53</ele>
        <time>2021-02-20T12:03:49.000Z</time>
      </trkpt>
      <trkpt lat="47.00063" lon="-1.854">
        <ele>53</ele>
        <time>2021-02-20T12:03:51.000Z</time>
      </trkpt>
      <trkpt lat="47.00055" lon="-1.8539">
        <ele>53</ele>
        <time>2021-02-20T12:03:53.000Z</time>
      </trkpt>
      <trkpt lat="47.00046" lon="-1.85381">
        <ele>53</ele>
        <time>2021-02-20T12:03:55.000Z</time>
      </trkpt>
      <trkpt lat="47.00036" lon="-1.85374">
        <ele>53</ele>
        <time>2021-02-20T12:03:57.000Z</time>
      </trkpt>
      <trkpt lat="47.00025" lon="-1.85369">
        <ele>53</ele>
        <time>2021-02-20T12:03:59.000Z</time>
      </trkpt>
      <trkpt lat="47.00014" lon="-1.85368">
        <ele>54</ele>
        <time>2021-02-20T12:04:01.000Z</time>
      </trkpt>
      <trkpt lat="47.00002" lon="-1.85367">
        <ele>53</ele>
        <time>2021-02-20T12:04:03.000Z</time>
      </trkpt>
      <trkpt lat="46.99992" lon="-1.85363">
        <ele>53</ele>
        <time>2021-02-20T12:04:05.000Z</time>
      </trkpt>
      <trkpt lat="46.99982" lon="-1.85353">
        <ele>53</ele>
        <time>2021-02-20T12:04:07.000Z</time>
      </trkpt>
      <trkpt lat="46.99976" lon="-1.8534">
        <ele>52</ele>
        <time>2021-02-20T12:04:09.000Z</time>
      </trkpt>
      <trkpt lat="46.99969" lon="-1.85326">
        <ele>52</ele>
        <time>2021-02-20T12:04:11.000Z</time>
      </trkpt>
      <trkpt lat="46.99963" lon="-1.85314">
        <ele>52</ele>
        <time>2021-02-20T12:04:13.000Z</time>
      </trkpt>
      <trkpt lat="46.99957" lon="-1.85301">
        <ele>52</ele>
        <time>2021-02-20T12:04:15.000Z</time>
      </trkpt>
      <trkpt lat="46.9995" lon="-1.85288">
        <ele>52</ele>
        <time>2021-02-20T12:04:17.000Z</time>
      </trkpt>
      <trkpt lat="46.99944" lon="-1.85275">
        <ele>52</ele>
        <time>2021-02-20T12:04:19.000Z</time>
      </trkpt>
      <trkpt lat="46.99937" lon="-1.85262">
        <ele>52</ele>
        <time>2021-02-20T12:04:21.000Z</time>
      </trkpt>
      <trkpt lat="46.99931" lon="-1.8525">
        <ele>52</ele>
        <time>2021-02-20T12:04:23.000Z</time>
      </trkpt>
      <trkpt lat="46.99926" lon="-1.85234">
        <ele>52</ele>
        <time>2021-02-20T12:04:25.000Z</time>
      </trkpt>
      <trkpt lat="46.99922" lon="-1.85219">
        <ele>51</ele>
        <time>2021-02-20T12:04:27.000Z</time>
      </trkpt>
      <trkpt lat="46.99918" lon="-1.85204">
        <ele>52</ele>
        <time>2021-02-20T12:04:29.000Z</time>
      </trkpt>
      <trkpt lat="46.99915" lon="-1.85189">
        <ele>52</ele>
        <time>2021-02-20T12:04:31.000Z</time>
      </trkpt>
      <trkpt lat="46.99914" lon="-1.85173">
        <ele>51</ele>
        <time>2021-02-20T12:04:33.000Z</time>
      </trkpt>
      <trkpt lat="46.99912" lon="-1.85158">
        <ele>51</ele>
        <time>2021-02-20T12:04:35.000Z</time>
      </trkpt>
      <trkpt lat="46.9991" lon="-1.85143">
        <ele>51</ele>
        <time>2021-02-20T12:04:37.000Z</time>
      </trkpt>
      <trkpt lat="46.99908" lon="-1.85128">
        <ele>51</ele>
        <time>2021-02-20T12:04:39.000Z</time>
      </trkpt>
      <trkpt lat="46.99906" lon="-1.85114">
        <ele>51</ele>
        <time>2021-02-20T12:04:41.000Z</time>
      </trkpt>
      <trkpt lat="46.99905" lon="-1.85099">
        <ele>51</ele>
        <time>2021-02-20T12:04:43.000Z</time>
      </trkpt>
      <trkpt lat="46.99903" lon="-1.85085">
        <ele>51</ele>
        <time>2021-02-20T12:04:45.000Z</time>
      </trkpt>
      <trkpt lat="46.99901" lon="-1.8507">
        <ele>51</ele>
        <time>2021-02-20T12:04:47.000Z</time>
      </trkpt>
      <trkpt lat="46.99901" lon="-1.85056">
        <ele>50</ele>
        <time>2021-02-20T12:04:49.000Z</time>
      </trkpt>
      <trkpt lat="46.999" lon="-1.85041">
        <ele>50</ele>
        <time>2021-02-20T12:04:51.000Z</time>
      </trkpt>
      <trkpt lat="46.999" lon="-1.85027">
        <ele>50</ele>
        <time>2021-02-20T12:04:53.000Z</time>
      </trkpt>
      <trkpt lat="46.99899" lon="-1.85014">
        <ele>50</ele>
        <time>2021-02-20T12:04:55.000Z</time>
      </trkpt>
      <trkpt lat="46.99898" lon="-1.84999">
        <ele>50</ele>
        <time>2021-02-20T12:04:57.000Z</time>
      </trkpt>
      <trkpt lat="46.99897" lon="-1.84984">
        <ele>51</ele>
        <time>2021-02-20T12:04:59.000Z</time>
      </trkpt>
      <trkpt lat="46.99896" lon="-1.84968">
        <ele>51</ele>
        <time>2021-02-20T12:05:01.000Z</time>
      </trkpt>
      <trkpt lat="46.99895" lon="-1.84953">
        <ele>52</ele>
        <time>2021-02-20T12:05:03.000Z</time>
      </trkpt>
      <trkpt lat="46.99894" lon="-1.84938">
        <ele>52</ele>
        <time>2021-02-20T12:05:05.000Z</time>
      </trkpt>
      <trkpt lat="46.99893" lon="-1.84923">
        <ele>52</ele>
        <time>2021-02-20T12:05:07.000Z</time>
      </trkpt>
      <trkpt lat="46.99892" lon="-1.84907">
        <ele>52</ele>
        <time>2021-02-20T12:05:09.000Z</time>
      </trkpt>
      <trkpt lat="46.99892" lon="-1.84892">
        <ele>53</ele>
        <time>2021-02-20T12:05:11.000Z</time>
      </trkpt>
      <trkpt lat="46.9989" lon="-1.84877">
        <ele>53</ele>
        <time>2021-02-20T12:05:13.000Z</time>
      </trkpt>
      <trkpt lat="46.99889" lon="-1.84861">
        <ele>53</ele>
        <time>2021-02-20T12:05:15.000Z</time>
      </trkpt>
      <trkpt lat="46.99886" lon="-1.84845">
        <ele>53</ele>
        <time>2021-02-20T12:05:17.000Z</time>
      </trkpt>
      <trkpt lat="46.99883" lon="-1.84829">
        <ele>54</ele>
        <time>2021-02-20T12:05:19.000Z</time>
      </trkpt>
      <trkpt lat="46.99879" lon="-1.84813">
        <ele>54</ele>
        <time>2021-02-20T12:05:21.000Z</time>
      </trkpt>
      <trkpt lat="46.99875" lon="-1.84798">
        <ele>54</ele>
        <time>2021-02-20T12:05:23.000Z</time>
      </trkpt>
      <trkpt lat="46.9987" lon="-1.84782">
        <ele>54</ele>
        <time>2021-02-20T12:05:25.000Z</time>
      </trkpt>
      <trkpt lat="46.99865" lon="-1.84767">
        <ele>54</ele>
        <time>2021-02-20T12:05:27.000Z</time>
      </trkpt>
      <trkpt lat="46.99859" lon="-1.84752">
        <ele>54</ele>
        <time>2021-02-20T12:05:29.000Z</time>
      </trkpt>
      <trkpt lat="46.99854" lon="-1.84737">
        <ele>54</ele>
        <time>2021-02-20T12:05:31.000Z</time>
      </trkpt>
      <trkpt lat="46.99848" lon="-1.84723">
        <ele>54</ele>
        <time>2021-02-20T12:05:33.000Z</time>
      </trkpt>
      <trkpt lat="46.99842" lon="-1.84707">
        <ele>54</ele>
        <time>2021-02-20T12:05:35.000Z</time>
      </trkpt>
      <trkpt lat="46.99836" lon="-1.84692">
        <ele>54</ele>
        <time>2021-02-20T12:05:37.000Z</time>
      </trkpt>
      <trkpt lat="46.99831" lon="-1.84678">
        <ele>54</ele>
        <time>2021-02-20T12:05:39.000Z</time>
      </trkpt>
      <trkpt lat="46.99826" lon="-1.84665">
        <ele>54</ele>
        <time>2021-02-20T12:05:41.000Z</time>
      </trkpt>
      <trkpt lat="46.99821" lon="-1.84651">
        <ele>53</ele>
        <time>2021-02-20T12:05:43.000Z</time>
      </trkpt>
      <trkpt lat="46.99816" lon="-1.84636">
        <ele>53</ele>
        <time>2021-02-20T12:05:45.000Z</time>
      </trkpt>
      <trkpt lat="46.99812" lon="-1.84621">
        <ele>54</ele>
        <time>2021-02-20T12:05:47.000Z</time>
      </trkpt>
      <trkpt lat="46.99808" lon="-1.84605">
        <ele>54</ele>
        <time>2021-02-20T12:05:49.000Z</time>
      </trkpt>
      <trkpt lat="46.99805" lon="-1.84591">
        <ele>54</ele>
        <time>2021-02-20T12:05:51.000Z</time>
      </trkpt>
      <trkpt lat="46.99801" lon="-1.84576">
        <ele>54</ele>
        <time>2021-02-20T12:05:53.000Z</time>
      </trkpt>
      <trkpt lat="46.99798" lon="-1.8456">
        <ele>53</ele>
        <time>2021-02-20T12:05:55.000Z</time>
      </trkpt>
      <trkpt lat="46.99795" lon="-1.84544">
        <ele>53</ele>
        <time>2021-02-20T12:05:57.000Z</time>
      </trkpt>
      <trkpt lat="46.99792" lon="-1.84528">
        <ele>53</ele>
        <time>2021-02-20T12:05:59.000Z</time>
      </trkpt>
      <trkpt lat="46.9979" lon="-1.84513">
        <ele>53</ele>
        <time>2021-02-20T12:06:01.000Z</time>
      </trkpt>
      <trkpt lat="46.99787" lon="-1.84497">
        <ele>53</ele>
        <time>2021-02-20T12:06:03.000Z</time>
      </trkpt>
      <trkpt lat="46.99785" lon="-1.84481">
        <ele>53</ele>
        <time>2021-02-20T12:06:05.000Z</time>
      </trkpt>
      <trkpt lat="46.99782" lon="-1.84466">
        <ele>53</ele>
        <time>2021-02-20T12:06:07.000Z</time>
      </trkpt>
      <trkpt lat="46.99779" lon="-1.84451">
        <ele>53</ele>
        <time>2021-02-20T12:06:09.000Z</time>
      </trkpt>
      <trkpt lat="46.99776" lon="-1.84436">
        <ele>53</ele>
        <time>2021-02-20T12:06:11.000Z</time>
      </trkpt>
      <trkpt lat="46.99773" lon="-1.8442">
        <ele>53</ele>
        <time>2021-02-20T12:06:13.000Z</time>
      </trkpt>
      <trkpt lat="46.9977" lon="-1.84405">
        <ele>53</ele>
        <time>2021-02-20T12:06:15.000Z</time>
      </trkpt>
      <trkpt lat="46.99767" lon="-1.84389">
        <ele>53</ele>
        <time>2021-02-20T12:06:17.000Z</time>
      </trkpt>
      <trkpt lat="46.99765" lon="-1.84374">
        <ele>53</ele>
        <time>2021-02-20T12:06:19.000Z</time>
      </trkpt>
      <trkpt lat="46.99762" lon="-1.84359">
        <ele>53</ele>
        <time>2021-02-20T12:06:21.000Z</time>
      </trkpt>
      <trkpt lat="46.9976" lon="-1.84343">
        <ele>53</ele>
        <time>2021-02-20T12:06:23.000Z</time>
      </trkpt>
      <trkpt lat="46.99757" lon="-1.84327">
        <ele>53</ele>
        <time>2021-02-20T12:06:25.000Z</time>
      </trkpt>
      <trkpt lat="46.99755" lon="-1.84311">
        <ele>53</ele>
        <time>2021-02-20T12:06:27.000Z</time>
      </trkpt>
      <trkpt lat="46.99754" lon="-1.84295">
        <ele>53</ele>
        <time>2021-02-20T12:06:29.000Z</time>
      </trkpt>
      <trkpt lat="46.99752" lon="-1.84279">
        <ele>53</ele>
        <time>2021-02-20T12:06:31.000Z</time>
      </trkpt>
      <trkpt lat="46.9975" lon="-1.84264">
        <ele>53</ele>
        <time>2021-02-20T12:06:33.000Z</time>
      </trkpt>
      <trkpt lat="46.99749" lon="-1.84248">
        <ele>53</ele>
        <time>2021-02-20T12:06:35.000Z</time>
      </trkpt>
      <trkpt lat="46.99747" lon="-1.84233">
        <ele>53</ele>
        <time>2021-02-20T12:06:37.000Z</time>
      </trkpt>
      <trkpt lat="46.99745" lon="-1.84218">
        <ele>53</ele>
        <time>2021-02-20T12:06:39.000Z</time>
      </trkpt>
      <trkpt lat="46.99742" lon="-1.84202">
        <ele>53</ele>
        <time>2021-02-20T12:06:41.000Z</time>
      </trkpt>
      <trkpt lat="46.99736" lon="-1.84189">
        <ele>53</ele>
        <time>2021-02-20T12:06:43.000Z</time>
      </trkpt>
      <trkpt lat="46.99728" lon="-1.84182">
        <ele>53</ele>
        <time>2021-02-20T12:06:45.000Z</time>
      </trkpt>
      <trkpt lat="46.99719" lon="-1.84177">
        <ele>53</ele>
        <time>2021-02-20T12:06:47.000Z</time>
      </trkpt>
      <trkpt lat="46.99709" lon="-1.84172">
        <ele>53</ele>
        <time>2021-02-20T12:06:49.000Z</time>
      </trkpt>
      <trkpt lat="46.99699" lon="-1.84168">
        <ele>54</ele>
        <time>2021-02-20T12:06:51.000Z</time>
      </trkpt>
      <trkpt lat="46.9969" lon="-1.84161">
        <ele>54</ele>
        <time>2021-02-20T12:06:53.000Z</time>
      </trkpt>
      <trkpt lat="46.99681" lon="-1.84154">
        <ele>54</ele>
        <time>2021-02-20T12:06:55.000Z</time>
      </trkpt>
      <trkpt lat="46.99672" lon="-1.84145">
        <ele>54</ele>
        <time>2021-02-20T12:06:57.000Z</time>
      </trkpt>
      <trkpt lat="46.99664" lon="-1.84136">
        <ele>54</ele>
        <time>2021-02-20T12:06:59.000Z</time>
      </trkpt>
      <trkpt lat="46.99656" lon="-1.84125">
        <ele>54</ele>
        <time>2021-02-20T12:07:01.000Z</time>
      </trkpt>
      <trkpt lat="46.9965" lon="-1.84115">
        <ele>54</ele>
        <time>2021-02-20T12:07:03.000Z</time>
      </trkpt>
      <trkpt lat="46.99643" lon="-1.84104">
        <ele>54</ele>
        <time>2021-02-20T12:07:05.000Z</time>
      </trkpt>
      <trkpt lat="46.99637" lon="-1.84092">
        <ele>54</ele>
        <time>2021-02-20T12:07:07.000Z</time>
      </trkpt>
      <trkpt lat="46.99632" lon="-1.8408">
        <ele>54</ele>
        <time>2021-02-20T12:07:09.000Z</time>
      </trkpt>
      <trkpt lat="46.99627" lon="-1.84067">
        <ele>54</ele>
        <time>2021-02-20T12:07:11.000Z</time>
      </trkpt>
      <trkpt lat="46.99623" lon="-1.84053">
        <ele>54</ele>
        <time>2021-02-20T12:07:13.000Z</time>
      </trkpt>
      <trkpt lat="46.99619" lon="-1.84039">
        <ele>54</ele>
        <time>2021-02-20T12:07:15.000Z</time>
      </trkpt>
      <trkpt lat="46.99617" lon="-1.84024">
        <ele>54</ele>
        <time>2021-02-20T12:07:17.000Z</time>
      </trkpt>
      <trkpt lat="46.99614" lon="-1.84009">
        <ele>54</ele>
        <time>2021-02-20T12:07:19.000Z</time>
      </trkpt>
      <trkpt lat="46.99611" lon="-1.83994">
        <ele>54</ele>
        <time>2021-02-20T12:07:21.000Z</time>
      </trkpt>
      <trkpt lat="46.99609" lon="-1.83979">
        <ele>54</ele>
        <time>2021-02-20T12:07:23.000Z</time>
      </trkpt>
      <trkpt lat="46.99605" lon="-1.83964">
        <ele>53</ele>
        <time>2021-02-20T12:07:25.000Z</time>
      </trkpt>
      <trkpt lat="46.99601" lon="-1.83949">
        <ele>53</ele>
        <time>2021-02-20T12:07:27.000Z</time>
      </trkpt>
      <trkpt lat="46.99595" lon="-1.83937">
        <ele>53</ele>
        <time>2021-02-20T12:07:29.000Z</time>
      </trkpt>
      <trkpt lat="46.99587" lon="-1.83927">
        <ele>53</ele>
        <time>2021-02-20T12:07:31.000Z</time>
      </trkpt>
      <trkpt lat="46.99578" lon="-1.8392">
        <ele>54</ele>
        <time>2021-02-20T12:07:33.000Z</time>
      </trkpt>
      <trkpt lat="46.99568" lon="-1.83913">
        <ele>54</ele>
        <time>2021-02-20T12:07:35.000Z</time>
      </trkpt>
      <trkpt lat="46.99559" lon="-1.83908">
        <ele>54</ele>
        <time>2021-02-20T12:07:37.000Z</time>
      </trkpt>
      <trkpt lat="46.99549" lon="-1.83902">
        <ele>54</ele>
        <time>2021-02-20T12:07:39.000Z</time>
      </trkpt>
      <trkpt lat="46.99539" lon="-1.83897">
        <ele>55</ele>
        <time>2021-02-20T12:07:41.000Z</time>
      </trkpt>
      <trkpt lat="46.9953" lon="-1.83891">
        <ele>55</ele>
        <time>2021-02-20T12:07:43.000Z</time>
      </trkpt>
      <trkpt lat="46.9952" lon="-1.83886">
        <ele>55</ele>
        <time>2021-02-20T12:07:45.000Z</time>
      </trkpt>
      <trkpt lat="46.9951" lon="-1.83879">
        <ele>55</ele>
        <time>2021-02-20T12:07:47.000Z</time>
      </trkpt>
      <trkpt lat="46.995" lon="-1.83873">
        <ele>55</ele>
        <time>2021-02-20T12:07:49.000Z</time>
      </trkpt>
      <trkpt lat="46.99492" lon="-1.83866">
        <ele>55</ele>
        <time>2021-02-20T12:07:51.000Z</time>
      </trkpt>
      <trkpt lat="46.99484" lon="-1.83857">
        <ele>55</ele>
        <time>2021-02-20T12:07:53.000Z</time>
      </trkpt>
      <trkpt lat="46.99477" lon="-1.83845">
        <ele>55</ele>
        <time>2021-02-20T12:07:55.000Z</time>
      </trkpt>
      <trkpt lat="46.9947" lon="-1.83833">
        <ele>55</ele>
        <time>2021-02-20T12:07:57.000Z</time>
      </trkpt>
      <trkpt lat="46.99464" lon="-1.8382">
        <ele>55</ele>
        <time>2021-02-20T12:07:59.000Z</time>
      </trkpt>
      <trkpt lat="46.99459" lon="-1.83807">
        <ele>54</ele>
        <time>2021-02-20T12:08:01.000Z</time>
      </trkpt>
      <trkpt lat="46.99452" lon="-1.83794">
        <ele>55</ele>
        <time>2021-02-20T12:08:03.000Z</time>
      </trkpt>
      <trkpt lat="46.99446" lon="-1.83782">
        <ele>55</ele>
        <time>2021-02-20T12:08:05.000Z</time>
      </trkpt>
      <trkpt lat="46.99436" lon="-1.83774">
        <ele>55</ele>
        <time>2021-02-20T12:08:07.000Z</time>
      </trkpt>
      <trkpt lat="46.99427" lon="-1.83767">
        <ele>55</ele>
        <time>2021-02-20T12:08:09.000Z</time>
      </trkpt>
      <trkpt lat="46.99417" lon="-1.83762">
        <ele>55</ele>
        <time>2021-02-20T12:08:11.000Z</time>
      </trkpt>
      <trkpt lat="46.99409" lon="-1.83756">
        <ele>56</ele>
        <time>2021-02-20T12:08:13.000Z</time>
      </trkpt>
      <trkpt lat="46.99399" lon="-1.8375">
        <ele>56</ele>
        <time>2021-02-20T12:08:15.000Z</time>
      </trkpt>
      <trkpt lat="46.9939" lon="-1.83745">
        <ele>56</ele>
        <time>2021-02-20T12:08:17.000Z</time>
      </trkpt>
      <trkpt lat="46.99381" lon="-1.83739">
        <ele>56</ele>
        <time>2021-02-20T12:08:19.000Z</time>
      </trkpt>
      <trkpt lat="46.99371" lon="-1.83734">
        <ele>56</ele>
        <time>2021-02-20T12:08:21.000Z</time>
      </trkpt>
      <trkpt lat="46.99362" lon="-1.83728">
        <ele>56</ele>
        <time>2021-02-20T12:08:23.000Z</time>
      </trkpt>
      <trkpt lat="46.99353" lon="-1.83724">
        <ele>56</ele>
        <time>2021-02-20T12:08:25.000Z</time>
      </trkpt>
      <trkpt lat="46.99345" lon="-1.83718">
        <ele>56</ele>
        <time>2021-02-20T12:08:27.000Z</time>
      </trkpt>
      <trkpt lat="46.99336" lon="-1.83713">
        <ele>56</ele>
        <time>2021-02-20T12:08:29.000Z</time>
      </trkpt>
      <trkpt lat="46.99327" lon="-1.83708">
        <ele>56</ele>
        <time>2021-02-20T12:08:31.000Z</time>
      </trkpt>
      <trkpt lat="46.99318" lon="-1.83701">
        <ele>56</ele>
        <time>2021-02-20T12:08:33.000Z</time>
      </trkpt>
      <trkpt lat="46.99309" lon="-1.83694">
        <ele>56</ele>
        <time>2021-02-20T12:08:35.000Z</time>
      </trkpt>
      <trkpt lat="46.993" lon="-1.83687">
        <ele>56</ele>
        <time>2021-02-20T12:08:37.000Z</time>
      </trkpt>
      <trkpt lat="46.99291" lon="-1.83679">
        <ele>56</ele>
        <time>2021-02-20T12:08:39.000Z</time>
      </trkpt>
      <trkpt lat="46.99284" lon="-1.83671">
        <ele>56</ele>
        <time>2021-02-20T12:08:41.000Z</time>
      </trkpt>
      <trkpt lat="46.99276" lon="-1.83663">
        <ele>56</ele>
        <time>2021-02-20T12:08:43.000Z</time>
      </trkpt>
      <trkpt lat="46.99268" lon="-1.83653">
        <ele>56</ele>
        <time>2021-02-20T12:08:45.000Z</time>
      </trkpt>
      <trkpt lat="46.99261" lon="-1.83644">
        <ele>56</ele>
        <time>2021-02-20T12:08:47.000Z</time>
      </trkpt>
      <trkpt lat="46.99253" lon="-1.83635">
        <ele>56</ele>
        <time>2021-02-20T12:08:49.000Z</time>
      </trkpt>
      <trkpt lat="46.99245" lon="-1.83625">
        <ele>56</ele>
        <time>2021-02-20T12:08:51.000Z</time>
      </trkpt>
      <trkpt lat="46.99237" lon="-1.83616">
        <ele>56</ele>
        <time>2021-02-20T12:08:53.000Z</time>
      </trkpt>
      <trkpt lat="46.9923" lon="-1.83606">
        <ele>56</ele>
        <time>2021-02-20T12:08:55.000Z</time>
      </trkpt>
      <trkpt lat="46.99222" lon="-1.83596">
        <ele>56</ele>
        <time>2021-02-20T12:08:57.000Z</time>
      </trkpt>
      <trkpt lat="46.99214" lon="-1.83586">
        <ele>56</ele>
        <time>2021-02-20T12:08:59.000Z</time>
      </trkpt>
      <trkpt lat="46.99206" lon="-1.83577">
        <ele>56</ele>
        <time>2021-02-20T12:09:01.000Z</time>
      </trkpt>
      <trkpt lat="46.99199" lon="-1.83568">
        <ele>56</ele>
        <time>2021-02-20T12:09:03.000Z</time>
      </trkpt>
      <trkpt lat="46.99192" lon="-1.8356">
        <ele>56</ele>
        <time>2021-02-20T12:09:05.000Z</time>
      </trkpt>
      <trkpt lat="46.99185" lon="-1.83551">
        <ele>56</ele>
        <time>2021-02-20T12:09:07.000Z</time>
      </trkpt>
      <trkpt lat="46.99178" lon="-1.83541">
        <ele>56</ele>
        <time>2021-02-20T12:09:09.000Z</time>
      </trkpt>
      <trkpt lat="46.9917" lon="-1.83532">
        <ele>56</ele>
        <time>2021-02-20T12:09:11.000Z</time>
      </trkpt>
      <trkpt lat="46.99162" lon="-1.83523">
        <ele>55</ele>
        <time>2021-02-20T12:09:13.000Z</time>
      </trkpt>
      <trkpt lat="46.99152" lon="-1.83518">
        <ele>55</ele>
        <time>2021-02-20T12:09:15.000Z</time>
      </trkpt>
      <trkpt lat="46.99147" lon="-1.83505">
        <ele>54</ele>
        <time>2021-02-20T12:09:17.000Z</time>
      </trkpt>
      <trkpt lat="46.99151" lon="-1.83489">
        <ele>54</ele>
        <time>2021-02-20T12:09:19.000Z</time>
      </trkpt>
      <trkpt lat="46.99156" lon="-1.83474">
        <ele>54</ele>
        <time>2021-02-20T12:09:21.000Z</time>
      </trkpt>
      <trkpt lat="46.99159" lon="-1.83457">
        <ele>54</ele>
        <time>2021-02-20T12:09:23.000Z</time>
      </trkpt>
      <trkpt lat="46.99163" lon="-1.8344">
        <ele>54</ele>
        <time>2021-02-20T12:09:25.000Z</time>
      </trkpt>
      <trkpt lat="46.99167" lon="-1.83423">
        <ele>54</ele>
        <time>2021-02-20T12:09:27.000Z</time>
      </trkpt>
      <trkpt lat="46.99171" lon="-1.83406">
        <ele>54</ele>
        <time>2021-02-20T12:09:29.000Z</time>
      </trkpt>
      <trkpt lat="46.99175" lon="-1.83389">
        <ele>54</ele>
        <time>2021-02-20T12:09:31.000Z</time>
      </trkpt>
      <trkpt lat="46.99179" lon="-1.83371">
        <ele>54</ele>
        <time>2021-02-20T12:09:33.000Z</time>
      </trkpt>
      <trkpt lat="46.99182" lon="-1.83353">
        <ele>54</ele>
        <time>2021-02-20T12:09:35.000Z</time>
      </trkpt>
      <trkpt lat="46.99186" lon="-1.83336">
        <ele>54</ele>
        <time>2021-02-20T12:09:37.000Z</time>
      </trkpt>
      <trkpt lat="46.99189" lon="-1.83319">
        <ele>55</ele>
        <time>2021-02-20T12:09:39.000Z</time>
      </trkpt>
      <trkpt lat="46.99194" lon="-1.83303">
        <ele>55</ele>
        <time>2021-02-20T12:09:41.000Z</time>
      </trkpt>
      <trkpt lat="46.99197" lon="-1.83286">
        <ele>55</ele>
        <time>2021-02-20T12:09:43.000Z</time>
      </trkpt>
      <trkpt lat="46.99201" lon="-1.83268">
        <ele>54</ele>
        <time>2021-02-20T12:09:45.000Z</time>
      </trkpt>
      <trkpt lat="46.99205" lon="-1.8325">
        <ele>55</ele>
        <time>2021-02-20T12:09:47.000Z</time>
      </trkpt>
      <trkpt lat="46.99208" lon="-1.83233">
        <ele>55</ele>
        <time>2021-02-20T12:09:49.000Z</time>
      </trkpt>
      <trkpt lat="46.99212" lon="-1.83215">
        <ele>55</ele>
        <time>2021-02-20T12:09:51.000Z</time>
      </trkpt>
      <trkpt lat="46.99216" lon="-1.83199">
        <ele>55</ele>
        <time>2021-02-20T12:09:53.000Z</time>
      </trkpt>
      <trkpt lat="46.9922" lon="-1.83182">
        <ele>55</ele>
        <time>2021-02-20T12:09:55.000Z</time>
      </trkpt>
      <trkpt lat="46.99224" lon="-1.83166">
        <ele>55</ele>
        <time>2021-02-20T12:09:57.000Z</time>
      </trkpt>
      <trkpt lat="46.99228" lon="-1.8315">
        <ele>55</ele>
        <time>2021-02-20T12:09:59.000Z</time>
      </trkpt>
      <trkpt lat="46.99232" lon="-1.83132">
        <ele>55</ele>
        <time>2021-02-20T12:10:01.000Z</time>
      </trkpt>
      <trkpt lat="46.99236" lon="-1.83115">
        <ele>55</ele>
        <time>2021-02-20T12:10:03.000Z</time>
      </trkpt>
      <trkpt lat="46.99239" lon="-1.83098">
        <ele>55</ele>
        <time>2021-02-20T12:10:05.000Z</time>
      </trkpt>
      <trkpt lat="46.99243" lon="-1.8308">
        <ele>55</ele>
        <time>2021-02-20T12:10:07.000Z</time>
      </trkpt>
      <trkpt lat="46.99246" lon="-1.83063">
        <ele>55</ele>
        <time>2021-02-20T12:10:09.000Z</time>
      </trkpt>
      <trkpt lat="46.9925" lon="-1.83047">
        <ele>55</ele>
        <time>2021-02-20T12:10:11.000Z</time>
      </trkpt>
      <trkpt lat="46.99254" lon="-1.8303">
        <ele>55</ele>
        <time>2021-02-20T12:10:13.000Z</time>
      </trkpt>
      <trkpt lat="46.99258" lon="-1.83013">
        <ele>55</ele>
        <time>2021-02-20T12:10:15.000Z</time>
      </trkpt>
      <trkpt lat="46.99262" lon="-1.82995">
        <ele>56</ele>
        <time>2021-02-20T12:10:17.000Z</time>
      </trkpt>
      <trkpt lat="46.99265" lon="-1.82978">
        <ele>55</ele>
        <time>2021-02-20T12:10:19.000Z</time>
      </trkpt>
      <trkpt lat="46.9927" lon="-1.82961">
        <ele>55</ele>
        <time>2021-02-20T12:10:21.000Z</time>
      </trkpt>
      <trkpt lat="46.99274" lon="-1.82944">
        <ele>56</ele>
        <time>2021-02-20T12:10:23.000Z</time>
      </trkpt>
      <trkpt lat="46.99277" lon="-1.82927">
        <ele>56</ele>
        <time>2021-02-20T12:10:25.000Z</time>
      </trkpt>
      <trkpt lat="46.99282" lon="-1.8291">
        <ele>56</ele>
        <time>2021-02-20T12:10:27.000Z</time>
      </trkpt>
      <trkpt lat="46.99286" lon="-1.82892">
        <ele>56</ele>
        <time>2021-02-20T12:10:29.000Z</time>
      </trkpt>
      <trkpt lat="46.99289" lon="-1.82874">
        <ele>55</ele>
        <time>2021-02-20T12:10:31.000Z</time>
      </trkpt>
      <trkpt lat="46.99293" lon="-1.82856">
        <ele>55</ele>
        <time>2021-02-20T12:10:33.000Z</time>
      </trkpt>
      <trkpt lat="46.99296" lon="-1.82839">
        <ele>55</ele>
        <time>2021-02-20T12:10:35.000Z</time>
      </trkpt>
      <trkpt lat="46.993" lon="-1.82821">
        <ele>55</ele>
        <time>2021-02-20T12:10:37.000Z</time>
      </trkpt>
      <trkpt lat="46.99304" lon="-1.82804">
        <ele>55</ele>
        <time>2021-02-20T12:10:39.000Z</time>
      </trkpt>
      <trkpt lat="46.99308" lon="-1.82787">
        <ele>55</ele>
        <time>2021-02-20T12:10:41.000Z</time>
      </trkpt>
      <trkpt lat="46.99312" lon="-1.8277">
        <ele>55</ele>
        <time>2021-02-20T12:10:43.000Z</time>
      </trkpt>
      <trkpt lat="46.99316" lon="-1.82753">
        <ele>55</ele>
        <time>2021-02-20T12:10:45.000Z</time>
      </trkpt>
      <trkpt lat="46.9932" lon="-1.82736">
        <ele>55</ele>
        <time>2021-02-20T12:10:47.000Z</time>
      </trkpt>
      <trkpt lat="46.99323" lon="-1.82719">
        <ele>54</ele>
        <time>2021-02-20T12:10:49.000Z</time>
      </trkpt>
      <trkpt lat="46.99327" lon="-1.82702">
        <ele>54</ele>
        <time>2021-02-20T12:10:51.000Z</time>
      </trkpt>
      <trkpt lat="46.99331" lon="-1.82686">
        <ele>54</ele>
        <time>2021-02-20T12:10:53.000Z</time>
      </trkpt>
      <trkpt lat="46.99334" lon="-1.82669">
        <ele>54</ele>
        <time>2021-02-20T12:10:55.000Z</time>
      </trkpt>
      <trkpt lat="46.99338" lon="-1.82653">
        <ele>54</ele>
        <time>2021-02-20T12:10:57.000Z</time>
      </trkpt>
      <trkpt lat="46.99342" lon="-1.82635">
        <ele>54</ele>
        <time>2021-02-20T12:10:59.000Z</time>
      </trkpt>
      <trkpt lat="46.99347" lon="-1.82618">
        <ele>54</ele>
        <time>2021-02-20T12:11:01.000Z</time>
      </trkpt>
      <trkpt lat="46.99354" lon="-1.82603">
        <ele>54</ele>
        <time>2021-02-20T12:11:03.000Z</time>
      </trkpt>
      <trkpt lat="46.9936" lon="-1.82589">
        <ele>54</ele>
        <time>2021-02-20T12:11:05.000Z</time>
      </trkpt>
      <trkpt lat="46.99363" lon="-1.82571">
        <ele>54</ele>
        <time>2021-02-20T12:11:07.000Z</time>
      </trkpt>
      <trkpt lat="46.99364" lon="-1.82554">
        <ele>54</ele>
        <time>2021-02-20T12:11:09.000Z</time>
      </trkpt>
      <trkpt lat="46.9936" lon="-1.82537">
        <ele>53</ele>
        <time>2021-02-20T12:11:11.000Z</time>
      </trkpt>
      <trkpt lat="46.99357" lon="-1.82522">
        <ele>53</ele>
        <time>2021-02-20T12:11:13.000Z</time>
      </trkpt>
      <trkpt lat="46.99353" lon="-1.82509">
        <ele>55</ele>
        <time>2021-02-20T12:11:15.000Z</time>
      </trkpt>
      <trkpt lat="46.9935" lon="-1.82496">
        <ele>54</ele>
        <time>2021-02-20T12:11:17.000Z</time>
      </trkpt>
      <trkpt lat="46.99347" lon="-1.82481">
        <ele>54</ele>
        <time>2021-02-20T12:11:19.000Z</time>
      </trkpt>
      <trkpt lat="46.99344" lon="-1.82464">
        <ele>53</ele>
        <time>2021-02-20T12:11:21.000Z</time>
      </trkpt>
      <trkpt lat="46.9934" lon="-1.82448">
        <ele>53</ele>
        <time>2021-02-20T12:11:23.000Z</time>
      </trkpt>
      <trkpt lat="46.99335" lon="-1.82431">
        <ele>54</ele>
        <time>2021-02-20T12:11:25.000Z</time>
      </trkpt>
      <trkpt lat="46.99331" lon="-1.82415">
        <ele>54</ele>
        <time>2021-02-20T12:11:27.000Z</time>
      </trkpt>
      <trkpt lat="46.99328" lon="-1.82398">
        <ele>54</ele>
        <time>2021-02-20T12:11:29.000Z</time>
      </trkpt>
      <trkpt lat="46.99326" lon="-1.82382">
        <ele>54</ele>
        <time>2021-02-20T12:11:31.000Z</time>
      </trkpt>
      <trkpt lat="46.99324" lon="-1.82365">
        <ele>54</ele>
        <time>2021-02-20T12:11:33.000Z</time>
      </trkpt>
      <trkpt lat="46.99322" lon="-1.82349">
        <ele>55</ele>
        <time>2021-02-20T12:11:35.000Z</time>
      </trkpt>
      <trkpt lat="46.99319" lon="-1.82333">
        <ele>55</ele>
        <time>2021-02-20T12:11:37.000Z</time>
      </trkpt>
      <trkpt lat="46.99317" lon="-1.82317">
        <ele>55</ele>
        <time>2021-02-20T12:11:39.000Z</time>
      </trkpt>
      <trkpt lat="46.99314" lon="-1.82301">
        <ele>56</ele>
        <time>2021-02-20T12:11:41.000Z</time>
      </trkpt>
      <trkpt lat="46.9931" lon="-1.82286">
        <ele>56</ele>
        <time>2021-02-20T12:11:43.000Z</time>
      </trkpt>
      <trkpt lat="46.99307" lon="-1.8227">
        <ele>56</ele>
        <time>2021-02-20T12:11:45.000Z</time>
      </trkpt>
      <trkpt lat="46.99303" lon="-1.82255">
        <ele>56</ele>
        <time>2021-02-20T12:11:47.000Z</time>
      </trkpt>
      <trkpt lat="46.99299" lon="-1.8224">
        <ele>55</ele>
        <time>2021-02-20T12:11:49.000Z</time>
      </trkpt>
      <trkpt lat="46.99294" lon="-1.82226">
        <ele>55</ele>
        <time>2021-02-20T12:11:51.000Z</time>
      </trkpt>
      <trkpt lat="46.99287" lon="-1.82216">
        <ele>55</ele>
        <time>2021-02-20T12:11:53.000Z</time>
      </trkpt>
      <trkpt lat="46.99275" lon="-1.82217">
        <ele>55</ele>
        <time>2021-02-20T12:11:55.000Z</time>
      </trkpt>
      <trkpt lat="46.99265" lon="-1.82218">
        <ele>55</ele>
        <time>2021-02-20T12:11:57.000Z</time>
      </trkpt>
      <trkpt lat="46.99254" lon="-1.82219">
        <ele>55</ele>
        <time>2021-02-20T12:11:59.000Z</time>
      </trkpt>
      <trkpt lat="46.99243" lon="-1.82219">
        <ele>55</ele>
        <time>2021-02-20T12:12:01.000Z</time>
      </trkpt>
      <trkpt lat="46.99233" lon="-1.8222">
        <ele>55</ele>
        <time>2021-02-20T12:12:03.000Z</time>
      </trkpt>
      <trkpt lat="46.99222" lon="-1.82218">
        <ele>55</ele>
        <time>2021-02-20T12:12:05.000Z</time>
      </trkpt>
      <trkpt lat="46.9921" lon="-1.82211">
        <ele>55</ele>
        <time>2021-02-20T12:12:07.000Z</time>
      </trkpt>
      <trkpt lat="46.99199" lon="-1.82207">
        <ele>55</ele>
        <time>2021-02-20T12:12:09.000Z</time>
      </trkpt>
      <trkpt lat="46.99188" lon="-1.822">
        <ele>55</ele>
        <time>2021-02-20T12:12:11.000Z</time>
      </trkpt>
      <trkpt lat="46.99177" lon="-1.82196">
        <ele>55</ele>
        <time>2021-02-20T12:12:13.000Z</time>
      </trkpt>
      <trkpt lat="46.99167" lon="-1.82191">
        <ele>56</ele>
        <time>2021-02-20T12:12:15.000Z</time>
      </trkpt>
      <trkpt lat="46.99156" lon="-1.82187">
        <ele>56</ele>
        <time>2021-02-20T12:12:17.000Z</time>
      </trkpt>
      <trkpt lat="46.99145" lon="-1.82184">
        <ele>57</ele>
        <time>2021-02-20T12:12:19.000Z</time>
      </trkpt>
      <trkpt lat="46.99134" lon="-1.82182">
        <ele>58</ele>
        <time>2021-02-20T12:12:21.000Z</time>
      </trkpt>
      <trkpt lat="46.99123" lon="-1.82182">
        <ele>59</ele>
        <time>2021-02-20T12:12:23.000Z</time>
      </trkpt>
      <trkpt lat="46.99113" lon="-1.82185">
        <ele>58</ele>
        <time>2021-02-20T12:12:25.000Z</time>
      </trkpt>
      <trkpt lat="46.99103" lon="-1.82186">
        <ele>57</ele>
        <time>2021-02-20T12:12:27.000Z</time>
      </trkpt>
      <trkpt lat="46.99094" lon="-1.82184">
        <ele>56</ele>
        <time>2021-02-20T12:12:29.000Z</time>
      </trkpt>
      <trkpt lat="46.9909" lon="-1.82168">
        <ele>55</ele>
        <time>2021-02-20T12:12:31.000Z</time>
      </trkpt>
      <trkpt lat="46.99089" lon="-1.82152">
        <ele>55</ele>
        <time>2021-02-20T12:12:33.000Z</time>
      </trkpt>
      <trkpt lat="46.99086" lon="-1.82136">
        <ele>56</ele>
        <time>2021-02-20T12:12:35.000Z</time>
      </trkpt>
      <trkpt lat="46.99084" lon="-1.8212">
        <ele>55</ele>
        <time>2021-02-20T12:12:37.000Z</time>
      </trkpt>
      <trkpt lat="46.99082" lon="-1.82102">
        <ele>55</ele>
        <time>2021-02-20T12:12:39.000Z</time>
      </trkpt>
      <trkpt lat="46.99081" lon="-1.82084">
        <ele>54</ele>
        <time>2021-02-20T12:12:41.000Z</time>
      </trkpt>
      <trkpt lat="46.99082" lon="-1.82068">
        <ele>54</ele>
        <time>2021-02-20T12:12:43.000Z</time>
      </trkpt>
      <trkpt lat="46.99083" lon="-1.8205">
        <ele>54</ele>
        <time>2021-02-20T12:12:45.000Z</time>
      </trkpt>
      <trkpt lat="46.99083" lon="-1.82033">
        <ele>54</ele>
        <time>2021-02-20T12:12:47.000Z</time>
      </trkpt>
      <trkpt lat="46.99085" lon="-1.82016">
        <ele>54</ele>
        <time>2021-02-20T12:12:49.000Z</time>
      </trkpt>
      <trkpt lat="46.99086" lon="-1.82">
        <ele>54</ele>
        <time>2021-02-20T12:12:51.000Z</time>
      </trkpt>
      <trkpt lat="46.99087" lon="-1.81983">
        <ele>54</ele>
        <time>2021-02-20T12:12:53.000Z</time>
      </trkpt>
      <trkpt lat="46.99088" lon="-1.81967">
        <ele>53</ele>
        <time>2021-02-20T12:12:55.000Z</time>
      </trkpt>
      <trkpt lat="46.99089" lon="-1.81949">
        <ele>53</ele>
        <time>2021-02-20T12:12:57.000Z</time>
      </trkpt>
      <trkpt lat="46.99091" lon="-1.81932">
        <ele>53</ele>
        <time>2021-02-20T12:12:59.000Z</time>
      </trkpt>
      <trkpt lat="46.99092" lon="-1.81915">
        <ele>53</ele>
        <time>2021-02-20T12:13:01.000Z</time>
      </trkpt>
      <trkpt lat="46.99093" lon="-1.81897">
        <ele>54</ele>
        <time>2021-02-20T12:13:03.000Z</time>
      </trkpt>
      <trkpt lat="46.99096" lon="-1.8188">
        <ele>54</ele>
        <time>2021-02-20T12:13:05.000Z</time>
      </trkpt>
      <trkpt lat="46.99099" lon="-1.81863">
        <ele>54</ele>
        <time>2021-02-20T12:13:07.000Z</time>
      </trkpt>
      <trkpt lat="46.99104" lon="-1.81846">
        <ele>54</ele>
        <time>2021-02-20T12:13:09.000Z</time>
      </trkpt>
      <trkpt lat="46.99108" lon="-1.8183">
        <ele>54</ele>
        <time>2021-02-20T12:13:11.000Z</time>
      </trkpt>
      <trkpt lat="46.99114" lon="-1.81816">
        <ele>54</ele>
        <time>2021-02-20T12:13:13.000Z</time>
      </trkpt>
      <trkpt lat="46.99122" lon="-1.81803">
        <ele>54</ele>
        <time>2021-02-20T12:13:15.000Z</time>
      </trkpt>
      <trkpt lat="46.99131" lon="-1.81792">
        <ele>54</ele>
        <time>2021-02-20T12:13:17.000Z</time>
      </trkpt>
      <trkpt lat="46.9914" lon="-1.81779">
        <ele>54</ele>
        <time>2021-02-20T12:13:19.000Z</time>
      </trkpt>
      <trkpt lat="46.99148" lon="-1.81768">
        <ele>54</ele>
        <time>2021-02-20T12:13:21.000Z</time>
      </trkpt>
      <trkpt lat="46.99157" lon="-1.81757">
        <ele>54</ele>
        <time>2021-02-20T12:13:23.000Z</time>
      </trkpt>
      <trkpt lat="46.99166" lon="-1.81747">
        <ele>54</ele>
        <time>2021-02-20T12:13:25.000Z</time>
      </trkpt>
      <trkpt lat="46.99179" lon="-1.81732">
        <ele>54</ele>
        <time>2021-02-20T12:13:28.000Z</time>
      </trkpt>
      <trkpt lat="46.99187" lon="-1.8172">
        <ele>54</ele>
        <time>2021-02-20T12:13:30.000Z</time>
      </trkpt>
      <trkpt lat="46.99189" lon="-1.81707">
        <ele>55</ele>
        <time>2021-02-20T12:13:32.000Z</time>
      </trkpt>
      <trkpt lat="46.99178" lon="-1.81697">
        <ele>55</ele>
        <time>2021-02-20T12:13:34.000Z</time>
      </trkpt>
      <trkpt lat="46.99169" lon="-1.81687">
        <ele>55</ele>
        <time>2021-02-20T12:13:36.000Z</time>
      </trkpt>
      <trkpt lat="46.99155" lon="-1.81673">
        <ele>55</ele>
        <time>2021-02-20T12:13:39.000Z</time>
      </trkpt>
      <trkpt lat="46.99142" lon="-1.81658">
        <ele>55</ele>
        <time>2021-02-20T12:13:42.000Z</time>
      </trkpt>
      <trkpt lat="46.99134" lon="-1.81648">
        <ele>55</ele>
        <time>2021-02-20T12:13:44.000Z</time>
      </trkpt>
      <trkpt lat="46.99124" lon="-1.81638">
        <ele>55</ele>
        <time>2021-02-20T12:13:46.000Z</time>
      </trkpt>
      <trkpt lat="46.99115" lon="-1.81628">
        <ele>55</ele>
        <time>2021-02-20T12:13:48.000Z</time>
      </trkpt>
      <trkpt lat="46.99107" lon="-1.81617">
        <ele>55</ele>
        <time>2021-02-20T12:13:50.000Z</time>
      </trkpt>
      <trkpt lat="46.99105" lon="-1.81595">
        <ele>55</ele>
        <time>2021-02-20T12:13:53.000Z</time>
      </trkpt>
      <trkpt lat="46.99115" lon="-1.81585">
        <ele>55</ele>
        <time>2021-02-20T12:13:55.000Z</time>
      </trkpt>
      <trkpt lat="46.99127" lon="-1.81586">
        <ele>55</ele>
        <time>2021-02-20T12:13:57.000Z</time>
      </trkpt>
      <trkpt lat="46.9914" lon="-1.81588">
        <ele>55</ele>
        <time>2021-02-20T12:13:59.000Z</time>
      </trkpt>
      <trkpt lat="46.99152" lon="-1.81591">
        <ele>55</ele>
        <time>2021-02-20T12:14:01.000Z</time>
      </trkpt>
      <trkpt lat="46.99165" lon="-1.81592">
        <ele>55</ele>
        <time>2021-02-20T12:14:03.000Z</time>
      </trkpt>
      <trkpt lat="46.99177" lon="-1.81593">
        <ele>55</ele>
        <time>2021-02-20T12:14:05.000Z</time>
      </trkpt>
      <trkpt lat="46.9919" lon="-1.81595">
        <ele>55</ele>
        <time>2021-02-20T12:14:07.000Z</time>
      </trkpt>
      <trkpt lat="46.99201" lon="-1.81596">
        <ele>55</ele>
        <time>2021-02-20T12:14:09.000Z</time>
      </trkpt>
      <trkpt lat="46.99214" lon="-1.81598">
        <ele>55</ele>
        <time>2021-02-20T12:14:11.000Z</time>
      </trkpt>
      <trkpt lat="46.99227" lon="-1.816">
        <ele>55</ele>
        <time>2021-02-20T12:14:13.000Z</time>
      </trkpt>
      <trkpt lat="46.99239" lon="-1.81601">
        <ele>55</ele>
        <time>2021-02-20T12:14:15.000Z</time>
      </trkpt>
      <trkpt lat="46.99252" lon="-1.81598">
        <ele>55</ele>
        <time>2021-02-20T12:14:17.000Z</time>
      </trkpt>
      <trkpt lat="46.99255" lon="-1.81581">
        <ele>56</ele>
        <time>2021-02-20T12:14:19.000Z</time>
      </trkpt>
      <trkpt lat="46.99253" lon="-1.81563">
        <ele>56</ele>
        <time>2021-02-20T12:14:21.000Z</time>
      </trkpt>
      <trkpt lat="46.99251" lon="-1.81546">
        <ele>57</ele>
        <time>2021-02-20T12:14:23.000Z</time>
      </trkpt>
      <trkpt lat="46.99248" lon="-1.81527">
        <ele>56</ele>
        <time>2021-02-20T12:14:25.000Z</time>
      </trkpt>
      <trkpt lat="46.99246" lon="-1.81509">
        <ele>57</ele>
        <time>2021-02-20T12:14:27.000Z</time>
      </trkpt>
      <trkpt lat="46.99243" lon="-1.81489">
        <ele>57</ele>
        <time>2021-02-20T12:14:29.000Z</time>
      </trkpt>
      <trkpt lat="46.9924" lon="-1.81471">
        <ele>57</ele>
        <time>2021-02-20T12:14:31.000Z</time>
      </trkpt>
      <trkpt lat="46.99237" lon="-1.81453">
        <ele>57</ele>
        <time>2021-02-20T12:14:33.000Z</time>
      </trkpt>
      <trkpt lat="46.99235" lon="-1.81435">
        <ele>57</ele>
        <time>2021-02-20T12:14:35.000Z</time>
      </trkpt>
      <trkpt lat="46.99232" lon="-1.81415">
        <ele>57</ele>
        <time>2021-02-20T12:14:37.000Z</time>
      </trkpt>
      <trkpt lat="46.99229" lon="-1.81397">
        <ele>57</ele>
        <time>2021-02-20T12:14:39.000Z</time>
      </trkpt>
      <trkpt lat="46.99227" lon="-1.81378">
        <ele>58</ele>
        <time>2021-02-20T12:14:41.000Z</time>
      </trkpt>
      <trkpt lat="46.99225" lon="-1.8136">
        <ele>58</ele>
        <time>2021-02-20T12:14:43.000Z</time>
      </trkpt>
      <trkpt lat="46.99223" lon="-1.81341">
        <ele>57</ele>
        <time>2021-02-20T12:14:45.000Z</time>
      </trkpt>
      <trkpt lat="46.99219" lon="-1.81324">
        <ele>57</ele>
        <time>2021-02-20T12:14:47.000Z</time>
      </trkpt>
      <trkpt lat="46.99217" lon="-1.81306">
        <ele>57</ele>
        <time>2021-02-20T12:14:49.000Z</time>
      </trkpt>
      <trkpt lat="46.99215" lon="-1.81288">
        <ele>57</ele>
        <time>2021-02-20T12:14:51.000Z</time>
      </trkpt>
      <trkpt lat="46.99213" lon="-1.8127">
        <ele>57</ele>
        <time>2021-02-20T12:14:53.000Z</time>
      </trkpt>
      <trkpt lat="46.99211" lon="-1.81252">
        <ele>57</ele>
        <time>2021-02-20T12:14:55.000Z</time>
      </trkpt>
      <trkpt lat="46.99209" lon="-1.81235">
        <ele>58</ele>
        <time>2021-02-20T12:14:57.000Z</time>
      </trkpt>
      <trkpt lat="46.99206" lon="-1.81218">
        <ele>58</ele>
        <time>2021-02-20T12:14:59.000Z</time>
      </trkpt>
      <trkpt lat="46.99203" lon="-1.812">
        <ele>57</ele>
        <time>2021-02-20T12:15:01.000Z</time>
      </trkpt>
      <trkpt lat="46.99201" lon="-1.81182">
        <ele>57</ele>
        <time>2021-02-20T12:15:03.000Z</time>
      </trkpt>
      <trkpt lat="46.99198" lon="-1.81162">
        <ele>56</ele>
        <time>2021-02-20T12:15:05.000Z</time>
      </trkpt>
      <trkpt lat="46.99194" lon="-1.81132">
        <ele>55</ele>
        <time>2021-02-20T12:15:08.000Z</time>
      </trkpt>
      <trkpt lat="46.99191" lon="-1.81114">
        <ele>55</ele>
        <time>2021-02-20T12:15:10.000Z</time>
      </trkpt>
      <trkpt lat="46.99189" lon="-1.81096">
        <ele>55</ele>
        <time>2021-02-20T12:15:12.000Z</time>
      </trkpt>
      <trkpt lat="46.99186" lon="-1.81079">
        <ele>55</ele>
        <time>2021-02-20T12:15:14.000Z</time>
      </trkpt>
      <trkpt lat="46.99184" lon="-1.81061">
        <ele>55</ele>
        <time>2021-02-20T12:15:16.000Z</time>
      </trkpt>
      <trkpt lat="46.99182" lon="-1.81044">
        <ele>55</ele>
        <time>2021-02-20T12:15:18.000Z</time>
      </trkpt>
      <trkpt lat="46.99179" lon="-1.81026">
        <ele>55</ele>
        <time>2021-02-20T12:15:20.000Z</time>
      </trkpt>
      <trkpt lat="46.99177" lon="-1.81008">
        <ele>54</ele>
        <time>2021-02-20T12:15:22.000Z</time>
      </trkpt>
      <trkpt lat="46.99174" lon="-1.8099">
        <ele>54</ele>
        <time>2021-02-20T12:15:24.000Z</time>
      </trkpt>
      <trkpt lat="46.99172" lon="-1.80973">
        <ele>55</ele>
        <time>2021-02-20T12:15:26.000Z</time>
      </trkpt>
      <trkpt lat="46.9917" lon="-1.80957">
        <ele>55</ele>
        <time>2021-02-20T12:15:28.000Z</time>
      </trkpt>
      <trkpt lat="46.99167" lon="-1.80939">
        <ele>55</ele>
        <time>2021-02-20T12:15:30.000Z</time>
      </trkpt>
      <trkpt lat="46.99165" lon="-1.80923">
        <ele>54</ele>
        <time>2021-02-20T12:15:32.000Z</time>
      </trkpt>
      <trkpt lat="46.99164" lon="-1.80906">
        <ele>54</ele>
        <time>2021-02-20T12:15:34.000Z</time>
      </trkpt>
      <trkpt lat="46.99171" lon="-1.80893">
        <ele>53</ele>
        <time>2021-02-20T12:15:36.000Z</time>
      </trkpt>
      <trkpt lat="46.99183" lon="-1.80883">
        <ele>53</ele>
        <time>2021-02-20T12:15:38.000Z</time>
      </trkpt>
      <trkpt lat="46.99195" lon="-1.80874">
        <ele>53</ele>
        <time>2021-02-20T12:15:40.000Z</time>
      </trkpt>
      <trkpt lat="46.99208" lon="-1.80865">
        <ele>54</ele>
        <time>2021-02-20T12:15:42.000Z</time>
      </trkpt>
      <trkpt lat="46.99221" lon="-1.80856">
        <ele>53</ele>
        <time>2021-02-20T12:15:44.000Z</time>
      </trkpt>
      <trkpt lat="46.99234" lon="-1.80848">
        <ele>53</ele>
        <time>2021-02-20T12:15:46.000Z</time>
      </trkpt>
      <trkpt lat="46.99247" lon="-1.8084">
        <ele>53</ele>
        <time>2021-02-20T12:15:48.000Z</time>
      </trkpt>
      <trkpt lat="46.99261" lon="-1.80832">
        <ele>53</ele>
        <time>2021-02-20T12:15:50.000Z</time>
      </trkpt>
      <trkpt lat="46.99274" lon="-1.80823">
        <ele>53</ele>
        <time>2021-02-20T12:15:52.000Z</time>
      </trkpt>
      <trkpt lat="46.99288" lon="-1.80815">
        <ele>54</ele>
        <time>2021-02-20T12:15:54.000Z</time>
      </trkpt>
      <trkpt lat="46.99301" lon="-1.80806">
        <ele>54</ele>
        <time>2021-02-20T12:15:56.000Z</time>
      </trkpt>
      <trkpt lat="46.99314" lon="-1.80797">
        <ele>54</ele>
        <time>2021-02-20T12:15:58.000Z</time>
      </trkpt>
      <trkpt lat="46.99326" lon="-1.8079">
        <ele>55</ele>
        <time>2021-02-20T12:16:00.000Z</time>
      </trkpt>
      <trkpt lat="46.99339" lon="-1.80782">
        <ele>54</ele>
        <time>2021-02-20T12:16:02.000Z</time>
      </trkpt>
      <trkpt lat="46.99351" lon="-1.80775">
        <ele>54</ele>
        <time>2021-02-20T12:16:04.000Z</time>
      </trkpt>
      <trkpt lat="46.99363" lon="-1.80767">
        <ele>54</ele>
        <time>2021-02-20T12:16:06.000Z</time>
      </trkpt>
      <trkpt lat="46.99376" lon="-1.80759">
        <ele>54</ele>
        <time>2021-02-20T12:16:08.000Z</time>
      </trkpt>
      <trkpt lat="46.99389" lon="-1.80751">
        <ele>54</ele>
        <time>2021-02-20T12:16:10.000Z</time>
      </trkpt>
      <trkpt lat="46.99402" lon="-1.80742">
        <ele>54</ele>
        <time>2021-02-20T12:16:12.000Z</time>
      </trkpt>
      <trkpt lat="46.99415" lon="-1.80733">
        <ele>54</ele>
        <time>2021-02-20T12:16:14.000Z</time>
      </trkpt>
      <trkpt lat="46.99429" lon="-1.80724">
        <ele>54</ele>
        <time>2021-02-20T12:16:16.000Z</time>
      </trkpt>
      <trkpt lat="46.99441" lon="-1.80716">
        <ele>53</ele>
        <time>2021-02-20T12:16:18.000Z</time>
      </trkpt>
      <trkpt lat="46.99454" lon="-1.80708">
        <ele>54</ele>
        <time>2021-02-20T12:16:20.000Z</time>
      </trkpt>
      <trkpt lat="46.99466" lon="-1.80701">
        <ele>54</ele>
        <time>2021-02-20T12:16:22.000Z</time>
      </trkpt>
      <trkpt lat="46.99475" lon="-1.8069">
        <ele>54</ele>
        <time>2021-02-20T12:16:24.000Z</time>
      </trkpt>
      <trkpt lat="46.99482" lon="-1.80674">
        <ele>55</ele>
        <time>2021-02-20T12:16:26.000Z</time>
      </trkpt>
      <trkpt lat="46.99492" lon="-1.8066">
        <ele>54</ele>
        <time>2021-02-20T12:16:28.000Z</time>
      </trkpt>
      <trkpt lat="46.99506" lon="-1.80653">
        <ele>54</ele>
        <time>2021-02-20T12:16:30.000Z</time>
      </trkpt>
      <trkpt lat="46.9952" lon="-1.80644">
        <ele>54</ele>
        <time>2021-02-20T12:16:32.000Z</time>
      </trkpt>
      <trkpt lat="46.99533" lon="-1.8063">
        <ele>53</ele>
        <time>2021-02-20T12:16:34.000Z</time>
      </trkpt>
      <trkpt lat="46.99545" lon="-1.80616">
        <ele>53</ele>
        <time>2021-02-20T12:16:36.000Z</time>
      </trkpt>
      <trkpt lat="46.99557" lon="-1.80601">
        <ele>53</ele>
        <time>2021-02-20T12:16:38.000Z</time>
      </trkpt>
      <trkpt lat="46.99568" lon="-1.80587">
        <ele>53</ele>
        <time>2021-02-20T12:16:40.000Z</time>
      </trkpt>
      <trkpt lat="46.99579" lon="-1.80573">
        <ele>53</ele>
        <time>2021-02-20T12:16:42.000Z</time>
      </trkpt>
      <trkpt lat="46.9959" lon="-1.80558">
        <ele>53</ele>
        <time>2021-02-20T12:16:44.000Z</time>
      </trkpt>
      <trkpt lat="46.99601" lon="-1.80544">
        <ele>53</ele>
        <time>2021-02-20T12:16:46.000Z</time>
      </trkpt>
      <trkpt lat="46.99613" lon="-1.80529">
        <ele>53</ele>
        <time>2021-02-20T12:16:48.000Z</time>
      </trkpt>
      <trkpt lat="46.99624" lon="-1.80514">
        <ele>53</ele>
        <time>2021-02-20T12:16:50.000Z</time>
      </trkpt>
      <trkpt lat="46.99636" lon="-1.805">
        <ele>53</ele>
        <time>2021-02-20T12:16:52.000Z</time>
      </trkpt>
      <trkpt lat="46.99647" lon="-1.80485">
        <ele>53</ele>
        <time>2021-02-20T12:16:54.000Z</time>
      </trkpt>
      <trkpt lat="46.99658" lon="-1.8047">
        <ele>53</ele>
        <time>2021-02-20T12:16:56.000Z</time>
      </trkpt>
      <trkpt lat="46.99669" lon="-1.80456">
        <ele>52</ele>
        <time>2021-02-20T12:16:58.000Z</time>
      </trkpt>
      <trkpt lat="46.99681" lon="-1.80441">
        <ele>52</ele>
        <time>2021-02-20T12:17:00.000Z</time>
      </trkpt>
      <trkpt lat="46.99692" lon="-1.80427">
        <ele>53</ele>
        <time>2021-02-20T12:17:02.000Z</time>
      </trkpt>
      <trkpt lat="46.99703" lon="-1.80413">
        <ele>53</ele>
        <time>2021-02-20T12:17:04.000Z</time>
      </trkpt>
      <trkpt lat="46.99713" lon="-1.80398">
        <ele>52</ele>
        <time>2021-02-20T12:17:06.000Z</time>
      </trkpt>
      <trkpt lat="46.99725" lon="-1.80384">
        <ele>53</ele>
        <time>2021-02-20T12:17:08.000Z</time>
      </trkpt>
      <trkpt lat="46.99736" lon="-1.8037">
        <ele>52</ele>
        <time>2021-02-20T12:17:10.000Z</time>
      </trkpt>
      <trkpt lat="46.99747" lon="-1.80356">
        <ele>53</ele>
        <time>2021-02-20T12:17:12.000Z</time>
      </trkpt>
      <trkpt lat="46.99758" lon="-1.80341">
        <ele>52</ele>
        <time>2021-02-20T12:17:14.000Z</time>
      </trkpt>
      <trkpt lat="46.9977" lon="-1.80326">
        <ele>53</ele>
        <time>2021-02-20T12:17:16.000Z</time>
      </trkpt>
      <trkpt lat="46.99781" lon="-1.80312">
        <ele>53</ele>
        <time>2021-02-20T12:17:18.000Z</time>
      </trkpt>
      <trkpt lat="46.99792" lon="-1.80297">
        <ele>53</ele>
        <time>2021-02-20T12:17:20.000Z</time>
      </trkpt>
      <trkpt lat="46.99803" lon="-1.80284">
        <ele>53</ele>
        <time>2021-02-20T12:17:22.000Z</time>
      </trkpt>
      <trkpt lat="46.99813" lon="-1.80271">
        <ele>53</ele>
        <time>2021-02-20T12:17:24.000Z</time>
      </trkpt>
      <trkpt lat="46.99823" lon="-1.80257">
        <ele>53</ele>
        <time>2021-02-20T12:17:26.000Z</time>
      </trkpt>
      <trkpt lat="46.99833" lon="-1.80243">
        <ele>53</ele>
        <time>2021-02-20T12:17:28.000Z</time>
      </trkpt>
      <trkpt lat="46.99843" lon="-1.80229">
        <ele>53</ele>
        <time>2021-02-20T12:17:30.000Z</time>
      </trkpt>
      <trkpt lat="46.99852" lon="-1.80214">
        <ele>53</ele>
        <time>2021-02-20T12:17:32.000Z</time>
      </trkpt>
      <trkpt lat="46.9986" lon="-1.80198">
        <ele>53</ele>
        <time>2021-02-20T12:17:34.000Z</time>
      </trkpt>
      <trkpt lat="46.99868" lon="-1.80183">
        <ele>54</ele>
        <time>2021-02-20T12:17:36.000Z</time>
      </trkpt>
      <trkpt lat="46.99876" lon="-1.80167">
        <ele>54</ele>
        <time>2021-02-20T12:17:38.000Z</time>
      </trkpt>
      <trkpt lat="46.99884" lon="-1.80151">
        <ele>54</ele>
        <time>2021-02-20T12:17:40.000Z</time>
      </trkpt>
      <trkpt lat="46.99891" lon="-1.80136">
        <ele>53</ele>
        <time>2021-02-20T12:17:42.000Z</time>
      </trkpt>
      <trkpt lat="46.99898" lon="-1.8012">
        <ele>53</ele>
        <time>2021-02-20T12:17:44.000Z</time>
      </trkpt>
      <trkpt lat="46.99906" lon="-1.80104">
        <ele>53</ele>
        <time>2021-02-20T12:17:46.000Z</time>
      </trkpt>
      <trkpt lat="46.99913" lon="-1.80089">
        <ele>53</ele>
        <time>2021-02-20T12:17:48.000Z</time>
      </trkpt>
      <trkpt lat="46.9992" lon="-1.80073">
        <ele>53</ele>
        <time>2021-02-20T12:17:50.000Z</time>
      </trkpt>
      <trkpt lat="46.99928" lon="-1.80057">
        <ele>54</ele>
        <time>2021-02-20T12:17:52.000Z</time>
      </trkpt>
      <trkpt lat="46.99935" lon="-1.80041">
        <ele>54</ele>
        <time>2021-02-20T12:17:54.000Z</time>
      </trkpt>
      <trkpt lat="46.99943" lon="-1.80027">
        <ele>54</ele>
        <time>2021-02-20T12:17:56.000Z</time>
      </trkpt>
      <trkpt lat="46.99952" lon="-1.80013">
        <ele>54</ele>
        <time>2021-02-20T12:17:58.000Z</time>
      </trkpt>
      <trkpt lat="46.99962" lon="-1.8">
        <ele>54</ele>
        <time>2021-02-20T12:18:00.000Z</time>
      </trkpt>
      <trkpt lat="46.99973" lon="-1.7999">
        <ele>54</ele>
        <time>2021-02-20T12:18:02.000Z</time>
      </trkpt>
      <trkpt lat="46.99983" lon="-1.7998">
        <ele>54</ele>
        <time>2021-02-20T12:18:04.000Z</time>
      </trkpt>
      <trkpt lat="46.99995" lon="-1.79971">
        <ele>54</ele>
        <time>2021-02-20T12:18:06.000Z</time>
      </trkpt>
      <trkpt lat="47.00006" lon="-1.79962">
        <ele>54</ele>
        <time>2021-02-20T12:18:08.000Z</time>
      </trkpt>
      <trkpt lat="47.00018" lon="-1.79954">
        <ele>54</ele>
        <time>2021-02-20T12:18:10.000Z</time>
      </trkpt>
      <trkpt lat="47.00029" lon="-1.79946">
        <ele>54</ele>
        <time>2021-02-20T12:18:12.000Z</time>
      </trkpt>
      <trkpt lat="47.00041" lon="-1.79937">
        <ele>54</ele>
        <time>2021-02-20T12:18:14.000Z</time>
      </trkpt>
      <trkpt lat="47.00052" lon="-1.79928">
        <ele>54</ele>
        <time>2021-02-20T12:18:16.000Z</time>
      </trkpt>
      <trkpt lat="47.00063" lon="-1.7992">
        <ele>53</ele>
        <time>2021-02-20T12:18:18.000Z</time>
      </trkpt>
      <trkpt lat="47.00074" lon="-1.79911">
        <ele>53</ele>
        <time>2021-02-20T12:18:20.000Z</time>
      </trkpt>
      <trkpt lat="47.00085" lon="-1.79902">
        <ele>53</ele>
        <time>2021-02-20T12:18:22.000Z</time>
      </trkpt>
      <trkpt lat="47.00096" lon="-1.79892">
        <ele>53</ele>
        <time>2021-02-20T12:18:24.000Z</time>
      </trkpt>
      <trkpt lat="47.00106" lon="-1.79882">
        <ele>53</ele>
        <time>2021-02-20T12:18:26.000Z</time>
      </trkpt>
      <trkpt lat="47.00115" lon="-1.79869">
        <ele>53</ele>
        <time>2021-02-20T12:18:28.000Z</time>
      </trkpt>
      <trkpt lat="47.00124" lon="-1.79855">
        <ele>53</ele>
        <time>2021-02-20T12:18:30.000Z</time>
      </trkpt>
      <trkpt lat="47.00132" lon="-1.7984">
        <ele>53</ele>
        <time>2021-02-20T12:18:32.000Z</time>
      </trkpt>
      <trkpt lat="47.00139" lon="-1.79824">
        <ele>53</ele>
        <time>2021-02-20T12:18:34.000Z</time>
      </trkpt>
      <trkpt lat="47.00145" lon="-1.79807">
        <ele>53</ele>
        <time>2021-02-20T12:18:36.000Z</time>
      </trkpt>
      <trkpt lat="47.0015" lon="-1.7979">
        <ele>53</ele>
        <time>2021-02-20T12:18:38.000Z</time>
      </trkpt>
      <trkpt lat="47.00156" lon="-1.79772">
        <ele>53</ele>
        <time>2021-02-20T12:18:40.000Z</time>
      </trkpt>
      <trkpt lat="47.00161" lon="-1.79755">
        <ele>53</ele>
        <time>2021-02-20T12:18:42.000Z</time>
      </trkpt>
      <trkpt lat="47.00166" lon="-1.79738">
        <ele>54</ele>
        <time>2021-02-20T12:18:44.000Z</time>
      </trkpt>
      <trkpt lat="47.00172" lon="-1.79721">
        <ele>54</ele>
        <time>2021-02-20T12:18:46.000Z</time>
      </trkpt>
      <trkpt lat="47.00178" lon="-1.79703">
        <ele>54</ele>
        <time>2021-02-20T12:18:48.000Z</time>
      </trkpt>
      <trkpt lat="47.00183" lon="-1.79686">
        <ele>55</ele>
        <time>2021-02-20T12:18:50.000Z</time>
      </trkpt>
      <trkpt lat="47.00188" lon="-1.79668">
        <ele>55</ele>
        <time>2021-02-20T12:18:52.000Z</time>
      </trkpt>
      <trkpt lat="47.00193" lon="-1.79651">
        <ele>55</ele>
        <time>2021-02-20T12:18:54.000Z</time>
      </trkpt>
      <trkpt lat="47.00199" lon="-1.79634">
        <ele>55</ele>
        <time>2021-02-20T12:18:56.000Z</time>
      </trkpt>
      <trkpt lat="47.00203" lon="-1.79616">
        <ele>54</ele>
        <time>2021-02-20T12:18:58.000Z</time>
      </trkpt>
      <trkpt lat="47.00209" lon="-1.79598">
        <ele>54</ele>
        <time>2021-02-20T12:19:00.000Z</time>
      </trkpt>
      <trkpt lat="47.00214" lon="-1.79581">
        <ele>54</ele>
        <time>2021-02-20T12:19:02.000Z</time>
      </trkpt>
      <trkpt lat="47.00219" lon="-1.79563">
        <ele>54</ele>
        <time>2021-02-20T12:19:04.000Z</time>
      </trkpt>
      <trkpt lat="47.00224" lon="-1.79546">
        <ele>54</ele>
        <time>2021-02-20T12:19:06.000Z</time>
      </trkpt>
      <trkpt lat="47.00229" lon="-1.7953">
        <ele>54</ele>
        <time>2021-02-20T12:19:08.000Z</time>
      </trkpt>
      <trkpt lat="47.00234" lon="-1.79513">
        <ele>54</ele>
        <time>2021-02-20T12:19:10.000Z</time>
      </trkpt>
      <trkpt lat="47.00238" lon="-1.79496">
        <ele>54</ele>
        <time>2021-02-20T12:19:12.000Z</time>
      </trkpt>
      <trkpt lat="47.00243" lon="-1.79479">
        <ele>54</ele>
        <time>2021-02-20T12:19:14.000Z</time>
      </trkpt>
      <trkpt lat="47.00249" lon="-1.79462">
        <ele>54</ele>
        <time>2021-02-20T12:19:16.000Z</time>
      </trkpt>
      <trkpt lat="47.00254" lon="-1.79446">
        <ele>54</ele>
        <time>2021-02-20T12:19:18.000Z</time>
      </trkpt>
      <trkpt lat="47.00259" lon="-1.79429">
        <ele>53</ele>
        <time>2021-02-20T12:19:20.000Z</time>
      </trkpt>
      <trkpt lat="47.00264" lon="-1.79412">
        <ele>53</ele>
        <time>2021-02-20T12:19:22.000Z</time>
      </trkpt>
      <trkpt lat="47.00269" lon="-1.79396">
        <ele>53</ele>
        <time>2021-02-20T12:19:24.000Z</time>
      </trkpt>
      <trkpt lat="47.00274" lon="-1.79379">
        <ele>54</ele>
        <time>2021-02-20T12:19:26.000Z</time>
      </trkpt>
      <trkpt lat="47.00279" lon="-1.79361">
        <ele>53</ele>
        <time>2021-02-20T12:19:28.000Z</time>
      </trkpt>
      <trkpt lat="47.00283" lon="-1.79344">
        <ele>54</ele>
        <time>2021-02-20T12:19:30.000Z</time>
      </trkpt>
      <trkpt lat="47.00286" lon="-1.79326">
        <ele>53</ele>
        <time>2021-02-20T12:19:32.000Z</time>
      </trkpt>
      <trkpt lat="47.00289" lon="-1.79308">
        <ele>54</ele>
        <time>2021-02-20T12:19:34.000Z</time>
      </trkpt>
      <trkpt lat="47.00292" lon="-1.7929">
        <ele>54</ele>
        <time>2021-02-20T12:19:36.000Z</time>
      </trkpt>
      <trkpt lat="47.00294" lon="-1.79272">
        <ele>54</ele>
        <time>2021-02-20T12:19:38.000Z</time>
      </trkpt>
      <trkpt lat="47.00297" lon="-1.79254">
        <ele>54</ele>
        <time>2021-02-20T12:19:40.000Z</time>
      </trkpt>
      <trkpt lat="47.003" lon="-1.79236">
        <ele>54</ele>
        <time>2021-02-20T12:19:42.000Z</time>
      </trkpt>
      <trkpt lat="47.00302" lon="-1.79218">
        <ele>54</ele>
        <time>2021-02-20T12:19:44.000Z</time>
      </trkpt>
      <trkpt lat="47.00305" lon="-1.79201">
        <ele>54</ele>
        <time>2021-02-20T12:19:46.000Z</time>
      </trkpt>
      <trkpt lat="47.00308" lon="-1.79184">
        <ele>54</ele>
        <time>2021-02-20T12:19:48.000Z</time>
      </trkpt>
      <trkpt lat="47.00311" lon="-1.79168">
        <ele>54</ele>
        <time>2021-02-20T12:19:50.000Z</time>
      </trkpt>
      <trkpt lat="47.00315" lon="-1.79151">
        <ele>54</ele>
        <time>2021-02-20T12:19:52.000Z</time>
      </trkpt>
      <trkpt lat="47.00319" lon="-1.79133">
        <ele>54</ele>
        <time>2021-02-20T12:19:54.000Z</time>
      </trkpt>
      <trkpt lat="47.00324" lon="-1.79117">
        <ele>54</ele>
        <time>2021-02-20T12:19:56.000Z</time>
      </trkpt>
      <trkpt lat="47.00329" lon="-1.791">
        <ele>53</ele>
        <time>2021-02-20T12:19:58.000Z</time>
      </trkpt>
      <trkpt lat="47.00334" lon="-1.79083">
        <ele>53</ele>
        <time>2021-02-20T12:20:00.000Z</time>
      </trkpt>
      <trkpt lat="47.00339" lon="-1.79066">
        <ele>53</ele>
        <time>2021-02-20T12:20:02.000Z</time>
      </trkpt>
      <trkpt lat="47.00344" lon="-1.79049">
        <ele>54</ele>
        <time>2021-02-20T12:20:04.000Z</time>
      </trkpt>
      <trkpt lat="47.00348" lon="-1.79032">
        <ele>54</ele>
        <time>2021-02-20T12:20:06.000Z</time>
      </trkpt>
      <trkpt lat="47.00353" lon="-1.79015">
        <ele>54</ele>
        <time>2021-02-20T12:20:08.000Z</time>
      </trkpt>
      <trkpt lat="47.00356" lon="-1.78998">
        <ele>54</ele>
        <time>2021-02-20T12:20:10.000Z</time>
      </trkpt>
      <trkpt lat="47.00361" lon="-1.7898">
        <ele>54</ele>
        <time>2021-02-20T12:20:12.000Z</time>
      </trkpt>
      <trkpt lat="47.00364" lon="-1.78962">
        <ele>54</ele>
        <time>2021-02-20T12:20:14.000Z</time>
      </trkpt>
      <trkpt lat="47.00368" lon="-1.78944">
        <ele>54</ele>
        <time>2021-02-20T12:20:16.000Z</time>
      </trkpt>
      <trkpt lat="47.00372" lon="-1.78926">
        <ele>54</ele>
        <time>2021-02-20T12:20:18.000Z</time>
      </trkpt>
      <trkpt lat="47.00376" lon="-1.78909">
        <ele>54</ele>
        <time>2021-02-20T12:20:20.000Z</time>
      </trkpt>
      <trkpt lat="47.0038" lon="-1.7889">
        <ele>54</ele>
        <time>2021-02-20T12:20:22.000Z</time>
      </trkpt>
      <trkpt lat="47.00384" lon="-1.78873">
        <ele>54</ele>
        <time>2021-02-20T12:20:24.000Z</time>
      </trkpt>
      <trkpt lat="47.00388" lon="-1.78854">
        <ele>54</ele>
        <time>2021-02-20T12:20:26.000Z</time>
      </trkpt>
      <trkpt lat="47.00392" lon="-1.78836">
        <ele>54</ele>
        <time>2021-02-20T12:20:28.000Z</time>
      </trkpt>
      <trkpt lat="47.00396" lon="-1.78817">
        <ele>54</ele>
        <time>2021-02-20T12:20:30.000Z</time>
      </trkpt>
      <trkpt lat="47.00399" lon="-1.78798">
        <ele>54</ele>
        <time>2021-02-20T12:20:32.000Z</time>
      </trkpt>
      <trkpt lat="47.00402" lon="-1.78779">
        <ele>54</ele>
        <time>2021-02-20T12:20:34.000Z</time>
      </trkpt>
      <trkpt lat="47.00405" lon="-1.7876">
        <ele>53</ele>
        <time>2021-02-20T12:20:36.000Z</time>
      </trkpt>
      <trkpt lat="47.00408" lon="-1.78741">
        <ele>53</ele>
        <time>2021-02-20T12:20:38.000Z</time>
      </trkpt>
      <trkpt lat="47.00411" lon="-1.7872">
        <ele>54</ele>
        <time>2021-02-20T12:20:40.000Z</time>
      </trkpt>
      <trkpt lat="47.00413" lon="-1.78701">
        <ele>53</ele>
        <time>2021-02-20T12:20:42.000Z</time>
      </trkpt>
      <trkpt lat="47.00416" lon="-1.78682">
        <ele>53</ele>
        <time>2021-02-20T12:20:44.000Z</time>
      </trkpt>
      <trkpt lat="47.00419" lon="-1.78663">
        <ele>54</ele>
        <time>2021-02-20T12:20:46.000Z</time>
      </trkpt>
      <trkpt lat="47.00422" lon="-1.78643">
        <ele>54</ele>
        <time>2021-02-20T12:20:48.000Z</time>
      </trkpt>
      <trkpt lat="47.00424" lon="-1.78623">
        <ele>54</ele>
        <time>2021-02-20T12:20:50.000Z</time>
      </trkpt>
      <trkpt lat="47.00427" lon="-1.78604">
        <ele>53</ele>
        <time>2021-02-20T12:20:52.000Z</time>
      </trkpt>
      <trkpt lat="47.00429" lon="-1.78585">
        <ele>53</ele>
        <time>2021-02-20T12:20:54.000Z</time>
      </trkpt>
      <trkpt lat="47.00431" lon="-1.78566">
        <ele>53</ele>
        <time>2021-02-20T12:20:56.000Z</time>
      </trkpt>
      <trkpt lat="47.00433" lon="-1.78546">
        <ele>53</ele>
        <time>2021-02-20T12:20:58.000Z</time>
      </trkpt>
      <trkpt lat="47.00436" lon="-1.78528">
        <ele>53</ele>
        <time>2021-02-20T12:21:00.000Z</time>
      </trkpt>
      <trkpt lat="47.00439" lon="-1.78509">
        <ele>53</ele>
        <time>2021-02-20T12:21:02.000Z</time>
      </trkpt>
      <trkpt lat="47.00442" lon="-1.78489">
        <ele>53</ele>
        <time>2021-02-20T12:21:04.000Z</time>
      </trkpt>
      <trkpt lat="47.00445" lon="-1.78471">
        <ele>53</ele>
        <time>2021-02-20T12:21:06.000Z</time>
      </trkpt>
      <trkpt lat="47.00449" lon="-1.78452">
        <ele>53</ele>
        <time>2021-02-20T12:21:08.000Z</time>
      </trkpt>
      <trkpt lat="47.00453" lon="-1.78434">
        <ele>53</ele>
        <time>2021-02-20T12:21:10.000Z</time>
      </trkpt>
      <trkpt lat="47.00458" lon="-1.78416">
        <ele>53</ele>
        <time>2021-02-20T12:21:12.000Z</time>
      </trkpt>
      <trkpt lat="47.00462" lon="-1.78397">
        <ele>53</ele>
        <time>2021-02-20T12:21:14.000Z</time>
      </trkpt>
      <trkpt lat="47.00466" lon="-1.78379">
        <ele>53</ele>
        <time>2021-02-20T12:21:16.000Z</time>
      </trkpt>
      <trkpt lat="47.0047" lon="-1.78361">
        <ele>53</ele>
        <time>2021-02-20T12:21:18.000Z</time>
      </trkpt>
      <trkpt lat="47.00474" lon="-1.78343">
        <ele>53</ele>
        <time>2021-02-20T12:21:20.000Z</time>
      </trkpt>
      <trkpt lat="47.00479" lon="-1.78325">
        <ele>53</ele>
        <time>2021-02-20T12:21:22.000Z</time>
      </trkpt>
      <trkpt lat="47.00483" lon="-1.78308">
        <ele>53</ele>
        <time>2021-02-20T12:21:24.000Z</time>
      </trkpt>
      <trkpt lat="47.00488" lon="-1.78291">
        <ele>53</ele>
        <time>2021-02-20T12:21:26.000Z</time>
      </trkpt>
      <trkpt lat="47.00492" lon="-1.78273">
        <ele>53</ele>
        <time>2021-02-20T12:21:28.000Z</time>
      </trkpt>
      <trkpt lat="47.00496" lon="-1.78254">
        <ele>53</ele>
        <time>2021-02-20T12:21:30.000Z</time>
      </trkpt>
      <trkpt lat="47.00501" lon="-1.78235">
        <ele>53</ele>
        <time>2021-02-20T12:21:32.000Z</time>
      </trkpt>
      <trkpt lat="47.00506" lon="-1.78215">
        <ele>53</ele>
        <time>2021-02-20T12:21:34.000Z</time>
      </trkpt>
      <trkpt lat="47.00511" lon="-1.78196">
        <ele>54</ele>
        <time>2021-02-20T12:21:36.000Z</time>
      </trkpt>
      <trkpt lat="47.00516" lon="-1.78177">
        <ele>54</ele>
        <time>2021-02-20T12:21:38.000Z</time>
      </trkpt>
      <trkpt lat="47.0052" lon="-1.78158">
        <ele>54</ele>
        <time>2021-02-20T12:21:40.000Z</time>
      </trkpt>
      <trkpt lat="47.00524" lon="-1.78139">
        <ele>53</ele>
        <time>2021-02-20T12:21:42.000Z</time>
      </trkpt>
      <trkpt lat="47.00529" lon="-1.78121">
        <ele>53</ele>
        <time>2021-02-20T12:21:44.000Z</time>
      </trkpt>
      <trkpt lat="47.00533" lon="-1.78103">
        <ele>53</ele>
        <time>2021-02-20T12:21:46.000Z</time>
      </trkpt>
      <trkpt lat="47.00537" lon="-1.78084">
        <ele>53</ele>
        <time>2021-02-20T12:21:48.000Z</time>
      </trkpt>
      <trkpt lat="47.00542" lon="-1.78066">
        <ele>53</ele>
        <time>2021-02-20T12:21:50.000Z</time>
      </trkpt>
      <trkpt lat="47.00547" lon="-1.78048">
        <ele>52</ele>
        <time>2021-02-20T12:21:52.000Z</time>
      </trkpt>
      <trkpt lat="47.00551" lon="-1.7803">
        <ele>52</ele>
        <time>2021-02-20T12:21:54.000Z</time>
      </trkpt>
      <trkpt lat="47.00556" lon="-1.78012">
        <ele>52</ele>
        <time>2021-02-20T12:21:56.000Z</time>
      </trkpt>
      <trkpt lat="47.0056" lon="-1.77994">
        <ele>52</ele>
        <time>2021-02-20T12:21:58.000Z</time>
      </trkpt>
      <trkpt lat="47.00565" lon="-1.77976">
        <ele>53</ele>
        <time>2021-02-20T12:22:00.000Z</time>
      </trkpt>
      <trkpt lat="47.00569" lon="-1.77959">
        <ele>53</ele>
        <time>2021-02-20T12:22:02.000Z</time>
      </trkpt>
      <trkpt lat="47.00574" lon="-1.77941">
        <ele>53</ele>
        <time>2021-02-20T12:22:04.000Z</time>
      </trkpt>
      <trkpt lat="47.00578" lon="-1.77923">
        <ele>52</ele>
        <time>2021-02-20T12:22:06.000Z</time>
      </trkpt>
      <trkpt lat="47.00582" lon="-1.77905">
        <ele>53</ele>
        <time>2021-02-20T12:22:08.000Z</time>
      </trkpt>
      <trkpt lat="47.00587" lon="-1.77886">
        <ele>53</ele>
        <time>2021-02-20T12:22:10.000Z</time>
      </trkpt>
      <trkpt lat="47.00591" lon="-1.77869">
        <ele>53</ele>
        <time>2021-02-20T12:22:12.000Z</time>
      </trkpt>
      <trkpt lat="47.00595" lon="-1.77851">
        <ele>53</ele>
        <time>2021-02-20T12:22:14.000Z</time>
      </trkpt>
      <trkpt lat="47.006" lon="-1.77833">
        <ele>53</ele>
        <time>2021-02-20T12:22:16.000Z</time>
      </trkpt>
      <trkpt lat="47.00604" lon="-1.77815">
        <ele>53</ele>
        <time>2021-02-20T12:22:18.000Z</time>
      </trkpt>
      <trkpt lat="47.00608" lon="-1.77797">
        <ele>54</ele>
        <time>2021-02-20T12:22:20.000Z</time>
      </trkpt>
      <trkpt lat="47.00612" lon="-1.7778">
        <ele>54</ele>
        <time>2021-02-20T12:22:22.000Z</time>
      </trkpt>
      <trkpt lat="47.00617" lon="-1.77763">
        <ele>54</ele>
        <time>2021-02-20T12:22:24.000Z</time>
      </trkpt>
      <trkpt lat="47.00622" lon="-1.77746">
        <ele>54</ele>
        <time>2021-02-20T12:22:26.000Z</time>
      </trkpt>
      <trkpt lat="47.00626" lon="-1.7773">
        <ele>54</ele>
        <time>2021-02-20T12:22:28.000Z</time>
      </trkpt>
      <trkpt lat="47.0063" lon="-1.77713">
        <ele>55</ele>
        <time>2021-02-20T12:22:30.000Z</time>
      </trkpt>
      <trkpt lat="47.00634" lon="-1.77696">
        <ele>55</ele>
        <time>2021-02-20T12:22:32.000Z</time>
      </trkpt>
      <trkpt lat="47.00638" lon="-1.7768">
        <ele>55</ele>
        <time>2021-02-20T12:22:34.000Z</time>
      </trkpt>
      <trkpt lat="47.00641" lon="-1.77664">
        <ele>55</ele>
        <time>2021-02-20T12:22:36.000Z</time>
      </trkpt>
      <trkpt lat="47.00646" lon="-1.77648">
        <ele>55</ele>
        <time>2021-02-20T12:22:38.000Z</time>
      </trkpt>
      <trkpt lat="47.0065" lon="-1.77632">
        <ele>56</ele>
        <time>2021-02-20T12:22:40.000Z</time>
      </trkpt>
      <trkpt lat="47.00654" lon="-1.77615">
        <ele>56</ele>
        <time>2021-02-20T12:22:42.000Z</time>
      </trkpt>
      <trkpt lat="47.00658" lon="-1.77599">
        <ele>56</ele>
        <time>2021-02-20T12:22:44.000Z</time>
      </trkpt>
      <trkpt lat="47.00662" lon="-1.77583">
        <ele>56</ele>
        <time>2021-02-20T12:22:46.000Z</time>
      </trkpt>
      <trkpt lat="47.00666" lon="-1.77567">
        <ele>56</ele>
        <time>2021-02-20T12:22:48.000Z</time>
      </trkpt>
      <trkpt lat="47.0067" lon="-1.77551">
        <ele>57</ele>
        <time>2021-02-20T12:22:50.000Z</time>
      </trkpt>
      <trkpt lat="47.00674" lon="-1.77535">
        <ele>57</ele>
        <time>2021-02-20T12:22:52.000Z</time>
      </trkpt>
      <trkpt lat="47.00678" lon="-1.7752">
        <ele>57</ele>
        <time>2021-02-20T12:22:54.000Z</time>
      </trkpt>
      <trkpt lat="47.00683" lon="-1.77505">
        <ele>57</ele>
        <time>2021-02-20T12:22:56.000Z</time>
      </trkpt>
      <trkpt lat="47.00688" lon="-1.7749">
        <ele>57</ele>
        <time>2021-02-20T12:22:58.000Z</time>
      </trkpt>
      <trkpt lat="47.00693" lon="-1.77476">
        <ele>57</ele>
        <time>2021-02-20T12:23:00.000Z</time>
      </trkpt>
      <trkpt lat="47.00698" lon="-1.77462">
        <ele>57</ele>
        <time>2021-02-20T12:23:02.000Z</time>
      </trkpt>
      <trkpt lat="47.00703" lon="-1.77448">
        <ele>58</ele>
        <time>2021-02-20T12:23:04.000Z</time>
      </trkpt>
      <trkpt lat="47.00708" lon="-1.77434">
        <ele>58</ele>
        <time>2021-02-20T12:23:06.000Z</time>
      </trkpt>
      <trkpt lat="47.00713" lon="-1.7742">
        <ele>58</ele>
        <time>2021-02-20T12:23:08.000Z</time>
      </trkpt>
      <trkpt lat="47.00718" lon="-1.77406">
        <ele>59</ele>
        <time>2021-02-20T12:23:10.000Z</time>
      </trkpt>
      <trkpt lat="47.00724" lon="-1.77392">
        <ele>59</ele>
        <time>2021-02-20T12:23:12.000Z</time>
      </trkpt>
      <trkpt lat="47.00729" lon="-1.77377">
        <ele>59</ele>
        <time>2021-02-20T12:23:14.000Z</time>
      </trkpt>
      <trkpt lat="47.00736" lon="-1.77364">
        <ele>59</ele>
        <time>2021-02-20T12:23:16.000Z</time>
      </trkpt>
      <trkpt lat="47.00744" lon="-1.77351">
        <ele>60</ele>
        <time>2021-02-20T12:23:18.000Z</time>
      </trkpt>
      <trkpt lat="47.00753" lon="-1.77339">
        <ele>60</ele>
        <time>2021-02-20T12:23:20.000Z</time>
      </trkpt>
      <trkpt lat="47.00762" lon="-1.77328">
        <ele>60</ele>
        <time>2021-02-20T12:23:22.000Z</time>
      </trkpt>
      <trkpt lat="47.00771" lon="-1.77317">
        <ele>61</ele>
        <time>2021-02-20T12:23:24.000Z</time>
      </trkpt>
      <trkpt lat="47.00781" lon="-1.77309">
        <ele>61</ele>
        <time>2021-02-20T12:23:26.000Z</time>
      </trkpt>
      <trkpt lat="47.00791" lon="-1.77301">
        <ele>61</ele>
        <time>2021-02-20T12:23:28.000Z</time>
      </trkpt>
      <trkpt lat="47.00803" lon="-1.77294">
        <ele>62</ele>
        <time>2021-02-20T12:23:30.000Z</time>
      </trkpt>
      <trkpt lat="47.00813" lon="-1.77288">
        <ele>62</ele>
        <time>2021-02-20T12:23:32.000Z</time>
      </trkpt>
      <trkpt lat="47.00824" lon="-1.77283">
        <ele>62</ele>
        <time>2021-02-20T12:23:34.000Z</time>
      </trkpt>
      <trkpt lat="47.00835" lon="-1.77277">
        <ele>62</ele>
        <time>2021-02-20T12:23:36.000Z</time>
      </trkpt>
      <trkpt lat="47.00846" lon="-1.77271">
        <ele>62</ele>
        <time>2021-02-20T12:23:38.000Z</time>
      </trkpt>
      <trkpt lat="47.00856" lon="-1.77264">
        <ele>61</ele>
        <time>2021-02-20T12:23:40.000Z</time>
      </trkpt>
      <trkpt lat="47.00867" lon="-1.77257">
        <ele>61</ele>
        <time>2021-02-20T12:23:42.000Z</time>
      </trkpt>
      <trkpt lat="47.00877" lon="-1.77247">
        <ele>62</ele>
        <time>2021-02-20T12:23:44.000Z</time>
      </trkpt>
      <trkpt lat="47.00887" lon="-1.77238">
        <ele>61</ele>
        <time>2021-02-20T12:23:46.000Z</time>
      </trkpt>
      <trkpt lat="47.00897" lon="-1.77227">
        <ele>61</ele>
        <time>2021-02-20T12:23:48.000Z</time>
      </trkpt>
      <trkpt lat="47.00907" lon="-1.77217">
        <ele>61</ele>
        <time>2021-02-20T12:23:50.000Z</time>
      </trkpt>
      <trkpt lat="47.00916" lon="-1.77207">
        <ele>61</ele>
        <time>2021-02-20T12:23:52.000Z</time>
      </trkpt>
      <trkpt lat="47.00926" lon="-1.77197">
        <ele>61</ele>
        <time>2021-02-20T12:23:54.000Z</time>
      </trkpt>
      <trkpt lat="47.00935" lon="-1.77188">
        <ele>60</ele>
        <time>2021-02-20T12:23:56.000Z</time>
      </trkpt>
      <trkpt lat="47.00944" lon="-1.77179">
        <ele>60</ele>
        <time>2021-02-20T12:23:58.000Z</time>
      </trkpt>
      <trkpt lat="47.00953" lon="-1.77169">
        <ele>60</ele>
        <time>2021-02-20T12:24:00.000Z</time>
      </trkpt>
      <trkpt lat="47.00962" lon="-1.77161">
        <ele>60</ele>
        <time>2021-02-20T12:24:02.000Z</time>
      </trkpt>
      <trkpt lat="47.00971" lon="-1.77151">
        <ele>60</ele>
        <time>2021-02-20T12:24:04.000Z</time>
      </trkpt>
      <trkpt lat="47.00982" lon="-1.7714">
        <ele>61</ele>
        <time>2021-02-20T12:24:06.000Z</time>
      </trkpt>
      <trkpt lat="47.00993" lon="-1.77128">
        <ele>61</ele>
        <time>2021-02-20T12:24:08.000Z</time>
      </trkpt>
      <trkpt lat="47.01004" lon="-1.77117">
        <ele>61</ele>
        <time>2021-02-20T12:24:10.000Z</time>
      </trkpt>
      <trkpt lat="47.01014" lon="-1.77105">
        <ele>61</ele>
        <time>2021-02-20T12:24:12.000Z</time>
      </trkpt>
      <trkpt lat="47.01025" lon="-1.77093">
        <ele>61</ele>
        <time>2021-02-20T12:24:14.000Z</time>
      </trkpt>
      <trkpt lat="47.01035" lon="-1.77082">
        <ele>62</ele>
        <time>2021-02-20T12:24:16.000Z</time>
      </trkpt>
      <trkpt lat="47.01046" lon="-1.77071">
        <ele>62</ele>
        <time>2021-02-20T12:24:18.000Z</time>
      </trkpt>
      <trkpt lat="47.01056" lon="-1.7706">
        <ele>62</ele>
        <time>2021-02-20T12:24:20.000Z</time>
      </trkpt>
      <trkpt lat="47.01066" lon="-1.77047">
        <ele>62</ele>
        <time>2021-02-20T12:24:22.000Z</time>
      </trkpt>
      <trkpt lat="47.01076" lon="-1.77035">
        <ele>63</ele>
        <time>2021-02-20T12:24:24.000Z</time>
      </trkpt>
      <trkpt lat="47.01086" lon="-1.77024">
        <ele>63</ele>
        <time>2021-02-20T12:24:26.000Z</time>
      </trkpt>
      <trkpt lat="47.01096" lon="-1.77012">
        <ele>63</ele>
        <time>2021-02-20T12:24:28.000Z</time>
      </trkpt>
      <trkpt lat="47.01106" lon="-1.77001">
        <ele>63</ele>
        <time>2021-02-20T12:24:30.000Z</time>
      </trkpt>
      <trkpt lat="47.01115" lon="-1.76989">
        <ele>63</ele>
        <time>2021-02-20T12:24:32.000Z</time>
      </trkpt>
      <trkpt lat="47.01125" lon="-1.76979">
        <ele>64</ele>
        <time>2021-02-20T12:24:34.000Z</time>
      </trkpt>
      <trkpt lat="47.01134" lon="-1.76967">
        <ele>64</ele>
        <time>2021-02-20T12:24:36.000Z</time>
      </trkpt>
      <trkpt lat="47.01142" lon="-1.76956">
        <ele>64</ele>
        <time>2021-02-20T12:24:38.000Z</time>
      </trkpt>
      <trkpt lat="47.01151" lon="-1.76945">
        <ele>64</ele>
        <time>2021-02-20T12:24:40.000Z</time>
      </trkpt>
      <trkpt lat="47.01161" lon="-1.76934">
        <ele>65</ele>
        <time>2021-02-20T12:24:42.000Z</time>
      </trkpt>
      <trkpt lat="47.01171" lon="-1.76922">
        <ele>65</ele>
        <time>2021-02-20T12:24:44.000Z</time>
      </trkpt>
      <trkpt lat="47.01181" lon="-1.76912">
        <ele>65</ele>
        <time>2021-02-20T12:24:46.000Z</time>
      </trkpt>
      <trkpt lat="47.01191" lon="-1.76901">
        <ele>65</ele>
        <time>2021-02-20T12:24:48.000Z</time>
      </trkpt>
      <trkpt lat="47.01201" lon="-1.76891">
        <ele>65</ele>
        <time>2021-02-20T12:24:50.000Z</time>
      </trkpt>
      <trkpt lat="47.01211" lon="-1.76882">
        <ele>65</ele>
        <time>2021-02-20T12:24:52.000Z</time>
      </trkpt>
      <trkpt lat="47.01222" lon="-1.76873">
        <ele>65</ele>
        <time>2021-02-20T12:24:54.000Z</time>
      </trkpt>
      <trkpt lat="47.01233" lon="-1.76864">
        <ele>66</ele>
        <time>2021-02-20T12:24:56.000Z</time>
      </trkpt>
      <trkpt lat="47.01244" lon="-1.76855">
        <ele>66</ele>
        <time>2021-02-20T12:24:58.000Z</time>
      </trkpt>
      <trkpt lat="47.01255" lon="-1.76847">
        <ele>66</ele>
        <time>2021-02-20T12:25:00.000Z</time>
      </trkpt>
      <trkpt lat="47.01265" lon="-1.76838">
        <ele>66</ele>
        <time>2021-02-20T12:25:02.000Z</time>
      </trkpt>
      <trkpt lat="47.01276" lon="-1.76828">
        <ele>66</ele>
        <time>2021-02-20T12:25:04.000Z</time>
      </trkpt>
      <trkpt lat="47.01286" lon="-1.76817">
        <ele>66</ele>
        <time>2021-02-20T12:25:06.000Z</time>
      </trkpt>
      <trkpt lat="47.01295" lon="-1.76804">
        <ele>66</ele>
        <time>2021-02-20T12:25:08.000Z</time>
      </trkpt>
      <trkpt lat="47.01304" lon="-1.76792">
        <ele>67</ele>
        <time>2021-02-20T12:25:10.000Z</time>
      </trkpt>
      <trkpt lat="47.01313" lon="-1.76777">
        <ele>67</ele>
        <time>2021-02-20T12:25:12.000Z</time>
      </trkpt>
      <trkpt lat="47.01322" lon="-1.76763">
        <ele>67</ele>
        <time>2021-02-20T12:25:14.000Z</time>
      </trkpt>
      <trkpt lat="47.0133" lon="-1.76749">
        <ele>68</ele>
        <time>2021-02-20T12:25:16.000Z</time>
      </trkpt>
      <trkpt lat="47.01338" lon="-1.76734">
        <ele>68</ele>
        <time>2021-02-20T12:25:18.000Z</time>
      </trkpt>
      <trkpt lat="47.01346" lon="-1.7672">
        <ele>68</ele>
        <time>2021-02-20T12:25:20.000Z</time>
      </trkpt>
      <trkpt lat="47.01353" lon="-1.76705">
        <ele>68</ele>
        <time>2021-02-20T12:25:22.000Z</time>
      </trkpt>
      <trkpt lat="47.0136" lon="-1.76689">
        <ele>68</ele>
        <time>2021-02-20T12:25:24.000Z</time>
      </trkpt>
      <trkpt lat="47.01365" lon="-1.76672">
        <ele>67</ele>
        <time>2021-02-20T12:25:26.000Z</time>
      </trkpt>
      <trkpt lat="47.01369" lon="-1.76653">
        <ele>68</ele>
        <time>2021-02-20T12:25:28.000Z</time>
      </trkpt>
      <trkpt lat="47.01372" lon="-1.76636">
        <ele>67</ele>
        <time>2021-02-20T12:25:30.000Z</time>
      </trkpt>
      <trkpt lat="47.01376" lon="-1.76618">
        <ele>68</ele>
        <time>2021-02-20T12:25:32.000Z</time>
      </trkpt>
      <trkpt lat="47.01379" lon="-1.76601">
        <ele>67</ele>
        <time>2021-02-20T12:25:34.000Z</time>
      </trkpt>
      <trkpt lat="47.01383" lon="-1.76583">
        <ele>67</ele>
        <time>2021-02-20T12:25:36.000Z</time>
      </trkpt>
      <trkpt lat="47.01387" lon="-1.76565">
        <ele>67</ele>
        <time>2021-02-20T12:25:38.000Z</time>
      </trkpt>
      <trkpt lat="47.0139" lon="-1.76548">
        <ele>67</ele>
        <time>2021-02-20T12:25:40.000Z</time>
      </trkpt>
      <trkpt lat="47.01394" lon="-1.7653">
        <ele>67</ele>
        <time>2021-02-20T12:25:42.000Z</time>
      </trkpt>
      <trkpt lat="47.01398" lon="-1.76512">
        <ele>67</ele>
        <time>2021-02-20T12:25:44.000Z</time>
      </trkpt>
      <trkpt lat="47.01403" lon="-1.76494">
        <ele>67</ele>
        <time>2021-02-20T12:25:46.000Z</time>
      </trkpt>
      <trkpt lat="47.01409" lon="-1.76476">
        <ele>67</ele>
        <time>2021-02-20T12:25:48.000Z</time>
      </trkpt>
      <trkpt lat="47.01415" lon="-1.76459">
        <ele>67</ele>
        <time>2021-02-20T12:25:50.000Z</time>
      </trkpt>
      <trkpt lat="47.01423" lon="-1.76443">
        <ele>67</ele>
        <time>2021-02-20T12:25:52.000Z</time>
      </trkpt>
      <trkpt lat="47.0143" lon="-1.76426">
        <ele>67</ele>
        <time>2021-02-20T12:25:54.000Z</time>
      </trkpt>
      <trkpt lat="47.01438" lon="-1.7641">
        <ele>67</ele>
        <time>2021-02-20T12:25:56.000Z</time>
      </trkpt>
      <trkpt lat="47.01447" lon="-1.76393">
        <ele>67</ele>
        <time>2021-02-20T12:25:58.000Z</time>
      </trkpt>
      <trkpt lat="47.01455" lon="-1.76376">
        <ele>66</ele>
        <time>2021-02-20T12:26:00.000Z</time>
      </trkpt>
      <trkpt lat="47.01463" lon="-1.76359">
        <ele>66</ele>
        <time>2021-02-20T12:26:02.000Z</time>
      </trkpt>
      <trkpt lat="47.01471" lon="-1.76342">
        <ele>66</ele>
        <time>2021-02-20T12:26:04.000Z</time>
      </trkpt>
      <trkpt lat="47.01478" lon="-1.76326">
        <ele>66</ele>
        <time>2021-02-20T12:26:06.000Z</time>
      </trkpt>
      <trkpt lat="47.01485" lon="-1.7631">
        <ele>66</ele>
        <time>2021-02-20T12:26:08.000Z</time>
      </trkpt>
      <trkpt lat="47.01493" lon="-1.76294">
        <ele>66</ele>
        <time>2021-02-20T12:26:10.000Z</time>
      </trkpt>
      <trkpt lat="47.015" lon="-1.76278">
        <ele>65</ele>
        <time>2021-02-20T12:26:12.000Z</time>
      </trkpt>
      <trkpt lat="47.01507" lon="-1.76261">
        <ele>64</ele>
        <time>2021-02-20T12:26:14.000Z</time>
      </trkpt>
      <trkpt lat="47.01514" lon="-1.76244">
        <ele>64</ele>
        <time>2021-02-20T12:26:16.000Z</time>
      </trkpt>
      <trkpt lat="47.0152" lon="-1.76228">
        <ele>64</ele>
        <time>2021-02-20T12:26:18.000Z</time>
      </trkpt>
      <trkpt lat="47.01526" lon="-1.7621">
        <ele>63</ele>
        <time>2021-02-20T12:26:20.000Z</time>
      </trkpt>
      <trkpt lat="47.01533" lon="-1.76194">
        <ele>63</ele>
        <time>2021-02-20T12:26:22.000Z</time>
      </trkpt>
      <trkpt lat="47.01542" lon="-1.76178">
        <ele>63</ele>
        <time>2021-02-20T12:26:24.000Z</time>
      </trkpt>
      <trkpt lat="47.01551" lon="-1.76164">
        <ele>64</ele>
        <time>2021-02-20T12:26:26.000Z</time>
      </trkpt>
      <trkpt lat="47.01562" lon="-1.76152">
        <ele>64</ele>
        <time>2021-02-20T12:26:28.000Z</time>
      </trkpt>
      <trkpt lat="47.01574" lon="-1.76141">
        <ele>65</ele>
        <time>2021-02-20T12:26:30.000Z</time>
      </trkpt>
      <trkpt lat="47.01586" lon="-1.7613">
        <ele>65</ele>
        <time>2021-02-20T12:26:32.000Z</time>
      </trkpt>
      <trkpt lat="47.01598" lon="-1.7612">
        <ele>65</ele>
        <time>2021-02-20T12:26:34.000Z</time>
      </trkpt>
      <trkpt lat="47.01609" lon="-1.7611">
        <ele>65</ele>
        <time>2021-02-20T12:26:36.000Z</time>
      </trkpt>
      <trkpt lat="47.0162" lon="-1.76101">
        <ele>65</ele>
        <time>2021-02-20T12:26:38.000Z</time>
      </trkpt>
      <trkpt lat="47.01632" lon="-1.76092">
        <ele>66</ele>
        <time>2021-02-20T12:26:40.000Z</time>
      </trkpt>
      <trkpt lat="47.01643" lon="-1.76082">
        <ele>66</ele>
        <time>2021-02-20T12:26:42.000Z</time>
      </trkpt>
      <trkpt lat="47.01654" lon="-1.76073">
        <ele>67</ele>
        <time>2021-02-20T12:26:44.000Z</time>
      </trkpt>
      <trkpt lat="47.01666" lon="-1.76063">
        <ele>67</ele>
        <time>2021-02-20T12:26:46.000Z</time>
      </trkpt>
      <trkpt lat="47.01677" lon="-1.76053">
        <ele>67</ele>
        <time>2021-02-20T12:26:48.000Z</time>
      </trkpt>
      <trkpt lat="47.01689" lon="-1.76044">
        <ele>67</ele>
        <time>2021-02-20T12:26:50.000Z</time>
      </trkpt>
      <trkpt lat="47.01699" lon="-1.76033">
        <ele>67</ele>
        <time>2021-02-20T12:26:52.000Z</time>
      </trkpt>
      <trkpt lat="47.01709" lon="-1.76022">
        <ele>67</ele>
        <time>2021-02-20T12:26:54.000Z</time>
      </trkpt>
      <trkpt lat="47.01719" lon="-1.76008">
        <ele>67</ele>
        <time>2021-02-20T12:26:56.000Z</time>
      </trkpt>
      <trkpt lat="47.01727" lon="-1.75993">
        <ele>67</ele>
        <time>2021-02-20T12:26:58.000Z</time>
      </trkpt>
      <trkpt lat="47.01736" lon="-1.75979">
        <ele>67</ele>
        <time>2021-02-20T12:27:00.000Z</time>
      </trkpt>
      <trkpt lat="47.01744" lon="-1.75964">
        <ele>67</ele>
        <time>2021-02-20T12:27:02.000Z</time>
      </trkpt>
      <trkpt lat="47.01752" lon="-1.7595">
        <ele>68</ele>
        <time>2021-02-20T12:27:04.000Z</time>
      </trkpt>
      <trkpt lat="47.01761" lon="-1.75936">
        <ele>68</ele>
        <time>2021-02-20T12:27:06.000Z</time>
      </trkpt>
      <trkpt lat="47.01769" lon="-1.75922">
        <ele>68</ele>
        <time>2021-02-20T12:27:08.000Z</time>
      </trkpt>
      <trkpt lat="47.01777" lon="-1.75907">
        <ele>68</ele>
        <time>2021-02-20T12:27:10.000Z</time>
      </trkpt>
      <trkpt lat="47.01786" lon="-1.75893">
        <ele>68</ele>
        <time>2021-02-20T12:27:12.000Z</time>
      </trkpt>
      <trkpt lat="47.01794" lon="-1.75879">
        <ele>69</ele>
        <time>2021-02-20T12:27:14.000Z</time>
      </trkpt>
      <trkpt lat="47.01802" lon="-1.75865">
        <ele>69</ele>
        <time>2021-02-20T12:27:16.000Z</time>
      </trkpt>
      <trkpt lat="47.01811" lon="-1.75851">
        <ele>69</ele>
        <time>2021-02-20T12:27:18.000Z</time>
      </trkpt>
      <trkpt lat="47.01819" lon="-1.75837">
        <ele>69</ele>
        <time>2021-02-20T12:27:20.000Z</time>
      </trkpt>
      <trkpt lat="47.01826" lon="-1.75823">
        <ele>70</ele>
        <time>2021-02-20T12:27:22.000Z</time>
      </trkpt>
      <trkpt lat="47.01834" lon="-1.75809">
        <ele>70</ele>
        <time>2021-02-20T12:27:24.000Z</time>
      </trkpt>
      <trkpt lat="47.01842" lon="-1.75796">
        <ele>70</ele>
        <time>2021-02-20T12:27:26.000Z</time>
      </trkpt>
      <trkpt lat="47.01851" lon="-1.75781">
        <ele>71</ele>
        <time>2021-02-20T12:27:28.000Z</time>
      </trkpt>
      <trkpt lat="47.01859" lon="-1.75767">
        <ele>71</ele>
        <time>2021-02-20T12:27:30.000Z</time>
      </trkpt>
      <trkpt lat="47.01867" lon="-1.75754">
        <ele>71</ele>
        <time>2021-02-20T12:27:32.000Z</time>
      </trkpt>
      <trkpt lat="47.01875" lon="-1.7574">
        <ele>71</ele>
        <time>2021-02-20T12:27:34.000Z</time>
      </trkpt>
      <trkpt lat="47.01883" lon="-1.75726">
        <ele>71</ele>
        <time>2021-02-20T12:27:36.000Z</time>
      </trkpt>
      <trkpt lat="47.01891" lon="-1.75713">
        <ele>71</ele>
        <time>2021-02-20T12:27:38.000Z</time>
      </trkpt>
      <trkpt lat="47.01899" lon="-1.75699">
        <ele>70</ele>
        <time>2021-02-20T12:27:40.000Z</time>
      </trkpt>
      <trkpt lat="47.01907" lon="-1.75686">
        <ele>71</ele>
        <time>2021-02-20T12:27:42.000Z</time>
      </trkpt>
      <trkpt lat="47.01915" lon="-1.75672">
        <ele>71</ele>
        <time>2021-02-20T12:27:44.000Z</time>
      </trkpt>
      <trkpt lat="47.01924" lon="-1.75658">
        <ele>71</ele>
        <time>2021-02-20T12:27:46.000Z</time>
      </trkpt>
      <trkpt lat="47.01932" lon="-1.75643">
        <ele>71</ele>
        <time>2021-02-20T12:27:48.000Z</time>
      </trkpt>
      <trkpt lat="47.0194" lon="-1.75629">
        <ele>70</ele>
        <time>2021-02-20T12:27:50.000Z</time>
      </trkpt>
      <trkpt lat="47.01948" lon="-1.75615">
        <ele>71</ele>
        <time>2021-02-20T12:27:52.000Z</time>
      </trkpt>
      <trkpt lat="47.01956" lon="-1.756">
        <ele>70</ele>
        <time>2021-02-20T12:27:54.000Z</time>
      </trkpt>
      <trkpt lat="47.01965" lon="-1.75585">
        <ele>70</ele>
        <time>2021-02-20T12:27:56.000Z</time>
      </trkpt>
      <trkpt lat="47.01974" lon="-1.75569">
        <ele>70</ele>
        <time>2021-02-20T12:27:58.000Z</time>
      </trkpt>
      <trkpt lat="47.01983" lon="-1.75554">
        <ele>70</ele>
        <time>2021-02-20T12:28:00.000Z</time>
      </trkpt>
      <trkpt lat="47.01992" lon="-1.75537">
        <ele>70</ele>
        <time>2021-02-20T12:28:02.000Z</time>
      </trkpt>
      <trkpt lat="47.02001" lon="-1.75522">
        <ele>70</ele>
        <time>2021-02-20T12:28:04.000Z</time>
      </trkpt>
      <trkpt lat="47.0201" lon="-1.75507">
        <ele>70</ele>
        <time>2021-02-20T12:28:06.000Z</time>
      </trkpt>
      <trkpt lat="47.02019" lon="-1.7549">
        <ele>70</ele>
        <time>2021-02-20T12:28:08.000Z</time>
      </trkpt>
      <trkpt lat="47.02028" lon="-1.75474">
        <ele>69</ele>
        <time>2021-02-20T12:28:10.000Z</time>
      </trkpt>
      <trkpt lat="47.02037" lon="-1.75457">
        <ele>69</ele>
        <time>2021-02-20T12:28:12.000Z</time>
      </trkpt>
      <trkpt lat="47.02046" lon="-1.7544">
        <ele>69</ele>
        <time>2021-02-20T12:28:14.000Z</time>
      </trkpt>
      <trkpt lat="47.02053" lon="-1.75423">
        <ele>69</ele>
        <time>2021-02-20T12:28:16.000Z</time>
      </trkpt>
      <trkpt lat="47.02059" lon="-1.75405">
        <ele>69</ele>
        <time>2021-02-20T12:28:18.000Z</time>
      </trkpt>
      <trkpt lat="47.02064" lon="-1.75386">
        <ele>69</ele>
        <time>2021-02-20T12:28:20.000Z</time>
      </trkpt>
      <trkpt lat="47.02068" lon="-1.75366">
        <ele>69</ele>
        <time>2021-02-20T12:28:22.000Z</time>
      </trkpt>
      <trkpt lat="47.02071" lon="-1.75347">
        <ele>69</ele>
        <time>2021-02-20T12:28:24.000Z</time>
      </trkpt>
      <trkpt lat="47.02075" lon="-1.75328">
        <ele>69</ele>
        <time>2021-02-20T12:28:26.000Z</time>
      </trkpt>
      <trkpt lat="47.02078" lon="-1.75309">
        <ele>69</ele>
        <time>2021-02-20T12:28:28.000Z</time>
      </trkpt>
      <trkpt lat="47.02081" lon="-1.7529">
        <ele>69</ele>
        <time>2021-02-20T12:28:30.000Z</time>
      </trkpt>
      <trkpt lat="47.02085" lon="-1.75271">
        <ele>69</ele>
        <time>2021-02-20T12:28:32.000Z</time>
      </trkpt>
      <trkpt lat="47.02089" lon="-1.75252">
        <ele>69</ele>
        <time>2021-02-20T12:28:34.000Z</time>
      </trkpt>
      <trkpt lat="47.02092" lon="-1.75233">
        <ele>69</ele>
        <time>2021-02-20T12:28:36.000Z</time>
      </trkpt>
      <trkpt lat="47.02096" lon="-1.75214">
        <ele>69</ele>
        <time>2021-02-20T12:28:38.000Z</time>
      </trkpt>
      <trkpt lat="47.02099" lon="-1.75195">
        <ele>68</ele>
        <time>2021-02-20T12:28:40.000Z</time>
      </trkpt>
      <trkpt lat="47.02103" lon="-1.75177">
        <ele>68</ele>
        <time>2021-02-20T12:28:42.000Z</time>
      </trkpt>
      <trkpt lat="47.02106" lon="-1.75159">
        <ele>69</ele>
        <time>2021-02-20T12:28:44.000Z</time>
      </trkpt>
      <trkpt lat="47.02109" lon="-1.75141">
        <ele>69</ele>
        <time>2021-02-20T12:28:46.000Z</time>
      </trkpt>
      <trkpt lat="47.02113" lon="-1.75123">
        <ele>69</ele>
        <time>2021-02-20T12:28:48.000Z</time>
      </trkpt>
      <trkpt lat="47.02116" lon="-1.75105">
        <ele>69</ele>
        <time>2021-02-20T12:28:50.000Z</time>
      </trkpt>
      <trkpt lat="47.02119" lon="-1.75087">
        <ele>69</ele>
        <time>2021-02-20T12:28:52.000Z</time>
      </trkpt>
      <trkpt lat="47.02122" lon="-1.75069">
        <ele>69</ele>
        <time>2021-02-20T12:28:54.000Z</time>
      </trkpt>
      <trkpt lat="47.02125" lon="-1.7505">
        <ele>69</ele>
        <time>2021-02-20T12:28:56.000Z</time>
      </trkpt>
      <trkpt lat="47.02128" lon="-1.75032">
        <ele>69</ele>
        <time>2021-02-20T12:28:58.000Z</time>
      </trkpt>
      <trkpt lat="47.02131" lon="-1.75015">
        <ele>70</ele>
        <time>2021-02-20T12:29:00.000Z</time>
      </trkpt>
      <trkpt lat="47.02135" lon="-1.74997">
        <ele>70</ele>
        <time>2021-02-20T12:29:02.000Z</time>
      </trkpt>
      <trkpt lat="47.02138" lon="-1.7498">
        <ele>70</ele>
        <time>2021-02-20T12:29:04.000Z</time>
      </trkpt>
      <trkpt lat="47.0214" lon="-1.74962">
        <ele>71</ele>
        <time>2021-02-20T12:29:06.000Z</time>
      </trkpt>
      <trkpt lat="47.02143" lon="-1.74944">
        <ele>71</ele>
        <time>2021-02-20T12:29:08.000Z</time>
      </trkpt>
      <trkpt lat="47.02146" lon="-1.74927">
        <ele>71</ele>
        <time>2021-02-20T12:29:10.000Z</time>
      </trkpt>
      <trkpt lat="47.02148" lon="-1.74908">
        <ele>71</ele>
        <time>2021-02-20T12:29:12.000Z</time>
      </trkpt>
      <trkpt lat="47.02152" lon="-1.7489">
        <ele>71</ele>
        <time>2021-02-20T12:29:14.000Z</time>
      </trkpt>
      <trkpt lat="47.02155" lon="-1.74873">
        <ele>71</ele>
        <time>2021-02-20T12:29:16.000Z</time>
      </trkpt>
      <trkpt lat="47.02158" lon="-1.74857">
        <ele>71</ele>
        <time>2021-02-20T12:29:18.000Z</time>
      </trkpt>
      <trkpt lat="47.02163" lon="-1.74839">
        <ele>71</ele>
        <time>2021-02-20T12:29:20.000Z</time>
      </trkpt>
      <trkpt lat="47.02166" lon="-1.74821">
        <ele>70</ele>
        <time>2021-02-20T12:29:22.000Z</time>
      </trkpt>
      <trkpt lat="47.0217" lon="-1.74804">
        <ele>70</ele>
        <time>2021-02-20T12:29:24.000Z</time>
      </trkpt>
      <trkpt lat="47.02174" lon="-1.74786">
        <ele>70</ele>
        <time>2021-02-20T12:29:26.000Z</time>
      </trkpt>
      <trkpt lat="47.02179" lon="-1.74769">
        <ele>69</ele>
        <time>2021-02-20T12:29:28.000Z</time>
      </trkpt>
      <trkpt lat="47.02182" lon="-1.7475">
        <ele>69</ele>
        <time>2021-02-20T12:29:30.000Z</time>
      </trkpt>
      <trkpt lat="47.02186" lon="-1.74731">
        <ele>70</ele>
        <time>2021-02-20T12:29:32.000Z</time>
      </trkpt>
      <trkpt lat="47.02189" lon="-1.74711">
        <ele>70</ele>
        <time>2021-02-20T12:29:34.000Z</time>
      </trkpt>
      <trkpt lat="47.02191" lon="-1.74693">
        <ele>70</ele>
        <time>2021-02-20T12:29:36.000Z</time>
      </trkpt>
      <trkpt lat="47.02195" lon="-1.74666">
        <ele>71</ele>
        <time>2021-02-20T12:29:39.000Z</time>
      </trkpt>
      <trkpt lat="47.02198" lon="-1.74647">
        <ele>71</ele>
        <time>2021-02-20T12:29:41.000Z</time>
      </trkpt>
      <trkpt lat="47.02201" lon="-1.74629">
        <ele>71</ele>
        <time>2021-02-20T12:29:43.000Z</time>
      </trkpt>
      <trkpt lat="47.02203" lon="-1.7461">
        <ele>71</ele>
        <time>2021-02-20T12:29:45.000Z</time>
      </trkpt>
      <trkpt lat="47.02205" lon="-1.74591">
        <ele>72</ele>
        <time>2021-02-20T12:29:47.000Z</time>
      </trkpt>
      <trkpt lat="47.02209" lon="-1.74573">
        <ele>72</ele>
        <time>2021-02-20T12:29:49.000Z</time>
      </trkpt>
      <trkpt lat="47.02212" lon="-1.74556">
        <ele>71</ele>
        <time>2021-02-20T12:29:51.000Z</time>
      </trkpt>
      <trkpt lat="47.02214" lon="-1.74537">
        <ele>71</ele>
        <time>2021-02-20T12:29:53.000Z</time>
      </trkpt>
      <trkpt lat="47.02217" lon="-1.74518">
        <ele>71</ele>
        <time>2021-02-20T12:29:55.000Z</time>
      </trkpt>
      <trkpt lat="47.02219" lon="-1.745">
        <ele>71</ele>
        <time>2021-02-20T12:29:57.000Z</time>
      </trkpt>
      <trkpt lat="47.02222" lon="-1.74482">
        <ele>71</ele>
        <time>2021-02-20T12:29:59.000Z</time>
      </trkpt>
      <trkpt lat="47.02224" lon="-1.74464">
        <ele>70</ele>
        <time>2021-02-20T12:30:01.000Z</time>
      </trkpt>
      <trkpt lat="47.02226" lon="-1.74446">
        <ele>70</ele>
        <time>2021-02-20T12:30:03.000Z</time>
      </trkpt>
      <trkpt lat="47.02229" lon="-1.74427">
        <ele>70</ele>
        <time>2021-02-20T12:30:05.000Z</time>
      </trkpt>
      <trkpt lat="47.02232" lon="-1.74408">
        <ele>70</ele>
        <time>2021-02-20T12:30:07.000Z</time>
      </trkpt>
      <trkpt lat="47.02235" lon="-1.74389">
        <ele>70</ele>
        <time>2021-02-20T12:30:09.000Z</time>
      </trkpt>
      <trkpt lat="47.02237" lon="-1.7437">
        <ele>71</ele>
        <time>2021-02-20T12:30:11.000Z</time>
      </trkpt>
      <trkpt lat="47.02239" lon="-1.74351">
        <ele>71</ele>
        <time>2021-02-20T12:30:13.000Z</time>
      </trkpt>
      <trkpt lat="47.02242" lon="-1.74332">
        <ele>71</ele>
        <time>2021-02-20T12:30:15.000Z</time>
      </trkpt>
      <trkpt lat="47.02246" lon="-1.74313">
        <ele>72</ele>
        <time>2021-02-20T12:30:17.000Z</time>
      </trkpt>
      <trkpt lat="47.0225" lon="-1.74294">
        <ele>72</ele>
        <time>2021-02-20T12:30:19.000Z</time>
      </trkpt>
      <trkpt lat="47.02252" lon="-1.74276">
        <ele>72</ele>
        <time>2021-02-20T12:30:21.000Z</time>
      </trkpt>
      <trkpt lat="47.02255" lon="-1.74257">
        <ele>72</ele>
        <time>2021-02-20T12:30:23.000Z</time>
      </trkpt>
      <trkpt lat="47.02257" lon="-1.7424">
        <ele>72</ele>
        <time>2021-02-20T12:30:25.000Z</time>
      </trkpt>
      <trkpt lat="47.0226" lon="-1.74222">
        <ele>73</ele>
        <time>2021-02-20T12:30:27.000Z</time>
      </trkpt>
      <trkpt lat="47.02264" lon="-1.74203">
        <ele>73</ele>
        <time>2021-02-20T12:30:29.000Z</time>
      </trkpt>
      <trkpt lat="47.02267" lon="-1.74184">
        <ele>74</ele>
        <time>2021-02-20T12:30:31.000Z</time>
      </trkpt>
      <trkpt lat="47.0227" lon="-1.74166">
        <ele>74</ele>
        <time>2021-02-20T12:30:33.000Z</time>
      </trkpt>
      <trkpt lat="47.02272" lon="-1.74148">
        <ele>74</ele>
        <time>2021-02-20T12:30:35.000Z</time>
      </trkpt>
      <trkpt lat="47.02275" lon="-1.7413">
        <ele>74</ele>
        <time>2021-02-20T12:30:37.000Z</time>
      </trkpt>
      <trkpt lat="47.02277" lon="-1.74112">
        <ele>74</ele>
        <time>2021-02-20T12:30:39.000Z</time>
      </trkpt>
      <trkpt lat="47.02281" lon="-1.74095">
        <ele>74</ele>
        <time>2021-02-20T12:30:41.000Z</time>
      </trkpt>
      <trkpt lat="47.02284" lon="-1.74076">
        <ele>75</ele>
        <time>2021-02-20T12:30:43.000Z</time>
      </trkpt>
      <trkpt lat="47.02285" lon="-1.74057">
        <ele>75</ele>
        <time>2021-02-20T12:30:45.000Z</time>
      </trkpt>
      <trkpt lat="47.02286" lon="-1.74039">
        <ele>75</ele>
        <time>2021-02-20T12:30:47.000Z</time>
      </trkpt>
      <trkpt lat="47.02286" lon="-1.74019">
        <ele>75</ele>
        <time>2021-02-20T12:30:49.000Z</time>
      </trkpt>
      <trkpt lat="47.02286" lon="-1.74">
        <ele>75</ele>
        <time>2021-02-20T12:30:51.000Z</time>
      </trkpt>
      <trkpt lat="47.02284" lon="-1.73982">
        <ele>75</ele>
        <time>2021-02-20T12:30:53.000Z</time>
      </trkpt>
      <trkpt lat="47.02282" lon="-1.73964">
        <ele>75</ele>
        <time>2021-02-20T12:30:55.000Z</time>
      </trkpt>
      <trkpt lat="47.02281" lon="-1.73945">
        <ele>75</ele>
        <time>2021-02-20T12:30:57.000Z</time>
      </trkpt>
      <trkpt lat="47.0228" lon="-1.73927">
        <ele>76</ele>
        <time>2021-02-20T12:30:59.000Z</time>
      </trkpt>
      <trkpt lat="47.02278" lon="-1.73909">
        <ele>75</ele>
        <time>2021-02-20T12:31:01.000Z</time>
      </trkpt>
      <trkpt lat="47.02278" lon="-1.73891">
        <ele>74</ele>
        <time>2021-02-20T12:31:03.000Z</time>
      </trkpt>
      <trkpt lat="47.02277" lon="-1.73873">
        <ele>73</ele>
        <time>2021-02-20T12:31:05.000Z</time>
      </trkpt>
      <trkpt lat="47.02277" lon="-1.73856">
        <ele>73</ele>
        <time>2021-02-20T12:31:07.000Z</time>
      </trkpt>
      <trkpt lat="47.02277" lon="-1.73838">
        <ele>72</ele>
        <time>2021-02-20T12:31:09.000Z</time>
      </trkpt>
      <trkpt lat="47.02276" lon="-1.73821">
        <ele>72</ele>
        <time>2021-02-20T12:31:11.000Z</time>
      </trkpt>
      <trkpt lat="47.02276" lon="-1.73805">
        <ele>71</ele>
        <time>2021-02-20T12:31:13.000Z</time>
      </trkpt>
      <trkpt lat="47.02275" lon="-1.73788">
        <ele>71</ele>
        <time>2021-02-20T12:31:15.000Z</time>
      </trkpt>
      <trkpt lat="47.02275" lon="-1.73772">
        <ele>70</ele>
        <time>2021-02-20T12:31:17.000Z</time>
      </trkpt>
      <trkpt lat="47.02273" lon="-1.73758">
        <ele>70</ele>
        <time>2021-02-20T12:31:19.000Z</time>
      </trkpt>
      <trkpt lat="47.02281" lon="-1.73745">
        <ele>70</ele>
        <time>2021-02-20T12:31:22.000Z</time>
      </trkpt>
      <trkpt lat="47.02292" lon="-1.73741">
        <ele>71</ele>
        <time>2021-02-20T12:31:24.000Z</time>
      </trkpt>
      <trkpt lat="47.02305" lon="-1.7374">
        <ele>72</ele>
        <time>2021-02-20T12:31:26.000Z</time>
      </trkpt>
      <trkpt lat="47.02317" lon="-1.73738">
        <ele>72</ele>
        <time>2021-02-20T12:31:28.000Z</time>
      </trkpt>
      <trkpt lat="47.0233" lon="-1.73735">
        <ele>72</ele>
        <time>2021-02-20T12:31:30.000Z</time>
      </trkpt>
      <trkpt lat="47.02344" lon="-1.73733">
        <ele>72</ele>
        <time>2021-02-20T12:31:32.000Z</time>
      </trkpt>
      <trkpt lat="47.02357" lon="-1.7373">
        <ele>73</ele>
        <time>2021-02-20T12:31:34.000Z</time>
      </trkpt>
      <trkpt lat="47.02372" lon="-1.73728">
        <ele>73</ele>
        <time>2021-02-20T12:31:36.000Z</time>
      </trkpt>
      <trkpt lat="47.02386" lon="-1.73725">
        <ele>73</ele>
        <time>2021-02-20T12:31:38.000Z</time>
      </trkpt>
      <trkpt lat="47.02399" lon="-1.73722">
        <ele>73</ele>
        <time>2021-02-20T12:31:40.000Z</time>
      </trkpt>
      <trkpt lat="47.02412" lon="-1.7372">
        <ele>73</ele>
        <time>2021-02-20T12:31:42.000Z</time>
      </trkpt>
      <trkpt lat="47.02425" lon="-1.73718">
        <ele>74</ele>
        <time>2021-02-20T12:31:44.000Z</time>
      </trkpt>
      <trkpt lat="47.02438" lon="-1.73715">
        <ele>74</ele>
        <time>2021-02-20T12:31:46.000Z</time>
      </trkpt>
      <trkpt lat="47.02451" lon="-1.73712">
        <ele>75</ele>
        <time>2021-02-20T12:31:48.000Z</time>
      </trkpt>
      <trkpt lat="47.02463" lon="-1.7371">
        <ele>75</ele>
        <time>2021-02-20T12:31:50.000Z</time>
      </trkpt>
      <trkpt lat="47.02476" lon="-1.73707">
        <ele>76</ele>
        <time>2021-02-20T12:31:52.000Z</time>
      </trkpt>
      <trkpt lat="47.02488" lon="-1.73704">
        <ele>78</ele>
        <time>2021-02-20T12:31:54.000Z</time>
      </trkpt>
      <trkpt lat="47.02501" lon="-1.73701">
        <ele>78</ele>
        <time>2021-02-20T12:31:56.000Z</time>
      </trkpt>
      <trkpt lat="47.02514" lon="-1.73698">
        <ele>79</ele>
        <time>2021-02-20T12:31:58.000Z</time>
      </trkpt>
      <trkpt lat="47.02526" lon="-1.73696">
        <ele>79</ele>
        <time>2021-02-20T12:32:00.000Z</time>
      </trkpt>
      <trkpt lat="47.0254" lon="-1.73694">
        <ele>79</ele>
        <time>2021-02-20T12:32:02.000Z</time>
      </trkpt>
      <trkpt lat="47.02553" lon="-1.73692">
        <ele>79</ele>
        <time>2021-02-20T12:32:04.000Z</time>
      </trkpt>
      <trkpt lat="47.02566" lon="-1.73689">
        <ele>78</ele>
        <time>2021-02-20T12:32:06.000Z</time>
      </trkpt>
      <trkpt lat="47.02579" lon="-1.73687">
        <ele>78</ele>
        <time>2021-02-20T12:32:08.000Z</time>
      </trkpt>
      <trkpt lat="47.02593" lon="-1.73684">
        <ele>78</ele>
        <time>2021-02-20T12:32:10.000Z</time>
      </trkpt>
      <trkpt lat="47.02605" lon="-1.73682">
        <ele>78</ele>
        <time>2021-02-20T12:32:12.000Z</time>
      </trkpt>
      <trkpt lat="47.02619" lon="-1.73679">
        <ele>78</ele>
        <time>2021-02-20T12:32:14.000Z</time>
      </trkpt>
      <trkpt lat="47.02632" lon="-1.73677">
        <ele>78</ele>
        <time>2021-02-20T12:32:16.000Z</time>
      </trkpt>
      <trkpt lat="47.02644" lon="-1.73674">
        <ele>78</ele>
        <time>2021-02-20T12:32:18.000Z</time>
      </trkpt>
      <trkpt lat="47.02656" lon="-1.73672">
        <ele>79</ele>
        <time>2021-02-20T12:32:20.000Z</time>
      </trkpt>
      <trkpt lat="47.02669" lon="-1.7367">
        <ele>79</ele>
        <time>2021-02-20T12:32:22.000Z</time>
      </trkpt>
      <trkpt lat="47.02681" lon="-1.73668">
        <ele>79</ele>
        <time>2021-02-20T12:32:24.000Z</time>
      </trkpt>
      <trkpt lat="47.02693" lon="-1.73665">
        <ele>80</ele>
        <time>2021-02-20T12:32:26.000Z</time>
      </trkpt>
      <trkpt lat="47.02704" lon="-1.73662">
        <ele>80</ele>
        <time>2021-02-20T12:32:28.000Z</time>
      </trkpt>
      <trkpt lat="47.02716" lon="-1.73659">
        <ele>81</ele>
        <time>2021-02-20T12:32:30.000Z</time>
      </trkpt>
      <trkpt lat="47.02728" lon="-1.73656">
        <ele>81</ele>
        <time>2021-02-20T12:32:32.000Z</time>
      </trkpt>
      <trkpt lat="47.02741" lon="-1.73654">
        <ele>82</ele>
        <time>2021-02-20T12:32:34.000Z</time>
      </trkpt>
      <trkpt lat="47.02753" lon="-1.73652">
        <ele>82</ele>
        <time>2021-02-20T12:32:36.000Z</time>
      </trkpt>
      <trkpt lat="47.02765" lon="-1.7365">
        <ele>82</ele>
        <time>2021-02-20T12:32:38.000Z</time>
      </trkpt>
      <trkpt lat="47.02778" lon="-1.73648">
        <ele>82</ele>
        <time>2021-02-20T12:32:40.000Z</time>
      </trkpt>
      <trkpt lat="47.02791" lon="-1.73647">
        <ele>81</ele>
        <time>2021-02-20T12:32:42.000Z</time>
      </trkpt>
      <trkpt lat="47.02803" lon="-1.73644">
        <ele>81</ele>
        <time>2021-02-20T12:32:44.000Z</time>
      </trkpt>
      <trkpt lat="47.02815" lon="-1.73642">
        <ele>81</ele>
        <time>2021-02-20T12:32:46.000Z</time>
      </trkpt>
      <trkpt lat="47.02828" lon="-1.73641">
        <ele>80</ele>
        <time>2021-02-20T12:32:48.000Z</time>
      </trkpt>
      <trkpt lat="47.0284" lon="-1.73638">
        <ele>80</ele>
        <time>2021-02-20T12:32:50.000Z</time>
      </trkpt>
      <trkpt lat="47.02853" lon="-1.73636">
        <ele>80</ele>
        <time>2021-02-20T12:32:52.000Z</time>
      </trkpt>
      <trkpt lat="47.02866" lon="-1.73634">
        <ele>81</ele>
        <time>2021-02-20T12:32:54.000Z</time>
      </trkpt>
      <trkpt lat="47.02879" lon="-1.73631">
        <ele>81</ele>
        <time>2021-02-20T12:32:56.000Z</time>
      </trkpt>
      <trkpt lat="47.02891" lon="-1.73628">
        <ele>81</ele>
        <time>2021-02-20T12:32:58.000Z</time>
      </trkpt>
      <trkpt lat="47.02904" lon="-1.73626">
        <ele>81</ele>
        <time>2021-02-20T12:33:00.000Z</time>
      </trkpt>
      <trkpt lat="47.02917" lon="-1.73624">
        <ele>81</ele>
        <time>2021-02-20T12:33:02.000Z</time>
      </trkpt>
      <trkpt lat="47.02929" lon="-1.73621">
        <ele>81</ele>
        <time>2021-02-20T12:33:04.000Z</time>
      </trkpt>
      <trkpt lat="47.02942" lon="-1.73618">
        <ele>81</ele>
        <time>2021-02-20T12:33:06.000Z</time>
      </trkpt>
      <trkpt lat="47.02954" lon="-1.73616">
        <ele>81</ele>
        <time>2021-02-20T12:33:08.000Z</time>
      </trkpt>
      <trkpt lat="47.02967" lon="-1.73613">
        <ele>81</ele>
        <time>2021-02-20T12:33:10.000Z</time>
      </trkpt>
      <trkpt lat="47.02979" lon="-1.73611">
        <ele>81</ele>
        <time>2021-02-20T12:33:12.000Z</time>
      </trkpt>
      <trkpt lat="47.02992" lon="-1.73608">
        <ele>81</ele>
        <time>2021-02-20T12:33:14.000Z</time>
      </trkpt>
      <trkpt lat="47.03004" lon="-1.73606">
        <ele>81</ele>
        <time>2021-02-20T12:33:16.000Z</time>
      </trkpt>
      <trkpt lat="47.03016" lon="-1.73604">
        <ele>81</ele>
        <time>2021-02-20T12:33:18.000Z</time>
      </trkpt>
      <trkpt lat="47.03029" lon="-1.73602">
        <ele>82</ele>
        <time>2021-02-20T12:33:20.000Z</time>
      </trkpt>
      <trkpt lat="47.03041" lon="-1.73599">
        <ele>82</ele>
        <time>2021-02-20T12:33:22.000Z</time>
      </trkpt>
      <trkpt lat="47.03053" lon="-1.73597">
        <ele>82</ele>
        <time>2021-02-20T12:33:24.000Z</time>
      </trkpt>
      <trkpt lat="47.03065" lon="-1.73594">
        <ele>81</ele>
        <time>2021-02-20T12:33:26.000Z</time>
      </trkpt>
      <trkpt lat="47.03076" lon="-1.73583">
        <ele>81</ele>
        <time>2021-02-20T12:33:28.000Z</time>
      </trkpt>
      <trkpt lat="47.03082" lon="-1.73565">
        <ele>81</ele>
        <time>2021-02-20T12:33:30.000Z</time>
      </trkpt>
      <trkpt lat="47.03088" lon="-1.73549">
        <ele>81</ele>
        <time>2021-02-20T12:33:32.000Z</time>
      </trkpt>
      <trkpt lat="47.03094" lon="-1.73536">
        <ele>81</ele>
        <time>2021-02-20T12:33:34.000Z</time>
      </trkpt>
      <trkpt lat="47.03099" lon="-1.7352">
        <ele>81</ele>
        <time>2021-02-20T12:33:37.000Z</time>
      </trkpt>
      <trkpt lat="47.03104" lon="-1.73506">
        <ele>81</ele>
        <time>2021-02-20T12:34:05.000Z</time>
      </trkpt>
      <trkpt lat="47.03111" lon="-1.73489">
        <ele>82</ele>
        <time>2021-02-20T12:34:08.000Z</time>
      </trkpt>
      <trkpt lat="47.03117" lon="-1.73476">
        <ele>82</ele>
        <time>2021-02-20T12:34:10.000Z</time>
      </trkpt>
      <trkpt lat="47.03123" lon="-1.73462">
        <ele>82</ele>
        <time>2021-02-20T12:34:12.000Z</time>
      </trkpt>
      <trkpt lat="47.03129" lon="-1.73448">
        <ele>82</ele>
        <time>2021-02-20T12:34:14.000Z</time>
      </trkpt>
      <trkpt lat="47.03137" lon="-1.73431">
        <ele>82</ele>
        <time>2021-02-20T12:34:16.000Z</time>
      </trkpt>
      <trkpt lat="47.03143" lon="-1.73414">
        <ele>82</ele>
        <time>2021-02-20T12:34:18.000Z</time>
      </trkpt>
      <trkpt lat="47.03149" lon="-1.73396">
        <ele>83</ele>
        <time>2021-02-20T12:34:20.000Z</time>
      </trkpt>
      <trkpt lat="47.03154" lon="-1.73378">
        <ele>83</ele>
        <time>2021-02-20T12:34:22.000Z</time>
      </trkpt>
      <trkpt lat="47.03159" lon="-1.73361">
        <ele>83</ele>
        <time>2021-02-20T12:34:24.000Z</time>
      </trkpt>
      <trkpt lat="47.03164" lon="-1.73344">
        <ele>83</ele>
        <time>2021-02-20T12:34:26.000Z</time>
      </trkpt>
      <trkpt lat="47.0317" lon="-1.73327">
        <ele>83</ele>
        <time>2021-02-20T12:34:28.000Z</time>
      </trkpt>
      <trkpt lat="47.03177" lon="-1.7331">
        <ele>83</ele>
        <time>2021-02-20T12:34:30.000Z</time>
      </trkpt>
      <trkpt lat="47.03184" lon="-1.73293">
        <ele>83</ele>
        <time>2021-02-20T12:34:32.000Z</time>
      </trkpt>
      <trkpt lat="47.03192" lon="-1.73276">
        <ele>83</ele>
        <time>2021-02-20T12:34:34.000Z</time>
      </trkpt>
      <trkpt lat="47.03199" lon="-1.73259">
        <ele>83</ele>
        <time>2021-02-20T12:34:36.000Z</time>
      </trkpt>
      <trkpt lat="47.03206" lon="-1.73241">
        <ele>83</ele>
        <time>2021-02-20T12:34:38.000Z</time>
      </trkpt>
      <trkpt lat="47.03212" lon="-1.73224">
        <ele>83</ele>
        <time>2021-02-20T12:34:40.000Z</time>
      </trkpt>
      <trkpt lat="47.03219" lon="-1.73207">
        <ele>83</ele>
        <time>2021-02-20T12:34:42.000Z</time>
      </trkpt>
      <trkpt lat="47.03226" lon="-1.73189">
        <ele>83</ele>
        <time>2021-02-20T12:34:44.000Z</time>
      </trkpt>
      <trkpt lat="47.03232" lon="-1.73172">
        <ele>83</ele>
        <time>2021-02-20T12:34:46.000Z</time>
      </trkpt>
      <trkpt lat="47.03238" lon="-1.73154">
        <ele>83</ele>
        <time>2021-02-20T12:34:48.000Z</time>
      </trkpt>
      <trkpt lat="47.03243" lon="-1.73136">
        <ele>82</ele>
        <time>2021-02-20T12:34:50.000Z</time>
      </trkpt>
      <trkpt lat="47.03247" lon="-1.73117">
        <ele>82</ele>
        <time>2021-02-20T12:34:52.000Z</time>
      </trkpt>
      <trkpt lat="47.03248" lon="-1.73098">
        <ele>82</ele>
        <time>2021-02-20T12:34:54.000Z</time>
      </trkpt>
      <trkpt lat="47.03247" lon="-1.73079">
        <ele>82</ele>
        <time>2021-02-20T12:34:56.000Z</time>
      </trkpt>
      <trkpt lat="47.03245" lon="-1.73059">
        <ele>82</ele>
        <time>2021-02-20T12:34:58.000Z</time>
      </trkpt>
      <trkpt lat="47.03243" lon="-1.7304">
        <ele>82</ele>
        <time>2021-02-20T12:35:00.000Z</time>
      </trkpt>
      <trkpt lat="47.03241" lon="-1.73022">
        <ele>82</ele>
        <time>2021-02-20T12:35:02.000Z</time>
      </trkpt>
      <trkpt lat="47.0324" lon="-1.73003">
        <ele>82</ele>
        <time>2021-02-20T12:35:04.000Z</time>
      </trkpt>
      <trkpt lat="47.03238" lon="-1.72985">
        <ele>82</ele>
        <time>2021-02-20T12:35:06.000Z</time>
      </trkpt>
      <trkpt lat="47.03237" lon="-1.72968">
        <ele>82</ele>
        <time>2021-02-20T12:35:08.000Z</time>
      </trkpt>
      <trkpt lat="47.0324" lon="-1.7295">
        <ele>82</ele>
        <time>2021-02-20T12:35:10.000Z</time>
      </trkpt>
      <trkpt lat="47.03244" lon="-1.72933">
        <ele>82</ele>
        <time>2021-02-20T12:35:12.000Z</time>
      </trkpt>
      <trkpt lat="47.03247" lon="-1.72915">
        <ele>82</ele>
        <time>2021-02-20T12:35:14.000Z</time>
      </trkpt>
      <trkpt lat="47.03247" lon="-1.72897">
        <ele>82</ele>
        <time>2021-02-20T12:35:16.000Z</time>
      </trkpt>
      <trkpt lat="47.03247" lon="-1.72881">
        <ele>82</ele>
        <time>2021-02-20T12:35:18.000Z</time>
      </trkpt>
      <trkpt lat="47.03247" lon="-1.72864">
        <ele>82</ele>
        <time>2021-02-20T12:35:20.000Z</time>
      </trkpt>
      <trkpt lat="47.03247" lon="-1.72846">
        <ele>82</ele>
        <time>2021-02-20T12:35:22.000Z</time>
      </trkpt>
      <trkpt lat="47.03248" lon="-1.72828">
        <ele>82</ele>
        <time>2021-02-20T12:35:24.000Z</time>
      </trkpt>
      <trkpt lat="47.03248" lon="-1.7281">
        <ele>82</ele>
        <time>2021-02-20T12:35:26.000Z</time>
      </trkpt>
      <trkpt lat="47.03248" lon="-1.72792">
        <ele>82</ele>
        <time>2021-02-20T12:35:28.000Z</time>
      </trkpt>
      <trkpt lat="47.03248" lon="-1.72774">
        <ele>82</ele>
        <time>2021-02-20T12:35:30.000Z</time>
      </trkpt>
      <trkpt lat="47.03247" lon="-1.72757">
        <ele>82</ele>
        <time>2021-02-20T12:35:32.000Z</time>
      </trkpt>
      <trkpt lat="47.03247" lon="-1.72738">
        <ele>82</ele>
        <time>2021-02-20T12:35:34.000Z</time>
      </trkpt>
      <trkpt lat="47.03249" lon="-1.72721">
        <ele>81</ele>
        <time>2021-02-20T12:35:36.000Z</time>
      </trkpt>
      <trkpt lat="47.03254" lon="-1.72705">
        <ele>82</ele>
        <time>2021-02-20T12:35:38.000Z</time>
      </trkpt>
      <trkpt lat="47.03263" lon="-1.72692">
        <ele>81</ele>
        <time>2021-02-20T12:35:40.000Z</time>
      </trkpt>
      <trkpt lat="47.03273" lon="-1.7268">
        <ele>81</ele>
        <time>2021-02-20T12:35:42.000Z</time>
      </trkpt>
      <trkpt lat="47.03283" lon="-1.72668">
        <ele>81</ele>
        <time>2021-02-20T12:35:44.000Z</time>
      </trkpt>
      <trkpt lat="47.03294" lon="-1.72656">
        <ele>81</ele>
        <time>2021-02-20T12:35:46.000Z</time>
      </trkpt>
      <trkpt lat="47.03305" lon="-1.72644">
        <ele>82</ele>
        <time>2021-02-20T12:35:48.000Z</time>
      </trkpt>
      <trkpt lat="47.03315" lon="-1.72632">
        <ele>81</ele>
        <time>2021-02-20T12:35:50.000Z</time>
      </trkpt>
      <trkpt lat="47.03326" lon="-1.72619">
        <ele>81</ele>
        <time>2021-02-20T12:35:52.000Z</time>
      </trkpt>
      <trkpt lat="47.03336" lon="-1.72606">
        <ele>81</ele>
        <time>2021-02-20T12:35:54.000Z</time>
      </trkpt>
      <trkpt lat="47.03347" lon="-1.72593">
        <ele>81</ele>
        <time>2021-02-20T12:35:56.000Z</time>
      </trkpt>
      <trkpt lat="47.03357" lon="-1.7258">
        <ele>81</ele>
        <time>2021-02-20T12:35:58.000Z</time>
      </trkpt>
      <trkpt lat="47.03367" lon="-1.72567">
        <ele>81</ele>
        <time>2021-02-20T12:36:00.000Z</time>
      </trkpt>
      <trkpt lat="47.03377" lon="-1.72554">
        <ele>81</ele>
        <time>2021-02-20T12:36:02.000Z</time>
      </trkpt>
      <trkpt lat="47.03387" lon="-1.7254">
        <ele>81</ele>
        <time>2021-02-20T12:36:04.000Z</time>
      </trkpt>
      <trkpt lat="47.03397" lon="-1.72526">
        <ele>81</ele>
        <time>2021-02-20T12:36:06.000Z</time>
      </trkpt>
      <trkpt lat="47.03408" lon="-1.72513">
        <ele>80</ele>
        <time>2021-02-20T12:36:08.000Z</time>
      </trkpt>
      <trkpt lat="47.03419" lon="-1.72499">
        <ele>80</ele>
        <time>2021-02-20T12:36:10.000Z</time>
      </trkpt>
      <trkpt lat="47.0343" lon="-1.72485">
        <ele>80</ele>
        <time>2021-02-20T12:36:12.000Z</time>
      </trkpt>
      <trkpt lat="47.0344" lon="-1.72471">
        <ele>80</ele>
        <time>2021-02-20T12:36:14.000Z</time>
      </trkpt>
      <trkpt lat="47.03451" lon="-1.72458">
        <ele>80</ele>
        <time>2021-02-20T12:36:16.000Z</time>
      </trkpt>
      <trkpt lat="47.03462" lon="-1.72445">
        <ele>80</ele>
        <time>2021-02-20T12:36:18.000Z</time>
      </trkpt>
      <trkpt lat="47.03472" lon="-1.72431">
        <ele>80</ele>
        <time>2021-02-20T12:36:20.000Z</time>
      </trkpt>
      <trkpt lat="47.03482" lon="-1.72417">
        <ele>79</ele>
        <time>2021-02-20T12:36:22.000Z</time>
      </trkpt>
      <trkpt lat="47.03491" lon="-1.72403">
        <ele>79</ele>
        <time>2021-02-20T12:36:24.000Z</time>
      </trkpt>
      <trkpt lat="47.03501" lon="-1.72389">
        <ele>79</ele>
        <time>2021-02-20T12:36:26.000Z</time>
      </trkpt>
      <trkpt lat="47.03512" lon="-1.72376">
        <ele>80</ele>
        <time>2021-02-20T12:36:28.000Z</time>
      </trkpt>
      <trkpt lat="47.03523" lon="-1.72365">
        <ele>80</ele>
        <time>2021-02-20T12:36:30.000Z</time>
      </trkpt>
      <trkpt lat="47.03534" lon="-1.72353">
        <ele>80</ele>
        <time>2021-02-20T12:36:32.000Z</time>
      </trkpt>
      <trkpt lat="47.03545" lon="-1.72344">
        <ele>80</ele>
        <time>2021-02-20T12:36:34.000Z</time>
      </trkpt>
      <trkpt lat="47.03556" lon="-1.72334">
        <ele>81</ele>
        <time>2021-02-20T12:36:36.000Z</time>
      </trkpt>
      <trkpt lat="47.03567" lon="-1.72324">
        <ele>81</ele>
        <time>2021-02-20T12:36:38.000Z</time>
      </trkpt>
      <trkpt lat="47.03578" lon="-1.72313">
        <ele>82</ele>
        <time>2021-02-20T12:36:40.000Z</time>
      </trkpt>
      <trkpt lat="47.03589" lon="-1.72304">
        <ele>82</ele>
        <time>2021-02-20T12:36:42.000Z</time>
      </trkpt>
      <trkpt lat="47.03599" lon="-1.72294">
        <ele>82</ele>
        <time>2021-02-20T12:36:44.000Z</time>
      </trkpt>
      <trkpt lat="47.0361" lon="-1.72284">
        <ele>82</ele>
        <time>2021-02-20T12:36:46.000Z</time>
      </trkpt>
      <trkpt lat="47.03621" lon="-1.72273">
        <ele>82</ele>
        <time>2021-02-20T12:36:48.000Z</time>
      </trkpt>
      <trkpt lat="47.03632" lon="-1.72264">
        <ele>83</ele>
        <time>2021-02-20T12:36:50.000Z</time>
      </trkpt>
      <trkpt lat="47.03643" lon="-1.72254">
        <ele>83</ele>
        <time>2021-02-20T12:36:52.000Z</time>
      </trkpt>
      <trkpt lat="47.03654" lon="-1.72244">
        <ele>83</ele>
        <time>2021-02-20T12:36:54.000Z</time>
      </trkpt>
      <trkpt lat="47.03665" lon="-1.72235">
        <ele>83</ele>
        <time>2021-02-20T12:36:56.000Z</time>
      </trkpt>
      <trkpt lat="47.03675" lon="-1.72225">
        <ele>83</ele>
        <time>2021-02-20T12:36:58.000Z</time>
      </trkpt>
      <trkpt lat="47.03687" lon="-1.72216">
        <ele>83</ele>
        <time>2021-02-20T12:37:00.000Z</time>
      </trkpt>
      <trkpt lat="47.03698" lon="-1.72206">
        <ele>82</ele>
        <time>2021-02-20T12:37:02.000Z</time>
      </trkpt>
      <trkpt lat="47.0371" lon="-1.72196">
        <ele>83</ele>
        <time>2021-02-20T12:37:04.000Z</time>
      </trkpt>
      <trkpt lat="47.03722" lon="-1.72186">
        <ele>82</ele>
        <time>2021-02-20T12:37:06.000Z</time>
      </trkpt>
      <trkpt lat="47.03735" lon="-1.72176">
        <ele>82</ele>
        <time>2021-02-20T12:37:08.000Z</time>
      </trkpt>
      <trkpt lat="47.03749" lon="-1.7217">
        <ele>82</ele>
        <time>2021-02-20T12:37:10.000Z</time>
      </trkpt>
      <trkpt lat="47.03764" lon="-1.7217">
        <ele>82</ele>
        <time>2021-02-20T12:37:12.000Z</time>
      </trkpt>
      <trkpt lat="47.03778" lon="-1.72178">
        <ele>82</ele>
        <time>2021-02-20T12:37:14.000Z</time>
      </trkpt>
      <trkpt lat="47.03788" lon="-1.72195">
        <ele>82</ele>
        <time>2021-02-20T12:37:16.000Z</time>
      </trkpt>
      <trkpt lat="47.03798" lon="-1.72211">
        <ele>81</ele>
        <time>2021-02-20T12:37:18.000Z</time>
      </trkpt>
      <trkpt lat="47.03811" lon="-1.72222">
        <ele>81</ele>
        <time>2021-02-20T12:37:20.000Z</time>
      </trkpt>
      <trkpt lat="47.03824" lon="-1.72223">
        <ele>81</ele>
        <time>2021-02-20T12:37:22.000Z</time>
      </trkpt>
      <trkpt lat="47.03838" lon="-1.72217">
        <ele>81</ele>
        <time>2021-02-20T12:37:24.000Z</time>
      </trkpt>
      <trkpt lat="47.03852" lon="-1.72211">
        <ele>81</ele>
        <time>2021-02-20T12:37:26.000Z</time>
      </trkpt>
      <trkpt lat="47.03865" lon="-1.72206">
        <ele>82</ele>
        <time>2021-02-20T12:37:28.000Z</time>
      </trkpt>
      <trkpt lat="47.03879" lon="-1.72201">
        <ele>82</ele>
        <time>2021-02-20T12:37:30.000Z</time>
      </trkpt>
      <trkpt lat="47.03893" lon="-1.72197">
        <ele>82</ele>
        <time>2021-02-20T12:37:32.000Z</time>
      </trkpt>
      <trkpt lat="47.03908" lon="-1.72195">
        <ele>83</ele>
        <time>2021-02-20T12:37:34.000Z</time>
      </trkpt>
      <trkpt lat="47.03922" lon="-1.72193">
        <ele>83</ele>
        <time>2021-02-20T12:37:36.000Z</time>
      </trkpt>
      <trkpt lat="47.03936" lon="-1.72192">
        <ele>84</ele>
        <time>2021-02-20T12:37:38.000Z</time>
      </trkpt>
      <trkpt lat="47.0395" lon="-1.72192">
        <ele>84</ele>
        <time>2021-02-20T12:37:40.000Z</time>
      </trkpt>
      <trkpt lat="47.03963" lon="-1.72192">
        <ele>84</ele>
        <time>2021-02-20T12:37:42.000Z</time>
      </trkpt>
      <trkpt lat="47.03975" lon="-1.72192">
        <ele>85</ele>
        <time>2021-02-20T12:37:44.000Z</time>
      </trkpt>
      <trkpt lat="47.03984" lon="-1.72188">
        <ele>86</ele>
        <time>2021-02-20T12:37:46.000Z</time>
      </trkpt>
      <trkpt lat="47.03987" lon="-1.72173">
        <ele>86</ele>
        <time>2021-02-20T12:37:48.000Z</time>
      </trkpt>
      <trkpt lat="47.03986" lon="-1.72156">
        <ele>86</ele>
        <time>2021-02-20T12:37:50.000Z</time>
      </trkpt>
      <trkpt lat="47.0399" lon="-1.72138">
        <ele>86</ele>
        <time>2021-02-20T12:37:52.000Z</time>
      </trkpt>
      <trkpt lat="47.03999" lon="-1.72122">
        <ele>87</ele>
        <time>2021-02-20T12:37:54.000Z</time>
      </trkpt>
      <trkpt lat="47.0401" lon="-1.72111">
        <ele>87</ele>
        <time>2021-02-20T12:37:56.000Z</time>
      </trkpt>
      <trkpt lat="47.04022" lon="-1.72102">
        <ele>86</ele>
        <time>2021-02-20T12:37:58.000Z</time>
      </trkpt>
      <trkpt lat="47.04035" lon="-1.72093">
        <ele>86</ele>
        <time>2021-02-20T12:38:00.000Z</time>
      </trkpt>
      <trkpt lat="47.04046" lon="-1.72084">
        <ele>86</ele>
        <time>2021-02-20T12:38:02.000Z</time>
      </trkpt>
      <trkpt lat="47.04058" lon="-1.72075">
        <ele>86</ele>
        <time>2021-02-20T12:38:04.000Z</time>
      </trkpt>
      <trkpt lat="47.0407" lon="-1.72066">
        <ele>86</ele>
        <time>2021-02-20T12:38:06.000Z</time>
      </trkpt>
      <trkpt lat="47.04082" lon="-1.72057">
        <ele>87</ele>
        <time>2021-02-20T12:38:08.000Z</time>
      </trkpt>
      <trkpt lat="47.04094" lon="-1.72049">
        <ele>87</ele>
        <time>2021-02-20T12:38:10.000Z</time>
      </trkpt>
      <trkpt lat="47.04105" lon="-1.7204">
        <ele>87</ele>
        <time>2021-02-20T12:38:12.000Z</time>
      </trkpt>
      <trkpt lat="47.04117" lon="-1.72032">
        <ele>88</ele>
        <time>2021-02-20T12:38:14.000Z</time>
      </trkpt>
      <trkpt lat="47.04129" lon="-1.72023">
        <ele>88</ele>
        <time>2021-02-20T12:38:16.000Z</time>
      </trkpt>
      <trkpt lat="47.04141" lon="-1.72013">
        <ele>88</ele>
        <time>2021-02-20T12:38:18.000Z</time>
      </trkpt>
      <trkpt lat="47.04154" lon="-1.72003">
        <ele>88</ele>
        <time>2021-02-20T12:38:20.000Z</time>
      </trkpt>
      <trkpt lat="47.04167" lon="-1.71994">
        <ele>88</ele>
        <time>2021-02-20T12:38:22.000Z</time>
      </trkpt>
      <trkpt lat="47.04179" lon="-1.71985">
        <ele>88</ele>
        <time>2021-02-20T12:38:24.000Z</time>
      </trkpt>
      <trkpt lat="47.04191" lon="-1.71976">
        <ele>88</ele>
        <time>2021-02-20T12:38:26.000Z</time>
      </trkpt>
      <trkpt lat="47.04203" lon="-1.71967">
        <ele>88</ele>
        <time>2021-02-20T12:38:28.000Z</time>
      </trkpt>
      <trkpt lat="47.04215" lon="-1.71957">
        <ele>88</ele>
        <time>2021-02-20T12:38:30.000Z</time>
      </trkpt>
      <trkpt lat="47.04227" lon="-1.71949">
        <ele>88</ele>
        <time>2021-02-20T12:38:32.000Z</time>
      </trkpt>
      <trkpt lat="47.04239" lon="-1.71941">
        <ele>88</ele>
        <time>2021-02-20T12:38:34.000Z</time>
      </trkpt>
      <trkpt lat="47.04251" lon="-1.71934">
        <ele>88</ele>
        <time>2021-02-20T12:38:36.000Z</time>
      </trkpt>
      <trkpt lat="47.04264" lon="-1.71929">
        <ele>88</ele>
        <time>2021-02-20T12:38:38.000Z</time>
      </trkpt>
      <trkpt lat="47.04277" lon="-1.71925">
        <ele>88</ele>
        <time>2021-02-20T12:38:40.000Z</time>
      </trkpt>
      <trkpt lat="47.0429" lon="-1.7192">
        <ele>87</ele>
        <time>2021-02-20T12:38:42.000Z</time>
      </trkpt>
      <trkpt lat="47.04302" lon="-1.71916">
        <ele>87</ele>
        <time>2021-02-20T12:38:44.000Z</time>
      </trkpt>
      <trkpt lat="47.04316" lon="-1.71912">
        <ele>87</ele>
        <time>2021-02-20T12:38:46.000Z</time>
      </trkpt>
      <trkpt lat="47.04328" lon="-1.71908">
        <ele>88</ele>
        <time>2021-02-20T12:38:48.000Z</time>
      </trkpt>
      <trkpt lat="47.04341" lon="-1.71904">
        <ele>88</ele>
        <time>2021-02-20T12:38:50.000Z</time>
      </trkpt>
      <trkpt lat="47.04355" lon="-1.71898">
        <ele>88</ele>
        <time>2021-02-20T12:38:52.000Z</time>
      </trkpt>
      <trkpt lat="47.04368" lon="-1.71892">
        <ele>87</ele>
        <time>2021-02-20T12:38:54.000Z</time>
      </trkpt>
      <trkpt lat="47.04381" lon="-1.71882">
        <ele>87</ele>
        <time>2021-02-20T12:38:56.000Z</time>
      </trkpt>
      <trkpt lat="47.04393" lon="-1.7187">
        <ele>86</ele>
        <time>2021-02-20T12:38:58.000Z</time>
      </trkpt>
      <trkpt lat="47.04405" lon="-1.71855">
        <ele>85</ele>
        <time>2021-02-20T12:39:00.000Z</time>
      </trkpt>
      <trkpt lat="47.04417" lon="-1.7184">
        <ele>85</ele>
        <time>2021-02-20T12:39:02.000Z</time>
      </trkpt>
      <trkpt lat="47.04429" lon="-1.71825">
        <ele>85</ele>
        <time>2021-02-20T12:39:04.000Z</time>
      </trkpt>
      <trkpt lat="47.04441" lon="-1.7181">
        <ele>84</ele>
        <time>2021-02-20T12:39:06.000Z</time>
      </trkpt>
      <trkpt lat="47.04452" lon="-1.71798">
        <ele>85</ele>
        <time>2021-02-20T12:39:08.000Z</time>
      </trkpt>
      <trkpt lat="47.04457" lon="-1.71786">
        <ele>84</ele>
        <time>2021-02-20T12:39:11.000Z</time>
      </trkpt>
      <trkpt lat="47.04452" lon="-1.7177">
        <ele>83</ele>
        <time>2021-02-20T12:39:15.000Z</time>
      </trkpt>
      <trkpt lat="47.04444" lon="-1.71759">
        <ele>82</ele>
        <time>2021-02-20T12:39:17.000Z</time>
      </trkpt>
      <trkpt lat="47.04435" lon="-1.71748">
        <ele>82</ele>
        <time>2021-02-20T12:39:19.000Z</time>
      </trkpt>
      <trkpt lat="47.04426" lon="-1.71736">
        <ele>81</ele>
        <time>2021-02-20T12:39:21.000Z</time>
      </trkpt>
      <trkpt lat="47.04416" lon="-1.71723">
        <ele>81</ele>
        <time>2021-02-20T12:39:23.000Z</time>
      </trkpt>
      <trkpt lat="47.04406" lon="-1.7171">
        <ele>81</ele>
        <time>2021-02-20T12:39:25.000Z</time>
      </trkpt>
      <trkpt lat="47.04397" lon="-1.71697">
        <ele>81</ele>
        <time>2021-02-20T12:39:27.000Z</time>
      </trkpt>
      <trkpt lat="47.04387" lon="-1.71684">
        <ele>81</ele>
        <time>2021-02-20T12:39:29.000Z</time>
      </trkpt>
      <trkpt lat="47.04378" lon="-1.71672">
        <ele>81</ele>
        <time>2021-02-20T12:39:31.000Z</time>
      </trkpt>
      <trkpt lat="47.04369" lon="-1.7166">
        <ele>81</ele>
        <time>2021-02-20T12:39:33.000Z</time>
      </trkpt>
      <trkpt lat="47.04361" lon="-1.71648">
        <ele>81</ele>
        <time>2021-02-20T12:39:35.000Z</time>
      </trkpt>
      <trkpt lat="47.04353" lon="-1.71638">
        <ele>81</ele>
        <time>2021-02-20T12:39:37.000Z</time>
      </trkpt>
      <trkpt lat="47.04346" lon="-1.71626">
        <ele>80</ele>
        <time>2021-02-20T12:39:39.000Z</time>
      </trkpt>
      <trkpt lat="47.04339" lon="-1.71615">
        <ele>80</ele>
        <time>2021-02-20T12:39:41.000Z</time>
      </trkpt>
      <trkpt lat="47.04332" lon="-1.71603">
        <ele>80</ele>
        <time>2021-02-20T12:39:43.000Z</time>
      </trkpt>
      <trkpt lat="47.04324" lon="-1.7159">
        <ele>81</ele>
        <time>2021-02-20T12:39:45.000Z</time>
      </trkpt>
      <trkpt lat="47.04317" lon="-1.71576">
        <ele>81</ele>
        <time>2021-02-20T12:39:47.000Z</time>
      </trkpt>
      <trkpt lat="47.0431" lon="-1.71561">
        <ele>81</ele>
        <time>2021-02-20T12:39:49.000Z</time>
      </trkpt>
      <trkpt lat="47.04302" lon="-1.71546">
        <ele>81</ele>
        <time>2021-02-20T12:39:51.000Z</time>
      </trkpt>
      <trkpt lat="47.04295" lon="-1.7153">
        <ele>81</ele>
        <time>2021-02-20T12:39:53.000Z</time>
      </trkpt>
      <trkpt lat="47.04287" lon="-1.71514">
        <ele>81</ele>
        <time>2021-02-20T12:39:55.000Z</time>
      </trkpt>
      <trkpt lat="47.0428" lon="-1.71497">
        <ele>81</ele>
        <time>2021-02-20T12:39:57.000Z</time>
      </trkpt>
      <trkpt lat="47.04273" lon="-1.71481">
        <ele>81</ele>
        <time>2021-02-20T12:39:59.000Z</time>
      </trkpt>
      <trkpt lat="47.04265" lon="-1.71465">
        <ele>82</ele>
        <time>2021-02-20T12:40:01.000Z</time>
      </trkpt>
      <trkpt lat="47.04258" lon="-1.71448">
        <ele>82</ele>
        <time>2021-02-20T12:40:03.000Z</time>
      </trkpt>
      <trkpt lat="47.0425" lon="-1.71432">
        <ele>82</ele>
        <time>2021-02-20T12:40:05.000Z</time>
      </trkpt>
      <trkpt lat="47.04243" lon="-1.71415">
        <ele>82</ele>
        <time>2021-02-20T12:40:07.000Z</time>
      </trkpt>
      <trkpt lat="47.04235" lon="-1.71398">
        <ele>83</ele>
        <time>2021-02-20T12:40:09.000Z</time>
      </trkpt>
      <trkpt lat="47.04227" lon="-1.71382">
        <ele>83</ele>
        <time>2021-02-20T12:40:11.000Z</time>
      </trkpt>
      <trkpt lat="47.0422" lon="-1.71366">
        <ele>83</ele>
        <time>2021-02-20T12:40:13.000Z</time>
      </trkpt>
      <trkpt lat="47.04212" lon="-1.7135">
        <ele>83</ele>
        <time>2021-02-20T12:40:15.000Z</time>
      </trkpt>
      <trkpt lat="47.04206" lon="-1.71335">
        <ele>83</ele>
        <time>2021-02-20T12:40:17.000Z</time>
      </trkpt>
      <trkpt lat="47.042" lon="-1.71321">
        <ele>82</ele>
        <time>2021-02-20T12:40:19.000Z</time>
      </trkpt>
      <trkpt lat="47.04193" lon="-1.71307">
        <ele>81</ele>
        <time>2021-02-20T12:40:21.000Z</time>
      </trkpt>
      <trkpt lat="47.04187" lon="-1.71293">
        <ele>81</ele>
        <time>2021-02-20T12:40:23.000Z</time>
      </trkpt>
      <trkpt lat="47.04181" lon="-1.71278">
        <ele>81</ele>
        <time>2021-02-20T12:40:25.000Z</time>
      </trkpt>
      <trkpt lat="47.04175" lon="-1.71264">
        <ele>80</ele>
        <time>2021-02-20T12:40:27.000Z</time>
      </trkpt>
      <trkpt lat="47.04168" lon="-1.7125">
        <ele>79</ele>
        <time>2021-02-20T12:40:29.000Z</time>
      </trkpt>
      <trkpt lat="47.04162" lon="-1.71235">
        <ele>79</ele>
        <time>2021-02-20T12:40:31.000Z</time>
      </trkpt>
      <trkpt lat="47.04155" lon="-1.71221">
        <ele>78</ele>
        <time>2021-02-20T12:40:33.000Z</time>
      </trkpt>
      <trkpt lat="47.04149" lon="-1.71206">
        <ele>78</ele>
        <time>2021-02-20T12:40:35.000Z</time>
      </trkpt>
      <trkpt lat="47.04141" lon="-1.71189">
        <ele>77</ele>
        <time>2021-02-20T12:40:37.000Z</time>
      </trkpt>
      <trkpt lat="47.04134" lon="-1.71171">
        <ele>76</ele>
        <time>2021-02-20T12:40:39.000Z</time>
      </trkpt>
      <trkpt lat="47.04126" lon="-1.71154">
        <ele>76</ele>
        <time>2021-02-20T12:40:41.000Z</time>
      </trkpt>
      <trkpt lat="47.04117" lon="-1.71134">
        <ele>75</ele>
        <time>2021-02-20T12:40:43.000Z</time>
      </trkpt>
      <trkpt lat="47.04109" lon="-1.71116">
        <ele>74</ele>
        <time>2021-02-20T12:40:45.000Z</time>
      </trkpt>
      <trkpt lat="47.04102" lon="-1.71098">
        <ele>74</ele>
        <time>2021-02-20T12:40:47.000Z</time>
      </trkpt>
      <trkpt lat="47.04094" lon="-1.7108">
        <ele>74</ele>
        <time>2021-02-20T12:40:49.000Z</time>
      </trkpt>
      <trkpt lat="47.04087" lon="-1.71063">
        <ele>74</ele>
        <time>2021-02-20T12:40:51.000Z</time>
      </trkpt>
      <trkpt lat="47.04079" lon="-1.71046">
        <ele>74</ele>
        <time>2021-02-20T12:40:53.000Z</time>
      </trkpt>
      <trkpt lat="47.04072" lon="-1.7103">
        <ele>74</ele>
        <time>2021-02-20T12:40:55.000Z</time>
      </trkpt>
      <trkpt lat="47.04065" lon="-1.71015">
        <ele>75</ele>
        <time>2021-02-20T12:40:57.000Z</time>
      </trkpt>
      <trkpt lat="47.04058" lon="-1.70999">
        <ele>74</ele>
        <time>2021-02-20T12:40:59.000Z</time>
      </trkpt>
      <trkpt lat="47.04052" lon="-1.70984">
        <ele>74</ele>
        <time>2021-02-20T12:41:01.000Z</time>
      </trkpt>
      <trkpt lat="47.04045" lon="-1.70969">
        <ele>74</ele>
        <time>2021-02-20T12:41:03.000Z</time>
      </trkpt>
      <trkpt lat="47.04038" lon="-1.70954">
        <ele>74</ele>
        <time>2021-02-20T12:41:05.000Z</time>
      </trkpt>
      <trkpt lat="47.04032" lon="-1.70939">
        <ele>74</ele>
        <time>2021-02-20T12:41:07.000Z</time>
      </trkpt>
      <trkpt lat="47.04025" lon="-1.70924">
        <ele>75</ele>
        <time>2021-02-20T12:41:09.000Z</time>
      </trkpt>
      <trkpt lat="47.04018" lon="-1.7091">
        <ele>75</ele>
        <time>2021-02-20T12:41:11.000Z</time>
      </trkpt>
      <trkpt lat="47.04012" lon="-1.70895">
        <ele>76</ele>
        <time>2021-02-20T12:41:13.000Z</time>
      </trkpt>
      <trkpt lat="47.04005" lon="-1.70882">
        <ele>76</ele>
        <time>2021-02-20T12:41:15.000Z</time>
      </trkpt>
      <trkpt lat="47.03999" lon="-1.70868">
        <ele>76</ele>
        <time>2021-02-20T12:41:17.000Z</time>
      </trkpt>
      <trkpt lat="47.03994" lon="-1.70855">
        <ele>77</ele>
        <time>2021-02-20T12:41:19.000Z</time>
      </trkpt>
      <trkpt lat="47.03987" lon="-1.70841">
        <ele>78</ele>
        <time>2021-02-20T12:41:21.000Z</time>
      </trkpt>
      <trkpt lat="47.03981" lon="-1.70826">
        <ele>78</ele>
        <time>2021-02-20T12:41:23.000Z</time>
      </trkpt>
      <trkpt lat="47.03975" lon="-1.70812">
        <ele>78</ele>
        <time>2021-02-20T12:41:25.000Z</time>
      </trkpt>
      <trkpt lat="47.03969" lon="-1.70798">
        <ele>78</ele>
        <time>2021-02-20T12:41:27.000Z</time>
      </trkpt>
      <trkpt lat="47.03962" lon="-1.70783">
        <ele>78</ele>
        <time>2021-02-20T12:41:29.000Z</time>
      </trkpt>
      <trkpt lat="47.03956" lon="-1.70769">
        <ele>78</ele>
        <time>2021-02-20T12:41:31.000Z</time>
      </trkpt>
      <trkpt lat="47.0395" lon="-1.70755">
        <ele>78</ele>
        <time>2021-02-20T12:41:33.000Z</time>
      </trkpt>
      <trkpt lat="47.03944" lon="-1.70741">
        <ele>79</ele>
        <time>2021-02-20T12:41:35.000Z</time>
      </trkpt>
      <trkpt lat="47.03938" lon="-1.70727">
        <ele>79</ele>
        <time>2021-02-20T12:41:37.000Z</time>
      </trkpt>
      <trkpt lat="47.03932" lon="-1.70713">
        <ele>79</ele>
        <time>2021-02-20T12:41:39.000Z</time>
      </trkpt>
      <trkpt lat="47.03926" lon="-1.70699">
        <ele>79</ele>
        <time>2021-02-20T12:41:41.000Z</time>
      </trkpt>
      <trkpt lat="47.03919" lon="-1.70685">
        <ele>79</ele>
        <time>2021-02-20T12:41:43.000Z</time>
      </trkpt>
      <trkpt lat="47.03913" lon="-1.70672">
        <ele>80</ele>
        <time>2021-02-20T12:41:45.000Z</time>
      </trkpt>
      <trkpt lat="47.03906" lon="-1.70657">
        <ele>79</ele>
        <time>2021-02-20T12:41:47.000Z</time>
      </trkpt>
      <trkpt lat="47.039" lon="-1.70642">
        <ele>80</ele>
        <time>2021-02-20T12:41:49.000Z</time>
      </trkpt>
      <trkpt lat="47.03894" lon="-1.70628">
        <ele>80</ele>
        <time>2021-02-20T12:41:51.000Z</time>
      </trkpt>
      <trkpt lat="47.03888" lon="-1.70614">
        <ele>80</ele>
        <time>2021-02-20T12:41:53.000Z</time>
      </trkpt>
      <trkpt lat="47.03882" lon="-1.706">
        <ele>80</ele>
        <time>2021-02-20T12:41:55.000Z</time>
      </trkpt>
      <trkpt lat="47.03878" lon="-1.70585">
        <ele>81</ele>
        <time>2021-02-20T12:41:57.000Z</time>
      </trkpt>
      <trkpt lat="47.03873" lon="-1.7057">
        <ele>81</ele>
        <time>2021-02-20T12:41:59.000Z</time>
      </trkpt>
      <trkpt lat="47.0387" lon="-1.70553">
        <ele>81</ele>
        <time>2021-02-20T12:42:01.000Z</time>
      </trkpt>
      <trkpt lat="47.03867" lon="-1.70537">
        <ele>81</ele>
        <time>2021-02-20T12:42:03.000Z</time>
      </trkpt>
      <trkpt lat="47.03866" lon="-1.7052">
        <ele>82</ele>
        <time>2021-02-20T12:42:05.000Z</time>
      </trkpt>
      <trkpt lat="47.03865" lon="-1.70503">
        <ele>82</ele>
        <time>2021-02-20T12:42:07.000Z</time>
      </trkpt>
      <trkpt lat="47.03865" lon="-1.70486">
        <ele>82</ele>
        <time>2021-02-20T12:42:09.000Z</time>
      </trkpt>
      <trkpt lat="47.03864" lon="-1.7047">
        <ele>83</ele>
        <time>2021-02-20T12:42:11.000Z</time>
      </trkpt>
      <trkpt lat="47.03864" lon="-1.70454">
        <ele>83</ele>
        <time>2021-02-20T12:42:13.000Z</time>
      </trkpt>
      <trkpt lat="47.03864" lon="-1.7044">
        <ele>83</ele>
        <time>2021-02-20T12:42:15.000Z</time>
      </trkpt>
      <trkpt lat="47.03864" lon="-1.70426">
        <ele>84</ele>
        <time>2021-02-20T12:42:17.000Z</time>
      </trkpt>
      <trkpt lat="47.03865" lon="-1.70412">
        <ele>84</ele>
        <time>2021-02-20T12:42:19.000Z</time>
      </trkpt>
      <trkpt lat="47.03865" lon="-1.70397">
        <ele>84</ele>
        <time>2021-02-20T12:42:21.000Z</time>
      </trkpt>
      <trkpt lat="47.03866" lon="-1.70382">
        <ele>83</ele>
        <time>2021-02-20T12:42:23.000Z</time>
      </trkpt>
      <trkpt lat="47.03866" lon="-1.70366">
        <ele>83</ele>
        <time>2021-02-20T12:42:25.000Z</time>
      </trkpt>
      <trkpt lat="47.03867" lon="-1.7035">
        <ele>83</ele>
        <time>2021-02-20T12:42:27.000Z</time>
      </trkpt>
      <trkpt lat="47.03868" lon="-1.70335">
        <ele>83</ele>
        <time>2021-02-20T12:42:29.000Z</time>
      </trkpt>
      <trkpt lat="47.03869" lon="-1.70318">
        <ele>83</ele>
        <time>2021-02-20T12:42:31.000Z</time>
      </trkpt>
      <trkpt lat="47.0387" lon="-1.70302">
        <ele>83</ele>
        <time>2021-02-20T12:42:33.000Z</time>
      </trkpt>
      <trkpt lat="47.0387" lon="-1.70285">
        <ele>83</ele>
        <time>2021-02-20T12:42:35.000Z</time>
      </trkpt>
      <trkpt lat="47.03871" lon="-1.70268">
        <ele>83</ele>
        <time>2021-02-20T12:42:37.000Z</time>
      </trkpt>
      <trkpt lat="47.03873" lon="-1.7025">
        <ele>82</ele>
        <time>2021-02-20T12:42:39.000Z</time>
      </trkpt>
      <trkpt lat="47.03873" lon="-1.70233">
        <ele>82</ele>
        <time>2021-02-20T12:42:41.000Z</time>
      </trkpt>
      <trkpt lat="47.03874" lon="-1.70215">
        <ele>82</ele>
        <time>2021-02-20T12:42:43.000Z</time>
      </trkpt>
      <trkpt lat="47.03875" lon="-1.70197">
        <ele>82</ele>
        <time>2021-02-20T12:42:45.000Z</time>
      </trkpt>
      <trkpt lat="47.03877" lon="-1.70178">
        <ele>81</ele>
        <time>2021-02-20T12:42:47.000Z</time>
      </trkpt>
      <trkpt lat="47.03877" lon="-1.70159">
        <ele>81</ele>
        <time>2021-02-20T12:42:49.000Z</time>
      </trkpt>
      <trkpt lat="47.03878" lon="-1.70139">
        <ele>80</ele>
        <time>2021-02-20T12:42:51.000Z</time>
      </trkpt>
      <trkpt lat="47.03879" lon="-1.70119">
        <ele>80</ele>
        <time>2021-02-20T12:42:53.000Z</time>
      </trkpt>
      <trkpt lat="47.0388" lon="-1.70098">
        <ele>79</ele>
        <time>2021-02-20T12:42:55.000Z</time>
      </trkpt>
      <trkpt lat="47.0388" lon="-1.70078">
        <ele>79</ele>
        <time>2021-02-20T12:42:57.000Z</time>
      </trkpt>
      <trkpt lat="47.0388" lon="-1.70058">
        <ele>79</ele>
        <time>2021-02-20T12:42:59.000Z</time>
      </trkpt>
      <trkpt lat="47.03877" lon="-1.70038">
        <ele>79</ele>
        <time>2021-02-20T12:43:01.000Z</time>
      </trkpt>
      <trkpt lat="47.03874" lon="-1.7002">
        <ele>79</ele>
        <time>2021-02-20T12:43:03.000Z</time>
      </trkpt>
      <trkpt lat="47.03868" lon="-1.70003">
        <ele>79</ele>
        <time>2021-02-20T12:43:05.000Z</time>
      </trkpt>
      <trkpt lat="47.0386" lon="-1.69987">
        <ele>79</ele>
        <time>2021-02-20T12:43:07.000Z</time>
      </trkpt>
      <trkpt lat="47.03853" lon="-1.69971">
        <ele>79</ele>
        <time>2021-02-20T12:43:09.000Z</time>
      </trkpt>
      <trkpt lat="47.03845" lon="-1.69955">
        <ele>79</ele>
        <time>2021-02-20T12:43:11.000Z</time>
      </trkpt>
      <trkpt lat="47.03837" lon="-1.69941">
        <ele>80</ele>
        <time>2021-02-20T12:43:13.000Z</time>
      </trkpt>
      <trkpt lat="47.03829" lon="-1.69926">
        <ele>80</ele>
        <time>2021-02-20T12:43:15.000Z</time>
      </trkpt>
      <trkpt lat="47.03821" lon="-1.69911">
        <ele>80</ele>
        <time>2021-02-20T12:43:17.000Z</time>
      </trkpt>
      <trkpt lat="47.03813" lon="-1.69896">
        <ele>80</ele>
        <time>2021-02-20T12:43:19.000Z</time>
      </trkpt>
      <trkpt lat="47.03805" lon="-1.69881">
        <ele>80</ele>
        <time>2021-02-20T12:43:21.000Z</time>
      </trkpt>
      <trkpt lat="47.03798" lon="-1.69866">
        <ele>81</ele>
        <time>2021-02-20T12:43:23.000Z</time>
      </trkpt>
      <trkpt lat="47.0379" lon="-1.69852">
        <ele>80</ele>
        <time>2021-02-20T12:43:25.000Z</time>
      </trkpt>
      <trkpt lat="47.03783" lon="-1.69838">
        <ele>81</ele>
        <time>2021-02-20T12:43:27.000Z</time>
      </trkpt>
      <trkpt lat="47.03776" lon="-1.69824">
        <ele>81</ele>
        <time>2021-02-20T12:43:29.000Z</time>
      </trkpt>
      <trkpt lat="47.03769" lon="-1.69809">
        <ele>81</ele>
        <time>2021-02-20T12:43:31.000Z</time>
      </trkpt>
      <trkpt lat="47.03761" lon="-1.69795">
        <ele>81</ele>
        <time>2021-02-20T12:43:33.000Z</time>
      </trkpt>
      <trkpt lat="47.03755" lon="-1.69781">
        <ele>81</ele>
        <time>2021-02-20T12:43:35.000Z</time>
      </trkpt>
      <trkpt lat="47.03747" lon="-1.69767">
        <ele>81</ele>
        <time>2021-02-20T12:43:37.000Z</time>
      </trkpt>
      <trkpt lat="47.0374" lon="-1.69753">
        <ele>82</ele>
        <time>2021-02-20T12:43:39.000Z</time>
      </trkpt>
      <trkpt lat="47.03732" lon="-1.69739">
        <ele>82</ele>
        <time>2021-02-20T12:43:41.000Z</time>
      </trkpt>
      <trkpt lat="47.03725" lon="-1.69724">
        <ele>82</ele>
        <time>2021-02-20T12:43:43.000Z</time>
      </trkpt>
      <trkpt lat="47.03717" lon="-1.69711">
        <ele>82</ele>
        <time>2021-02-20T12:43:45.000Z</time>
      </trkpt>
      <trkpt lat="47.0371" lon="-1.69697">
        <ele>82</ele>
        <time>2021-02-20T12:43:47.000Z</time>
      </trkpt>
      <trkpt lat="47.03703" lon="-1.69683">
        <ele>83</ele>
        <time>2021-02-20T12:43:49.000Z</time>
      </trkpt>
      <trkpt lat="47.03696" lon="-1.69669">
        <ele>83</ele>
        <time>2021-02-20T12:43:51.000Z</time>
      </trkpt>
      <trkpt lat="47.03689" lon="-1.69655">
        <ele>83</ele>
        <time>2021-02-20T12:43:53.000Z</time>
      </trkpt>
      <trkpt lat="47.03682" lon="-1.69641">
        <ele>83</ele>
        <time>2021-02-20T12:43:55.000Z</time>
      </trkpt>
      <trkpt lat="47.03675" lon="-1.69627">
        <ele>84</ele>
        <time>2021-02-20T12:43:57.000Z</time>
      </trkpt>
      <trkpt lat="47.03668" lon="-1.69613">
        <ele>83</ele>
        <time>2021-02-20T12:43:59.000Z</time>
      </trkpt>
      <trkpt lat="47.03662" lon="-1.69599">
        <ele>84</ele>
        <time>2021-02-20T12:44:01.000Z</time>
      </trkpt>
      <trkpt lat="47.03656" lon="-1.69585">
        <ele>84</ele>
        <time>2021-02-20T12:44:03.000Z</time>
      </trkpt>
      <trkpt lat="47.03651" lon="-1.69572">
        <ele>84</ele>
        <time>2021-02-20T12:44:05.000Z</time>
      </trkpt>
      <trkpt lat="47.03647" lon="-1.69558">
        <ele>84</ele>
        <time>2021-02-20T12:44:07.000Z</time>
      </trkpt>
      <trkpt lat="47.03643" lon="-1.69545">
        <ele>84</ele>
        <time>2021-02-20T12:44:09.000Z</time>
      </trkpt>
      <trkpt lat="47.0364" lon="-1.69529">
        <ele>83</ele>
        <time>2021-02-20T12:44:11.000Z</time>
      </trkpt>
      <trkpt lat="47.03637" lon="-1.69513">
        <ele>84</ele>
        <time>2021-02-20T12:44:13.000Z</time>
      </trkpt>
      <trkpt lat="47.03634" lon="-1.69497">
        <ele>84</ele>
        <time>2021-02-20T12:44:15.000Z</time>
      </trkpt>
      <trkpt lat="47.03631" lon="-1.69481">
        <ele>83</ele>
        <time>2021-02-20T12:44:17.000Z</time>
      </trkpt>
      <trkpt lat="47.03628" lon="-1.69463">
        <ele>84</ele>
        <time>2021-02-20T12:44:19.000Z</time>
      </trkpt>
      <trkpt lat="47.03625" lon="-1.69446">
        <ele>84</ele>
        <time>2021-02-20T12:44:21.000Z</time>
      </trkpt>
      <trkpt lat="47.03622" lon="-1.69429">
        <ele>84</ele>
        <time>2021-02-20T12:44:23.000Z</time>
      </trkpt>
      <trkpt lat="47.03619" lon="-1.69413">
        <ele>84</ele>
        <time>2021-02-20T12:44:25.000Z</time>
      </trkpt>
      <trkpt lat="47.03616" lon="-1.69397">
        <ele>84</ele>
        <time>2021-02-20T12:44:27.000Z</time>
      </trkpt>
      <trkpt lat="47.03614" lon="-1.69381">
        <ele>85</ele>
        <time>2021-02-20T12:44:29.000Z</time>
      </trkpt>
      <trkpt lat="47.03611" lon="-1.69366">
        <ele>84</ele>
        <time>2021-02-20T12:44:31.000Z</time>
      </trkpt>
      <trkpt lat="47.03608" lon="-1.6935">
        <ele>84</ele>
        <time>2021-02-20T12:44:33.000Z</time>
      </trkpt>
      <trkpt lat="47.03606" lon="-1.69335">
        <ele>84</ele>
        <time>2021-02-20T12:44:35.000Z</time>
      </trkpt>
      <trkpt lat="47.03603" lon="-1.69318">
        <ele>83</ele>
        <time>2021-02-20T12:44:37.000Z</time>
      </trkpt>
      <trkpt lat="47.03601" lon="-1.69303">
        <ele>83</ele>
        <time>2021-02-20T12:44:39.000Z</time>
      </trkpt>
      <trkpt lat="47.03598" lon="-1.69288">
        <ele>83</ele>
        <time>2021-02-20T12:44:41.000Z</time>
      </trkpt>
      <trkpt lat="47.03596" lon="-1.69273">
        <ele>83</ele>
        <time>2021-02-20T12:44:43.000Z</time>
      </trkpt>
      <trkpt lat="47.03593" lon="-1.69257">
        <ele>83</ele>
        <time>2021-02-20T12:44:45.000Z</time>
      </trkpt>
      <trkpt lat="47.0359" lon="-1.69241">
        <ele>83</ele>
        <time>2021-02-20T12:44:47.000Z</time>
      </trkpt>
      <trkpt lat="47.03587" lon="-1.69225">
        <ele>84</ele>
        <time>2021-02-20T12:44:49.000Z</time>
      </trkpt>
      <trkpt lat="47.03584" lon="-1.69209">
        <ele>84</ele>
        <time>2021-02-20T12:44:51.000Z</time>
      </trkpt>
      <trkpt lat="47.03581" lon="-1.69193">
        <ele>84</ele>
        <time>2021-02-20T12:44:53.000Z</time>
      </trkpt>
      <trkpt lat="47.03578" lon="-1.69176">
        <ele>84</ele>
        <time>2021-02-20T12:44:55.000Z</time>
      </trkpt>
      <trkpt lat="47.03576" lon="-1.6916">
        <ele>84</ele>
        <time>2021-02-20T12:44:57.000Z</time>
      </trkpt>
      <trkpt lat="47.03572" lon="-1.69143">
        <ele>84</ele>
        <time>2021-02-20T12:44:59.000Z</time>
      </trkpt>
      <trkpt lat="47.0357" lon="-1.69126">
        <ele>84</ele>
        <time>2021-02-20T12:45:01.000Z</time>
      </trkpt>
      <trkpt lat="47.03567" lon="-1.69109">
        <ele>84</ele>
        <time>2021-02-20T12:45:03.000Z</time>
      </trkpt>
      <trkpt lat="47.03564" lon="-1.69093">
        <ele>84</ele>
        <time>2021-02-20T12:45:05.000Z</time>
      </trkpt>
      <trkpt lat="47.03561" lon="-1.69077">
        <ele>84</ele>
        <time>2021-02-20T12:45:07.000Z</time>
      </trkpt>
      <trkpt lat="47.03559" lon="-1.69061">
        <ele>84</ele>
        <time>2021-02-20T12:45:09.000Z</time>
      </trkpt>
      <trkpt lat="47.03556" lon="-1.69045">
        <ele>84</ele>
        <time>2021-02-20T12:45:11.000Z</time>
      </trkpt>
      <trkpt lat="47.03554" lon="-1.69028">
        <ele>84</ele>
        <time>2021-02-20T12:45:13.000Z</time>
      </trkpt>
      <trkpt lat="47.03552" lon="-1.6901">
        <ele>84</ele>
        <time>2021-02-20T12:45:15.000Z</time>
      </trkpt>
      <trkpt lat="47.03551" lon="-1.68992">
        <ele>84</ele>
        <time>2021-02-20T12:45:17.000Z</time>
      </trkpt>
      <trkpt lat="47.0355" lon="-1.68973">
        <ele>84</ele>
        <time>2021-02-20T12:45:19.000Z</time>
      </trkpt>
      <trkpt lat="47.03549" lon="-1.68953">
        <ele>83</ele>
        <time>2021-02-20T12:45:21.000Z</time>
      </trkpt>
      <trkpt lat="47.03548" lon="-1.68934">
        <ele>83</ele>
        <time>2021-02-20T12:45:23.000Z</time>
      </trkpt>
      <trkpt lat="47.03547" lon="-1.68914">
        <ele>83</ele>
        <time>2021-02-20T12:45:25.000Z</time>
      </trkpt>
      <trkpt lat="47.03546" lon="-1.68894">
        <ele>82</ele>
        <time>2021-02-20T12:45:27.000Z</time>
      </trkpt>
      <trkpt lat="47.03545" lon="-1.68874">
        <ele>82</ele>
        <time>2021-02-20T12:45:29.000Z</time>
      </trkpt>
      <trkpt lat="47.03544" lon="-1.68853">
        <ele>82</ele>
        <time>2021-02-20T12:45:31.000Z</time>
      </trkpt>
      <trkpt lat="47.03543" lon="-1.68832">
        <ele>82</ele>
        <time>2021-02-20T12:45:33.000Z</time>
      </trkpt>
      <trkpt lat="47.03542" lon="-1.68811">
        <ele>82</ele>
        <time>2021-02-20T12:45:35.000Z</time>
      </trkpt>
      <trkpt lat="47.03541" lon="-1.6879">
        <ele>81</ele>
        <time>2021-02-20T12:45:37.000Z</time>
      </trkpt>
      <trkpt lat="47.0354" lon="-1.68771">
        <ele>81</ele>
        <time>2021-02-20T12:45:39.000Z</time>
      </trkpt>
      <trkpt lat="47.03539" lon="-1.68752">
        <ele>81</ele>
        <time>2021-02-20T12:45:41.000Z</time>
      </trkpt>
      <trkpt lat="47.03538" lon="-1.68733">
        <ele>82</ele>
        <time>2021-02-20T12:45:43.000Z</time>
      </trkpt>
      <trkpt lat="47.03537" lon="-1.68715">
        <ele>82</ele>
        <time>2021-02-20T12:45:45.000Z</time>
      </trkpt>
      <trkpt lat="47.03536" lon="-1.68696">
        <ele>82</ele>
        <time>2021-02-20T12:45:47.000Z</time>
      </trkpt>
      <trkpt lat="47.03535" lon="-1.68677">
        <ele>83</ele>
        <time>2021-02-20T12:45:49.000Z</time>
      </trkpt>
      <trkpt lat="47.03534" lon="-1.68659">
        <ele>83</ele>
        <time>2021-02-20T12:45:51.000Z</time>
      </trkpt>
      <trkpt lat="47.03534" lon="-1.68642">
        <ele>82</ele>
        <time>2021-02-20T12:45:53.000Z</time>
      </trkpt>
      <trkpt lat="47.03533" lon="-1.68623">
        <ele>82</ele>
        <time>2021-02-20T12:45:55.000Z</time>
      </trkpt>
      <trkpt lat="47.03532" lon="-1.68606">
        <ele>82</ele>
        <time>2021-02-20T12:45:57.000Z</time>
      </trkpt>
      <trkpt lat="47.03531" lon="-1.68587">
        <ele>83</ele>
        <time>2021-02-20T12:45:59.000Z</time>
      </trkpt>
      <trkpt lat="47.0353" lon="-1.68569">
        <ele>83</ele>
        <time>2021-02-20T12:46:01.000Z</time>
      </trkpt>
      <trkpt lat="47.0353" lon="-1.6855">
        <ele>82</ele>
        <time>2021-02-20T12:46:03.000Z</time>
      </trkpt>
      <trkpt lat="47.03529" lon="-1.68532">
        <ele>83</ele>
        <time>2021-02-20T12:46:05.000Z</time>
      </trkpt>
      <trkpt lat="47.03528" lon="-1.68515">
        <ele>83</ele>
        <time>2021-02-20T12:46:07.000Z</time>
      </trkpt>
      <trkpt lat="47.03527" lon="-1.68497">
        <ele>83</ele>
        <time>2021-02-20T12:46:09.000Z</time>
      </trkpt>
      <trkpt lat="47.03527" lon="-1.68479">
        <ele>83</ele>
        <time>2021-02-20T12:46:11.000Z</time>
      </trkpt>
      <trkpt lat="47.03526" lon="-1.68463">
        <ele>83</ele>
        <time>2021-02-20T12:46:13.000Z</time>
      </trkpt>
      <trkpt lat="47.03525" lon="-1.68447">
        <ele>83</ele>
        <time>2021-02-20T12:46:15.000Z</time>
      </trkpt>
      <trkpt lat="47.03524" lon="-1.6843">
        <ele>83</ele>
        <time>2021-02-20T12:46:17.000Z</time>
      </trkpt>
      <trkpt lat="47.03523" lon="-1.68414">
        <ele>83</ele>
        <time>2021-02-20T12:46:19.000Z</time>
      </trkpt>
      <trkpt lat="47.03523" lon="-1.68396">
        <ele>83</ele>
        <time>2021-02-20T12:46:21.000Z</time>
      </trkpt>
      <trkpt lat="47.03522" lon="-1.68378">
        <ele>83</ele>
        <time>2021-02-20T12:46:23.000Z</time>
      </trkpt>
      <trkpt lat="47.03521" lon="-1.6836">
        <ele>83</ele>
        <time>2021-02-20T12:46:25.000Z</time>
      </trkpt>
      <trkpt lat="47.0352" lon="-1.68342">
        <ele>83</ele>
        <time>2021-02-20T12:46:27.000Z</time>
      </trkpt>
      <trkpt lat="47.0352" lon="-1.68324">
        <ele>82</ele>
        <time>2021-02-20T12:46:29.000Z</time>
      </trkpt>
      <trkpt lat="47.03519" lon="-1.68306">
        <ele>82</ele>
        <time>2021-02-20T12:46:31.000Z</time>
      </trkpt>
      <trkpt lat="47.03519" lon="-1.68287">
        <ele>82</ele>
        <time>2021-02-20T12:46:33.000Z</time>
      </trkpt>
      <trkpt lat="47.03519" lon="-1.68269">
        <ele>82</ele>
        <time>2021-02-20T12:46:35.000Z</time>
      </trkpt>
      <trkpt lat="47.03518" lon="-1.6825">
        <ele>82</ele>
        <time>2021-02-20T12:46:37.000Z</time>
      </trkpt>
      <trkpt lat="47.03518" lon="-1.68231">
        <ele>81</ele>
        <time>2021-02-20T12:46:39.000Z</time>
      </trkpt>
      <trkpt lat="47.03518" lon="-1.68211">
        <ele>80</ele>
        <time>2021-02-20T12:46:41.000Z</time>
      </trkpt>
      <trkpt lat="47.03518" lon="-1.68191">
        <ele>80</ele>
        <time>2021-02-20T12:46:43.000Z</time>
      </trkpt>
      <trkpt lat="47.03518" lon="-1.6817">
        <ele>79</ele>
        <time>2021-02-20T12:46:45.000Z</time>
      </trkpt>
      <trkpt lat="47.03517" lon="-1.68149">
        <ele>78</ele>
        <time>2021-02-20T12:46:47.000Z</time>
      </trkpt>
      <trkpt lat="47.03517" lon="-1.68128">
        <ele>77</ele>
        <time>2021-02-20T12:46:49.000Z</time>
      </trkpt>
      <trkpt lat="47.03517" lon="-1.68105">
        <ele>77</ele>
        <time>2021-02-20T12:46:51.000Z</time>
      </trkpt>
      <trkpt lat="47.03518" lon="-1.68084">
        <ele>77</ele>
        <time>2021-02-20T12:46:53.000Z</time>
      </trkpt>
      <trkpt lat="47.03518" lon="-1.68063">
        <ele>76</ele>
        <time>2021-02-20T12:46:55.000Z</time>
      </trkpt>
      <trkpt lat="47.03518" lon="-1.68044">
        <ele>76</ele>
        <time>2021-02-20T12:46:57.000Z</time>
      </trkpt>
      <trkpt lat="47.03518" lon="-1.68025">
        <ele>76</ele>
        <time>2021-02-20T12:46:59.000Z</time>
      </trkpt>
      <trkpt lat="47.03518" lon="-1.68007">
        <ele>76</ele>
        <time>2021-02-20T12:47:01.000Z</time>
      </trkpt>
      <trkpt lat="47.03518" lon="-1.67988">
        <ele>77</ele>
        <time>2021-02-20T12:47:03.000Z</time>
      </trkpt>
      <trkpt lat="47.03518" lon="-1.6797">
        <ele>77</ele>
        <time>2021-02-20T12:47:05.000Z</time>
      </trkpt>
      <trkpt lat="47.03518" lon="-1.67952">
        <ele>77</ele>
        <time>2021-02-20T12:47:07.000Z</time>
      </trkpt>
      <trkpt lat="47.03518" lon="-1.67933">
        <ele>77</ele>
        <time>2021-02-20T12:47:09.000Z</time>
      </trkpt>
      <trkpt lat="47.03518" lon="-1.67915">
        <ele>77</ele>
        <time>2021-02-20T12:47:11.000Z</time>
      </trkpt>
      <trkpt lat="47.03518" lon="-1.67897">
        <ele>77</ele>
        <time>2021-02-20T12:47:13.000Z</time>
      </trkpt>
      <trkpt lat="47.03518" lon="-1.67878">
        <ele>78</ele>
        <time>2021-02-20T12:47:15.000Z</time>
      </trkpt>
      <trkpt lat="47.03518" lon="-1.67859">
        <ele>78</ele>
        <time>2021-02-20T12:47:17.000Z</time>
      </trkpt>
      <trkpt lat="47.03518" lon="-1.6784">
        <ele>78</ele>
        <time>2021-02-20T12:47:19.000Z</time>
      </trkpt>
      <trkpt lat="47.03517" lon="-1.6782">
        <ele>78</ele>
        <time>2021-02-20T12:47:21.000Z</time>
      </trkpt>
      <trkpt lat="47.03517" lon="-1.67802">
        <ele>78</ele>
        <time>2021-02-20T12:47:23.000Z</time>
      </trkpt>
      <trkpt lat="47.03517" lon="-1.67784">
        <ele>77</ele>
        <time>2021-02-20T12:47:25.000Z</time>
      </trkpt>
      <trkpt lat="47.03518" lon="-1.67765">
        <ele>77</ele>
        <time>2021-02-20T12:47:27.000Z</time>
      </trkpt>
      <trkpt lat="47.03518" lon="-1.67746">
        <ele>77</ele>
        <time>2021-02-20T12:47:29.000Z</time>
      </trkpt>
      <trkpt lat="47.03517" lon="-1.67726">
        <ele>76</ele>
        <time>2021-02-20T12:47:31.000Z</time>
      </trkpt>
      <trkpt lat="47.03517" lon="-1.67706">
        <ele>76</ele>
        <time>2021-02-20T12:47:33.000Z</time>
      </trkpt>
      <trkpt lat="47.03516" lon="-1.67686">
        <ele>76</ele>
        <time>2021-02-20T12:47:35.000Z</time>
      </trkpt>
      <trkpt lat="47.03516" lon="-1.67665">
        <ele>75</ele>
        <time>2021-02-20T12:47:37.000Z</time>
      </trkpt>
      <trkpt lat="47.03516" lon="-1.67645">
        <ele>74</ele>
        <time>2021-02-20T12:47:39.000Z</time>
      </trkpt>
      <trkpt lat="47.03516" lon="-1.67625">
        <ele>74</ele>
        <time>2021-02-20T12:47:41.000Z</time>
      </trkpt>
      <trkpt lat="47.03516" lon="-1.67603">
        <ele>73</ele>
        <time>2021-02-20T12:47:43.000Z</time>
      </trkpt>
      <trkpt lat="47.03516" lon="-1.67582">
        <ele>72</ele>
        <time>2021-02-20T12:47:45.000Z</time>
      </trkpt>
      <trkpt lat="47.03516" lon="-1.67561">
        <ele>71</ele>
        <time>2021-02-20T12:47:47.000Z</time>
      </trkpt>
      <trkpt lat="47.03516" lon="-1.67539">
        <ele>71</ele>
        <time>2021-02-20T12:47:49.000Z</time>
      </trkpt>
      <trkpt lat="47.03515" lon="-1.67517">
        <ele>70</ele>
        <time>2021-02-20T12:47:51.000Z</time>
      </trkpt>
      <trkpt lat="47.03515" lon="-1.67495">
        <ele>70</ele>
        <time>2021-02-20T12:47:53.000Z</time>
      </trkpt>
      <trkpt lat="47.03515" lon="-1.67473">
        <ele>69</ele>
        <time>2021-02-20T12:47:55.000Z</time>
      </trkpt>
      <trkpt lat="47.03515" lon="-1.6745">
        <ele>68</ele>
        <time>2021-02-20T12:47:57.000Z</time>
      </trkpt>
      <trkpt lat="47.03515" lon="-1.67428">
        <ele>67</ele>
        <time>2021-02-20T12:47:59.000Z</time>
      </trkpt>
      <trkpt lat="47.03515" lon="-1.67406">
        <ele>67</ele>
        <time>2021-02-20T12:48:01.000Z</time>
      </trkpt>
      <trkpt lat="47.03515" lon="-1.67385">
        <ele>67</ele>
        <time>2021-02-20T12:48:03.000Z</time>
      </trkpt>
      <trkpt lat="47.03515" lon="-1.67364">
        <ele>67</ele>
        <time>2021-02-20T12:48:05.000Z</time>
      </trkpt>
      <trkpt lat="47.03515" lon="-1.67344">
        <ele>68</ele>
        <time>2021-02-20T12:48:07.000Z</time>
      </trkpt>
      <trkpt lat="47.03514" lon="-1.67324">
        <ele>68</ele>
        <time>2021-02-20T12:48:09.000Z</time>
      </trkpt>
      <trkpt lat="47.03514" lon="-1.67304">
        <ele>68</ele>
        <time>2021-02-20T12:48:11.000Z</time>
      </trkpt>
      <trkpt lat="47.03514" lon="-1.67284">
        <ele>68</ele>
        <time>2021-02-20T12:48:13.000Z</time>
      </trkpt>
      <trkpt lat="47.03513" lon="-1.67264">
        <ele>68</ele>
        <time>2021-02-20T12:48:15.000Z</time>
      </trkpt>
      <trkpt lat="47.03512" lon="-1.67243">
        <ele>67</ele>
        <time>2021-02-20T12:48:17.000Z</time>
      </trkpt>
      <trkpt lat="47.03513" lon="-1.67225">
        <ele>67</ele>
        <time>2021-02-20T12:48:19.000Z</time>
      </trkpt>
      <trkpt lat="47.03512" lon="-1.67206">
        <ele>67</ele>
        <time>2021-02-20T12:48:21.000Z</time>
      </trkpt>
      <trkpt lat="47.03511" lon="-1.67188">
        <ele>68</ele>
        <time>2021-02-20T12:48:23.000Z</time>
      </trkpt>
      <trkpt lat="47.03509" lon="-1.67169">
        <ele>68</ele>
        <time>2021-02-20T12:48:25.000Z</time>
      </trkpt>
      <trkpt lat="47.03508" lon="-1.6715">
        <ele>68</ele>
        <time>2021-02-20T12:48:27.000Z</time>
      </trkpt>
      <trkpt lat="47.03505" lon="-1.67133">
        <ele>68</ele>
        <time>2021-02-20T12:48:29.000Z</time>
      </trkpt>
      <trkpt lat="47.03502" lon="-1.67115">
        <ele>69</ele>
        <time>2021-02-20T12:48:31.000Z</time>
      </trkpt>
      <trkpt lat="47.035" lon="-1.67098">
        <ele>69</ele>
        <time>2021-02-20T12:48:33.000Z</time>
      </trkpt>
      <trkpt lat="47.03497" lon="-1.67081">
        <ele>69</ele>
        <time>2021-02-20T12:48:35.000Z</time>
      </trkpt>
      <trkpt lat="47.03494" lon="-1.67064">
        <ele>69</ele>
        <time>2021-02-20T12:48:37.000Z</time>
      </trkpt>
      <trkpt lat="47.03491" lon="-1.67047">
        <ele>69</ele>
        <time>2021-02-20T12:48:39.000Z</time>
      </trkpt>
      <trkpt lat="47.03489" lon="-1.6703">
        <ele>69</ele>
        <time>2021-02-20T12:48:41.000Z</time>
      </trkpt>
      <trkpt lat="47.03486" lon="-1.67013">
        <ele>69</ele>
        <time>2021-02-20T12:48:43.000Z</time>
      </trkpt>
      <trkpt lat="47.03484" lon="-1.66997">
        <ele>69</ele>
        <time>2021-02-20T12:48:45.000Z</time>
      </trkpt>
      <trkpt lat="47.03483" lon="-1.66979">
        <ele>69</ele>
        <time>2021-02-20T12:48:47.000Z</time>
      </trkpt>
      <trkpt lat="47.03482" lon="-1.66961">
        <ele>69</ele>
        <time>2021-02-20T12:48:49.000Z</time>
      </trkpt>
      <trkpt lat="47.03482" lon="-1.66943">
        <ele>69</ele>
        <time>2021-02-20T12:48:51.000Z</time>
      </trkpt>
      <trkpt lat="47.03482" lon="-1.66924">
        <ele>69</ele>
        <time>2021-02-20T12:48:53.000Z</time>
      </trkpt>
      <trkpt lat="47.03482" lon="-1.66906">
        <ele>68</ele>
        <time>2021-02-20T12:48:55.000Z</time>
      </trkpt>
      <trkpt lat="47.03483" lon="-1.66887">
        <ele>68</ele>
        <time>2021-02-20T12:48:57.000Z</time>
      </trkpt>
      <trkpt lat="47.03484" lon="-1.66867">
        <ele>67</ele>
        <time>2021-02-20T12:48:59.000Z</time>
      </trkpt>
      <trkpt lat="47.03485" lon="-1.66848">
        <ele>67</ele>
        <time>2021-02-20T12:49:01.000Z</time>
      </trkpt>
      <trkpt lat="47.03485" lon="-1.66829">
        <ele>67</ele>
        <time>2021-02-20T12:49:03.000Z</time>
      </trkpt>
      <trkpt lat="47.03486" lon="-1.6681">
        <ele>67</ele>
        <time>2021-02-20T12:49:05.000Z</time>
      </trkpt>
      <trkpt lat="47.03486" lon="-1.66791">
        <ele>66</ele>
        <time>2021-02-20T12:49:07.000Z</time>
      </trkpt>
      <trkpt lat="47.03487" lon="-1.66771">
        <ele>65</ele>
        <time>2021-02-20T12:49:09.000Z</time>
      </trkpt>
      <trkpt lat="47.03487" lon="-1.66753">
        <ele>65</ele>
        <time>2021-02-20T12:49:11.000Z</time>
      </trkpt>
      <trkpt lat="47.03489" lon="-1.66733">
        <ele>65</ele>
        <time>2021-02-20T12:49:13.000Z</time>
      </trkpt>
      <trkpt lat="47.0349" lon="-1.66714">
        <ele>65</ele>
        <time>2021-02-20T12:49:15.000Z</time>
      </trkpt>
      <trkpt lat="47.03491" lon="-1.66694">
        <ele>65</ele>
        <time>2021-02-20T12:49:17.000Z</time>
      </trkpt>
      <trkpt lat="47.03491" lon="-1.66673">
        <ele>65</ele>
        <time>2021-02-20T12:49:19.000Z</time>
      </trkpt>
      <trkpt lat="47.03491" lon="-1.66653">
        <ele>65</ele>
        <time>2021-02-20T12:49:21.000Z</time>
      </trkpt>
      <trkpt lat="47.0349" lon="-1.66634">
        <ele>65</ele>
        <time>2021-02-20T12:49:23.000Z</time>
      </trkpt>
      <trkpt lat="47.03489" lon="-1.66616">
        <ele>66</ele>
        <time>2021-02-20T12:49:25.000Z</time>
      </trkpt>
      <trkpt lat="47.03487" lon="-1.66598">
        <ele>66</ele>
        <time>2021-02-20T12:49:27.000Z</time>
      </trkpt>
      <trkpt lat="47.03486" lon="-1.6658">
        <ele>66</ele>
        <time>2021-02-20T12:49:29.000Z</time>
      </trkpt>
      <trkpt lat="47.03485" lon="-1.66563">
        <ele>67</ele>
        <time>2021-02-20T12:49:31.000Z</time>
      </trkpt>
      <trkpt lat="47.03484" lon="-1.66545">
        <ele>67</ele>
        <time>2021-02-20T12:49:33.000Z</time>
      </trkpt>
      <trkpt lat="47.03483" lon="-1.66527">
        <ele>67</ele>
        <time>2021-02-20T12:49:35.000Z</time>
      </trkpt>
      <trkpt lat="47.03482" lon="-1.66509">
        <ele>68</ele>
        <time>2021-02-20T12:49:37.000Z</time>
      </trkpt>
      <trkpt lat="47.03481" lon="-1.66491">
        <ele>68</ele>
        <time>2021-02-20T12:49:39.000Z</time>
      </trkpt>
      <trkpt lat="47.03479" lon="-1.66473">
        <ele>68</ele>
        <time>2021-02-20T12:49:41.000Z</time>
      </trkpt>
      <trkpt lat="47.03478" lon="-1.66455">
        <ele>69</ele>
        <time>2021-02-20T12:49:43.000Z</time>
      </trkpt>
      <trkpt lat="47.03477" lon="-1.66438">
        <ele>69</ele>
        <time>2021-02-20T12:49:45.000Z</time>
      </trkpt>
      <trkpt lat="47.03476" lon="-1.6642">
        <ele>69</ele>
        <time>2021-02-20T12:49:47.000Z</time>
      </trkpt>
      <trkpt lat="47.03475" lon="-1.66403">
        <ele>69</ele>
        <time>2021-02-20T12:49:49.000Z</time>
      </trkpt>
      <trkpt lat="47.03474" lon="-1.66386">
        <ele>69</ele>
        <time>2021-02-20T12:49:51.000Z</time>
      </trkpt>
      <trkpt lat="47.03473" lon="-1.66368">
        <ele>69</ele>
        <time>2021-02-20T12:49:53.000Z</time>
      </trkpt>
      <trkpt lat="47.03472" lon="-1.6635">
        <ele>69</ele>
        <time>2021-02-20T12:49:55.000Z</time>
      </trkpt>
      <trkpt lat="47.03471" lon="-1.66332">
        <ele>69</ele>
        <time>2021-02-20T12:49:57.000Z</time>
      </trkpt>
      <trkpt lat="47.0347" lon="-1.66314">
        <ele>68</ele>
        <time>2021-02-20T12:49:59.000Z</time>
      </trkpt>
      <trkpt lat="47.03469" lon="-1.66296">
        <ele>68</ele>
        <time>2021-02-20T12:50:01.000Z</time>
      </trkpt>
      <trkpt lat="47.03468" lon="-1.66279">
        <ele>68</ele>
        <time>2021-02-20T12:50:03.000Z</time>
      </trkpt>
      <trkpt lat="47.03467" lon="-1.66261">
        <ele>68</ele>
        <time>2021-02-20T12:50:05.000Z</time>
      </trkpt>
      <trkpt lat="47.03466" lon="-1.66242">
        <ele>68</ele>
        <time>2021-02-20T12:50:07.000Z</time>
      </trkpt>
      <trkpt lat="47.03465" lon="-1.66224">
        <ele>67</ele>
        <time>2021-02-20T12:50:09.000Z</time>
      </trkpt>
      <trkpt lat="47.03464" lon="-1.66206">
        <ele>67</ele>
        <time>2021-02-20T12:50:11.000Z</time>
      </trkpt>
      <trkpt lat="47.03463" lon="-1.66187">
        <ele>67</ele>
        <time>2021-02-20T12:50:13.000Z</time>
      </trkpt>
      <trkpt lat="47.03462" lon="-1.66168">
        <ele>67</ele>
        <time>2021-02-20T12:50:15.000Z</time>
      </trkpt>
      <trkpt lat="47.0346" lon="-1.66151">
        <ele>67</ele>
        <time>2021-02-20T12:50:17.000Z</time>
      </trkpt>
      <trkpt lat="47.03458" lon="-1.66133">
        <ele>67</ele>
        <time>2021-02-20T12:50:19.000Z</time>
      </trkpt>
      <trkpt lat="47.03453" lon="-1.66116">
        <ele>67</ele>
        <time>2021-02-20T12:50:21.000Z</time>
      </trkpt>
      <trkpt lat="47.03447" lon="-1.66102">
        <ele>67</ele>
        <time>2021-02-20T12:50:23.000Z</time>
      </trkpt>
      <trkpt lat="47.03438" lon="-1.66091">
        <ele>67</ele>
        <time>2021-02-20T12:50:25.000Z</time>
      </trkpt>
      <trkpt lat="47.03429" lon="-1.66089">
        <ele>67</ele>
        <time>2021-02-20T12:50:27.000Z</time>
      </trkpt>
      <trkpt lat="47.03418" lon="-1.66093">
        <ele>66</ele>
        <time>2021-02-20T12:50:29.000Z</time>
      </trkpt>
      <trkpt lat="47.03407" lon="-1.66096">
        <ele>66</ele>
        <time>2021-02-20T12:50:31.000Z</time>
      </trkpt>
      <trkpt lat="47.03396" lon="-1.66093">
        <ele>66</ele>
        <time>2021-02-20T12:50:33.000Z</time>
      </trkpt>
      <trkpt lat="47.03387" lon="-1.66081">
        <ele>67</ele>
        <time>2021-02-20T12:50:35.000Z</time>
      </trkpt>
      <trkpt lat="47.03383" lon="-1.66065">
        <ele>68</ele>
        <time>2021-02-20T12:50:37.000Z</time>
      </trkpt>
      <trkpt lat="47.03385" lon="-1.66049">
        <ele>68</ele>
        <time>2021-02-20T12:50:39.000Z</time>
      </trkpt>
      <trkpt lat="47.03392" lon="-1.66033">
        <ele>68</ele>
        <time>2021-02-20T12:50:41.000Z</time>
      </trkpt>
      <trkpt lat="47.03397" lon="-1.66018">
        <ele>68</ele>
        <time>2021-02-20T12:50:43.000Z</time>
      </trkpt>
      <trkpt lat="47.034" lon="-1.66001">
        <ele>68</ele>
        <time>2021-02-20T12:50:45.000Z</time>
      </trkpt>
      <trkpt lat="47.034" lon="-1.65983">
        <ele>68</ele>
        <time>2021-02-20T12:50:47.000Z</time>
      </trkpt>
      <trkpt lat="47.03399" lon="-1.65966">
        <ele>69</ele>
        <time>2021-02-20T12:50:49.000Z</time>
      </trkpt>
      <trkpt lat="47.03398" lon="-1.6595">
        <ele>69</ele>
        <time>2021-02-20T12:50:51.000Z</time>
      </trkpt>
      <trkpt lat="47.03398" lon="-1.65933">
        <ele>69</ele>
        <time>2021-02-20T12:50:53.000Z</time>
      </trkpt>
      <trkpt lat="47.03396" lon="-1.65916">
        <ele>70</ele>
        <time>2021-02-20T12:50:55.000Z</time>
      </trkpt>
      <trkpt lat="47.03392" lon="-1.659">
        <ele>70</ele>
        <time>2021-02-20T12:50:57.000Z</time>
      </trkpt>
      <trkpt lat="47.03387" lon="-1.65884">
        <ele>70</ele>
        <time>2021-02-20T12:50:59.000Z</time>
      </trkpt>
      <trkpt lat="47.03379" lon="-1.65862">
        <ele>71</ele>
        <time>2021-02-20T12:51:02.000Z</time>
      </trkpt>
      <trkpt lat="47.0337" lon="-1.65841">
        <ele>71</ele>
        <time>2021-02-20T12:51:05.000Z</time>
      </trkpt>
      <trkpt lat="47.03363" lon="-1.65828">
        <ele>71</ele>
        <time>2021-02-20T12:51:07.000Z</time>
      </trkpt>
      <trkpt lat="47.03357" lon="-1.65815">
        <ele>71</ele>
        <time>2021-02-20T12:51:09.000Z</time>
      </trkpt>
      <trkpt lat="47.0335" lon="-1.65802">
        <ele>72</ele>
        <time>2021-02-20T12:51:11.000Z</time>
      </trkpt>
      <trkpt lat="47.03344" lon="-1.65789">
        <ele>72</ele>
        <time>2021-02-20T12:51:13.000Z</time>
      </trkpt>
      <trkpt lat="47.03337" lon="-1.65775">
        <ele>71</ele>
        <time>2021-02-20T12:51:15.000Z</time>
      </trkpt>
      <trkpt lat="47.0333" lon="-1.65761">
        <ele>71</ele>
        <time>2021-02-20T12:51:17.000Z</time>
      </trkpt>
      <trkpt lat="47.03324" lon="-1.65746">
        <ele>71</ele>
        <time>2021-02-20T12:51:19.000Z</time>
      </trkpt>
      <trkpt lat="47.03319" lon="-1.65729">
        <ele>71</ele>
        <time>2021-02-20T12:51:21.000Z</time>
      </trkpt>
      <trkpt lat="47.03315" lon="-1.65713">
        <ele>71</ele>
        <time>2021-02-20T12:51:23.000Z</time>
      </trkpt>
      <trkpt lat="47.03312" lon="-1.65695">
        <ele>70</ele>
        <time>2021-02-20T12:51:25.000Z</time>
      </trkpt>
      <trkpt lat="47.03311" lon="-1.65677">
        <ele>70</ele>
        <time>2021-02-20T12:51:27.000Z</time>
      </trkpt>
      <trkpt lat="47.03311" lon="-1.65658">
        <ele>70</ele>
        <time>2021-02-20T12:51:29.000Z</time>
      </trkpt>
      <trkpt lat="47.03312" lon="-1.6563">
        <ele>69</ele>
        <time>2021-02-20T12:51:32.000Z</time>
      </trkpt>
      <trkpt lat="47.03312" lon="-1.65611">
        <ele>69</ele>
        <time>2021-02-20T12:51:34.000Z</time>
      </trkpt>
      <trkpt lat="47.03306" lon="-1.65593">
        <ele>69</ele>
        <time>2021-02-20T12:51:36.000Z</time>
      </trkpt>
      <trkpt lat="47.03305" lon="-1.65565">
        <ele>68</ele>
        <time>2021-02-20T12:51:39.000Z</time>
      </trkpt>
      <trkpt lat="47.03308" lon="-1.65546">
        <ele>68</ele>
        <time>2021-02-20T12:51:41.000Z</time>
      </trkpt>
      <trkpt lat="47.03308" lon="-1.65527">
        <ele>68</ele>
        <time>2021-02-20T12:51:43.000Z</time>
      </trkpt>
      <trkpt lat="47.03304" lon="-1.65508">
        <ele>67</ele>
        <time>2021-02-20T12:51:45.000Z</time>
      </trkpt>
      <trkpt lat="47.033" lon="-1.65491">
        <ele>67</ele>
        <time>2021-02-20T12:51:47.000Z</time>
      </trkpt>
      <trkpt lat="47.03296" lon="-1.65474">
        <ele>66</ele>
        <time>2021-02-20T12:51:49.000Z</time>
      </trkpt>
      <trkpt lat="47.03293" lon="-1.65457">
        <ele>66</ele>
        <time>2021-02-20T12:51:51.000Z</time>
      </trkpt>
      <trkpt lat="47.03289" lon="-1.65441">
        <ele>65</ele>
        <time>2021-02-20T12:51:53.000Z</time>
      </trkpt>
      <trkpt lat="47.03285" lon="-1.65424">
        <ele>65</ele>
        <time>2021-02-20T12:51:55.000Z</time>
      </trkpt>
      <trkpt lat="47.03279" lon="-1.65399">
        <ele>65</ele>
        <time>2021-02-20T12:51:58.000Z</time>
      </trkpt>
      <trkpt lat="47.03272" lon="-1.65372">
        <ele>64</ele>
        <time>2021-02-20T12:52:01.000Z</time>
      </trkpt>
      <trkpt lat="47.03267" lon="-1.65346">
        <ele>63</ele>
        <time>2021-02-20T12:52:04.000Z</time>
      </trkpt>
      <trkpt lat="47.03262" lon="-1.65327">
        <ele>63</ele>
        <time>2021-02-20T12:52:06.000Z</time>
      </trkpt>
      <trkpt lat="47.03256" lon="-1.65302">
        <ele>62</ele>
        <time>2021-02-20T12:52:09.000Z</time>
      </trkpt>
      <trkpt lat="47.03252" lon="-1.65286">
        <ele>62</ele>
        <time>2021-02-20T12:52:11.000Z</time>
      </trkpt>
      <trkpt lat="47.03248" lon="-1.65269">
        <ele>62</ele>
        <time>2021-02-20T12:52:13.000Z</time>
      </trkpt>
      <trkpt lat="47.03244" lon="-1.65252">
        <ele>62</ele>
        <time>2021-02-20T12:52:15.000Z</time>
      </trkpt>
      <trkpt lat="47.03236" lon="-1.65226">
        <ele>62</ele>
        <time>2021-02-20T12:52:18.000Z</time>
      </trkpt>
      <trkpt lat="47.03231" lon="-1.6521">
        <ele>62</ele>
        <time>2021-02-20T12:52:20.000Z</time>
      </trkpt>
      <trkpt lat="47.03226" lon="-1.65194">
        <ele>62</ele>
        <time>2021-02-20T12:52:22.000Z</time>
      </trkpt>
      <trkpt lat="47.03217" lon="-1.65171">
        <ele>62</ele>
        <time>2021-02-20T12:52:25.000Z</time>
      </trkpt>
      <trkpt lat="47.03211" lon="-1.65155">
        <ele>62</ele>
        <time>2021-02-20T12:52:27.000Z</time>
      </trkpt>
      <trkpt lat="47.03202" lon="-1.65131">
        <ele>61</ele>
        <time>2021-02-20T12:52:30.000Z</time>
      </trkpt>
      <trkpt lat="47.03193" lon="-1.6511">
        <ele>61</ele>
        <time>2021-02-20T12:52:33.000Z</time>
      </trkpt>
      <trkpt lat="47.03186" lon="-1.65095">
        <ele>61</ele>
        <time>2021-02-20T12:52:35.000Z</time>
      </trkpt>
      <trkpt lat="47.0318" lon="-1.65081">
        <ele>62</ele>
        <time>2021-02-20T12:52:37.000Z</time>
      </trkpt>
      <trkpt lat="47.03173" lon="-1.65067">
        <ele>62</ele>
        <time>2021-02-20T12:52:39.000Z</time>
      </trkpt>
      <trkpt lat="47.03166" lon="-1.65053">
        <ele>62</ele>
        <time>2021-02-20T12:52:41.000Z</time>
      </trkpt>
      <trkpt lat="47.03154" lon="-1.65033">
        <ele>62</ele>
        <time>2021-02-20T12:52:44.000Z</time>
      </trkpt>
      <trkpt lat="47.03147" lon="-1.6502">
        <ele>62</ele>
        <time>2021-02-20T12:52:46.000Z</time>
      </trkpt>
      <trkpt lat="47.0314" lon="-1.65008">
        <ele>62</ele>
        <time>2021-02-20T12:52:48.000Z</time>
      </trkpt>
      <trkpt lat="47.03133" lon="-1.64996">
        <ele>62</ele>
        <time>2021-02-20T12:52:50.000Z</time>
      </trkpt>
      <trkpt lat="47.03125" lon="-1.64982">
        <ele>62</ele>
        <time>2021-02-20T12:52:52.000Z</time>
      </trkpt>
      <trkpt lat="47.03117" lon="-1.64969">
        <ele>63</ele>
        <time>2021-02-20T12:52:54.000Z</time>
      </trkpt>
      <trkpt lat="47.03109" lon="-1.64956">
        <ele>63</ele>
        <time>2021-02-20T12:52:56.000Z</time>
      </trkpt>
      <trkpt lat="47.031" lon="-1.64943">
        <ele>63</ele>
        <time>2021-02-20T12:52:58.000Z</time>
      </trkpt>
      <trkpt lat="47.03092" lon="-1.64929">
        <ele>63</ele>
        <time>2021-02-20T12:53:00.000Z</time>
      </trkpt>
      <trkpt lat="47.03084" lon="-1.64916">
        <ele>63</ele>
        <time>2021-02-20T12:53:02.000Z</time>
      </trkpt>
      <trkpt lat="47.03077" lon="-1.64903">
        <ele>64</ele>
        <time>2021-02-20T12:53:04.000Z</time>
      </trkpt>
      <trkpt lat="47.03069" lon="-1.6489">
        <ele>64</ele>
        <time>2021-02-20T12:53:06.000Z</time>
      </trkpt>
      <trkpt lat="47.03061" lon="-1.64877">
        <ele>64</ele>
        <time>2021-02-20T12:53:08.000Z</time>
      </trkpt>
      <trkpt lat="47.03054" lon="-1.64865">
        <ele>64</ele>
        <time>2021-02-20T12:53:10.000Z</time>
      </trkpt>
      <trkpt lat="47.03047" lon="-1.64853">
        <ele>64</ele>
        <time>2021-02-20T12:53:12.000Z</time>
      </trkpt>
      <trkpt lat="47.0304" lon="-1.64841">
        <ele>63</ele>
        <time>2021-02-20T12:53:14.000Z</time>
      </trkpt>
      <trkpt lat="47.03032" lon="-1.64829">
        <ele>63</ele>
        <time>2021-02-20T12:53:16.000Z</time>
      </trkpt>
      <trkpt lat="47.03024" lon="-1.64817">
        <ele>64</ele>
        <time>2021-02-20T12:53:18.000Z</time>
      </trkpt>
      <trkpt lat="47.03016" lon="-1.64808">
        <ele>64</ele>
        <time>2021-02-20T12:53:20.000Z</time>
      </trkpt>
      <trkpt lat="47.03007" lon="-1.64801">
        <ele>64</ele>
        <time>2021-02-20T12:53:22.000Z</time>
      </trkpt>
      <trkpt lat="47.02994" lon="-1.64795">
        <ele>64</ele>
        <time>2021-02-20T12:53:25.000Z</time>
      </trkpt>
      <trkpt lat="47.02988" lon="-1.64784">
        <ele>65</ele>
        <time>2021-02-20T12:53:27.000Z</time>
      </trkpt>
      <trkpt lat="47.02983" lon="-1.64763">
        <ele>65</ele>
        <time>2021-02-20T12:53:30.000Z</time>
      </trkpt>
      <trkpt lat="47.0298" lon="-1.64748">
        <ele>64</ele>
        <time>2021-02-20T12:53:32.000Z</time>
      </trkpt>
      <trkpt lat="47.02974" lon="-1.64736">
        <ele>65</ele>
        <time>2021-02-20T12:53:34.000Z</time>
      </trkpt>
      <trkpt lat="47.02967" lon="-1.64725">
        <ele>65</ele>
        <time>2021-02-20T12:53:36.000Z</time>
      </trkpt>
      <trkpt lat="47.0296" lon="-1.64714">
        <ele>65</ele>
        <time>2021-02-20T12:53:38.000Z</time>
      </trkpt>
      <trkpt lat="47.02949" lon="-1.64698">
        <ele>65</ele>
        <time>2021-02-20T12:53:41.000Z</time>
      </trkpt>
      <trkpt lat="47.02942" lon="-1.64688">
        <ele>66</ele>
        <time>2021-02-20T12:53:43.000Z</time>
      </trkpt>
      <trkpt lat="47.02935" lon="-1.64678">
        <ele>66</ele>
        <time>2021-02-20T12:53:45.000Z</time>
      </trkpt>
      <trkpt lat="47.02928" lon="-1.64668">
        <ele>66</ele>
        <time>2021-02-20T12:53:47.000Z</time>
      </trkpt>
      <trkpt lat="47.02921" lon="-1.64657">
        <ele>67</ele>
        <time>2021-02-20T12:53:49.000Z</time>
      </trkpt>
      <trkpt lat="47.02915" lon="-1.64647">
        <ele>67</ele>
        <time>2021-02-20T12:53:51.000Z</time>
      </trkpt>
      <trkpt lat="47.02908" lon="-1.64637">
        <ele>67</ele>
        <time>2021-02-20T12:53:53.000Z</time>
      </trkpt>
      <trkpt lat="47.02901" lon="-1.64627">
        <ele>67</ele>
        <time>2021-02-20T12:53:55.000Z</time>
      </trkpt>
      <trkpt lat="47.02895" lon="-1.64617">
        <ele>67</ele>
        <time>2021-02-20T12:53:57.000Z</time>
      </trkpt>
      <trkpt lat="47.02888" lon="-1.64606">
        <ele>67</ele>
        <time>2021-02-20T12:53:59.000Z</time>
      </trkpt>
      <trkpt lat="47.02881" lon="-1.64596">
        <ele>68</ele>
        <time>2021-02-20T12:54:01.000Z</time>
      </trkpt>
      <trkpt lat="47.02874" lon="-1.64586">
        <ele>68</ele>
        <time>2021-02-20T12:54:03.000Z</time>
      </trkpt>
      <trkpt lat="47.02868" lon="-1.64576">
        <ele>68</ele>
        <time>2021-02-20T12:54:05.000Z</time>
      </trkpt>
      <trkpt lat="47.02861" lon="-1.64565">
        <ele>68</ele>
        <time>2021-02-20T12:54:07.000Z</time>
      </trkpt>
      <trkpt lat="47.02854" lon="-1.64554">
        <ele>69</ele>
        <time>2021-02-20T12:54:09.000Z</time>
      </trkpt>
      <trkpt lat="47.02847" lon="-1.64544">
        <ele>69</ele>
        <time>2021-02-20T12:54:11.000Z</time>
      </trkpt>
      <trkpt lat="47.02841" lon="-1.64532">
        <ele>69</ele>
        <time>2021-02-20T12:54:13.000Z</time>
      </trkpt>
      <trkpt lat="47.02834" lon="-1.64522">
        <ele>69</ele>
        <time>2021-02-20T12:54:15.000Z</time>
      </trkpt>
      <trkpt lat="47.02828" lon="-1.64511">
        <ele>69</ele>
        <time>2021-02-20T12:54:17.000Z</time>
      </trkpt>
      <trkpt lat="47.02821" lon="-1.64498">
        <ele>69</ele>
        <time>2021-02-20T12:54:19.000Z</time>
      </trkpt>
      <trkpt lat="47.02815" lon="-1.64486">
        <ele>69</ele>
        <time>2021-02-20T12:54:21.000Z</time>
      </trkpt>
      <trkpt lat="47.02808" lon="-1.64473">
        <ele>69</ele>
        <time>2021-02-20T12:54:23.000Z</time>
      </trkpt>
      <trkpt lat="47.02802" lon="-1.64461">
        <ele>69</ele>
        <time>2021-02-20T12:54:25.000Z</time>
      </trkpt>
      <trkpt lat="47.02795" lon="-1.64448">
        <ele>69</ele>
        <time>2021-02-20T12:54:27.000Z</time>
      </trkpt>
      <trkpt lat="47.02789" lon="-1.64436">
        <ele>69</ele>
        <time>2021-02-20T12:54:29.000Z</time>
      </trkpt>
      <trkpt lat="47.02782" lon="-1.64423">
        <ele>69</ele>
        <time>2021-02-20T12:54:31.000Z</time>
      </trkpt>
      <trkpt lat="47.02775" lon="-1.64411">
        <ele>68</ele>
        <time>2021-02-20T12:54:33.000Z</time>
      </trkpt>
      <trkpt lat="47.02766" lon="-1.64402">
        <ele>68</ele>
        <time>2021-02-20T12:54:35.000Z</time>
      </trkpt>
      <trkpt lat="47.02758" lon="-1.64393">
        <ele>68</ele>
        <time>2021-02-20T12:54:37.000Z</time>
      </trkpt>
      <trkpt lat="47.02755" lon="-1.64378">
        <ele>68</ele>
        <time>2021-02-20T12:54:39.000Z</time>
      </trkpt>
      <trkpt lat="47.02759" lon="-1.64363">
        <ele>68</ele>
        <time>2021-02-20T12:54:41.000Z</time>
      </trkpt>
      <trkpt lat="47.0277" lon="-1.64357">
        <ele>68</ele>
        <time>2021-02-20T12:54:43.000Z</time>
      </trkpt>
      <trkpt lat="47.02781" lon="-1.64356">
        <ele>68</ele>
        <time>2021-02-20T12:54:45.000Z</time>
      </trkpt>
      <trkpt lat="47.02793" lon="-1.64354">
        <ele>68</ele>
        <time>2021-02-20T12:54:47.000Z</time>
      </trkpt>
      <trkpt lat="47.02805" lon="-1.64347">
        <ele>68</ele>
        <time>2021-02-20T12:54:49.000Z</time>
      </trkpt>
      <trkpt lat="47.02816" lon="-1.64341">
        <ele>69</ele>
        <time>2021-02-20T12:54:51.000Z</time>
      </trkpt>
      <trkpt lat="47.02828" lon="-1.64336">
        <ele>69</ele>
        <time>2021-02-20T12:54:53.000Z</time>
      </trkpt>
      <trkpt lat="47.02845" lon="-1.64332">
        <ele>69</ele>
        <time>2021-02-20T12:54:56.000Z</time>
      </trkpt>
      <trkpt lat="47.02857" lon="-1.64331">
        <ele>69</ele>
        <time>2021-02-20T12:54:58.000Z</time>
      </trkpt>
      <trkpt lat="47.02869" lon="-1.64331">
        <ele>69</ele>
        <time>2021-02-20T12:55:00.000Z</time>
      </trkpt>
      <trkpt lat="47.02879" lon="-1.6433">
        <ele>70</ele>
        <time>2021-02-20T12:55:02.000Z</time>
      </trkpt>
      <trkpt lat="47.02891" lon="-1.64327">
        <ele>69</ele>
        <time>2021-02-20T12:55:04.000Z</time>
      </trkpt>
      <trkpt lat="47.02902" lon="-1.6432">
        <ele>69</ele>
        <time>2021-02-20T12:55:06.000Z</time>
      </trkpt>
      <trkpt lat="47.02913" lon="-1.64313">
        <ele>69</ele>
        <time>2021-02-20T12:55:08.000Z</time>
      </trkpt>
      <trkpt lat="47.02924" lon="-1.64305">
        <ele>69</ele>
        <time>2021-02-20T12:55:10.000Z</time>
      </trkpt>
      <trkpt lat="47.02936" lon="-1.64297">
        <ele>68</ele>
        <time>2021-02-20T12:55:12.000Z</time>
      </trkpt>
      <trkpt lat="47.02948" lon="-1.64288">
        <ele>68</ele>
        <time>2021-02-20T12:55:14.000Z</time>
      </trkpt>
      <trkpt lat="47.02961" lon="-1.64279">
        <ele>67</ele>
        <time>2021-02-20T12:55:16.000Z</time>
      </trkpt>
      <trkpt lat="47.02975" lon="-1.64271">
        <ele>67</ele>
        <time>2021-02-20T12:55:18.000Z</time>
      </trkpt>
      <trkpt lat="47.02989" lon="-1.64261">
        <ele>66</ele>
        <time>2021-02-20T12:55:20.000Z</time>
      </trkpt>
      <trkpt lat="47.03003" lon="-1.6425">
        <ele>66</ele>
        <time>2021-02-20T12:55:22.000Z</time>
      </trkpt>
      <trkpt lat="47.03018" lon="-1.64238">
        <ele>65</ele>
        <time>2021-02-20T12:55:24.000Z</time>
      </trkpt>
      <trkpt lat="47.03034" lon="-1.64229">
        <ele>65</ele>
        <time>2021-02-20T12:55:26.000Z</time>
      </trkpt>
      <trkpt lat="47.03049" lon="-1.64221">
        <ele>64</ele>
        <time>2021-02-20T12:55:28.000Z</time>
      </trkpt>
      <trkpt lat="47.03065" lon="-1.64214">
        <ele>64</ele>
        <time>2021-02-20T12:55:30.000Z</time>
      </trkpt>
      <trkpt lat="47.03082" lon="-1.64211">
        <ele>64</ele>
        <time>2021-02-20T12:55:32.000Z</time>
      </trkpt>
      <trkpt lat="47.03099" lon="-1.64214">
        <ele>63</ele>
        <time>2021-02-20T12:55:34.000Z</time>
      </trkpt>
      <trkpt lat="47.03115" lon="-1.64218">
        <ele>63</ele>
        <time>2021-02-20T12:55:36.000Z</time>
      </trkpt>
      <trkpt lat="47.03132" lon="-1.64223">
        <ele>62</ele>
        <time>2021-02-20T12:55:38.000Z</time>
      </trkpt>
      <trkpt lat="47.03149" lon="-1.64227">
        <ele>62</ele>
        <time>2021-02-20T12:55:40.000Z</time>
      </trkpt>
      <trkpt lat="47.03166" lon="-1.64231">
        <ele>61</ele>
        <time>2021-02-20T12:55:42.000Z</time>
      </trkpt>
      <trkpt lat="47.03183" lon="-1.64234">
        <ele>62</ele>
        <time>2021-02-20T12:55:44.000Z</time>
      </trkpt>
      <trkpt lat="47.03199" lon="-1.64236">
        <ele>62</ele>
        <time>2021-02-20T12:55:46.000Z</time>
      </trkpt>
      <trkpt lat="47.03214" lon="-1.64237">
        <ele>62</ele>
        <time>2021-02-20T12:55:48.000Z</time>
      </trkpt>
      <trkpt lat="47.0323" lon="-1.64237">
        <ele>62</ele>
        <time>2021-02-20T12:55:50.000Z</time>
      </trkpt>
      <trkpt lat="47.03246" lon="-1.64235">
        <ele>62</ele>
        <time>2021-02-20T12:55:52.000Z</time>
      </trkpt>
      <trkpt lat="47.03262" lon="-1.64235">
        <ele>61</ele>
        <time>2021-02-20T12:55:54.000Z</time>
      </trkpt>
      <trkpt lat="47.03278" lon="-1.64236">
        <ele>61</ele>
        <time>2021-02-20T12:55:56.000Z</time>
      </trkpt>
      <trkpt lat="47.03293" lon="-1.64235">
        <ele>61</ele>
        <time>2021-02-20T12:55:58.000Z</time>
      </trkpt>
      <trkpt lat="47.03309" lon="-1.64234">
        <ele>60</ele>
        <time>2021-02-20T12:56:00.000Z</time>
      </trkpt>
      <trkpt lat="47.03324" lon="-1.64235">
        <ele>60</ele>
        <time>2021-02-20T12:56:02.000Z</time>
      </trkpt>
      <trkpt lat="47.0334" lon="-1.64235">
        <ele>60</ele>
        <time>2021-02-20T12:56:04.000Z</time>
      </trkpt>
      <trkpt lat="47.03355" lon="-1.64238">
        <ele>60</ele>
        <time>2021-02-20T12:56:06.000Z</time>
      </trkpt>
      <trkpt lat="47.0337" lon="-1.6424">
        <ele>60</ele>
        <time>2021-02-20T12:56:08.000Z</time>
      </trkpt>
      <trkpt lat="47.03385" lon="-1.64242">
        <ele>60</ele>
        <time>2021-02-20T12:56:10.000Z</time>
      </trkpt>
      <trkpt lat="47.03399" lon="-1.64247">
        <ele>60</ele>
        <time>2021-02-20T12:56:12.000Z</time>
      </trkpt>
      <trkpt lat="47.03413" lon="-1.64254">
        <ele>59</ele>
        <time>2021-02-20T12:56:14.000Z</time>
      </trkpt>
      <trkpt lat="47.03428" lon="-1.6426">
        <ele>59</ele>
        <time>2021-02-20T12:56:16.000Z</time>
      </trkpt>
      <trkpt lat="47.03442" lon="-1.64266">
        <ele>58</ele>
        <time>2021-02-20T12:56:18.000Z</time>
      </trkpt>
      <trkpt lat="47.03456" lon="-1.6427">
        <ele>58</ele>
        <time>2021-02-20T12:56:20.000Z</time>
      </trkpt>
      <trkpt lat="47.0347" lon="-1.64275">
        <ele>58</ele>
        <time>2021-02-20T12:56:22.000Z</time>
      </trkpt>
      <trkpt lat="47.03484" lon="-1.64281">
        <ele>58</ele>
        <time>2021-02-20T12:56:24.000Z</time>
      </trkpt>
      <trkpt lat="47.03498" lon="-1.64287">
        <ele>58</ele>
        <time>2021-02-20T12:56:26.000Z</time>
      </trkpt>
      <trkpt lat="47.03512" lon="-1.64293">
        <ele>58</ele>
        <time>2021-02-20T12:56:28.000Z</time>
      </trkpt>
      <trkpt lat="47.03525" lon="-1.64298">
        <ele>59</ele>
        <time>2021-02-20T12:56:30.000Z</time>
      </trkpt>
      <trkpt lat="47.03539" lon="-1.64302">
        <ele>59</ele>
        <time>2021-02-20T12:56:32.000Z</time>
      </trkpt>
      <trkpt lat="47.03554" lon="-1.64303">
        <ele>58</ele>
        <time>2021-02-20T12:56:34.000Z</time>
      </trkpt>
      <trkpt lat="47.03567" lon="-1.64301">
        <ele>57</ele>
        <time>2021-02-20T12:56:36.000Z</time>
      </trkpt>
      <trkpt lat="47.03574" lon="-1.64289">
        <ele>56</ele>
        <time>2021-02-20T12:56:38.000Z</time>
      </trkpt>
      <trkpt lat="47.03568" lon="-1.64272">
        <ele>56</ele>
        <time>2021-02-20T12:56:40.000Z</time>
      </trkpt>
      <trkpt lat="47.03564" lon="-1.64257">
        <ele>56</ele>
        <time>2021-02-20T12:56:42.000Z</time>
      </trkpt>
      <trkpt lat="47.0356" lon="-1.64241">
        <ele>57</ele>
        <time>2021-02-20T12:56:44.000Z</time>
      </trkpt>
      <trkpt lat="47.03557" lon="-1.64226">
        <ele>57</ele>
        <time>2021-02-20T12:56:46.000Z</time>
      </trkpt>
      <trkpt lat="47.03554" lon="-1.64211">
        <ele>57</ele>
        <time>2021-02-20T12:56:48.000Z</time>
      </trkpt>
      <trkpt lat="47.03556" lon="-1.64197">
        <ele>57</ele>
        <time>2021-02-20T12:56:50.000Z</time>
      </trkpt>
      <trkpt lat="47.03567" lon="-1.64188">
        <ele>57</ele>
        <time>2021-02-20T12:56:52.000Z</time>
      </trkpt>
      <trkpt lat="47.03578" lon="-1.6418">
        <ele>57</ele>
        <time>2021-02-20T12:56:54.000Z</time>
      </trkpt>
      <trkpt lat="47.0359" lon="-1.64173">
        <ele>57</ele>
        <time>2021-02-20T12:56:56.000Z</time>
      </trkpt>
      <trkpt lat="47.03601" lon="-1.64165">
        <ele>57</ele>
        <time>2021-02-20T12:56:58.000Z</time>
      </trkpt>
      <trkpt lat="47.03609" lon="-1.64158">
        <ele>57</ele>
        <time>2021-02-20T12:57:00.000Z</time>
      </trkpt>
      <trkpt lat="47.03619" lon="-1.64146">
        <ele>56</ele>
        <time>2021-02-20T12:57:03.000Z</time>
      </trkpt>
      <trkpt lat="47.0363" lon="-1.64141">
        <ele>56</ele>
        <time>2021-02-20T12:57:06.000Z</time>
      </trkpt>
      <trkpt lat="47.03639" lon="-1.64135">
        <ele>56</ele>
        <time>2021-02-20T12:57:08.000Z</time>
      </trkpt>
      <trkpt lat="47.0365" lon="-1.64127">
        <ele>55</ele>
        <time>2021-02-20T12:57:10.000Z</time>
      </trkpt>
      <trkpt lat="47.03662" lon="-1.64125">
        <ele>54</ele>
        <time>2021-02-20T12:57:12.000Z</time>
      </trkpt>
      <trkpt lat="47.03674" lon="-1.64123">
        <ele>55</ele>
        <time>2021-02-20T12:57:14.000Z</time>
      </trkpt>
      <trkpt lat="47.03687" lon="-1.64119">
        <ele>55</ele>
        <time>2021-02-20T12:57:16.000Z</time>
      </trkpt>
      <trkpt lat="47.037" lon="-1.64115">
        <ele>55</ele>
        <time>2021-02-20T12:57:18.000Z</time>
      </trkpt>
      <trkpt lat="47.03714" lon="-1.64111">
        <ele>56</ele>
        <time>2021-02-20T12:57:20.000Z</time>
      </trkpt>
      <trkpt lat="47.03727" lon="-1.64108">
        <ele>56</ele>
        <time>2021-02-20T12:57:22.000Z</time>
      </trkpt>
      <trkpt lat="47.0374" lon="-1.64105">
        <ele>56</ele>
        <time>2021-02-20T12:57:24.000Z</time>
      </trkpt>
      <trkpt lat="47.03752" lon="-1.64102">
        <ele>57</ele>
        <time>2021-02-20T12:57:26.000Z</time>
      </trkpt>
      <trkpt lat="47.03765" lon="-1.641">
        <ele>56</ele>
        <time>2021-02-20T12:57:28.000Z</time>
      </trkpt>
      <trkpt lat="47.03778" lon="-1.64098">
        <ele>56</ele>
        <time>2021-02-20T12:57:30.000Z</time>
      </trkpt>
      <trkpt lat="47.03791" lon="-1.64095">
        <ele>55</ele>
        <time>2021-02-20T12:57:32.000Z</time>
      </trkpt>
      <trkpt lat="47.03803" lon="-1.64092">
        <ele>55</ele>
        <time>2021-02-20T12:57:34.000Z</time>
      </trkpt>
      <trkpt lat="47.03815" lon="-1.64089">
        <ele>55</ele>
        <time>2021-02-20T12:57:36.000Z</time>
      </trkpt>
      <trkpt lat="47.03827" lon="-1.64085">
        <ele>55</ele>
        <time>2021-02-20T12:57:38.000Z</time>
      </trkpt>
      <trkpt lat="47.03839" lon="-1.64084">
        <ele>55</ele>
        <time>2021-02-20T12:57:40.000Z</time>
      </trkpt>
      <trkpt lat="47.0385" lon="-1.64088">
        <ele>55</ele>
        <time>2021-02-20T12:57:42.000Z</time>
      </trkpt>
      <trkpt lat="47.03861" lon="-1.64089">
        <ele>56</ele>
        <time>2021-02-20T12:57:44.000Z</time>
      </trkpt>
      <trkpt lat="47.03873" lon="-1.64093">
        <ele>56</ele>
        <time>2021-02-20T12:57:46.000Z</time>
      </trkpt>
      <trkpt lat="47.03887" lon="-1.64098">
        <ele>56</ele>
        <time>2021-02-20T12:57:48.000Z</time>
      </trkpt>
      <trkpt lat="47.03899" lon="-1.64106">
        <ele>57</ele>
        <time>2021-02-20T12:57:50.000Z</time>
      </trkpt>
      <trkpt lat="47.03912" lon="-1.64113">
        <ele>57</ele>
        <time>2021-02-20T12:57:52.000Z</time>
      </trkpt>
      <trkpt lat="47.03925" lon="-1.6412">
        <ele>57</ele>
        <time>2021-02-20T12:57:54.000Z</time>
      </trkpt>
      <trkpt lat="47.03938" lon="-1.64128">
        <ele>57</ele>
        <time>2021-02-20T12:57:56.000Z</time>
      </trkpt>
      <trkpt lat="47.03951" lon="-1.64135">
        <ele>57</ele>
        <time>2021-02-20T12:57:58.000Z</time>
      </trkpt>
      <trkpt lat="47.03964" lon="-1.64138">
        <ele>57</ele>
        <time>2021-02-20T12:58:00.000Z</time>
      </trkpt>
      <trkpt lat="47.03976" lon="-1.64137">
        <ele>56</ele>
        <time>2021-02-20T12:58:02.000Z</time>
      </trkpt>
      <trkpt lat="47.03989" lon="-1.64132">
        <ele>56</ele>
        <time>2021-02-20T12:58:04.000Z</time>
      </trkpt>
      <trkpt lat="47.04002" lon="-1.64126">
        <ele>55</ele>
        <time>2021-02-20T12:58:06.000Z</time>
      </trkpt>
      <trkpt lat="47.04015" lon="-1.6412">
        <ele>55</ele>
        <time>2021-02-20T12:58:08.000Z</time>
      </trkpt>
      <trkpt lat="47.04027" lon="-1.64116">
        <ele>55</ele>
        <time>2021-02-20T12:58:10.000Z</time>
      </trkpt>
      <trkpt lat="47.04039" lon="-1.6411">
        <ele>54</ele>
        <time>2021-02-20T12:58:12.000Z</time>
      </trkpt>
      <trkpt lat="47.04051" lon="-1.64104">
        <ele>54</ele>
        <time>2021-02-20T12:58:14.000Z</time>
      </trkpt>
      <trkpt lat="47.04065" lon="-1.64097">
        <ele>54</ele>
        <time>2021-02-20T12:58:16.000Z</time>
      </trkpt>
      <trkpt lat="47.04078" lon="-1.64091">
        <ele>55</ele>
        <time>2021-02-20T12:58:18.000Z</time>
      </trkpt>
      <trkpt lat="47.04092" lon="-1.64084">
        <ele>55</ele>
        <time>2021-02-20T12:58:20.000Z</time>
      </trkpt>
      <trkpt lat="47.04105" lon="-1.64079">
        <ele>56</ele>
        <time>2021-02-20T12:58:22.000Z</time>
      </trkpt>
      <trkpt lat="47.04119" lon="-1.64072">
        <ele>55</ele>
        <time>2021-02-20T12:58:24.000Z</time>
      </trkpt>
      <trkpt lat="47.04133" lon="-1.64066">
        <ele>55</ele>
        <time>2021-02-20T12:58:26.000Z</time>
      </trkpt>
      <trkpt lat="47.04147" lon="-1.6406">
        <ele>55</ele>
        <time>2021-02-20T12:58:28.000Z</time>
      </trkpt>
      <trkpt lat="47.0416" lon="-1.64054">
        <ele>54</ele>
        <time>2021-02-20T12:58:30.000Z</time>
      </trkpt>
      <trkpt lat="47.04173" lon="-1.64048">
        <ele>54</ele>
        <time>2021-02-20T12:58:32.000Z</time>
      </trkpt>
      <trkpt lat="47.04187" lon="-1.64043">
        <ele>54</ele>
        <time>2021-02-20T12:58:34.000Z</time>
      </trkpt>
      <trkpt lat="47.042" lon="-1.64036">
        <ele>54</ele>
        <time>2021-02-20T12:58:36.000Z</time>
      </trkpt>
      <trkpt lat="47.04214" lon="-1.64031">
        <ele>54</ele>
        <time>2021-02-20T12:58:38.000Z</time>
      </trkpt>
      <trkpt lat="47.04227" lon="-1.64025">
        <ele>53</ele>
        <time>2021-02-20T12:58:40.000Z</time>
      </trkpt>
      <trkpt lat="47.04241" lon="-1.64019">
        <ele>53</ele>
        <time>2021-02-20T12:58:42.000Z</time>
      </trkpt>
      <trkpt lat="47.04254" lon="-1.64013">
        <ele>54</ele>
        <time>2021-02-20T12:58:44.000Z</time>
      </trkpt>
      <trkpt lat="47.04268" lon="-1.64006">
        <ele>54</ele>
        <time>2021-02-20T12:58:46.000Z</time>
      </trkpt>
      <trkpt lat="47.04281" lon="-1.64">
        <ele>54</ele>
        <time>2021-02-20T12:58:48.000Z</time>
      </trkpt>
      <trkpt lat="47.04294" lon="-1.63995">
        <ele>54</ele>
        <time>2021-02-20T12:58:50.000Z</time>
      </trkpt>
      <trkpt lat="47.04307" lon="-1.6399">
        <ele>53</ele>
        <time>2021-02-20T12:58:52.000Z</time>
      </trkpt>
      <trkpt lat="47.04321" lon="-1.63984">
        <ele>53</ele>
        <time>2021-02-20T12:58:54.000Z</time>
      </trkpt>
      <trkpt lat="47.04334" lon="-1.63978">
        <ele>54</ele>
        <time>2021-02-20T12:58:56.000Z</time>
      </trkpt>
      <trkpt lat="47.04347" lon="-1.63973">
        <ele>54</ele>
        <time>2021-02-20T12:58:58.000Z</time>
      </trkpt>
      <trkpt lat="47.0436" lon="-1.63967">
        <ele>53</ele>
        <time>2021-02-20T12:59:00.000Z</time>
      </trkpt>
      <trkpt lat="47.04373" lon="-1.63961">
        <ele>53</ele>
        <time>2021-02-20T12:59:02.000Z</time>
      </trkpt>
      <trkpt lat="47.04386" lon="-1.63955">
        <ele>53</ele>
        <time>2021-02-20T12:59:04.000Z</time>
      </trkpt>
      <trkpt lat="47.04399" lon="-1.6395">
        <ele>53</ele>
        <time>2021-02-20T12:59:06.000Z</time>
      </trkpt>
      <trkpt lat="47.04412" lon="-1.63942">
        <ele>53</ele>
        <time>2021-02-20T12:59:08.000Z</time>
      </trkpt>
      <trkpt lat="47.04426" lon="-1.63936">
        <ele>54</ele>
        <time>2021-02-20T12:59:10.000Z</time>
      </trkpt>
      <trkpt lat="47.0444" lon="-1.6393">
        <ele>54</ele>
        <time>2021-02-20T12:59:12.000Z</time>
      </trkpt>
      <trkpt lat="47.04452" lon="-1.63924">
        <ele>54</ele>
        <time>2021-02-20T12:59:14.000Z</time>
      </trkpt>
      <trkpt lat="47.04463" lon="-1.63915">
        <ele>54</ele>
        <time>2021-02-20T12:59:16.000Z</time>
      </trkpt>
      <trkpt lat="47.04476" lon="-1.63908">
        <ele>54</ele>
        <time>2021-02-20T12:59:18.000Z</time>
      </trkpt>
      <trkpt lat="47.04489" lon="-1.63904">
        <ele>53</ele>
        <time>2021-02-20T12:59:20.000Z</time>
      </trkpt>
      <trkpt lat="47.04503" lon="-1.63896">
        <ele>53</ele>
        <time>2021-02-20T12:59:22.000Z</time>
      </trkpt>
      <trkpt lat="47.04516" lon="-1.63888">
        <ele>53</ele>
        <time>2021-02-20T12:59:24.000Z</time>
      </trkpt>
      <trkpt lat="47.0453" lon="-1.6388">
        <ele>53</ele>
        <time>2021-02-20T12:59:26.000Z</time>
      </trkpt>
      <trkpt lat="47.04543" lon="-1.63872">
        <ele>53</ele>
        <time>2021-02-20T12:59:28.000Z</time>
      </trkpt>
      <trkpt lat="47.04555" lon="-1.63864">
        <ele>53</ele>
        <time>2021-02-20T12:59:30.000Z</time>
      </trkpt>
      <trkpt lat="47.04568" lon="-1.63856">
        <ele>53</ele>
        <time>2021-02-20T12:59:32.000Z</time>
      </trkpt>
      <trkpt lat="47.04581" lon="-1.63848">
        <ele>53</ele>
        <time>2021-02-20T12:59:34.000Z</time>
      </trkpt>
      <trkpt lat="47.04594" lon="-1.63843">
        <ele>54</ele>
        <time>2021-02-20T12:59:36.000Z</time>
      </trkpt>
      <trkpt lat="47.04614" lon="-1.63839">
        <ele>54</ele>
        <time>2021-02-20T12:59:39.000Z</time>
      </trkpt>
      <trkpt lat="47.04628" lon="-1.63837">
        <ele>54</ele>
        <time>2021-02-20T12:59:41.000Z</time>
      </trkpt>
      <trkpt lat="47.04641" lon="-1.63835">
        <ele>54</ele>
        <time>2021-02-20T12:59:43.000Z</time>
      </trkpt>
      <trkpt lat="47.04654" lon="-1.63829">
        <ele>54</ele>
        <time>2021-02-20T12:59:45.000Z</time>
      </trkpt>
      <trkpt lat="47.04666" lon="-1.63821">
        <ele>55</ele>
        <time>2021-02-20T12:59:47.000Z</time>
      </trkpt>
      <trkpt lat="47.04679" lon="-1.63814">
        <ele>55</ele>
        <time>2021-02-20T12:59:49.000Z</time>
      </trkpt>
      <trkpt lat="47.04692" lon="-1.63808">
        <ele>55</ele>
        <time>2021-02-20T12:59:51.000Z</time>
      </trkpt>
      <trkpt lat="47.04706" lon="-1.63802">
        <ele>56</ele>
        <time>2021-02-20T12:59:53.000Z</time>
      </trkpt>
      <trkpt lat="47.0472" lon="-1.63798">
        <ele>56</ele>
        <time>2021-02-20T12:59:55.000Z</time>
      </trkpt>
      <trkpt lat="47.04735" lon="-1.63797">
        <ele>56</ele>
        <time>2021-02-20T12:59:57.000Z</time>
      </trkpt>
      <trkpt lat="47.04748" lon="-1.63795">
        <ele>56</ele>
        <time>2021-02-20T12:59:59.000Z</time>
      </trkpt>
      <trkpt lat="47.04762" lon="-1.63789">
        <ele>56</ele>
        <time>2021-02-20T13:00:01.000Z</time>
      </trkpt>
      <trkpt lat="47.04775" lon="-1.63784">
        <ele>57</ele>
        <time>2021-02-20T13:00:03.000Z</time>
      </trkpt>
      <trkpt lat="47.04788" lon="-1.63779">
        <ele>57</ele>
        <time>2021-02-20T13:00:05.000Z</time>
      </trkpt>
      <trkpt lat="47.048" lon="-1.63776">
        <ele>58</ele>
        <time>2021-02-20T13:00:07.000Z</time>
      </trkpt>
      <trkpt lat="47.04813" lon="-1.63774">
        <ele>58</ele>
        <time>2021-02-20T13:00:09.000Z</time>
      </trkpt>
      <trkpt lat="47.04825" lon="-1.63772">
        <ele>59</ele>
        <time>2021-02-20T13:00:11.000Z</time>
      </trkpt>
      <trkpt lat="47.04837" lon="-1.6377">
        <ele>59</ele>
        <time>2021-02-20T13:00:13.000Z</time>
      </trkpt>
      <trkpt lat="47.04849" lon="-1.63768">
        <ele>58</ele>
        <time>2021-02-20T13:00:15.000Z</time>
      </trkpt>
      <trkpt lat="47.04862" lon="-1.63766">
        <ele>58</ele>
        <time>2021-02-20T13:00:17.000Z</time>
      </trkpt>
      <trkpt lat="47.04874" lon="-1.63763">
        <ele>58</ele>
        <time>2021-02-20T13:00:19.000Z</time>
      </trkpt>
      <trkpt lat="47.04888" lon="-1.63761">
        <ele>57</ele>
        <time>2021-02-20T13:00:21.000Z</time>
      </trkpt>
      <trkpt lat="47.04902" lon="-1.63758">
        <ele>57</ele>
        <time>2021-02-20T13:00:23.000Z</time>
      </trkpt>
      <trkpt lat="47.04915" lon="-1.63754">
        <ele>57</ele>
        <time>2021-02-20T13:00:25.000Z</time>
      </trkpt>
      <trkpt lat="47.04929" lon="-1.63748">
        <ele>56</ele>
        <time>2021-02-20T13:00:27.000Z</time>
      </trkpt>
      <trkpt lat="47.0494" lon="-1.63735">
        <ele>56</ele>
        <time>2021-02-20T13:00:29.000Z</time>
      </trkpt>
      <trkpt lat="47.04947" lon="-1.63717">
        <ele>56</ele>
        <time>2021-02-20T13:00:31.000Z</time>
      </trkpt>
      <trkpt lat="47.04948" lon="-1.63696">
        <ele>56</ele>
        <time>2021-02-20T13:00:33.000Z</time>
      </trkpt>
      <trkpt lat="47.04948" lon="-1.63675">
        <ele>56</ele>
        <time>2021-02-20T13:00:35.000Z</time>
      </trkpt>
      <trkpt lat="47.04947" lon="-1.63654">
        <ele>55</ele>
        <time>2021-02-20T13:00:37.000Z</time>
      </trkpt>
      <trkpt lat="47.04949" lon="-1.63633">
        <ele>55</ele>
        <time>2021-02-20T13:00:39.000Z</time>
      </trkpt>
      <trkpt lat="47.04953" lon="-1.63612">
        <ele>54</ele>
        <time>2021-02-20T13:00:41.000Z</time>
      </trkpt>
      <trkpt lat="47.04961" lon="-1.63593">
        <ele>54</ele>
        <time>2021-02-20T13:00:43.000Z</time>
      </trkpt>
      <trkpt lat="47.04972" lon="-1.63577">
        <ele>54</ele>
        <time>2021-02-20T13:00:45.000Z</time>
      </trkpt>
      <trkpt lat="47.04984" lon="-1.63564">
        <ele>53</ele>
        <time>2021-02-20T13:00:47.000Z</time>
      </trkpt>
      <trkpt lat="47.04998" lon="-1.63554">
        <ele>53</ele>
        <time>2021-02-20T13:00:49.000Z</time>
      </trkpt>
      <trkpt lat="47.05012" lon="-1.63546">
        <ele>53</ele>
        <time>2021-02-20T13:00:51.000Z</time>
      </trkpt>
      <trkpt lat="47.05027" lon="-1.6354">
        <ele>53</ele>
        <time>2021-02-20T13:00:53.000Z</time>
      </trkpt>
      <trkpt lat="47.05042" lon="-1.63534">
        <ele>52</ele>
        <time>2021-02-20T13:00:55.000Z</time>
      </trkpt>
      <trkpt lat="47.05057" lon="-1.63528">
        <ele>52</ele>
        <time>2021-02-20T13:00:57.000Z</time>
      </trkpt>
      <trkpt lat="47.05071" lon="-1.63523">
        <ele>52</ele>
        <time>2021-02-20T13:00:59.000Z</time>
      </trkpt>
      <trkpt lat="47.05086" lon="-1.63517">
        <ele>53</ele>
        <time>2021-02-20T13:01:01.000Z</time>
      </trkpt>
      <trkpt lat="47.051" lon="-1.63511">
        <ele>53</ele>
        <time>2021-02-20T13:01:03.000Z</time>
      </trkpt>
      <trkpt lat="47.05115" lon="-1.63506">
        <ele>53</ele>
        <time>2021-02-20T13:01:05.000Z</time>
      </trkpt>
      <trkpt lat="47.05129" lon="-1.63501">
        <ele>53</ele>
        <time>2021-02-20T13:01:07.000Z</time>
      </trkpt>
      <trkpt lat="47.05143" lon="-1.63495">
        <ele>53</ele>
        <time>2021-02-20T13:01:09.000Z</time>
      </trkpt>
      <trkpt lat="47.05157" lon="-1.63489">
        <ele>53</ele>
        <time>2021-02-20T13:01:11.000Z</time>
      </trkpt>
      <trkpt lat="47.05171" lon="-1.63483">
        <ele>53</ele>
        <time>2021-02-20T13:01:13.000Z</time>
      </trkpt>
      <trkpt lat="47.05185" lon="-1.63478">
        <ele>53</ele>
        <time>2021-02-20T13:01:15.000Z</time>
      </trkpt>
      <trkpt lat="47.052" lon="-1.63472">
        <ele>53</ele>
        <time>2021-02-20T13:01:17.000Z</time>
      </trkpt>
      <trkpt lat="47.05215" lon="-1.63466">
        <ele>53</ele>
        <time>2021-02-20T13:01:19.000Z</time>
      </trkpt>
      <trkpt lat="47.05231" lon="-1.63462">
        <ele>53</ele>
        <time>2021-02-20T13:01:21.000Z</time>
      </trkpt>
      <trkpt lat="47.05246" lon="-1.63457">
        <ele>53</ele>
        <time>2021-02-20T13:01:23.000Z</time>
      </trkpt>
      <trkpt lat="47.05261" lon="-1.63453">
        <ele>53</ele>
        <time>2021-02-20T13:01:25.000Z</time>
      </trkpt>
      <trkpt lat="47.05277" lon="-1.63449">
        <ele>53</ele>
        <time>2021-02-20T13:01:27.000Z</time>
      </trkpt>
      <trkpt lat="47.05293" lon="-1.63447">
        <ele>54</ele>
        <time>2021-02-20T13:01:29.000Z</time>
      </trkpt>
      <trkpt lat="47.05309" lon="-1.63444">
        <ele>54</ele>
        <time>2021-02-20T13:01:31.000Z</time>
      </trkpt>
      <trkpt lat="47.05325" lon="-1.63443">
        <ele>54</ele>
        <time>2021-02-20T13:01:33.000Z</time>
      </trkpt>
      <trkpt lat="47.0534" lon="-1.63442">
        <ele>53</ele>
        <time>2021-02-20T13:01:35.000Z</time>
      </trkpt>
      <trkpt lat="47.05355" lon="-1.63438">
        <ele>53</ele>
        <time>2021-02-20T13:01:37.000Z</time>
      </trkpt>
      <trkpt lat="47.0537" lon="-1.63431">
        <ele>53</ele>
        <time>2021-02-20T13:01:39.000Z</time>
      </trkpt>
      <trkpt lat="47.05385" lon="-1.6343">
        <ele>53</ele>
        <time>2021-02-20T13:01:41.000Z</time>
      </trkpt>
      <trkpt lat="47.054" lon="-1.63432">
        <ele>52</ele>
        <time>2021-02-20T13:01:43.000Z</time>
      </trkpt>
      <trkpt lat="47.05416" lon="-1.6343">
        <ele>52</ele>
        <time>2021-02-20T13:01:45.000Z</time>
      </trkpt>
      <trkpt lat="47.05432" lon="-1.63426">
        <ele>52</ele>
        <time>2021-02-20T13:01:47.000Z</time>
      </trkpt>
      <trkpt lat="47.05448" lon="-1.63423">
        <ele>52</ele>
        <time>2021-02-20T13:01:49.000Z</time>
      </trkpt>
      <trkpt lat="47.05464" lon="-1.63421">
        <ele>52</ele>
        <time>2021-02-20T13:01:51.000Z</time>
      </trkpt>
      <trkpt lat="47.0548" lon="-1.63418">
        <ele>52</ele>
        <time>2021-02-20T13:01:53.000Z</time>
      </trkpt>
      <trkpt lat="47.05497" lon="-1.63415">
        <ele>52</ele>
        <time>2021-02-20T13:01:55.000Z</time>
      </trkpt>
      <trkpt lat="47.05514" lon="-1.63412">
        <ele>52</ele>
        <time>2021-02-20T13:01:57.000Z</time>
      </trkpt>
      <trkpt lat="47.0553" lon="-1.63408">
        <ele>52</ele>
        <time>2021-02-20T13:01:59.000Z</time>
      </trkpt>
      <trkpt lat="47.05546" lon="-1.63402">
        <ele>52</ele>
        <time>2021-02-20T13:02:01.000Z</time>
      </trkpt>
      <trkpt lat="47.05562" lon="-1.63396">
        <ele>51</ele>
        <time>2021-02-20T13:02:03.000Z</time>
      </trkpt>
      <trkpt lat="47.05578" lon="-1.63389">
        <ele>52</ele>
        <time>2021-02-20T13:02:05.000Z</time>
      </trkpt>
      <trkpt lat="47.05594" lon="-1.63382">
        <ele>52</ele>
        <time>2021-02-20T13:02:07.000Z</time>
      </trkpt>
      <trkpt lat="47.0561" lon="-1.63375">
        <ele>52</ele>
        <time>2021-02-20T13:02:09.000Z</time>
      </trkpt>
      <trkpt lat="47.05626" lon="-1.63367">
        <ele>52</ele>
        <time>2021-02-20T13:02:11.000Z</time>
      </trkpt>
      <trkpt lat="47.05643" lon="-1.6336">
        <ele>52</ele>
        <time>2021-02-20T13:02:13.000Z</time>
      </trkpt>
      <trkpt lat="47.05659" lon="-1.63352">
        <ele>52</ele>
        <time>2021-02-20T13:02:15.000Z</time>
      </trkpt>
      <trkpt lat="47.05675" lon="-1.63344">
        <ele>52</ele>
        <time>2021-02-20T13:02:17.000Z</time>
      </trkpt>
      <trkpt lat="47.05691" lon="-1.63337">
        <ele>52</ele>
        <time>2021-02-20T13:02:19.000Z</time>
      </trkpt>
      <trkpt lat="47.05708" lon="-1.63329">
        <ele>52</ele>
        <time>2021-02-20T13:02:21.000Z</time>
      </trkpt>
      <trkpt lat="47.05724" lon="-1.63322">
        <ele>52</ele>
        <time>2021-02-20T13:02:23.000Z</time>
      </trkpt>
      <trkpt lat="47.05741" lon="-1.63314">
        <ele>52</ele>
        <time>2021-02-20T13:02:25.000Z</time>
      </trkpt>
      <trkpt lat="47.05757" lon="-1.63306">
        <ele>52</ele>
        <time>2021-02-20T13:02:27.000Z</time>
      </trkpt>
      <trkpt lat="47.05773" lon="-1.63298">
        <ele>52</ele>
        <time>2021-02-20T13:02:29.000Z</time>
      </trkpt>
      <trkpt lat="47.05789" lon="-1.63291">
        <ele>52</ele>
        <time>2021-02-20T13:02:31.000Z</time>
      </trkpt>
      <trkpt lat="47.05804" lon="-1.63284">
        <ele>52</ele>
        <time>2021-02-20T13:02:33.000Z</time>
      </trkpt>
      <trkpt lat="47.0582" lon="-1.63276">
        <ele>52</ele>
        <time>2021-02-20T13:02:35.000Z</time>
      </trkpt>
      <trkpt lat="47.05835" lon="-1.63269">
        <ele>52</ele>
        <time>2021-02-20T13:02:37.000Z</time>
      </trkpt>
      <trkpt lat="47.05851" lon="-1.63263">
        <ele>52</ele>
        <time>2021-02-20T13:02:39.000Z</time>
      </trkpt>
      <trkpt lat="47.05866" lon="-1.63256">
        <ele>52</ele>
        <time>2021-02-20T13:02:41.000Z</time>
      </trkpt>
      <trkpt lat="47.05881" lon="-1.63249">
        <ele>52</ele>
        <time>2021-02-20T13:02:43.000Z</time>
      </trkpt>
      <trkpt lat="47.05896" lon="-1.63242">
        <ele>52</ele>
        <time>2021-02-20T13:02:45.000Z</time>
      </trkpt>
      <trkpt lat="47.05911" lon="-1.63235">
        <ele>52</ele>
        <time>2021-02-20T13:02:47.000Z</time>
      </trkpt>
      <trkpt lat="47.05926" lon="-1.63227">
        <ele>52</ele>
        <time>2021-02-20T13:02:49.000Z</time>
      </trkpt>
      <trkpt lat="47.05942" lon="-1.6322">
        <ele>52</ele>
        <time>2021-02-20T13:02:51.000Z</time>
      </trkpt>
      <trkpt lat="47.05956" lon="-1.63213">
        <ele>52</ele>
        <time>2021-02-20T13:02:53.000Z</time>
      </trkpt>
      <trkpt lat="47.0597" lon="-1.63206">
        <ele>52</ele>
        <time>2021-02-20T13:02:55.000Z</time>
      </trkpt>
      <trkpt lat="47.05985" lon="-1.63198">
        <ele>52</ele>
        <time>2021-02-20T13:02:57.000Z</time>
      </trkpt>
      <trkpt lat="47.06" lon="-1.63191">
        <ele>52</ele>
        <time>2021-02-20T13:02:59.000Z</time>
      </trkpt>
      <trkpt lat="47.06015" lon="-1.63185">
        <ele>52</ele>
        <time>2021-02-20T13:03:01.000Z</time>
      </trkpt>
      <trkpt lat="47.06031" lon="-1.63177">
        <ele>52</ele>
        <time>2021-02-20T13:03:03.000Z</time>
      </trkpt>
      <trkpt lat="47.06046" lon="-1.63169">
        <ele>52</ele>
        <time>2021-02-20T13:03:05.000Z</time>
      </trkpt>
      <trkpt lat="47.06062" lon="-1.63162">
        <ele>53</ele>
        <time>2021-02-20T13:03:07.000Z</time>
      </trkpt>
      <trkpt lat="47.06078" lon="-1.63155">
        <ele>53</ele>
        <time>2021-02-20T13:03:09.000Z</time>
      </trkpt>
      <trkpt lat="47.06094" lon="-1.63147">
        <ele>53</ele>
        <time>2021-02-20T13:03:11.000Z</time>
      </trkpt>
      <trkpt lat="47.06111" lon="-1.6314">
        <ele>52</ele>
        <time>2021-02-20T13:03:13.000Z</time>
      </trkpt>
      <trkpt lat="47.06127" lon="-1.63132">
        <ele>52</ele>
        <time>2021-02-20T13:03:15.000Z</time>
      </trkpt>
      <trkpt lat="47.06143" lon="-1.63124">
        <ele>52</ele>
        <time>2021-02-20T13:03:17.000Z</time>
      </trkpt>
      <trkpt lat="47.06159" lon="-1.63117">
        <ele>52</ele>
        <time>2021-02-20T13:03:19.000Z</time>
      </trkpt>
      <trkpt lat="47.06175" lon="-1.6311">
        <ele>52</ele>
        <time>2021-02-20T13:03:21.000Z</time>
      </trkpt>
      <trkpt lat="47.06191" lon="-1.63103">
        <ele>52</ele>
        <time>2021-02-20T13:03:23.000Z</time>
      </trkpt>
      <trkpt lat="47.06206" lon="-1.63095">
        <ele>51</ele>
        <time>2021-02-20T13:03:25.000Z</time>
      </trkpt>
      <trkpt lat="47.06222" lon="-1.63088">
        <ele>51</ele>
        <time>2021-02-20T13:03:27.000Z</time>
      </trkpt>
      <trkpt lat="47.06238" lon="-1.6308">
        <ele>51</ele>
        <time>2021-02-20T13:03:29.000Z</time>
      </trkpt>
      <trkpt lat="47.06254" lon="-1.63073">
        <ele>52</ele>
        <time>2021-02-20T13:03:31.000Z</time>
      </trkpt>
      <trkpt lat="47.0627" lon="-1.63066">
        <ele>51</ele>
        <time>2021-02-20T13:03:33.000Z</time>
      </trkpt>
      <trkpt lat="47.06285" lon="-1.63059">
        <ele>51</ele>
        <time>2021-02-20T13:03:35.000Z</time>
      </trkpt>
      <trkpt lat="47.06301" lon="-1.63051">
        <ele>51</ele>
        <time>2021-02-20T13:03:37.000Z</time>
      </trkpt>
      <trkpt lat="47.06315" lon="-1.63044">
        <ele>52</ele>
        <time>2021-02-20T13:03:39.000Z</time>
      </trkpt>
      <trkpt lat="47.0633" lon="-1.63036">
        <ele>52</ele>
        <time>2021-02-20T13:03:41.000Z</time>
      </trkpt>
      <trkpt lat="47.06345" lon="-1.63029">
        <ele>52</ele>
        <time>2021-02-20T13:03:43.000Z</time>
      </trkpt>
      <trkpt lat="47.0636" lon="-1.63023">
        <ele>53</ele>
        <time>2021-02-20T13:03:45.000Z</time>
      </trkpt>
      <trkpt lat="47.06375" lon="-1.63016">
        <ele>53</ele>
        <time>2021-02-20T13:03:47.000Z</time>
      </trkpt>
      <trkpt lat="47.06391" lon="-1.63009">
        <ele>53</ele>
        <time>2021-02-20T13:03:49.000Z</time>
      </trkpt>
      <trkpt lat="47.06406" lon="-1.63001">
        <ele>54</ele>
        <time>2021-02-20T13:03:51.000Z</time>
      </trkpt>
      <trkpt lat="47.06422" lon="-1.62993">
        <ele>54</ele>
        <time>2021-02-20T13:03:53.000Z</time>
      </trkpt>
      <trkpt lat="47.06437" lon="-1.62987">
        <ele>54</ele>
        <time>2021-02-20T13:03:55.000Z</time>
      </trkpt>
      <trkpt lat="47.06452" lon="-1.62979">
        <ele>54</ele>
        <time>2021-02-20T13:03:57.000Z</time>
      </trkpt>
      <trkpt lat="47.06468" lon="-1.62972">
        <ele>54</ele>
        <time>2021-02-20T13:03:59.000Z</time>
      </trkpt>
      <trkpt lat="47.06483" lon="-1.62962">
        <ele>54</ele>
        <time>2021-02-20T13:04:01.000Z</time>
      </trkpt>
      <trkpt lat="47.06498" lon="-1.62951">
        <ele>54</ele>
        <time>2021-02-20T13:04:03.000Z</time>
      </trkpt>
      <trkpt lat="47.06512" lon="-1.62939">
        <ele>53</ele>
        <time>2021-02-20T13:04:05.000Z</time>
      </trkpt>
      <trkpt lat="47.06525" lon="-1.62924">
        <ele>53</ele>
        <time>2021-02-20T13:04:07.000Z</time>
      </trkpt>
      <trkpt lat="47.06537" lon="-1.62907">
        <ele>54</ele>
        <time>2021-02-20T13:04:09.000Z</time>
      </trkpt>
      <trkpt lat="47.06549" lon="-1.62891">
        <ele>54</ele>
        <time>2021-02-20T13:04:11.000Z</time>
      </trkpt>
      <trkpt lat="47.06561" lon="-1.62873">
        <ele>54</ele>
        <time>2021-02-20T13:04:13.000Z</time>
      </trkpt>
      <trkpt lat="47.06572" lon="-1.62856">
        <ele>54</ele>
        <time>2021-02-20T13:04:15.000Z</time>
      </trkpt>
      <trkpt lat="47.06583" lon="-1.62839">
        <ele>53</ele>
        <time>2021-02-20T13:04:17.000Z</time>
      </trkpt>
      <trkpt lat="47.06595" lon="-1.62821">
        <ele>54</ele>
        <time>2021-02-20T13:04:19.000Z</time>
      </trkpt>
      <trkpt lat="47.06606" lon="-1.62804">
        <ele>53</ele>
        <time>2021-02-20T13:04:21.000Z</time>
      </trkpt>
      <trkpt lat="47.06617" lon="-1.62787">
        <ele>54</ele>
        <time>2021-02-20T13:04:23.000Z</time>
      </trkpt>
      <trkpt lat="47.06628" lon="-1.62771">
        <ele>54</ele>
        <time>2021-02-20T13:04:25.000Z</time>
      </trkpt>
      <trkpt lat="47.06639" lon="-1.62753">
        <ele>54</ele>
        <time>2021-02-20T13:04:27.000Z</time>
      </trkpt>
      <trkpt lat="47.06651" lon="-1.62736">
        <ele>54</ele>
        <time>2021-02-20T13:04:29.000Z</time>
      </trkpt>
      <trkpt lat="47.06662" lon="-1.62718">
        <ele>54</ele>
        <time>2021-02-20T13:04:31.000Z</time>
      </trkpt>
      <trkpt lat="47.06673" lon="-1.62702">
        <ele>54</ele>
        <time>2021-02-20T13:04:33.000Z</time>
      </trkpt>
      <trkpt lat="47.06683" lon="-1.62685">
        <ele>54</ele>
        <time>2021-02-20T13:04:35.000Z</time>
      </trkpt>
      <trkpt lat="47.06694" lon="-1.62669">
        <ele>54</ele>
        <time>2021-02-20T13:04:37.000Z</time>
      </trkpt>
      <trkpt lat="47.06705" lon="-1.62653">
        <ele>54</ele>
        <time>2021-02-20T13:04:39.000Z</time>
      </trkpt>
      <trkpt lat="47.06717" lon="-1.62638">
        <ele>54</ele>
        <time>2021-02-20T13:04:41.000Z</time>
      </trkpt>
      <trkpt lat="47.06729" lon="-1.62625">
        <ele>54</ele>
        <time>2021-02-20T13:04:43.000Z</time>
      </trkpt>
      <trkpt lat="47.06742" lon="-1.62611">
        <ele>53</ele>
        <time>2021-02-20T13:04:45.000Z</time>
      </trkpt>
      <trkpt lat="47.06756" lon="-1.62599">
        <ele>53</ele>
        <time>2021-02-20T13:04:47.000Z</time>
      </trkpt>
      <trkpt lat="47.06769" lon="-1.62587">
        <ele>53</ele>
        <time>2021-02-20T13:04:49.000Z</time>
      </trkpt>
      <trkpt lat="47.06782" lon="-1.62574">
        <ele>53</ele>
        <time>2021-02-20T13:04:51.000Z</time>
      </trkpt>
      <trkpt lat="47.06795" lon="-1.62563">
        <ele>53</ele>
        <time>2021-02-20T13:04:53.000Z</time>
      </trkpt>
      <trkpt lat="47.06808" lon="-1.62551">
        <ele>53</ele>
        <time>2021-02-20T13:04:55.000Z</time>
      </trkpt>
      <trkpt lat="47.06821" lon="-1.6254">
        <ele>53</ele>
        <time>2021-02-20T13:04:57.000Z</time>
      </trkpt>
      <trkpt lat="47.06834" lon="-1.62528">
        <ele>53</ele>
        <time>2021-02-20T13:04:59.000Z</time>
      </trkpt>
      <trkpt lat="47.06847" lon="-1.62518">
        <ele>53</ele>
        <time>2021-02-20T13:05:01.000Z</time>
      </trkpt>
      <trkpt lat="47.0686" lon="-1.62508">
        <ele>53</ele>
        <time>2021-02-20T13:05:03.000Z</time>
      </trkpt>
      <trkpt lat="47.06873" lon="-1.62499">
        <ele>54</ele>
        <time>2021-02-20T13:05:05.000Z</time>
      </trkpt>
      <trkpt lat="47.06887" lon="-1.62491">
        <ele>53</ele>
        <time>2021-02-20T13:05:07.000Z</time>
      </trkpt>
      <trkpt lat="47.06902" lon="-1.62485">
        <ele>53</ele>
        <time>2021-02-20T13:05:09.000Z</time>
      </trkpt>
      <trkpt lat="47.06917" lon="-1.62478">
        <ele>53</ele>
        <time>2021-02-20T13:05:11.000Z</time>
      </trkpt>
      <trkpt lat="47.06931" lon="-1.62472">
        <ele>53</ele>
        <time>2021-02-20T13:05:13.000Z</time>
      </trkpt>
      <trkpt lat="47.06946" lon="-1.62466">
        <ele>53</ele>
        <time>2021-02-20T13:05:15.000Z</time>
      </trkpt>
      <trkpt lat="47.0696" lon="-1.6246">
        <ele>54</ele>
        <time>2021-02-20T13:05:17.000Z</time>
      </trkpt>
      <trkpt lat="47.06975" lon="-1.62453">
        <ele>54</ele>
        <time>2021-02-20T13:05:19.000Z</time>
      </trkpt>
      <trkpt lat="47.06989" lon="-1.62446">
        <ele>54</ele>
        <time>2021-02-20T13:05:21.000Z</time>
      </trkpt>
      <trkpt lat="47.07002" lon="-1.6244">
        <ele>54</ele>
        <time>2021-02-20T13:05:23.000Z</time>
      </trkpt>
      <trkpt lat="47.07016" lon="-1.62434">
        <ele>55</ele>
        <time>2021-02-20T13:05:25.000Z</time>
      </trkpt>
      <trkpt lat="47.07029" lon="-1.62426">
        <ele>55</ele>
        <time>2021-02-20T13:05:27.000Z</time>
      </trkpt>
      <trkpt lat="47.07042" lon="-1.6242">
        <ele>56</ele>
        <time>2021-02-20T13:05:29.000Z</time>
      </trkpt>
      <trkpt lat="47.07053" lon="-1.62412">
        <ele>56</ele>
        <time>2021-02-20T13:05:31.000Z</time>
      </trkpt>
      <trkpt lat="47.07067" lon="-1.62404">
        <ele>56</ele>
        <time>2021-02-20T13:05:33.000Z</time>
      </trkpt>
      <trkpt lat="47.0708" lon="-1.62396">
        <ele>56</ele>
        <time>2021-02-20T13:05:35.000Z</time>
      </trkpt>
      <trkpt lat="47.07092" lon="-1.62389">
        <ele>55</ele>
        <time>2021-02-20T13:05:37.000Z</time>
      </trkpt>
      <trkpt lat="47.07105" lon="-1.6238">
        <ele>54</ele>
        <time>2021-02-20T13:05:39.000Z</time>
      </trkpt>
      <trkpt lat="47.07117" lon="-1.62372">
        <ele>54</ele>
        <time>2021-02-20T13:05:41.000Z</time>
      </trkpt>
      <trkpt lat="47.0713" lon="-1.62363">
        <ele>54</ele>
        <time>2021-02-20T13:05:43.000Z</time>
      </trkpt>
      <trkpt lat="47.07142" lon="-1.62354">
        <ele>53</ele>
        <time>2021-02-20T13:05:45.000Z</time>
      </trkpt>
      <trkpt lat="47.07155" lon="-1.62345">
        <ele>53</ele>
        <time>2021-02-20T13:05:47.000Z</time>
      </trkpt>
      <trkpt lat="47.07168" lon="-1.62337">
        <ele>53</ele>
        <time>2021-02-20T13:05:49.000Z</time>
      </trkpt>
      <trkpt lat="47.07181" lon="-1.62328">
        <ele>53</ele>
        <time>2021-02-20T13:05:51.000Z</time>
      </trkpt>
      <trkpt lat="47.07194" lon="-1.6232">
        <ele>53</ele>
        <time>2021-02-20T13:05:53.000Z</time>
      </trkpt>
      <trkpt lat="47.07207" lon="-1.62312">
        <ele>53</ele>
        <time>2021-02-20T13:05:55.000Z</time>
      </trkpt>
      <trkpt lat="47.0722" lon="-1.62304">
        <ele>53</ele>
        <time>2021-02-20T13:05:57.000Z</time>
      </trkpt>
      <trkpt lat="47.07232" lon="-1.62295">
        <ele>53</ele>
        <time>2021-02-20T13:05:59.000Z</time>
      </trkpt>
      <trkpt lat="47.07245" lon="-1.62286">
        <ele>53</ele>
        <time>2021-02-20T13:06:01.000Z</time>
      </trkpt>
      <trkpt lat="47.07257" lon="-1.62277">
        <ele>53</ele>
        <time>2021-02-20T13:06:03.000Z</time>
      </trkpt>
      <trkpt lat="47.07269" lon="-1.62266">
        <ele>53</ele>
        <time>2021-02-20T13:06:05.000Z</time>
      </trkpt>
      <trkpt lat="47.0728" lon="-1.62255">
        <ele>53</ele>
        <time>2021-02-20T13:06:07.000Z</time>
      </trkpt>
      <trkpt lat="47.07291" lon="-1.62242">
        <ele>53</ele>
        <time>2021-02-20T13:06:09.000Z</time>
      </trkpt>
      <trkpt lat="47.07302" lon="-1.62229">
        <ele>53</ele>
        <time>2021-02-20T13:06:11.000Z</time>
      </trkpt>
      <trkpt lat="47.07312" lon="-1.62215">
        <ele>54</ele>
        <time>2021-02-20T13:06:13.000Z</time>
      </trkpt>
      <trkpt lat="47.07322" lon="-1.62201">
        <ele>53</ele>
        <time>2021-02-20T13:06:15.000Z</time>
      </trkpt>
      <trkpt lat="47.07332" lon="-1.62187">
        <ele>54</ele>
        <time>2021-02-20T13:06:17.000Z</time>
      </trkpt>
      <trkpt lat="47.07341" lon="-1.62172">
        <ele>54</ele>
        <time>2021-02-20T13:06:19.000Z</time>
      </trkpt>
      <trkpt lat="47.0735" lon="-1.62158">
        <ele>53</ele>
        <time>2021-02-20T13:06:21.000Z</time>
      </trkpt>
      <trkpt lat="47.07359" lon="-1.62142">
        <ele>53</ele>
        <time>2021-02-20T13:06:23.000Z</time>
      </trkpt>
      <trkpt lat="47.07368" lon="-1.62127">
        <ele>53</ele>
        <time>2021-02-20T13:06:25.000Z</time>
      </trkpt>
      <trkpt lat="47.07378" lon="-1.62112">
        <ele>53</ele>
        <time>2021-02-20T13:06:27.000Z</time>
      </trkpt>
      <trkpt lat="47.07386" lon="-1.62098">
        <ele>53</ele>
        <time>2021-02-20T13:06:29.000Z</time>
      </trkpt>
      <trkpt lat="47.07395" lon="-1.62083">
        <ele>53</ele>
        <time>2021-02-20T13:06:31.000Z</time>
      </trkpt>
      <trkpt lat="47.07405" lon="-1.62068">
        <ele>53</ele>
        <time>2021-02-20T13:06:33.000Z</time>
      </trkpt>
      <trkpt lat="47.07413" lon="-1.62054">
        <ele>54</ele>
        <time>2021-02-20T13:06:35.000Z</time>
      </trkpt>
      <trkpt lat="47.07423" lon="-1.62038">
        <ele>54</ele>
        <time>2021-02-20T13:06:37.000Z</time>
      </trkpt>
      <trkpt lat="47.07432" lon="-1.62023">
        <ele>54</ele>
        <time>2021-02-20T13:06:39.000Z</time>
      </trkpt>
      <trkpt lat="47.07442" lon="-1.62009">
        <ele>54</ele>
        <time>2021-02-20T13:06:41.000Z</time>
      </trkpt>
      <trkpt lat="47.07452" lon="-1.61995">
        <ele>54</ele>
        <time>2021-02-20T13:06:43.000Z</time>
      </trkpt>
      <trkpt lat="47.07463" lon="-1.61981">
        <ele>55</ele>
        <time>2021-02-20T13:06:45.000Z</time>
      </trkpt>
      <trkpt lat="47.07476" lon="-1.61967">
        <ele>55</ele>
        <time>2021-02-20T13:06:47.000Z</time>
      </trkpt>
      <trkpt lat="47.07488" lon="-1.61953">
        <ele>55</ele>
        <time>2021-02-20T13:06:49.000Z</time>
      </trkpt>
      <trkpt lat="47.075" lon="-1.61938">
        <ele>55</ele>
        <time>2021-02-20T13:06:51.000Z</time>
      </trkpt>
      <trkpt lat="47.07513" lon="-1.61924">
        <ele>55</ele>
        <time>2021-02-20T13:06:53.000Z</time>
      </trkpt>
      <trkpt lat="47.07524" lon="-1.6191">
        <ele>55</ele>
        <time>2021-02-20T13:06:55.000Z</time>
      </trkpt>
      <trkpt lat="47.07535" lon="-1.61897">
        <ele>55</ele>
        <time>2021-02-20T13:06:57.000Z</time>
      </trkpt>
      <trkpt lat="47.07547" lon="-1.61883">
        <ele>55</ele>
        <time>2021-02-20T13:06:59.000Z</time>
      </trkpt>
      <trkpt lat="47.07559" lon="-1.6187">
        <ele>55</ele>
        <time>2021-02-20T13:07:01.000Z</time>
      </trkpt>
      <trkpt lat="47.07571" lon="-1.61856">
        <ele>55</ele>
        <time>2021-02-20T13:07:03.000Z</time>
      </trkpt>
      <trkpt lat="47.07582" lon="-1.61842">
        <ele>55</ele>
        <time>2021-02-20T13:07:05.000Z</time>
      </trkpt>
      <trkpt lat="47.07594" lon="-1.61829">
        <ele>55</ele>
        <time>2021-02-20T13:07:07.000Z</time>
      </trkpt>
      <trkpt lat="47.07606" lon="-1.61816">
        <ele>54</ele>
        <time>2021-02-20T13:07:09.000Z</time>
      </trkpt>
      <trkpt lat="47.07617" lon="-1.61802">
        <ele>54</ele>
        <time>2021-02-20T13:07:11.000Z</time>
      </trkpt>
      <trkpt lat="47.07629" lon="-1.61789">
        <ele>54</ele>
        <time>2021-02-20T13:07:13.000Z</time>
      </trkpt>
      <trkpt lat="47.0764" lon="-1.61775">
        <ele>54</ele>
        <time>2021-02-20T13:07:15.000Z</time>
      </trkpt>
      <trkpt lat="47.07653" lon="-1.61761">
        <ele>54</ele>
        <time>2021-02-20T13:07:17.000Z</time>
      </trkpt>
      <trkpt lat="47.07665" lon="-1.61748">
        <ele>54</ele>
        <time>2021-02-20T13:07:19.000Z</time>
      </trkpt>
      <trkpt lat="47.07677" lon="-1.61734">
        <ele>53</ele>
        <time>2021-02-20T13:07:21.000Z</time>
      </trkpt>
      <trkpt lat="47.07689" lon="-1.6172">
        <ele>52</ele>
        <time>2021-02-20T13:07:23.000Z</time>
      </trkpt>
      <trkpt lat="47.07702" lon="-1.61706">
        <ele>52</ele>
        <time>2021-02-20T13:07:25.000Z</time>
      </trkpt>
      <trkpt lat="47.07714" lon="-1.61692">
        <ele>52</ele>
        <time>2021-02-20T13:07:27.000Z</time>
      </trkpt>
      <trkpt lat="47.07725" lon="-1.61678">
        <ele>52</ele>
        <time>2021-02-20T13:07:29.000Z</time>
      </trkpt>
      <trkpt lat="47.07737" lon="-1.61666">
        <ele>52</ele>
        <time>2021-02-20T13:07:31.000Z</time>
      </trkpt>
      <trkpt lat="47.07749" lon="-1.61652">
        <ele>52</ele>
        <time>2021-02-20T13:07:33.000Z</time>
      </trkpt>
      <trkpt lat="47.07761" lon="-1.61638">
        <ele>52</ele>
        <time>2021-02-20T13:07:35.000Z</time>
      </trkpt>
      <trkpt lat="47.07773" lon="-1.61625">
        <ele>52</ele>
        <time>2021-02-20T13:07:37.000Z</time>
      </trkpt>
      <trkpt lat="47.07784" lon="-1.61612">
        <ele>52</ele>
        <time>2021-02-20T13:07:39.000Z</time>
      </trkpt>
      <trkpt lat="47.07797" lon="-1.616">
        <ele>52</ele>
        <time>2021-02-20T13:07:41.000Z</time>
      </trkpt>
      <trkpt lat="47.07809" lon="-1.61589">
        <ele>52</ele>
        <time>2021-02-20T13:07:43.000Z</time>
      </trkpt>
      <trkpt lat="47.07822" lon="-1.6158">
        <ele>52</ele>
        <time>2021-02-20T13:07:45.000Z</time>
      </trkpt>
      <trkpt lat="47.07835" lon="-1.61572">
        <ele>52</ele>
        <time>2021-02-20T13:07:47.000Z</time>
      </trkpt>
      <trkpt lat="47.07849" lon="-1.61564">
        <ele>52</ele>
        <time>2021-02-20T13:07:49.000Z</time>
      </trkpt>
      <trkpt lat="47.07862" lon="-1.61557">
        <ele>53</ele>
        <time>2021-02-20T13:07:51.000Z</time>
      </trkpt>
      <trkpt lat="47.07878" lon="-1.6155">
        <ele>53</ele>
        <time>2021-02-20T13:07:53.000Z</time>
      </trkpt>
      <trkpt lat="47.07893" lon="-1.61544">
        <ele>53</ele>
        <time>2021-02-20T13:07:55.000Z</time>
      </trkpt>
      <trkpt lat="47.07909" lon="-1.61537">
        <ele>53</ele>
        <time>2021-02-20T13:07:57.000Z</time>
      </trkpt>
      <trkpt lat="47.07924" lon="-1.61531">
        <ele>53</ele>
        <time>2021-02-20T13:07:59.000Z</time>
      </trkpt>
      <trkpt lat="47.07939" lon="-1.61525">
        <ele>53</ele>
        <time>2021-02-20T13:08:01.000Z</time>
      </trkpt>
      <trkpt lat="47.07953" lon="-1.61519">
        <ele>53</ele>
        <time>2021-02-20T13:08:03.000Z</time>
      </trkpt>
      <trkpt lat="47.07967" lon="-1.61513">
        <ele>53</ele>
        <time>2021-02-20T13:08:05.000Z</time>
      </trkpt>
      <trkpt lat="47.07981" lon="-1.61507">
        <ele>53</ele>
        <time>2021-02-20T13:08:07.000Z</time>
      </trkpt>
      <trkpt lat="47.07995" lon="-1.61501">
        <ele>52</ele>
        <time>2021-02-20T13:08:09.000Z</time>
      </trkpt>
      <trkpt lat="47.08009" lon="-1.61495">
        <ele>52</ele>
        <time>2021-02-20T13:08:11.000Z</time>
      </trkpt>
      <trkpt lat="47.08022" lon="-1.6149">
        <ele>52</ele>
        <time>2021-02-20T13:08:13.000Z</time>
      </trkpt>
      <trkpt lat="47.08036" lon="-1.61484">
        <ele>52</ele>
        <time>2021-02-20T13:08:15.000Z</time>
      </trkpt>
      <trkpt lat="47.0805" lon="-1.61478">
        <ele>52</ele>
        <time>2021-02-20T13:08:17.000Z</time>
      </trkpt>
      <trkpt lat="47.08064" lon="-1.61472">
        <ele>52</ele>
        <time>2021-02-20T13:08:19.000Z</time>
      </trkpt>
      <trkpt lat="47.08078" lon="-1.61466">
        <ele>52</ele>
        <time>2021-02-20T13:08:21.000Z</time>
      </trkpt>
      <trkpt lat="47.08091" lon="-1.6146">
        <ele>52</ele>
        <time>2021-02-20T13:08:23.000Z</time>
      </trkpt>
      <trkpt lat="47.08105" lon="-1.61454">
        <ele>52</ele>
        <time>2021-02-20T13:08:25.000Z</time>
      </trkpt>
      <trkpt lat="47.08119" lon="-1.61448">
        <ele>52</ele>
        <time>2021-02-20T13:08:27.000Z</time>
      </trkpt>
      <trkpt lat="47.08132" lon="-1.61442">
        <ele>52</ele>
        <time>2021-02-20T13:08:29.000Z</time>
      </trkpt>
      <trkpt lat="47.08147" lon="-1.61436">
        <ele>51</ele>
        <time>2021-02-20T13:08:31.000Z</time>
      </trkpt>
      <trkpt lat="47.08161" lon="-1.6143">
        <ele>51</ele>
        <time>2021-02-20T13:08:33.000Z</time>
      </trkpt>
      <trkpt lat="47.08175" lon="-1.61424">
        <ele>51</ele>
        <time>2021-02-20T13:08:35.000Z</time>
      </trkpt>
      <trkpt lat="47.08188" lon="-1.61418">
        <ele>51</ele>
        <time>2021-02-20T13:08:37.000Z</time>
      </trkpt>
      <trkpt lat="47.08202" lon="-1.61412">
        <ele>51</ele>
        <time>2021-02-20T13:08:39.000Z</time>
      </trkpt>
      <trkpt lat="47.08215" lon="-1.61406">
        <ele>51</ele>
        <time>2021-02-20T13:08:41.000Z</time>
      </trkpt>
      <trkpt lat="47.08229" lon="-1.614">
        <ele>51</ele>
        <time>2021-02-20T13:08:43.000Z</time>
      </trkpt>
      <trkpt lat="47.08243" lon="-1.61394">
        <ele>51</ele>
        <time>2021-02-20T13:08:45.000Z</time>
      </trkpt>
      <trkpt lat="47.08257" lon="-1.61388">
        <ele>51</ele>
        <time>2021-02-20T13:08:47.000Z</time>
      </trkpt>
      <trkpt lat="47.08271" lon="-1.61383">
        <ele>51</ele>
        <time>2021-02-20T13:08:49.000Z</time>
      </trkpt>
      <trkpt lat="47.08284" lon="-1.61376">
        <ele>51</ele>
        <time>2021-02-20T13:08:51.000Z</time>
      </trkpt>
      <trkpt lat="47.08298" lon="-1.6137">
        <ele>51</ele>
        <time>2021-02-20T13:08:53.000Z</time>
      </trkpt>
      <trkpt lat="47.08312" lon="-1.61364">
        <ele>51</ele>
        <time>2021-02-20T13:08:55.000Z</time>
      </trkpt>
      <trkpt lat="47.08326" lon="-1.61359">
        <ele>51</ele>
        <time>2021-02-20T13:08:57.000Z</time>
      </trkpt>
      <trkpt lat="47.0834" lon="-1.61353">
        <ele>51</ele>
        <time>2021-02-20T13:08:59.000Z</time>
      </trkpt>
      <trkpt lat="47.08354" lon="-1.61347">
        <ele>51</ele>
        <time>2021-02-20T13:09:01.000Z</time>
      </trkpt>
      <trkpt lat="47.08367" lon="-1.61341">
        <ele>51</ele>
        <time>2021-02-20T13:09:03.000Z</time>
      </trkpt>
      <trkpt lat="47.08382" lon="-1.61335">
        <ele>50</ele>
        <time>2021-02-20T13:09:05.000Z</time>
      </trkpt>
      <trkpt lat="47.08396" lon="-1.6133">
        <ele>50</ele>
        <time>2021-02-20T13:09:07.000Z</time>
      </trkpt>
      <trkpt lat="47.08409" lon="-1.61324">
        <ele>50</ele>
        <time>2021-02-20T13:09:09.000Z</time>
      </trkpt>
      <trkpt lat="47.08423" lon="-1.61318">
        <ele>50</ele>
        <time>2021-02-20T13:09:11.000Z</time>
      </trkpt>
      <trkpt lat="47.08437" lon="-1.61312">
        <ele>51</ele>
        <time>2021-02-20T13:09:13.000Z</time>
      </trkpt>
      <trkpt lat="47.0845" lon="-1.61306">
        <ele>50</ele>
        <time>2021-02-20T13:09:15.000Z</time>
      </trkpt>
      <trkpt lat="47.08463" lon="-1.613">
        <ele>51</ele>
        <time>2021-02-20T13:09:17.000Z</time>
      </trkpt>
      <trkpt lat="47.08477" lon="-1.61295">
        <ele>51</ele>
        <time>2021-02-20T13:09:19.000Z</time>
      </trkpt>
      <trkpt lat="47.0849" lon="-1.61288">
        <ele>51</ele>
        <time>2021-02-20T13:09:21.000Z</time>
      </trkpt>
      <trkpt lat="47.08504" lon="-1.61281">
        <ele>51</ele>
        <time>2021-02-20T13:09:23.000Z</time>
      </trkpt>
      <trkpt lat="47.08519" lon="-1.61276">
        <ele>51</ele>
        <time>2021-02-20T13:09:25.000Z</time>
      </trkpt>
      <trkpt lat="47.08535" lon="-1.61268">
        <ele>52</ele>
        <time>2021-02-20T13:09:27.000Z</time>
      </trkpt>
      <trkpt lat="47.0855" lon="-1.61262">
        <ele>52</ele>
        <time>2021-02-20T13:09:29.000Z</time>
      </trkpt>
      <trkpt lat="47.08566" lon="-1.61255">
        <ele>52</ele>
        <time>2021-02-20T13:09:31.000Z</time>
      </trkpt>
      <trkpt lat="47.08581" lon="-1.61249">
        <ele>52</ele>
        <time>2021-02-20T13:09:33.000Z</time>
      </trkpt>
      <trkpt lat="47.08597" lon="-1.61242">
        <ele>52</ele>
        <time>2021-02-20T13:09:35.000Z</time>
      </trkpt>
      <trkpt lat="47.08612" lon="-1.61236">
        <ele>53</ele>
        <time>2021-02-20T13:09:37.000Z</time>
      </trkpt>
      <trkpt lat="47.08627" lon="-1.61229">
        <ele>53</ele>
        <time>2021-02-20T13:09:39.000Z</time>
      </trkpt>
      <trkpt lat="47.08641" lon="-1.61223">
        <ele>54</ele>
        <time>2021-02-20T13:09:41.000Z</time>
      </trkpt>
      <trkpt lat="47.08655" lon="-1.61217">
        <ele>54</ele>
        <time>2021-02-20T13:09:43.000Z</time>
      </trkpt>
      <trkpt lat="47.08669" lon="-1.61211">
        <ele>55</ele>
        <time>2021-02-20T13:09:45.000Z</time>
      </trkpt>
      <trkpt lat="47.08683" lon="-1.61205">
        <ele>56</ele>
        <time>2021-02-20T13:09:47.000Z</time>
      </trkpt>
      <trkpt lat="47.08696" lon="-1.61199">
        <ele>56</ele>
        <time>2021-02-20T13:09:49.000Z</time>
      </trkpt>
      <trkpt lat="47.08709" lon="-1.61194">
        <ele>55</ele>
        <time>2021-02-20T13:09:51.000Z</time>
      </trkpt>
      <trkpt lat="47.08722" lon="-1.61188">
        <ele>56</ele>
        <time>2021-02-20T13:09:53.000Z</time>
      </trkpt>
      <trkpt lat="47.08735" lon="-1.61182">
        <ele>56</ele>
        <time>2021-02-20T13:09:55.000Z</time>
      </trkpt>
      <trkpt lat="47.08747" lon="-1.61178">
        <ele>56</ele>
        <time>2021-02-20T13:09:57.000Z</time>
      </trkpt>
      <trkpt lat="47.0876" lon="-1.61172">
        <ele>56</ele>
        <time>2021-02-20T13:09:59.000Z</time>
      </trkpt>
      <trkpt lat="47.08774" lon="-1.61167">
        <ele>56</ele>
        <time>2021-02-20T13:10:01.000Z</time>
      </trkpt>
      <trkpt lat="47.08787" lon="-1.61161">
        <ele>55</ele>
        <time>2021-02-20T13:10:03.000Z</time>
      </trkpt>
      <trkpt lat="47.088" lon="-1.61155">
        <ele>56</ele>
        <time>2021-02-20T13:10:05.000Z</time>
      </trkpt>
      <trkpt lat="47.08812" lon="-1.6115">
        <ele>56</ele>
        <time>2021-02-20T13:10:07.000Z</time>
      </trkpt>
      <trkpt lat="47.08826" lon="-1.61143">
        <ele>56</ele>
        <time>2021-02-20T13:10:09.000Z</time>
      </trkpt>
      <trkpt lat="47.0884" lon="-1.61137">
        <ele>56</ele>
        <time>2021-02-20T13:10:11.000Z</time>
      </trkpt>
      <trkpt lat="47.08854" lon="-1.61131">
        <ele>56</ele>
        <time>2021-02-20T13:10:13.000Z</time>
      </trkpt>
      <trkpt lat="47.08868" lon="-1.61126">
        <ele>56</ele>
        <time>2021-02-20T13:10:15.000Z</time>
      </trkpt>
      <trkpt lat="47.08882" lon="-1.61121">
        <ele>56</ele>
        <time>2021-02-20T13:10:17.000Z</time>
      </trkpt>
      <trkpt lat="47.08895" lon="-1.61115">
        <ele>56</ele>
        <time>2021-02-20T13:10:19.000Z</time>
      </trkpt>
      <trkpt lat="47.08908" lon="-1.61109">
        <ele>57</ele>
        <time>2021-02-20T13:10:21.000Z</time>
      </trkpt>
      <trkpt lat="47.08921" lon="-1.61103">
        <ele>57</ele>
        <time>2021-02-20T13:10:23.000Z</time>
      </trkpt>
      <trkpt lat="47.08933" lon="-1.61098">
        <ele>57</ele>
        <time>2021-02-20T13:10:25.000Z</time>
      </trkpt>
      <trkpt lat="47.08946" lon="-1.61092">
        <ele>57</ele>
        <time>2021-02-20T13:10:27.000Z</time>
      </trkpt>
      <trkpt lat="47.08958" lon="-1.61087">
        <ele>57</ele>
        <time>2021-02-20T13:10:29.000Z</time>
      </trkpt>
      <trkpt lat="47.08971" lon="-1.61083">
        <ele>57</ele>
        <time>2021-02-20T13:10:31.000Z</time>
      </trkpt>
      <trkpt lat="47.08985" lon="-1.61082">
        <ele>57</ele>
        <time>2021-02-20T13:10:33.000Z</time>
      </trkpt>
      <trkpt lat="47.08999" lon="-1.61084">
        <ele>58</ele>
        <time>2021-02-20T13:10:35.000Z</time>
      </trkpt>
      <trkpt lat="47.09013" lon="-1.61086">
        <ele>58</ele>
        <time>2021-02-20T13:10:37.000Z</time>
      </trkpt>
      <trkpt lat="47.09026" lon="-1.61091">
        <ele>57</ele>
        <time>2021-02-20T13:10:39.000Z</time>
      </trkpt>
      <trkpt lat="47.0904" lon="-1.61095">
        <ele>58</ele>
        <time>2021-02-20T13:10:41.000Z</time>
      </trkpt>
      <trkpt lat="47.09054" lon="-1.61099">
        <ele>58</ele>
        <time>2021-02-20T13:10:43.000Z</time>
      </trkpt>
      <trkpt lat="47.09068" lon="-1.61103">
        <ele>59</ele>
        <time>2021-02-20T13:10:45.000Z</time>
      </trkpt>
      <trkpt lat="47.09082" lon="-1.61108">
        <ele>59</ele>
        <time>2021-02-20T13:10:47.000Z</time>
      </trkpt>
      <trkpt lat="47.09096" lon="-1.61112">
        <ele>59</ele>
        <time>2021-02-20T13:10:49.000Z</time>
      </trkpt>
      <trkpt lat="47.09108" lon="-1.61116">
        <ele>58</ele>
        <time>2021-02-20T13:10:51.000Z</time>
      </trkpt>
      <trkpt lat="47.09121" lon="-1.6112">
        <ele>58</ele>
        <time>2021-02-20T13:10:53.000Z</time>
      </trkpt>
      <trkpt lat="47.09135" lon="-1.61124">
        <ele>58</ele>
        <time>2021-02-20T13:10:55.000Z</time>
      </trkpt>
      <trkpt lat="47.09147" lon="-1.61129">
        <ele>57</ele>
        <time>2021-02-20T13:10:57.000Z</time>
      </trkpt>
      <trkpt lat="47.09161" lon="-1.61132">
        <ele>58</ele>
        <time>2021-02-20T13:10:59.000Z</time>
      </trkpt>
      <trkpt lat="47.09177" lon="-1.61137">
        <ele>58</ele>
        <time>2021-02-20T13:11:01.000Z</time>
      </trkpt>
      <trkpt lat="47.09194" lon="-1.61143">
        <ele>58</ele>
        <time>2021-02-20T13:11:03.000Z</time>
      </trkpt>
      <trkpt lat="47.0921" lon="-1.61148">
        <ele>58</ele>
        <time>2021-02-20T13:11:05.000Z</time>
      </trkpt>
      <trkpt lat="47.09225" lon="-1.6116">
        <ele>58</ele>
        <time>2021-02-20T13:11:07.000Z</time>
      </trkpt>
      <trkpt lat="47.09239" lon="-1.61172">
        <ele>58</ele>
        <time>2021-02-20T13:11:09.000Z</time>
      </trkpt>
      <trkpt lat="47.09256" lon="-1.61177">
        <ele>58</ele>
        <time>2021-02-20T13:11:11.000Z</time>
      </trkpt>
      <trkpt lat="47.09273" lon="-1.61183">
        <ele>57</ele>
        <time>2021-02-20T13:11:13.000Z</time>
      </trkpt>
      <trkpt lat="47.09289" lon="-1.61188">
        <ele>57</ele>
        <time>2021-02-20T13:11:15.000Z</time>
      </trkpt>
      <trkpt lat="47.09306" lon="-1.61194">
        <ele>58</ele>
        <time>2021-02-20T13:11:17.000Z</time>
      </trkpt>
      <trkpt lat="47.09321" lon="-1.61199">
        <ele>58</ele>
        <time>2021-02-20T13:11:19.000Z</time>
      </trkpt>
      <trkpt lat="47.09337" lon="-1.61203">
        <ele>58</ele>
        <time>2021-02-20T13:11:21.000Z</time>
      </trkpt>
      <trkpt lat="47.09352" lon="-1.61206">
        <ele>58</ele>
        <time>2021-02-20T13:11:23.000Z</time>
      </trkpt>
      <trkpt lat="47.09368" lon="-1.61213">
        <ele>57</ele>
        <time>2021-02-20T13:11:25.000Z</time>
      </trkpt>
      <trkpt lat="47.09384" lon="-1.6122">
        <ele>57</ele>
        <time>2021-02-20T13:11:27.000Z</time>
      </trkpt>
      <trkpt lat="47.094" lon="-1.61227">
        <ele>56</ele>
        <time>2021-02-20T13:11:29.000Z</time>
      </trkpt>
      <trkpt lat="47.09416" lon="-1.6123">
        <ele>56</ele>
        <time>2021-02-20T13:11:31.000Z</time>
      </trkpt>
      <trkpt lat="47.09425" lon="-1.61226">
        <ele>56</ele>
        <time>2021-02-20T13:11:32.000Z</time>
      </trkpt>
      <trkpt lat="47.09433" lon="-1.6122">
        <ele>55</ele>
        <time>2021-02-20T13:11:33.000Z</time>
      </trkpt>
      <trkpt lat="47.09446" lon="-1.61205">
        <ele>55</ele>
        <time>2021-02-20T13:11:35.000Z</time>
      </trkpt>
      <trkpt lat="47.09458" lon="-1.61189">
        <ele>55</ele>
        <time>2021-02-20T13:11:37.000Z</time>
      </trkpt>
      <trkpt lat="47.09469" lon="-1.61175">
        <ele>55</ele>
        <time>2021-02-20T13:11:39.000Z</time>
      </trkpt>
      <trkpt lat="47.09482" lon="-1.61161">
        <ele>54</ele>
        <time>2021-02-20T13:11:41.000Z</time>
      </trkpt>
      <trkpt lat="47.09495" lon="-1.6115">
        <ele>55</ele>
        <time>2021-02-20T13:11:43.000Z</time>
      </trkpt>
      <trkpt lat="47.0951" lon="-1.61141">
        <ele>55</ele>
        <time>2021-02-20T13:11:45.000Z</time>
      </trkpt>
      <trkpt lat="47.09527" lon="-1.61137">
        <ele>54</ele>
        <time>2021-02-20T13:11:47.000Z</time>
      </trkpt>
      <trkpt lat="47.09543" lon="-1.61134">
        <ele>55</ele>
        <time>2021-02-20T13:11:49.000Z</time>
      </trkpt>
      <trkpt lat="47.0956" lon="-1.61131">
        <ele>55</ele>
        <time>2021-02-20T13:11:51.000Z</time>
      </trkpt>
      <trkpt lat="47.09577" lon="-1.6113">
        <ele>54</ele>
        <time>2021-02-20T13:11:53.000Z</time>
      </trkpt>
      <trkpt lat="47.09594" lon="-1.61128">
        <ele>53</ele>
        <time>2021-02-20T13:11:55.000Z</time>
      </trkpt>
      <trkpt lat="47.09611" lon="-1.61125">
        <ele>53</ele>
        <time>2021-02-20T13:11:57.000Z</time>
      </trkpt>
      <trkpt lat="47.09628" lon="-1.61123">
        <ele>53</ele>
        <time>2021-02-20T13:11:59.000Z</time>
      </trkpt>
      <trkpt lat="47.09645" lon="-1.61121">
        <ele>53</ele>
        <time>2021-02-20T13:12:01.000Z</time>
      </trkpt>
      <trkpt lat="47.09661" lon="-1.61119">
        <ele>52</ele>
        <time>2021-02-20T13:12:03.000Z</time>
      </trkpt>
      <trkpt lat="47.09678" lon="-1.61117">
        <ele>52</ele>
        <time>2021-02-20T13:12:05.000Z</time>
      </trkpt>
      <trkpt lat="47.09695" lon="-1.61115">
        <ele>52</ele>
        <time>2021-02-20T13:12:07.000Z</time>
      </trkpt>
      <trkpt lat="47.09712" lon="-1.61113">
        <ele>52</ele>
        <time>2021-02-20T13:12:09.000Z</time>
      </trkpt>
      <trkpt lat="47.09729" lon="-1.6111">
        <ele>52</ele>
        <time>2021-02-20T13:12:11.000Z</time>
      </trkpt>
      <trkpt lat="47.09745" lon="-1.61107">
        <ele>52</ele>
        <time>2021-02-20T13:12:13.000Z</time>
      </trkpt>
      <trkpt lat="47.09761" lon="-1.61105">
        <ele>52</ele>
        <time>2021-02-20T13:12:15.000Z</time>
      </trkpt>
      <trkpt lat="47.09777" lon="-1.61103">
        <ele>52</ele>
        <time>2021-02-20T13:12:17.000Z</time>
      </trkpt>
      <trkpt lat="47.09792" lon="-1.611">
        <ele>52</ele>
        <time>2021-02-20T13:12:19.000Z</time>
      </trkpt>
      <trkpt lat="47.09807" lon="-1.61092">
        <ele>52</ele>
        <time>2021-02-20T13:12:21.000Z</time>
      </trkpt>
      <trkpt lat="47.09821" lon="-1.61083">
        <ele>52</ele>
        <time>2021-02-20T13:12:23.000Z</time>
      </trkpt>
      <trkpt lat="47.09834" lon="-1.61072">
        <ele>51</ele>
        <time>2021-02-20T13:12:25.000Z</time>
      </trkpt>
      <trkpt lat="47.09846" lon="-1.6106">
        <ele>51</ele>
        <time>2021-02-20T13:12:27.000Z</time>
      </trkpt>
      <trkpt lat="47.09856" lon="-1.61046">
        <ele>52</ele>
        <time>2021-02-20T13:12:29.000Z</time>
      </trkpt>
      <trkpt lat="47.09865" lon="-1.61031">
        <ele>52</ele>
        <time>2021-02-20T13:12:31.000Z</time>
      </trkpt>
      <trkpt lat="47.09872" lon="-1.61015">
        <ele>53</ele>
        <time>2021-02-20T13:12:33.000Z</time>
      </trkpt>
      <trkpt lat="47.09879" lon="-1.60999">
        <ele>53</ele>
        <time>2021-02-20T13:12:35.000Z</time>
      </trkpt>
      <trkpt lat="47.09886" lon="-1.60982">
        <ele>53</ele>
        <time>2021-02-20T13:12:37.000Z</time>
      </trkpt>
      <trkpt lat="47.09893" lon="-1.60965">
        <ele>54</ele>
        <time>2021-02-20T13:12:39.000Z</time>
      </trkpt>
      <trkpt lat="47.09899" lon="-1.60948">
        <ele>54</ele>
        <time>2021-02-20T13:12:41.000Z</time>
      </trkpt>
      <trkpt lat="47.09905" lon="-1.60932">
        <ele>54</ele>
        <time>2021-02-20T13:12:43.000Z</time>
      </trkpt>
      <trkpt lat="47.09912" lon="-1.60914">
        <ele>55</ele>
        <time>2021-02-20T13:12:45.000Z</time>
      </trkpt>
      <trkpt lat="47.09919" lon="-1.60897">
        <ele>55</ele>
        <time>2021-02-20T13:12:47.000Z</time>
      </trkpt>
      <trkpt lat="47.09925" lon="-1.6088">
        <ele>55</ele>
        <time>2021-02-20T13:12:49.000Z</time>
      </trkpt>
      <trkpt lat="47.09932" lon="-1.60863">
        <ele>55</ele>
        <time>2021-02-20T13:12:51.000Z</time>
      </trkpt>
      <trkpt lat="47.09939" lon="-1.60846">
        <ele>55</ele>
        <time>2021-02-20T13:12:53.000Z</time>
      </trkpt>
      <trkpt lat="47.09945" lon="-1.60828">
        <ele>55</ele>
        <time>2021-02-20T13:12:55.000Z</time>
      </trkpt>
      <trkpt lat="47.09951" lon="-1.60811">
        <ele>55</ele>
        <time>2021-02-20T13:12:57.000Z</time>
      </trkpt>
      <trkpt lat="47.09956" lon="-1.60793">
        <ele>56</ele>
        <time>2021-02-20T13:12:59.000Z</time>
      </trkpt>
      <trkpt lat="47.09962" lon="-1.60776">
        <ele>56</ele>
        <time>2021-02-20T13:13:01.000Z</time>
      </trkpt>
      <trkpt lat="47.09967" lon="-1.60759">
        <ele>56</ele>
        <time>2021-02-20T13:13:03.000Z</time>
      </trkpt>
      <trkpt lat="47.09972" lon="-1.60741">
        <ele>56</ele>
        <time>2021-02-20T13:13:05.000Z</time>
      </trkpt>
      <trkpt lat="47.09977" lon="-1.60724">
        <ele>56</ele>
        <time>2021-02-20T13:13:07.000Z</time>
      </trkpt>
      <trkpt lat="47.09983" lon="-1.60707">
        <ele>56</ele>
        <time>2021-02-20T13:13:09.000Z</time>
      </trkpt>
      <trkpt lat="47.09987" lon="-1.6069">
        <ele>56</ele>
        <time>2021-02-20T13:13:11.000Z</time>
      </trkpt>
      <trkpt lat="47.09992" lon="-1.60674">
        <ele>56</ele>
        <time>2021-02-20T13:13:13.000Z</time>
      </trkpt>
      <trkpt lat="47.09997" lon="-1.60657">
        <ele>56</ele>
        <time>2021-02-20T13:13:15.000Z</time>
      </trkpt>
      <trkpt lat="47.10003" lon="-1.60639">
        <ele>56</ele>
        <time>2021-02-20T13:13:17.000Z</time>
      </trkpt>
      <trkpt lat="47.10008" lon="-1.60622">
        <ele>56</ele>
        <time>2021-02-20T13:13:19.000Z</time>
      </trkpt>
      <trkpt lat="47.10013" lon="-1.60605">
        <ele>56</ele>
        <time>2021-02-20T13:13:21.000Z</time>
      </trkpt>
      <trkpt lat="47.10018" lon="-1.60587">
        <ele>56</ele>
        <time>2021-02-20T13:13:23.000Z</time>
      </trkpt>
      <trkpt lat="47.10023" lon="-1.60569">
        <ele>56</ele>
        <time>2021-02-20T13:13:25.000Z</time>
      </trkpt>
      <trkpt lat="47.10029" lon="-1.60551">
        <ele>56</ele>
        <time>2021-02-20T13:13:27.000Z</time>
      </trkpt>
      <trkpt lat="47.10034" lon="-1.60532">
        <ele>56</ele>
        <time>2021-02-20T13:13:29.000Z</time>
      </trkpt>
      <trkpt lat="47.10039" lon="-1.60514">
        <ele>56</ele>
        <time>2021-02-20T13:13:31.000Z</time>
      </trkpt>
      <trkpt lat="47.10044" lon="-1.60496">
        <ele>56</ele>
        <time>2021-02-20T13:13:33.000Z</time>
      </trkpt>
      <trkpt lat="47.10048" lon="-1.60478">
        <ele>56</ele>
        <time>2021-02-20T13:13:35.000Z</time>
      </trkpt>
      <trkpt lat="47.10052" lon="-1.60459">
        <ele>56</ele>
        <time>2021-02-20T13:13:37.000Z</time>
      </trkpt>
      <trkpt lat="47.10055" lon="-1.6044">
        <ele>56</ele>
        <time>2021-02-20T13:13:39.000Z</time>
      </trkpt>
      <trkpt lat="47.10058" lon="-1.60421">
        <ele>56</ele>
        <time>2021-02-20T13:13:41.000Z</time>
      </trkpt>
      <trkpt lat="47.1006" lon="-1.60402">
        <ele>56</ele>
        <time>2021-02-20T13:13:43.000Z</time>
      </trkpt>
      <trkpt lat="47.10062" lon="-1.60384">
        <ele>56</ele>
        <time>2021-02-20T13:13:45.000Z</time>
      </trkpt>
      <trkpt lat="47.10064" lon="-1.60364">
        <ele>56</ele>
        <time>2021-02-20T13:13:47.000Z</time>
      </trkpt>
      <trkpt lat="47.10067" lon="-1.60345">
        <ele>56</ele>
        <time>2021-02-20T13:13:49.000Z</time>
      </trkpt>
      <trkpt lat="47.10068" lon="-1.60325">
        <ele>56</ele>
        <time>2021-02-20T13:13:51.000Z</time>
      </trkpt>
      <trkpt lat="47.10071" lon="-1.60307">
        <ele>56</ele>
        <time>2021-02-20T13:13:53.000Z</time>
      </trkpt>
      <trkpt lat="47.10073" lon="-1.60287">
        <ele>56</ele>
        <time>2021-02-20T13:13:55.000Z</time>
      </trkpt>
      <trkpt lat="47.10075" lon="-1.60268">
        <ele>56</ele>
        <time>2021-02-20T13:13:57.000Z</time>
      </trkpt>
      <trkpt lat="47.10076" lon="-1.6025">
        <ele>56</ele>
        <time>2021-02-20T13:13:59.000Z</time>
      </trkpt>
      <trkpt lat="47.10076" lon="-1.60232">
        <ele>56</ele>
        <time>2021-02-20T13:14:01.000Z</time>
      </trkpt>
      <trkpt lat="47.10078" lon="-1.60213">
        <ele>56</ele>
        <time>2021-02-20T13:14:03.000Z</time>
      </trkpt>
      <trkpt lat="47.10079" lon="-1.60195">
        <ele>56</ele>
        <time>2021-02-20T13:14:05.000Z</time>
      </trkpt>
      <trkpt lat="47.10079" lon="-1.60177">
        <ele>55</ele>
        <time>2021-02-20T13:14:07.000Z</time>
      </trkpt>
      <trkpt lat="47.10075" lon="-1.60159">
        <ele>55</ele>
        <time>2021-02-20T13:14:09.000Z</time>
      </trkpt>
      <trkpt lat="47.1007" lon="-1.60142">
        <ele>55</ele>
        <time>2021-02-20T13:14:11.000Z</time>
      </trkpt>
      <trkpt lat="47.10071" lon="-1.60123">
        <ele>55</ele>
        <time>2021-02-20T13:14:13.000Z</time>
      </trkpt>
      <trkpt lat="47.1008" lon="-1.60108">
        <ele>54</ele>
        <time>2021-02-20T13:14:15.000Z</time>
      </trkpt>
      <trkpt lat="47.10093" lon="-1.60099">
        <ele>55</ele>
        <time>2021-02-20T13:14:17.000Z</time>
      </trkpt>
      <trkpt lat="47.10105" lon="-1.6009">
        <ele>55</ele>
        <time>2021-02-20T13:14:19.000Z</time>
      </trkpt>
      <trkpt lat="47.10114" lon="-1.60075">
        <ele>55</ele>
        <time>2021-02-20T13:14:21.000Z</time>
      </trkpt>
      <trkpt lat="47.10124" lon="-1.6006">
        <ele>56</ele>
        <time>2021-02-20T13:14:23.000Z</time>
      </trkpt>
      <trkpt lat="47.10134" lon="-1.60045">
        <ele>57</ele>
        <time>2021-02-20T13:14:25.000Z</time>
      </trkpt>
      <trkpt lat="47.10144" lon="-1.6003">
        <ele>57</ele>
        <time>2021-02-20T13:14:27.000Z</time>
      </trkpt>
      <trkpt lat="47.10153" lon="-1.60014">
        <ele>57</ele>
        <time>2021-02-20T13:14:29.000Z</time>
      </trkpt>
      <trkpt lat="47.10162" lon="-1.59998">
        <ele>57</ele>
        <time>2021-02-20T13:14:31.000Z</time>
      </trkpt>
      <trkpt lat="47.10172" lon="-1.59982">
        <ele>57</ele>
        <time>2021-02-20T13:14:33.000Z</time>
      </trkpt>
      <trkpt lat="47.10182" lon="-1.59966">
        <ele>57</ele>
        <time>2021-02-20T13:14:35.000Z</time>
      </trkpt>
      <trkpt lat="47.10192" lon="-1.5995">
        <ele>57</ele>
        <time>2021-02-20T13:14:37.000Z</time>
      </trkpt>
      <trkpt lat="47.10201" lon="-1.59934">
        <ele>57</ele>
        <time>2021-02-20T13:14:39.000Z</time>
      </trkpt>
      <trkpt lat="47.10212" lon="-1.59918">
        <ele>56</ele>
        <time>2021-02-20T13:14:41.000Z</time>
      </trkpt>
      <trkpt lat="47.10222" lon="-1.59901">
        <ele>56</ele>
        <time>2021-02-20T13:14:43.000Z</time>
      </trkpt>
      <trkpt lat="47.10232" lon="-1.59886">
        <ele>56</ele>
        <time>2021-02-20T13:14:45.000Z</time>
      </trkpt>
      <trkpt lat="47.10242" lon="-1.5987">
        <ele>56</ele>
        <time>2021-02-20T13:14:47.000Z</time>
      </trkpt>
      <trkpt lat="47.10252" lon="-1.59854">
        <ele>56</ele>
        <time>2021-02-20T13:14:49.000Z</time>
      </trkpt>
      <trkpt lat="47.10261" lon="-1.59837">
        <ele>56</ele>
        <time>2021-02-20T13:14:51.000Z</time>
      </trkpt>
      <trkpt lat="47.10271" lon="-1.59821">
        <ele>56</ele>
        <time>2021-02-20T13:14:53.000Z</time>
      </trkpt>
      <trkpt lat="47.1028" lon="-1.59805">
        <ele>56</ele>
        <time>2021-02-20T13:14:55.000Z</time>
      </trkpt>
      <trkpt lat="47.1029" lon="-1.59789">
        <ele>56</ele>
        <time>2021-02-20T13:14:57.000Z</time>
      </trkpt>
      <trkpt lat="47.10299" lon="-1.59774">
        <ele>56</ele>
        <time>2021-02-20T13:14:59.000Z</time>
      </trkpt>
      <trkpt lat="47.10308" lon="-1.59758">
        <ele>57</ele>
        <time>2021-02-20T13:15:01.000Z</time>
      </trkpt>
      <trkpt lat="47.10316" lon="-1.59742">
        <ele>58</ele>
        <time>2021-02-20T13:15:03.000Z</time>
      </trkpt>
      <trkpt lat="47.10326" lon="-1.59726">
        <ele>59</ele>
        <time>2021-02-20T13:15:05.000Z</time>
      </trkpt>
      <trkpt lat="47.10334" lon="-1.5971">
        <ele>60</ele>
        <time>2021-02-20T13:15:07.000Z</time>
      </trkpt>
      <trkpt lat="47.10342" lon="-1.59694">
        <ele>62</ele>
        <time>2021-02-20T13:15:09.000Z</time>
      </trkpt>
      <trkpt lat="47.1035" lon="-1.59677">
        <ele>63</ele>
        <time>2021-02-20T13:15:11.000Z</time>
      </trkpt>
      <trkpt lat="47.1036" lon="-1.59663">
        <ele>63</ele>
        <time>2021-02-20T13:15:13.000Z</time>
      </trkpt>
      <trkpt lat="47.1037" lon="-1.59648">
        <ele>63</ele>
        <time>2021-02-20T13:15:15.000Z</time>
      </trkpt>
      <trkpt lat="47.10381" lon="-1.59633">
        <ele>62</ele>
        <time>2021-02-20T13:15:17.000Z</time>
      </trkpt>
      <trkpt lat="47.1039" lon="-1.59618">
        <ele>61</ele>
        <time>2021-02-20T13:15:19.000Z</time>
      </trkpt>
      <trkpt lat="47.104" lon="-1.59603">
        <ele>61</ele>
        <time>2021-02-20T13:15:21.000Z</time>
      </trkpt>
      <trkpt lat="47.10409" lon="-1.59588">
        <ele>61</ele>
        <time>2021-02-20T13:15:23.000Z</time>
      </trkpt>
      <trkpt lat="47.10418" lon="-1.59572">
        <ele>61</ele>
        <time>2021-02-20T13:15:25.000Z</time>
      </trkpt>
      <trkpt lat="47.10427" lon="-1.59558">
        <ele>60</ele>
        <time>2021-02-20T13:15:27.000Z</time>
      </trkpt>
      <trkpt lat="47.10435" lon="-1.59543">
        <ele>60</ele>
        <time>2021-02-20T13:15:29.000Z</time>
      </trkpt>
      <trkpt lat="47.10444" lon="-1.59529">
        <ele>60</ele>
        <time>2021-02-20T13:15:31.000Z</time>
      </trkpt>
      <trkpt lat="47.10453" lon="-1.59514">
        <ele>59</ele>
        <time>2021-02-20T13:15:33.000Z</time>
      </trkpt>
      <trkpt lat="47.10462" lon="-1.595">
        <ele>59</ele>
        <time>2021-02-20T13:15:35.000Z</time>
      </trkpt>
      <trkpt lat="47.1047" lon="-1.59485">
        <ele>59</ele>
        <time>2021-02-20T13:15:37.000Z</time>
      </trkpt>
      <trkpt lat="47.1048" lon="-1.5947">
        <ele>58</ele>
        <time>2021-02-20T13:15:39.000Z</time>
      </trkpt>
      <trkpt lat="47.10488" lon="-1.59455">
        <ele>58</ele>
        <time>2021-02-20T13:15:41.000Z</time>
      </trkpt>
      <trkpt lat="47.10497" lon="-1.59441">
        <ele>58</ele>
        <time>2021-02-20T13:15:43.000Z</time>
      </trkpt>
      <trkpt lat="47.10505" lon="-1.59426">
        <ele>58</ele>
        <time>2021-02-20T13:15:45.000Z</time>
      </trkpt>
      <trkpt lat="47.10514" lon="-1.59411">
        <ele>58</ele>
        <time>2021-02-20T13:15:47.000Z</time>
      </trkpt>
      <trkpt lat="47.10523" lon="-1.59396">
        <ele>58</ele>
        <time>2021-02-20T13:15:49.000Z</time>
      </trkpt>
      <trkpt lat="47.10532" lon="-1.59382">
        <ele>58</ele>
        <time>2021-02-20T13:15:51.000Z</time>
      </trkpt>
      <trkpt lat="47.10541" lon="-1.59367">
        <ele>58</ele>
        <time>2021-02-20T13:15:53.000Z</time>
      </trkpt>
      <trkpt lat="47.1055" lon="-1.59353">
        <ele>58</ele>
        <time>2021-02-20T13:15:55.000Z</time>
      </trkpt>
      <trkpt lat="47.10558" lon="-1.59338">
        <ele>57</ele>
        <time>2021-02-20T13:15:57.000Z</time>
      </trkpt>
      <trkpt lat="47.10566" lon="-1.59324">
        <ele>57</ele>
        <time>2021-02-20T13:15:59.000Z</time>
      </trkpt>
      <trkpt lat="47.10574" lon="-1.59309">
        <ele>58</ele>
        <time>2021-02-20T13:16:01.000Z</time>
      </trkpt>
      <trkpt lat="47.10581" lon="-1.59295">
        <ele>58</ele>
        <time>2021-02-20T13:16:03.000Z</time>
      </trkpt>
      <trkpt lat="47.10589" lon="-1.59281">
        <ele>58</ele>
        <time>2021-02-20T13:16:05.000Z</time>
      </trkpt>
      <trkpt lat="47.10597" lon="-1.59266">
        <ele>58</ele>
        <time>2021-02-20T13:16:07.000Z</time>
      </trkpt>
      <trkpt lat="47.10605" lon="-1.59251">
        <ele>59</ele>
        <time>2021-02-20T13:16:09.000Z</time>
      </trkpt>
      <trkpt lat="47.10614" lon="-1.59236">
        <ele>59</ele>
        <time>2021-02-20T13:16:11.000Z</time>
      </trkpt>
      <trkpt lat="47.10623" lon="-1.59222">
        <ele>59</ele>
        <time>2021-02-20T13:16:13.000Z</time>
      </trkpt>
      <trkpt lat="47.10631" lon="-1.59209">
        <ele>60</ele>
        <time>2021-02-20T13:16:15.000Z</time>
      </trkpt>
      <trkpt lat="47.10639" lon="-1.59194">
        <ele>60</ele>
        <time>2021-02-20T13:16:17.000Z</time>
      </trkpt>
      <trkpt lat="47.10646" lon="-1.59178">
        <ele>61</ele>
        <time>2021-02-20T13:16:19.000Z</time>
      </trkpt>
      <trkpt lat="47.10653" lon="-1.59162">
        <ele>61</ele>
        <time>2021-02-20T13:16:21.000Z</time>
      </trkpt>
      <trkpt lat="47.10659" lon="-1.59146">
        <ele>61</ele>
        <time>2021-02-20T13:16:23.000Z</time>
      </trkpt>
      <trkpt lat="47.10665" lon="-1.5913">
        <ele>62</ele>
        <time>2021-02-20T13:16:25.000Z</time>
      </trkpt>
      <trkpt lat="47.10671" lon="-1.59114">
        <ele>62</ele>
        <time>2021-02-20T13:16:27.000Z</time>
      </trkpt>
      <trkpt lat="47.10676" lon="-1.59096">
        <ele>62</ele>
        <time>2021-02-20T13:16:29.000Z</time>
      </trkpt>
      <trkpt lat="47.10682" lon="-1.59078">
        <ele>62</ele>
        <time>2021-02-20T13:16:31.000Z</time>
      </trkpt>
      <trkpt lat="47.10689" lon="-1.59061">
        <ele>63</ele>
        <time>2021-02-20T13:16:33.000Z</time>
      </trkpt>
      <trkpt lat="47.10695" lon="-1.59045">
        <ele>63</ele>
        <time>2021-02-20T13:16:35.000Z</time>
      </trkpt>
      <trkpt lat="47.10702" lon="-1.59029">
        <ele>63</ele>
        <time>2021-02-20T13:16:37.000Z</time>
      </trkpt>
      <trkpt lat="47.10708" lon="-1.59013">
        <ele>63</ele>
        <time>2021-02-20T13:16:39.000Z</time>
      </trkpt>
      <trkpt lat="47.10715" lon="-1.58997">
        <ele>63</ele>
        <time>2021-02-20T13:16:41.000Z</time>
      </trkpt>
      <trkpt lat="47.10721" lon="-1.58981">
        <ele>64</ele>
        <time>2021-02-20T13:16:43.000Z</time>
      </trkpt>
      <trkpt lat="47.10728" lon="-1.58965">
        <ele>64</ele>
        <time>2021-02-20T13:16:45.000Z</time>
      </trkpt>
      <trkpt lat="47.10733" lon="-1.58949">
        <ele>64</ele>
        <time>2021-02-20T13:16:47.000Z</time>
      </trkpt>
      <trkpt lat="47.10739" lon="-1.58933">
        <ele>64</ele>
        <time>2021-02-20T13:16:49.000Z</time>
      </trkpt>
      <trkpt lat="47.10746" lon="-1.58918">
        <ele>64</ele>
        <time>2021-02-20T13:16:51.000Z</time>
      </trkpt>
      <trkpt lat="47.10754" lon="-1.58904">
        <ele>64</ele>
        <time>2021-02-20T13:16:53.000Z</time>
      </trkpt>
      <trkpt lat="47.10762" lon="-1.5889">
        <ele>64</ele>
        <time>2021-02-20T13:16:55.000Z</time>
      </trkpt>
      <trkpt lat="47.10771" lon="-1.58878">
        <ele>64</ele>
        <time>2021-02-20T13:16:57.000Z</time>
      </trkpt>
      <trkpt lat="47.10779" lon="-1.58863">
        <ele>64</ele>
        <time>2021-02-20T13:16:59.000Z</time>
      </trkpt>
      <trkpt lat="47.10788" lon="-1.58848">
        <ele>64</ele>
        <time>2021-02-20T13:17:01.000Z</time>
      </trkpt>
      <trkpt lat="47.10797" lon="-1.58834">
        <ele>63</ele>
        <time>2021-02-20T13:17:03.000Z</time>
      </trkpt>
      <trkpt lat="47.10806" lon="-1.5882">
        <ele>63</ele>
        <time>2021-02-20T13:17:05.000Z</time>
      </trkpt>
      <trkpt lat="47.10816" lon="-1.58805">
        <ele>63</ele>
        <time>2021-02-20T13:17:07.000Z</time>
      </trkpt>
      <trkpt lat="47.10826" lon="-1.5879">
        <ele>62</ele>
        <time>2021-02-20T13:17:09.000Z</time>
      </trkpt>
      <trkpt lat="47.10836" lon="-1.58774">
        <ele>62</ele>
        <time>2021-02-20T13:17:11.000Z</time>
      </trkpt>
      <trkpt lat="47.10846" lon="-1.5876">
        <ele>61</ele>
        <time>2021-02-20T13:17:13.000Z</time>
      </trkpt>
      <trkpt lat="47.10856" lon="-1.58744">
        <ele>61</ele>
        <time>2021-02-20T13:17:15.000Z</time>
      </trkpt>
      <trkpt lat="47.10867" lon="-1.58729">
        <ele>61</ele>
        <time>2021-02-20T13:17:17.000Z</time>
      </trkpt>
      <trkpt lat="47.10877" lon="-1.58713">
        <ele>60</ele>
        <time>2021-02-20T13:17:19.000Z</time>
      </trkpt>
      <trkpt lat="47.10888" lon="-1.58697">
        <ele>59</ele>
        <time>2021-02-20T13:17:21.000Z</time>
      </trkpt>
      <trkpt lat="47.10898" lon="-1.5868">
        <ele>59</ele>
        <time>2021-02-20T13:17:23.000Z</time>
      </trkpt>
      <trkpt lat="47.1091" lon="-1.58663">
        <ele>59</ele>
        <time>2021-02-20T13:17:25.000Z</time>
      </trkpt>
      <trkpt lat="47.10922" lon="-1.58646">
        <ele>59</ele>
        <time>2021-02-20T13:17:27.000Z</time>
      </trkpt>
      <trkpt lat="47.10934" lon="-1.58629">
        <ele>58</ele>
        <time>2021-02-20T13:17:29.000Z</time>
      </trkpt>
      <trkpt lat="47.10946" lon="-1.58611">
        <ele>59</ele>
        <time>2021-02-20T13:17:31.000Z</time>
      </trkpt>
      <trkpt lat="47.10958" lon="-1.58593">
        <ele>58</ele>
        <time>2021-02-20T13:17:33.000Z</time>
      </trkpt>
      <trkpt lat="47.1097" lon="-1.58574">
        <ele>59</ele>
        <time>2021-02-20T13:17:35.000Z</time>
      </trkpt>
      <trkpt lat="47.10976" lon="-1.58565">
        <ele>59</ele>
        <time>2021-02-20T13:17:36.000Z</time>
      </trkpt>
      <trkpt lat="47.10988" lon="-1.58546">
        <ele>59</ele>
        <time>2021-02-20T13:17:38.000Z</time>
      </trkpt>
      <trkpt lat="47.11" lon="-1.58528">
        <ele>58</ele>
        <time>2021-02-20T13:17:40.000Z</time>
      </trkpt>
      <trkpt lat="47.11012" lon="-1.58511">
        <ele>58</ele>
        <time>2021-02-20T13:17:42.000Z</time>
      </trkpt>
      <trkpt lat="47.11024" lon="-1.58493">
        <ele>58</ele>
        <time>2021-02-20T13:17:44.000Z</time>
      </trkpt>
      <trkpt lat="47.11035" lon="-1.58476">
        <ele>57</ele>
        <time>2021-02-20T13:17:46.000Z</time>
      </trkpt>
      <trkpt lat="47.11047" lon="-1.58459">
        <ele>57</ele>
        <time>2021-02-20T13:17:48.000Z</time>
      </trkpt>
      <trkpt lat="47.11057" lon="-1.58443">
        <ele>56</ele>
        <time>2021-02-20T13:17:50.000Z</time>
      </trkpt>
      <trkpt lat="47.11068" lon="-1.58426">
        <ele>56</ele>
        <time>2021-02-20T13:17:52.000Z</time>
      </trkpt>
      <trkpt lat="47.11079" lon="-1.5841">
        <ele>55</ele>
        <time>2021-02-20T13:17:54.000Z</time>
      </trkpt>
      <trkpt lat="47.11089" lon="-1.58393">
        <ele>55</ele>
        <time>2021-02-20T13:17:56.000Z</time>
      </trkpt>
      <trkpt lat="47.111" lon="-1.58377">
        <ele>55</ele>
        <time>2021-02-20T13:17:58.000Z</time>
      </trkpt>
      <trkpt lat="47.11112" lon="-1.5836">
        <ele>55</ele>
        <time>2021-02-20T13:18:00.000Z</time>
      </trkpt>
      <trkpt lat="47.11123" lon="-1.58343">
        <ele>55</ele>
        <time>2021-02-20T13:18:02.000Z</time>
      </trkpt>
      <trkpt lat="47.11134" lon="-1.58327">
        <ele>55</ele>
        <time>2021-02-20T13:18:04.000Z</time>
      </trkpt>
      <trkpt lat="47.11145" lon="-1.5831">
        <ele>54</ele>
        <time>2021-02-20T13:18:06.000Z</time>
      </trkpt>
      <trkpt lat="47.11156" lon="-1.58294">
        <ele>54</ele>
        <time>2021-02-20T13:18:08.000Z</time>
      </trkpt>
      <trkpt lat="47.11167" lon="-1.58277">
        <ele>54</ele>
        <time>2021-02-20T13:18:10.000Z</time>
      </trkpt>
      <trkpt lat="47.11178" lon="-1.5826">
        <ele>54</ele>
        <time>2021-02-20T13:18:12.000Z</time>
      </trkpt>
      <trkpt lat="47.11189" lon="-1.58243">
        <ele>54</ele>
        <time>2021-02-20T13:18:14.000Z</time>
      </trkpt>
      <trkpt lat="47.112" lon="-1.58227">
        <ele>54</ele>
        <time>2021-02-20T13:18:16.000Z</time>
      </trkpt>
      <trkpt lat="47.11211" lon="-1.58212">
        <ele>53</ele>
        <time>2021-02-20T13:18:18.000Z</time>
      </trkpt>
      <trkpt lat="47.11223" lon="-1.58197">
        <ele>53</ele>
        <time>2021-02-20T13:18:20.000Z</time>
      </trkpt>
      <trkpt lat="47.11234" lon="-1.58184">
        <ele>53</ele>
        <time>2021-02-20T13:18:22.000Z</time>
      </trkpt>
      <trkpt lat="47.11246" lon="-1.58171">
        <ele>53</ele>
        <time>2021-02-20T13:18:24.000Z</time>
      </trkpt>
      <trkpt lat="47.11259" lon="-1.58157">
        <ele>53</ele>
        <time>2021-02-20T13:18:26.000Z</time>
      </trkpt>
      <trkpt lat="47.11272" lon="-1.58145">
        <ele>53</ele>
        <time>2021-02-20T13:18:28.000Z</time>
      </trkpt>
      <trkpt lat="47.11284" lon="-1.58134">
        <ele>53</ele>
        <time>2021-02-20T13:18:30.000Z</time>
      </trkpt>
      <trkpt lat="47.11298" lon="-1.58125">
        <ele>53</ele>
        <time>2021-02-20T13:18:32.000Z</time>
      </trkpt>
      <trkpt lat="47.11311" lon="-1.58115">
        <ele>53</ele>
        <time>2021-02-20T13:18:34.000Z</time>
      </trkpt>
      <trkpt lat="47.11325" lon="-1.58106">
        <ele>53</ele>
        <time>2021-02-20T13:18:36.000Z</time>
      </trkpt>
      <trkpt lat="47.11338" lon="-1.58097">
        <ele>53</ele>
        <time>2021-02-20T13:18:38.000Z</time>
      </trkpt>
      <trkpt lat="47.11351" lon="-1.58089">
        <ele>53</ele>
        <time>2021-02-20T13:18:40.000Z</time>
      </trkpt>
      <trkpt lat="47.11364" lon="-1.5808">
        <ele>53</ele>
        <time>2021-02-20T13:18:42.000Z</time>
      </trkpt>
      <trkpt lat="47.11378" lon="-1.58071">
        <ele>53</ele>
        <time>2021-02-20T13:18:44.000Z</time>
      </trkpt>
      <trkpt lat="47.11391" lon="-1.58063">
        <ele>53</ele>
        <time>2021-02-20T13:18:46.000Z</time>
      </trkpt>
      <trkpt lat="47.11405" lon="-1.58055">
        <ele>52</ele>
        <time>2021-02-20T13:18:48.000Z</time>
      </trkpt>
      <trkpt lat="47.11418" lon="-1.58047">
        <ele>52</ele>
        <time>2021-02-20T13:18:50.000Z</time>
      </trkpt>
      <trkpt lat="47.1143" lon="-1.5804">
        <ele>52</ele>
        <time>2021-02-20T13:18:52.000Z</time>
      </trkpt>
      <trkpt lat="47.11443" lon="-1.58033">
        <ele>53</ele>
        <time>2021-02-20T13:18:54.000Z</time>
      </trkpt>
      <trkpt lat="47.11457" lon="-1.58028">
        <ele>53</ele>
        <time>2021-02-20T13:18:56.000Z</time>
      </trkpt>
      <trkpt lat="47.1147" lon="-1.58024">
        <ele>53</ele>
        <time>2021-02-20T13:18:58.000Z</time>
      </trkpt>
      <trkpt lat="47.11482" lon="-1.58021">
        <ele>54</ele>
        <time>2021-02-20T13:19:00.000Z</time>
      </trkpt>
      <trkpt lat="47.11495" lon="-1.58018">
        <ele>54</ele>
        <time>2021-02-20T13:19:02.000Z</time>
      </trkpt>
      <trkpt lat="47.11509" lon="-1.58017">
        <ele>55</ele>
        <time>2021-02-20T13:19:04.000Z</time>
      </trkpt>
      <trkpt lat="47.11523" lon="-1.58017">
        <ele>55</ele>
        <time>2021-02-20T13:19:06.000Z</time>
      </trkpt>
      <trkpt lat="47.11538" lon="-1.58017">
        <ele>55</ele>
        <time>2021-02-20T13:19:08.000Z</time>
      </trkpt>
      <trkpt lat="47.11553" lon="-1.58018">
        <ele>55</ele>
        <time>2021-02-20T13:19:10.000Z</time>
      </trkpt>
      <trkpt lat="47.11567" lon="-1.58019">
        <ele>55</ele>
        <time>2021-02-20T13:19:12.000Z</time>
      </trkpt>
      <trkpt lat="47.11582" lon="-1.5802">
        <ele>55</ele>
        <time>2021-02-20T13:19:14.000Z</time>
      </trkpt>
      <trkpt lat="47.11596" lon="-1.58022">
        <ele>55</ele>
        <time>2021-02-20T13:19:16.000Z</time>
      </trkpt>
      <trkpt lat="47.1161" lon="-1.58024">
        <ele>54</ele>
        <time>2021-02-20T13:19:18.000Z</time>
      </trkpt>
      <trkpt lat="47.11623" lon="-1.58026">
        <ele>55</ele>
        <time>2021-02-20T13:19:20.000Z</time>
      </trkpt>
      <trkpt lat="47.11637" lon="-1.58022">
        <ele>55</ele>
        <time>2021-02-20T13:19:22.000Z</time>
      </trkpt>
      <trkpt lat="47.11651" lon="-1.58024">
        <ele>55</ele>
        <time>2021-02-20T13:19:24.000Z</time>
      </trkpt>
      <trkpt lat="47.11667" lon="-1.58027">
        <ele>55</ele>
        <time>2021-02-20T13:19:26.000Z</time>
      </trkpt>
      <trkpt lat="47.11682" lon="-1.58027">
        <ele>55</ele>
        <time>2021-02-20T13:19:28.000Z</time>
      </trkpt>
      <trkpt lat="47.11698" lon="-1.58028">
        <ele>54</ele>
        <time>2021-02-20T13:19:30.000Z</time>
      </trkpt>
      <trkpt lat="47.11713" lon="-1.5803">
        <ele>54</ele>
        <time>2021-02-20T13:19:32.000Z</time>
      </trkpt>
      <trkpt lat="47.11728" lon="-1.58032">
        <ele>54</ele>
        <time>2021-02-20T13:19:34.000Z</time>
      </trkpt>
      <trkpt lat="47.11743" lon="-1.58034">
        <ele>54</ele>
        <time>2021-02-20T13:19:36.000Z</time>
      </trkpt>
      <trkpt lat="47.11758" lon="-1.58036">
        <ele>55</ele>
        <time>2021-02-20T13:19:38.000Z</time>
      </trkpt>
      <trkpt lat="47.11772" lon="-1.58039">
        <ele>55</ele>
        <time>2021-02-20T13:19:40.000Z</time>
      </trkpt>
      <trkpt lat="47.11787" lon="-1.58042">
        <ele>55</ele>
        <time>2021-02-20T13:19:42.000Z</time>
      </trkpt>
      <trkpt lat="47.11801" lon="-1.58046">
        <ele>55</ele>
        <time>2021-02-20T13:19:44.000Z</time>
      </trkpt>
      <trkpt lat="47.11815" lon="-1.5805">
        <ele>55</ele>
        <time>2021-02-20T13:19:46.000Z</time>
      </trkpt>
      <trkpt lat="47.11829" lon="-1.58053">
        <ele>56</ele>
        <time>2021-02-20T13:19:48.000Z</time>
      </trkpt>
      <trkpt lat="47.11843" lon="-1.58056">
        <ele>56</ele>
        <time>2021-02-20T13:19:50.000Z</time>
      </trkpt>
      <trkpt lat="47.11858" lon="-1.58059">
        <ele>56</ele>
        <time>2021-02-20T13:19:52.000Z</time>
      </trkpt>
      <trkpt lat="47.11874" lon="-1.58063">
        <ele>57</ele>
        <time>2021-02-20T13:19:54.000Z</time>
      </trkpt>
      <trkpt lat="47.11889" lon="-1.58067">
        <ele>57</ele>
        <time>2021-02-20T13:19:56.000Z</time>
      </trkpt>
      <trkpt lat="47.11905" lon="-1.58071">
        <ele>58</ele>
        <time>2021-02-20T13:19:58.000Z</time>
      </trkpt>
      <trkpt lat="47.11919" lon="-1.58075">
        <ele>58</ele>
        <time>2021-02-20T13:20:00.000Z</time>
      </trkpt>
      <trkpt lat="47.11934" lon="-1.58079">
        <ele>58</ele>
        <time>2021-02-20T13:20:02.000Z</time>
      </trkpt>
      <trkpt lat="47.11948" lon="-1.58082">
        <ele>58</ele>
        <time>2021-02-20T13:20:04.000Z</time>
      </trkpt>
      <trkpt lat="47.11962" lon="-1.58085">
        <ele>59</ele>
        <time>2021-02-20T13:20:06.000Z</time>
      </trkpt>
      <trkpt lat="47.11975" lon="-1.58089">
        <ele>59</ele>
        <time>2021-02-20T13:20:08.000Z</time>
      </trkpt>
      <trkpt lat="47.11989" lon="-1.58094">
        <ele>59</ele>
        <time>2021-02-20T13:20:10.000Z</time>
      </trkpt>
      <trkpt lat="47.12002" lon="-1.58097">
        <ele>59</ele>
        <time>2021-02-20T13:20:12.000Z</time>
      </trkpt>
      <trkpt lat="47.12015" lon="-1.58094">
        <ele>59</ele>
        <time>2021-02-20T13:20:14.000Z</time>
      </trkpt>
      <trkpt lat="47.12026" lon="-1.58102">
        <ele>59</ele>
        <time>2021-02-20T13:20:16.000Z</time>
      </trkpt>
      <trkpt lat="47.12039" lon="-1.58114">
        <ele>58</ele>
        <time>2021-02-20T13:20:18.000Z</time>
      </trkpt>
      <trkpt lat="47.12052" lon="-1.58122">
        <ele>58</ele>
        <time>2021-02-20T13:20:20.000Z</time>
      </trkpt>
      <trkpt lat="47.12065" lon="-1.5813">
        <ele>57</ele>
        <time>2021-02-20T13:20:22.000Z</time>
      </trkpt>
      <trkpt lat="47.12078" lon="-1.58139">
        <ele>57</ele>
        <time>2021-02-20T13:20:24.000Z</time>
      </trkpt>
      <trkpt lat="47.12092" lon="-1.58148">
        <ele>56</ele>
        <time>2021-02-20T13:20:26.000Z</time>
      </trkpt>
      <trkpt lat="47.12106" lon="-1.58158">
        <ele>57</ele>
        <time>2021-02-20T13:20:28.000Z</time>
      </trkpt>
      <trkpt lat="47.1212" lon="-1.58168">
        <ele>56</ele>
        <time>2021-02-20T13:20:30.000Z</time>
      </trkpt>
      <trkpt lat="47.12133" lon="-1.58182">
        <ele>56</ele>
        <time>2021-02-20T13:20:32.000Z</time>
      </trkpt>
      <trkpt lat="47.12146" lon="-1.58195">
        <ele>56</ele>
        <time>2021-02-20T13:20:34.000Z</time>
      </trkpt>
      <trkpt lat="47.12159" lon="-1.58206">
        <ele>55</ele>
        <time>2021-02-20T13:20:36.000Z</time>
      </trkpt>
      <trkpt lat="47.1217" lon="-1.58218">
        <ele>55</ele>
        <time>2021-02-20T13:20:38.000Z</time>
      </trkpt>
      <trkpt lat="47.1218" lon="-1.58227">
        <ele>54</ele>
        <time>2021-02-20T13:20:40.000Z</time>
      </trkpt>
      <trkpt lat="47.12188" lon="-1.58235">
        <ele>54</ele>
        <time>2021-02-20T13:20:42.000Z</time>
      </trkpt>
      <trkpt lat="47.12198" lon="-1.58243">
        <ele>54</ele>
        <time>2021-02-20T13:20:44.000Z</time>
      </trkpt>
      <trkpt lat="47.12208" lon="-1.58254">
        <ele>54</ele>
        <time>2021-02-20T13:20:46.000Z</time>
      </trkpt>
      <trkpt lat="47.12221" lon="-1.58267">
        <ele>54</ele>
        <time>2021-02-20T13:20:48.000Z</time>
      </trkpt>
      <trkpt lat="47.12234" lon="-1.58279">
        <ele>54</ele>
        <time>2021-02-20T13:20:50.000Z</time>
      </trkpt>
      <trkpt lat="47.12245" lon="-1.5829">
        <ele>53</ele>
        <time>2021-02-20T13:20:52.000Z</time>
      </trkpt>
      <trkpt lat="47.12256" lon="-1.58301">
        <ele>53</ele>
        <time>2021-02-20T13:20:54.000Z</time>
      </trkpt>
      <trkpt lat="47.12266" lon="-1.58312">
        <ele>52</ele>
        <time>2021-02-20T13:20:56.000Z</time>
      </trkpt>
      <trkpt lat="47.12277" lon="-1.58322">
        <ele>52</ele>
        <time>2021-02-20T13:20:58.000Z</time>
      </trkpt>
      <trkpt lat="47.12286" lon="-1.58331">
        <ele>52</ele>
        <time>2021-02-20T13:21:00.000Z</time>
      </trkpt>
      <trkpt lat="47.12295" lon="-1.5834">
        <ele>53</ele>
        <time>2021-02-20T13:21:02.000Z</time>
      </trkpt>
      <trkpt lat="47.12301" lon="-1.5835">
        <ele>54</ele>
        <time>2021-02-20T13:21:04.000Z</time>
      </trkpt>
      <trkpt lat="47.12302" lon="-1.58368">
        <ele>53</ele>
        <time>2021-02-20T13:21:06.000Z</time>
      </trkpt>
      <trkpt lat="47.12304" lon="-1.58385">
        <ele>53</ele>
        <time>2021-02-20T13:21:08.000Z</time>
      </trkpt>
      <trkpt lat="47.12308" lon="-1.58398">
        <ele>55</ele>
        <time>2021-02-20T13:21:10.000Z</time>
      </trkpt>
      <trkpt lat="47.12313" lon="-1.5841">
        <ele>56</ele>
        <time>2021-02-20T13:21:12.000Z</time>
      </trkpt>
      <trkpt lat="47.12321" lon="-1.58425">
        <ele>56</ele>
        <time>2021-02-20T13:21:15.000Z</time>
      </trkpt>
      <trkpt lat="47.12329" lon="-1.58434">
        <ele>56</ele>
        <time>2021-02-20T13:21:17.000Z</time>
      </trkpt>
      <trkpt lat="47.12333" lon="-1.58451">
        <ele>56</ele>
        <time>2021-02-20T13:21:19.000Z</time>
      </trkpt>
      <trkpt lat="47.12337" lon="-1.58471">
        <ele>56</ele>
        <time>2021-02-20T13:21:21.000Z</time>
      </trkpt>
      <trkpt lat="47.12342" lon="-1.5849">
        <ele>56</ele>
        <time>2021-02-20T13:21:23.000Z</time>
      </trkpt>
      <trkpt lat="47.12346" lon="-1.58511">
        <ele>56</ele>
        <time>2021-02-20T13:21:25.000Z</time>
      </trkpt>
      <trkpt lat="47.12351" lon="-1.5853">
        <ele>56</ele>
        <time>2021-02-20T13:21:27.000Z</time>
      </trkpt>
      <trkpt lat="47.12355" lon="-1.58549">
        <ele>56</ele>
        <time>2021-02-20T13:21:29.000Z</time>
      </trkpt>
      <trkpt lat="47.12359" lon="-1.58562">
        <ele>56</ele>
        <time>2021-02-20T13:21:31.000Z</time>
      </trkpt>
      <trkpt lat="47.12363" lon="-1.58578">
        <ele>56</ele>
        <time>2021-02-20T13:21:33.000Z</time>
      </trkpt>
      <trkpt lat="47.12367" lon="-1.58597">
        <ele>56</ele>
        <time>2021-02-20T13:21:35.000Z</time>
      </trkpt>
      <trkpt lat="47.12371" lon="-1.58617">
        <ele>56</ele>
        <time>2021-02-20T13:21:37.000Z</time>
      </trkpt>
      <trkpt lat="47.12375" lon="-1.58638">
        <ele>56</ele>
        <time>2021-02-20T13:21:39.000Z</time>
      </trkpt>
      <trkpt lat="47.1238" lon="-1.5866">
        <ele>57</ele>
        <time>2021-02-20T13:21:41.000Z</time>
      </trkpt>
      <trkpt lat="47.12384" lon="-1.5868">
        <ele>58</ele>
        <time>2021-02-20T13:21:43.000Z</time>
      </trkpt>
      <trkpt lat="47.12388" lon="-1.58701">
        <ele>58</ele>
        <time>2021-02-20T13:21:45.000Z</time>
      </trkpt>
      <trkpt lat="47.12392" lon="-1.58721">
        <ele>57</ele>
        <time>2021-02-20T13:21:47.000Z</time>
      </trkpt>
      <trkpt lat="47.12397" lon="-1.5874">
        <ele>57</ele>
        <time>2021-02-20T13:21:49.000Z</time>
      </trkpt>
      <trkpt lat="47.12401" lon="-1.58759">
        <ele>58</ele>
        <time>2021-02-20T13:21:51.000Z</time>
      </trkpt>
      <trkpt lat="47.12404" lon="-1.58777">
        <ele>58</ele>
        <time>2021-02-20T13:21:53.000Z</time>
      </trkpt>
      <trkpt lat="47.12408" lon="-1.58796">
        <ele>58</ele>
        <time>2021-02-20T13:21:55.000Z</time>
      </trkpt>
      <trkpt lat="47.12411" lon="-1.58815">
        <ele>58</ele>
        <time>2021-02-20T13:21:57.000Z</time>
      </trkpt>
      <trkpt lat="47.12413" lon="-1.58834">
        <ele>57</ele>
        <time>2021-02-20T13:21:59.000Z</time>
      </trkpt>
      <trkpt lat="47.12415" lon="-1.58853">
        <ele>57</ele>
        <time>2021-02-20T13:22:01.000Z</time>
      </trkpt>
      <trkpt lat="47.12417" lon="-1.58872">
        <ele>57</ele>
        <time>2021-02-20T13:22:03.000Z</time>
      </trkpt>
      <trkpt lat="47.12419" lon="-1.58891">
        <ele>57</ele>
        <time>2021-02-20T13:22:05.000Z</time>
      </trkpt>
      <trkpt lat="47.12421" lon="-1.58912">
        <ele>56</ele>
        <time>2021-02-20T13:22:07.000Z</time>
      </trkpt>
      <trkpt lat="47.12423" lon="-1.58933">
        <ele>56</ele>
        <time>2021-02-20T13:22:09.000Z</time>
      </trkpt>
      <trkpt lat="47.12423" lon="-1.58956">
        <ele>56</ele>
        <time>2021-02-20T13:22:11.000Z</time>
      </trkpt>
      <trkpt lat="47.12425" lon="-1.58979">
        <ele>55</ele>
        <time>2021-02-20T13:22:13.000Z</time>
      </trkpt>
      <trkpt lat="47.12427" lon="-1.59003">
        <ele>54</ele>
        <time>2021-02-20T13:22:15.000Z</time>
      </trkpt>
      <trkpt lat="47.12429" lon="-1.59028">
        <ele>54</ele>
        <time>2021-02-20T13:22:17.000Z</time>
      </trkpt>
      <trkpt lat="47.12431" lon="-1.59053">
        <ele>53</ele>
        <time>2021-02-20T13:22:19.000Z</time>
      </trkpt>
      <trkpt lat="47.12432" lon="-1.59077">
        <ele>53</ele>
        <time>2021-02-20T13:22:21.000Z</time>
      </trkpt>
      <trkpt lat="47.12433" lon="-1.591">
        <ele>52</ele>
        <time>2021-02-20T13:22:23.000Z</time>
      </trkpt>
      <trkpt lat="47.12433" lon="-1.59121">
        <ele>53</ele>
        <time>2021-02-20T13:22:25.000Z</time>
      </trkpt>
      <trkpt lat="47.12434" lon="-1.59143">
        <ele>53</ele>
        <time>2021-02-20T13:22:27.000Z</time>
      </trkpt>
      <trkpt lat="47.12436" lon="-1.59164">
        <ele>52</ele>
        <time>2021-02-20T13:22:29.000Z</time>
      </trkpt>
      <trkpt lat="47.1244" lon="-1.59184">
        <ele>53</ele>
        <time>2021-02-20T13:22:31.000Z</time>
      </trkpt>
      <trkpt lat="47.1244" lon="-1.59204">
        <ele>53</ele>
        <time>2021-02-20T13:22:33.000Z</time>
      </trkpt>
      <trkpt lat="47.12438" lon="-1.59223">
        <ele>52</ele>
        <time>2021-02-20T13:22:35.000Z</time>
      </trkpt>
      <trkpt lat="47.12438" lon="-1.59244">
        <ele>53</ele>
        <time>2021-02-20T13:22:37.000Z</time>
      </trkpt>
      <trkpt lat="47.12439" lon="-1.59264">
        <ele>53</ele>
        <time>2021-02-20T13:22:39.000Z</time>
      </trkpt>
      <trkpt lat="47.1244" lon="-1.59285">
        <ele>53</ele>
        <time>2021-02-20T13:22:41.000Z</time>
      </trkpt>
      <trkpt lat="47.1244" lon="-1.59306">
        <ele>53</ele>
        <time>2021-02-20T13:22:43.000Z</time>
      </trkpt>
      <trkpt lat="47.12441" lon="-1.59326">
        <ele>53</ele>
        <time>2021-02-20T13:22:45.000Z</time>
      </trkpt>
      <trkpt lat="47.12442" lon="-1.59346">
        <ele>53</ele>
        <time>2021-02-20T13:22:47.000Z</time>
      </trkpt>
      <trkpt lat="47.12443" lon="-1.59367">
        <ele>53</ele>
        <time>2021-02-20T13:22:49.000Z</time>
      </trkpt>
      <trkpt lat="47.12444" lon="-1.59387">
        <ele>53</ele>
        <time>2021-02-20T13:22:51.000Z</time>
      </trkpt>
      <trkpt lat="47.12445" lon="-1.59408">
        <ele>53</ele>
        <time>2021-02-20T13:22:53.000Z</time>
      </trkpt>
      <trkpt lat="47.12446" lon="-1.59429">
        <ele>54</ele>
        <time>2021-02-20T13:22:55.000Z</time>
      </trkpt>
      <trkpt lat="47.12447" lon="-1.59449">
        <ele>54</ele>
        <time>2021-02-20T13:22:57.000Z</time>
      </trkpt>
      <trkpt lat="47.12448" lon="-1.59469">
        <ele>54</ele>
        <time>2021-02-20T13:22:59.000Z</time>
      </trkpt>
      <trkpt lat="47.12449" lon="-1.59489">
        <ele>54</ele>
        <time>2021-02-20T13:23:01.000Z</time>
      </trkpt>
      <trkpt lat="47.12451" lon="-1.59509">
        <ele>54</ele>
        <time>2021-02-20T13:23:03.000Z</time>
      </trkpt>
      <trkpt lat="47.12452" lon="-1.59528">
        <ele>54</ele>
        <time>2021-02-20T13:23:05.000Z</time>
      </trkpt>
      <trkpt lat="47.12453" lon="-1.59548">
        <ele>55</ele>
        <time>2021-02-20T13:23:07.000Z</time>
      </trkpt>
      <trkpt lat="47.12454" lon="-1.59567">
        <ele>55</ele>
        <time>2021-02-20T13:23:09.000Z</time>
      </trkpt>
      <trkpt lat="47.12456" lon="-1.59586">
        <ele>55</ele>
        <time>2021-02-20T13:23:11.000Z</time>
      </trkpt>
      <trkpt lat="47.12456" lon="-1.59605">
        <ele>55</ele>
        <time>2021-02-20T13:23:13.000Z</time>
      </trkpt>
      <trkpt lat="47.12457" lon="-1.59624">
        <ele>56</ele>
        <time>2021-02-20T13:23:15.000Z</time>
      </trkpt>
      <trkpt lat="47.12458" lon="-1.59643">
        <ele>56</ele>
        <time>2021-02-20T13:23:17.000Z</time>
      </trkpt>
      <trkpt lat="47.12458" lon="-1.59662">
        <ele>56</ele>
        <time>2021-02-20T13:23:19.000Z</time>
      </trkpt>
      <trkpt lat="47.12459" lon="-1.59681">
        <ele>56</ele>
        <time>2021-02-20T13:23:21.000Z</time>
      </trkpt>
      <trkpt lat="47.1246" lon="-1.59699">
        <ele>56</ele>
        <time>2021-02-20T13:23:23.000Z</time>
      </trkpt>
      <trkpt lat="47.12461" lon="-1.59717">
        <ele>56</ele>
        <time>2021-02-20T13:23:25.000Z</time>
      </trkpt>
      <trkpt lat="47.12461" lon="-1.59736">
        <ele>57</ele>
        <time>2021-02-20T13:23:27.000Z</time>
      </trkpt>
      <trkpt lat="47.12462" lon="-1.59755">
        <ele>56</ele>
        <time>2021-02-20T13:23:29.000Z</time>
      </trkpt>
      <trkpt lat="47.12463" lon="-1.59773">
        <ele>56</ele>
        <time>2021-02-20T13:23:31.000Z</time>
      </trkpt>
      <trkpt lat="47.12465" lon="-1.59792">
        <ele>56</ele>
        <time>2021-02-20T13:23:33.000Z</time>
      </trkpt>
      <trkpt lat="47.12466" lon="-1.59811">
        <ele>56</ele>
        <time>2021-02-20T13:23:35.000Z</time>
      </trkpt>
      <trkpt lat="47.12467" lon="-1.5983">
        <ele>57</ele>
        <time>2021-02-20T13:23:37.000Z</time>
      </trkpt>
      <trkpt lat="47.12468" lon="-1.5985">
        <ele>57</ele>
        <time>2021-02-20T13:23:39.000Z</time>
      </trkpt>
      <trkpt lat="47.12469" lon="-1.59869">
        <ele>57</ele>
        <time>2021-02-20T13:23:41.000Z</time>
      </trkpt>
      <trkpt lat="47.12469" lon="-1.59888">
        <ele>57</ele>
        <time>2021-02-20T13:23:43.000Z</time>
      </trkpt>
      <trkpt lat="47.12469" lon="-1.59908">
        <ele>57</ele>
        <time>2021-02-20T13:23:45.000Z</time>
      </trkpt>
      <trkpt lat="47.12471" lon="-1.5993">
        <ele>57</ele>
        <time>2021-02-20T13:23:47.000Z</time>
      </trkpt>
      <trkpt lat="47.12472" lon="-1.59951">
        <ele>56</ele>
        <time>2021-02-20T13:23:49.000Z</time>
      </trkpt>
      <trkpt lat="47.12473" lon="-1.59971">
        <ele>56</ele>
        <time>2021-02-20T13:23:51.000Z</time>
      </trkpt>
      <trkpt lat="47.12474" lon="-1.59992">
        <ele>55</ele>
        <time>2021-02-20T13:23:53.000Z</time>
      </trkpt>
      <trkpt lat="47.12474" lon="-1.60012">
        <ele>55</ele>
        <time>2021-02-20T13:23:55.000Z</time>
      </trkpt>
      <trkpt lat="47.12475" lon="-1.60032">
        <ele>54</ele>
        <time>2021-02-20T13:23:57.000Z</time>
      </trkpt>
      <trkpt lat="47.12476" lon="-1.60053">
        <ele>54</ele>
        <time>2021-02-20T13:23:59.000Z</time>
      </trkpt>
      <trkpt lat="47.12477" lon="-1.60073">
        <ele>55</ele>
        <time>2021-02-20T13:24:01.000Z</time>
      </trkpt>
      <trkpt lat="47.12479" lon="-1.60091">
        <ele>54</ele>
        <time>2021-02-20T13:24:03.000Z</time>
      </trkpt>
      <trkpt lat="47.1248" lon="-1.60111">
        <ele>54</ele>
        <time>2021-02-20T13:24:05.000Z</time>
      </trkpt>
      <trkpt lat="47.12481" lon="-1.60132">
        <ele>54</ele>
        <time>2021-02-20T13:24:07.000Z</time>
      </trkpt>
      <trkpt lat="47.12482" lon="-1.60152">
        <ele>53</ele>
        <time>2021-02-20T13:24:09.000Z</time>
      </trkpt>
      <trkpt lat="47.12483" lon="-1.60173">
        <ele>53</ele>
        <time>2021-02-20T13:24:11.000Z</time>
      </trkpt>
      <trkpt lat="47.12485" lon="-1.60195">
        <ele>52</ele>
        <time>2021-02-20T13:24:13.000Z</time>
      </trkpt>
      <trkpt lat="47.12488" lon="-1.60218">
        <ele>53</ele>
        <time>2021-02-20T13:24:15.000Z</time>
      </trkpt>
      <trkpt lat="47.12492" lon="-1.6024">
        <ele>52</ele>
        <time>2021-02-20T13:24:17.000Z</time>
      </trkpt>
      <trkpt lat="47.12496" lon="-1.60262">
        <ele>52</ele>
        <time>2021-02-20T13:24:19.000Z</time>
      </trkpt>
      <trkpt lat="47.125" lon="-1.60284">
        <ele>52</ele>
        <time>2021-02-20T13:24:21.000Z</time>
      </trkpt>
      <trkpt lat="47.12505" lon="-1.60305">
        <ele>52</ele>
        <time>2021-02-20T13:24:23.000Z</time>
      </trkpt>
      <trkpt lat="47.12509" lon="-1.60326">
        <ele>53</ele>
        <time>2021-02-20T13:24:25.000Z</time>
      </trkpt>
      <trkpt lat="47.12513" lon="-1.60347">
        <ele>53</ele>
        <time>2021-02-20T13:24:27.000Z</time>
      </trkpt>
      <trkpt lat="47.12517" lon="-1.60366">
        <ele>53</ele>
        <time>2021-02-20T13:24:29.000Z</time>
      </trkpt>
      <trkpt lat="47.12521" lon="-1.60385">
        <ele>53</ele>
        <time>2021-02-20T13:24:31.000Z</time>
      </trkpt>
      <trkpt lat="47.12524" lon="-1.60404">
        <ele>54</ele>
        <time>2021-02-20T13:24:33.000Z</time>
      </trkpt>
      <trkpt lat="47.12528" lon="-1.60423">
        <ele>54</ele>
        <time>2021-02-20T13:24:35.000Z</time>
      </trkpt>
      <trkpt lat="47.12531" lon="-1.60443">
        <ele>55</ele>
        <time>2021-02-20T13:24:37.000Z</time>
      </trkpt>
      <trkpt lat="47.12535" lon="-1.60462">
        <ele>55</ele>
        <time>2021-02-20T13:24:39.000Z</time>
      </trkpt>
      <trkpt lat="47.12538" lon="-1.60482">
        <ele>56</ele>
        <time>2021-02-20T13:24:41.000Z</time>
      </trkpt>
      <trkpt lat="47.1254" lon="-1.60502">
        <ele>56</ele>
        <time>2021-02-20T13:24:43.000Z</time>
      </trkpt>
      <trkpt lat="47.12542" lon="-1.60522">
        <ele>56</ele>
        <time>2021-02-20T13:24:45.000Z</time>
      </trkpt>
      <trkpt lat="47.12543" lon="-1.60542">
        <ele>56</ele>
        <time>2021-02-20T13:24:47.000Z</time>
      </trkpt>
      <trkpt lat="47.12544" lon="-1.60562">
        <ele>56</ele>
        <time>2021-02-20T13:24:49.000Z</time>
      </trkpt>
      <trkpt lat="47.12544" lon="-1.60582">
        <ele>56</ele>
        <time>2021-02-20T13:24:51.000Z</time>
      </trkpt>
      <trkpt lat="47.12545" lon="-1.60602">
        <ele>56</ele>
        <time>2021-02-20T13:24:53.000Z</time>
      </trkpt>
      <trkpt lat="47.12545" lon="-1.60622">
        <ele>56</ele>
        <time>2021-02-20T13:24:55.000Z</time>
      </trkpt>
      <trkpt lat="47.12545" lon="-1.60642">
        <ele>56</ele>
        <time>2021-02-20T13:24:57.000Z</time>
      </trkpt>
      <trkpt lat="47.12546" lon="-1.60661">
        <ele>56</ele>
        <time>2021-02-20T13:24:59.000Z</time>
      </trkpt>
      <trkpt lat="47.12546" lon="-1.60681">
        <ele>56</ele>
        <time>2021-02-20T13:25:01.000Z</time>
      </trkpt>
      <trkpt lat="47.12546" lon="-1.60701">
        <ele>57</ele>
        <time>2021-02-20T13:25:03.000Z</time>
      </trkpt>
      <trkpt lat="47.12546" lon="-1.6072">
        <ele>57</ele>
        <time>2021-02-20T13:25:05.000Z</time>
      </trkpt>
      <trkpt lat="47.12545" lon="-1.60739">
        <ele>56</ele>
        <time>2021-02-20T13:25:07.000Z</time>
      </trkpt>
      <trkpt lat="47.12544" lon="-1.60758">
        <ele>56</ele>
        <time>2021-02-20T13:25:09.000Z</time>
      </trkpt>
      <trkpt lat="47.12542" lon="-1.60777">
        <ele>56</ele>
        <time>2021-02-20T13:25:11.000Z</time>
      </trkpt>
      <trkpt lat="47.12541" lon="-1.60795">
        <ele>56</ele>
        <time>2021-02-20T13:25:13.000Z</time>
      </trkpt>
      <trkpt lat="47.1254" lon="-1.60813">
        <ele>56</ele>
        <time>2021-02-20T13:25:15.000Z</time>
      </trkpt>
      <trkpt lat="47.12539" lon="-1.60831">
        <ele>57</ele>
        <time>2021-02-20T13:25:17.000Z</time>
      </trkpt>
      <trkpt lat="47.12541" lon="-1.60845">
        <ele>57</ele>
        <time>2021-02-20T13:25:19.000Z</time>
      </trkpt>
      <trkpt lat="47.12554" lon="-1.60843">
        <ele>57</ele>
        <time>2021-02-20T13:25:21.000Z</time>
      </trkpt>
      <trkpt lat="47.12567" lon="-1.60838">
        <ele>58</ele>
        <time>2021-02-20T13:25:23.000Z</time>
      </trkpt>
      <trkpt lat="47.1258" lon="-1.60834">
        <ele>58</ele>
        <time>2021-02-20T13:25:25.000Z</time>
      </trkpt>
      <trkpt lat="47.12593" lon="-1.60829">
        <ele>58</ele>
        <time>2021-02-20T13:25:27.000Z</time>
      </trkpt>
      <trkpt lat="47.12606" lon="-1.60825">
        <ele>58</ele>
        <time>2021-02-20T13:25:29.000Z</time>
      </trkpt>
      <trkpt lat="47.12619" lon="-1.6082">
        <ele>58</ele>
        <time>2021-02-20T13:25:31.000Z</time>
      </trkpt>
      <trkpt lat="47.12632" lon="-1.60816">
        <ele>59</ele>
        <time>2021-02-20T13:25:33.000Z</time>
      </trkpt>
      <trkpt lat="47.12645" lon="-1.60812">
        <ele>59</ele>
        <time>2021-02-20T13:25:35.000Z</time>
      </trkpt>
      <trkpt lat="47.12658" lon="-1.60808">
        <ele>59</ele>
        <time>2021-02-20T13:25:37.000Z</time>
      </trkpt>
      <trkpt lat="47.12671" lon="-1.60803">
        <ele>59</ele>
        <time>2021-02-20T13:25:39.000Z</time>
      </trkpt>
      <trkpt lat="47.12684" lon="-1.60798">
        <ele>59</ele>
        <time>2021-02-20T13:25:41.000Z</time>
      </trkpt>
      <trkpt lat="47.12696" lon="-1.60793">
        <ele>59</ele>
        <time>2021-02-20T13:25:43.000Z</time>
      </trkpt>
      <trkpt lat="47.12708" lon="-1.60788">
        <ele>59</ele>
        <time>2021-02-20T13:25:45.000Z</time>
      </trkpt>
      <trkpt lat="47.1272" lon="-1.60786">
        <ele>59</ele>
        <time>2021-02-20T13:25:47.000Z</time>
      </trkpt>
      <trkpt lat="47.12725" lon="-1.60802">
        <ele>60</ele>
        <time>2021-02-20T13:25:49.000Z</time>
      </trkpt>
      <trkpt lat="47.1272" lon="-1.6082">
        <ele>59</ele>
        <time>2021-02-20T13:25:51.000Z</time>
      </trkpt>
      <trkpt lat="47.12714" lon="-1.60837">
        <ele>59</ele>
        <time>2021-02-20T13:25:53.000Z</time>
      </trkpt>
      <trkpt lat="47.12708" lon="-1.60855">
        <ele>59</ele>
        <time>2021-02-20T13:25:55.000Z</time>
      </trkpt>
      <trkpt lat="47.12703" lon="-1.60874">
        <ele>59</ele>
        <time>2021-02-20T13:25:57.000Z</time>
      </trkpt>
      <trkpt lat="47.127" lon="-1.60893">
        <ele>59</ele>
        <time>2021-02-20T13:25:59.000Z</time>
      </trkpt>
      <trkpt lat="47.12696" lon="-1.60912">
        <ele>58</ele>
        <time>2021-02-20T13:26:01.000Z</time>
      </trkpt>
      <trkpt lat="47.12693" lon="-1.60931">
        <ele>58</ele>
        <time>2021-02-20T13:26:03.000Z</time>
      </trkpt>
      <trkpt lat="47.12692" lon="-1.60949">
        <ele>59</ele>
        <time>2021-02-20T13:26:05.000Z</time>
      </trkpt>
      <trkpt lat="47.12691" lon="-1.60968">
        <ele>58</ele>
        <time>2021-02-20T13:26:07.000Z</time>
      </trkpt>
      <trkpt lat="47.12691" lon="-1.60987">
        <ele>58</ele>
        <time>2021-02-20T13:26:09.000Z</time>
      </trkpt>
      <trkpt lat="47.1269" lon="-1.61006">
        <ele>59</ele>
        <time>2021-02-20T13:26:11.000Z</time>
      </trkpt>
      <trkpt lat="47.12689" lon="-1.61024">
        <ele>59</ele>
        <time>2021-02-20T13:26:13.000Z</time>
      </trkpt>
      <trkpt lat="47.12689" lon="-1.61042">
        <ele>59</ele>
        <time>2021-02-20T13:26:15.000Z</time>
      </trkpt>
      <trkpt lat="47.12688" lon="-1.6106">
        <ele>58</ele>
        <time>2021-02-20T13:26:17.000Z</time>
      </trkpt>
      <trkpt lat="47.12688" lon="-1.61077">
        <ele>59</ele>
        <time>2021-02-20T13:26:19.000Z</time>
      </trkpt>
      <trkpt lat="47.12687" lon="-1.61095">
        <ele>58</ele>
        <time>2021-02-20T13:26:21.000Z</time>
      </trkpt>
      <trkpt lat="47.12685" lon="-1.61113">
        <ele>59</ele>
        <time>2021-02-20T13:26:23.000Z</time>
      </trkpt>
      <trkpt lat="47.12683" lon="-1.61131">
        <ele>59</ele>
        <time>2021-02-20T13:26:25.000Z</time>
      </trkpt>
      <trkpt lat="47.12681" lon="-1.61149">
        <ele>59</ele>
        <time>2021-02-20T13:26:27.000Z</time>
      </trkpt>
      <trkpt lat="47.12679" lon="-1.61166">
        <ele>59</ele>
        <time>2021-02-20T13:26:29.000Z</time>
      </trkpt>
      <trkpt lat="47.12677" lon="-1.61184">
        <ele>59</ele>
        <time>2021-02-20T13:26:31.000Z</time>
      </trkpt>
      <trkpt lat="47.12673" lon="-1.61201">
        <ele>59</ele>
        <time>2021-02-20T13:26:33.000Z</time>
      </trkpt>
      <trkpt lat="47.12671" lon="-1.61219">
        <ele>58</ele>
        <time>2021-02-20T13:26:35.000Z</time>
      </trkpt>
      <trkpt lat="47.12669" lon="-1.61238">
        <ele>59</ele>
        <time>2021-02-20T13:26:37.000Z</time>
      </trkpt>
      <trkpt lat="47.1267" lon="-1.61255">
        <ele>59</ele>
        <time>2021-02-20T13:26:39.000Z</time>
      </trkpt>
      <trkpt lat="47.12673" lon="-1.61273">
        <ele>59</ele>
        <time>2021-02-20T13:26:41.000Z</time>
      </trkpt>
      <trkpt lat="47.12677" lon="-1.6129">
        <ele>59</ele>
        <time>2021-02-20T13:26:43.000Z</time>
      </trkpt>
      <trkpt lat="47.12684" lon="-1.61308">
        <ele>59</ele>
        <time>2021-02-20T13:26:45.000Z</time>
      </trkpt>
      <trkpt lat="47.1269" lon="-1.61326">
        <ele>59</ele>
        <time>2021-02-20T13:26:47.000Z</time>
      </trkpt>
      <trkpt lat="47.12695" lon="-1.61343">
        <ele>59</ele>
        <time>2021-02-20T13:26:49.000Z</time>
      </trkpt>
      <trkpt lat="47.12704" lon="-1.6137">
        <ele>59</ele>
        <time>2021-02-20T13:26:52.000Z</time>
      </trkpt>
      <trkpt lat="47.1271" lon="-1.61387">
        <ele>59</ele>
        <time>2021-02-20T13:26:54.000Z</time>
      </trkpt>
      <trkpt lat="47.12717" lon="-1.61404">
        <ele>59</ele>
        <time>2021-02-20T13:26:56.000Z</time>
      </trkpt>
      <trkpt lat="47.12725" lon="-1.61421">
        <ele>59</ele>
        <time>2021-02-20T13:26:58.000Z</time>
      </trkpt>
      <trkpt lat="47.12732" lon="-1.61438">
        <ele>59</ele>
        <time>2021-02-20T13:27:00.000Z</time>
      </trkpt>
      <trkpt lat="47.1274" lon="-1.61455">
        <ele>59</ele>
        <time>2021-02-20T13:27:02.000Z</time>
      </trkpt>
      <trkpt lat="47.12747" lon="-1.61472">
        <ele>59</ele>
        <time>2021-02-20T13:27:04.000Z</time>
      </trkpt>
      <trkpt lat="47.12755" lon="-1.61489">
        <ele>59</ele>
        <time>2021-02-20T13:27:06.000Z</time>
      </trkpt>
      <trkpt lat="47.12763" lon="-1.61505">
        <ele>59</ele>
        <time>2021-02-20T13:27:08.000Z</time>
      </trkpt>
      <trkpt lat="47.1277" lon="-1.61522">
        <ele>59</ele>
        <time>2021-02-20T13:27:10.000Z</time>
      </trkpt>
      <trkpt lat="47.12776" lon="-1.61539">
        <ele>59</ele>
        <time>2021-02-20T13:27:12.000Z</time>
      </trkpt>
      <trkpt lat="47.12782" lon="-1.61556">
        <ele>59</ele>
        <time>2021-02-20T13:27:14.000Z</time>
      </trkpt>
      <trkpt lat="47.12788" lon="-1.61572">
        <ele>58</ele>
        <time>2021-02-20T13:27:16.000Z</time>
      </trkpt>
      <trkpt lat="47.12793" lon="-1.61587">
        <ele>58</ele>
        <time>2021-02-20T13:27:18.000Z</time>
      </trkpt>
      <trkpt lat="47.128" lon="-1.61602">
        <ele>58</ele>
        <time>2021-02-20T13:27:20.000Z</time>
      </trkpt>
      <trkpt lat="47.12805" lon="-1.61618">
        <ele>58</ele>
        <time>2021-02-20T13:27:22.000Z</time>
      </trkpt>
      <trkpt lat="47.1281" lon="-1.61632">
        <ele>58</ele>
        <time>2021-02-20T13:27:24.000Z</time>
      </trkpt>
      <trkpt lat="47.12816" lon="-1.61646">
        <ele>57</ele>
        <time>2021-02-20T13:27:27.000Z</time>
      </trkpt>
      <trkpt lat="47.1282" lon="-1.61657">
        <ele>57</ele>
        <time>2021-02-20T13:27:30.000Z</time>
      </trkpt>
      <trkpt lat="47.1283" lon="-1.6168">
        <ele>57</ele>
        <time>2021-02-20T13:27:33.000Z</time>
      </trkpt>
      <trkpt lat="47.12837" lon="-1.61696">
        <ele>57</ele>
        <time>2021-02-20T13:27:35.000Z</time>
      </trkpt>
      <trkpt lat="47.12844" lon="-1.61711">
        <ele>57</ele>
        <time>2021-02-20T13:27:37.000Z</time>
      </trkpt>
      <trkpt lat="47.12851" lon="-1.61728">
        <ele>57</ele>
        <time>2021-02-20T13:27:39.000Z</time>
      </trkpt>
      <trkpt lat="47.12863" lon="-1.61754">
        <ele>56</ele>
        <time>2021-02-20T13:27:42.000Z</time>
      </trkpt>
      <trkpt lat="47.12876" lon="-1.61781">
        <ele>56</ele>
        <time>2021-02-20T13:27:45.000Z</time>
      </trkpt>
      <trkpt lat="47.12883" lon="-1.61799">
        <ele>55</ele>
        <time>2021-02-20T13:27:47.000Z</time>
      </trkpt>
      <trkpt lat="47.12892" lon="-1.61826">
        <ele>54</ele>
        <time>2021-02-20T13:27:50.000Z</time>
      </trkpt>
      <trkpt lat="47.12901" lon="-1.61854">
        <ele>54</ele>
        <time>2021-02-20T13:27:53.000Z</time>
      </trkpt>
      <trkpt lat="47.12905" lon="-1.61872">
        <ele>54</ele>
        <time>2021-02-20T13:27:55.000Z</time>
      </trkpt>
      <trkpt lat="47.1291" lon="-1.61901">
        <ele>54</ele>
        <time>2021-02-20T13:27:58.000Z</time>
      </trkpt>
      <trkpt lat="47.12912" lon="-1.6192">
        <ele>54</ele>
        <time>2021-02-20T13:28:00.000Z</time>
      </trkpt>
      <trkpt lat="47.12914" lon="-1.61939">
        <ele>54</ele>
        <time>2021-02-20T13:28:02.000Z</time>
      </trkpt>
      <trkpt lat="47.12919" lon="-1.61956">
        <ele>54</ele>
        <time>2021-02-20T13:28:04.000Z</time>
      </trkpt>
      <trkpt lat="47.12924" lon="-1.61972">
        <ele>54</ele>
        <time>2021-02-20T13:28:06.000Z</time>
      </trkpt>
      <trkpt lat="47.12928" lon="-1.61989">
        <ele>54</ele>
        <time>2021-02-20T13:28:08.000Z</time>
      </trkpt>
      <trkpt lat="47.12933" lon="-1.62008">
        <ele>54</ele>
        <time>2021-02-20T13:28:10.000Z</time>
      </trkpt>
      <trkpt lat="47.12938" lon="-1.62025">
        <ele>55</ele>
        <time>2021-02-20T13:28:12.000Z</time>
      </trkpt>
      <trkpt lat="47.12943" lon="-1.62041">
        <ele>56</ele>
        <time>2021-02-20T13:28:14.000Z</time>
      </trkpt>
      <trkpt lat="47.12953" lon="-1.62066">
        <ele>56</ele>
        <time>2021-02-20T13:28:17.000Z</time>
      </trkpt>
      <trkpt lat="47.1296" lon="-1.62081">
        <ele>56</ele>
        <time>2021-02-20T13:28:19.000Z</time>
      </trkpt>
      <trkpt lat="47.12972" lon="-1.62102">
        <ele>56</ele>
        <time>2021-02-20T13:28:22.000Z</time>
      </trkpt>
      <trkpt lat="47.1298" lon="-1.62115">
        <ele>57</ele>
        <time>2021-02-20T13:28:24.000Z</time>
      </trkpt>
      <trkpt lat="47.12993" lon="-1.62136">
        <ele>58</ele>
        <time>2021-02-20T13:28:27.000Z</time>
      </trkpt>
      <trkpt lat="47.13002" lon="-1.62149">
        <ele>58</ele>
        <time>2021-02-20T13:28:29.000Z</time>
      </trkpt>
      <trkpt lat="47.13011" lon="-1.62163">
        <ele>59</ele>
        <time>2021-02-20T13:28:31.000Z</time>
      </trkpt>
      <trkpt lat="47.13023" lon="-1.62183">
        <ele>59</ele>
        <time>2021-02-20T13:28:34.000Z</time>
      </trkpt>
      <trkpt lat="47.13036" lon="-1.62203">
        <ele>59</ele>
        <time>2021-02-20T13:28:37.000Z</time>
      </trkpt>
      <trkpt lat="47.13048" lon="-1.62222">
        <ele>59</ele>
        <time>2021-02-20T13:28:40.000Z</time>
      </trkpt>
      <trkpt lat="47.13061" lon="-1.62241">
        <ele>59</ele>
        <time>2021-02-20T13:28:43.000Z</time>
      </trkpt>
      <trkpt lat="47.1307" lon="-1.62254">
        <ele>59</ele>
        <time>2021-02-20T13:28:45.000Z</time>
      </trkpt>
      <trkpt lat="47.13078" lon="-1.62268">
        <ele>59</ele>
        <time>2021-02-20T13:28:47.000Z</time>
      </trkpt>
      <trkpt lat="47.13087" lon="-1.6228">
        <ele>59</ele>
        <time>2021-02-20T13:28:49.000Z</time>
      </trkpt>
      <trkpt lat="47.13096" lon="-1.62293">
        <ele>60</ele>
        <time>2021-02-20T13:28:51.000Z</time>
      </trkpt>
      <trkpt lat="47.1311" lon="-1.62299">
        <ele>59</ele>
        <time>2021-02-20T13:28:54.000Z</time>
      </trkpt>
      <trkpt lat="47.13117" lon="-1.62285">
        <ele>59</ele>
        <time>2021-02-20T13:28:56.000Z</time>
      </trkpt>
      <trkpt lat="47.13123" lon="-1.62271">
        <ele>58</ele>
        <time>2021-02-20T13:28:58.000Z</time>
      </trkpt>
      <trkpt lat="47.1313" lon="-1.62257">
        <ele>59</ele>
        <time>2021-02-20T13:29:00.000Z</time>
      </trkpt>
      <trkpt lat="47.13136" lon="-1.62243">
        <ele>59</ele>
        <time>2021-02-20T13:29:02.000Z</time>
      </trkpt>
      <trkpt lat="47.13142" lon="-1.62229">
        <ele>58</ele>
        <time>2021-02-20T13:29:04.000Z</time>
      </trkpt>
      <trkpt lat="47.13149" lon="-1.62215">
        <ele>59</ele>
        <time>2021-02-20T13:29:06.000Z</time>
      </trkpt>
      <trkpt lat="47.13156" lon="-1.62201">
        <ele>59</ele>
        <time>2021-02-20T13:29:08.000Z</time>
      </trkpt>
      <trkpt lat="47.13162" lon="-1.62187">
        <ele>59</ele>
        <time>2021-02-20T13:29:10.000Z</time>
      </trkpt>
      <trkpt lat="47.13169" lon="-1.62174">
        <ele>59</ele>
        <time>2021-02-20T13:29:12.000Z</time>
      </trkpt>
      <trkpt lat="47.13176" lon="-1.6216">
        <ele>60</ele>
        <time>2021-02-20T13:29:14.000Z</time>
      </trkpt>
      <trkpt lat="47.13187" lon="-1.62139">
        <ele>60</ele>
        <time>2021-02-20T13:29:17.000Z</time>
      </trkpt>
      <trkpt lat="47.13194" lon="-1.62126">
        <ele>61</ele>
        <time>2021-02-20T13:29:19.000Z</time>
      </trkpt>
      <trkpt lat="47.13202" lon="-1.62112">
        <ele>61</ele>
        <time>2021-02-20T13:29:21.000Z</time>
      </trkpt>
      <trkpt lat="47.1321" lon="-1.62099">
        <ele>61</ele>
        <time>2021-02-20T13:29:23.000Z</time>
      </trkpt>
      <trkpt lat="47.13218" lon="-1.62085">
        <ele>61</ele>
        <time>2021-02-20T13:29:25.000Z</time>
      </trkpt>
      <trkpt lat="47.13226" lon="-1.62072">
        <ele>61</ele>
        <time>2021-02-20T13:29:27.000Z</time>
      </trkpt>
      <trkpt lat="47.13234" lon="-1.62058">
        <ele>61</ele>
        <time>2021-02-20T13:29:29.000Z</time>
      </trkpt>
      <trkpt lat="47.13243" lon="-1.62045">
        <ele>61</ele>
        <time>2021-02-20T13:29:31.000Z</time>
      </trkpt>
      <trkpt lat="47.13252" lon="-1.62034">
        <ele>61</ele>
        <time>2021-02-20T13:29:33.000Z</time>
      </trkpt>
      <trkpt lat="47.13261" lon="-1.62023">
        <ele>61</ele>
        <time>2021-02-20T13:29:35.000Z</time>
      </trkpt>
      <trkpt lat="47.13272" lon="-1.62013">
        <ele>61</ele>
        <time>2021-02-20T13:29:37.000Z</time>
      </trkpt>
      <trkpt lat="47.13282" lon="-1.62004">
        <ele>61</ele>
        <time>2021-02-20T13:29:39.000Z</time>
      </trkpt>
      <trkpt lat="47.13293" lon="-1.61995">
        <ele>61</ele>
        <time>2021-02-20T13:29:41.000Z</time>
      </trkpt>
      <trkpt lat="47.13304" lon="-1.61987">
        <ele>61</ele>
        <time>2021-02-20T13:29:43.000Z</time>
      </trkpt>
      <trkpt lat="47.13316" lon="-1.6198">
        <ele>61</ele>
        <time>2021-02-20T13:29:45.000Z</time>
      </trkpt>
      <trkpt lat="47.13326" lon="-1.61971">
        <ele>61</ele>
        <time>2021-02-20T13:29:47.000Z</time>
      </trkpt>
      <trkpt lat="47.13337" lon="-1.61962">
        <ele>61</ele>
        <time>2021-02-20T13:29:49.000Z</time>
      </trkpt>
      <trkpt lat="47.13348" lon="-1.61953">
        <ele>61</ele>
        <time>2021-02-20T13:29:51.000Z</time>
      </trkpt>
      <trkpt lat="47.13359" lon="-1.61944">
        <ele>61</ele>
        <time>2021-02-20T13:29:53.000Z</time>
      </trkpt>
      <trkpt lat="47.13376" lon="-1.61932">
        <ele>62</ele>
        <time>2021-02-20T13:29:56.000Z</time>
      </trkpt>
      <trkpt lat="47.13387" lon="-1.61924">
        <ele>61</ele>
        <time>2021-02-20T13:29:58.000Z</time>
      </trkpt>
      <trkpt lat="47.13398" lon="-1.61915">
        <ele>61</ele>
        <time>2021-02-20T13:30:00.000Z</time>
      </trkpt>
      <trkpt lat="47.13409" lon="-1.61907">
        <ele>61</ele>
        <time>2021-02-20T13:30:02.000Z</time>
      </trkpt>
      <trkpt lat="47.13421" lon="-1.61898">
        <ele>61</ele>
        <time>2021-02-20T13:30:04.000Z</time>
      </trkpt>
      <trkpt lat="47.13432" lon="-1.61889">
        <ele>61</ele>
        <time>2021-02-20T13:30:06.000Z</time>
      </trkpt>
      <trkpt lat="47.13444" lon="-1.6188">
        <ele>61</ele>
        <time>2021-02-20T13:30:08.000Z</time>
      </trkpt>
      <trkpt lat="47.13456" lon="-1.61871">
        <ele>61</ele>
        <time>2021-02-20T13:30:10.000Z</time>
      </trkpt>
      <trkpt lat="47.13467" lon="-1.61862">
        <ele>61</ele>
        <time>2021-02-20T13:30:12.000Z</time>
      </trkpt>
      <trkpt lat="47.13479" lon="-1.61855">
        <ele>60</ele>
        <time>2021-02-20T13:30:14.000Z</time>
      </trkpt>
      <trkpt lat="47.1349" lon="-1.61848">
        <ele>60</ele>
        <time>2021-02-20T13:30:16.000Z</time>
      </trkpt>
      <trkpt lat="47.13502" lon="-1.61842">
        <ele>60</ele>
        <time>2021-02-20T13:30:18.000Z</time>
      </trkpt>
      <trkpt lat="47.13513" lon="-1.61837">
        <ele>60</ele>
        <time>2021-02-20T13:30:20.000Z</time>
      </trkpt>
      <trkpt lat="47.13526" lon="-1.61832">
        <ele>60</ele>
        <time>2021-02-20T13:30:22.000Z</time>
      </trkpt>
      <trkpt lat="47.13538" lon="-1.61825">
        <ele>60</ele>
        <time>2021-02-20T13:30:24.000Z</time>
      </trkpt>
      <trkpt lat="47.1355" lon="-1.6182">
        <ele>60</ele>
        <time>2021-02-20T13:30:26.000Z</time>
      </trkpt>
      <trkpt lat="47.13562" lon="-1.61814">
        <ele>60</ele>
        <time>2021-02-20T13:30:28.000Z</time>
      </trkpt>
      <trkpt lat="47.13574" lon="-1.61807">
        <ele>60</ele>
        <time>2021-02-20T13:30:30.000Z</time>
      </trkpt>
      <trkpt lat="47.13587" lon="-1.61804">
        <ele>60</ele>
        <time>2021-02-20T13:30:32.000Z</time>
      </trkpt>
      <trkpt lat="47.13599" lon="-1.618">
        <ele>60</ele>
        <time>2021-02-20T13:30:34.000Z</time>
      </trkpt>
      <trkpt lat="47.13618" lon="-1.61792">
        <ele>60</ele>
        <time>2021-02-20T13:30:37.000Z</time>
      </trkpt>
      <trkpt lat="47.1363" lon="-1.61786">
        <ele>60</ele>
        <time>2021-02-20T13:30:39.000Z</time>
      </trkpt>
      <trkpt lat="47.13643" lon="-1.61781">
        <ele>60</ele>
        <time>2021-02-20T13:30:41.000Z</time>
      </trkpt>
      <trkpt lat="47.13655" lon="-1.61775">
        <ele>61</ele>
        <time>2021-02-20T13:30:43.000Z</time>
      </trkpt>
      <trkpt lat="47.13666" lon="-1.61769">
        <ele>61</ele>
        <time>2021-02-20T13:30:45.000Z</time>
      </trkpt>
      <trkpt lat="47.13677" lon="-1.61763">
        <ele>61</ele>
        <time>2021-02-20T13:30:47.000Z</time>
      </trkpt>
      <trkpt lat="47.13688" lon="-1.61755">
        <ele>62</ele>
        <time>2021-02-20T13:30:49.000Z</time>
      </trkpt>
      <trkpt lat="47.13698" lon="-1.61747">
        <ele>62</ele>
        <time>2021-02-20T13:30:51.000Z</time>
      </trkpt>
      <trkpt lat="47.13709" lon="-1.61739">
        <ele>62</ele>
        <time>2021-02-20T13:30:53.000Z</time>
      </trkpt>
      <trkpt lat="47.1372" lon="-1.61731">
        <ele>62</ele>
        <time>2021-02-20T13:30:55.000Z</time>
      </trkpt>
      <trkpt lat="47.13729" lon="-1.61723">
        <ele>63</ele>
        <time>2021-02-20T13:30:57.000Z</time>
      </trkpt>
      <trkpt lat="47.13739" lon="-1.6172">
        <ele>62</ele>
        <time>2021-02-20T13:30:59.000Z</time>
      </trkpt>
      <trkpt lat="47.13742" lon="-1.61734">
        <ele>63</ele>
        <time>2021-02-20T13:31:01.000Z</time>
      </trkpt>
      <trkpt lat="47.13741" lon="-1.61751">
        <ele>63</ele>
        <time>2021-02-20T13:31:03.000Z</time>
      </trkpt>
      <trkpt lat="47.13737" lon="-1.61767">
        <ele>63</ele>
        <time>2021-02-20T13:31:05.000Z</time>
      </trkpt>
      <trkpt lat="47.13733" lon="-1.61784">
        <ele>63</ele>
        <time>2021-02-20T13:31:07.000Z</time>
      </trkpt>
      <trkpt lat="47.1373" lon="-1.61801">
        <ele>63</ele>
        <time>2021-02-20T13:31:09.000Z</time>
      </trkpt>
      <trkpt lat="47.13728" lon="-1.61819">
        <ele>63</ele>
        <time>2021-02-20T13:31:11.000Z</time>
      </trkpt>
      <trkpt lat="47.13726" lon="-1.61836">
        <ele>63</ele>
        <time>2021-02-20T13:31:13.000Z</time>
      </trkpt>
      <trkpt lat="47.13724" lon="-1.61852">
        <ele>63</ele>
        <time>2021-02-20T13:31:15.000Z</time>
      </trkpt>
      <trkpt lat="47.13722" lon="-1.61877">
        <ele>63</ele>
        <time>2021-02-20T13:31:18.000Z</time>
      </trkpt>
      <trkpt lat="47.13722" lon="-1.61893">
        <ele>63</ele>
        <time>2021-02-20T13:31:20.000Z</time>
      </trkpt>
      <trkpt lat="47.13721" lon="-1.6191">
        <ele>63</ele>
        <time>2021-02-20T13:31:22.000Z</time>
      </trkpt>
      <trkpt lat="47.13721" lon="-1.61928">
        <ele>63</ele>
        <time>2021-02-20T13:31:24.000Z</time>
      </trkpt>
      <trkpt lat="47.13722" lon="-1.61947">
        <ele>63</ele>
        <time>2021-02-20T13:31:26.000Z</time>
      </trkpt>
      <trkpt lat="47.13725" lon="-1.61965">
        <ele>62</ele>
        <time>2021-02-20T13:31:28.000Z</time>
      </trkpt>
      <trkpt lat="47.13727" lon="-1.61982">
        <ele>63</ele>
        <time>2021-02-20T13:31:30.000Z</time>
      </trkpt>
      <trkpt lat="47.1373" lon="-1.61998">
        <ele>63</ele>
        <time>2021-02-20T13:31:32.000Z</time>
      </trkpt>
      <trkpt lat="47.13732" lon="-1.62015">
        <ele>63</ele>
        <time>2021-02-20T13:31:34.000Z</time>
      </trkpt>
      <trkpt lat="47.13735" lon="-1.62032">
        <ele>63</ele>
        <time>2021-02-20T13:31:36.000Z</time>
      </trkpt>
      <trkpt lat="47.13737" lon="-1.62049">
        <ele>63</ele>
        <time>2021-02-20T13:31:38.000Z</time>
      </trkpt>
      <trkpt lat="47.13738" lon="-1.62067">
        <ele>64</ele>
        <time>2021-02-20T13:31:40.000Z</time>
      </trkpt>
      <trkpt lat="47.1374" lon="-1.62085">
        <ele>64</ele>
        <time>2021-02-20T13:31:42.000Z</time>
      </trkpt>
      <trkpt lat="47.13743" lon="-1.62102">
        <ele>63</ele>
        <time>2021-02-20T13:31:44.000Z</time>
      </trkpt>
      <trkpt lat="47.13745" lon="-1.6212">
        <ele>64</ele>
        <time>2021-02-20T13:31:46.000Z</time>
      </trkpt>
      <trkpt lat="47.13747" lon="-1.62138">
        <ele>64</ele>
        <time>2021-02-20T13:31:48.000Z</time>
      </trkpt>
      <trkpt lat="47.13749" lon="-1.62156">
        <ele>64</ele>
        <time>2021-02-20T13:31:50.000Z</time>
      </trkpt>
      <trkpt lat="47.13751" lon="-1.62173">
        <ele>64</ele>
        <time>2021-02-20T13:31:52.000Z</time>
      </trkpt>
      <trkpt lat="47.13753" lon="-1.62191">
        <ele>64</ele>
        <time>2021-02-20T13:31:54.000Z</time>
      </trkpt>
      <trkpt lat="47.13755" lon="-1.62208">
        <ele>64</ele>
        <time>2021-02-20T13:31:56.000Z</time>
      </trkpt>
      <trkpt lat="47.13757" lon="-1.62225">
        <ele>64</ele>
        <time>2021-02-20T13:31:58.000Z</time>
      </trkpt>
      <trkpt lat="47.13759" lon="-1.62242">
        <ele>64</ele>
        <time>2021-02-20T13:32:00.000Z</time>
      </trkpt>
      <trkpt lat="47.13761" lon="-1.62258">
        <ele>64</ele>
        <time>2021-02-20T13:32:02.000Z</time>
      </trkpt>
      <trkpt lat="47.13763" lon="-1.62275">
        <ele>64</ele>
        <time>2021-02-20T13:32:04.000Z</time>
      </trkpt>
      <trkpt lat="47.13765" lon="-1.62292">
        <ele>64</ele>
        <time>2021-02-20T13:32:06.000Z</time>
      </trkpt>
      <trkpt lat="47.13766" lon="-1.62309">
        <ele>64</ele>
        <time>2021-02-20T13:32:08.000Z</time>
      </trkpt>
      <trkpt lat="47.13765" lon="-1.62327">
        <ele>63</ele>
        <time>2021-02-20T13:32:10.000Z</time>
      </trkpt>
      <trkpt lat="47.13764" lon="-1.62345">
        <ele>63</ele>
        <time>2021-02-20T13:32:12.000Z</time>
      </trkpt>
      <trkpt lat="47.13762" lon="-1.62363">
        <ele>63</ele>
        <time>2021-02-20T13:32:14.000Z</time>
      </trkpt>
      <trkpt lat="47.1376" lon="-1.62382">
        <ele>63</ele>
        <time>2021-02-20T13:32:16.000Z</time>
      </trkpt>
      <trkpt lat="47.13759" lon="-1.62403">
        <ele>63</ele>
        <time>2021-02-20T13:32:18.000Z</time>
      </trkpt>
      <trkpt lat="47.1376" lon="-1.62424">
        <ele>63</ele>
        <time>2021-02-20T13:32:20.000Z</time>
      </trkpt>
      <trkpt lat="47.13762" lon="-1.62446">
        <ele>62</ele>
        <time>2021-02-20T13:32:22.000Z</time>
      </trkpt>
      <trkpt lat="47.13765" lon="-1.62468">
        <ele>61</ele>
        <time>2021-02-20T13:32:24.000Z</time>
      </trkpt>
      <trkpt lat="47.13767" lon="-1.6249">
        <ele>61</ele>
        <time>2021-02-20T13:32:26.000Z</time>
      </trkpt>
      <trkpt lat="47.1377" lon="-1.6251">
        <ele>60</ele>
        <time>2021-02-20T13:32:28.000Z</time>
      </trkpt>
      <trkpt lat="47.13772" lon="-1.6253">
        <ele>60</ele>
        <time>2021-02-20T13:32:30.000Z</time>
      </trkpt>
      <trkpt lat="47.13774" lon="-1.6255">
        <ele>60</ele>
        <time>2021-02-20T13:32:32.000Z</time>
      </trkpt>
      <trkpt lat="47.13775" lon="-1.62569">
        <ele>59</ele>
        <time>2021-02-20T13:32:34.000Z</time>
      </trkpt>
      <trkpt lat="47.13777" lon="-1.62587">
        <ele>60</ele>
        <time>2021-02-20T13:32:36.000Z</time>
      </trkpt>
      <trkpt lat="47.13779" lon="-1.62604">
        <ele>60</ele>
        <time>2021-02-20T13:32:38.000Z</time>
      </trkpt>
      <trkpt lat="47.1378" lon="-1.62621">
        <ele>60</ele>
        <time>2021-02-20T13:32:40.000Z</time>
      </trkpt>
      <trkpt lat="47.13782" lon="-1.62639">
        <ele>61</ele>
        <time>2021-02-20T13:32:42.000Z</time>
      </trkpt>
      <trkpt lat="47.13782" lon="-1.62656">
        <ele>61</ele>
        <time>2021-02-20T13:32:44.000Z</time>
      </trkpt>
      <trkpt lat="47.13783" lon="-1.62673">
        <ele>61</ele>
        <time>2021-02-20T13:32:46.000Z</time>
      </trkpt>
      <trkpt lat="47.13782" lon="-1.62691">
        <ele>61</ele>
        <time>2021-02-20T13:32:48.000Z</time>
      </trkpt>
      <trkpt lat="47.13781" lon="-1.62708">
        <ele>61</ele>
        <time>2021-02-20T13:32:50.000Z</time>
      </trkpt>
      <trkpt lat="47.1378" lon="-1.62726">
        <ele>61</ele>
        <time>2021-02-20T13:32:52.000Z</time>
      </trkpt>
      <trkpt lat="47.1378" lon="-1.62743">
        <ele>61</ele>
        <time>2021-02-20T13:32:54.000Z</time>
      </trkpt>
      <trkpt lat="47.13782" lon="-1.62761">
        <ele>62</ele>
        <time>2021-02-20T13:32:56.000Z</time>
      </trkpt>
      <trkpt lat="47.13785" lon="-1.62778">
        <ele>62</ele>
        <time>2021-02-20T13:32:58.000Z</time>
      </trkpt>
      <trkpt lat="47.1379" lon="-1.62794">
        <ele>63</ele>
        <time>2021-02-20T13:33:00.000Z</time>
      </trkpt>
      <trkpt lat="47.13796" lon="-1.62809">
        <ele>63</ele>
        <time>2021-02-20T13:33:02.000Z</time>
      </trkpt>
      <trkpt lat="47.13801" lon="-1.62824">
        <ele>63</ele>
        <time>2021-02-20T13:33:04.000Z</time>
      </trkpt>
      <trkpt lat="47.13807" lon="-1.62838">
        <ele>64</ele>
        <time>2021-02-20T13:33:06.000Z</time>
      </trkpt>
      <trkpt lat="47.13812" lon="-1.62853">
        <ele>64</ele>
        <time>2021-02-20T13:33:08.000Z</time>
      </trkpt>
      <trkpt lat="47.13817" lon="-1.62867">
        <ele>64</ele>
        <time>2021-02-20T13:33:10.000Z</time>
      </trkpt>
      <trkpt lat="47.13822" lon="-1.62882">
        <ele>64</ele>
        <time>2021-02-20T13:33:12.000Z</time>
      </trkpt>
      <trkpt lat="47.13824" lon="-1.62898">
        <ele>64</ele>
        <time>2021-02-20T13:33:14.000Z</time>
      </trkpt>
      <trkpt lat="47.13823" lon="-1.62914">
        <ele>64</ele>
        <time>2021-02-20T13:33:16.000Z</time>
      </trkpt>
      <trkpt lat="47.13822" lon="-1.62931">
        <ele>64</ele>
        <time>2021-02-20T13:33:18.000Z</time>
      </trkpt>
      <trkpt lat="47.1382" lon="-1.62948">
        <ele>63</ele>
        <time>2021-02-20T13:33:20.000Z</time>
      </trkpt>
      <trkpt lat="47.13818" lon="-1.62965">
        <ele>63</ele>
        <time>2021-02-20T13:33:22.000Z</time>
      </trkpt>
      <trkpt lat="47.13816" lon="-1.62983">
        <ele>62</ele>
        <time>2021-02-20T13:33:24.000Z</time>
      </trkpt>
      <trkpt lat="47.13815" lon="-1.63001">
        <ele>62</ele>
        <time>2021-02-20T13:33:26.000Z</time>
      </trkpt>
      <trkpt lat="47.13815" lon="-1.63019">
        <ele>61</ele>
        <time>2021-02-20T13:33:28.000Z</time>
      </trkpt>
      <trkpt lat="47.13815" lon="-1.63037">
        <ele>60</ele>
        <time>2021-02-20T13:33:30.000Z</time>
      </trkpt>
      <trkpt lat="47.13819" lon="-1.63051">
        <ele>60</ele>
        <time>2021-02-20T13:33:32.000Z</time>
      </trkpt>
      <trkpt lat="47.13828" lon="-1.63058">
        <ele>60</ele>
        <time>2021-02-20T13:33:34.000Z</time>
      </trkpt>
      <trkpt lat="47.13841" lon="-1.63056">
        <ele>60</ele>
        <time>2021-02-20T13:33:36.000Z</time>
      </trkpt>
      <trkpt lat="47.13855" lon="-1.63055">
        <ele>60</ele>
        <time>2021-02-20T13:33:38.000Z</time>
      </trkpt>
      <trkpt lat="47.13868" lon="-1.63053">
        <ele>60</ele>
        <time>2021-02-20T13:33:40.000Z</time>
      </trkpt>
      <trkpt lat="47.13881" lon="-1.6305">
        <ele>60</ele>
        <time>2021-02-20T13:33:42.000Z</time>
      </trkpt>
      <trkpt lat="47.13894" lon="-1.63046">
        <ele>61</ele>
        <time>2021-02-20T13:33:44.000Z</time>
      </trkpt>
      <trkpt lat="47.13908" lon="-1.63043">
        <ele>61</ele>
        <time>2021-02-20T13:33:46.000Z</time>
      </trkpt>
      <trkpt lat="47.1392" lon="-1.63037">
        <ele>60</ele>
        <time>2021-02-20T13:33:48.000Z</time>
      </trkpt>
      <trkpt lat="47.13933" lon="-1.63031">
        <ele>60</ele>
        <time>2021-02-20T13:33:50.000Z</time>
      </trkpt>
      <trkpt lat="47.13945" lon="-1.63025">
        <ele>61</ele>
        <time>2021-02-20T13:33:52.000Z</time>
      </trkpt>
      <trkpt lat="47.13958" lon="-1.63018">
        <ele>61</ele>
        <time>2021-02-20T13:33:54.000Z</time>
      </trkpt>
      <trkpt lat="47.1397" lon="-1.63011">
        <ele>61</ele>
        <time>2021-02-20T13:33:56.000Z</time>
      </trkpt>
      <trkpt lat="47.13982" lon="-1.63004">
        <ele>62</ele>
        <time>2021-02-20T13:33:58.000Z</time>
      </trkpt>
      <trkpt lat="47.13994" lon="-1.62997">
        <ele>62</ele>
        <time>2021-02-20T13:34:00.000Z</time>
      </trkpt>
      <trkpt lat="47.14006" lon="-1.6299">
        <ele>62</ele>
        <time>2021-02-20T13:34:02.000Z</time>
      </trkpt>
      <trkpt lat="47.14018" lon="-1.62986">
        <ele>63</ele>
        <time>2021-02-20T13:34:04.000Z</time>
      </trkpt>
      <trkpt lat="47.14031" lon="-1.62981">
        <ele>63</ele>
        <time>2021-02-20T13:34:06.000Z</time>
      </trkpt>
      <trkpt lat="47.14044" lon="-1.62978">
        <ele>63</ele>
        <time>2021-02-20T13:34:08.000Z</time>
      </trkpt>
      <trkpt lat="47.14057" lon="-1.62975">
        <ele>63</ele>
        <time>2021-02-20T13:34:10.000Z</time>
      </trkpt>
      <trkpt lat="47.14069" lon="-1.62974">
        <ele>64</ele>
        <time>2021-02-20T13:34:12.000Z</time>
      </trkpt>
      <trkpt lat="47.14082" lon="-1.62975">
        <ele>64</ele>
        <time>2021-02-20T13:34:14.000Z</time>
      </trkpt>
      <trkpt lat="47.14094" lon="-1.62976">
        <ele>65</ele>
        <time>2021-02-20T13:34:16.000Z</time>
      </trkpt>
      <trkpt lat="47.14106" lon="-1.62978">
        <ele>65</ele>
        <time>2021-02-20T13:34:18.000Z</time>
      </trkpt>
      <trkpt lat="47.14118" lon="-1.62982">
        <ele>65</ele>
        <time>2021-02-20T13:34:20.000Z</time>
      </trkpt>
      <trkpt lat="47.14131" lon="-1.62986">
        <ele>66</ele>
        <time>2021-02-20T13:34:22.000Z</time>
      </trkpt>
      <trkpt lat="47.14143" lon="-1.62991">
        <ele>66</ele>
        <time>2021-02-20T13:34:24.000Z</time>
      </trkpt>
      <trkpt lat="47.14155" lon="-1.62996">
        <ele>66</ele>
        <time>2021-02-20T13:34:26.000Z</time>
      </trkpt>
      <trkpt lat="47.14167" lon="-1.63002">
        <ele>66</ele>
        <time>2021-02-20T13:34:28.000Z</time>
      </trkpt>
      <trkpt lat="47.14179" lon="-1.63008">
        <ele>66</ele>
        <time>2021-02-20T13:34:30.000Z</time>
      </trkpt>
      <trkpt lat="47.14192" lon="-1.63014">
        <ele>66</ele>
        <time>2021-02-20T13:34:32.000Z</time>
      </trkpt>
      <trkpt lat="47.14204" lon="-1.63021">
        <ele>65</ele>
        <time>2021-02-20T13:34:34.000Z</time>
      </trkpt>
      <trkpt lat="47.14216" lon="-1.63027">
        <ele>65</ele>
        <time>2021-02-20T13:34:36.000Z</time>
      </trkpt>
      <trkpt lat="47.14229" lon="-1.63033">
        <ele>65</ele>
        <time>2021-02-20T13:34:38.000Z</time>
      </trkpt>
      <trkpt lat="47.14241" lon="-1.63039">
        <ele>65</ele>
        <time>2021-02-20T13:34:40.000Z</time>
      </trkpt>
      <trkpt lat="47.14253" lon="-1.63045">
        <ele>65</ele>
        <time>2021-02-20T13:34:42.000Z</time>
      </trkpt>
      <trkpt lat="47.14266" lon="-1.63051">
        <ele>66</ele>
        <time>2021-02-20T13:34:44.000Z</time>
      </trkpt>
      <trkpt lat="47.14278" lon="-1.63058">
        <ele>66</ele>
        <time>2021-02-20T13:34:46.000Z</time>
      </trkpt>
      <trkpt lat="47.1429" lon="-1.63065">
        <ele>65</ele>
        <time>2021-02-20T13:34:48.000Z</time>
      </trkpt>
      <trkpt lat="47.14302" lon="-1.63071">
        <ele>65</ele>
        <time>2021-02-20T13:34:50.000Z</time>
      </trkpt>
      <trkpt lat="47.14315" lon="-1.63077">
        <ele>66</ele>
        <time>2021-02-20T13:34:52.000Z</time>
      </trkpt>
      <trkpt lat="47.14327" lon="-1.63084">
        <ele>66</ele>
        <time>2021-02-20T13:34:54.000Z</time>
      </trkpt>
      <trkpt lat="47.14339" lon="-1.6309">
        <ele>66</ele>
        <time>2021-02-20T13:34:56.000Z</time>
      </trkpt>
      <trkpt lat="47.14352" lon="-1.63097">
        <ele>66</ele>
        <time>2021-02-20T13:34:58.000Z</time>
      </trkpt>
      <trkpt lat="47.14365" lon="-1.63103">
        <ele>66</ele>
        <time>2021-02-20T13:35:00.000Z</time>
      </trkpt>
      <trkpt lat="47.14378" lon="-1.6311">
        <ele>66</ele>
        <time>2021-02-20T13:35:02.000Z</time>
      </trkpt>
      <trkpt lat="47.1439" lon="-1.63116">
        <ele>66</ele>
        <time>2021-02-20T13:35:04.000Z</time>
      </trkpt>
      <trkpt lat="47.14402" lon="-1.63122">
        <ele>66</ele>
        <time>2021-02-20T13:35:06.000Z</time>
      </trkpt>
      <trkpt lat="47.14415" lon="-1.63127">
        <ele>65</ele>
        <time>2021-02-20T13:35:08.000Z</time>
      </trkpt>
      <trkpt lat="47.14428" lon="-1.63133">
        <ele>66</ele>
        <time>2021-02-20T13:35:10.000Z</time>
      </trkpt>
      <trkpt lat="47.1444" lon="-1.63139">
        <ele>65</ele>
        <time>2021-02-20T13:35:12.000Z</time>
      </trkpt>
      <trkpt lat="47.14453" lon="-1.63143">
        <ele>65</ele>
        <time>2021-02-20T13:35:14.000Z</time>
      </trkpt>
      <trkpt lat="47.14466" lon="-1.63144">
        <ele>65</ele>
        <time>2021-02-20T13:35:16.000Z</time>
      </trkpt>
      <trkpt lat="47.14478" lon="-1.63144">
        <ele>65</ele>
        <time>2021-02-20T13:35:18.000Z</time>
      </trkpt>
      <trkpt lat="47.1449" lon="-1.63144">
        <ele>65</ele>
        <time>2021-02-20T13:35:20.000Z</time>
      </trkpt>
      <trkpt lat="47.14502" lon="-1.63145">
        <ele>65</ele>
        <time>2021-02-20T13:35:22.000Z</time>
      </trkpt>
      <trkpt lat="47.14515" lon="-1.63146">
        <ele>66</ele>
        <time>2021-02-20T13:35:24.000Z</time>
      </trkpt>
      <trkpt lat="47.14528" lon="-1.63146">
        <ele>66</ele>
        <time>2021-02-20T13:35:26.000Z</time>
      </trkpt>
      <trkpt lat="47.1454" lon="-1.63145">
        <ele>66</ele>
        <time>2021-02-20T13:35:28.000Z</time>
      </trkpt>
      <trkpt lat="47.14553" lon="-1.63143">
        <ele>67</ele>
        <time>2021-02-20T13:35:30.000Z</time>
      </trkpt>
      <trkpt lat="47.14565" lon="-1.63139">
        <ele>67</ele>
        <time>2021-02-20T13:35:32.000Z</time>
      </trkpt>
      <trkpt lat="47.14577" lon="-1.63133">
        <ele>67</ele>
        <time>2021-02-20T13:35:34.000Z</time>
      </trkpt>
      <trkpt lat="47.14589" lon="-1.63126">
        <ele>67</ele>
        <time>2021-02-20T13:35:36.000Z</time>
      </trkpt>
      <trkpt lat="47.146" lon="-1.63119">
        <ele>67</ele>
        <time>2021-02-20T13:35:38.000Z</time>
      </trkpt>
      <trkpt lat="47.14612" lon="-1.63112">
        <ele>67</ele>
        <time>2021-02-20T13:35:40.000Z</time>
      </trkpt>
      <trkpt lat="47.14623" lon="-1.63104">
        <ele>68</ele>
        <time>2021-02-20T13:35:42.000Z</time>
      </trkpt>
      <trkpt lat="47.14635" lon="-1.63097">
        <ele>67</ele>
        <time>2021-02-20T13:35:44.000Z</time>
      </trkpt>
      <trkpt lat="47.14647" lon="-1.6309">
        <ele>67</ele>
        <time>2021-02-20T13:35:46.000Z</time>
      </trkpt>
      <trkpt lat="47.14658" lon="-1.63084">
        <ele>68</ele>
        <time>2021-02-20T13:35:48.000Z</time>
      </trkpt>
      <trkpt lat="47.1467" lon="-1.63078">
        <ele>68</ele>
        <time>2021-02-20T13:35:50.000Z</time>
      </trkpt>
      <trkpt lat="47.14682" lon="-1.63074">
        <ele>67</ele>
        <time>2021-02-20T13:35:52.000Z</time>
      </trkpt>
      <trkpt lat="47.14694" lon="-1.63071">
        <ele>68</ele>
        <time>2021-02-20T13:35:54.000Z</time>
      </trkpt>
      <trkpt lat="47.14706" lon="-1.6307">
        <ele>68</ele>
        <time>2021-02-20T13:35:56.000Z</time>
      </trkpt>
      <trkpt lat="47.14718" lon="-1.63069">
        <ele>68</ele>
        <time>2021-02-20T13:35:58.000Z</time>
      </trkpt>
      <trkpt lat="47.1473" lon="-1.63069">
        <ele>69</ele>
        <time>2021-02-20T13:36:00.000Z</time>
      </trkpt>
      <trkpt lat="47.14742" lon="-1.63068">
        <ele>68</ele>
        <time>2021-02-20T13:36:02.000Z</time>
      </trkpt>
      <trkpt lat="47.14755" lon="-1.63067">
        <ele>68</ele>
        <time>2021-02-20T13:36:04.000Z</time>
      </trkpt>
      <trkpt lat="47.14769" lon="-1.63066">
        <ele>69</ele>
        <time>2021-02-20T13:36:06.000Z</time>
      </trkpt>
      <trkpt lat="47.14782" lon="-1.63065">
        <ele>69</ele>
        <time>2021-02-20T13:36:08.000Z</time>
      </trkpt>
      <trkpt lat="47.14795" lon="-1.63064">
        <ele>69</ele>
        <time>2021-02-20T13:36:10.000Z</time>
      </trkpt>
      <trkpt lat="47.14807" lon="-1.63064">
        <ele>69</ele>
        <time>2021-02-20T13:36:12.000Z</time>
      </trkpt>
      <trkpt lat="47.1482" lon="-1.63063">
        <ele>70</ele>
        <time>2021-02-20T13:36:14.000Z</time>
      </trkpt>
      <trkpt lat="47.14832" lon="-1.63061">
        <ele>70</ele>
        <time>2021-02-20T13:36:16.000Z</time>
      </trkpt>
      <trkpt lat="47.14843" lon="-1.63061">
        <ele>71</ele>
        <time>2021-02-20T13:36:18.000Z</time>
      </trkpt>
      <trkpt lat="47.14854" lon="-1.63061">
        <ele>71</ele>
        <time>2021-02-20T13:36:20.000Z</time>
      </trkpt>
      <trkpt lat="47.14864" lon="-1.6306">
        <ele>72</ele>
        <time>2021-02-20T13:36:22.000Z</time>
      </trkpt>
      <trkpt lat="47.14874" lon="-1.63059">
        <ele>71</ele>
        <time>2021-02-20T13:36:24.000Z</time>
      </trkpt>
      <trkpt lat="47.14884" lon="-1.63069">
        <ele>72</ele>
        <time>2021-02-20T13:36:27.000Z</time>
      </trkpt>
      <trkpt lat="47.14883" lon="-1.63085">
        <ele>71</ele>
        <time>2021-02-20T13:36:29.000Z</time>
      </trkpt>
      <trkpt lat="47.14881" lon="-1.63102">
        <ele>71</ele>
        <time>2021-02-20T13:36:31.000Z</time>
      </trkpt>
      <trkpt lat="47.14879" lon="-1.63119">
        <ele>71</ele>
        <time>2021-02-20T13:36:33.000Z</time>
      </trkpt>
      <trkpt lat="47.14877" lon="-1.63137">
        <ele>70</ele>
        <time>2021-02-20T13:36:35.000Z</time>
      </trkpt>
      <trkpt lat="47.14875" lon="-1.63155">
        <ele>70</ele>
        <time>2021-02-20T13:36:37.000Z</time>
      </trkpt>
      <trkpt lat="47.14874" lon="-1.63173">
        <ele>70</ele>
        <time>2021-02-20T13:36:39.000Z</time>
      </trkpt>
      <trkpt lat="47.14873" lon="-1.63191">
        <ele>70</ele>
        <time>2021-02-20T13:36:41.000Z</time>
      </trkpt>
      <trkpt lat="47.14873" lon="-1.63209">
        <ele>70</ele>
        <time>2021-02-20T13:36:43.000Z</time>
      </trkpt>
      <trkpt lat="47.14873" lon="-1.63228">
        <ele>70</ele>
        <time>2021-02-20T13:36:45.000Z</time>
      </trkpt>
      <trkpt lat="47.14875" lon="-1.63245">
        <ele>71</ele>
        <time>2021-02-20T13:36:47.000Z</time>
      </trkpt>
      <trkpt lat="47.14876" lon="-1.63263">
        <ele>71</ele>
        <time>2021-02-20T13:36:49.000Z</time>
      </trkpt>
      <trkpt lat="47.14876" lon="-1.63281">
        <ele>71</ele>
        <time>2021-02-20T13:36:51.000Z</time>
      </trkpt>
      <trkpt lat="47.14875" lon="-1.63299">
        <ele>71</ele>
        <time>2021-02-20T13:36:53.000Z</time>
      </trkpt>
      <trkpt lat="47.14876" lon="-1.63316">
        <ele>72</ele>
        <time>2021-02-20T13:36:55.000Z</time>
      </trkpt>
      <trkpt lat="47.14878" lon="-1.63334">
        <ele>73</ele>
        <time>2021-02-20T13:36:57.000Z</time>
      </trkpt>
      <trkpt lat="47.14877" lon="-1.63351">
        <ele>72</ele>
        <time>2021-02-20T13:36:59.000Z</time>
      </trkpt>
      <trkpt lat="47.14876" lon="-1.6337">
        <ele>72</ele>
        <time>2021-02-20T13:37:01.000Z</time>
      </trkpt>
      <trkpt lat="47.14875" lon="-1.63387">
        <ele>72</ele>
        <time>2021-02-20T13:37:03.000Z</time>
      </trkpt>
      <trkpt lat="47.14875" lon="-1.63405">
        <ele>72</ele>
        <time>2021-02-20T13:37:05.000Z</time>
      </trkpt>
      <trkpt lat="47.14874" lon="-1.63422">
        <ele>72</ele>
        <time>2021-02-20T13:37:07.000Z</time>
      </trkpt>
      <trkpt lat="47.14874" lon="-1.6344">
        <ele>72</ele>
        <time>2021-02-20T13:37:09.000Z</time>
      </trkpt>
      <trkpt lat="47.14874" lon="-1.63458">
        <ele>72</ele>
        <time>2021-02-20T13:37:11.000Z</time>
      </trkpt>
      <trkpt lat="47.14874" lon="-1.63476">
        <ele>71</ele>
        <time>2021-02-20T13:37:13.000Z</time>
      </trkpt>
      <trkpt lat="47.14873" lon="-1.63493">
        <ele>71</ele>
        <time>2021-02-20T13:37:15.000Z</time>
      </trkpt>
      <trkpt lat="47.14872" lon="-1.63511">
        <ele>71</ele>
        <time>2021-02-20T13:37:17.000Z</time>
      </trkpt>
      <trkpt lat="47.14872" lon="-1.63528">
        <ele>71</ele>
        <time>2021-02-20T13:37:19.000Z</time>
      </trkpt>
      <trkpt lat="47.14872" lon="-1.63545">
        <ele>72</ele>
        <time>2021-02-20T13:37:21.000Z</time>
      </trkpt>
      <trkpt lat="47.14872" lon="-1.63562">
        <ele>71</ele>
        <time>2021-02-20T13:37:23.000Z</time>
      </trkpt>
      <trkpt lat="47.14872" lon="-1.63579">
        <ele>71</ele>
        <time>2021-02-20T13:37:25.000Z</time>
      </trkpt>
      <trkpt lat="47.14872" lon="-1.63597">
        <ele>71</ele>
        <time>2021-02-20T13:37:27.000Z</time>
      </trkpt>
      <trkpt lat="47.14872" lon="-1.63615">
        <ele>71</ele>
        <time>2021-02-20T13:37:29.000Z</time>
      </trkpt>
      <trkpt lat="47.14872" lon="-1.63632">
        <ele>71</ele>
        <time>2021-02-20T13:37:31.000Z</time>
      </trkpt>
      <trkpt lat="47.14872" lon="-1.6365">
        <ele>71</ele>
        <time>2021-02-20T13:37:33.000Z</time>
      </trkpt>
      <trkpt lat="47.14872" lon="-1.63668">
        <ele>71</ele>
        <time>2021-02-20T13:37:35.000Z</time>
      </trkpt>
      <trkpt lat="47.14871" lon="-1.63686">
        <ele>71</ele>
        <time>2021-02-20T13:37:37.000Z</time>
      </trkpt>
      <trkpt lat="47.14872" lon="-1.63702">
        <ele>71</ele>
        <time>2021-02-20T13:37:39.000Z</time>
      </trkpt>
      <trkpt lat="47.14872" lon="-1.6372">
        <ele>71</ele>
        <time>2021-02-20T13:37:41.000Z</time>
      </trkpt>
      <trkpt lat="47.14872" lon="-1.63737">
        <ele>71</ele>
        <time>2021-02-20T13:37:43.000Z</time>
      </trkpt>
      <trkpt lat="47.14871" lon="-1.63754">
        <ele>71</ele>
        <time>2021-02-20T13:37:45.000Z</time>
      </trkpt>
      <trkpt lat="47.14871" lon="-1.6377">
        <ele>71</ele>
        <time>2021-02-20T13:37:47.000Z</time>
      </trkpt>
      <trkpt lat="47.14872" lon="-1.63786">
        <ele>70</ele>
        <time>2021-02-20T13:37:49.000Z</time>
      </trkpt>
      <trkpt lat="47.14871" lon="-1.63804">
        <ele>70</ele>
        <time>2021-02-20T13:37:51.000Z</time>
      </trkpt>
      <trkpt lat="47.14871" lon="-1.63821">
        <ele>70</ele>
        <time>2021-02-20T13:37:53.000Z</time>
      </trkpt>
      <trkpt lat="47.1487" lon="-1.63837">
        <ele>70</ele>
        <time>2021-02-20T13:37:55.000Z</time>
      </trkpt>
      <trkpt lat="47.14869" lon="-1.63854">
        <ele>70</ele>
        <time>2021-02-20T13:37:57.000Z</time>
      </trkpt>
      <trkpt lat="47.14867" lon="-1.63871">
        <ele>70</ele>
        <time>2021-02-20T13:37:59.000Z</time>
      </trkpt>
      <trkpt lat="47.14866" lon="-1.63888">
        <ele>70</ele>
        <time>2021-02-20T13:38:01.000Z</time>
      </trkpt>
      <trkpt lat="47.14863" lon="-1.63903">
        <ele>70</ele>
        <time>2021-02-20T13:38:03.000Z</time>
      </trkpt>
      <trkpt lat="47.14861" lon="-1.63919">
        <ele>70</ele>
        <time>2021-02-20T13:38:05.000Z</time>
      </trkpt>
      <trkpt lat="47.14858" lon="-1.63934">
        <ele>70</ele>
        <time>2021-02-20T13:38:07.000Z</time>
      </trkpt>
      <trkpt lat="47.14856" lon="-1.63949">
        <ele>70</ele>
        <time>2021-02-20T13:38:09.000Z</time>
      </trkpt>
      <trkpt lat="47.14857" lon="-1.63964">
        <ele>70</ele>
        <time>2021-02-20T13:38:11.000Z</time>
      </trkpt>
      <trkpt lat="47.14861" lon="-1.63979">
        <ele>70</ele>
        <time>2021-02-20T13:38:13.000Z</time>
      </trkpt>
      <trkpt lat="47.14869" lon="-1.63991">
        <ele>70</ele>
        <time>2021-02-20T13:38:15.000Z</time>
      </trkpt>
      <trkpt lat="47.14877" lon="-1.64004">
        <ele>71</ele>
        <time>2021-02-20T13:38:17.000Z</time>
      </trkpt>
      <trkpt lat="47.14886" lon="-1.64014">
        <ele>71</ele>
        <time>2021-02-20T13:38:19.000Z</time>
      </trkpt>
      <trkpt lat="47.14898" lon="-1.64018">
        <ele>72</ele>
        <time>2021-02-20T13:38:21.000Z</time>
      </trkpt>
      <trkpt lat="47.14908" lon="-1.64013">
        <ele>72</ele>
        <time>2021-02-20T13:38:23.000Z</time>
      </trkpt>
      <trkpt lat="47.14916" lon="-1.64">
        <ele>72</ele>
        <time>2021-02-20T13:38:25.000Z</time>
      </trkpt>
      <trkpt lat="47.14923" lon="-1.63985">
        <ele>71</ele>
        <time>2021-02-20T13:38:27.000Z</time>
      </trkpt>
      <trkpt lat="47.14931" lon="-1.63971">
        <ele>71</ele>
        <time>2021-02-20T13:38:29.000Z</time>
      </trkpt>
      <trkpt lat="47.14939" lon="-1.63957">
        <ele>72</ele>
        <time>2021-02-20T13:38:31.000Z</time>
      </trkpt>
      <trkpt lat="47.14947" lon="-1.63943">
        <ele>72</ele>
        <time>2021-02-20T13:38:33.000Z</time>
      </trkpt>
      <trkpt lat="47.14956" lon="-1.63929">
        <ele>72</ele>
        <time>2021-02-20T13:38:35.000Z</time>
      </trkpt>
      <trkpt lat="47.14965" lon="-1.63915">
        <ele>71</ele>
        <time>2021-02-20T13:38:37.000Z</time>
      </trkpt>
      <trkpt lat="47.14974" lon="-1.63902">
        <ele>71</ele>
        <time>2021-02-20T13:38:39.000Z</time>
      </trkpt>
      <trkpt lat="47.14984" lon="-1.63888">
        <ele>71</ele>
        <time>2021-02-20T13:38:41.000Z</time>
      </trkpt>
      <trkpt lat="47.14994" lon="-1.63874">
        <ele>71</ele>
        <time>2021-02-20T13:38:43.000Z</time>
      </trkpt>
      <trkpt lat="47.15004" lon="-1.6386">
        <ele>70</ele>
        <time>2021-02-20T13:38:45.000Z</time>
      </trkpt>
      <trkpt lat="47.15014" lon="-1.63846">
        <ele>70</ele>
        <time>2021-02-20T13:38:47.000Z</time>
      </trkpt>
      <trkpt lat="47.15025" lon="-1.63832">
        <ele>70</ele>
        <time>2021-02-20T13:38:49.000Z</time>
      </trkpt>
      <trkpt lat="47.15035" lon="-1.63818">
        <ele>70</ele>
        <time>2021-02-20T13:38:51.000Z</time>
      </trkpt>
      <trkpt lat="47.15045" lon="-1.63804">
        <ele>70</ele>
        <time>2021-02-20T13:38:53.000Z</time>
      </trkpt>
      <trkpt lat="47.15055" lon="-1.6379">
        <ele>70</ele>
        <time>2021-02-20T13:38:55.000Z</time>
      </trkpt>
      <trkpt lat="47.15066" lon="-1.63778">
        <ele>70</ele>
        <time>2021-02-20T13:38:57.000Z</time>
      </trkpt>
      <trkpt lat="47.15078" lon="-1.63764">
        <ele>70</ele>
        <time>2021-02-20T13:38:59.000Z</time>
      </trkpt>
      <trkpt lat="47.15089" lon="-1.63751">
        <ele>70</ele>
        <time>2021-02-20T13:39:01.000Z</time>
      </trkpt>
      <trkpt lat="47.151" lon="-1.63738">
        <ele>71</ele>
        <time>2021-02-20T13:39:03.000Z</time>
      </trkpt>
      <trkpt lat="47.15111" lon="-1.63726">
        <ele>71</ele>
        <time>2021-02-20T13:39:05.000Z</time>
      </trkpt>
      <trkpt lat="47.15122" lon="-1.63714">
        <ele>71</ele>
        <time>2021-02-20T13:39:07.000Z</time>
      </trkpt>
      <trkpt lat="47.15133" lon="-1.63702">
        <ele>72</ele>
        <time>2021-02-20T13:39:09.000Z</time>
      </trkpt>
      <trkpt lat="47.15144" lon="-1.63691">
        <ele>72</ele>
        <time>2021-02-20T13:39:11.000Z</time>
      </trkpt>
      <trkpt lat="47.15156" lon="-1.6368">
        <ele>72</ele>
        <time>2021-02-20T13:39:13.000Z</time>
      </trkpt>
      <trkpt lat="47.15168" lon="-1.6367">
        <ele>71</ele>
        <time>2021-02-20T13:39:15.000Z</time>
      </trkpt>
      <trkpt lat="47.1518" lon="-1.63659">
        <ele>71</ele>
        <time>2021-02-20T13:39:17.000Z</time>
      </trkpt>
      <trkpt lat="47.15192" lon="-1.63648">
        <ele>71</ele>
        <time>2021-02-20T13:39:19.000Z</time>
      </trkpt>
      <trkpt lat="47.15204" lon="-1.63638">
        <ele>71</ele>
        <time>2021-02-20T13:39:21.000Z</time>
      </trkpt>
      <trkpt lat="47.15215" lon="-1.63627">
        <ele>71</ele>
        <time>2021-02-20T13:39:23.000Z</time>
      </trkpt>
      <trkpt lat="47.15227" lon="-1.63617">
        <ele>71</ele>
        <time>2021-02-20T13:39:25.000Z</time>
      </trkpt>
      <trkpt lat="47.15238" lon="-1.63606">
        <ele>71</ele>
        <time>2021-02-20T13:39:27.000Z</time>
      </trkpt>
      <trkpt lat="47.1525" lon="-1.63595">
        <ele>71</ele>
        <time>2021-02-20T13:39:29.000Z</time>
      </trkpt>
      <trkpt lat="47.15262" lon="-1.63584">
        <ele>71</ele>
        <time>2021-02-20T13:39:31.000Z</time>
      </trkpt>
      <trkpt lat="47.15274" lon="-1.63573">
        <ele>71</ele>
        <time>2021-02-20T13:39:33.000Z</time>
      </trkpt>
      <trkpt lat="47.15286" lon="-1.63563">
        <ele>71</ele>
        <time>2021-02-20T13:39:35.000Z</time>
      </trkpt>
      <trkpt lat="47.15297" lon="-1.63553">
        <ele>71</ele>
        <time>2021-02-20T13:39:37.000Z</time>
      </trkpt>
      <trkpt lat="47.15308" lon="-1.63542">
        <ele>71</ele>
        <time>2021-02-20T13:39:39.000Z</time>
      </trkpt>
      <trkpt lat="47.1532" lon="-1.63532">
        <ele>71</ele>
        <time>2021-02-20T13:39:41.000Z</time>
      </trkpt>
      <trkpt lat="47.15331" lon="-1.63521">
        <ele>71</ele>
        <time>2021-02-20T13:39:43.000Z</time>
      </trkpt>
      <trkpt lat="47.15343" lon="-1.63511">
        <ele>71</ele>
        <time>2021-02-20T13:39:45.000Z</time>
      </trkpt>
      <trkpt lat="47.15355" lon="-1.635">
        <ele>71</ele>
        <time>2021-02-20T13:39:47.000Z</time>
      </trkpt>
      <trkpt lat="47.15367" lon="-1.6349">
        <ele>71</ele>
        <time>2021-02-20T13:39:49.000Z</time>
      </trkpt>
      <trkpt lat="47.15379" lon="-1.63479">
        <ele>71</ele>
        <time>2021-02-20T13:39:51.000Z</time>
      </trkpt>
      <trkpt lat="47.15391" lon="-1.63468">
        <ele>71</ele>
        <time>2021-02-20T13:39:53.000Z</time>
      </trkpt>
      <trkpt lat="47.15403" lon="-1.63458">
        <ele>71</ele>
        <time>2021-02-20T13:39:55.000Z</time>
      </trkpt>
      <trkpt lat="47.15415" lon="-1.63448">
        <ele>71</ele>
        <time>2021-02-20T13:39:57.000Z</time>
      </trkpt>
      <trkpt lat="47.15427" lon="-1.63437">
        <ele>70</ele>
        <time>2021-02-20T13:39:59.000Z</time>
      </trkpt>
      <trkpt lat="47.15438" lon="-1.63425">
        <ele>70</ele>
        <time>2021-02-20T13:40:01.000Z</time>
      </trkpt>
      <trkpt lat="47.15451" lon="-1.63413">
        <ele>70</ele>
        <time>2021-02-20T13:40:03.000Z</time>
      </trkpt>
      <trkpt lat="47.15463" lon="-1.63401">
        <ele>69</ele>
        <time>2021-02-20T13:40:05.000Z</time>
      </trkpt>
      <trkpt lat="47.15476" lon="-1.63391">
        <ele>69</ele>
        <time>2021-02-20T13:40:07.000Z</time>
      </trkpt>
      <trkpt lat="47.1549" lon="-1.63383">
        <ele>69</ele>
        <time>2021-02-20T13:40:09.000Z</time>
      </trkpt>
      <trkpt lat="47.15503" lon="-1.63371">
        <ele>68</ele>
        <time>2021-02-20T13:40:11.000Z</time>
      </trkpt>
      <trkpt lat="47.15517" lon="-1.6336">
        <ele>67</ele>
        <time>2021-02-20T13:40:13.000Z</time>
      </trkpt>
      <trkpt lat="47.15531" lon="-1.63348">
        <ele>67</ele>
        <time>2021-02-20T13:40:15.000Z</time>
      </trkpt>
      <trkpt lat="47.15545" lon="-1.63336">
        <ele>66</ele>
        <time>2021-02-20T13:40:17.000Z</time>
      </trkpt>
      <trkpt lat="47.15559" lon="-1.63323">
        <ele>66</ele>
        <time>2021-02-20T13:40:19.000Z</time>
      </trkpt>
      <trkpt lat="47.15573" lon="-1.6331">
        <ele>65</ele>
        <time>2021-02-20T13:40:21.000Z</time>
      </trkpt>
      <trkpt lat="47.15588" lon="-1.63297">
        <ele>65</ele>
        <time>2021-02-20T13:40:23.000Z</time>
      </trkpt>
      <trkpt lat="47.15602" lon="-1.63285">
        <ele>64</ele>
        <time>2021-02-20T13:40:25.000Z</time>
      </trkpt>
      <trkpt lat="47.15616" lon="-1.63272">
        <ele>64</ele>
        <time>2021-02-20T13:40:27.000Z</time>
      </trkpt>
      <trkpt lat="47.1563" lon="-1.6326">
        <ele>65</ele>
        <time>2021-02-20T13:40:29.000Z</time>
      </trkpt>
      <trkpt lat="47.15644" lon="-1.63248">
        <ele>64</ele>
        <time>2021-02-20T13:40:31.000Z</time>
      </trkpt>
      <trkpt lat="47.15657" lon="-1.63236">
        <ele>65</ele>
        <time>2021-02-20T13:40:33.000Z</time>
      </trkpt>
      <trkpt lat="47.1567" lon="-1.63225">
        <ele>65</ele>
        <time>2021-02-20T13:40:35.000Z</time>
      </trkpt>
      <trkpt lat="47.15683" lon="-1.63213">
        <ele>65</ele>
        <time>2021-02-20T13:40:37.000Z</time>
      </trkpt>
      <trkpt lat="47.15697" lon="-1.63201">
        <ele>65</ele>
        <time>2021-02-20T13:40:39.000Z</time>
      </trkpt>
      <trkpt lat="47.1571" lon="-1.6319">
        <ele>65</ele>
        <time>2021-02-20T13:40:41.000Z</time>
      </trkpt>
      <trkpt lat="47.15721" lon="-1.63179">
        <ele>65</ele>
        <time>2021-02-20T13:40:43.000Z</time>
      </trkpt>
      <trkpt lat="47.15733" lon="-1.63169">
        <ele>65</ele>
        <time>2021-02-20T13:40:45.000Z</time>
      </trkpt>
      <trkpt lat="47.15743" lon="-1.63156">
        <ele>64</ele>
        <time>2021-02-20T13:40:47.000Z</time>
      </trkpt>
      <trkpt lat="47.15754" lon="-1.63145">
        <ele>64</ele>
        <time>2021-02-20T13:40:49.000Z</time>
      </trkpt>
      <trkpt lat="47.15768" lon="-1.63138">
        <ele>63</ele>
        <time>2021-02-20T13:40:51.000Z</time>
      </trkpt>
      <trkpt lat="47.15782" lon="-1.63125">
        <ele>63</ele>
        <time>2021-02-20T13:40:53.000Z</time>
      </trkpt>
      <trkpt lat="47.15796" lon="-1.63112">
        <ele>63</ele>
        <time>2021-02-20T13:40:55.000Z</time>
      </trkpt>
      <trkpt lat="47.15811" lon="-1.631">
        <ele>62</ele>
        <time>2021-02-20T13:40:57.000Z</time>
      </trkpt>
      <trkpt lat="47.15827" lon="-1.63086">
        <ele>61</ele>
        <time>2021-02-20T13:40:59.000Z</time>
      </trkpt>
      <trkpt lat="47.15835" lon="-1.63079">
        <ele>61</ele>
        <time>2021-02-20T13:41:00.000Z</time>
      </trkpt>
      <trkpt lat="47.15843" lon="-1.63072">
        <ele>60</ele>
        <time>2021-02-20T13:41:01.000Z</time>
      </trkpt>
      <trkpt lat="47.15851" lon="-1.63065">
        <ele>60</ele>
        <time>2021-02-20T13:41:02.000Z</time>
      </trkpt>
      <trkpt lat="47.1586" lon="-1.63058">
        <ele>59</ele>
        <time>2021-02-20T13:41:03.000Z</time>
      </trkpt>
      <trkpt lat="47.15868" lon="-1.63051">
        <ele>59</ele>
        <time>2021-02-20T13:41:04.000Z</time>
      </trkpt>
      <trkpt lat="47.15876" lon="-1.63043">
        <ele>59</ele>
        <time>2021-02-20T13:41:05.000Z</time>
      </trkpt>
      <trkpt lat="47.15884" lon="-1.63036">
        <ele>59</ele>
        <time>2021-02-20T13:41:06.000Z</time>
      </trkpt>
      <trkpt lat="47.15892" lon="-1.63029">
        <ele>59</ele>
        <time>2021-02-20T13:41:07.000Z</time>
      </trkpt>
      <trkpt lat="47.159" lon="-1.63022">
        <ele>59</ele>
        <time>2021-02-20T13:41:08.000Z</time>
      </trkpt>
      <trkpt lat="47.15915" lon="-1.63008">
        <ele>59</ele>
        <time>2021-02-20T13:41:10.000Z</time>
      </trkpt>
      <trkpt lat="47.15928" lon="-1.62995">
        <ele>59</ele>
        <time>2021-02-20T13:41:12.000Z</time>
      </trkpt>
      <trkpt lat="47.15942" lon="-1.62983">
        <ele>59</ele>
        <time>2021-02-20T13:41:14.000Z</time>
      </trkpt>
      <trkpt lat="47.15955" lon="-1.62972">
        <ele>60</ele>
        <time>2021-02-20T13:41:16.000Z</time>
      </trkpt>
      <trkpt lat="47.15969" lon="-1.62959">
        <ele>61</ele>
        <time>2021-02-20T13:41:18.000Z</time>
      </trkpt>
      <trkpt lat="47.15983" lon="-1.62948">
        <ele>61</ele>
        <time>2021-02-20T13:41:20.000Z</time>
      </trkpt>
      <trkpt lat="47.15997" lon="-1.62935">
        <ele>62</ele>
        <time>2021-02-20T13:41:22.000Z</time>
      </trkpt>
      <trkpt lat="47.16011" lon="-1.62923">
        <ele>62</ele>
        <time>2021-02-20T13:41:24.000Z</time>
      </trkpt>
      <trkpt lat="47.16025" lon="-1.62911">
        <ele>62</ele>
        <time>2021-02-20T13:41:26.000Z</time>
      </trkpt>
      <trkpt lat="47.16038" lon="-1.62899">
        <ele>62</ele>
        <time>2021-02-20T13:41:28.000Z</time>
      </trkpt>
      <trkpt lat="47.16051" lon="-1.62887">
        <ele>62</ele>
        <time>2021-02-20T13:41:30.000Z</time>
      </trkpt>
      <trkpt lat="47.16064" lon="-1.62876">
        <ele>63</ele>
        <time>2021-02-20T13:41:32.000Z</time>
      </trkpt>
      <trkpt lat="47.16075" lon="-1.62865">
        <ele>64</ele>
        <time>2021-02-20T13:41:34.000Z</time>
      </trkpt>
      <trkpt lat="47.16086" lon="-1.62855">
        <ele>65</ele>
        <time>2021-02-20T13:41:36.000Z</time>
      </trkpt>
      <trkpt lat="47.16097" lon="-1.62845">
        <ele>65</ele>
        <time>2021-02-20T13:41:38.000Z</time>
      </trkpt>
      <trkpt lat="47.16107" lon="-1.62836">
        <ele>66</ele>
        <time>2021-02-20T13:41:40.000Z</time>
      </trkpt>
      <trkpt lat="47.16118" lon="-1.62827">
        <ele>66</ele>
        <time>2021-02-20T13:41:42.000Z</time>
      </trkpt>
      <trkpt lat="47.16128" lon="-1.62818">
        <ele>66</ele>
        <time>2021-02-20T13:41:44.000Z</time>
      </trkpt>
      <trkpt lat="47.16137" lon="-1.6281">
        <ele>67</ele>
        <time>2021-02-20T13:41:46.000Z</time>
      </trkpt>
      <trkpt lat="47.16148" lon="-1.62801">
        <ele>67</ele>
        <time>2021-02-20T13:41:48.000Z</time>
      </trkpt>
      <trkpt lat="47.16158" lon="-1.62792">
        <ele>68</ele>
        <time>2021-02-20T13:41:50.000Z</time>
      </trkpt>
      <trkpt lat="47.16169" lon="-1.62783">
        <ele>68</ele>
        <time>2021-02-20T13:41:52.000Z</time>
      </trkpt>
      <trkpt lat="47.16179" lon="-1.62773">
        <ele>69</ele>
        <time>2021-02-20T13:41:54.000Z</time>
      </trkpt>
      <trkpt lat="47.16189" lon="-1.62763">
        <ele>69</ele>
        <time>2021-02-20T13:41:56.000Z</time>
      </trkpt>
      <trkpt lat="47.16199" lon="-1.62754">
        <ele>69</ele>
        <time>2021-02-20T13:41:58.000Z</time>
      </trkpt>
      <trkpt lat="47.16209" lon="-1.62745">
        <ele>70</ele>
        <time>2021-02-20T13:42:00.000Z</time>
      </trkpt>
      <trkpt lat="47.1622" lon="-1.62736">
        <ele>70</ele>
        <time>2021-02-20T13:42:02.000Z</time>
      </trkpt>
      <trkpt lat="47.1623" lon="-1.62727">
        <ele>70</ele>
        <time>2021-02-20T13:42:04.000Z</time>
      </trkpt>
      <trkpt lat="47.16241" lon="-1.62719">
        <ele>71</ele>
        <time>2021-02-20T13:42:06.000Z</time>
      </trkpt>
      <trkpt lat="47.1625" lon="-1.62711">
        <ele>72</ele>
        <time>2021-02-20T13:42:08.000Z</time>
      </trkpt>
      <trkpt lat="47.1626" lon="-1.62703">
        <ele>72</ele>
        <time>2021-02-20T13:42:10.000Z</time>
      </trkpt>
      <trkpt lat="47.1627" lon="-1.62695">
        <ele>72</ele>
        <time>2021-02-20T13:42:12.000Z</time>
      </trkpt>
      <trkpt lat="47.16277" lon="-1.62686">
        <ele>72</ele>
        <time>2021-02-20T13:42:14.000Z</time>
      </trkpt>
      <trkpt lat="47.16277" lon="-1.6267">
        <ele>72</ele>
        <time>2021-02-20T13:42:16.000Z</time>
      </trkpt>
      <trkpt lat="47.16278" lon="-1.62653">
        <ele>72</ele>
        <time>2021-02-20T13:42:18.000Z</time>
      </trkpt>
      <trkpt lat="47.1628" lon="-1.62636">
        <ele>72</ele>
        <time>2021-02-20T13:42:20.000Z</time>
      </trkpt>
      <trkpt lat="47.16282" lon="-1.62619">
        <ele>73</ele>
        <time>2021-02-20T13:42:22.000Z</time>
      </trkpt>
      <trkpt lat="47.16286" lon="-1.62603">
        <ele>73</ele>
        <time>2021-02-20T13:42:24.000Z</time>
      </trkpt>
      <trkpt lat="47.16292" lon="-1.6259">
        <ele>73</ele>
        <time>2021-02-20T13:42:26.000Z</time>
      </trkpt>
      <trkpt lat="47.16299" lon="-1.62579">
        <ele>73</ele>
        <time>2021-02-20T13:42:28.000Z</time>
      </trkpt>
      <trkpt lat="47.16309" lon="-1.6257">
        <ele>72</ele>
        <time>2021-02-20T13:42:30.000Z</time>
      </trkpt>
      <trkpt lat="47.16321" lon="-1.62567">
        <ele>72</ele>
        <time>2021-02-20T13:42:32.000Z</time>
      </trkpt>
      <trkpt lat="47.16333" lon="-1.62571">
        <ele>72</ele>
        <time>2021-02-20T13:42:34.000Z</time>
      </trkpt>
      <trkpt lat="47.16345" lon="-1.62576">
        <ele>72</ele>
        <time>2021-02-20T13:42:36.000Z</time>
      </trkpt>
      <trkpt lat="47.16357" lon="-1.6258">
        <ele>73</ele>
        <time>2021-02-20T13:42:38.000Z</time>
      </trkpt>
      <trkpt lat="47.16369" lon="-1.62581">
        <ele>73</ele>
        <time>2021-02-20T13:42:40.000Z</time>
      </trkpt>
      <trkpt lat="47.16382" lon="-1.62581">
        <ele>74</ele>
        <time>2021-02-20T13:42:42.000Z</time>
      </trkpt>
      <trkpt lat="47.16394" lon="-1.62576">
        <ele>74</ele>
        <time>2021-02-20T13:42:44.000Z</time>
      </trkpt>
      <trkpt lat="47.16405" lon="-1.62566">
        <ele>74</ele>
        <time>2021-02-20T13:42:46.000Z</time>
      </trkpt>
      <trkpt lat="47.16415" lon="-1.62556">
        <ele>74</ele>
        <time>2021-02-20T13:42:48.000Z</time>
      </trkpt>
      <trkpt lat="47.16426" lon="-1.62546">
        <ele>74</ele>
        <time>2021-02-20T13:42:50.000Z</time>
      </trkpt>
      <trkpt lat="47.16436" lon="-1.62539">
        <ele>75</ele>
        <time>2021-02-20T13:42:52.000Z</time>
      </trkpt>
      <trkpt lat="47.16447" lon="-1.6254">
        <ele>75</ele>
        <time>2021-02-20T13:42:54.000Z</time>
      </trkpt>
      <trkpt lat="47.16459" lon="-1.62543">
        <ele>74</ele>
        <time>2021-02-20T13:42:56.000Z</time>
      </trkpt>
      <trkpt lat="47.1647" lon="-1.62546">
        <ele>74</ele>
        <time>2021-02-20T13:42:58.000Z</time>
      </trkpt>
      <trkpt lat="47.16481" lon="-1.62549">
        <ele>74</ele>
        <time>2021-02-20T13:43:00.000Z</time>
      </trkpt>
      <trkpt lat="47.16492" lon="-1.62553">
        <ele>74</ele>
        <time>2021-02-20T13:43:02.000Z</time>
      </trkpt>
      <trkpt lat="47.16504" lon="-1.62557">
        <ele>74</ele>
        <time>2021-02-20T13:43:04.000Z</time>
      </trkpt>
      <trkpt lat="47.16516" lon="-1.62561">
        <ele>74</ele>
        <time>2021-02-20T13:43:06.000Z</time>
      </trkpt>
      <trkpt lat="47.16529" lon="-1.62563">
        <ele>73</ele>
        <time>2021-02-20T13:43:08.000Z</time>
      </trkpt>
      <trkpt lat="47.1654" lon="-1.62556">
        <ele>73</ele>
        <time>2021-02-20T13:43:10.000Z</time>
      </trkpt>
      <trkpt lat="47.16551" lon="-1.62544">
        <ele>73</ele>
        <time>2021-02-20T13:43:12.000Z</time>
      </trkpt>
      <trkpt lat="47.1656" lon="-1.62531">
        <ele>73</ele>
        <time>2021-02-20T13:43:14.000Z</time>
      </trkpt>
      <trkpt lat="47.16568" lon="-1.62515">
        <ele>72</ele>
        <time>2021-02-20T13:43:16.000Z</time>
      </trkpt>
      <trkpt lat="47.16575" lon="-1.62497">
        <ele>71</ele>
        <time>2021-02-20T13:43:18.000Z</time>
      </trkpt>
      <trkpt lat="47.16582" lon="-1.6248">
        <ele>71</ele>
        <time>2021-02-20T13:43:20.000Z</time>
      </trkpt>
      <trkpt lat="47.16589" lon="-1.62463">
        <ele>70</ele>
        <time>2021-02-20T13:43:22.000Z</time>
      </trkpt>
      <trkpt lat="47.16597" lon="-1.62446">
        <ele>70</ele>
        <time>2021-02-20T13:43:24.000Z</time>
      </trkpt>
      <trkpt lat="47.16604" lon="-1.62429">
        <ele>69</ele>
        <time>2021-02-20T13:43:26.000Z</time>
      </trkpt>
      <trkpt lat="47.16612" lon="-1.62413">
        <ele>69</ele>
        <time>2021-02-20T13:43:28.000Z</time>
      </trkpt>
      <trkpt lat="47.16623" lon="-1.62397">
        <ele>68</ele>
        <time>2021-02-20T13:43:30.000Z</time>
      </trkpt>
      <trkpt lat="47.16633" lon="-1.62383">
        <ele>68</ele>
        <time>2021-02-20T13:43:32.000Z</time>
      </trkpt>
      <trkpt lat="47.16645" lon="-1.6237">
        <ele>67</ele>
        <time>2021-02-20T13:43:34.000Z</time>
      </trkpt>
      <trkpt lat="47.16658" lon="-1.6236">
        <ele>67</ele>
        <time>2021-02-20T13:43:36.000Z</time>
      </trkpt>
      <trkpt lat="47.16672" lon="-1.62358">
        <ele>67</ele>
        <time>2021-02-20T13:43:38.000Z</time>
      </trkpt>
      <trkpt lat="47.16687" lon="-1.62361">
        <ele>66</ele>
        <time>2021-02-20T13:43:40.000Z</time>
      </trkpt>
      <trkpt lat="47.167" lon="-1.62371">
        <ele>66</ele>
        <time>2021-02-20T13:43:42.000Z</time>
      </trkpt>
      <trkpt lat="47.1671" lon="-1.62384">
        <ele>66</ele>
        <time>2021-02-20T13:43:44.000Z</time>
      </trkpt>
      <trkpt lat="47.16716" lon="-1.62399">
        <ele>66</ele>
        <time>2021-02-20T13:43:46.000Z</time>
      </trkpt>
      <trkpt lat="47.16726" lon="-1.62409">
        <ele>66</ele>
        <time>2021-02-20T13:43:48.000Z</time>
      </trkpt>
      <trkpt lat="47.16729" lon="-1.62423">
        <ele>67</ele>
        <time>2021-02-20T13:43:50.000Z</time>
      </trkpt>
      <trkpt lat="47.16727" lon="-1.62439">
        <ele>67</ele>
        <time>2021-02-20T13:43:52.000Z</time>
      </trkpt>
      <trkpt lat="47.16721" lon="-1.62455">
        <ele>67</ele>
        <time>2021-02-20T13:43:54.000Z</time>
      </trkpt>
      <trkpt lat="47.16718" lon="-1.62472">
        <ele>67</ele>
        <time>2021-02-20T13:43:56.000Z</time>
      </trkpt>
      <trkpt lat="47.16716" lon="-1.62489">
        <ele>67</ele>
        <time>2021-02-20T13:43:58.000Z</time>
      </trkpt>
      <trkpt lat="47.16725" lon="-1.62498">
        <ele>67</ele>
        <time>2021-02-20T13:44:00.000Z</time>
      </trkpt>
      <trkpt lat="47.16737" lon="-1.62501">
        <ele>67</ele>
        <time>2021-02-20T13:44:02.000Z</time>
      </trkpt>
      <trkpt lat="47.16749" lon="-1.62506">
        <ele>67</ele>
        <time>2021-02-20T13:44:04.000Z</time>
      </trkpt>
      <trkpt lat="47.16761" lon="-1.62512">
        <ele>66</ele>
        <time>2021-02-20T13:44:06.000Z</time>
      </trkpt>
      <trkpt lat="47.16772" lon="-1.6252">
        <ele>66</ele>
        <time>2021-02-20T13:44:08.000Z</time>
      </trkpt>
      <trkpt lat="47.16783" lon="-1.62528">
        <ele>66</ele>
        <time>2021-02-20T13:44:10.000Z</time>
      </trkpt>
      <trkpt lat="47.16794" lon="-1.62534">
        <ele>66</ele>
        <time>2021-02-20T13:44:12.000Z</time>
      </trkpt>
      <trkpt lat="47.16804" lon="-1.62541">
        <ele>66</ele>
        <time>2021-02-20T13:44:14.000Z</time>
      </trkpt>
      <trkpt lat="47.16813" lon="-1.62549">
        <ele>66</ele>
        <time>2021-02-20T13:44:16.000Z</time>
      </trkpt>
      <trkpt lat="47.16823" lon="-1.62559">
        <ele>66</ele>
        <time>2021-02-20T13:44:18.000Z</time>
      </trkpt>
      <trkpt lat="47.16831" lon="-1.6257">
        <ele>66</ele>
        <time>2021-02-20T13:44:20.000Z</time>
      </trkpt>
      <trkpt lat="47.16832" lon="-1.62586">
        <ele>66</ele>
        <time>2021-02-20T13:44:22.000Z</time>
      </trkpt>
      <trkpt lat="47.16823" lon="-1.626">
        <ele>66</ele>
        <time>2021-02-20T13:44:24.000Z</time>
      </trkpt>
      <trkpt lat="47.16815" lon="-1.62613">
        <ele>66</ele>
        <time>2021-02-20T13:44:26.000Z</time>
      </trkpt>
      <trkpt lat="47.16808" lon="-1.62625">
        <ele>66</ele>
        <time>2021-02-20T13:44:28.000Z</time>
      </trkpt>
      <trkpt lat="47.168" lon="-1.62637">
        <ele>67</ele>
        <time>2021-02-20T13:44:30.000Z</time>
      </trkpt>
      <trkpt lat="47.16793" lon="-1.62647">
        <ele>67</ele>
        <time>2021-02-20T13:44:32.000Z</time>
      </trkpt>
      <trkpt lat="47.16787" lon="-1.6266">
        <ele>67</ele>
        <time>2021-02-20T13:44:35.000Z</time>
      </trkpt>
      <trkpt lat="47.16778" lon="-1.62654">
        <ele>67</ele>
        <time>2021-02-20T13:44:40.000Z</time>
      </trkpt>
    </trkseg>
  </trk>
</gpx>